<?xml version="1.0" encoding="UTF-8" standalone="no" ?>
<gpx xmlns="http://www.topografix.com/GPX/1/1" xmlns:xsi="http://www.w3.org/2001/XMLSchema-instance" xsi:schemaLocation="http://www.topografix.com/GPX/1/1 http://www.topografix.com/GPX/1/1/gpx.xsd" version="1.1" creator="VisuGPX - https://www.visugpx.com">
  <metadata>
    <name>22 exploration 2 béivey olon</name>
  </metadata>
  <trk>
    <name><![CDATA[22 exploration 2 béivey olon_1]]></name>
    <trkseg>
      <trkpt lat="44.30807" lon="5.18395">
        <ele>472.9</ele>
        <time>2022-07-18T06:44:43Z</time>
      </trkpt>
      <trkpt lat="44.30807" lon="5.18395">
        <ele>472.9</ele>
        <time>2022-07-18T06:44:44Z</time>
      </trkpt>
      <trkpt lat="44.30807" lon="5.18395">
        <ele>472.9</ele>
        <time>2022-07-18T06:44:45Z</time>
      </trkpt>
      <trkpt lat="44.30807" lon="5.18395">
        <ele>472.9</ele>
        <time>2022-07-18T06:44:46Z</time>
      </trkpt>
      <trkpt lat="44.30807" lon="5.18395">
        <ele>472.9</ele>
        <time>2022-07-18T06:44:47Z</time>
      </trkpt>
      <trkpt lat="44.30806" lon="5.18395">
        <ele>473</ele>
        <time>2022-07-18T06:44:48Z</time>
      </trkpt>
      <trkpt lat="44.30805" lon="5.18397">
        <ele>473</ele>
        <time>2022-07-18T06:44:49Z</time>
      </trkpt>
      <trkpt lat="44.30805" lon="5.18397">
        <ele>473</ele>
        <time>2022-07-18T06:44:50Z</time>
      </trkpt>
      <trkpt lat="44.30805" lon="5.18397">
        <ele>473</ele>
        <time>2022-07-18T06:44:51Z</time>
      </trkpt>
      <trkpt lat="44.30805" lon="5.18397">
        <ele>473</ele>
        <time>2022-07-18T06:44:52Z</time>
      </trkpt>
      <trkpt lat="44.30805" lon="5.18397">
        <ele>473</ele>
        <time>2022-07-18T06:44:53Z</time>
      </trkpt>
      <trkpt lat="44.30805" lon="5.18397">
        <ele>473</ele>
        <time>2022-07-18T06:44:54Z</time>
      </trkpt>
      <trkpt lat="44.30805" lon="5.18397">
        <ele>473</ele>
        <time>2022-07-18T06:44:55Z</time>
      </trkpt>
      <trkpt lat="44.30805" lon="5.18397">
        <ele>473</ele>
        <time>2022-07-18T06:44:56Z</time>
      </trkpt>
      <trkpt lat="44.30805" lon="5.18397">
        <ele>473</ele>
        <time>2022-07-18T06:44:57Z</time>
      </trkpt>
      <trkpt lat="44.30805" lon="5.18397">
        <ele>473</ele>
        <time>2022-07-18T06:44:58Z</time>
      </trkpt>
      <trkpt lat="44.30803" lon="5.18394">
        <ele>473.1</ele>
        <time>2022-07-18T06:45:05Z</time>
      </trkpt>
      <trkpt lat="44.30802" lon="5.18393">
        <ele>473.1</ele>
        <time>2022-07-18T06:45:06Z</time>
      </trkpt>
      <trkpt lat="44.30801" lon="5.18391">
        <ele>473.2</ele>
        <time>2022-07-18T06:45:07Z</time>
      </trkpt>
      <trkpt lat="44.30801" lon="5.1839">
        <ele>473.2</ele>
        <time>2022-07-18T06:45:08Z</time>
      </trkpt>
      <trkpt lat="44.30801" lon="5.18389">
        <ele>473.2</ele>
        <time>2022-07-18T06:45:09Z</time>
      </trkpt>
      <trkpt lat="44.308" lon="5.18389">
        <ele>473.2</ele>
        <time>2022-07-18T06:45:10Z</time>
      </trkpt>
      <trkpt lat="44.30798" lon="5.18389">
        <ele>473.3</ele>
        <time>2022-07-18T06:45:11Z</time>
      </trkpt>
      <trkpt lat="44.30797" lon="5.1839">
        <ele>473.3</ele>
        <time>2022-07-18T06:45:12Z</time>
      </trkpt>
      <trkpt lat="44.30795" lon="5.18391">
        <ele>473.4</ele>
        <time>2022-07-18T06:45:13Z</time>
      </trkpt>
      <trkpt lat="44.30793" lon="5.18393">
        <ele>473.4</ele>
        <time>2022-07-18T06:45:14Z</time>
      </trkpt>
      <trkpt lat="44.30792" lon="5.18393">
        <ele>473.5</ele>
        <time>2022-07-18T06:45:15Z</time>
      </trkpt>
      <trkpt lat="44.30791" lon="5.18398">
        <ele>473.6</ele>
        <time>2022-07-18T06:45:16Z</time>
      </trkpt>
      <trkpt lat="44.30791" lon="5.184">
        <ele>473.6</ele>
        <time>2022-07-18T06:45:17Z</time>
      </trkpt>
      <trkpt lat="44.30792" lon="5.18402">
        <ele>473.6</ele>
        <time>2022-07-18T06:45:18Z</time>
      </trkpt>
      <trkpt lat="44.30792" lon="5.18404">
        <ele>473.7</ele>
        <time>2022-07-18T06:45:19Z</time>
      </trkpt>
      <trkpt lat="44.30794" lon="5.18407">
        <ele>473.8</ele>
        <time>2022-07-18T06:45:20Z</time>
      </trkpt>
      <trkpt lat="44.30795" lon="5.18409">
        <ele>473.8</ele>
        <time>2022-07-18T06:45:21Z</time>
      </trkpt>
      <trkpt lat="44.30798" lon="5.1841">
        <ele>473.9</ele>
        <time>2022-07-18T06:45:22Z</time>
      </trkpt>
      <trkpt lat="44.30802" lon="5.18411">
        <ele>474</ele>
        <time>2022-07-18T06:45:23Z</time>
      </trkpt>
      <trkpt lat="44.30803" lon="5.18411">
        <ele>474</ele>
        <time>2022-07-18T06:45:24Z</time>
      </trkpt>
      <trkpt lat="44.30806" lon="5.18412">
        <ele>474.1</ele>
        <time>2022-07-18T06:45:25Z</time>
      </trkpt>
      <trkpt lat="44.30808" lon="5.18414">
        <ele>474.2</ele>
        <time>2022-07-18T06:45:26Z</time>
      </trkpt>
      <trkpt lat="44.30809" lon="5.18415">
        <ele>474.2</ele>
        <time>2022-07-18T06:45:27Z</time>
      </trkpt>
      <trkpt lat="44.30812" lon="5.18417">
        <ele>474.3</ele>
        <time>2022-07-18T06:45:28Z</time>
      </trkpt>
      <trkpt lat="44.30813" lon="5.18418">
        <ele>474.3</ele>
        <time>2022-07-18T06:45:29Z</time>
      </trkpt>
      <trkpt lat="44.30816" lon="5.18421">
        <ele>474.4</ele>
        <time>2022-07-18T06:45:30Z</time>
      </trkpt>
      <trkpt lat="44.30817" lon="5.18422">
        <ele>474.4</ele>
        <time>2022-07-18T06:45:31Z</time>
      </trkpt>
      <trkpt lat="44.30821" lon="5.18425">
        <ele>474.5</ele>
        <time>2022-07-18T06:45:32Z</time>
      </trkpt>
      <trkpt lat="44.30822" lon="5.18425">
        <ele>474.6</ele>
        <time>2022-07-18T06:45:33Z</time>
      </trkpt>
      <trkpt lat="44.30826" lon="5.18427">
        <ele>474.7</ele>
        <time>2022-07-18T06:45:34Z</time>
      </trkpt>
      <trkpt lat="44.30827" lon="5.18428">
        <ele>474.7</ele>
        <time>2022-07-18T06:45:35Z</time>
      </trkpt>
      <trkpt lat="44.3083" lon="5.18429">
        <ele>474.8</ele>
        <time>2022-07-18T06:45:36Z</time>
      </trkpt>
      <trkpt lat="44.3083" lon="5.18429">
        <ele>474.8</ele>
        <time>2022-07-18T06:45:37Z</time>
      </trkpt>
      <trkpt lat="44.30834" lon="5.18432">
        <ele>474.9</ele>
        <time>2022-07-18T06:45:38Z</time>
      </trkpt>
      <trkpt lat="44.30835" lon="5.18432">
        <ele>474.9</ele>
        <time>2022-07-18T06:45:39Z</time>
      </trkpt>
      <trkpt lat="44.30838" lon="5.18435">
        <ele>475</ele>
        <time>2022-07-18T06:45:40Z</time>
      </trkpt>
      <trkpt lat="44.3084" lon="5.18435">
        <ele>475</ele>
        <time>2022-07-18T06:45:41Z</time>
      </trkpt>
      <trkpt lat="44.30843" lon="5.18437">
        <ele>475.1</ele>
        <time>2022-07-18T06:45:42Z</time>
      </trkpt>
      <trkpt lat="44.30845" lon="5.18438">
        <ele>475.1</ele>
        <time>2022-07-18T06:45:43Z</time>
      </trkpt>
      <trkpt lat="44.30848" lon="5.18438">
        <ele>475.1</ele>
        <time>2022-07-18T06:45:44Z</time>
      </trkpt>
      <trkpt lat="44.30851" lon="5.18439">
        <ele>475.2</ele>
        <time>2022-07-18T06:45:45Z</time>
      </trkpt>
      <trkpt lat="44.30854" lon="5.1844">
        <ele>475.2</ele>
        <time>2022-07-18T06:45:46Z</time>
      </trkpt>
      <trkpt lat="44.30855" lon="5.1844">
        <ele>475.2</ele>
        <time>2022-07-18T06:45:47Z</time>
      </trkpt>
      <trkpt lat="44.30859" lon="5.18441">
        <ele>475.3</ele>
        <time>2022-07-18T06:45:48Z</time>
      </trkpt>
      <trkpt lat="44.3086" lon="5.18442">
        <ele>475.3</ele>
        <time>2022-07-18T06:45:49Z</time>
      </trkpt>
      <trkpt lat="44.30862" lon="5.18443">
        <ele>475.3</ele>
        <time>2022-07-18T06:45:50Z</time>
      </trkpt>
      <trkpt lat="44.30863" lon="5.18444">
        <ele>475.4</ele>
        <time>2022-07-18T06:45:51Z</time>
      </trkpt>
      <trkpt lat="44.30866" lon="5.18446">
        <ele>475.4</ele>
        <time>2022-07-18T06:45:52Z</time>
      </trkpt>
      <trkpt lat="44.30866" lon="5.18447">
        <ele>475.4</ele>
        <time>2022-07-18T06:45:53Z</time>
      </trkpt>
      <trkpt lat="44.3087" lon="5.18448">
        <ele>475.4</ele>
        <time>2022-07-18T06:45:54Z</time>
      </trkpt>
      <trkpt lat="44.30871" lon="5.18448">
        <ele>475.5</ele>
        <time>2022-07-18T06:45:55Z</time>
      </trkpt>
      <trkpt lat="44.30875" lon="5.1845">
        <ele>475.5</ele>
        <time>2022-07-18T06:45:56Z</time>
      </trkpt>
      <trkpt lat="44.30876" lon="5.1845">
        <ele>475.5</ele>
        <time>2022-07-18T06:45:57Z</time>
      </trkpt>
      <trkpt lat="44.30879" lon="5.18452">
        <ele>475.5</ele>
        <time>2022-07-18T06:45:58Z</time>
      </trkpt>
      <trkpt lat="44.3088" lon="5.18453">
        <ele>475.6</ele>
        <time>2022-07-18T06:45:59Z</time>
      </trkpt>
      <trkpt lat="44.30883" lon="5.18456">
        <ele>475.6</ele>
        <time>2022-07-18T06:46:00Z</time>
      </trkpt>
      <trkpt lat="44.30884" lon="5.18457">
        <ele>475.6</ele>
        <time>2022-07-18T06:46:01Z</time>
      </trkpt>
      <trkpt lat="44.30887" lon="5.1846">
        <ele>475.7</ele>
        <time>2022-07-18T06:46:02Z</time>
      </trkpt>
      <trkpt lat="44.30888" lon="5.18462">
        <ele>475.7</ele>
        <time>2022-07-18T06:46:03Z</time>
      </trkpt>
      <trkpt lat="44.30891" lon="5.18463">
        <ele>475.7</ele>
        <time>2022-07-18T06:46:04Z</time>
      </trkpt>
      <trkpt lat="44.30893" lon="5.18465">
        <ele>475.7</ele>
        <time>2022-07-18T06:46:05Z</time>
      </trkpt>
      <trkpt lat="44.30896" lon="5.18467">
        <ele>475.8</ele>
        <time>2022-07-18T06:46:06Z</time>
      </trkpt>
      <trkpt lat="44.30898" lon="5.18469">
        <ele>475.8</ele>
        <time>2022-07-18T06:46:07Z</time>
      </trkpt>
      <trkpt lat="44.30901" lon="5.18471">
        <ele>475.8</ele>
        <time>2022-07-18T06:46:08Z</time>
      </trkpt>
      <trkpt lat="44.30903" lon="5.18473">
        <ele>475.9</ele>
        <time>2022-07-18T06:46:09Z</time>
      </trkpt>
      <trkpt lat="44.30906" lon="5.18475">
        <ele>475.9</ele>
        <time>2022-07-18T06:46:10Z</time>
      </trkpt>
      <trkpt lat="44.30908" lon="5.18477">
        <ele>475.9</ele>
        <time>2022-07-18T06:46:11Z</time>
      </trkpt>
      <trkpt lat="44.30911" lon="5.18479">
        <ele>475.9</ele>
        <time>2022-07-18T06:46:12Z</time>
      </trkpt>
      <trkpt lat="44.30913" lon="5.18481">
        <ele>476</ele>
        <time>2022-07-18T06:46:13Z</time>
      </trkpt>
      <trkpt lat="44.30915" lon="5.18483">
        <ele>476</ele>
        <time>2022-07-18T06:46:14Z</time>
      </trkpt>
      <trkpt lat="44.30918" lon="5.18487">
        <ele>476</ele>
        <time>2022-07-18T06:46:15Z</time>
      </trkpt>
      <trkpt lat="44.30919" lon="5.18488">
        <ele>476</ele>
        <time>2022-07-18T06:46:16Z</time>
      </trkpt>
      <trkpt lat="44.30922" lon="5.18491">
        <ele>476</ele>
        <time>2022-07-18T06:46:17Z</time>
      </trkpt>
      <trkpt lat="44.30923" lon="5.18492">
        <ele>476</ele>
        <time>2022-07-18T06:46:18Z</time>
      </trkpt>
      <trkpt lat="44.30926" lon="5.18495">
        <ele>476</ele>
        <time>2022-07-18T06:46:19Z</time>
      </trkpt>
      <trkpt lat="44.30928" lon="5.18497">
        <ele>476</ele>
        <time>2022-07-18T06:46:20Z</time>
      </trkpt>
      <trkpt lat="44.30931" lon="5.18499">
        <ele>475.9</ele>
        <time>2022-07-18T06:46:21Z</time>
      </trkpt>
      <trkpt lat="44.30934" lon="5.18501">
        <ele>475.9</ele>
        <time>2022-07-18T06:46:22Z</time>
      </trkpt>
      <trkpt lat="44.30937" lon="5.18503">
        <ele>475.9</ele>
        <time>2022-07-18T06:46:23Z</time>
      </trkpt>
      <trkpt lat="44.3094" lon="5.18506">
        <ele>475.8</ele>
        <time>2022-07-18T06:46:24Z</time>
      </trkpt>
      <trkpt lat="44.30942" lon="5.18508">
        <ele>475.8</ele>
        <time>2022-07-18T06:46:25Z</time>
      </trkpt>
      <trkpt lat="44.30946" lon="5.1851">
        <ele>475.8</ele>
        <time>2022-07-18T06:46:26Z</time>
      </trkpt>
      <trkpt lat="44.30949" lon="5.18512">
        <ele>475.7</ele>
        <time>2022-07-18T06:46:27Z</time>
      </trkpt>
      <trkpt lat="44.30953" lon="5.18513">
        <ele>475.7</ele>
        <time>2022-07-18T06:46:28Z</time>
      </trkpt>
      <trkpt lat="44.30957" lon="5.18514">
        <ele>475.6</ele>
        <time>2022-07-18T06:46:29Z</time>
      </trkpt>
      <trkpt lat="44.3096" lon="5.18516">
        <ele>475.6</ele>
        <time>2022-07-18T06:46:30Z</time>
      </trkpt>
      <trkpt lat="44.30964" lon="5.18517">
        <ele>475.5</ele>
        <time>2022-07-18T06:46:31Z</time>
      </trkpt>
      <trkpt lat="44.30967" lon="5.18519">
        <ele>475.5</ele>
        <time>2022-07-18T06:46:32Z</time>
      </trkpt>
      <trkpt lat="44.30971" lon="5.18521">
        <ele>475.5</ele>
        <time>2022-07-18T06:46:33Z</time>
      </trkpt>
      <trkpt lat="44.30974" lon="5.18522">
        <ele>475.5</ele>
        <time>2022-07-18T06:46:34Z</time>
      </trkpt>
      <trkpt lat="44.30978" lon="5.18524">
        <ele>475.5</ele>
        <time>2022-07-18T06:46:35Z</time>
      </trkpt>
      <trkpt lat="44.30981" lon="5.18527">
        <ele>475.4</ele>
        <time>2022-07-18T06:46:36Z</time>
      </trkpt>
      <trkpt lat="44.30985" lon="5.18529">
        <ele>475.4</ele>
        <time>2022-07-18T06:46:37Z</time>
      </trkpt>
      <trkpt lat="44.30988" lon="5.18531">
        <ele>475.4</ele>
        <time>2022-07-18T06:46:38Z</time>
      </trkpt>
      <trkpt lat="44.30992" lon="5.18532">
        <ele>475.4</ele>
        <time>2022-07-18T06:46:39Z</time>
      </trkpt>
      <trkpt lat="44.30995" lon="5.18533">
        <ele>475.4</ele>
        <time>2022-07-18T06:46:40Z</time>
      </trkpt>
      <trkpt lat="44.30998" lon="5.18533">
        <ele>475.4</ele>
        <time>2022-07-18T06:46:41Z</time>
      </trkpt>
      <trkpt lat="44.31002" lon="5.18533">
        <ele>475.4</ele>
        <time>2022-07-18T06:46:42Z</time>
      </trkpt>
      <trkpt lat="44.31005" lon="5.18533">
        <ele>475.3</ele>
        <time>2022-07-18T06:46:43Z</time>
      </trkpt>
      <trkpt lat="44.31008" lon="5.18532">
        <ele>475.3</ele>
        <time>2022-07-18T06:46:44Z</time>
      </trkpt>
      <trkpt lat="44.31012" lon="5.18531">
        <ele>475.3</ele>
        <time>2022-07-18T06:46:45Z</time>
      </trkpt>
      <trkpt lat="44.31015" lon="5.18529">
        <ele>475.3</ele>
        <time>2022-07-18T06:46:46Z</time>
      </trkpt>
      <trkpt lat="44.31019" lon="5.18527">
        <ele>475.2</ele>
        <time>2022-07-18T06:46:47Z</time>
      </trkpt>
      <trkpt lat="44.31022" lon="5.18526">
        <ele>475.2</ele>
        <time>2022-07-18T06:46:48Z</time>
      </trkpt>
      <trkpt lat="44.31025" lon="5.18525">
        <ele>475.2</ele>
        <time>2022-07-18T06:46:49Z</time>
      </trkpt>
      <trkpt lat="44.31029" lon="5.18525">
        <ele>475.2</ele>
        <time>2022-07-18T06:46:50Z</time>
      </trkpt>
      <trkpt lat="44.3103" lon="5.18525">
        <ele>475.1</ele>
        <time>2022-07-18T06:46:51Z</time>
      </trkpt>
      <trkpt lat="44.31034" lon="5.18524">
        <ele>475.1</ele>
        <time>2022-07-18T06:46:52Z</time>
      </trkpt>
      <trkpt lat="44.31037" lon="5.18522">
        <ele>475</ele>
        <time>2022-07-18T06:46:53Z</time>
      </trkpt>
      <trkpt lat="44.31041" lon="5.1852">
        <ele>475</ele>
        <time>2022-07-18T06:46:54Z</time>
      </trkpt>
      <trkpt lat="44.31045" lon="5.18518">
        <ele>474.9</ele>
        <time>2022-07-18T06:46:55Z</time>
      </trkpt>
      <trkpt lat="44.3105" lon="5.18515">
        <ele>474.8</ele>
        <time>2022-07-18T06:46:56Z</time>
      </trkpt>
      <trkpt lat="44.31054" lon="5.18512">
        <ele>474.8</ele>
        <time>2022-07-18T06:46:57Z</time>
      </trkpt>
      <trkpt lat="44.31058" lon="5.18511">
        <ele>474.8</ele>
        <time>2022-07-18T06:46:58Z</time>
      </trkpt>
      <trkpt lat="44.31062" lon="5.18511">
        <ele>474.8</ele>
        <time>2022-07-18T06:46:59Z</time>
      </trkpt>
      <trkpt lat="44.31066" lon="5.18511">
        <ele>474.8</ele>
        <time>2022-07-18T06:47:00Z</time>
      </trkpt>
      <trkpt lat="44.3107" lon="5.18513">
        <ele>474.9</ele>
        <time>2022-07-18T06:47:01Z</time>
      </trkpt>
      <trkpt lat="44.31073" lon="5.18516">
        <ele>474.9</ele>
        <time>2022-07-18T06:47:02Z</time>
      </trkpt>
      <trkpt lat="44.31075" lon="5.18519">
        <ele>475</ele>
        <time>2022-07-18T06:47:03Z</time>
      </trkpt>
      <trkpt lat="44.31077" lon="5.18522">
        <ele>475</ele>
        <time>2022-07-18T06:47:04Z</time>
      </trkpt>
      <trkpt lat="44.31078" lon="5.18526">
        <ele>475</ele>
        <time>2022-07-18T06:47:05Z</time>
      </trkpt>
      <trkpt lat="44.3108" lon="5.1853">
        <ele>475.1</ele>
        <time>2022-07-18T06:47:06Z</time>
      </trkpt>
      <trkpt lat="44.31081" lon="5.18534">
        <ele>475.2</ele>
        <time>2022-07-18T06:47:07Z</time>
      </trkpt>
      <trkpt lat="44.31082" lon="5.18538">
        <ele>475.2</ele>
        <time>2022-07-18T06:47:08Z</time>
      </trkpt>
      <trkpt lat="44.31083" lon="5.18541">
        <ele>475.3</ele>
        <time>2022-07-18T06:47:09Z</time>
      </trkpt>
      <trkpt lat="44.31084" lon="5.18545">
        <ele>475.4</ele>
        <time>2022-07-18T06:47:10Z</time>
      </trkpt>
      <trkpt lat="44.31085" lon="5.18549">
        <ele>475.4</ele>
        <time>2022-07-18T06:47:11Z</time>
      </trkpt>
      <trkpt lat="44.31087" lon="5.18553">
        <ele>475.5</ele>
        <time>2022-07-18T06:47:12Z</time>
      </trkpt>
      <trkpt lat="44.31088" lon="5.18557">
        <ele>475.6</ele>
        <time>2022-07-18T06:47:13Z</time>
      </trkpt>
      <trkpt lat="44.31089" lon="5.18559">
        <ele>475.6</ele>
        <time>2022-07-18T06:47:14Z</time>
      </trkpt>
      <trkpt lat="44.3109" lon="5.18564">
        <ele>475.7</ele>
        <time>2022-07-18T06:47:15Z</time>
      </trkpt>
      <trkpt lat="44.3109" lon="5.18565">
        <ele>475.7</ele>
        <time>2022-07-18T06:47:16Z</time>
      </trkpt>
      <trkpt lat="44.31091" lon="5.18569">
        <ele>475.7</ele>
        <time>2022-07-18T06:47:17Z</time>
      </trkpt>
      <trkpt lat="44.31092" lon="5.18573">
        <ele>475.8</ele>
        <time>2022-07-18T06:47:18Z</time>
      </trkpt>
      <trkpt lat="44.31093" lon="5.18578">
        <ele>475.9</ele>
        <time>2022-07-18T06:47:19Z</time>
      </trkpt>
      <trkpt lat="44.31094" lon="5.18579">
        <ele>475.9</ele>
        <time>2022-07-18T06:47:20Z</time>
      </trkpt>
      <trkpt lat="44.31096" lon="5.18585">
        <ele>476</ele>
        <time>2022-07-18T06:47:21Z</time>
      </trkpt>
      <trkpt lat="44.31097" lon="5.18587">
        <ele>476</ele>
        <time>2022-07-18T06:47:22Z</time>
      </trkpt>
      <trkpt lat="44.31099" lon="5.18592">
        <ele>476</ele>
        <time>2022-07-18T06:47:23Z</time>
      </trkpt>
      <trkpt lat="44.311" lon="5.18596">
        <ele>476.1</ele>
        <time>2022-07-18T06:47:24Z</time>
      </trkpt>
      <trkpt lat="44.31102" lon="5.18601">
        <ele>476.1</ele>
        <time>2022-07-18T06:47:25Z</time>
      </trkpt>
      <trkpt lat="44.31104" lon="5.18605">
        <ele>476.2</ele>
        <time>2022-07-18T06:47:26Z</time>
      </trkpt>
      <trkpt lat="44.31105" lon="5.18609">
        <ele>476.2</ele>
        <time>2022-07-18T06:47:27Z</time>
      </trkpt>
      <trkpt lat="44.31107" lon="5.18613">
        <ele>476.3</ele>
        <time>2022-07-18T06:47:28Z</time>
      </trkpt>
      <trkpt lat="44.31109" lon="5.18617">
        <ele>476.3</ele>
        <time>2022-07-18T06:47:29Z</time>
      </trkpt>
      <trkpt lat="44.31111" lon="5.18621">
        <ele>476.4</ele>
        <time>2022-07-18T06:47:30Z</time>
      </trkpt>
      <trkpt lat="44.31113" lon="5.18624">
        <ele>476.4</ele>
        <time>2022-07-18T06:47:31Z</time>
      </trkpt>
      <trkpt lat="44.31115" lon="5.18628">
        <ele>476.4</ele>
        <time>2022-07-18T06:47:32Z</time>
      </trkpt>
      <trkpt lat="44.31117" lon="5.18632">
        <ele>476.5</ele>
        <time>2022-07-18T06:47:33Z</time>
      </trkpt>
      <trkpt lat="44.31119" lon="5.18636">
        <ele>476.5</ele>
        <time>2022-07-18T06:47:34Z</time>
      </trkpt>
      <trkpt lat="44.31121" lon="5.1864">
        <ele>476.6</ele>
        <time>2022-07-18T06:47:35Z</time>
      </trkpt>
      <trkpt lat="44.31123" lon="5.18643">
        <ele>476.6</ele>
        <time>2022-07-18T06:47:36Z</time>
      </trkpt>
      <trkpt lat="44.31125" lon="5.18647">
        <ele>476.7</ele>
        <time>2022-07-18T06:47:37Z</time>
      </trkpt>
      <trkpt lat="44.31127" lon="5.1865">
        <ele>476.8</ele>
        <time>2022-07-18T06:47:38Z</time>
      </trkpt>
      <trkpt lat="44.31129" lon="5.18653">
        <ele>476.8</ele>
        <time>2022-07-18T06:47:39Z</time>
      </trkpt>
      <trkpt lat="44.31132" lon="5.18655">
        <ele>476.9</ele>
        <time>2022-07-18T06:47:40Z</time>
      </trkpt>
      <trkpt lat="44.31134" lon="5.18658">
        <ele>476.9</ele>
        <time>2022-07-18T06:47:41Z</time>
      </trkpt>
      <trkpt lat="44.31136" lon="5.18661">
        <ele>477</ele>
        <time>2022-07-18T06:47:42Z</time>
      </trkpt>
      <trkpt lat="44.31139" lon="5.18664">
        <ele>477</ele>
        <time>2022-07-18T06:47:43Z</time>
      </trkpt>
      <trkpt lat="44.31141" lon="5.18667">
        <ele>477</ele>
        <time>2022-07-18T06:47:44Z</time>
      </trkpt>
      <trkpt lat="44.31143" lon="5.1867">
        <ele>477.1</ele>
        <time>2022-07-18T06:47:45Z</time>
      </trkpt>
      <trkpt lat="44.31146" lon="5.18673">
        <ele>477.1</ele>
        <time>2022-07-18T06:47:46Z</time>
      </trkpt>
      <trkpt lat="44.31148" lon="5.18676">
        <ele>477.1</ele>
        <time>2022-07-18T06:47:47Z</time>
      </trkpt>
      <trkpt lat="44.31151" lon="5.18679">
        <ele>477.1</ele>
        <time>2022-07-18T06:47:48Z</time>
      </trkpt>
      <trkpt lat="44.31153" lon="5.18683">
        <ele>477.1</ele>
        <time>2022-07-18T06:47:49Z</time>
      </trkpt>
      <trkpt lat="44.31155" lon="5.18686">
        <ele>477.1</ele>
        <time>2022-07-18T06:47:50Z</time>
      </trkpt>
      <trkpt lat="44.31157" lon="5.18688">
        <ele>477.1</ele>
        <time>2022-07-18T06:47:51Z</time>
      </trkpt>
      <trkpt lat="44.31159" lon="5.18691">
        <ele>477.1</ele>
        <time>2022-07-18T06:47:52Z</time>
      </trkpt>
      <trkpt lat="44.31161" lon="5.18695">
        <ele>477.1</ele>
        <time>2022-07-18T06:47:53Z</time>
      </trkpt>
      <trkpt lat="44.31163" lon="5.18698">
        <ele>477.1</ele>
        <time>2022-07-18T06:47:54Z</time>
      </trkpt>
      <trkpt lat="44.31165" lon="5.18702">
        <ele>477.1</ele>
        <time>2022-07-18T06:47:55Z</time>
      </trkpt>
      <trkpt lat="44.31166" lon="5.18705">
        <ele>477</ele>
        <time>2022-07-18T06:47:56Z</time>
      </trkpt>
      <trkpt lat="44.31168" lon="5.18709">
        <ele>477</ele>
        <time>2022-07-18T06:47:57Z</time>
      </trkpt>
      <trkpt lat="44.3117" lon="5.18713">
        <ele>476.9</ele>
        <time>2022-07-18T06:47:58Z</time>
      </trkpt>
      <trkpt lat="44.31172" lon="5.18716">
        <ele>476.9</ele>
        <time>2022-07-18T06:47:59Z</time>
      </trkpt>
      <trkpt lat="44.31175" lon="5.1872">
        <ele>476.8</ele>
        <time>2022-07-18T06:48:00Z</time>
      </trkpt>
      <trkpt lat="44.31178" lon="5.18723">
        <ele>476.7</ele>
        <time>2022-07-18T06:48:01Z</time>
      </trkpt>
      <trkpt lat="44.31181" lon="5.18727">
        <ele>476.6</ele>
        <time>2022-07-18T06:48:02Z</time>
      </trkpt>
      <trkpt lat="44.31185" lon="5.18729">
        <ele>476.5</ele>
        <time>2022-07-18T06:48:03Z</time>
      </trkpt>
      <trkpt lat="44.31188" lon="5.18732">
        <ele>476.4</ele>
        <time>2022-07-18T06:48:04Z</time>
      </trkpt>
      <trkpt lat="44.31191" lon="5.18735">
        <ele>476.3</ele>
        <time>2022-07-18T06:48:05Z</time>
      </trkpt>
      <trkpt lat="44.31194" lon="5.18738">
        <ele>476.2</ele>
        <time>2022-07-18T06:48:06Z</time>
      </trkpt>
      <trkpt lat="44.31195" lon="5.1874">
        <ele>476.1</ele>
        <time>2022-07-18T06:48:07Z</time>
      </trkpt>
      <trkpt lat="44.31195" lon="5.18742">
        <ele>476.1</ele>
        <time>2022-07-18T06:48:08Z</time>
      </trkpt>
      <trkpt lat="44.31194" lon="5.18746">
        <ele>476</ele>
        <time>2022-07-18T06:48:09Z</time>
      </trkpt>
      <trkpt lat="44.31193" lon="5.18748">
        <ele>475.9</ele>
        <time>2022-07-18T06:48:10Z</time>
      </trkpt>
      <trkpt lat="44.31192" lon="5.18752">
        <ele>475.8</ele>
        <time>2022-07-18T06:48:11Z</time>
      </trkpt>
      <trkpt lat="44.31191" lon="5.18757">
        <ele>475.7</ele>
        <time>2022-07-18T06:48:12Z</time>
      </trkpt>
      <trkpt lat="44.3119" lon="5.18762">
        <ele>475.6</ele>
        <time>2022-07-18T06:48:13Z</time>
      </trkpt>
      <trkpt lat="44.3119" lon="5.18768">
        <ele>475.4</ele>
        <time>2022-07-18T06:48:14Z</time>
      </trkpt>
      <trkpt lat="44.3119" lon="5.18774">
        <ele>475.3</ele>
        <time>2022-07-18T06:48:15Z</time>
      </trkpt>
      <trkpt lat="44.31191" lon="5.18782">
        <ele>475.2</ele>
        <time>2022-07-18T06:48:16Z</time>
      </trkpt>
      <trkpt lat="44.31194" lon="5.18789">
        <ele>475.2</ele>
        <time>2022-07-18T06:48:17Z</time>
      </trkpt>
      <trkpt lat="44.31196" lon="5.18796">
        <ele>475.2</ele>
        <time>2022-07-18T06:48:18Z</time>
      </trkpt>
      <trkpt lat="44.31199" lon="5.188">
        <ele>475.2</ele>
        <time>2022-07-18T06:48:19Z</time>
      </trkpt>
      <trkpt lat="44.31201" lon="5.18805">
        <ele>475.2</ele>
        <time>2022-07-18T06:48:20Z</time>
      </trkpt>
      <trkpt lat="44.31203" lon="5.1881">
        <ele>475.2</ele>
        <time>2022-07-18T06:48:21Z</time>
      </trkpt>
      <trkpt lat="44.31206" lon="5.18814">
        <ele>475.3</ele>
        <time>2022-07-18T06:48:22Z</time>
      </trkpt>
      <trkpt lat="44.31208" lon="5.18818">
        <ele>475.4</ele>
        <time>2022-07-18T06:48:23Z</time>
      </trkpt>
      <trkpt lat="44.3121" lon="5.18821">
        <ele>475.5</ele>
        <time>2022-07-18T06:48:24Z</time>
      </trkpt>
      <trkpt lat="44.31212" lon="5.18823">
        <ele>475.6</ele>
        <time>2022-07-18T06:48:25Z</time>
      </trkpt>
      <trkpt lat="44.31215" lon="5.18825">
        <ele>475.7</ele>
        <time>2022-07-18T06:48:26Z</time>
      </trkpt>
      <trkpt lat="44.31218" lon="5.18828">
        <ele>475.8</ele>
        <time>2022-07-18T06:48:27Z</time>
      </trkpt>
      <trkpt lat="44.3122" lon="5.1883">
        <ele>475.9</ele>
        <time>2022-07-18T06:48:28Z</time>
      </trkpt>
      <trkpt lat="44.31223" lon="5.18832">
        <ele>476</ele>
        <time>2022-07-18T06:48:29Z</time>
      </trkpt>
      <trkpt lat="44.31224" lon="5.18832">
        <ele>476.1</ele>
        <time>2022-07-18T06:48:30Z</time>
      </trkpt>
      <trkpt lat="44.31226" lon="5.18834">
        <ele>476.2</ele>
        <time>2022-07-18T06:48:31Z</time>
      </trkpt>
      <trkpt lat="44.31227" lon="5.18835">
        <ele>476.2</ele>
        <time>2022-07-18T06:48:32Z</time>
      </trkpt>
      <trkpt lat="44.31228" lon="5.18835">
        <ele>476.2</ele>
        <time>2022-07-18T06:48:33Z</time>
      </trkpt>
      <trkpt lat="44.3123" lon="5.18838">
        <ele>476.4</ele>
        <time>2022-07-18T06:48:34Z</time>
      </trkpt>
      <trkpt lat="44.31231" lon="5.18838">
        <ele>476.4</ele>
        <time>2022-07-18T06:48:35Z</time>
      </trkpt>
      <trkpt lat="44.31235" lon="5.1884">
        <ele>476.5</ele>
        <time>2022-07-18T06:48:36Z</time>
      </trkpt>
      <trkpt lat="44.31236" lon="5.18841">
        <ele>476.5</ele>
        <time>2022-07-18T06:48:37Z</time>
      </trkpt>
      <trkpt lat="44.31239" lon="5.18841">
        <ele>476.6</ele>
        <time>2022-07-18T06:48:38Z</time>
      </trkpt>
      <trkpt lat="44.3124" lon="5.18841">
        <ele>476.7</ele>
        <time>2022-07-18T06:48:39Z</time>
      </trkpt>
      <trkpt lat="44.31243" lon="5.18842">
        <ele>476.7</ele>
        <time>2022-07-18T06:48:40Z</time>
      </trkpt>
      <trkpt lat="44.31244" lon="5.18842">
        <ele>476.8</ele>
        <time>2022-07-18T06:48:41Z</time>
      </trkpt>
      <trkpt lat="44.31245" lon="5.18843">
        <ele>476.8</ele>
        <time>2022-07-18T06:48:42Z</time>
      </trkpt>
      <trkpt lat="44.31247" lon="5.18843">
        <ele>476.9</ele>
        <time>2022-07-18T06:48:43Z</time>
      </trkpt>
      <trkpt lat="44.31248" lon="5.18843">
        <ele>476.9</ele>
        <time>2022-07-18T06:48:44Z</time>
      </trkpt>
      <trkpt lat="44.31249" lon="5.18842">
        <ele>477</ele>
        <time>2022-07-18T06:48:45Z</time>
      </trkpt>
      <trkpt lat="44.31251" lon="5.18842">
        <ele>477</ele>
        <time>2022-07-18T06:48:46Z</time>
      </trkpt>
      <trkpt lat="44.31253" lon="5.18841">
        <ele>477.1</ele>
        <time>2022-07-18T06:48:47Z</time>
      </trkpt>
      <trkpt lat="44.31256" lon="5.18841">
        <ele>477.1</ele>
        <time>2022-07-18T06:48:48Z</time>
      </trkpt>
      <trkpt lat="44.31256" lon="5.18841">
        <ele>477.2</ele>
        <time>2022-07-18T06:48:49Z</time>
      </trkpt>
      <trkpt lat="44.31258" lon="5.18841">
        <ele>477.2</ele>
        <time>2022-07-18T06:48:50Z</time>
      </trkpt>
      <trkpt lat="44.31259" lon="5.18841">
        <ele>477.3</ele>
        <time>2022-07-18T06:48:51Z</time>
      </trkpt>
      <trkpt lat="44.31261" lon="5.18841">
        <ele>477.3</ele>
        <time>2022-07-18T06:48:52Z</time>
      </trkpt>
      <trkpt lat="44.31262" lon="5.1884">
        <ele>477.4</ele>
        <time>2022-07-18T06:48:53Z</time>
      </trkpt>
      <trkpt lat="44.31264" lon="5.18839">
        <ele>477.4</ele>
        <time>2022-07-18T06:48:54Z</time>
      </trkpt>
      <trkpt lat="44.31265" lon="5.18838">
        <ele>477.5</ele>
        <time>2022-07-18T06:48:55Z</time>
      </trkpt>
      <trkpt lat="44.31268" lon="5.18836">
        <ele>477.7</ele>
        <time>2022-07-18T06:48:56Z</time>
      </trkpt>
      <trkpt lat="44.31269" lon="5.18835">
        <ele>477.7</ele>
        <time>2022-07-18T06:48:57Z</time>
      </trkpt>
      <trkpt lat="44.31271" lon="5.18834">
        <ele>477.8</ele>
        <time>2022-07-18T06:48:58Z</time>
      </trkpt>
      <trkpt lat="44.31273" lon="5.18833">
        <ele>477.8</ele>
        <time>2022-07-18T06:48:59Z</time>
      </trkpt>
      <trkpt lat="44.31275" lon="5.18833">
        <ele>478</ele>
        <time>2022-07-18T06:49:00Z</time>
      </trkpt>
      <trkpt lat="44.31276" lon="5.18833">
        <ele>478.1</ele>
        <time>2022-07-18T06:49:01Z</time>
      </trkpt>
      <trkpt lat="44.31277" lon="5.18833">
        <ele>478.2</ele>
        <time>2022-07-18T06:49:02Z</time>
      </trkpt>
      <trkpt lat="44.3128" lon="5.18831">
        <ele>478.5</ele>
        <time>2022-07-18T06:49:03Z</time>
      </trkpt>
      <trkpt lat="44.31281" lon="5.18831">
        <ele>478.6</ele>
        <time>2022-07-18T06:49:04Z</time>
      </trkpt>
      <trkpt lat="44.31284" lon="5.1883">
        <ele>478.8</ele>
        <time>2022-07-18T06:49:05Z</time>
      </trkpt>
      <trkpt lat="44.31285" lon="5.18829">
        <ele>478.9</ele>
        <time>2022-07-18T06:49:06Z</time>
      </trkpt>
      <trkpt lat="44.31288" lon="5.18828">
        <ele>479.2</ele>
        <time>2022-07-18T06:49:07Z</time>
      </trkpt>
      <trkpt lat="44.31288" lon="5.18828">
        <ele>479.3</ele>
        <time>2022-07-18T06:49:08Z</time>
      </trkpt>
      <trkpt lat="44.3129" lon="5.18827">
        <ele>479.4</ele>
        <time>2022-07-18T06:49:09Z</time>
      </trkpt>
      <trkpt lat="44.31292" lon="5.18827">
        <ele>479.6</ele>
        <time>2022-07-18T06:49:10Z</time>
      </trkpt>
      <trkpt lat="44.31293" lon="5.18827">
        <ele>479.8</ele>
        <time>2022-07-18T06:49:11Z</time>
      </trkpt>
      <trkpt lat="44.31295" lon="5.18827">
        <ele>480</ele>
        <time>2022-07-18T06:49:12Z</time>
      </trkpt>
      <trkpt lat="44.31297" lon="5.18826">
        <ele>480.2</ele>
        <time>2022-07-18T06:49:13Z</time>
      </trkpt>
      <trkpt lat="44.31298" lon="5.18826">
        <ele>480.4</ele>
        <time>2022-07-18T06:49:14Z</time>
      </trkpt>
      <trkpt lat="44.31299" lon="5.18825">
        <ele>480.5</ele>
        <time>2022-07-18T06:49:15Z</time>
      </trkpt>
      <trkpt lat="44.31301" lon="5.18825">
        <ele>480.8</ele>
        <time>2022-07-18T06:49:16Z</time>
      </trkpt>
      <trkpt lat="44.31304" lon="5.18824">
        <ele>481.1</ele>
        <time>2022-07-18T06:49:17Z</time>
      </trkpt>
      <trkpt lat="44.31305" lon="5.18824">
        <ele>481.3</ele>
        <time>2022-07-18T06:49:18Z</time>
      </trkpt>
      <trkpt lat="44.31307" lon="5.18823">
        <ele>481.5</ele>
        <time>2022-07-18T06:49:19Z</time>
      </trkpt>
      <trkpt lat="44.31308" lon="5.18822">
        <ele>481.7</ele>
        <time>2022-07-18T06:49:20Z</time>
      </trkpt>
      <trkpt lat="44.31309" lon="5.18821">
        <ele>481.9</ele>
        <time>2022-07-18T06:49:21Z</time>
      </trkpt>
      <trkpt lat="44.31311" lon="5.1882">
        <ele>482.1</ele>
        <time>2022-07-18T06:49:22Z</time>
      </trkpt>
      <trkpt lat="44.31312" lon="5.18819">
        <ele>482.3</ele>
        <time>2022-07-18T06:49:23Z</time>
      </trkpt>
      <trkpt lat="44.31314" lon="5.18819">
        <ele>482.5</ele>
        <time>2022-07-18T06:49:24Z</time>
      </trkpt>
      <trkpt lat="44.31315" lon="5.1882">
        <ele>482.7</ele>
        <time>2022-07-18T06:49:25Z</time>
      </trkpt>
      <trkpt lat="44.31317" lon="5.1882">
        <ele>482.9</ele>
        <time>2022-07-18T06:49:26Z</time>
      </trkpt>
      <trkpt lat="44.31318" lon="5.18821">
        <ele>483.1</ele>
        <time>2022-07-18T06:49:27Z</time>
      </trkpt>
      <trkpt lat="44.3132" lon="5.18821">
        <ele>483.2</ele>
        <time>2022-07-18T06:49:28Z</time>
      </trkpt>
      <trkpt lat="44.31321" lon="5.18822">
        <ele>483.4</ele>
        <time>2022-07-18T06:49:29Z</time>
      </trkpt>
      <trkpt lat="44.31322" lon="5.18823">
        <ele>483.5</ele>
        <time>2022-07-18T06:49:30Z</time>
      </trkpt>
      <trkpt lat="44.31325" lon="5.18825">
        <ele>483.8</ele>
        <time>2022-07-18T06:49:31Z</time>
      </trkpt>
      <trkpt lat="44.31325" lon="5.18826">
        <ele>483.8</ele>
        <time>2022-07-18T06:49:32Z</time>
      </trkpt>
      <trkpt lat="44.31327" lon="5.18826">
        <ele>484</ele>
        <time>2022-07-18T06:49:33Z</time>
      </trkpt>
      <trkpt lat="44.31329" lon="5.18827">
        <ele>484.1</ele>
        <time>2022-07-18T06:49:34Z</time>
      </trkpt>
      <trkpt lat="44.3133" lon="5.18828">
        <ele>484.3</ele>
        <time>2022-07-18T06:49:35Z</time>
      </trkpt>
      <trkpt lat="44.31332" lon="5.1883">
        <ele>484.4</ele>
        <time>2022-07-18T06:49:36Z</time>
      </trkpt>
      <trkpt lat="44.31335" lon="5.18831">
        <ele>484.6</ele>
        <time>2022-07-18T06:49:37Z</time>
      </trkpt>
      <trkpt lat="44.31336" lon="5.18831">
        <ele>484.7</ele>
        <time>2022-07-18T06:49:38Z</time>
      </trkpt>
      <trkpt lat="44.3134" lon="5.18833">
        <ele>484.9</ele>
        <time>2022-07-18T06:49:39Z</time>
      </trkpt>
      <trkpt lat="44.31341" lon="5.18833">
        <ele>484.9</ele>
        <time>2022-07-18T06:49:40Z</time>
      </trkpt>
      <trkpt lat="44.31344" lon="5.18835">
        <ele>485.1</ele>
        <time>2022-07-18T06:49:41Z</time>
      </trkpt>
      <trkpt lat="44.31345" lon="5.18836">
        <ele>485.2</ele>
        <time>2022-07-18T06:49:42Z</time>
      </trkpt>
      <trkpt lat="44.31348" lon="5.18837">
        <ele>485.3</ele>
        <time>2022-07-18T06:49:43Z</time>
      </trkpt>
      <trkpt lat="44.31349" lon="5.18837">
        <ele>485.4</ele>
        <time>2022-07-18T06:49:44Z</time>
      </trkpt>
      <trkpt lat="44.31352" lon="5.18837">
        <ele>485.5</ele>
        <time>2022-07-18T06:49:45Z</time>
      </trkpt>
      <trkpt lat="44.31353" lon="5.18837">
        <ele>485.5</ele>
        <time>2022-07-18T06:49:46Z</time>
      </trkpt>
      <trkpt lat="44.31356" lon="5.18837">
        <ele>485.7</ele>
        <time>2022-07-18T06:49:47Z</time>
      </trkpt>
      <trkpt lat="44.31357" lon="5.18838">
        <ele>485.7</ele>
        <time>2022-07-18T06:49:48Z</time>
      </trkpt>
      <trkpt lat="44.3136" lon="5.18839">
        <ele>485.8</ele>
        <time>2022-07-18T06:49:49Z</time>
      </trkpt>
      <trkpt lat="44.31361" lon="5.18839">
        <ele>485.9</ele>
        <time>2022-07-18T06:49:50Z</time>
      </trkpt>
      <trkpt lat="44.31363" lon="5.18841">
        <ele>486</ele>
        <time>2022-07-18T06:49:51Z</time>
      </trkpt>
      <trkpt lat="44.31364" lon="5.18842">
        <ele>486</ele>
        <time>2022-07-18T06:49:52Z</time>
      </trkpt>
      <trkpt lat="44.31367" lon="5.18844">
        <ele>486.1</ele>
        <time>2022-07-18T06:49:53Z</time>
      </trkpt>
      <trkpt lat="44.31367" lon="5.18845">
        <ele>486.1</ele>
        <time>2022-07-18T06:49:54Z</time>
      </trkpt>
      <trkpt lat="44.31369" lon="5.18847">
        <ele>486.1</ele>
        <time>2022-07-18T06:49:55Z</time>
      </trkpt>
      <trkpt lat="44.3137" lon="5.18848">
        <ele>486.2</ele>
        <time>2022-07-18T06:49:56Z</time>
      </trkpt>
      <trkpt lat="44.31371" lon="5.18849">
        <ele>486.2</ele>
        <time>2022-07-18T06:49:57Z</time>
      </trkpt>
      <trkpt lat="44.31373" lon="5.18851">
        <ele>486.3</ele>
        <time>2022-07-18T06:49:58Z</time>
      </trkpt>
      <trkpt lat="44.31374" lon="5.18852">
        <ele>486.4</ele>
        <time>2022-07-18T06:49:59Z</time>
      </trkpt>
      <trkpt lat="44.31376" lon="5.18853">
        <ele>486.5</ele>
        <time>2022-07-18T06:50:00Z</time>
      </trkpt>
      <trkpt lat="44.31377" lon="5.18854">
        <ele>486.6</ele>
        <time>2022-07-18T06:50:01Z</time>
      </trkpt>
      <trkpt lat="44.31379" lon="5.18855">
        <ele>486.7</ele>
        <time>2022-07-18T06:50:02Z</time>
      </trkpt>
      <trkpt lat="44.31382" lon="5.18856">
        <ele>486.9</ele>
        <time>2022-07-18T06:50:03Z</time>
      </trkpt>
      <trkpt lat="44.31383" lon="5.18856">
        <ele>486.9</ele>
        <time>2022-07-18T06:50:04Z</time>
      </trkpt>
      <trkpt lat="44.31386" lon="5.18856">
        <ele>487.1</ele>
        <time>2022-07-18T06:50:05Z</time>
      </trkpt>
      <trkpt lat="44.31387" lon="5.18857">
        <ele>487.2</ele>
        <time>2022-07-18T06:50:06Z</time>
      </trkpt>
      <trkpt lat="44.3139" lon="5.18857">
        <ele>487.3</ele>
        <time>2022-07-18T06:50:07Z</time>
      </trkpt>
      <trkpt lat="44.31391" lon="5.18857">
        <ele>487.4</ele>
        <time>2022-07-18T06:50:08Z</time>
      </trkpt>
      <trkpt lat="44.31393" lon="5.18858">
        <ele>487.5</ele>
        <time>2022-07-18T06:50:09Z</time>
      </trkpt>
      <trkpt lat="44.31394" lon="5.1886">
        <ele>487.6</ele>
        <time>2022-07-18T06:50:10Z</time>
      </trkpt>
      <trkpt lat="44.31395" lon="5.18861">
        <ele>487.6</ele>
        <time>2022-07-18T06:50:11Z</time>
      </trkpt>
      <trkpt lat="44.31396" lon="5.18863">
        <ele>487.7</ele>
        <time>2022-07-18T06:50:12Z</time>
      </trkpt>
      <trkpt lat="44.31398" lon="5.18866">
        <ele>487.9</ele>
        <time>2022-07-18T06:50:13Z</time>
      </trkpt>
      <trkpt lat="44.31399" lon="5.18867">
        <ele>487.9</ele>
        <time>2022-07-18T06:50:14Z</time>
      </trkpt>
      <trkpt lat="44.31401" lon="5.1887">
        <ele>488.1</ele>
        <time>2022-07-18T06:50:15Z</time>
      </trkpt>
      <trkpt lat="44.31402" lon="5.18871">
        <ele>488.1</ele>
        <time>2022-07-18T06:50:16Z</time>
      </trkpt>
      <trkpt lat="44.31404" lon="5.18872">
        <ele>488.2</ele>
        <time>2022-07-18T06:50:17Z</time>
      </trkpt>
      <trkpt lat="44.31405" lon="5.18873">
        <ele>488.3</ele>
        <time>2022-07-18T06:50:18Z</time>
      </trkpt>
      <trkpt lat="44.31406" lon="5.18873">
        <ele>488.3</ele>
        <time>2022-07-18T06:50:19Z</time>
      </trkpt>
      <trkpt lat="44.31407" lon="5.18875">
        <ele>488.4</ele>
        <time>2022-07-18T06:50:20Z</time>
      </trkpt>
      <trkpt lat="44.31409" lon="5.18877">
        <ele>488.5</ele>
        <time>2022-07-18T06:50:21Z</time>
      </trkpt>
      <trkpt lat="44.3141" lon="5.18878">
        <ele>488.5</ele>
        <time>2022-07-18T06:50:22Z</time>
      </trkpt>
      <trkpt lat="44.3141" lon="5.18879">
        <ele>488.6</ele>
        <time>2022-07-18T06:50:23Z</time>
      </trkpt>
      <trkpt lat="44.31412" lon="5.18881">
        <ele>488.7</ele>
        <time>2022-07-18T06:50:24Z</time>
      </trkpt>
      <trkpt lat="44.31412" lon="5.18882">
        <ele>488.7</ele>
        <time>2022-07-18T06:50:25Z</time>
      </trkpt>
      <trkpt lat="44.31413" lon="5.18883">
        <ele>488.8</ele>
        <time>2022-07-18T06:50:26Z</time>
      </trkpt>
      <trkpt lat="44.31415" lon="5.18886">
        <ele>489</ele>
        <time>2022-07-18T06:50:27Z</time>
      </trkpt>
      <trkpt lat="44.31416" lon="5.18888">
        <ele>489</ele>
        <time>2022-07-18T06:50:28Z</time>
      </trkpt>
      <trkpt lat="44.31418" lon="5.1889">
        <ele>489.2</ele>
        <time>2022-07-18T06:50:29Z</time>
      </trkpt>
      <trkpt lat="44.31419" lon="5.18891">
        <ele>489.3</ele>
        <time>2022-07-18T06:50:30Z</time>
      </trkpt>
      <trkpt lat="44.31422" lon="5.18893">
        <ele>489.5</ele>
        <time>2022-07-18T06:50:31Z</time>
      </trkpt>
      <trkpt lat="44.31423" lon="5.18893">
        <ele>489.6</ele>
        <time>2022-07-18T06:50:32Z</time>
      </trkpt>
      <trkpt lat="44.31425" lon="5.18896">
        <ele>489.8</ele>
        <time>2022-07-18T06:50:33Z</time>
      </trkpt>
      <trkpt lat="44.31426" lon="5.18896">
        <ele>489.9</ele>
        <time>2022-07-18T06:50:34Z</time>
      </trkpt>
      <trkpt lat="44.3143" lon="5.18898">
        <ele>490.1</ele>
        <time>2022-07-18T06:50:35Z</time>
      </trkpt>
      <trkpt lat="44.31431" lon="5.18898">
        <ele>490.2</ele>
        <time>2022-07-18T06:50:36Z</time>
      </trkpt>
      <trkpt lat="44.31434" lon="5.189">
        <ele>490.4</ele>
        <time>2022-07-18T06:50:37Z</time>
      </trkpt>
      <trkpt lat="44.31435" lon="5.189">
        <ele>490.5</ele>
        <time>2022-07-18T06:50:38Z</time>
      </trkpt>
      <trkpt lat="44.31438" lon="5.18903">
        <ele>490.7</ele>
        <time>2022-07-18T06:50:39Z</time>
      </trkpt>
      <trkpt lat="44.31439" lon="5.18904">
        <ele>490.8</ele>
        <time>2022-07-18T06:50:40Z</time>
      </trkpt>
      <trkpt lat="44.31442" lon="5.18907">
        <ele>491</ele>
        <time>2022-07-18T06:50:41Z</time>
      </trkpt>
      <trkpt lat="44.31443" lon="5.18908">
        <ele>491</ele>
        <time>2022-07-18T06:50:42Z</time>
      </trkpt>
      <trkpt lat="44.31446" lon="5.18909">
        <ele>491.2</ele>
        <time>2022-07-18T06:50:43Z</time>
      </trkpt>
      <trkpt lat="44.31447" lon="5.1891">
        <ele>491.3</ele>
        <time>2022-07-18T06:50:44Z</time>
      </trkpt>
      <trkpt lat="44.3145" lon="5.18912">
        <ele>491.4</ele>
        <time>2022-07-18T06:50:45Z</time>
      </trkpt>
      <trkpt lat="44.31451" lon="5.18912">
        <ele>491.5</ele>
        <time>2022-07-18T06:50:46Z</time>
      </trkpt>
      <trkpt lat="44.31453" lon="5.18915">
        <ele>491.6</ele>
        <time>2022-07-18T06:50:47Z</time>
      </trkpt>
      <trkpt lat="44.31454" lon="5.18916">
        <ele>491.6</ele>
        <time>2022-07-18T06:50:48Z</time>
      </trkpt>
      <trkpt lat="44.31456" lon="5.18919">
        <ele>491.8</ele>
        <time>2022-07-18T06:50:49Z</time>
      </trkpt>
      <trkpt lat="44.31457" lon="5.1892">
        <ele>491.8</ele>
        <time>2022-07-18T06:50:50Z</time>
      </trkpt>
      <trkpt lat="44.31459" lon="5.18923">
        <ele>492</ele>
        <time>2022-07-18T06:50:51Z</time>
      </trkpt>
      <trkpt lat="44.3146" lon="5.18925">
        <ele>492</ele>
        <time>2022-07-18T06:50:52Z</time>
      </trkpt>
      <trkpt lat="44.31461" lon="5.18928">
        <ele>492.1</ele>
        <time>2022-07-18T06:50:53Z</time>
      </trkpt>
      <trkpt lat="44.31462" lon="5.1893">
        <ele>492.2</ele>
        <time>2022-07-18T06:50:54Z</time>
      </trkpt>
      <trkpt lat="44.31463" lon="5.18931">
        <ele>492.2</ele>
        <time>2022-07-18T06:50:55Z</time>
      </trkpt>
      <trkpt lat="44.31463" lon="5.18933">
        <ele>492.3</ele>
        <time>2022-07-18T06:50:56Z</time>
      </trkpt>
      <trkpt lat="44.31464" lon="5.18934">
        <ele>492.3</ele>
        <time>2022-07-18T06:50:57Z</time>
      </trkpt>
      <trkpt lat="44.31464" lon="5.18934">
        <ele>492.3</ele>
        <time>2022-07-18T06:50:58Z</time>
      </trkpt>
      <trkpt lat="44.31464" lon="5.18935">
        <ele>492.3</ele>
        <time>2022-07-18T06:50:59Z</time>
      </trkpt>
      <trkpt lat="44.31464" lon="5.18936">
        <ele>492.4</ele>
        <time>2022-07-18T06:51:00Z</time>
      </trkpt>
      <trkpt lat="44.31464" lon="5.18938">
        <ele>492.4</ele>
        <time>2022-07-18T06:51:01Z</time>
      </trkpt>
      <trkpt lat="44.31465" lon="5.1894">
        <ele>492.5</ele>
        <time>2022-07-18T06:51:02Z</time>
      </trkpt>
      <trkpt lat="44.31465" lon="5.18942">
        <ele>492.5</ele>
        <time>2022-07-18T06:51:03Z</time>
      </trkpt>
      <trkpt lat="44.31465" lon="5.18945">
        <ele>492.6</ele>
        <time>2022-07-18T06:51:04Z</time>
      </trkpt>
      <trkpt lat="44.31465" lon="5.18946">
        <ele>492.6</ele>
        <time>2022-07-18T06:51:05Z</time>
      </trkpt>
      <trkpt lat="44.31465" lon="5.18948">
        <ele>492.7</ele>
        <time>2022-07-18T06:51:06Z</time>
      </trkpt>
      <trkpt lat="44.31466" lon="5.18952">
        <ele>492.8</ele>
        <time>2022-07-18T06:51:07Z</time>
      </trkpt>
      <trkpt lat="44.31466" lon="5.18954">
        <ele>492.8</ele>
        <time>2022-07-18T06:51:08Z</time>
      </trkpt>
      <trkpt lat="44.31468" lon="5.18957">
        <ele>492.9</ele>
        <time>2022-07-18T06:51:09Z</time>
      </trkpt>
      <trkpt lat="44.31469" lon="5.1896">
        <ele>493.1</ele>
        <time>2022-07-18T06:51:10Z</time>
      </trkpt>
      <trkpt lat="44.31472" lon="5.18965">
        <ele>493.2</ele>
        <time>2022-07-18T06:51:11Z</time>
      </trkpt>
      <trkpt lat="44.31472" lon="5.18966">
        <ele>493.3</ele>
        <time>2022-07-18T06:51:12Z</time>
      </trkpt>
      <trkpt lat="44.31473" lon="5.1897">
        <ele>493.4</ele>
        <time>2022-07-18T06:51:13Z</time>
      </trkpt>
      <trkpt lat="44.31474" lon="5.18971">
        <ele>493.5</ele>
        <time>2022-07-18T06:51:14Z</time>
      </trkpt>
      <trkpt lat="44.31476" lon="5.18975">
        <ele>493.6</ele>
        <time>2022-07-18T06:51:15Z</time>
      </trkpt>
      <trkpt lat="44.31477" lon="5.18976">
        <ele>493.7</ele>
        <time>2022-07-18T06:51:16Z</time>
      </trkpt>
      <trkpt lat="44.31479" lon="5.18979">
        <ele>493.8</ele>
        <time>2022-07-18T06:51:17Z</time>
      </trkpt>
      <trkpt lat="44.3148" lon="5.1898">
        <ele>493.9</ele>
        <time>2022-07-18T06:51:18Z</time>
      </trkpt>
      <trkpt lat="44.31482" lon="5.18983">
        <ele>494</ele>
        <time>2022-07-18T06:51:19Z</time>
      </trkpt>
      <trkpt lat="44.31482" lon="5.18985">
        <ele>494</ele>
        <time>2022-07-18T06:51:20Z</time>
      </trkpt>
      <trkpt lat="44.31483" lon="5.18986">
        <ele>494.1</ele>
        <time>2022-07-18T06:51:21Z</time>
      </trkpt>
      <trkpt lat="44.31484" lon="5.18988">
        <ele>494.2</ele>
        <time>2022-07-18T06:51:22Z</time>
      </trkpt>
      <trkpt lat="44.31486" lon="5.18991">
        <ele>494.3</ele>
        <time>2022-07-18T06:51:23Z</time>
      </trkpt>
      <trkpt lat="44.31487" lon="5.18992">
        <ele>494.3</ele>
        <time>2022-07-18T06:51:24Z</time>
      </trkpt>
      <trkpt lat="44.31489" lon="5.18995">
        <ele>494.5</ele>
        <time>2022-07-18T06:51:25Z</time>
      </trkpt>
      <trkpt lat="44.3149" lon="5.18996">
        <ele>494.5</ele>
        <time>2022-07-18T06:51:26Z</time>
      </trkpt>
      <trkpt lat="44.31492" lon="5.18999">
        <ele>494.7</ele>
        <time>2022-07-18T06:51:27Z</time>
      </trkpt>
      <trkpt lat="44.31493" lon="5.19">
        <ele>494.7</ele>
        <time>2022-07-18T06:51:28Z</time>
      </trkpt>
      <trkpt lat="44.31495" lon="5.19002">
        <ele>494.8</ele>
        <time>2022-07-18T06:51:29Z</time>
      </trkpt>
      <trkpt lat="44.31496" lon="5.19003">
        <ele>494.9</ele>
        <time>2022-07-18T06:51:30Z</time>
      </trkpt>
      <trkpt lat="44.31499" lon="5.19006">
        <ele>495</ele>
        <time>2022-07-18T06:51:31Z</time>
      </trkpt>
      <trkpt lat="44.315" lon="5.19007">
        <ele>495.1</ele>
        <time>2022-07-18T06:51:32Z</time>
      </trkpt>
      <trkpt lat="44.31501" lon="5.19008">
        <ele>495.1</ele>
        <time>2022-07-18T06:51:33Z</time>
      </trkpt>
      <trkpt lat="44.31503" lon="5.19009">
        <ele>495.2</ele>
        <time>2022-07-18T06:51:34Z</time>
      </trkpt>
      <trkpt lat="44.31505" lon="5.19011">
        <ele>495.4</ele>
        <time>2022-07-18T06:51:35Z</time>
      </trkpt>
      <trkpt lat="44.31506" lon="5.19012">
        <ele>495.4</ele>
        <time>2022-07-18T06:51:36Z</time>
      </trkpt>
      <trkpt lat="44.31509" lon="5.19014">
        <ele>495.6</ele>
        <time>2022-07-18T06:51:37Z</time>
      </trkpt>
      <trkpt lat="44.3151" lon="5.19015">
        <ele>495.6</ele>
        <time>2022-07-18T06:51:38Z</time>
      </trkpt>
      <trkpt lat="44.31513" lon="5.19017">
        <ele>495.8</ele>
        <time>2022-07-18T06:51:39Z</time>
      </trkpt>
      <trkpt lat="44.31514" lon="5.19018">
        <ele>495.8</ele>
        <time>2022-07-18T06:51:40Z</time>
      </trkpt>
      <trkpt lat="44.31517" lon="5.1902">
        <ele>496</ele>
        <time>2022-07-18T06:51:41Z</time>
      </trkpt>
      <trkpt lat="44.31517" lon="5.19022">
        <ele>496</ele>
        <time>2022-07-18T06:51:42Z</time>
      </trkpt>
      <trkpt lat="44.3152" lon="5.19024">
        <ele>496.1</ele>
        <time>2022-07-18T06:51:43Z</time>
      </trkpt>
      <trkpt lat="44.3152" lon="5.19025">
        <ele>496.2</ele>
        <time>2022-07-18T06:51:44Z</time>
      </trkpt>
      <trkpt lat="44.31522" lon="5.19028">
        <ele>496.3</ele>
        <time>2022-07-18T06:51:45Z</time>
      </trkpt>
      <trkpt lat="44.31523" lon="5.19029">
        <ele>496.4</ele>
        <time>2022-07-18T06:51:46Z</time>
      </trkpt>
      <trkpt lat="44.31525" lon="5.19033">
        <ele>496.5</ele>
        <time>2022-07-18T06:51:47Z</time>
      </trkpt>
      <trkpt lat="44.31526" lon="5.19034">
        <ele>496.6</ele>
        <time>2022-07-18T06:51:48Z</time>
      </trkpt>
      <trkpt lat="44.31529" lon="5.19036">
        <ele>496.8</ele>
        <time>2022-07-18T06:51:49Z</time>
      </trkpt>
      <trkpt lat="44.31529" lon="5.19037">
        <ele>496.8</ele>
        <time>2022-07-18T06:51:50Z</time>
      </trkpt>
      <trkpt lat="44.31532" lon="5.1904">
        <ele>497</ele>
        <time>2022-07-18T06:51:51Z</time>
      </trkpt>
      <trkpt lat="44.31532" lon="5.19041">
        <ele>497.1</ele>
        <time>2022-07-18T06:51:52Z</time>
      </trkpt>
      <trkpt lat="44.31534" lon="5.19045">
        <ele>497.3</ele>
        <time>2022-07-18T06:51:53Z</time>
      </trkpt>
      <trkpt lat="44.31535" lon="5.19046">
        <ele>497.3</ele>
        <time>2022-07-18T06:51:54Z</time>
      </trkpt>
      <trkpt lat="44.31536" lon="5.1905">
        <ele>497.5</ele>
        <time>2022-07-18T06:51:55Z</time>
      </trkpt>
      <trkpt lat="44.31537" lon="5.19051">
        <ele>497.6</ele>
        <time>2022-07-18T06:51:56Z</time>
      </trkpt>
      <trkpt lat="44.31538" lon="5.19055">
        <ele>497.8</ele>
        <time>2022-07-18T06:51:57Z</time>
      </trkpt>
      <trkpt lat="44.31539" lon="5.19057">
        <ele>497.9</ele>
        <time>2022-07-18T06:51:58Z</time>
      </trkpt>
      <trkpt lat="44.3154" lon="5.1906">
        <ele>498.1</ele>
        <time>2022-07-18T06:51:59Z</time>
      </trkpt>
      <trkpt lat="44.3154" lon="5.19061">
        <ele>498.1</ele>
        <time>2022-07-18T06:52:00Z</time>
      </trkpt>
      <trkpt lat="44.3154" lon="5.19062">
        <ele>498.2</ele>
        <time>2022-07-18T06:52:01Z</time>
      </trkpt>
      <trkpt lat="44.3154" lon="5.19064">
        <ele>498.3</ele>
        <time>2022-07-18T06:52:02Z</time>
      </trkpt>
      <trkpt lat="44.31541" lon="5.19066">
        <ele>498.4</ele>
        <time>2022-07-18T06:52:03Z</time>
      </trkpt>
      <trkpt lat="44.31542" lon="5.1907">
        <ele>498.6</ele>
        <time>2022-07-18T06:52:04Z</time>
      </trkpt>
      <trkpt lat="44.31543" lon="5.19071">
        <ele>498.7</ele>
        <time>2022-07-18T06:52:05Z</time>
      </trkpt>
      <trkpt lat="44.31543" lon="5.19075">
        <ele>498.9</ele>
        <time>2022-07-18T06:52:06Z</time>
      </trkpt>
      <trkpt lat="44.31544" lon="5.19077">
        <ele>499</ele>
        <time>2022-07-18T06:52:07Z</time>
      </trkpt>
      <trkpt lat="44.31544" lon="5.19079">
        <ele>499.1</ele>
        <time>2022-07-18T06:52:08Z</time>
      </trkpt>
      <trkpt lat="44.31545" lon="5.19081">
        <ele>499.2</ele>
        <time>2022-07-18T06:52:09Z</time>
      </trkpt>
      <trkpt lat="44.31545" lon="5.19085">
        <ele>499.4</ele>
        <time>2022-07-18T06:52:10Z</time>
      </trkpt>
      <trkpt lat="44.31546" lon="5.19086">
        <ele>499.5</ele>
        <time>2022-07-18T06:52:11Z</time>
      </trkpt>
      <trkpt lat="44.31547" lon="5.1909">
        <ele>499.6</ele>
        <time>2022-07-18T06:52:12Z</time>
      </trkpt>
      <trkpt lat="44.31547" lon="5.19091">
        <ele>499.7</ele>
        <time>2022-07-18T06:52:13Z</time>
      </trkpt>
      <trkpt lat="44.31549" lon="5.19095">
        <ele>499.8</ele>
        <time>2022-07-18T06:52:14Z</time>
      </trkpt>
      <trkpt lat="44.31549" lon="5.19096">
        <ele>499.9</ele>
        <time>2022-07-18T06:52:15Z</time>
      </trkpt>
      <trkpt lat="44.31551" lon="5.191">
        <ele>500</ele>
        <time>2022-07-18T06:52:16Z</time>
      </trkpt>
      <trkpt lat="44.31552" lon="5.19102">
        <ele>500.1</ele>
        <time>2022-07-18T06:52:17Z</time>
      </trkpt>
      <trkpt lat="44.31554" lon="5.19105">
        <ele>500.2</ele>
        <time>2022-07-18T06:52:18Z</time>
      </trkpt>
      <trkpt lat="44.31556" lon="5.19107">
        <ele>500.3</ele>
        <time>2022-07-18T06:52:19Z</time>
      </trkpt>
      <trkpt lat="44.31558" lon="5.1911">
        <ele>500.3</ele>
        <time>2022-07-18T06:52:20Z</time>
      </trkpt>
      <trkpt lat="44.31561" lon="5.19113">
        <ele>500.4</ele>
        <time>2022-07-18T06:52:21Z</time>
      </trkpt>
      <trkpt lat="44.31563" lon="5.19117">
        <ele>500.5</ele>
        <time>2022-07-18T06:52:22Z</time>
      </trkpt>
      <trkpt lat="44.31563" lon="5.19118">
        <ele>500.5</ele>
        <time>2022-07-18T06:52:23Z</time>
      </trkpt>
      <trkpt lat="44.31565" lon="5.19121">
        <ele>500.6</ele>
        <time>2022-07-18T06:52:24Z</time>
      </trkpt>
      <trkpt lat="44.31566" lon="5.19123">
        <ele>500.7</ele>
        <time>2022-07-18T06:52:25Z</time>
      </trkpt>
      <trkpt lat="44.31569" lon="5.19125">
        <ele>500.7</ele>
        <time>2022-07-18T06:52:26Z</time>
      </trkpt>
      <trkpt lat="44.31569" lon="5.19126">
        <ele>500.7</ele>
        <time>2022-07-18T06:52:27Z</time>
      </trkpt>
      <trkpt lat="44.31572" lon="5.19128">
        <ele>500.8</ele>
        <time>2022-07-18T06:52:28Z</time>
      </trkpt>
      <trkpt lat="44.31573" lon="5.19129">
        <ele>500.8</ele>
        <time>2022-07-18T06:52:29Z</time>
      </trkpt>
      <trkpt lat="44.31575" lon="5.19132">
        <ele>500.8</ele>
        <time>2022-07-18T06:52:30Z</time>
      </trkpt>
      <trkpt lat="44.31576" lon="5.19133">
        <ele>500.8</ele>
        <time>2022-07-18T06:52:31Z</time>
      </trkpt>
      <trkpt lat="44.31577" lon="5.19137">
        <ele>500.9</ele>
        <time>2022-07-18T06:52:32Z</time>
      </trkpt>
      <trkpt lat="44.31577" lon="5.19138">
        <ele>500.9</ele>
        <time>2022-07-18T06:52:33Z</time>
      </trkpt>
      <trkpt lat="44.31579" lon="5.19143">
        <ele>501</ele>
        <time>2022-07-18T06:52:34Z</time>
      </trkpt>
      <trkpt lat="44.31579" lon="5.19145">
        <ele>501</ele>
        <time>2022-07-18T06:52:35Z</time>
      </trkpt>
      <trkpt lat="44.31581" lon="5.19149">
        <ele>501</ele>
        <time>2022-07-18T06:52:36Z</time>
      </trkpt>
      <trkpt lat="44.31582" lon="5.19152">
        <ele>501.1</ele>
        <time>2022-07-18T06:52:37Z</time>
      </trkpt>
      <trkpt lat="44.31584" lon="5.19156">
        <ele>501.2</ele>
        <time>2022-07-18T06:52:38Z</time>
      </trkpt>
      <trkpt lat="44.31586" lon="5.19159">
        <ele>501.2</ele>
        <time>2022-07-18T06:52:39Z</time>
      </trkpt>
      <trkpt lat="44.31589" lon="5.19163">
        <ele>501.3</ele>
        <time>2022-07-18T06:52:40Z</time>
      </trkpt>
      <trkpt lat="44.3159" lon="5.19164">
        <ele>501.4</ele>
        <time>2022-07-18T06:52:41Z</time>
      </trkpt>
      <trkpt lat="44.31591" lon="5.19166">
        <ele>501.4</ele>
        <time>2022-07-18T06:52:42Z</time>
      </trkpt>
      <trkpt lat="44.31592" lon="5.19167">
        <ele>501.4</ele>
        <time>2022-07-18T06:52:43Z</time>
      </trkpt>
      <trkpt lat="44.31595" lon="5.1917">
        <ele>501.5</ele>
        <time>2022-07-18T06:52:44Z</time>
      </trkpt>
      <trkpt lat="44.31596" lon="5.19171">
        <ele>501.5</ele>
        <time>2022-07-18T06:52:45Z</time>
      </trkpt>
      <trkpt lat="44.31599" lon="5.19174">
        <ele>501.6</ele>
        <time>2022-07-18T06:52:46Z</time>
      </trkpt>
      <trkpt lat="44.31601" lon="5.19175">
        <ele>501.6</ele>
        <time>2022-07-18T06:52:47Z</time>
      </trkpt>
      <trkpt lat="44.31603" lon="5.19178">
        <ele>501.7</ele>
        <time>2022-07-18T06:52:48Z</time>
      </trkpt>
      <trkpt lat="44.31605" lon="5.1918">
        <ele>501.7</ele>
        <time>2022-07-18T06:52:49Z</time>
      </trkpt>
      <trkpt lat="44.31607" lon="5.19183">
        <ele>501.7</ele>
        <time>2022-07-18T06:52:50Z</time>
      </trkpt>
      <trkpt lat="44.3161" lon="5.19186">
        <ele>501.8</ele>
        <time>2022-07-18T06:52:51Z</time>
      </trkpt>
      <trkpt lat="44.31611" lon="5.19187">
        <ele>501.8</ele>
        <time>2022-07-18T06:52:52Z</time>
      </trkpt>
      <trkpt lat="44.31614" lon="5.19189">
        <ele>501.8</ele>
        <time>2022-07-18T06:52:53Z</time>
      </trkpt>
      <trkpt lat="44.31617" lon="5.1919">
        <ele>501.9</ele>
        <time>2022-07-18T06:52:54Z</time>
      </trkpt>
      <trkpt lat="44.3162" lon="5.19191">
        <ele>502</ele>
        <time>2022-07-18T06:52:55Z</time>
      </trkpt>
      <trkpt lat="44.31623" lon="5.19193">
        <ele>502.1</ele>
        <time>2022-07-18T06:52:56Z</time>
      </trkpt>
      <trkpt lat="44.31624" lon="5.19194">
        <ele>502.1</ele>
        <time>2022-07-18T06:52:57Z</time>
      </trkpt>
      <trkpt lat="44.31626" lon="5.19197">
        <ele>502.2</ele>
        <time>2022-07-18T06:52:58Z</time>
      </trkpt>
      <trkpt lat="44.31627" lon="5.19197">
        <ele>502.2</ele>
        <time>2022-07-18T06:52:59Z</time>
      </trkpt>
      <trkpt lat="44.31631" lon="5.19197">
        <ele>502.3</ele>
        <time>2022-07-18T06:53:00Z</time>
      </trkpt>
      <trkpt lat="44.31632" lon="5.19196">
        <ele>502.3</ele>
        <time>2022-07-18T06:53:01Z</time>
      </trkpt>
      <trkpt lat="44.31634" lon="5.19194">
        <ele>502.4</ele>
        <time>2022-07-18T06:53:02Z</time>
      </trkpt>
      <trkpt lat="44.31635" lon="5.19194">
        <ele>502.5</ele>
        <time>2022-07-18T06:53:03Z</time>
      </trkpt>
      <trkpt lat="44.31638" lon="5.19193">
        <ele>502.6</ele>
        <time>2022-07-18T06:53:04Z</time>
      </trkpt>
      <trkpt lat="44.31639" lon="5.19193">
        <ele>502.6</ele>
        <time>2022-07-18T06:53:05Z</time>
      </trkpt>
      <trkpt lat="44.31643" lon="5.19193">
        <ele>502.8</ele>
        <time>2022-07-18T06:53:06Z</time>
      </trkpt>
      <trkpt lat="44.31644" lon="5.19193">
        <ele>502.8</ele>
        <time>2022-07-18T06:53:07Z</time>
      </trkpt>
      <trkpt lat="44.31647" lon="5.19193">
        <ele>502.9</ele>
        <time>2022-07-18T06:53:08Z</time>
      </trkpt>
      <trkpt lat="44.3165" lon="5.19193">
        <ele>503</ele>
        <time>2022-07-18T06:53:09Z</time>
      </trkpt>
      <trkpt lat="44.31653" lon="5.19194">
        <ele>503.1</ele>
        <time>2022-07-18T06:53:10Z</time>
      </trkpt>
      <trkpt lat="44.31656" lon="5.19195">
        <ele>503.2</ele>
        <time>2022-07-18T06:53:11Z</time>
      </trkpt>
      <trkpt lat="44.31658" lon="5.19196">
        <ele>503.3</ele>
        <time>2022-07-18T06:53:12Z</time>
      </trkpt>
      <trkpt lat="44.31661" lon="5.19198">
        <ele>503.4</ele>
        <time>2022-07-18T06:53:13Z</time>
      </trkpt>
      <trkpt lat="44.31664" lon="5.192">
        <ele>503.5</ele>
        <time>2022-07-18T06:53:14Z</time>
      </trkpt>
      <trkpt lat="44.31666" lon="5.19201">
        <ele>503.5</ele>
        <time>2022-07-18T06:53:15Z</time>
      </trkpt>
      <trkpt lat="44.31669" lon="5.19203">
        <ele>503.6</ele>
        <time>2022-07-18T06:53:16Z</time>
      </trkpt>
      <trkpt lat="44.3167" lon="5.19204">
        <ele>503.7</ele>
        <time>2022-07-18T06:53:17Z</time>
      </trkpt>
      <trkpt lat="44.31673" lon="5.19205">
        <ele>503.7</ele>
        <time>2022-07-18T06:53:18Z</time>
      </trkpt>
      <trkpt lat="44.31676" lon="5.19206">
        <ele>503.8</ele>
        <time>2022-07-18T06:53:19Z</time>
      </trkpt>
      <trkpt lat="44.31679" lon="5.19208">
        <ele>503.9</ele>
        <time>2022-07-18T06:53:20Z</time>
      </trkpt>
      <trkpt lat="44.31681" lon="5.1921">
        <ele>504</ele>
        <time>2022-07-18T06:53:21Z</time>
      </trkpt>
      <trkpt lat="44.31684" lon="5.19211">
        <ele>504</ele>
        <time>2022-07-18T06:53:22Z</time>
      </trkpt>
      <trkpt lat="44.31686" lon="5.19213">
        <ele>504.1</ele>
        <time>2022-07-18T06:53:23Z</time>
      </trkpt>
      <trkpt lat="44.3169" lon="5.19216">
        <ele>504.1</ele>
        <time>2022-07-18T06:53:24Z</time>
      </trkpt>
      <trkpt lat="44.31691" lon="5.19217">
        <ele>504.1</ele>
        <time>2022-07-18T06:53:25Z</time>
      </trkpt>
      <trkpt lat="44.31693" lon="5.19219">
        <ele>504.1</ele>
        <time>2022-07-18T06:53:26Z</time>
      </trkpt>
      <trkpt lat="44.31695" lon="5.19222">
        <ele>504.1</ele>
        <time>2022-07-18T06:53:27Z</time>
      </trkpt>
      <trkpt lat="44.31698" lon="5.19225">
        <ele>504.1</ele>
        <time>2022-07-18T06:53:28Z</time>
      </trkpt>
      <trkpt lat="44.317" lon="5.19229">
        <ele>504.1</ele>
        <time>2022-07-18T06:53:29Z</time>
      </trkpt>
      <trkpt lat="44.31703" lon="5.19232">
        <ele>504.1</ele>
        <time>2022-07-18T06:53:30Z</time>
      </trkpt>
      <trkpt lat="44.31705" lon="5.19235">
        <ele>504.2</ele>
        <time>2022-07-18T06:53:31Z</time>
      </trkpt>
      <trkpt lat="44.31708" lon="5.19238">
        <ele>504.2</ele>
        <time>2022-07-18T06:53:32Z</time>
      </trkpt>
      <trkpt lat="44.3171" lon="5.19239">
        <ele>504.2</ele>
        <time>2022-07-18T06:53:33Z</time>
      </trkpt>
      <trkpt lat="44.31711" lon="5.19239">
        <ele>504.2</ele>
        <time>2022-07-18T06:53:34Z</time>
      </trkpt>
      <trkpt lat="44.31713" lon="5.19238">
        <ele>504.3</ele>
        <time>2022-07-18T06:53:35Z</time>
      </trkpt>
      <trkpt lat="44.31715" lon="5.19237">
        <ele>504.3</ele>
        <time>2022-07-18T06:53:36Z</time>
      </trkpt>
      <trkpt lat="44.31717" lon="5.19236">
        <ele>504.4</ele>
        <time>2022-07-18T06:53:37Z</time>
      </trkpt>
      <trkpt lat="44.31718" lon="5.19236">
        <ele>504.4</ele>
        <time>2022-07-18T06:53:38Z</time>
      </trkpt>
      <trkpt lat="44.31721" lon="5.19235">
        <ele>504.5</ele>
        <time>2022-07-18T06:53:39Z</time>
      </trkpt>
      <trkpt lat="44.31722" lon="5.19235">
        <ele>504.5</ele>
        <time>2022-07-18T06:53:40Z</time>
      </trkpt>
      <trkpt lat="44.31725" lon="5.19234">
        <ele>504.6</ele>
        <time>2022-07-18T06:53:41Z</time>
      </trkpt>
      <trkpt lat="44.31726" lon="5.19234">
        <ele>504.7</ele>
        <time>2022-07-18T06:53:42Z</time>
      </trkpt>
      <trkpt lat="44.31729" lon="5.19233">
        <ele>504.8</ele>
        <time>2022-07-18T06:53:43Z</time>
      </trkpt>
      <trkpt lat="44.3173" lon="5.19233">
        <ele>504.9</ele>
        <time>2022-07-18T06:53:44Z</time>
      </trkpt>
      <trkpt lat="44.31731" lon="5.19232">
        <ele>504.9</ele>
        <time>2022-07-18T06:53:45Z</time>
      </trkpt>
      <trkpt lat="44.31733" lon="5.19232">
        <ele>505</ele>
        <time>2022-07-18T06:53:46Z</time>
      </trkpt>
      <trkpt lat="44.31737" lon="5.19233">
        <ele>505.2</ele>
        <time>2022-07-18T06:53:47Z</time>
      </trkpt>
      <trkpt lat="44.31738" lon="5.19233">
        <ele>505.3</ele>
        <time>2022-07-18T06:53:48Z</time>
      </trkpt>
      <trkpt lat="44.31741" lon="5.19233">
        <ele>505.5</ele>
        <time>2022-07-18T06:53:49Z</time>
      </trkpt>
      <trkpt lat="44.31744" lon="5.19234">
        <ele>505.7</ele>
        <time>2022-07-18T06:53:50Z</time>
      </trkpt>
      <trkpt lat="44.31747" lon="5.19234">
        <ele>505.9</ele>
        <time>2022-07-18T06:53:51Z</time>
      </trkpt>
      <trkpt lat="44.3175" lon="5.19235">
        <ele>506.1</ele>
        <time>2022-07-18T06:53:52Z</time>
      </trkpt>
      <trkpt lat="44.31753" lon="5.19235">
        <ele>506.3</ele>
        <time>2022-07-18T06:53:53Z</time>
      </trkpt>
      <trkpt lat="44.31756" lon="5.19236">
        <ele>506.5</ele>
        <time>2022-07-18T06:53:54Z</time>
      </trkpt>
      <trkpt lat="44.31758" lon="5.19237">
        <ele>506.7</ele>
        <time>2022-07-18T06:53:55Z</time>
      </trkpt>
      <trkpt lat="44.31761" lon="5.19238">
        <ele>506.9</ele>
        <time>2022-07-18T06:53:56Z</time>
      </trkpt>
      <trkpt lat="44.31765" lon="5.1924">
        <ele>507.1</ele>
        <time>2022-07-18T06:53:57Z</time>
      </trkpt>
      <trkpt lat="44.31766" lon="5.1924">
        <ele>507.2</ele>
        <time>2022-07-18T06:53:58Z</time>
      </trkpt>
      <trkpt lat="44.31769" lon="5.19242">
        <ele>507.4</ele>
        <time>2022-07-18T06:53:59Z</time>
      </trkpt>
      <trkpt lat="44.3177" lon="5.19242">
        <ele>507.5</ele>
        <time>2022-07-18T06:54:00Z</time>
      </trkpt>
      <trkpt lat="44.31773" lon="5.19243">
        <ele>507.6</ele>
        <time>2022-07-18T06:54:01Z</time>
      </trkpt>
      <trkpt lat="44.31774" lon="5.19244">
        <ele>507.7</ele>
        <time>2022-07-18T06:54:02Z</time>
      </trkpt>
      <trkpt lat="44.31777" lon="5.19246">
        <ele>507.9</ele>
        <time>2022-07-18T06:54:03Z</time>
      </trkpt>
      <trkpt lat="44.31778" lon="5.19247">
        <ele>507.9</ele>
        <time>2022-07-18T06:54:04Z</time>
      </trkpt>
      <trkpt lat="44.31781" lon="5.19248">
        <ele>508.1</ele>
        <time>2022-07-18T06:54:05Z</time>
      </trkpt>
      <trkpt lat="44.31782" lon="5.19248">
        <ele>508.1</ele>
        <time>2022-07-18T06:54:06Z</time>
      </trkpt>
      <trkpt lat="44.31786" lon="5.19248">
        <ele>508.3</ele>
        <time>2022-07-18T06:54:07Z</time>
      </trkpt>
      <trkpt lat="44.31787" lon="5.19248">
        <ele>508.4</ele>
        <time>2022-07-18T06:54:08Z</time>
      </trkpt>
      <trkpt lat="44.31791" lon="5.19248">
        <ele>508.6</ele>
        <time>2022-07-18T06:54:09Z</time>
      </trkpt>
      <trkpt lat="44.31792" lon="5.19248">
        <ele>508.6</ele>
        <time>2022-07-18T06:54:10Z</time>
      </trkpt>
      <trkpt lat="44.31795" lon="5.19248">
        <ele>508.8</ele>
        <time>2022-07-18T06:54:11Z</time>
      </trkpt>
      <trkpt lat="44.31796" lon="5.19248">
        <ele>508.8</ele>
        <time>2022-07-18T06:54:12Z</time>
      </trkpt>
      <trkpt lat="44.31799" lon="5.1925">
        <ele>509</ele>
        <time>2022-07-18T06:54:13Z</time>
      </trkpt>
      <trkpt lat="44.318" lon="5.19251">
        <ele>509</ele>
        <time>2022-07-18T06:54:14Z</time>
      </trkpt>
      <trkpt lat="44.31802" lon="5.19254">
        <ele>509.2</ele>
        <time>2022-07-18T06:54:15Z</time>
      </trkpt>
      <trkpt lat="44.31803" lon="5.19255">
        <ele>509.3</ele>
        <time>2022-07-18T06:54:16Z</time>
      </trkpt>
      <trkpt lat="44.31805" lon="5.19256">
        <ele>509.4</ele>
        <time>2022-07-18T06:54:17Z</time>
      </trkpt>
      <trkpt lat="44.31806" lon="5.19257">
        <ele>509.5</ele>
        <time>2022-07-18T06:54:18Z</time>
      </trkpt>
      <trkpt lat="44.31809" lon="5.19259">
        <ele>509.6</ele>
        <time>2022-07-18T06:54:19Z</time>
      </trkpt>
      <trkpt lat="44.3181" lon="5.1926">
        <ele>509.7</ele>
        <time>2022-07-18T06:54:20Z</time>
      </trkpt>
      <trkpt lat="44.31813" lon="5.19262">
        <ele>509.8</ele>
        <time>2022-07-18T06:54:21Z</time>
      </trkpt>
      <trkpt lat="44.31814" lon="5.19263">
        <ele>509.9</ele>
        <time>2022-07-18T06:54:22Z</time>
      </trkpt>
      <trkpt lat="44.31816" lon="5.19266">
        <ele>510</ele>
        <time>2022-07-18T06:54:23Z</time>
      </trkpt>
      <trkpt lat="44.31817" lon="5.19267">
        <ele>510.1</ele>
        <time>2022-07-18T06:54:24Z</time>
      </trkpt>
      <trkpt lat="44.31818" lon="5.19268">
        <ele>510.1</ele>
        <time>2022-07-18T06:54:25Z</time>
      </trkpt>
      <trkpt lat="44.31819" lon="5.1927">
        <ele>510.2</ele>
        <time>2022-07-18T06:54:26Z</time>
      </trkpt>
      <trkpt lat="44.3182" lon="5.19272">
        <ele>510.2</ele>
        <time>2022-07-18T06:54:27Z</time>
      </trkpt>
      <trkpt lat="44.31821" lon="5.19274">
        <ele>510.3</ele>
        <time>2022-07-18T06:54:28Z</time>
      </trkpt>
      <trkpt lat="44.31823" lon="5.19278">
        <ele>510.4</ele>
        <time>2022-07-18T06:54:29Z</time>
      </trkpt>
      <trkpt lat="44.31824" lon="5.19279">
        <ele>510.4</ele>
        <time>2022-07-18T06:54:30Z</time>
      </trkpt>
      <trkpt lat="44.31825" lon="5.19283">
        <ele>510.5</ele>
        <time>2022-07-18T06:54:31Z</time>
      </trkpt>
      <trkpt lat="44.31826" lon="5.19285">
        <ele>510.5</ele>
        <time>2022-07-18T06:54:32Z</time>
      </trkpt>
      <trkpt lat="44.31827" lon="5.19288">
        <ele>510.6</ele>
        <time>2022-07-18T06:54:33Z</time>
      </trkpt>
      <trkpt lat="44.31828" lon="5.1929">
        <ele>510.6</ele>
        <time>2022-07-18T06:54:34Z</time>
      </trkpt>
      <trkpt lat="44.3183" lon="5.19293">
        <ele>510.6</ele>
        <time>2022-07-18T06:54:35Z</time>
      </trkpt>
      <trkpt lat="44.31831" lon="5.19297">
        <ele>510.6</ele>
        <time>2022-07-18T06:54:36Z</time>
      </trkpt>
      <trkpt lat="44.31832" lon="5.19301">
        <ele>510.7</ele>
        <time>2022-07-18T06:54:37Z</time>
      </trkpt>
      <trkpt lat="44.31833" lon="5.19305">
        <ele>510.7</ele>
        <time>2022-07-18T06:54:38Z</time>
      </trkpt>
      <trkpt lat="44.31834" lon="5.19309">
        <ele>510.7</ele>
        <time>2022-07-18T06:54:39Z</time>
      </trkpt>
      <trkpt lat="44.31835" lon="5.19313">
        <ele>510.7</ele>
        <time>2022-07-18T06:54:40Z</time>
      </trkpt>
      <trkpt lat="44.31836" lon="5.19316">
        <ele>510.7</ele>
        <time>2022-07-18T06:54:41Z</time>
      </trkpt>
      <trkpt lat="44.31838" lon="5.1932">
        <ele>510.7</ele>
        <time>2022-07-18T06:54:42Z</time>
      </trkpt>
      <trkpt lat="44.31841" lon="5.19323">
        <ele>510.8</ele>
        <time>2022-07-18T06:54:43Z</time>
      </trkpt>
      <trkpt lat="44.31843" lon="5.19325">
        <ele>510.8</ele>
        <time>2022-07-18T06:54:44Z</time>
      </trkpt>
      <trkpt lat="44.31845" lon="5.19328">
        <ele>510.8</ele>
        <time>2022-07-18T06:54:45Z</time>
      </trkpt>
      <trkpt lat="44.31847" lon="5.19332">
        <ele>510.7</ele>
        <time>2022-07-18T06:54:46Z</time>
      </trkpt>
      <trkpt lat="44.31847" lon="5.19333">
        <ele>510.7</ele>
        <time>2022-07-18T06:54:47Z</time>
      </trkpt>
      <trkpt lat="44.31849" lon="5.19337">
        <ele>510.6</ele>
        <time>2022-07-18T06:54:48Z</time>
      </trkpt>
      <trkpt lat="44.31851" lon="5.19342">
        <ele>510.5</ele>
        <time>2022-07-18T06:54:49Z</time>
      </trkpt>
      <trkpt lat="44.31853" lon="5.19348">
        <ele>510.4</ele>
        <time>2022-07-18T06:54:50Z</time>
      </trkpt>
      <trkpt lat="44.31856" lon="5.19354">
        <ele>510.3</ele>
        <time>2022-07-18T06:54:51Z</time>
      </trkpt>
      <trkpt lat="44.31859" lon="5.19359">
        <ele>510.1</ele>
        <time>2022-07-18T06:54:52Z</time>
      </trkpt>
      <trkpt lat="44.31863" lon="5.19365">
        <ele>510</ele>
        <time>2022-07-18T06:54:53Z</time>
      </trkpt>
      <trkpt lat="44.31867" lon="5.1937">
        <ele>509.8</ele>
        <time>2022-07-18T06:54:54Z</time>
      </trkpt>
      <trkpt lat="44.3187" lon="5.19374">
        <ele>509.7</ele>
        <time>2022-07-18T06:54:55Z</time>
      </trkpt>
      <trkpt lat="44.31873" lon="5.19378">
        <ele>509.6</ele>
        <time>2022-07-18T06:54:56Z</time>
      </trkpt>
      <trkpt lat="44.31876" lon="5.1938">
        <ele>509.5</ele>
        <time>2022-07-18T06:54:57Z</time>
      </trkpt>
      <trkpt lat="44.31878" lon="5.19382">
        <ele>509.5</ele>
        <time>2022-07-18T06:54:58Z</time>
      </trkpt>
      <trkpt lat="44.31881" lon="5.19385">
        <ele>509.4</ele>
        <time>2022-07-18T06:54:59Z</time>
      </trkpt>
      <trkpt lat="44.31885" lon="5.19389">
        <ele>509.4</ele>
        <time>2022-07-18T06:55:00Z</time>
      </trkpt>
      <trkpt lat="44.31888" lon="5.19392">
        <ele>509.4</ele>
        <time>2022-07-18T06:55:01Z</time>
      </trkpt>
      <trkpt lat="44.3189" lon="5.19395">
        <ele>509.3</ele>
        <time>2022-07-18T06:55:02Z</time>
      </trkpt>
      <trkpt lat="44.31892" lon="5.19399">
        <ele>509.3</ele>
        <time>2022-07-18T06:55:03Z</time>
      </trkpt>
      <trkpt lat="44.31895" lon="5.19402">
        <ele>509.3</ele>
        <time>2022-07-18T06:55:04Z</time>
      </trkpt>
      <trkpt lat="44.31897" lon="5.19403">
        <ele>509.3</ele>
        <time>2022-07-18T06:55:05Z</time>
      </trkpt>
      <trkpt lat="44.319" lon="5.19402">
        <ele>509.2</ele>
        <time>2022-07-18T06:55:06Z</time>
      </trkpt>
      <trkpt lat="44.31902" lon="5.19402">
        <ele>509.2</ele>
        <time>2022-07-18T06:55:07Z</time>
      </trkpt>
      <trkpt lat="44.31905" lon="5.19402">
        <ele>509.2</ele>
        <time>2022-07-18T06:55:08Z</time>
      </trkpt>
      <trkpt lat="44.31906" lon="5.19403">
        <ele>509.2</ele>
        <time>2022-07-18T06:55:09Z</time>
      </trkpt>
      <trkpt lat="44.3191" lon="5.19402">
        <ele>509.2</ele>
        <time>2022-07-18T06:55:10Z</time>
      </trkpt>
      <trkpt lat="44.31911" lon="5.19402">
        <ele>509.2</ele>
        <time>2022-07-18T06:55:11Z</time>
      </trkpt>
      <trkpt lat="44.31915" lon="5.19402">
        <ele>509.2</ele>
        <time>2022-07-18T06:55:12Z</time>
      </trkpt>
      <trkpt lat="44.31916" lon="5.19402">
        <ele>509.2</ele>
        <time>2022-07-18T06:55:13Z</time>
      </trkpt>
      <trkpt lat="44.3192" lon="5.19404">
        <ele>509.2</ele>
        <time>2022-07-18T06:55:14Z</time>
      </trkpt>
      <trkpt lat="44.31922" lon="5.19404">
        <ele>509.3</ele>
        <time>2022-07-18T06:55:15Z</time>
      </trkpt>
      <trkpt lat="44.31925" lon="5.19405">
        <ele>509.3</ele>
        <time>2022-07-18T06:55:16Z</time>
      </trkpt>
      <trkpt lat="44.31928" lon="5.19405">
        <ele>509.4</ele>
        <time>2022-07-18T06:55:17Z</time>
      </trkpt>
      <trkpt lat="44.31931" lon="5.19405">
        <ele>509.5</ele>
        <time>2022-07-18T06:55:18Z</time>
      </trkpt>
      <trkpt lat="44.31934" lon="5.19405">
        <ele>509.6</ele>
        <time>2022-07-18T06:55:19Z</time>
      </trkpt>
      <trkpt lat="44.31938" lon="5.19405">
        <ele>509.7</ele>
        <time>2022-07-18T06:55:20Z</time>
      </trkpt>
      <trkpt lat="44.31942" lon="5.19405">
        <ele>509.8</ele>
        <time>2022-07-18T06:55:21Z</time>
      </trkpt>
      <trkpt lat="44.31945" lon="5.19406">
        <ele>509.9</ele>
        <time>2022-07-18T06:55:22Z</time>
      </trkpt>
      <trkpt lat="44.31948" lon="5.19407">
        <ele>510.1</ele>
        <time>2022-07-18T06:55:23Z</time>
      </trkpt>
      <trkpt lat="44.31951" lon="5.19408">
        <ele>510.2</ele>
        <time>2022-07-18T06:55:24Z</time>
      </trkpt>
      <trkpt lat="44.31954" lon="5.19409">
        <ele>510.4</ele>
        <time>2022-07-18T06:55:25Z</time>
      </trkpt>
      <trkpt lat="44.31958" lon="5.1941">
        <ele>510.5</ele>
        <time>2022-07-18T06:55:26Z</time>
      </trkpt>
      <trkpt lat="44.31961" lon="5.19412">
        <ele>510.7</ele>
        <time>2022-07-18T06:55:27Z</time>
      </trkpt>
      <trkpt lat="44.31963" lon="5.19413">
        <ele>510.8</ele>
        <time>2022-07-18T06:55:28Z</time>
      </trkpt>
      <trkpt lat="44.31966" lon="5.19414">
        <ele>511</ele>
        <time>2022-07-18T06:55:29Z</time>
      </trkpt>
      <trkpt lat="44.31969" lon="5.19416">
        <ele>511.2</ele>
        <time>2022-07-18T06:55:30Z</time>
      </trkpt>
      <trkpt lat="44.31972" lon="5.19417">
        <ele>511.3</ele>
        <time>2022-07-18T06:55:31Z</time>
      </trkpt>
      <trkpt lat="44.31976" lon="5.19418">
        <ele>511.6</ele>
        <time>2022-07-18T06:55:32Z</time>
      </trkpt>
      <trkpt lat="44.31977" lon="5.19419">
        <ele>511.6</ele>
        <time>2022-07-18T06:55:33Z</time>
      </trkpt>
      <trkpt lat="44.3198" lon="5.1942">
        <ele>511.8</ele>
        <time>2022-07-18T06:55:34Z</time>
      </trkpt>
      <trkpt lat="44.31981" lon="5.19421">
        <ele>511.9</ele>
        <time>2022-07-18T06:55:35Z</time>
      </trkpt>
      <trkpt lat="44.31984" lon="5.19423">
        <ele>512.1</ele>
        <time>2022-07-18T06:55:36Z</time>
      </trkpt>
      <trkpt lat="44.31985" lon="5.19424">
        <ele>512.1</ele>
        <time>2022-07-18T06:55:37Z</time>
      </trkpt>
      <trkpt lat="44.31987" lon="5.19424">
        <ele>512.3</ele>
        <time>2022-07-18T06:55:38Z</time>
      </trkpt>
      <trkpt lat="44.31988" lon="5.19424">
        <ele>512.3</ele>
        <time>2022-07-18T06:55:39Z</time>
      </trkpt>
      <trkpt lat="44.3199" lon="5.19424">
        <ele>512.4</ele>
        <time>2022-07-18T06:55:40Z</time>
      </trkpt>
      <trkpt lat="44.31992" lon="5.19425">
        <ele>512.6</ele>
        <time>2022-07-18T06:55:41Z</time>
      </trkpt>
      <trkpt lat="44.31994" lon="5.19429">
        <ele>512.8</ele>
        <time>2022-07-18T06:55:42Z</time>
      </trkpt>
      <trkpt lat="44.31995" lon="5.1943">
        <ele>512.8</ele>
        <time>2022-07-18T06:55:43Z</time>
      </trkpt>
      <trkpt lat="44.31997" lon="5.19432">
        <ele>513</ele>
        <time>2022-07-18T06:55:44Z</time>
      </trkpt>
      <trkpt lat="44.32001" lon="5.19435">
        <ele>513.2</ele>
        <time>2022-07-18T06:55:45Z</time>
      </trkpt>
      <trkpt lat="44.32002" lon="5.19436">
        <ele>513.3</ele>
        <time>2022-07-18T06:55:46Z</time>
      </trkpt>
      <trkpt lat="44.32005" lon="5.19439">
        <ele>513.5</ele>
        <time>2022-07-18T06:55:47Z</time>
      </trkpt>
      <trkpt lat="44.32005" lon="5.19441">
        <ele>513.5</ele>
        <time>2022-07-18T06:55:48Z</time>
      </trkpt>
      <trkpt lat="44.32006" lon="5.19443">
        <ele>513.6</ele>
        <time>2022-07-18T06:55:49Z</time>
      </trkpt>
      <trkpt lat="44.32007" lon="5.19445">
        <ele>513.7</ele>
        <time>2022-07-18T06:55:50Z</time>
      </trkpt>
      <trkpt lat="44.32008" lon="5.19446">
        <ele>513.8</ele>
        <time>2022-07-18T06:55:51Z</time>
      </trkpt>
      <trkpt lat="44.3201" lon="5.19448">
        <ele>513.9</ele>
        <time>2022-07-18T06:55:52Z</time>
      </trkpt>
      <trkpt lat="44.32013" lon="5.19452">
        <ele>514.1</ele>
        <time>2022-07-18T06:55:53Z</time>
      </trkpt>
      <trkpt lat="44.32014" lon="5.19453">
        <ele>514.2</ele>
        <time>2022-07-18T06:55:54Z</time>
      </trkpt>
      <trkpt lat="44.32016" lon="5.19456">
        <ele>514.4</ele>
        <time>2022-07-18T06:55:55Z</time>
      </trkpt>
      <trkpt lat="44.3202" lon="5.19457">
        <ele>514.6</ele>
        <time>2022-07-18T06:55:56Z</time>
      </trkpt>
      <trkpt lat="44.32021" lon="5.19457">
        <ele>514.6</ele>
        <time>2022-07-18T06:55:57Z</time>
      </trkpt>
      <trkpt lat="44.32024" lon="5.19457">
        <ele>514.8</ele>
        <time>2022-07-18T06:55:58Z</time>
      </trkpt>
      <trkpt lat="44.32027" lon="5.19458">
        <ele>514.9</ele>
        <time>2022-07-18T06:55:59Z</time>
      </trkpt>
      <trkpt lat="44.32029" lon="5.1946">
        <ele>515.1</ele>
        <time>2022-07-18T06:56:00Z</time>
      </trkpt>
      <trkpt lat="44.32032" lon="5.19463">
        <ele>515.2</ele>
        <time>2022-07-18T06:56:01Z</time>
      </trkpt>
      <trkpt lat="44.32034" lon="5.19466">
        <ele>515.4</ele>
        <time>2022-07-18T06:56:02Z</time>
      </trkpt>
      <trkpt lat="44.32037" lon="5.19468">
        <ele>515.6</ele>
        <time>2022-07-18T06:56:03Z</time>
      </trkpt>
      <trkpt lat="44.32038" lon="5.19469">
        <ele>515.7</ele>
        <time>2022-07-18T06:56:04Z</time>
      </trkpt>
      <trkpt lat="44.32041" lon="5.19471">
        <ele>515.8</ele>
        <time>2022-07-18T06:56:05Z</time>
      </trkpt>
      <trkpt lat="44.32043" lon="5.19472">
        <ele>516</ele>
        <time>2022-07-18T06:56:06Z</time>
      </trkpt>
      <trkpt lat="44.32047" lon="5.19475">
        <ele>516.2</ele>
        <time>2022-07-18T06:56:07Z</time>
      </trkpt>
      <trkpt lat="44.32048" lon="5.19475">
        <ele>516.3</ele>
        <time>2022-07-18T06:56:08Z</time>
      </trkpt>
      <trkpt lat="44.32051" lon="5.19478">
        <ele>516.5</ele>
        <time>2022-07-18T06:56:09Z</time>
      </trkpt>
      <trkpt lat="44.32052" lon="5.19479">
        <ele>516.5</ele>
        <time>2022-07-18T06:56:10Z</time>
      </trkpt>
      <trkpt lat="44.32055" lon="5.19483">
        <ele>516.7</ele>
        <time>2022-07-18T06:56:11Z</time>
      </trkpt>
      <trkpt lat="44.32056" lon="5.19484">
        <ele>516.8</ele>
        <time>2022-07-18T06:56:12Z</time>
      </trkpt>
      <trkpt lat="44.32058" lon="5.19486">
        <ele>517</ele>
        <time>2022-07-18T06:56:13Z</time>
      </trkpt>
      <trkpt lat="44.32062" lon="5.19489">
        <ele>517.2</ele>
        <time>2022-07-18T06:56:14Z</time>
      </trkpt>
      <trkpt lat="44.32063" lon="5.19489">
        <ele>517.2</ele>
        <time>2022-07-18T06:56:15Z</time>
      </trkpt>
      <trkpt lat="44.32067" lon="5.19491">
        <ele>517.5</ele>
        <time>2022-07-18T06:56:16Z</time>
      </trkpt>
      <trkpt lat="44.32068" lon="5.19492">
        <ele>517.5</ele>
        <time>2022-07-18T06:56:17Z</time>
      </trkpt>
      <trkpt lat="44.32071" lon="5.19494">
        <ele>517.7</ele>
        <time>2022-07-18T06:56:18Z</time>
      </trkpt>
      <trkpt lat="44.32073" lon="5.19494">
        <ele>517.8</ele>
        <time>2022-07-18T06:56:19Z</time>
      </trkpt>
      <trkpt lat="44.32075" lon="5.19496">
        <ele>518</ele>
        <time>2022-07-18T06:56:20Z</time>
      </trkpt>
      <trkpt lat="44.32076" lon="5.19497">
        <ele>518</ele>
        <time>2022-07-18T06:56:21Z</time>
      </trkpt>
      <trkpt lat="44.32079" lon="5.19498">
        <ele>518.2</ele>
        <time>2022-07-18T06:56:22Z</time>
      </trkpt>
      <trkpt lat="44.3208" lon="5.19499">
        <ele>518.3</ele>
        <time>2022-07-18T06:56:23Z</time>
      </trkpt>
      <trkpt lat="44.32083" lon="5.19501">
        <ele>518.4</ele>
        <time>2022-07-18T06:56:24Z</time>
      </trkpt>
      <trkpt lat="44.32084" lon="5.19501">
        <ele>518.5</ele>
        <time>2022-07-18T06:56:25Z</time>
      </trkpt>
      <trkpt lat="44.32088" lon="5.19502">
        <ele>518.7</ele>
        <time>2022-07-18T06:56:26Z</time>
      </trkpt>
      <trkpt lat="44.32089" lon="5.19503">
        <ele>518.8</ele>
        <time>2022-07-18T06:56:27Z</time>
      </trkpt>
      <trkpt lat="44.32092" lon="5.19503">
        <ele>518.9</ele>
        <time>2022-07-18T06:56:28Z</time>
      </trkpt>
      <trkpt lat="44.32092" lon="5.19504">
        <ele>519</ele>
        <time>2022-07-18T06:56:29Z</time>
      </trkpt>
      <trkpt lat="44.32094" lon="5.19503">
        <ele>519.1</ele>
        <time>2022-07-18T06:56:30Z</time>
      </trkpt>
      <trkpt lat="44.32096" lon="5.19503">
        <ele>519.1</ele>
        <time>2022-07-18T06:56:31Z</time>
      </trkpt>
      <trkpt lat="44.32099" lon="5.19504">
        <ele>519.3</ele>
        <time>2022-07-18T06:56:32Z</time>
      </trkpt>
      <trkpt lat="44.32099" lon="5.19505">
        <ele>519.4</ele>
        <time>2022-07-18T06:56:33Z</time>
      </trkpt>
      <trkpt lat="44.32102" lon="5.19507">
        <ele>519.5</ele>
        <time>2022-07-18T06:56:34Z</time>
      </trkpt>
      <trkpt lat="44.32103" lon="5.19508">
        <ele>519.6</ele>
        <time>2022-07-18T06:56:35Z</time>
      </trkpt>
      <trkpt lat="44.32105" lon="5.1951">
        <ele>519.8</ele>
        <time>2022-07-18T06:56:36Z</time>
      </trkpt>
      <trkpt lat="44.32106" lon="5.19511">
        <ele>519.8</ele>
        <time>2022-07-18T06:56:37Z</time>
      </trkpt>
      <trkpt lat="44.32109" lon="5.19513">
        <ele>520</ele>
        <time>2022-07-18T06:56:38Z</time>
      </trkpt>
      <trkpt lat="44.3211" lon="5.19513">
        <ele>520.1</ele>
        <time>2022-07-18T06:56:39Z</time>
      </trkpt>
      <trkpt lat="44.32112" lon="5.19514">
        <ele>520.2</ele>
        <time>2022-07-18T06:56:40Z</time>
      </trkpt>
      <trkpt lat="44.32113" lon="5.19515">
        <ele>520.3</ele>
        <time>2022-07-18T06:56:41Z</time>
      </trkpt>
      <trkpt lat="44.32116" lon="5.19517">
        <ele>520.5</ele>
        <time>2022-07-18T06:56:42Z</time>
      </trkpt>
      <trkpt lat="44.32117" lon="5.19518">
        <ele>520.5</ele>
        <time>2022-07-18T06:56:43Z</time>
      </trkpt>
      <trkpt lat="44.32119" lon="5.1952">
        <ele>520.7</ele>
        <time>2022-07-18T06:56:44Z</time>
      </trkpt>
      <trkpt lat="44.3212" lon="5.19521">
        <ele>520.8</ele>
        <time>2022-07-18T06:56:45Z</time>
      </trkpt>
      <trkpt lat="44.32123" lon="5.19523">
        <ele>521</ele>
        <time>2022-07-18T06:56:46Z</time>
      </trkpt>
      <trkpt lat="44.32124" lon="5.19524">
        <ele>521.1</ele>
        <time>2022-07-18T06:56:47Z</time>
      </trkpt>
      <trkpt lat="44.32127" lon="5.19525">
        <ele>521.3</ele>
        <time>2022-07-18T06:56:48Z</time>
      </trkpt>
      <trkpt lat="44.32128" lon="5.19526">
        <ele>521.4</ele>
        <time>2022-07-18T06:56:49Z</time>
      </trkpt>
      <trkpt lat="44.3213" lon="5.19527">
        <ele>521.6</ele>
        <time>2022-07-18T06:56:50Z</time>
      </trkpt>
      <trkpt lat="44.32131" lon="5.19528">
        <ele>521.6</ele>
        <time>2022-07-18T06:56:51Z</time>
      </trkpt>
      <trkpt lat="44.32133" lon="5.19531">
        <ele>521.8</ele>
        <time>2022-07-18T06:56:52Z</time>
      </trkpt>
      <trkpt lat="44.32133" lon="5.19532">
        <ele>521.9</ele>
        <time>2022-07-18T06:56:53Z</time>
      </trkpt>
      <trkpt lat="44.32135" lon="5.19535">
        <ele>522.1</ele>
        <time>2022-07-18T06:56:54Z</time>
      </trkpt>
      <trkpt lat="44.32136" lon="5.19536">
        <ele>522.1</ele>
        <time>2022-07-18T06:56:55Z</time>
      </trkpt>
      <trkpt lat="44.32138" lon="5.19539">
        <ele>522.3</ele>
        <time>2022-07-18T06:56:56Z</time>
      </trkpt>
      <trkpt lat="44.32139" lon="5.1954">
        <ele>522.4</ele>
        <time>2022-07-18T06:56:57Z</time>
      </trkpt>
      <trkpt lat="44.32141" lon="5.19543">
        <ele>522.6</ele>
        <time>2022-07-18T06:56:58Z</time>
      </trkpt>
      <trkpt lat="44.32142" lon="5.19544">
        <ele>522.6</ele>
        <time>2022-07-18T06:56:59Z</time>
      </trkpt>
      <trkpt lat="44.32144" lon="5.19547">
        <ele>522.8</ele>
        <time>2022-07-18T06:57:00Z</time>
      </trkpt>
      <trkpt lat="44.32145" lon="5.19548">
        <ele>522.9</ele>
        <time>2022-07-18T06:57:01Z</time>
      </trkpt>
      <trkpt lat="44.32146" lon="5.19549">
        <ele>523</ele>
        <time>2022-07-18T06:57:02Z</time>
      </trkpt>
      <trkpt lat="44.32147" lon="5.19551">
        <ele>523.1</ele>
        <time>2022-07-18T06:57:03Z</time>
      </trkpt>
      <trkpt lat="44.32149" lon="5.19554">
        <ele>523.2</ele>
        <time>2022-07-18T06:57:04Z</time>
      </trkpt>
      <trkpt lat="44.32149" lon="5.19555">
        <ele>523.3</ele>
        <time>2022-07-18T06:57:05Z</time>
      </trkpt>
      <trkpt lat="44.32151" lon="5.19558">
        <ele>523.4</ele>
        <time>2022-07-18T06:57:06Z</time>
      </trkpt>
      <trkpt lat="44.32151" lon="5.19559">
        <ele>523.5</ele>
        <time>2022-07-18T06:57:07Z</time>
      </trkpt>
      <trkpt lat="44.32153" lon="5.19563">
        <ele>523.6</ele>
        <time>2022-07-18T06:57:08Z</time>
      </trkpt>
      <trkpt lat="44.32154" lon="5.19564">
        <ele>523.7</ele>
        <time>2022-07-18T06:57:09Z</time>
      </trkpt>
      <trkpt lat="44.32155" lon="5.19567">
        <ele>523.8</ele>
        <time>2022-07-18T06:57:10Z</time>
      </trkpt>
      <trkpt lat="44.32156" lon="5.19568">
        <ele>523.8</ele>
        <time>2022-07-18T06:57:11Z</time>
      </trkpt>
      <trkpt lat="44.32157" lon="5.19572">
        <ele>524</ele>
        <time>2022-07-18T06:57:12Z</time>
      </trkpt>
      <trkpt lat="44.32158" lon="5.19573">
        <ele>524</ele>
        <time>2022-07-18T06:57:13Z</time>
      </trkpt>
      <trkpt lat="44.32159" lon="5.19576">
        <ele>524.2</ele>
        <time>2022-07-18T06:57:14Z</time>
      </trkpt>
      <trkpt lat="44.3216" lon="5.19578">
        <ele>524.2</ele>
        <time>2022-07-18T06:57:15Z</time>
      </trkpt>
      <trkpt lat="44.32162" lon="5.19579">
        <ele>524.3</ele>
        <time>2022-07-18T06:57:16Z</time>
      </trkpt>
      <trkpt lat="44.32163" lon="5.19581">
        <ele>524.3</ele>
        <time>2022-07-18T06:57:17Z</time>
      </trkpt>
      <trkpt lat="44.32164" lon="5.19583">
        <ele>524.4</ele>
        <time>2022-07-18T06:57:18Z</time>
      </trkpt>
      <trkpt lat="44.32165" lon="5.19584">
        <ele>524.5</ele>
        <time>2022-07-18T06:57:19Z</time>
      </trkpt>
      <trkpt lat="44.32165" lon="5.19585">
        <ele>524.5</ele>
        <time>2022-07-18T06:57:20Z</time>
      </trkpt>
      <trkpt lat="44.32166" lon="5.19587">
        <ele>524.5</ele>
        <time>2022-07-18T06:57:21Z</time>
      </trkpt>
      <trkpt lat="44.32167" lon="5.19589">
        <ele>524.6</ele>
        <time>2022-07-18T06:57:22Z</time>
      </trkpt>
      <trkpt lat="44.32169" lon="5.19591">
        <ele>524.7</ele>
        <time>2022-07-18T06:57:23Z</time>
      </trkpt>
      <trkpt lat="44.3217" lon="5.19592">
        <ele>524.7</ele>
        <time>2022-07-18T06:57:24Z</time>
      </trkpt>
      <trkpt lat="44.32171" lon="5.19597">
        <ele>524.7</ele>
        <time>2022-07-18T06:57:25Z</time>
      </trkpt>
      <trkpt lat="44.32172" lon="5.19598">
        <ele>524.8</ele>
        <time>2022-07-18T06:57:26Z</time>
      </trkpt>
      <trkpt lat="44.32173" lon="5.19602">
        <ele>524.8</ele>
        <time>2022-07-18T06:57:27Z</time>
      </trkpt>
      <trkpt lat="44.32174" lon="5.19603">
        <ele>524.8</ele>
        <time>2022-07-18T06:57:28Z</time>
      </trkpt>
      <trkpt lat="44.32175" lon="5.19607">
        <ele>524.8</ele>
        <time>2022-07-18T06:57:29Z</time>
      </trkpt>
      <trkpt lat="44.32175" lon="5.19609">
        <ele>524.8</ele>
        <time>2022-07-18T06:57:30Z</time>
      </trkpt>
      <trkpt lat="44.32175" lon="5.19614">
        <ele>524.7</ele>
        <time>2022-07-18T06:57:31Z</time>
      </trkpt>
      <trkpt lat="44.32174" lon="5.19616">
        <ele>524.7</ele>
        <time>2022-07-18T06:57:32Z</time>
      </trkpt>
      <trkpt lat="44.32174" lon="5.19621">
        <ele>524.7</ele>
        <time>2022-07-18T06:57:33Z</time>
      </trkpt>
      <trkpt lat="44.32173" lon="5.19625">
        <ele>524.7</ele>
        <time>2022-07-18T06:57:34Z</time>
      </trkpt>
      <trkpt lat="44.32172" lon="5.19629">
        <ele>524.7</ele>
        <time>2022-07-18T06:57:35Z</time>
      </trkpt>
      <trkpt lat="44.32171" lon="5.19633">
        <ele>524.7</ele>
        <time>2022-07-18T06:57:36Z</time>
      </trkpt>
      <trkpt lat="44.3217" lon="5.19636">
        <ele>524.7</ele>
        <time>2022-07-18T06:57:37Z</time>
      </trkpt>
      <trkpt lat="44.32168" lon="5.1964">
        <ele>524.7</ele>
        <time>2022-07-18T06:57:38Z</time>
      </trkpt>
      <trkpt lat="44.32167" lon="5.19645">
        <ele>524.8</ele>
        <time>2022-07-18T06:57:39Z</time>
      </trkpt>
      <trkpt lat="44.32166" lon="5.1965">
        <ele>524.9</ele>
        <time>2022-07-18T06:57:40Z</time>
      </trkpt>
      <trkpt lat="44.32166" lon="5.19651">
        <ele>524.9</ele>
        <time>2022-07-18T06:57:41Z</time>
      </trkpt>
      <trkpt lat="44.32166" lon="5.19656">
        <ele>525</ele>
        <time>2022-07-18T06:57:42Z</time>
      </trkpt>
      <trkpt lat="44.32165" lon="5.19657">
        <ele>525</ele>
        <time>2022-07-18T06:57:43Z</time>
      </trkpt>
      <trkpt lat="44.32165" lon="5.19659">
        <ele>525.1</ele>
        <time>2022-07-18T06:57:44Z</time>
      </trkpt>
      <trkpt lat="44.32165" lon="5.19662">
        <ele>525.2</ele>
        <time>2022-07-18T06:57:45Z</time>
      </trkpt>
      <trkpt lat="44.32165" lon="5.19666">
        <ele>525.3</ele>
        <time>2022-07-18T06:57:46Z</time>
      </trkpt>
      <trkpt lat="44.32165" lon="5.19667">
        <ele>525.4</ele>
        <time>2022-07-18T06:57:47Z</time>
      </trkpt>
      <trkpt lat="44.32165" lon="5.19669">
        <ele>525.5</ele>
        <time>2022-07-18T06:57:48Z</time>
      </trkpt>
      <trkpt lat="44.32166" lon="5.19672">
        <ele>525.6</ele>
        <time>2022-07-18T06:57:49Z</time>
      </trkpt>
      <trkpt lat="44.32166" lon="5.19674">
        <ele>525.7</ele>
        <time>2022-07-18T06:57:50Z</time>
      </trkpt>
      <trkpt lat="44.32167" lon="5.19676">
        <ele>525.8</ele>
        <time>2022-07-18T06:57:51Z</time>
      </trkpt>
      <trkpt lat="44.32168" lon="5.1968">
        <ele>526</ele>
        <time>2022-07-18T06:57:52Z</time>
      </trkpt>
      <trkpt lat="44.32169" lon="5.19681">
        <ele>526</ele>
        <time>2022-07-18T06:57:53Z</time>
      </trkpt>
      <trkpt lat="44.3217" lon="5.19683">
        <ele>526.2</ele>
        <time>2022-07-18T06:57:54Z</time>
      </trkpt>
      <trkpt lat="44.3217" lon="5.19685">
        <ele>526.3</ele>
        <time>2022-07-18T06:57:55Z</time>
      </trkpt>
      <trkpt lat="44.32172" lon="5.19689">
        <ele>526.5</ele>
        <time>2022-07-18T06:57:56Z</time>
      </trkpt>
      <trkpt lat="44.32172" lon="5.1969">
        <ele>526.6</ele>
        <time>2022-07-18T06:57:57Z</time>
      </trkpt>
      <trkpt lat="44.32174" lon="5.19694">
        <ele>526.8</ele>
        <time>2022-07-18T06:57:58Z</time>
      </trkpt>
      <trkpt lat="44.32175" lon="5.19696">
        <ele>526.9</ele>
        <time>2022-07-18T06:57:59Z</time>
      </trkpt>
      <trkpt lat="44.32176" lon="5.19699">
        <ele>527.2</ele>
        <time>2022-07-18T06:58:00Z</time>
      </trkpt>
      <trkpt lat="44.32179" lon="5.19703">
        <ele>527.6</ele>
        <time>2022-07-18T06:58:01Z</time>
      </trkpt>
      <trkpt lat="44.32179" lon="5.19705">
        <ele>527.7</ele>
        <time>2022-07-18T06:58:02Z</time>
      </trkpt>
      <trkpt lat="44.32181" lon="5.19709">
        <ele>528</ele>
        <time>2022-07-18T06:58:03Z</time>
      </trkpt>
      <trkpt lat="44.32182" lon="5.1971">
        <ele>528.1</ele>
        <time>2022-07-18T06:58:04Z</time>
      </trkpt>
      <trkpt lat="44.32183" lon="5.19712">
        <ele>528.3</ele>
        <time>2022-07-18T06:58:05Z</time>
      </trkpt>
      <trkpt lat="44.32184" lon="5.19713">
        <ele>528.5</ele>
        <time>2022-07-18T06:58:06Z</time>
      </trkpt>
      <trkpt lat="44.32186" lon="5.19714">
        <ele>528.7</ele>
        <time>2022-07-18T06:58:07Z</time>
      </trkpt>
      <trkpt lat="44.32187" lon="5.19716">
        <ele>529</ele>
        <time>2022-07-18T06:58:08Z</time>
      </trkpt>
      <trkpt lat="44.32189" lon="5.19717">
        <ele>529.2</ele>
        <time>2022-07-18T06:58:09Z</time>
      </trkpt>
      <trkpt lat="44.3219" lon="5.19718">
        <ele>529.4</ele>
        <time>2022-07-18T06:58:10Z</time>
      </trkpt>
      <trkpt lat="44.32191" lon="5.1972">
        <ele>529.5</ele>
        <time>2022-07-18T06:58:11Z</time>
      </trkpt>
      <trkpt lat="44.32192" lon="5.1972">
        <ele>529.6</ele>
        <time>2022-07-18T06:58:12Z</time>
      </trkpt>
      <trkpt lat="44.32193" lon="5.19719">
        <ele>529.8</ele>
        <time>2022-07-18T06:58:13Z</time>
      </trkpt>
      <trkpt lat="44.32193" lon="5.19718">
        <ele>530</ele>
        <time>2022-07-18T06:58:14Z</time>
      </trkpt>
      <trkpt lat="44.32194" lon="5.19716">
        <ele>530.1</ele>
        <time>2022-07-18T06:58:15Z</time>
      </trkpt>
      <trkpt lat="44.32194" lon="5.19714">
        <ele>530.3</ele>
        <time>2022-07-18T06:58:16Z</time>
      </trkpt>
      <trkpt lat="44.32194" lon="5.19713">
        <ele>530.4</ele>
        <time>2022-07-18T06:58:17Z</time>
      </trkpt>
      <trkpt lat="44.32194" lon="5.19711">
        <ele>530.5</ele>
        <time>2022-07-18T06:58:18Z</time>
      </trkpt>
      <trkpt lat="44.32194" lon="5.19709">
        <ele>530.7</ele>
        <time>2022-07-18T06:58:19Z</time>
      </trkpt>
      <trkpt lat="44.32194" lon="5.19707">
        <ele>530.8</ele>
        <time>2022-07-18T06:58:20Z</time>
      </trkpt>
      <trkpt lat="44.32194" lon="5.19706">
        <ele>530.9</ele>
        <time>2022-07-18T06:58:21Z</time>
      </trkpt>
      <trkpt lat="44.32194" lon="5.19704">
        <ele>531.1</ele>
        <time>2022-07-18T06:58:22Z</time>
      </trkpt>
      <trkpt lat="44.32193" lon="5.19702">
        <ele>531.3</ele>
        <time>2022-07-18T06:58:23Z</time>
      </trkpt>
      <trkpt lat="44.32192" lon="5.197">
        <ele>531.4</ele>
        <time>2022-07-18T06:58:24Z</time>
      </trkpt>
      <trkpt lat="44.32192" lon="5.19698">
        <ele>531.6</ele>
        <time>2022-07-18T06:58:25Z</time>
      </trkpt>
      <trkpt lat="44.32191" lon="5.19695">
        <ele>531.7</ele>
        <time>2022-07-18T06:58:26Z</time>
      </trkpt>
      <trkpt lat="44.32191" lon="5.19694">
        <ele>531.8</ele>
        <time>2022-07-18T06:58:27Z</time>
      </trkpt>
      <trkpt lat="44.32191" lon="5.19693">
        <ele>531.9</ele>
        <time>2022-07-18T06:58:28Z</time>
      </trkpt>
      <trkpt lat="44.32191" lon="5.19689">
        <ele>532.2</ele>
        <time>2022-07-18T06:58:29Z</time>
      </trkpt>
      <trkpt lat="44.32192" lon="5.19688">
        <ele>532.2</ele>
        <time>2022-07-18T06:58:30Z</time>
      </trkpt>
      <trkpt lat="44.32193" lon="5.19686">
        <ele>532.4</ele>
        <time>2022-07-18T06:58:31Z</time>
      </trkpt>
      <trkpt lat="44.32193" lon="5.19685">
        <ele>532.5</ele>
        <time>2022-07-18T06:58:32Z</time>
      </trkpt>
      <trkpt lat="44.32194" lon="5.19684">
        <ele>532.6</ele>
        <time>2022-07-18T06:58:33Z</time>
      </trkpt>
      <trkpt lat="44.32195" lon="5.19682">
        <ele>532.7</ele>
        <time>2022-07-18T06:58:34Z</time>
      </trkpt>
      <trkpt lat="44.32197" lon="5.19681">
        <ele>532.9</ele>
        <time>2022-07-18T06:58:35Z</time>
      </trkpt>
      <trkpt lat="44.32197" lon="5.1968">
        <ele>533</ele>
        <time>2022-07-18T06:58:36Z</time>
      </trkpt>
      <trkpt lat="44.32198" lon="5.19678">
        <ele>533.1</ele>
        <time>2022-07-18T06:58:37Z</time>
      </trkpt>
      <trkpt lat="44.32199" lon="5.19677">
        <ele>533.2</ele>
        <time>2022-07-18T06:58:38Z</time>
      </trkpt>
      <trkpt lat="44.322" lon="5.19675">
        <ele>533.4</ele>
        <time>2022-07-18T06:58:39Z</time>
      </trkpt>
      <trkpt lat="44.32201" lon="5.19674">
        <ele>533.5</ele>
        <time>2022-07-18T06:58:40Z</time>
      </trkpt>
      <trkpt lat="44.32202" lon="5.19673">
        <ele>533.6</ele>
        <time>2022-07-18T06:58:41Z</time>
      </trkpt>
      <trkpt lat="44.32203" lon="5.19671">
        <ele>533.7</ele>
        <time>2022-07-18T06:58:42Z</time>
      </trkpt>
      <trkpt lat="44.32204" lon="5.19669">
        <ele>533.9</ele>
        <time>2022-07-18T06:58:43Z</time>
      </trkpt>
      <trkpt lat="44.32206" lon="5.19666">
        <ele>534.1</ele>
        <time>2022-07-18T06:58:44Z</time>
      </trkpt>
      <trkpt lat="44.32207" lon="5.19665">
        <ele>534.2</ele>
        <time>2022-07-18T06:58:45Z</time>
      </trkpt>
      <trkpt lat="44.32209" lon="5.19662">
        <ele>534.4</ele>
        <time>2022-07-18T06:58:46Z</time>
      </trkpt>
      <trkpt lat="44.32209" lon="5.19661">
        <ele>534.5</ele>
        <time>2022-07-18T06:58:47Z</time>
      </trkpt>
      <trkpt lat="44.3221" lon="5.19659">
        <ele>534.7</ele>
        <time>2022-07-18T06:58:48Z</time>
      </trkpt>
      <trkpt lat="44.32211" lon="5.19657">
        <ele>534.8</ele>
        <time>2022-07-18T06:58:49Z</time>
      </trkpt>
      <trkpt lat="44.32212" lon="5.19655">
        <ele>535</ele>
        <time>2022-07-18T06:58:50Z</time>
      </trkpt>
      <trkpt lat="44.32213" lon="5.19653">
        <ele>535.1</ele>
        <time>2022-07-18T06:58:51Z</time>
      </trkpt>
      <trkpt lat="44.32213" lon="5.19652">
        <ele>535.2</ele>
        <time>2022-07-18T06:58:52Z</time>
      </trkpt>
      <trkpt lat="44.32214" lon="5.19651">
        <ele>535.3</ele>
        <time>2022-07-18T06:58:53Z</time>
      </trkpt>
      <trkpt lat="44.32214" lon="5.1965">
        <ele>535.4</ele>
        <time>2022-07-18T06:58:54Z</time>
      </trkpt>
      <trkpt lat="44.32214" lon="5.19649">
        <ele>535.4</ele>
        <time>2022-07-18T06:58:55Z</time>
      </trkpt>
      <trkpt lat="44.32215" lon="5.19647">
        <ele>535.5</ele>
        <time>2022-07-18T06:58:56Z</time>
      </trkpt>
      <trkpt lat="44.32216" lon="5.19646">
        <ele>535.6</ele>
        <time>2022-07-18T06:58:57Z</time>
      </trkpt>
      <trkpt lat="44.32216" lon="5.19645">
        <ele>535.7</ele>
        <time>2022-07-18T06:58:58Z</time>
      </trkpt>
      <trkpt lat="44.32219" lon="5.19645">
        <ele>535.9</ele>
        <time>2022-07-18T06:58:59Z</time>
      </trkpt>
      <trkpt lat="44.32219" lon="5.19645">
        <ele>536</ele>
        <time>2022-07-18T06:59:00Z</time>
      </trkpt>
      <trkpt lat="44.3222" lon="5.19644">
        <ele>536</ele>
        <time>2022-07-18T06:59:01Z</time>
      </trkpt>
      <trkpt lat="44.32223" lon="5.19643">
        <ele>536.3</ele>
        <time>2022-07-18T06:59:02Z</time>
      </trkpt>
      <trkpt lat="44.32224" lon="5.19643">
        <ele>536.3</ele>
        <time>2022-07-18T06:59:03Z</time>
      </trkpt>
      <trkpt lat="44.32226" lon="5.1964">
        <ele>536.6</ele>
        <time>2022-07-18T06:59:04Z</time>
      </trkpt>
      <trkpt lat="44.32226" lon="5.19639">
        <ele>536.7</ele>
        <time>2022-07-18T06:59:05Z</time>
      </trkpt>
      <trkpt lat="44.32227" lon="5.19637">
        <ele>536.8</ele>
        <time>2022-07-18T06:59:06Z</time>
      </trkpt>
      <trkpt lat="44.32229" lon="5.19636">
        <ele>536.9</ele>
        <time>2022-07-18T06:59:07Z</time>
      </trkpt>
      <trkpt lat="44.32229" lon="5.19636">
        <ele>537</ele>
        <time>2022-07-18T06:59:08Z</time>
      </trkpt>
      <trkpt lat="44.32229" lon="5.19636">
        <ele>537</ele>
        <time>2022-07-18T06:59:09Z</time>
      </trkpt>
      <trkpt lat="44.3223" lon="5.19635">
        <ele>537.1</ele>
        <time>2022-07-18T06:59:10Z</time>
      </trkpt>
      <trkpt lat="44.32231" lon="5.19635">
        <ele>537.1</ele>
        <time>2022-07-18T06:59:11Z</time>
      </trkpt>
      <trkpt lat="44.32232" lon="5.19634">
        <ele>537.2</ele>
        <time>2022-07-18T06:59:12Z</time>
      </trkpt>
      <trkpt lat="44.32232" lon="5.19634">
        <ele>537.3</ele>
        <time>2022-07-18T06:59:13Z</time>
      </trkpt>
      <trkpt lat="44.32233" lon="5.19633">
        <ele>537.3</ele>
        <time>2022-07-18T06:59:14Z</time>
      </trkpt>
      <trkpt lat="44.32234" lon="5.19633">
        <ele>537.4</ele>
        <time>2022-07-18T06:59:15Z</time>
      </trkpt>
      <trkpt lat="44.32235" lon="5.19632">
        <ele>537.5</ele>
        <time>2022-07-18T06:59:16Z</time>
      </trkpt>
      <trkpt lat="44.32237" lon="5.1963">
        <ele>537.8</ele>
        <time>2022-07-18T06:59:17Z</time>
      </trkpt>
      <trkpt lat="44.32238" lon="5.19629">
        <ele>537.8</ele>
        <time>2022-07-18T06:59:18Z</time>
      </trkpt>
      <trkpt lat="44.32239" lon="5.19628">
        <ele>538</ele>
        <time>2022-07-18T06:59:19Z</time>
      </trkpt>
      <trkpt lat="44.32241" lon="5.19628">
        <ele>538.2</ele>
        <time>2022-07-18T06:59:20Z</time>
      </trkpt>
      <trkpt lat="44.32243" lon="5.19626">
        <ele>538.4</ele>
        <time>2022-07-18T06:59:21Z</time>
      </trkpt>
      <trkpt lat="44.32244" lon="5.19625">
        <ele>538.5</ele>
        <time>2022-07-18T06:59:22Z</time>
      </trkpt>
      <trkpt lat="44.32245" lon="5.19624">
        <ele>538.6</ele>
        <time>2022-07-18T06:59:23Z</time>
      </trkpt>
      <trkpt lat="44.32246" lon="5.19623">
        <ele>538.8</ele>
        <time>2022-07-18T06:59:24Z</time>
      </trkpt>
      <trkpt lat="44.32248" lon="5.19622">
        <ele>538.9</ele>
        <time>2022-07-18T06:59:25Z</time>
      </trkpt>
      <trkpt lat="44.3225" lon="5.19622">
        <ele>539.2</ele>
        <time>2022-07-18T06:59:26Z</time>
      </trkpt>
      <trkpt lat="44.32251" lon="5.19621">
        <ele>539.3</ele>
        <time>2022-07-18T06:59:27Z</time>
      </trkpt>
      <trkpt lat="44.32252" lon="5.19621">
        <ele>539.4</ele>
        <time>2022-07-18T06:59:28Z</time>
      </trkpt>
      <trkpt lat="44.32254" lon="5.19619">
        <ele>539.7</ele>
        <time>2022-07-18T06:59:29Z</time>
      </trkpt>
      <trkpt lat="44.32255" lon="5.19618">
        <ele>539.8</ele>
        <time>2022-07-18T06:59:30Z</time>
      </trkpt>
      <trkpt lat="44.32256" lon="5.19617">
        <ele>540</ele>
        <time>2022-07-18T06:59:31Z</time>
      </trkpt>
      <trkpt lat="44.32258" lon="5.19616">
        <ele>540.3</ele>
        <time>2022-07-18T06:59:32Z</time>
      </trkpt>
      <trkpt lat="44.3226" lon="5.19616">
        <ele>540.5</ele>
        <time>2022-07-18T06:59:33Z</time>
      </trkpt>
      <trkpt lat="44.32261" lon="5.19615">
        <ele>540.7</ele>
        <time>2022-07-18T06:59:34Z</time>
      </trkpt>
      <trkpt lat="44.32263" lon="5.19614">
        <ele>541</ele>
        <time>2022-07-18T06:59:35Z</time>
      </trkpt>
      <trkpt lat="44.32264" lon="5.19613">
        <ele>541.1</ele>
        <time>2022-07-18T06:59:36Z</time>
      </trkpt>
      <trkpt lat="44.32265" lon="5.19613">
        <ele>541.2</ele>
        <time>2022-07-18T06:59:37Z</time>
      </trkpt>
      <trkpt lat="44.32267" lon="5.19612">
        <ele>541.6</ele>
        <time>2022-07-18T06:59:38Z</time>
      </trkpt>
      <trkpt lat="44.32268" lon="5.19612">
        <ele>541.7</ele>
        <time>2022-07-18T06:59:39Z</time>
      </trkpt>
      <trkpt lat="44.32269" lon="5.19612">
        <ele>541.8</ele>
        <time>2022-07-18T06:59:40Z</time>
      </trkpt>
      <trkpt lat="44.3227" lon="5.19611">
        <ele>542.1</ele>
        <time>2022-07-18T06:59:41Z</time>
      </trkpt>
      <trkpt lat="44.32271" lon="5.19611">
        <ele>542.3</ele>
        <time>2022-07-18T06:59:42Z</time>
      </trkpt>
      <trkpt lat="44.32272" lon="5.1961">
        <ele>542.4</ele>
        <time>2022-07-18T06:59:43Z</time>
      </trkpt>
      <trkpt lat="44.32273" lon="5.19611">
        <ele>542.5</ele>
        <time>2022-07-18T06:59:44Z</time>
      </trkpt>
      <trkpt lat="44.32274" lon="5.19611">
        <ele>542.6</ele>
        <time>2022-07-18T06:59:45Z</time>
      </trkpt>
      <trkpt lat="44.32274" lon="5.19612">
        <ele>542.8</ele>
        <time>2022-07-18T06:59:46Z</time>
      </trkpt>
      <trkpt lat="44.32275" lon="5.19613">
        <ele>542.9</ele>
        <time>2022-07-18T06:59:47Z</time>
      </trkpt>
      <trkpt lat="44.32276" lon="5.19613">
        <ele>543.1</ele>
        <time>2022-07-18T06:59:48Z</time>
      </trkpt>
      <trkpt lat="44.32277" lon="5.19614">
        <ele>543.2</ele>
        <time>2022-07-18T06:59:49Z</time>
      </trkpt>
      <trkpt lat="44.32278" lon="5.19615">
        <ele>543.4</ele>
        <time>2022-07-18T06:59:50Z</time>
      </trkpt>
      <trkpt lat="44.32279" lon="5.19616">
        <ele>543.6</ele>
        <time>2022-07-18T06:59:51Z</time>
      </trkpt>
      <trkpt lat="44.32279" lon="5.19617">
        <ele>543.7</ele>
        <time>2022-07-18T06:59:52Z</time>
      </trkpt>
      <trkpt lat="44.3228" lon="5.19619">
        <ele>543.9</ele>
        <time>2022-07-18T06:59:53Z</time>
      </trkpt>
      <trkpt lat="44.32281" lon="5.1962">
        <ele>544.6</ele>
        <time>2022-07-18T06:59:54Z</time>
      </trkpt>
      <trkpt lat="44.32282" lon="5.19621">
        <ele>544.7</ele>
        <time>2022-07-18T06:59:55Z</time>
      </trkpt>
      <trkpt lat="44.32283" lon="5.19621">
        <ele>544.9</ele>
        <time>2022-07-18T06:59:56Z</time>
      </trkpt>
      <trkpt lat="44.32285" lon="5.19621">
        <ele>545.1</ele>
        <time>2022-07-18T06:59:57Z</time>
      </trkpt>
      <trkpt lat="44.32289" lon="5.1962">
        <ele>545.5</ele>
        <time>2022-07-18T06:59:58Z</time>
      </trkpt>
      <trkpt lat="44.3229" lon="5.1962">
        <ele>545.6</ele>
        <time>2022-07-18T06:59:59Z</time>
      </trkpt>
      <trkpt lat="44.32293" lon="5.19619">
        <ele>545.9</ele>
        <time>2022-07-18T07:00:00Z</time>
      </trkpt>
      <trkpt lat="44.32294" lon="5.19619">
        <ele>546</ele>
        <time>2022-07-18T07:00:01Z</time>
      </trkpt>
      <trkpt lat="44.32296" lon="5.19619">
        <ele>546.2</ele>
        <time>2022-07-18T07:00:02Z</time>
      </trkpt>
      <trkpt lat="44.32297" lon="5.1962">
        <ele>546.4</ele>
        <time>2022-07-18T07:00:03Z</time>
      </trkpt>
      <trkpt lat="44.323" lon="5.1962">
        <ele>546.7</ele>
        <time>2022-07-18T07:00:04Z</time>
      </trkpt>
      <trkpt lat="44.32301" lon="5.1962">
        <ele>546.8</ele>
        <time>2022-07-18T07:00:05Z</time>
      </trkpt>
      <trkpt lat="44.32303" lon="5.19621">
        <ele>547</ele>
        <time>2022-07-18T07:00:06Z</time>
      </trkpt>
      <trkpt lat="44.32304" lon="5.19621">
        <ele>547.1</ele>
        <time>2022-07-18T07:00:07Z</time>
      </trkpt>
      <trkpt lat="44.32306" lon="5.19622">
        <ele>547.3</ele>
        <time>2022-07-18T07:00:08Z</time>
      </trkpt>
      <trkpt lat="44.32307" lon="5.19623">
        <ele>547.5</ele>
        <time>2022-07-18T07:00:09Z</time>
      </trkpt>
      <trkpt lat="44.32309" lon="5.19623">
        <ele>547.6</ele>
        <time>2022-07-18T07:00:10Z</time>
      </trkpt>
      <trkpt lat="44.32311" lon="5.19623">
        <ele>547.8</ele>
        <time>2022-07-18T07:00:11Z</time>
      </trkpt>
      <trkpt lat="44.32312" lon="5.19624">
        <ele>547.9</ele>
        <time>2022-07-18T07:00:12Z</time>
      </trkpt>
      <trkpt lat="44.32313" lon="5.19624">
        <ele>548.1</ele>
        <time>2022-07-18T07:00:13Z</time>
      </trkpt>
      <trkpt lat="44.32315" lon="5.19625">
        <ele>548.3</ele>
        <time>2022-07-18T07:00:14Z</time>
      </trkpt>
      <trkpt lat="44.32316" lon="5.19625">
        <ele>548.4</ele>
        <time>2022-07-18T07:00:15Z</time>
      </trkpt>
      <trkpt lat="44.32319" lon="5.19625">
        <ele>548.7</ele>
        <time>2022-07-18T07:00:16Z</time>
      </trkpt>
      <trkpt lat="44.3232" lon="5.19625">
        <ele>548.8</ele>
        <time>2022-07-18T07:00:17Z</time>
      </trkpt>
      <trkpt lat="44.32322" lon="5.19625">
        <ele>549</ele>
        <time>2022-07-18T07:00:18Z</time>
      </trkpt>
      <trkpt lat="44.32323" lon="5.19625">
        <ele>549.1</ele>
        <time>2022-07-18T07:00:19Z</time>
      </trkpt>
      <trkpt lat="44.32325" lon="5.19625">
        <ele>549.6</ele>
        <time>2022-07-18T07:00:20Z</time>
      </trkpt>
      <trkpt lat="44.32326" lon="5.19626">
        <ele>549.7</ele>
        <time>2022-07-18T07:00:21Z</time>
      </trkpt>
      <trkpt lat="44.32326" lon="5.19627">
        <ele>549.7</ele>
        <time>2022-07-18T07:00:22Z</time>
      </trkpt>
      <trkpt lat="44.32327" lon="5.19628">
        <ele>550.9</ele>
        <time>2022-07-18T07:00:23Z</time>
      </trkpt>
      <trkpt lat="44.32328" lon="5.19629">
        <ele>550.9</ele>
        <time>2022-07-18T07:00:24Z</time>
      </trkpt>
      <trkpt lat="44.32329" lon="5.1963">
        <ele>550.9</ele>
        <time>2022-07-18T07:00:25Z</time>
      </trkpt>
      <trkpt lat="44.3233" lon="5.1963">
        <ele>551.4</ele>
        <time>2022-07-18T07:00:26Z</time>
      </trkpt>
      <trkpt lat="44.32332" lon="5.1963">
        <ele>551.5</ele>
        <time>2022-07-18T07:00:27Z</time>
      </trkpt>
      <trkpt lat="44.32333" lon="5.1963">
        <ele>552</ele>
        <time>2022-07-18T07:00:28Z</time>
      </trkpt>
      <trkpt lat="44.32335" lon="5.1963">
        <ele>552</ele>
        <time>2022-07-18T07:00:29Z</time>
      </trkpt>
      <trkpt lat="44.32337" lon="5.19628">
        <ele>552.5</ele>
        <time>2022-07-18T07:00:30Z</time>
      </trkpt>
      <trkpt lat="44.32337" lon="5.19628">
        <ele>552.5</ele>
        <time>2022-07-18T07:00:31Z</time>
      </trkpt>
      <trkpt lat="44.32338" lon="5.19627">
        <ele>551.9</ele>
        <time>2022-07-18T07:00:32Z</time>
      </trkpt>
      <trkpt lat="44.32339" lon="5.19626">
        <ele>552.4</ele>
        <time>2022-07-18T07:00:33Z</time>
      </trkpt>
      <trkpt lat="44.3234" lon="5.19625">
        <ele>552.4</ele>
        <time>2022-07-18T07:00:34Z</time>
      </trkpt>
      <trkpt lat="44.32341" lon="5.19624">
        <ele>552.4</ele>
        <time>2022-07-18T07:00:35Z</time>
      </trkpt>
      <trkpt lat="44.32342" lon="5.19624">
        <ele>552.9</ele>
        <time>2022-07-18T07:00:36Z</time>
      </trkpt>
      <trkpt lat="44.32343" lon="5.19624">
        <ele>552.9</ele>
        <time>2022-07-18T07:00:37Z</time>
      </trkpt>
      <trkpt lat="44.32344" lon="5.19624">
        <ele>552.9</ele>
        <time>2022-07-18T07:00:38Z</time>
      </trkpt>
      <trkpt lat="44.32346" lon="5.19624">
        <ele>553.2</ele>
        <time>2022-07-18T07:00:39Z</time>
      </trkpt>
      <trkpt lat="44.32347" lon="5.19623">
        <ele>553.3</ele>
        <time>2022-07-18T07:00:40Z</time>
      </trkpt>
      <trkpt lat="44.3235" lon="5.19622">
        <ele>553</ele>
        <time>2022-07-18T07:00:41Z</time>
      </trkpt>
      <trkpt lat="44.3235" lon="5.19622">
        <ele>553</ele>
        <time>2022-07-18T07:00:42Z</time>
      </trkpt>
      <trkpt lat="44.32352" lon="5.19621">
        <ele>553.3</ele>
        <time>2022-07-18T07:00:43Z</time>
      </trkpt>
      <trkpt lat="44.32353" lon="5.1962">
        <ele>553.3</ele>
        <time>2022-07-18T07:00:44Z</time>
      </trkpt>
      <trkpt lat="44.32355" lon="5.1962">
        <ele>553.6</ele>
        <time>2022-07-18T07:00:45Z</time>
      </trkpt>
      <trkpt lat="44.32356" lon="5.1962">
        <ele>553.7</ele>
        <time>2022-07-18T07:00:46Z</time>
      </trkpt>
      <trkpt lat="44.32357" lon="5.19619">
        <ele>553.7</ele>
        <time>2022-07-18T07:00:47Z</time>
      </trkpt>
      <trkpt lat="44.32359" lon="5.19619">
        <ele>554.1</ele>
        <time>2022-07-18T07:00:48Z</time>
      </trkpt>
      <trkpt lat="44.3236" lon="5.1962">
        <ele>554.6</ele>
        <time>2022-07-18T07:00:49Z</time>
      </trkpt>
      <trkpt lat="44.32362" lon="5.19621">
        <ele>554.6</ele>
        <time>2022-07-18T07:00:50Z</time>
      </trkpt>
      <trkpt lat="44.32363" lon="5.19622">
        <ele>554.6</ele>
        <time>2022-07-18T07:00:51Z</time>
      </trkpt>
      <trkpt lat="44.32364" lon="5.19625">
        <ele>555.9</ele>
        <time>2022-07-18T07:00:52Z</time>
      </trkpt>
      <trkpt lat="44.32364" lon="5.19627">
        <ele>555.9</ele>
        <time>2022-07-18T07:00:53Z</time>
      </trkpt>
      <trkpt lat="44.32364" lon="5.19627">
        <ele>555.9</ele>
        <time>2022-07-18T07:00:54Z</time>
      </trkpt>
      <trkpt lat="44.32364" lon="5.19628">
        <ele>556.8</ele>
        <time>2022-07-18T07:00:55Z</time>
      </trkpt>
      <trkpt lat="44.32363" lon="5.19629">
        <ele>556.3</ele>
        <time>2022-07-18T07:00:56Z</time>
      </trkpt>
      <trkpt lat="44.32362" lon="5.1963">
        <ele>556.3</ele>
        <time>2022-07-18T07:00:57Z</time>
      </trkpt>
      <trkpt lat="44.32361" lon="5.19631">
        <ele>556.4</ele>
        <time>2022-07-18T07:00:58Z</time>
      </trkpt>
      <trkpt lat="44.32361" lon="5.19631">
        <ele>556.4</ele>
        <time>2022-07-18T07:00:59Z</time>
      </trkpt>
      <trkpt lat="44.3236" lon="5.19631">
        <ele>556.4</ele>
        <time>2022-07-18T07:01:00Z</time>
      </trkpt>
      <trkpt lat="44.32361" lon="5.1963">
        <ele>556.5</ele>
        <time>2022-07-18T07:01:01Z</time>
      </trkpt>
      <trkpt lat="44.3236" lon="5.1963">
        <ele>556</ele>
        <time>2022-07-18T07:01:02Z</time>
      </trkpt>
      <trkpt lat="44.32359" lon="5.1963">
        <ele>556</ele>
        <time>2022-07-18T07:01:03Z</time>
      </trkpt>
      <trkpt lat="44.32358" lon="5.19632">
        <ele>556.1</ele>
        <time>2022-07-18T07:01:04Z</time>
      </trkpt>
      <trkpt lat="44.32358" lon="5.19633">
        <ele>556.9</ele>
        <time>2022-07-18T07:01:05Z</time>
      </trkpt>
      <trkpt lat="44.32358" lon="5.19633">
        <ele>557</ele>
        <time>2022-07-18T07:01:06Z</time>
      </trkpt>
      <trkpt lat="44.32357" lon="5.19632">
        <ele>557</ele>
        <time>2022-07-18T07:01:07Z</time>
      </trkpt>
      <trkpt lat="44.32356" lon="5.19632">
        <ele>557.1</ele>
        <time>2022-07-18T07:01:08Z</time>
      </trkpt>
      <trkpt lat="44.32355" lon="5.19632">
        <ele>557.2</ele>
        <time>2022-07-18T07:01:09Z</time>
      </trkpt>
      <trkpt lat="44.32354" lon="5.19633">
        <ele>557.3</ele>
        <time>2022-07-18T07:01:10Z</time>
      </trkpt>
      <trkpt lat="44.32353" lon="5.19634">
        <ele>557.5</ele>
        <time>2022-07-18T07:01:11Z</time>
      </trkpt>
      <trkpt lat="44.32352" lon="5.19634">
        <ele>557.6</ele>
        <time>2022-07-18T07:01:12Z</time>
      </trkpt>
      <trkpt lat="44.32352" lon="5.19633">
        <ele>557.6</ele>
        <time>2022-07-18T07:01:13Z</time>
      </trkpt>
      <trkpt lat="44.32351" lon="5.19633">
        <ele>557.7</ele>
        <time>2022-07-18T07:01:14Z</time>
      </trkpt>
      <trkpt lat="44.3235" lon="5.19633">
        <ele>557.8</ele>
        <time>2022-07-18T07:01:15Z</time>
      </trkpt>
      <trkpt lat="44.3235" lon="5.19633">
        <ele>557.9</ele>
        <time>2022-07-18T07:01:16Z</time>
      </trkpt>
      <trkpt lat="44.32349" lon="5.19633">
        <ele>557.9</ele>
        <time>2022-07-18T07:01:17Z</time>
      </trkpt>
      <trkpt lat="44.32348" lon="5.19633">
        <ele>558</ele>
        <time>2022-07-18T07:01:18Z</time>
      </trkpt>
      <trkpt lat="44.32348" lon="5.19633">
        <ele>558.1</ele>
        <time>2022-07-18T07:01:19Z</time>
      </trkpt>
      <trkpt lat="44.32347" lon="5.19634">
        <ele>558.2</ele>
        <time>2022-07-18T07:01:20Z</time>
      </trkpt>
      <trkpt lat="44.32346" lon="5.19634">
        <ele>558.3</ele>
        <time>2022-07-18T07:01:21Z</time>
      </trkpt>
      <trkpt lat="44.32345" lon="5.19634">
        <ele>558.4</ele>
        <time>2022-07-18T07:01:22Z</time>
      </trkpt>
      <trkpt lat="44.32343" lon="5.19636">
        <ele>558.6</ele>
        <time>2022-07-18T07:01:23Z</time>
      </trkpt>
      <trkpt lat="44.32342" lon="5.19636">
        <ele>558.7</ele>
        <time>2022-07-18T07:01:24Z</time>
      </trkpt>
      <trkpt lat="44.32341" lon="5.19636">
        <ele>558.8</ele>
        <time>2022-07-18T07:01:25Z</time>
      </trkpt>
      <trkpt lat="44.32338" lon="5.19638">
        <ele>559.2</ele>
        <time>2022-07-18T07:01:26Z</time>
      </trkpt>
      <trkpt lat="44.32337" lon="5.19638">
        <ele>559.3</ele>
        <time>2022-07-18T07:01:27Z</time>
      </trkpt>
      <trkpt lat="44.32336" lon="5.19638">
        <ele>559.4</ele>
        <time>2022-07-18T07:01:28Z</time>
      </trkpt>
      <trkpt lat="44.32335" lon="5.19639">
        <ele>559.5</ele>
        <time>2022-07-18T07:01:29Z</time>
      </trkpt>
      <trkpt lat="44.32333" lon="5.1964">
        <ele>559.8</ele>
        <time>2022-07-18T07:01:30Z</time>
      </trkpt>
      <trkpt lat="44.32332" lon="5.19641">
        <ele>559.9</ele>
        <time>2022-07-18T07:01:31Z</time>
      </trkpt>
      <trkpt lat="44.32331" lon="5.19641">
        <ele>560</ele>
        <time>2022-07-18T07:01:32Z</time>
      </trkpt>
      <trkpt lat="44.3233" lon="5.19642">
        <ele>560.1</ele>
        <time>2022-07-18T07:01:33Z</time>
      </trkpt>
      <trkpt lat="44.32329" lon="5.19643">
        <ele>560.3</ele>
        <time>2022-07-18T07:01:34Z</time>
      </trkpt>
      <trkpt lat="44.32327" lon="5.19644">
        <ele>560.5</ele>
        <time>2022-07-18T07:01:35Z</time>
      </trkpt>
      <trkpt lat="44.32326" lon="5.19646">
        <ele>560.6</ele>
        <time>2022-07-18T07:01:36Z</time>
      </trkpt>
      <trkpt lat="44.32325" lon="5.19647">
        <ele>560.8</ele>
        <time>2022-07-18T07:01:37Z</time>
      </trkpt>
      <trkpt lat="44.32323" lon="5.19648">
        <ele>561</ele>
        <time>2022-07-18T07:01:38Z</time>
      </trkpt>
      <trkpt lat="44.32322" lon="5.19649">
        <ele>561.2</ele>
        <time>2022-07-18T07:01:39Z</time>
      </trkpt>
      <trkpt lat="44.32321" lon="5.19651">
        <ele>561.3</ele>
        <time>2022-07-18T07:01:40Z</time>
      </trkpt>
      <trkpt lat="44.3232" lon="5.19652">
        <ele>561.5</ele>
        <time>2022-07-18T07:01:41Z</time>
      </trkpt>
      <trkpt lat="44.32318" lon="5.19654">
        <ele>561.7</ele>
        <time>2022-07-18T07:01:42Z</time>
      </trkpt>
      <trkpt lat="44.32317" lon="5.19656">
        <ele>561.8</ele>
        <time>2022-07-18T07:01:43Z</time>
      </trkpt>
      <trkpt lat="44.32317" lon="5.19658">
        <ele>562</ele>
        <time>2022-07-18T07:01:44Z</time>
      </trkpt>
      <trkpt lat="44.32316" lon="5.19659">
        <ele>562.2</ele>
        <time>2022-07-18T07:01:45Z</time>
      </trkpt>
      <trkpt lat="44.32315" lon="5.19661">
        <ele>562.4</ele>
        <time>2022-07-18T07:01:46Z</time>
      </trkpt>
      <trkpt lat="44.32314" lon="5.19665">
        <ele>562.7</ele>
        <time>2022-07-18T07:01:47Z</time>
      </trkpt>
      <trkpt lat="44.32314" lon="5.19666">
        <ele>562.8</ele>
        <time>2022-07-18T07:01:48Z</time>
      </trkpt>
      <trkpt lat="44.32315" lon="5.1967">
        <ele>563.1</ele>
        <time>2022-07-18T07:01:49Z</time>
      </trkpt>
      <trkpt lat="44.32316" lon="5.19671">
        <ele>563.1</ele>
        <time>2022-07-18T07:01:50Z</time>
      </trkpt>
      <trkpt lat="44.32317" lon="5.19673">
        <ele>563.3</ele>
        <time>2022-07-18T07:01:51Z</time>
      </trkpt>
      <trkpt lat="44.32318" lon="5.19675">
        <ele>563.5</ele>
        <time>2022-07-18T07:01:52Z</time>
      </trkpt>
      <trkpt lat="44.32319" lon="5.19677">
        <ele>563.7</ele>
        <time>2022-07-18T07:01:53Z</time>
      </trkpt>
      <trkpt lat="44.3232" lon="5.19678">
        <ele>563.8</ele>
        <time>2022-07-18T07:01:54Z</time>
      </trkpt>
      <trkpt lat="44.32321" lon="5.19678">
        <ele>563.9</ele>
        <time>2022-07-18T07:01:55Z</time>
      </trkpt>
      <trkpt lat="44.32322" lon="5.19678">
        <ele>564</ele>
        <time>2022-07-18T07:01:56Z</time>
      </trkpt>
      <trkpt lat="44.32322" lon="5.19679">
        <ele>564.1</ele>
        <time>2022-07-18T07:01:57Z</time>
      </trkpt>
      <trkpt lat="44.32323" lon="5.19679">
        <ele>564.2</ele>
        <time>2022-07-18T07:01:58Z</time>
      </trkpt>
      <trkpt lat="44.32323" lon="5.19679">
        <ele>564.3</ele>
        <time>2022-07-18T07:01:59Z</time>
      </trkpt>
      <trkpt lat="44.32324" lon="5.19678">
        <ele>564.3</ele>
        <time>2022-07-18T07:02:00Z</time>
      </trkpt>
      <trkpt lat="44.32325" lon="5.19678">
        <ele>564.4</ele>
        <time>2022-07-18T07:02:01Z</time>
      </trkpt>
      <trkpt lat="44.32325" lon="5.19677">
        <ele>564.5</ele>
        <time>2022-07-18T07:02:02Z</time>
      </trkpt>
      <trkpt lat="44.32326" lon="5.19677">
        <ele>564.6</ele>
        <time>2022-07-18T07:02:03Z</time>
      </trkpt>
      <trkpt lat="44.32328" lon="5.19675">
        <ele>564.8</ele>
        <time>2022-07-18T07:02:04Z</time>
      </trkpt>
      <trkpt lat="44.32329" lon="5.19675">
        <ele>564.9</ele>
        <time>2022-07-18T07:02:05Z</time>
      </trkpt>
      <trkpt lat="44.3233" lon="5.19674">
        <ele>565</ele>
        <time>2022-07-18T07:02:06Z</time>
      </trkpt>
      <trkpt lat="44.3233" lon="5.19674">
        <ele>565.1</ele>
        <time>2022-07-18T07:02:07Z</time>
      </trkpt>
      <trkpt lat="44.32331" lon="5.19673">
        <ele>565.2</ele>
        <time>2022-07-18T07:02:08Z</time>
      </trkpt>
      <trkpt lat="44.32332" lon="5.19671">
        <ele>565.4</ele>
        <time>2022-07-18T07:02:09Z</time>
      </trkpt>
      <trkpt lat="44.32332" lon="5.1967">
        <ele>565.5</ele>
        <time>2022-07-18T07:02:10Z</time>
      </trkpt>
      <trkpt lat="44.32333" lon="5.19668">
        <ele>565.6</ele>
        <time>2022-07-18T07:02:11Z</time>
      </trkpt>
      <trkpt lat="44.32333" lon="5.19667">
        <ele>565.7</ele>
        <time>2022-07-18T07:02:12Z</time>
      </trkpt>
      <trkpt lat="44.32334" lon="5.19666">
        <ele>565.9</ele>
        <time>2022-07-18T07:02:13Z</time>
      </trkpt>
      <trkpt lat="44.32334" lon="5.19665">
        <ele>566</ele>
        <time>2022-07-18T07:02:14Z</time>
      </trkpt>
      <trkpt lat="44.32335" lon="5.19664">
        <ele>566.1</ele>
        <time>2022-07-18T07:02:15Z</time>
      </trkpt>
      <trkpt lat="44.32336" lon="5.19664">
        <ele>566.2</ele>
        <time>2022-07-18T07:02:16Z</time>
      </trkpt>
      <trkpt lat="44.32336" lon="5.19663">
        <ele>566.2</ele>
        <time>2022-07-18T07:02:17Z</time>
      </trkpt>
      <trkpt lat="44.32337" lon="5.19663">
        <ele>566.2</ele>
        <time>2022-07-18T07:02:18Z</time>
      </trkpt>
      <trkpt lat="44.32337" lon="5.19663">
        <ele>566.3</ele>
        <time>2022-07-18T07:02:19Z</time>
      </trkpt>
      <trkpt lat="44.32338" lon="5.19664">
        <ele>566.4</ele>
        <time>2022-07-18T07:02:20Z</time>
      </trkpt>
      <trkpt lat="44.32338" lon="5.19665">
        <ele>566.4</ele>
        <time>2022-07-18T07:02:21Z</time>
      </trkpt>
      <trkpt lat="44.32339" lon="5.19665">
        <ele>566.5</ele>
        <time>2022-07-18T07:02:22Z</time>
      </trkpt>
      <trkpt lat="44.3234" lon="5.19665">
        <ele>566.7</ele>
        <time>2022-07-18T07:02:23Z</time>
      </trkpt>
      <trkpt lat="44.32341" lon="5.19666">
        <ele>566.8</ele>
        <time>2022-07-18T07:02:24Z</time>
      </trkpt>
      <trkpt lat="44.32342" lon="5.19667">
        <ele>566.9</ele>
        <time>2022-07-18T07:02:25Z</time>
      </trkpt>
      <trkpt lat="44.32344" lon="5.19668">
        <ele>567.1</ele>
        <time>2022-07-18T07:02:26Z</time>
      </trkpt>
      <trkpt lat="44.32345" lon="5.19668">
        <ele>567.3</ele>
        <time>2022-07-18T07:02:27Z</time>
      </trkpt>
      <trkpt lat="44.32347" lon="5.19668">
        <ele>567.5</ele>
        <time>2022-07-18T07:02:28Z</time>
      </trkpt>
      <trkpt lat="44.3235" lon="5.19668">
        <ele>567.8</ele>
        <time>2022-07-18T07:02:29Z</time>
      </trkpt>
      <trkpt lat="44.32351" lon="5.19668">
        <ele>567.9</ele>
        <time>2022-07-18T07:02:30Z</time>
      </trkpt>
      <trkpt lat="44.32353" lon="5.19668">
        <ele>568</ele>
        <time>2022-07-18T07:02:31Z</time>
      </trkpt>
      <trkpt lat="44.32354" lon="5.19668">
        <ele>568.2</ele>
        <time>2022-07-18T07:02:32Z</time>
      </trkpt>
      <trkpt lat="44.32356" lon="5.19667">
        <ele>568.4</ele>
        <time>2022-07-18T07:02:33Z</time>
      </trkpt>
      <trkpt lat="44.32357" lon="5.19667">
        <ele>568.5</ele>
        <time>2022-07-18T07:02:34Z</time>
      </trkpt>
      <trkpt lat="44.32358" lon="5.19667">
        <ele>568.6</ele>
        <time>2022-07-18T07:02:35Z</time>
      </trkpt>
      <trkpt lat="44.32359" lon="5.19666">
        <ele>568.7</ele>
        <time>2022-07-18T07:02:36Z</time>
      </trkpt>
      <trkpt lat="44.3236" lon="5.19666">
        <ele>568.9</ele>
        <time>2022-07-18T07:02:37Z</time>
      </trkpt>
      <trkpt lat="44.32361" lon="5.19665">
        <ele>569</ele>
        <time>2022-07-18T07:02:38Z</time>
      </trkpt>
      <trkpt lat="44.32363" lon="5.19665">
        <ele>569.2</ele>
        <time>2022-07-18T07:02:39Z</time>
      </trkpt>
      <trkpt lat="44.32364" lon="5.19665">
        <ele>569.3</ele>
        <time>2022-07-18T07:02:40Z</time>
      </trkpt>
      <trkpt lat="44.32365" lon="5.19664">
        <ele>569.4</ele>
        <time>2022-07-18T07:02:41Z</time>
      </trkpt>
      <trkpt lat="44.32366" lon="5.19664">
        <ele>569.6</ele>
        <time>2022-07-18T07:02:42Z</time>
      </trkpt>
      <trkpt lat="44.32367" lon="5.19664">
        <ele>569.7</ele>
        <time>2022-07-18T07:02:43Z</time>
      </trkpt>
      <trkpt lat="44.32369" lon="5.19664">
        <ele>569.8</ele>
        <time>2022-07-18T07:02:44Z</time>
      </trkpt>
      <trkpt lat="44.3237" lon="5.19664">
        <ele>569.9</ele>
        <time>2022-07-18T07:02:45Z</time>
      </trkpt>
      <trkpt lat="44.32371" lon="5.19665">
        <ele>570</ele>
        <time>2022-07-18T07:02:46Z</time>
      </trkpt>
      <trkpt lat="44.32372" lon="5.19665">
        <ele>570.2</ele>
        <time>2022-07-18T07:02:47Z</time>
      </trkpt>
      <trkpt lat="44.32373" lon="5.19666">
        <ele>570.3</ele>
        <time>2022-07-18T07:02:48Z</time>
      </trkpt>
      <trkpt lat="44.32374" lon="5.19666">
        <ele>570.5</ele>
        <time>2022-07-18T07:02:49Z</time>
      </trkpt>
      <trkpt lat="44.32375" lon="5.19667">
        <ele>570.6</ele>
        <time>2022-07-18T07:02:50Z</time>
      </trkpt>
      <trkpt lat="44.32376" lon="5.19667">
        <ele>570.7</ele>
        <time>2022-07-18T07:02:51Z</time>
      </trkpt>
      <trkpt lat="44.32377" lon="5.19667">
        <ele>570.8</ele>
        <time>2022-07-18T07:02:52Z</time>
      </trkpt>
      <trkpt lat="44.32379" lon="5.19667">
        <ele>571</ele>
        <time>2022-07-18T07:02:53Z</time>
      </trkpt>
      <trkpt lat="44.3238" lon="5.19666">
        <ele>571.1</ele>
        <time>2022-07-18T07:02:54Z</time>
      </trkpt>
      <trkpt lat="44.32382" lon="5.19666">
        <ele>571.3</ele>
        <time>2022-07-18T07:02:55Z</time>
      </trkpt>
      <trkpt lat="44.32384" lon="5.19666">
        <ele>571.5</ele>
        <time>2022-07-18T07:02:56Z</time>
      </trkpt>
      <trkpt lat="44.32385" lon="5.19666">
        <ele>571.6</ele>
        <time>2022-07-18T07:02:57Z</time>
      </trkpt>
      <trkpt lat="44.32385" lon="5.19666">
        <ele>571.7</ele>
        <time>2022-07-18T07:02:58Z</time>
      </trkpt>
      <trkpt lat="44.32387" lon="5.19667">
        <ele>571.9</ele>
        <time>2022-07-18T07:02:59Z</time>
      </trkpt>
      <trkpt lat="44.32389" lon="5.19667">
        <ele>572</ele>
        <time>2022-07-18T07:03:00Z</time>
      </trkpt>
      <trkpt lat="44.3239" lon="5.19668">
        <ele>572.2</ele>
        <time>2022-07-18T07:03:01Z</time>
      </trkpt>
      <trkpt lat="44.32392" lon="5.19668">
        <ele>572.4</ele>
        <time>2022-07-18T07:03:02Z</time>
      </trkpt>
      <trkpt lat="44.32393" lon="5.19668">
        <ele>572.5</ele>
        <time>2022-07-18T07:03:03Z</time>
      </trkpt>
      <trkpt lat="44.32395" lon="5.19669">
        <ele>572.7</ele>
        <time>2022-07-18T07:03:04Z</time>
      </trkpt>
      <trkpt lat="44.32397" lon="5.19669">
        <ele>572.9</ele>
        <time>2022-07-18T07:03:05Z</time>
      </trkpt>
      <trkpt lat="44.32397" lon="5.19669">
        <ele>573</ele>
        <time>2022-07-18T07:03:06Z</time>
      </trkpt>
      <trkpt lat="44.32398" lon="5.19669">
        <ele>573.1</ele>
        <time>2022-07-18T07:03:07Z</time>
      </trkpt>
      <trkpt lat="44.324" lon="5.19668">
        <ele>573.3</ele>
        <time>2022-07-18T07:03:08Z</time>
      </trkpt>
      <trkpt lat="44.32401" lon="5.19667">
        <ele>573.4</ele>
        <time>2022-07-18T07:03:09Z</time>
      </trkpt>
      <trkpt lat="44.32402" lon="5.19667">
        <ele>573.6</ele>
        <time>2022-07-18T07:03:10Z</time>
      </trkpt>
      <trkpt lat="44.32405" lon="5.19665">
        <ele>573.9</ele>
        <time>2022-07-18T07:03:11Z</time>
      </trkpt>
      <trkpt lat="44.32406" lon="5.19665">
        <ele>574</ele>
        <time>2022-07-18T07:03:12Z</time>
      </trkpt>
      <trkpt lat="44.32407" lon="5.19664">
        <ele>574.2</ele>
        <time>2022-07-18T07:03:13Z</time>
      </trkpt>
      <trkpt lat="44.32408" lon="5.19664">
        <ele>574.3</ele>
        <time>2022-07-18T07:03:14Z</time>
      </trkpt>
      <trkpt lat="44.32409" lon="5.19664">
        <ele>574.3</ele>
        <time>2022-07-18T07:03:15Z</time>
      </trkpt>
      <trkpt lat="44.3241" lon="5.19664">
        <ele>574.4</ele>
        <time>2022-07-18T07:03:16Z</time>
      </trkpt>
      <trkpt lat="44.3241" lon="5.19663">
        <ele>574.5</ele>
        <time>2022-07-18T07:03:17Z</time>
      </trkpt>
      <trkpt lat="44.32411" lon="5.19663">
        <ele>574.5</ele>
        <time>2022-07-18T07:03:18Z</time>
      </trkpt>
      <trkpt lat="44.32411" lon="5.19663">
        <ele>574.5</ele>
        <time>2022-07-18T07:03:19Z</time>
      </trkpt>
      <trkpt lat="44.32412" lon="5.19662">
        <ele>574.7</ele>
        <time>2022-07-18T07:03:20Z</time>
      </trkpt>
      <trkpt lat="44.32412" lon="5.19662">
        <ele>574.7</ele>
        <time>2022-07-18T07:03:21Z</time>
      </trkpt>
      <trkpt lat="44.32413" lon="5.19662">
        <ele>574.8</ele>
        <time>2022-07-18T07:03:22Z</time>
      </trkpt>
      <trkpt lat="44.32414" lon="5.19662">
        <ele>574.9</ele>
        <time>2022-07-18T07:03:23Z</time>
      </trkpt>
      <trkpt lat="44.32415" lon="5.19662">
        <ele>575</ele>
        <time>2022-07-18T07:03:24Z</time>
      </trkpt>
      <trkpt lat="44.32416" lon="5.19661">
        <ele>575.1</ele>
        <time>2022-07-18T07:03:25Z</time>
      </trkpt>
      <trkpt lat="44.32418" lon="5.19661">
        <ele>575.3</ele>
        <time>2022-07-18T07:03:26Z</time>
      </trkpt>
      <trkpt lat="44.32419" lon="5.19661">
        <ele>575.5</ele>
        <time>2022-07-18T07:03:27Z</time>
      </trkpt>
      <trkpt lat="44.32421" lon="5.19661">
        <ele>575.7</ele>
        <time>2022-07-18T07:03:28Z</time>
      </trkpt>
      <trkpt lat="44.32422" lon="5.19661">
        <ele>575.8</ele>
        <time>2022-07-18T07:03:29Z</time>
      </trkpt>
      <trkpt lat="44.32424" lon="5.19661">
        <ele>576</ele>
        <time>2022-07-18T07:03:30Z</time>
      </trkpt>
      <trkpt lat="44.32427" lon="5.19661">
        <ele>576.3</ele>
        <time>2022-07-18T07:03:31Z</time>
      </trkpt>
      <trkpt lat="44.32428" lon="5.1966">
        <ele>576.4</ele>
        <time>2022-07-18T07:03:32Z</time>
      </trkpt>
      <trkpt lat="44.32431" lon="5.19659">
        <ele>576.7</ele>
        <time>2022-07-18T07:03:33Z</time>
      </trkpt>
      <trkpt lat="44.32432" lon="5.19659">
        <ele>576.9</ele>
        <time>2022-07-18T07:03:34Z</time>
      </trkpt>
      <trkpt lat="44.32434" lon="5.19659">
        <ele>577.1</ele>
        <time>2022-07-18T07:03:35Z</time>
      </trkpt>
      <trkpt lat="44.32435" lon="5.19658">
        <ele>577.2</ele>
        <time>2022-07-18T07:03:36Z</time>
      </trkpt>
      <trkpt lat="44.32437" lon="5.19658">
        <ele>577.5</ele>
        <time>2022-07-18T07:03:37Z</time>
      </trkpt>
      <trkpt lat="44.32438" lon="5.19658">
        <ele>577.5</ele>
        <time>2022-07-18T07:03:38Z</time>
      </trkpt>
      <trkpt lat="44.32439" lon="5.19658">
        <ele>577.6</ele>
        <time>2022-07-18T07:03:39Z</time>
      </trkpt>
      <trkpt lat="44.3244" lon="5.19657">
        <ele>577.7</ele>
        <time>2022-07-18T07:03:40Z</time>
      </trkpt>
      <trkpt lat="44.32441" lon="5.19658">
        <ele>577.9</ele>
        <time>2022-07-18T07:03:41Z</time>
      </trkpt>
      <trkpt lat="44.32442" lon="5.19658">
        <ele>578</ele>
        <time>2022-07-18T07:03:42Z</time>
      </trkpt>
      <trkpt lat="44.32443" lon="5.19659">
        <ele>578.1</ele>
        <time>2022-07-18T07:03:43Z</time>
      </trkpt>
      <trkpt lat="44.32444" lon="5.1966">
        <ele>578.2</ele>
        <time>2022-07-18T07:03:44Z</time>
      </trkpt>
      <trkpt lat="44.32445" lon="5.19661">
        <ele>578.3</ele>
        <time>2022-07-18T07:03:45Z</time>
      </trkpt>
      <trkpt lat="44.32446" lon="5.19662">
        <ele>578.5</ele>
        <time>2022-07-18T07:03:46Z</time>
      </trkpt>
      <trkpt lat="44.32446" lon="5.19663">
        <ele>578.6</ele>
        <time>2022-07-18T07:03:47Z</time>
      </trkpt>
      <trkpt lat="44.32447" lon="5.19663">
        <ele>578.7</ele>
        <time>2022-07-18T07:03:48Z</time>
      </trkpt>
      <trkpt lat="44.32448" lon="5.19663">
        <ele>578.8</ele>
        <time>2022-07-18T07:03:49Z</time>
      </trkpt>
      <trkpt lat="44.32449" lon="5.19663">
        <ele>578.9</ele>
        <time>2022-07-18T07:03:50Z</time>
      </trkpt>
      <trkpt lat="44.32451" lon="5.19663">
        <ele>579</ele>
        <time>2022-07-18T07:03:51Z</time>
      </trkpt>
      <trkpt lat="44.32452" lon="5.19663">
        <ele>579.1</ele>
        <time>2022-07-18T07:03:52Z</time>
      </trkpt>
      <trkpt lat="44.32453" lon="5.19663">
        <ele>579.3</ele>
        <time>2022-07-18T07:03:53Z</time>
      </trkpt>
      <trkpt lat="44.32454" lon="5.19663">
        <ele>579.4</ele>
        <time>2022-07-18T07:03:54Z</time>
      </trkpt>
      <trkpt lat="44.32455" lon="5.19664">
        <ele>579.5</ele>
        <time>2022-07-18T07:03:55Z</time>
      </trkpt>
      <trkpt lat="44.32457" lon="5.19664">
        <ele>579.7</ele>
        <time>2022-07-18T07:03:56Z</time>
      </trkpt>
      <trkpt lat="44.32458" lon="5.19663">
        <ele>579.8</ele>
        <time>2022-07-18T07:03:57Z</time>
      </trkpt>
      <trkpt lat="44.32459" lon="5.19663">
        <ele>580</ele>
        <time>2022-07-18T07:03:58Z</time>
      </trkpt>
      <trkpt lat="44.32461" lon="5.19662">
        <ele>580.2</ele>
        <time>2022-07-18T07:03:59Z</time>
      </trkpt>
      <trkpt lat="44.32462" lon="5.19661">
        <ele>580.3</ele>
        <time>2022-07-18T07:04:00Z</time>
      </trkpt>
      <trkpt lat="44.32463" lon="5.1966">
        <ele>580.4</ele>
        <time>2022-07-18T07:04:01Z</time>
      </trkpt>
      <trkpt lat="44.32464" lon="5.19658">
        <ele>580.6</ele>
        <time>2022-07-18T07:04:02Z</time>
      </trkpt>
      <trkpt lat="44.32465" lon="5.19656">
        <ele>580.8</ele>
        <time>2022-07-18T07:04:03Z</time>
      </trkpt>
      <trkpt lat="44.32466" lon="5.19653">
        <ele>581.1</ele>
        <time>2022-07-18T07:04:04Z</time>
      </trkpt>
      <trkpt lat="44.32467" lon="5.19652">
        <ele>581.2</ele>
        <time>2022-07-18T07:04:05Z</time>
      </trkpt>
      <trkpt lat="44.32468" lon="5.1965">
        <ele>581.4</ele>
        <time>2022-07-18T07:04:06Z</time>
      </trkpt>
      <trkpt lat="44.32469" lon="5.19649">
        <ele>581.5</ele>
        <time>2022-07-18T07:04:07Z</time>
      </trkpt>
      <trkpt lat="44.3247" lon="5.19648">
        <ele>581.6</ele>
        <time>2022-07-18T07:04:08Z</time>
      </trkpt>
      <trkpt lat="44.32471" lon="5.19647">
        <ele>581.8</ele>
        <time>2022-07-18T07:04:09Z</time>
      </trkpt>
      <trkpt lat="44.32472" lon="5.19646">
        <ele>581.9</ele>
        <time>2022-07-18T07:04:10Z</time>
      </trkpt>
      <trkpt lat="44.32474" lon="5.19646">
        <ele>582.1</ele>
        <time>2022-07-18T07:04:11Z</time>
      </trkpt>
      <trkpt lat="44.32475" lon="5.19645">
        <ele>582.2</ele>
        <time>2022-07-18T07:04:12Z</time>
      </trkpt>
      <trkpt lat="44.32477" lon="5.19644">
        <ele>582.5</ele>
        <time>2022-07-18T07:04:13Z</time>
      </trkpt>
      <trkpt lat="44.32478" lon="5.19644">
        <ele>582.6</ele>
        <time>2022-07-18T07:04:14Z</time>
      </trkpt>
      <trkpt lat="44.32479" lon="5.19645">
        <ele>582.7</ele>
        <time>2022-07-18T07:04:15Z</time>
      </trkpt>
      <trkpt lat="44.32481" lon="5.19646">
        <ele>583</ele>
        <time>2022-07-18T07:04:16Z</time>
      </trkpt>
      <trkpt lat="44.32481" lon="5.19647">
        <ele>583</ele>
        <time>2022-07-18T07:04:17Z</time>
      </trkpt>
      <trkpt lat="44.32482" lon="5.19648">
        <ele>583.1</ele>
        <time>2022-07-18T07:04:18Z</time>
      </trkpt>
      <trkpt lat="44.32482" lon="5.19649">
        <ele>583.3</ele>
        <time>2022-07-18T07:04:19Z</time>
      </trkpt>
      <trkpt lat="44.32483" lon="5.19651">
        <ele>583.4</ele>
        <time>2022-07-18T07:04:20Z</time>
      </trkpt>
      <trkpt lat="44.32483" lon="5.19653">
        <ele>583.5</ele>
        <time>2022-07-18T07:04:21Z</time>
      </trkpt>
      <trkpt lat="44.32483" lon="5.19654">
        <ele>583.6</ele>
        <time>2022-07-18T07:04:22Z</time>
      </trkpt>
      <trkpt lat="44.32483" lon="5.19656">
        <ele>583.8</ele>
        <time>2022-07-18T07:04:23Z</time>
      </trkpt>
      <trkpt lat="44.32482" lon="5.19657">
        <ele>583.9</ele>
        <time>2022-07-18T07:04:24Z</time>
      </trkpt>
      <trkpt lat="44.32482" lon="5.19659">
        <ele>584</ele>
        <time>2022-07-18T07:04:25Z</time>
      </trkpt>
      <trkpt lat="44.32481" lon="5.19661">
        <ele>584.2</ele>
        <time>2022-07-18T07:04:26Z</time>
      </trkpt>
      <trkpt lat="44.32481" lon="5.19663">
        <ele>584.4</ele>
        <time>2022-07-18T07:04:27Z</time>
      </trkpt>
      <trkpt lat="44.32481" lon="5.19665">
        <ele>584.5</ele>
        <time>2022-07-18T07:04:28Z</time>
      </trkpt>
      <trkpt lat="44.32481" lon="5.19667">
        <ele>584.7</ele>
        <time>2022-07-18T07:04:29Z</time>
      </trkpt>
      <trkpt lat="44.32481" lon="5.19669">
        <ele>584.8</ele>
        <time>2022-07-18T07:04:30Z</time>
      </trkpt>
      <trkpt lat="44.32481" lon="5.1967">
        <ele>584.9</ele>
        <time>2022-07-18T07:04:31Z</time>
      </trkpt>
      <trkpt lat="44.32481" lon="5.19671">
        <ele>585</ele>
        <time>2022-07-18T07:04:32Z</time>
      </trkpt>
      <trkpt lat="44.32481" lon="5.19672">
        <ele>585.1</ele>
        <time>2022-07-18T07:04:33Z</time>
      </trkpt>
      <trkpt lat="44.32481" lon="5.19673">
        <ele>585.2</ele>
        <time>2022-07-18T07:04:34Z</time>
      </trkpt>
      <trkpt lat="44.32481" lon="5.19674">
        <ele>585.2</ele>
        <time>2022-07-18T07:04:35Z</time>
      </trkpt>
      <trkpt lat="44.32481" lon="5.19675">
        <ele>585.3</ele>
        <time>2022-07-18T07:04:36Z</time>
      </trkpt>
      <trkpt lat="44.32481" lon="5.19676">
        <ele>585.4</ele>
        <time>2022-07-18T07:04:37Z</time>
      </trkpt>
      <trkpt lat="44.3248" lon="5.19677">
        <ele>585.5</ele>
        <time>2022-07-18T07:04:38Z</time>
      </trkpt>
      <trkpt lat="44.32479" lon="5.19677">
        <ele>585.7</ele>
        <time>2022-07-18T07:04:39Z</time>
      </trkpt>
      <trkpt lat="44.32478" lon="5.19677">
        <ele>585.8</ele>
        <time>2022-07-18T07:04:40Z</time>
      </trkpt>
      <trkpt lat="44.32477" lon="5.19676">
        <ele>585.9</ele>
        <time>2022-07-18T07:04:41Z</time>
      </trkpt>
      <trkpt lat="44.32476" lon="5.19674">
        <ele>586.1</ele>
        <time>2022-07-18T07:04:42Z</time>
      </trkpt>
      <trkpt lat="44.32475" lon="5.19673">
        <ele>586.2</ele>
        <time>2022-07-18T07:04:43Z</time>
      </trkpt>
      <trkpt lat="44.32474" lon="5.19673">
        <ele>586.3</ele>
        <time>2022-07-18T07:04:44Z</time>
      </trkpt>
      <trkpt lat="44.32473" lon="5.19673">
        <ele>586.4</ele>
        <time>2022-07-18T07:04:45Z</time>
      </trkpt>
      <trkpt lat="44.32472" lon="5.19673">
        <ele>586.5</ele>
        <time>2022-07-18T07:04:46Z</time>
      </trkpt>
      <trkpt lat="44.32471" lon="5.19672">
        <ele>586.6</ele>
        <time>2022-07-18T07:04:47Z</time>
      </trkpt>
      <trkpt lat="44.3247" lon="5.19671">
        <ele>586.8</ele>
        <time>2022-07-18T07:04:48Z</time>
      </trkpt>
      <trkpt lat="44.3247" lon="5.1967">
        <ele>586.9</ele>
        <time>2022-07-18T07:04:49Z</time>
      </trkpt>
      <trkpt lat="44.32469" lon="5.1967">
        <ele>586.9</ele>
        <time>2022-07-18T07:04:50Z</time>
      </trkpt>
      <trkpt lat="44.32468" lon="5.1967">
        <ele>587</ele>
        <time>2022-07-18T07:04:51Z</time>
      </trkpt>
      <trkpt lat="44.32467" lon="5.1967">
        <ele>587.2</ele>
        <time>2022-07-18T07:04:52Z</time>
      </trkpt>
      <trkpt lat="44.32466" lon="5.1967">
        <ele>587.2</ele>
        <time>2022-07-18T07:04:53Z</time>
      </trkpt>
      <trkpt lat="44.32466" lon="5.1967">
        <ele>587.3</ele>
        <time>2022-07-18T07:04:54Z</time>
      </trkpt>
      <trkpt lat="44.32465" lon="5.19671">
        <ele>587.4</ele>
        <time>2022-07-18T07:04:55Z</time>
      </trkpt>
      <trkpt lat="44.32464" lon="5.19671">
        <ele>587.5</ele>
        <time>2022-07-18T07:04:56Z</time>
      </trkpt>
      <trkpt lat="44.32463" lon="5.19671">
        <ele>587.7</ele>
        <time>2022-07-18T07:04:57Z</time>
      </trkpt>
      <trkpt lat="44.32461" lon="5.19671">
        <ele>587.8</ele>
        <time>2022-07-18T07:04:58Z</time>
      </trkpt>
      <trkpt lat="44.32459" lon="5.19671">
        <ele>588</ele>
        <time>2022-07-18T07:04:59Z</time>
      </trkpt>
      <trkpt lat="44.32458" lon="5.19671">
        <ele>588.2</ele>
        <time>2022-07-18T07:05:00Z</time>
      </trkpt>
      <trkpt lat="44.32456" lon="5.19671">
        <ele>588.3</ele>
        <time>2022-07-18T07:05:01Z</time>
      </trkpt>
      <trkpt lat="44.32455" lon="5.19671">
        <ele>588.4</ele>
        <time>2022-07-18T07:05:02Z</time>
      </trkpt>
      <trkpt lat="44.32454" lon="5.19671">
        <ele>588.6</ele>
        <time>2022-07-18T07:05:03Z</time>
      </trkpt>
      <trkpt lat="44.32452" lon="5.19671">
        <ele>588.8</ele>
        <time>2022-07-18T07:05:04Z</time>
      </trkpt>
      <trkpt lat="44.32451" lon="5.19671">
        <ele>588.9</ele>
        <time>2022-07-18T07:05:05Z</time>
      </trkpt>
      <trkpt lat="44.32449" lon="5.19671">
        <ele>589.1</ele>
        <time>2022-07-18T07:05:06Z</time>
      </trkpt>
      <trkpt lat="44.32447" lon="5.19671">
        <ele>589.3</ele>
        <time>2022-07-18T07:05:07Z</time>
      </trkpt>
      <trkpt lat="44.32445" lon="5.19671">
        <ele>589.5</ele>
        <time>2022-07-18T07:05:08Z</time>
      </trkpt>
      <trkpt lat="44.32444" lon="5.19671">
        <ele>589.6</ele>
        <time>2022-07-18T07:05:09Z</time>
      </trkpt>
      <trkpt lat="44.32442" lon="5.19671">
        <ele>589.9</ele>
        <time>2022-07-18T07:05:10Z</time>
      </trkpt>
      <trkpt lat="44.32441" lon="5.19671">
        <ele>590</ele>
        <time>2022-07-18T07:05:11Z</time>
      </trkpt>
      <trkpt lat="44.3244" lon="5.1967">
        <ele>590.1</ele>
        <time>2022-07-18T07:05:12Z</time>
      </trkpt>
      <trkpt lat="44.32439" lon="5.19671">
        <ele>590.3</ele>
        <time>2022-07-18T07:05:13Z</time>
      </trkpt>
      <trkpt lat="44.32437" lon="5.19671">
        <ele>590.4</ele>
        <time>2022-07-18T07:05:14Z</time>
      </trkpt>
      <trkpt lat="44.32435" lon="5.19672">
        <ele>590.7</ele>
        <time>2022-07-18T07:05:15Z</time>
      </trkpt>
      <trkpt lat="44.32434" lon="5.19672">
        <ele>590.7</ele>
        <time>2022-07-18T07:05:16Z</time>
      </trkpt>
      <trkpt lat="44.32434" lon="5.19673">
        <ele>590.8</ele>
        <time>2022-07-18T07:05:17Z</time>
      </trkpt>
      <trkpt lat="44.32433" lon="5.19674">
        <ele>590.9</ele>
        <time>2022-07-18T07:05:18Z</time>
      </trkpt>
      <trkpt lat="44.32432" lon="5.19675">
        <ele>591</ele>
        <time>2022-07-18T07:05:19Z</time>
      </trkpt>
      <trkpt lat="44.32432" lon="5.19676">
        <ele>591.1</ele>
        <time>2022-07-18T07:05:20Z</time>
      </trkpt>
      <trkpt lat="44.32431" lon="5.19677">
        <ele>591.2</ele>
        <time>2022-07-18T07:05:21Z</time>
      </trkpt>
      <trkpt lat="44.32431" lon="5.19678">
        <ele>591.3</ele>
        <time>2022-07-18T07:05:22Z</time>
      </trkpt>
      <trkpt lat="44.32431" lon="5.19679">
        <ele>591.4</ele>
        <time>2022-07-18T07:05:23Z</time>
      </trkpt>
      <trkpt lat="44.32431" lon="5.1968">
        <ele>591.4</ele>
        <time>2022-07-18T07:05:24Z</time>
      </trkpt>
      <trkpt lat="44.32431" lon="5.19682">
        <ele>591.6</ele>
        <time>2022-07-18T07:05:25Z</time>
      </trkpt>
      <trkpt lat="44.32431" lon="5.19683">
        <ele>591.7</ele>
        <time>2022-07-18T07:05:26Z</time>
      </trkpt>
      <trkpt lat="44.3243" lon="5.19685">
        <ele>591.9</ele>
        <time>2022-07-18T07:05:27Z</time>
      </trkpt>
      <trkpt lat="44.3243" lon="5.19687">
        <ele>592</ele>
        <time>2022-07-18T07:05:28Z</time>
      </trkpt>
      <trkpt lat="44.32429" lon="5.19689">
        <ele>592.2</ele>
        <time>2022-07-18T07:05:29Z</time>
      </trkpt>
      <trkpt lat="44.32428" lon="5.19692">
        <ele>592.4</ele>
        <time>2022-07-18T07:05:30Z</time>
      </trkpt>
      <trkpt lat="44.32428" lon="5.19693">
        <ele>592.5</ele>
        <time>2022-07-18T07:05:31Z</time>
      </trkpt>
      <trkpt lat="44.32427" lon="5.19694">
        <ele>592.6</ele>
        <time>2022-07-18T07:05:32Z</time>
      </trkpt>
      <trkpt lat="44.32426" lon="5.19696">
        <ele>592.8</ele>
        <time>2022-07-18T07:05:33Z</time>
      </trkpt>
      <trkpt lat="44.32425" lon="5.19697">
        <ele>592.9</ele>
        <time>2022-07-18T07:05:34Z</time>
      </trkpt>
      <trkpt lat="44.32425" lon="5.19697">
        <ele>593</ele>
        <time>2022-07-18T07:05:35Z</time>
      </trkpt>
      <trkpt lat="44.32424" lon="5.19698">
        <ele>593.1</ele>
        <time>2022-07-18T07:05:36Z</time>
      </trkpt>
      <trkpt lat="44.32423" lon="5.19699">
        <ele>593.2</ele>
        <time>2022-07-18T07:05:37Z</time>
      </trkpt>
      <trkpt lat="44.32422" lon="5.197">
        <ele>593.3</ele>
        <time>2022-07-18T07:05:38Z</time>
      </trkpt>
      <trkpt lat="44.3242" lon="5.19702">
        <ele>593.6</ele>
        <time>2022-07-18T07:05:39Z</time>
      </trkpt>
      <trkpt lat="44.3242" lon="5.19703">
        <ele>593.6</ele>
        <time>2022-07-18T07:05:40Z</time>
      </trkpt>
      <trkpt lat="44.32419" lon="5.19703">
        <ele>593.7</ele>
        <time>2022-07-18T07:05:41Z</time>
      </trkpt>
      <trkpt lat="44.32418" lon="5.19704">
        <ele>593.8</ele>
        <time>2022-07-18T07:05:42Z</time>
      </trkpt>
      <trkpt lat="44.32418" lon="5.19704">
        <ele>593.9</ele>
        <time>2022-07-18T07:05:43Z</time>
      </trkpt>
      <trkpt lat="44.32417" lon="5.19705">
        <ele>593.9</ele>
        <time>2022-07-18T07:05:44Z</time>
      </trkpt>
      <trkpt lat="44.32417" lon="5.19705">
        <ele>594</ele>
        <time>2022-07-18T07:05:45Z</time>
      </trkpt>
      <trkpt lat="44.32416" lon="5.19706">
        <ele>594.1</ele>
        <time>2022-07-18T07:05:46Z</time>
      </trkpt>
      <trkpt lat="44.32415" lon="5.19707">
        <ele>594.2</ele>
        <time>2022-07-18T07:05:47Z</time>
      </trkpt>
      <trkpt lat="44.32414" lon="5.19708">
        <ele>594.3</ele>
        <time>2022-07-18T07:05:48Z</time>
      </trkpt>
      <trkpt lat="44.32414" lon="5.19707">
        <ele>594.4</ele>
        <time>2022-07-18T07:05:49Z</time>
      </trkpt>
      <trkpt lat="44.32413" lon="5.19707">
        <ele>594.5</ele>
        <time>2022-07-18T07:05:50Z</time>
      </trkpt>
      <trkpt lat="44.32412" lon="5.19707">
        <ele>594.6</ele>
        <time>2022-07-18T07:05:51Z</time>
      </trkpt>
      <trkpt lat="44.32411" lon="5.19707">
        <ele>594.7</ele>
        <time>2022-07-18T07:05:52Z</time>
      </trkpt>
      <trkpt lat="44.3241" lon="5.19707">
        <ele>594.8</ele>
        <time>2022-07-18T07:05:53Z</time>
      </trkpt>
      <trkpt lat="44.32409" lon="5.19708">
        <ele>594.9</ele>
        <time>2022-07-18T07:05:54Z</time>
      </trkpt>
      <trkpt lat="44.32409" lon="5.19708">
        <ele>595</ele>
        <time>2022-07-18T07:05:55Z</time>
      </trkpt>
      <trkpt lat="44.32407" lon="5.19709">
        <ele>595.1</ele>
        <time>2022-07-18T07:05:56Z</time>
      </trkpt>
      <trkpt lat="44.32406" lon="5.19711">
        <ele>595.3</ele>
        <time>2022-07-18T07:05:57Z</time>
      </trkpt>
      <trkpt lat="44.32405" lon="5.19712">
        <ele>595.5</ele>
        <time>2022-07-18T07:05:58Z</time>
      </trkpt>
      <trkpt lat="44.32404" lon="5.19713">
        <ele>595.6</ele>
        <time>2022-07-18T07:05:59Z</time>
      </trkpt>
      <trkpt lat="44.32403" lon="5.19714">
        <ele>595.8</ele>
        <time>2022-07-18T07:06:00Z</time>
      </trkpt>
      <trkpt lat="44.32402" lon="5.19715">
        <ele>595.9</ele>
        <time>2022-07-18T07:06:01Z</time>
      </trkpt>
      <trkpt lat="44.324" lon="5.19718">
        <ele>596.1</ele>
        <time>2022-07-18T07:06:02Z</time>
      </trkpt>
      <trkpt lat="44.32399" lon="5.19721">
        <ele>597.2</ele>
        <time>2022-07-18T07:06:03Z</time>
      </trkpt>
      <trkpt lat="44.32398" lon="5.19722">
        <ele>597.2</ele>
        <time>2022-07-18T07:06:04Z</time>
      </trkpt>
      <trkpt lat="44.32397" lon="5.19724">
        <ele>599</ele>
        <time>2022-07-18T07:06:05Z</time>
      </trkpt>
      <trkpt lat="44.32397" lon="5.19726">
        <ele>598.2</ele>
        <time>2022-07-18T07:06:06Z</time>
      </trkpt>
      <trkpt lat="44.32397" lon="5.19728">
        <ele>600</ele>
        <time>2022-07-18T07:06:07Z</time>
      </trkpt>
      <trkpt lat="44.32397" lon="5.1973">
        <ele>600.7</ele>
        <time>2022-07-18T07:06:08Z</time>
      </trkpt>
      <trkpt lat="44.32398" lon="5.19732">
        <ele>602.4</ele>
        <time>2022-07-18T07:06:09Z</time>
      </trkpt>
      <trkpt lat="44.32398" lon="5.19733">
        <ele>602.4</ele>
        <time>2022-07-18T07:06:10Z</time>
      </trkpt>
      <trkpt lat="44.32399" lon="5.19734">
        <ele>602.3</ele>
        <time>2022-07-18T07:06:11Z</time>
      </trkpt>
      <trkpt lat="44.324" lon="5.19734">
        <ele>602.3</ele>
        <time>2022-07-18T07:06:12Z</time>
      </trkpt>
      <trkpt lat="44.32401" lon="5.19735">
        <ele>603</ele>
        <time>2022-07-18T07:06:13Z</time>
      </trkpt>
      <trkpt lat="44.32402" lon="5.19735">
        <ele>603</ele>
        <time>2022-07-18T07:06:14Z</time>
      </trkpt>
      <trkpt lat="44.32403" lon="5.19735">
        <ele>604.6</ele>
        <time>2022-07-18T07:06:15Z</time>
      </trkpt>
      <trkpt lat="44.32403" lon="5.19735">
        <ele>604.6</ele>
        <time>2022-07-18T07:06:16Z</time>
      </trkpt>
      <trkpt lat="44.32404" lon="5.19736">
        <ele>605.3</ele>
        <time>2022-07-18T07:06:17Z</time>
      </trkpt>
      <trkpt lat="44.32405" lon="5.19736">
        <ele>605.3</ele>
        <time>2022-07-18T07:06:18Z</time>
      </trkpt>
      <trkpt lat="44.32405" lon="5.19737">
        <ele>605.3</ele>
        <time>2022-07-18T07:06:19Z</time>
      </trkpt>
      <trkpt lat="44.32406" lon="5.19738">
        <ele>605.3</ele>
        <time>2022-07-18T07:06:20Z</time>
      </trkpt>
      <trkpt lat="44.32407" lon="5.19738">
        <ele>606</ele>
        <time>2022-07-18T07:06:21Z</time>
      </trkpt>
      <trkpt lat="44.32407" lon="5.19738">
        <ele>606</ele>
        <time>2022-07-18T07:06:22Z</time>
      </trkpt>
      <trkpt lat="44.32408" lon="5.19738">
        <ele>606</ele>
        <time>2022-07-18T07:06:23Z</time>
      </trkpt>
      <trkpt lat="44.32408" lon="5.19738">
        <ele>606</ele>
        <time>2022-07-18T07:06:24Z</time>
      </trkpt>
      <trkpt lat="44.32409" lon="5.19738">
        <ele>605.9</ele>
        <time>2022-07-18T07:06:25Z</time>
      </trkpt>
      <trkpt lat="44.3241" lon="5.19738">
        <ele>606.7</ele>
        <time>2022-07-18T07:06:26Z</time>
      </trkpt>
      <trkpt lat="44.32411" lon="5.19738">
        <ele>606.7</ele>
        <time>2022-07-18T07:06:27Z</time>
      </trkpt>
      <trkpt lat="44.32412" lon="5.19739">
        <ele>606.7</ele>
        <time>2022-07-18T07:06:28Z</time>
      </trkpt>
      <trkpt lat="44.32413" lon="5.19739">
        <ele>607.4</ele>
        <time>2022-07-18T07:06:29Z</time>
      </trkpt>
      <trkpt lat="44.32414" lon="5.19739">
        <ele>607.4</ele>
        <time>2022-07-18T07:06:30Z</time>
      </trkpt>
      <trkpt lat="44.32416" lon="5.19739">
        <ele>607.4</ele>
        <time>2022-07-18T07:06:31Z</time>
      </trkpt>
      <trkpt lat="44.32417" lon="5.19738">
        <ele>608.2</ele>
        <time>2022-07-18T07:06:32Z</time>
      </trkpt>
      <trkpt lat="44.32418" lon="5.19738">
        <ele>608.2</ele>
        <time>2022-07-18T07:06:33Z</time>
      </trkpt>
      <trkpt lat="44.32419" lon="5.19738">
        <ele>609</ele>
        <time>2022-07-18T07:06:34Z</time>
      </trkpt>
      <trkpt lat="44.3242" lon="5.19738">
        <ele>608.9</ele>
        <time>2022-07-18T07:06:35Z</time>
      </trkpt>
      <trkpt lat="44.3242" lon="5.19738">
        <ele>608.9</ele>
        <time>2022-07-18T07:06:36Z</time>
      </trkpt>
      <trkpt lat="44.32421" lon="5.19738">
        <ele>608.9</ele>
        <time>2022-07-18T07:06:37Z</time>
      </trkpt>
      <trkpt lat="44.32422" lon="5.19738">
        <ele>609.7</ele>
        <time>2022-07-18T07:06:38Z</time>
      </trkpt>
      <trkpt lat="44.32423" lon="5.19738">
        <ele>609.7</ele>
        <time>2022-07-18T07:06:39Z</time>
      </trkpt>
      <trkpt lat="44.32423" lon="5.19738">
        <ele>609.7</ele>
        <time>2022-07-18T07:06:40Z</time>
      </trkpt>
      <trkpt lat="44.32423" lon="5.19738">
        <ele>609.7</ele>
        <time>2022-07-18T07:06:41Z</time>
      </trkpt>
      <trkpt lat="44.32424" lon="5.19738">
        <ele>609.7</ele>
        <time>2022-07-18T07:06:42Z</time>
      </trkpt>
      <trkpt lat="44.32425" lon="5.19738">
        <ele>609.7</ele>
        <time>2022-07-18T07:06:43Z</time>
      </trkpt>
      <trkpt lat="44.32426" lon="5.19738">
        <ele>610.4</ele>
        <time>2022-07-18T07:06:44Z</time>
      </trkpt>
      <trkpt lat="44.32427" lon="5.19737">
        <ele>610.4</ele>
        <time>2022-07-18T07:06:45Z</time>
      </trkpt>
      <trkpt lat="44.32428" lon="5.19737">
        <ele>610.4</ele>
        <time>2022-07-18T07:06:46Z</time>
      </trkpt>
      <trkpt lat="44.32429" lon="5.19737">
        <ele>611.1</ele>
        <time>2022-07-18T07:06:47Z</time>
      </trkpt>
      <trkpt lat="44.3243" lon="5.19737">
        <ele>611.1</ele>
        <time>2022-07-18T07:06:48Z</time>
      </trkpt>
      <trkpt lat="44.32431" lon="5.19737">
        <ele>611.1</ele>
        <time>2022-07-18T07:06:49Z</time>
      </trkpt>
      <trkpt lat="44.32432" lon="5.19737">
        <ele>611.7</ele>
        <time>2022-07-18T07:06:50Z</time>
      </trkpt>
      <trkpt lat="44.32434" lon="5.19738">
        <ele>611.7</ele>
        <time>2022-07-18T07:06:51Z</time>
      </trkpt>
      <trkpt lat="44.32435" lon="5.19738">
        <ele>612.4</ele>
        <time>2022-07-18T07:06:52Z</time>
      </trkpt>
      <trkpt lat="44.32437" lon="5.19737">
        <ele>612.4</ele>
        <time>2022-07-18T07:06:53Z</time>
      </trkpt>
      <trkpt lat="44.32438" lon="5.19737">
        <ele>613</ele>
        <time>2022-07-18T07:06:54Z</time>
      </trkpt>
      <trkpt lat="44.32439" lon="5.19737">
        <ele>613</ele>
        <time>2022-07-18T07:06:55Z</time>
      </trkpt>
      <trkpt lat="44.3244" lon="5.19737">
        <ele>613</ele>
        <time>2022-07-18T07:06:56Z</time>
      </trkpt>
      <trkpt lat="44.32441" lon="5.19737">
        <ele>613.7</ele>
        <time>2022-07-18T07:06:57Z</time>
      </trkpt>
      <trkpt lat="44.32443" lon="5.19737">
        <ele>613.7</ele>
        <time>2022-07-18T07:06:58Z</time>
      </trkpt>
      <trkpt lat="44.32444" lon="5.19737">
        <ele>614.5</ele>
        <time>2022-07-18T07:06:59Z</time>
      </trkpt>
      <trkpt lat="44.32445" lon="5.19737">
        <ele>614.5</ele>
        <time>2022-07-18T07:07:00Z</time>
      </trkpt>
      <trkpt lat="44.32446" lon="5.19738">
        <ele>614.5</ele>
        <time>2022-07-18T07:07:01Z</time>
      </trkpt>
      <trkpt lat="44.32447" lon="5.19738">
        <ele>615.2</ele>
        <time>2022-07-18T07:07:02Z</time>
      </trkpt>
      <trkpt lat="44.32447" lon="5.19738">
        <ele>615.2</ele>
        <time>2022-07-18T07:07:03Z</time>
      </trkpt>
      <trkpt lat="44.32448" lon="5.19737">
        <ele>615.2</ele>
        <time>2022-07-18T07:07:04Z</time>
      </trkpt>
      <trkpt lat="44.32449" lon="5.19737">
        <ele>615.9</ele>
        <time>2022-07-18T07:07:05Z</time>
      </trkpt>
      <trkpt lat="44.3245" lon="5.19737">
        <ele>615.9</ele>
        <time>2022-07-18T07:07:06Z</time>
      </trkpt>
      <trkpt lat="44.32452" lon="5.19738">
        <ele>615.8</ele>
        <time>2022-07-18T07:07:07Z</time>
      </trkpt>
      <trkpt lat="44.32453" lon="5.19738">
        <ele>616.4</ele>
        <time>2022-07-18T07:07:08Z</time>
      </trkpt>
      <trkpt lat="44.32454" lon="5.19739">
        <ele>616.4</ele>
        <time>2022-07-18T07:07:09Z</time>
      </trkpt>
      <trkpt lat="44.32455" lon="5.19739">
        <ele>616.4</ele>
        <time>2022-07-18T07:07:10Z</time>
      </trkpt>
      <trkpt lat="44.32456" lon="5.19739">
        <ele>617</ele>
        <time>2022-07-18T07:07:11Z</time>
      </trkpt>
      <trkpt lat="44.32457" lon="5.19739">
        <ele>617</ele>
        <time>2022-07-18T07:07:12Z</time>
      </trkpt>
      <trkpt lat="44.32458" lon="5.19738">
        <ele>616.9</ele>
        <time>2022-07-18T07:07:13Z</time>
      </trkpt>
      <trkpt lat="44.32459" lon="5.19738">
        <ele>617.4</ele>
        <time>2022-07-18T07:07:14Z</time>
      </trkpt>
      <trkpt lat="44.32461" lon="5.19738">
        <ele>617.4</ele>
        <time>2022-07-18T07:07:15Z</time>
      </trkpt>
      <trkpt lat="44.32462" lon="5.19738">
        <ele>617.9</ele>
        <time>2022-07-18T07:07:16Z</time>
      </trkpt>
      <trkpt lat="44.32463" lon="5.19738">
        <ele>617.9</ele>
        <time>2022-07-18T07:07:17Z</time>
      </trkpt>
      <trkpt lat="44.32464" lon="5.19738">
        <ele>617.9</ele>
        <time>2022-07-18T07:07:18Z</time>
      </trkpt>
      <trkpt lat="44.32465" lon="5.19738">
        <ele>618.5</ele>
        <time>2022-07-18T07:07:19Z</time>
      </trkpt>
      <trkpt lat="44.32467" lon="5.19737">
        <ele>618.4</ele>
        <time>2022-07-18T07:07:20Z</time>
      </trkpt>
      <trkpt lat="44.32468" lon="5.19737">
        <ele>619</ele>
        <time>2022-07-18T07:07:21Z</time>
      </trkpt>
      <trkpt lat="44.32469" lon="5.19737">
        <ele>619</ele>
        <time>2022-07-18T07:07:22Z</time>
      </trkpt>
      <trkpt lat="44.3247" lon="5.19736">
        <ele>619</ele>
        <time>2022-07-18T07:07:23Z</time>
      </trkpt>
      <trkpt lat="44.32471" lon="5.19736">
        <ele>619</ele>
        <time>2022-07-18T07:07:24Z</time>
      </trkpt>
      <trkpt lat="44.32472" lon="5.19737">
        <ele>619.5</ele>
        <time>2022-07-18T07:07:25Z</time>
      </trkpt>
      <trkpt lat="44.32473" lon="5.19737">
        <ele>619.5</ele>
        <time>2022-07-18T07:07:26Z</time>
      </trkpt>
      <trkpt lat="44.32474" lon="5.19737">
        <ele>620.1</ele>
        <time>2022-07-18T07:07:27Z</time>
      </trkpt>
      <trkpt lat="44.32475" lon="5.19737">
        <ele>620.1</ele>
        <time>2022-07-18T07:07:28Z</time>
      </trkpt>
      <trkpt lat="44.32476" lon="5.19737">
        <ele>620.1</ele>
        <time>2022-07-18T07:07:29Z</time>
      </trkpt>
      <trkpt lat="44.32478" lon="5.19738">
        <ele>620.6</ele>
        <time>2022-07-18T07:07:30Z</time>
      </trkpt>
      <trkpt lat="44.32478" lon="5.19738">
        <ele>620.5</ele>
        <time>2022-07-18T07:07:31Z</time>
      </trkpt>
      <trkpt lat="44.32479" lon="5.19738">
        <ele>620.5</ele>
        <time>2022-07-18T07:07:32Z</time>
      </trkpt>
      <trkpt lat="44.3248" lon="5.19738">
        <ele>620.5</ele>
        <time>2022-07-18T07:07:33Z</time>
      </trkpt>
      <trkpt lat="44.32481" lon="5.19738">
        <ele>621</ele>
        <time>2022-07-18T07:07:34Z</time>
      </trkpt>
      <trkpt lat="44.32482" lon="5.19738">
        <ele>621</ele>
        <time>2022-07-18T07:07:35Z</time>
      </trkpt>
      <trkpt lat="44.32484" lon="5.19739">
        <ele>621.4</ele>
        <time>2022-07-18T07:07:36Z</time>
      </trkpt>
      <trkpt lat="44.32485" lon="5.19739">
        <ele>622.5</ele>
        <time>2022-07-18T07:07:37Z</time>
      </trkpt>
      <trkpt lat="44.32486" lon="5.1974">
        <ele>622.5</ele>
        <time>2022-07-18T07:07:38Z</time>
      </trkpt>
      <trkpt lat="44.32487" lon="5.1974">
        <ele>622.9</ele>
        <time>2022-07-18T07:07:39Z</time>
      </trkpt>
      <trkpt lat="44.32488" lon="5.19741">
        <ele>622.9</ele>
        <time>2022-07-18T07:07:40Z</time>
      </trkpt>
      <trkpt lat="44.32489" lon="5.19742">
        <ele>622.9</ele>
        <time>2022-07-18T07:07:41Z</time>
      </trkpt>
      <trkpt lat="44.32489" lon="5.19743">
        <ele>623.3</ele>
        <time>2022-07-18T07:07:42Z</time>
      </trkpt>
      <trkpt lat="44.3249" lon="5.19744">
        <ele>624.3</ele>
        <time>2022-07-18T07:07:43Z</time>
      </trkpt>
      <trkpt lat="44.32489" lon="5.19746">
        <ele>624.3</ele>
        <time>2022-07-18T07:07:44Z</time>
      </trkpt>
      <trkpt lat="44.32489" lon="5.19747">
        <ele>623.9</ele>
        <time>2022-07-18T07:07:45Z</time>
      </trkpt>
      <trkpt lat="44.32489" lon="5.19747">
        <ele>623.8</ele>
        <time>2022-07-18T07:07:46Z</time>
      </trkpt>
      <trkpt lat="44.32489" lon="5.19747">
        <ele>623.8</ele>
        <time>2022-07-18T07:07:47Z</time>
      </trkpt>
      <trkpt lat="44.3249" lon="5.19746">
        <ele>624.2</ele>
        <time>2022-07-18T07:07:48Z</time>
      </trkpt>
      <trkpt lat="44.3249" lon="5.19746">
        <ele>624.2</ele>
        <time>2022-07-18T07:07:49Z</time>
      </trkpt>
      <trkpt lat="44.3249" lon="5.19746">
        <ele>624.2</ele>
        <time>2022-07-18T07:07:50Z</time>
      </trkpt>
      <trkpt lat="44.3249" lon="5.19746">
        <ele>624.2</ele>
        <time>2022-07-18T07:07:51Z</time>
      </trkpt>
      <trkpt lat="44.3249" lon="5.19746">
        <ele>624.2</ele>
        <time>2022-07-18T07:07:52Z</time>
      </trkpt>
      <trkpt lat="44.3249" lon="5.19746">
        <ele>624.2</ele>
        <time>2022-07-18T07:07:53Z</time>
      </trkpt>
      <trkpt lat="44.3249" lon="5.19746">
        <ele>624.2</ele>
        <time>2022-07-18T07:07:54Z</time>
      </trkpt>
      <trkpt lat="44.3249" lon="5.19746">
        <ele>624.2</ele>
        <time>2022-07-18T07:07:55Z</time>
      </trkpt>
      <trkpt lat="44.32491" lon="5.19732">
        <ele>621.3</ele>
        <time>2022-07-18T07:08:56Z</time>
      </trkpt>
      <trkpt lat="44.32489" lon="5.19731">
        <ele>620.7</ele>
        <time>2022-07-18T07:08:57Z</time>
      </trkpt>
      <trkpt lat="44.32488" lon="5.19731">
        <ele>620.7</ele>
        <time>2022-07-18T07:08:58Z</time>
      </trkpt>
      <trkpt lat="44.32486" lon="5.1973">
        <ele>619.7</ele>
        <time>2022-07-18T07:08:59Z</time>
      </trkpt>
      <trkpt lat="44.32484" lon="5.19729">
        <ele>619.1</ele>
        <time>2022-07-18T07:09:00Z</time>
      </trkpt>
      <trkpt lat="44.32483" lon="5.19729">
        <ele>619.1</ele>
        <time>2022-07-18T07:09:01Z</time>
      </trkpt>
      <trkpt lat="44.32483" lon="5.19729">
        <ele>618.5</ele>
        <time>2022-07-18T07:09:02Z</time>
      </trkpt>
      <trkpt lat="44.32481" lon="5.19728">
        <ele>618.5</ele>
        <time>2022-07-18T07:09:03Z</time>
      </trkpt>
      <trkpt lat="44.3248" lon="5.19727">
        <ele>617.9</ele>
        <time>2022-07-18T07:09:04Z</time>
      </trkpt>
      <trkpt lat="44.32479" lon="5.19727">
        <ele>617.9</ele>
        <time>2022-07-18T07:09:05Z</time>
      </trkpt>
      <trkpt lat="44.32478" lon="5.19727">
        <ele>617.9</ele>
        <time>2022-07-18T07:09:06Z</time>
      </trkpt>
      <trkpt lat="44.32476" lon="5.19727">
        <ele>617.3</ele>
        <time>2022-07-18T07:09:07Z</time>
      </trkpt>
      <trkpt lat="44.32475" lon="5.19728">
        <ele>617.3</ele>
        <time>2022-07-18T07:09:08Z</time>
      </trkpt>
      <trkpt lat="44.32474" lon="5.19728">
        <ele>617.3</ele>
        <time>2022-07-18T07:09:09Z</time>
      </trkpt>
      <trkpt lat="44.32474" lon="5.19729">
        <ele>616.6</ele>
        <time>2022-07-18T07:09:10Z</time>
      </trkpt>
      <trkpt lat="44.32472" lon="5.19729">
        <ele>616.6</ele>
        <time>2022-07-18T07:09:11Z</time>
      </trkpt>
      <trkpt lat="44.32471" lon="5.19729">
        <ele>616.6</ele>
        <time>2022-07-18T07:09:12Z</time>
      </trkpt>
      <trkpt lat="44.32469" lon="5.19729">
        <ele>615.9</ele>
        <time>2022-07-18T07:09:13Z</time>
      </trkpt>
      <trkpt lat="44.32468" lon="5.19728">
        <ele>615.9</ele>
        <time>2022-07-18T07:09:14Z</time>
      </trkpt>
      <trkpt lat="44.32465" lon="5.19727">
        <ele>615.2</ele>
        <time>2022-07-18T07:09:15Z</time>
      </trkpt>
      <trkpt lat="44.32464" lon="5.19727">
        <ele>614.5</ele>
        <time>2022-07-18T07:09:16Z</time>
      </trkpt>
      <trkpt lat="44.32463" lon="5.19728">
        <ele>614.5</ele>
        <time>2022-07-18T07:09:17Z</time>
      </trkpt>
      <trkpt lat="44.32461" lon="5.19729">
        <ele>613.9</ele>
        <time>2022-07-18T07:09:18Z</time>
      </trkpt>
      <trkpt lat="44.3246" lon="5.1973">
        <ele>613.9</ele>
        <time>2022-07-18T07:09:19Z</time>
      </trkpt>
      <trkpt lat="44.32459" lon="5.19731">
        <ele>615.4</ele>
        <time>2022-07-18T07:09:20Z</time>
      </trkpt>
      <trkpt lat="44.32458" lon="5.19732">
        <ele>614.8</ele>
        <time>2022-07-18T07:09:21Z</time>
      </trkpt>
      <trkpt lat="44.32457" lon="5.19733">
        <ele>614.8</ele>
        <time>2022-07-18T07:09:22Z</time>
      </trkpt>
      <trkpt lat="44.32456" lon="5.19734">
        <ele>614.8</ele>
        <time>2022-07-18T07:09:23Z</time>
      </trkpt>
      <trkpt lat="44.32455" lon="5.19735">
        <ele>615.7</ele>
        <time>2022-07-18T07:09:24Z</time>
      </trkpt>
      <trkpt lat="44.32452" lon="5.19737">
        <ele>615.7</ele>
        <time>2022-07-18T07:09:25Z</time>
      </trkpt>
      <trkpt lat="44.32452" lon="5.19737">
        <ele>615.1</ele>
        <time>2022-07-18T07:09:26Z</time>
      </trkpt>
      <trkpt lat="44.32449" lon="5.19739">
        <ele>614.4</ele>
        <time>2022-07-18T07:09:27Z</time>
      </trkpt>
      <trkpt lat="44.32448" lon="5.19739">
        <ele>615.9</ele>
        <time>2022-07-18T07:09:28Z</time>
      </trkpt>
      <trkpt lat="44.32446" lon="5.1974">
        <ele>616.1</ele>
        <time>2022-07-18T07:09:29Z</time>
      </trkpt>
      <trkpt lat="44.32445" lon="5.19741">
        <ele>616.3</ele>
        <time>2022-07-18T07:09:30Z</time>
      </trkpt>
      <trkpt lat="44.32442" lon="5.19741">
        <ele>616.6</ele>
        <time>2022-07-18T07:09:31Z</time>
      </trkpt>
      <trkpt lat="44.32441" lon="5.19742">
        <ele>616.7</ele>
        <time>2022-07-18T07:09:32Z</time>
      </trkpt>
      <trkpt lat="44.3244" lon="5.19742">
        <ele>616.8</ele>
        <time>2022-07-18T07:09:33Z</time>
      </trkpt>
      <trkpt lat="44.32439" lon="5.19743">
        <ele>617</ele>
        <time>2022-07-18T07:09:34Z</time>
      </trkpt>
      <trkpt lat="44.32439" lon="5.19745">
        <ele>617.1</ele>
        <time>2022-07-18T07:09:35Z</time>
      </trkpt>
      <trkpt lat="44.32438" lon="5.19747">
        <ele>617.2</ele>
        <time>2022-07-18T07:09:36Z</time>
      </trkpt>
      <trkpt lat="44.32439" lon="5.19749">
        <ele>617.4</ele>
        <time>2022-07-18T07:09:37Z</time>
      </trkpt>
      <trkpt lat="44.32439" lon="5.19752">
        <ele>617.6</ele>
        <time>2022-07-18T07:09:38Z</time>
      </trkpt>
      <trkpt lat="44.32439" lon="5.19753">
        <ele>617.8</ele>
        <time>2022-07-18T07:09:39Z</time>
      </trkpt>
      <trkpt lat="44.3244" lon="5.19755">
        <ele>617.9</ele>
        <time>2022-07-18T07:09:40Z</time>
      </trkpt>
      <trkpt lat="44.32441" lon="5.19757">
        <ele>618.1</ele>
        <time>2022-07-18T07:09:41Z</time>
      </trkpt>
      <trkpt lat="44.32442" lon="5.19759">
        <ele>618.3</ele>
        <time>2022-07-18T07:09:42Z</time>
      </trkpt>
      <trkpt lat="44.32444" lon="5.1976">
        <ele>618.5</ele>
        <time>2022-07-18T07:09:43Z</time>
      </trkpt>
      <trkpt lat="44.32445" lon="5.19761">
        <ele>618.6</ele>
        <time>2022-07-18T07:09:44Z</time>
      </trkpt>
      <trkpt lat="44.32447" lon="5.19761">
        <ele>618.8</ele>
        <time>2022-07-18T07:09:45Z</time>
      </trkpt>
      <trkpt lat="44.32448" lon="5.19762">
        <ele>619</ele>
        <time>2022-07-18T07:09:46Z</time>
      </trkpt>
      <trkpt lat="44.3245" lon="5.19763">
        <ele>619.2</ele>
        <time>2022-07-18T07:09:47Z</time>
      </trkpt>
      <trkpt lat="44.32451" lon="5.19763">
        <ele>619.3</ele>
        <time>2022-07-18T07:09:48Z</time>
      </trkpt>
      <trkpt lat="44.32452" lon="5.19764">
        <ele>619.4</ele>
        <time>2022-07-18T07:09:49Z</time>
      </trkpt>
      <trkpt lat="44.32453" lon="5.19764">
        <ele>619.5</ele>
        <time>2022-07-18T07:09:50Z</time>
      </trkpt>
      <trkpt lat="44.32454" lon="5.19764">
        <ele>619.6</ele>
        <time>2022-07-18T07:09:51Z</time>
      </trkpt>
      <trkpt lat="44.32455" lon="5.19764">
        <ele>619.7</ele>
        <time>2022-07-18T07:09:52Z</time>
      </trkpt>
      <trkpt lat="44.32455" lon="5.19764">
        <ele>619.8</ele>
        <time>2022-07-18T07:09:53Z</time>
      </trkpt>
      <trkpt lat="44.32456" lon="5.19764">
        <ele>619.9</ele>
        <time>2022-07-18T07:09:54Z</time>
      </trkpt>
      <trkpt lat="44.32458" lon="5.19763">
        <ele>620.1</ele>
        <time>2022-07-18T07:09:55Z</time>
      </trkpt>
      <trkpt lat="44.32459" lon="5.19763">
        <ele>620.2</ele>
        <time>2022-07-18T07:09:56Z</time>
      </trkpt>
      <trkpt lat="44.32459" lon="5.19763">
        <ele>620.2</ele>
        <time>2022-07-18T07:09:57Z</time>
      </trkpt>
      <trkpt lat="44.3246" lon="5.19763">
        <ele>620.3</ele>
        <time>2022-07-18T07:09:58Z</time>
      </trkpt>
      <trkpt lat="44.32461" lon="5.19763">
        <ele>620.4</ele>
        <time>2022-07-18T07:09:59Z</time>
      </trkpt>
      <trkpt lat="44.32462" lon="5.19763">
        <ele>620.5</ele>
        <time>2022-07-18T07:10:00Z</time>
      </trkpt>
      <trkpt lat="44.32463" lon="5.19763">
        <ele>620.6</ele>
        <time>2022-07-18T07:10:01Z</time>
      </trkpt>
      <trkpt lat="44.32463" lon="5.19764">
        <ele>620.7</ele>
        <time>2022-07-18T07:10:02Z</time>
      </trkpt>
      <trkpt lat="44.32464" lon="5.19765">
        <ele>620.8</ele>
        <time>2022-07-18T07:10:03Z</time>
      </trkpt>
      <trkpt lat="44.32465" lon="5.19766">
        <ele>621</ele>
        <time>2022-07-18T07:10:04Z</time>
      </trkpt>
      <trkpt lat="44.32467" lon="5.19766">
        <ele>621.1</ele>
        <time>2022-07-18T07:10:05Z</time>
      </trkpt>
      <trkpt lat="44.32468" lon="5.19765">
        <ele>621.2</ele>
        <time>2022-07-18T07:10:06Z</time>
      </trkpt>
      <trkpt lat="44.32469" lon="5.19765">
        <ele>621.4</ele>
        <time>2022-07-18T07:10:07Z</time>
      </trkpt>
      <trkpt lat="44.32471" lon="5.19765">
        <ele>621.6</ele>
        <time>2022-07-18T07:10:08Z</time>
      </trkpt>
      <trkpt lat="44.32472" lon="5.19765">
        <ele>621.7</ele>
        <time>2022-07-18T07:10:09Z</time>
      </trkpt>
      <trkpt lat="44.32475" lon="5.19765">
        <ele>622</ele>
        <time>2022-07-18T07:10:10Z</time>
      </trkpt>
      <trkpt lat="44.32476" lon="5.19765">
        <ele>622.1</ele>
        <time>2022-07-18T07:10:11Z</time>
      </trkpt>
      <trkpt lat="44.32476" lon="5.19766">
        <ele>622.2</ele>
        <time>2022-07-18T07:10:12Z</time>
      </trkpt>
      <trkpt lat="44.32478" lon="5.19766">
        <ele>622.4</ele>
        <time>2022-07-18T07:10:13Z</time>
      </trkpt>
      <trkpt lat="44.32479" lon="5.19766">
        <ele>622.5</ele>
        <time>2022-07-18T07:10:14Z</time>
      </trkpt>
      <trkpt lat="44.32481" lon="5.19766">
        <ele>622.7</ele>
        <time>2022-07-18T07:10:15Z</time>
      </trkpt>
      <trkpt lat="44.32483" lon="5.19766">
        <ele>622.9</ele>
        <time>2022-07-18T07:10:16Z</time>
      </trkpt>
      <trkpt lat="44.32484" lon="5.19766">
        <ele>623</ele>
        <time>2022-07-18T07:10:17Z</time>
      </trkpt>
      <trkpt lat="44.32485" lon="5.19767">
        <ele>623.2</ele>
        <time>2022-07-18T07:10:18Z</time>
      </trkpt>
      <trkpt lat="44.32487" lon="5.19767">
        <ele>623.4</ele>
        <time>2022-07-18T07:10:19Z</time>
      </trkpt>
      <trkpt lat="44.32488" lon="5.19766">
        <ele>623.4</ele>
        <time>2022-07-18T07:10:20Z</time>
      </trkpt>
      <trkpt lat="44.32488" lon="5.19766">
        <ele>623.5</ele>
        <time>2022-07-18T07:10:21Z</time>
      </trkpt>
      <trkpt lat="44.32489" lon="5.19765">
        <ele>623.6</ele>
        <time>2022-07-18T07:10:22Z</time>
      </trkpt>
      <trkpt lat="44.32491" lon="5.19766">
        <ele>623.8</ele>
        <time>2022-07-18T07:10:23Z</time>
      </trkpt>
      <trkpt lat="44.32492" lon="5.19766">
        <ele>623.9</ele>
        <time>2022-07-18T07:10:24Z</time>
      </trkpt>
      <trkpt lat="44.32493" lon="5.19766">
        <ele>624</ele>
        <time>2022-07-18T07:10:25Z</time>
      </trkpt>
      <trkpt lat="44.32495" lon="5.19767">
        <ele>624.3</ele>
        <time>2022-07-18T07:10:26Z</time>
      </trkpt>
      <trkpt lat="44.32496" lon="5.19767">
        <ele>624.4</ele>
        <time>2022-07-18T07:10:27Z</time>
      </trkpt>
      <trkpt lat="44.32497" lon="5.19767">
        <ele>624.4</ele>
        <time>2022-07-18T07:10:28Z</time>
      </trkpt>
      <trkpt lat="44.32498" lon="5.19768">
        <ele>624.6</ele>
        <time>2022-07-18T07:10:29Z</time>
      </trkpt>
      <trkpt lat="44.32499" lon="5.19768">
        <ele>624.7</ele>
        <time>2022-07-18T07:10:30Z</time>
      </trkpt>
      <trkpt lat="44.32499" lon="5.19769">
        <ele>624.8</ele>
        <time>2022-07-18T07:10:31Z</time>
      </trkpt>
      <trkpt lat="44.32501" lon="5.19771">
        <ele>625</ele>
        <time>2022-07-18T07:10:32Z</time>
      </trkpt>
      <trkpt lat="44.32502" lon="5.19772">
        <ele>625.1</ele>
        <time>2022-07-18T07:10:33Z</time>
      </trkpt>
      <trkpt lat="44.32502" lon="5.19772">
        <ele>625.2</ele>
        <time>2022-07-18T07:10:34Z</time>
      </trkpt>
      <trkpt lat="44.32503" lon="5.19773">
        <ele>625.3</ele>
        <time>2022-07-18T07:10:35Z</time>
      </trkpt>
      <trkpt lat="44.32504" lon="5.19772">
        <ele>625.4</ele>
        <time>2022-07-18T07:10:36Z</time>
      </trkpt>
      <trkpt lat="44.32506" lon="5.19772">
        <ele>625.6</ele>
        <time>2022-07-18T07:10:37Z</time>
      </trkpt>
      <trkpt lat="44.32507" lon="5.19772">
        <ele>625.7</ele>
        <time>2022-07-18T07:10:38Z</time>
      </trkpt>
      <trkpt lat="44.32508" lon="5.19772">
        <ele>625.8</ele>
        <time>2022-07-18T07:10:39Z</time>
      </trkpt>
      <trkpt lat="44.32509" lon="5.19772">
        <ele>626</ele>
        <time>2022-07-18T07:10:40Z</time>
      </trkpt>
      <trkpt lat="44.3251" lon="5.19772">
        <ele>626.1</ele>
        <time>2022-07-18T07:10:41Z</time>
      </trkpt>
      <trkpt lat="44.32512" lon="5.19771">
        <ele>626.2</ele>
        <time>2022-07-18T07:10:42Z</time>
      </trkpt>
      <trkpt lat="44.32513" lon="5.19771">
        <ele>626.4</ele>
        <time>2022-07-18T07:10:43Z</time>
      </trkpt>
      <trkpt lat="44.32514" lon="5.19771">
        <ele>626.5</ele>
        <time>2022-07-18T07:10:44Z</time>
      </trkpt>
      <trkpt lat="44.32515" lon="5.19771">
        <ele>626.7</ele>
        <time>2022-07-18T07:10:45Z</time>
      </trkpt>
      <trkpt lat="44.32517" lon="5.1977">
        <ele>626.9</ele>
        <time>2022-07-18T07:10:46Z</time>
      </trkpt>
      <trkpt lat="44.32518" lon="5.19769">
        <ele>627</ele>
        <time>2022-07-18T07:10:47Z</time>
      </trkpt>
      <trkpt lat="44.32519" lon="5.19769">
        <ele>627.1</ele>
        <time>2022-07-18T07:10:48Z</time>
      </trkpt>
      <trkpt lat="44.3252" lon="5.19769">
        <ele>627.2</ele>
        <time>2022-07-18T07:10:49Z</time>
      </trkpt>
      <trkpt lat="44.3252" lon="5.19769">
        <ele>627.2</ele>
        <time>2022-07-18T07:10:50Z</time>
      </trkpt>
      <trkpt lat="44.32522" lon="5.19768">
        <ele>627.4</ele>
        <time>2022-07-18T07:10:51Z</time>
      </trkpt>
      <trkpt lat="44.32524" lon="5.19768">
        <ele>627.6</ele>
        <time>2022-07-18T07:10:52Z</time>
      </trkpt>
      <trkpt lat="44.32525" lon="5.19768">
        <ele>627.7</ele>
        <time>2022-07-18T07:10:53Z</time>
      </trkpt>
      <trkpt lat="44.32526" lon="5.19767">
        <ele>627.9</ele>
        <time>2022-07-18T07:10:54Z</time>
      </trkpt>
      <trkpt lat="44.32528" lon="5.19767">
        <ele>628.1</ele>
        <time>2022-07-18T07:10:55Z</time>
      </trkpt>
      <trkpt lat="44.32529" lon="5.19766">
        <ele>628.2</ele>
        <time>2022-07-18T07:10:56Z</time>
      </trkpt>
      <trkpt lat="44.32531" lon="5.19765">
        <ele>628.4</ele>
        <time>2022-07-18T07:10:57Z</time>
      </trkpt>
      <trkpt lat="44.32533" lon="5.19764">
        <ele>628.7</ele>
        <time>2022-07-18T07:10:58Z</time>
      </trkpt>
      <trkpt lat="44.32534" lon="5.19764">
        <ele>628.8</ele>
        <time>2022-07-18T07:10:59Z</time>
      </trkpt>
      <trkpt lat="44.32535" lon="5.19764">
        <ele>628.9</ele>
        <time>2022-07-18T07:11:00Z</time>
      </trkpt>
      <trkpt lat="44.32536" lon="5.19763">
        <ele>629</ele>
        <time>2022-07-18T07:11:01Z</time>
      </trkpt>
      <trkpt lat="44.32537" lon="5.19762">
        <ele>629.2</ele>
        <time>2022-07-18T07:11:02Z</time>
      </trkpt>
      <trkpt lat="44.32539" lon="5.19761">
        <ele>629.4</ele>
        <time>2022-07-18T07:11:03Z</time>
      </trkpt>
      <trkpt lat="44.3254" lon="5.1976">
        <ele>629.5</ele>
        <time>2022-07-18T07:11:04Z</time>
      </trkpt>
      <trkpt lat="44.32541" lon="5.19758">
        <ele>629.7</ele>
        <time>2022-07-18T07:11:05Z</time>
      </trkpt>
      <trkpt lat="44.32542" lon="5.19758">
        <ele>629.8</ele>
        <time>2022-07-18T07:11:06Z</time>
      </trkpt>
      <trkpt lat="44.32543" lon="5.19757">
        <ele>629.9</ele>
        <time>2022-07-18T07:11:07Z</time>
      </trkpt>
      <trkpt lat="44.32544" lon="5.19756">
        <ele>630.1</ele>
        <time>2022-07-18T07:11:08Z</time>
      </trkpt>
      <trkpt lat="44.32545" lon="5.19756">
        <ele>630.2</ele>
        <time>2022-07-18T07:11:09Z</time>
      </trkpt>
      <trkpt lat="44.32546" lon="5.19755">
        <ele>630.3</ele>
        <time>2022-07-18T07:11:10Z</time>
      </trkpt>
      <trkpt lat="44.32547" lon="5.19755">
        <ele>630.4</ele>
        <time>2022-07-18T07:11:11Z</time>
      </trkpt>
      <trkpt lat="44.32548" lon="5.19754">
        <ele>630.5</ele>
        <time>2022-07-18T07:11:12Z</time>
      </trkpt>
      <trkpt lat="44.32549" lon="5.19753">
        <ele>630.6</ele>
        <time>2022-07-18T07:11:13Z</time>
      </trkpt>
      <trkpt lat="44.3255" lon="5.19753">
        <ele>630.8</ele>
        <time>2022-07-18T07:11:14Z</time>
      </trkpt>
      <trkpt lat="44.32552" lon="5.19752">
        <ele>630.9</ele>
        <time>2022-07-18T07:11:15Z</time>
      </trkpt>
      <trkpt lat="44.32553" lon="5.19752">
        <ele>631.1</ele>
        <time>2022-07-18T07:11:16Z</time>
      </trkpt>
      <trkpt lat="44.32555" lon="5.19753">
        <ele>631.3</ele>
        <time>2022-07-18T07:11:17Z</time>
      </trkpt>
      <trkpt lat="44.32556" lon="5.19753">
        <ele>631.4</ele>
        <time>2022-07-18T07:11:18Z</time>
      </trkpt>
      <trkpt lat="44.32558" lon="5.19753">
        <ele>631.6</ele>
        <time>2022-07-18T07:11:19Z</time>
      </trkpt>
      <trkpt lat="44.32559" lon="5.19754">
        <ele>631.7</ele>
        <time>2022-07-18T07:11:20Z</time>
      </trkpt>
      <trkpt lat="44.3256" lon="5.19754">
        <ele>631.9</ele>
        <time>2022-07-18T07:11:21Z</time>
      </trkpt>
      <trkpt lat="44.32562" lon="5.19754">
        <ele>632.1</ele>
        <time>2022-07-18T07:11:22Z</time>
      </trkpt>
      <trkpt lat="44.32563" lon="5.19754">
        <ele>632.2</ele>
        <time>2022-07-18T07:11:23Z</time>
      </trkpt>
      <trkpt lat="44.32565" lon="5.19755">
        <ele>632.4</ele>
        <time>2022-07-18T07:11:24Z</time>
      </trkpt>
      <trkpt lat="44.32566" lon="5.19756">
        <ele>632.6</ele>
        <time>2022-07-18T07:11:25Z</time>
      </trkpt>
      <trkpt lat="44.32568" lon="5.19756">
        <ele>632.7</ele>
        <time>2022-07-18T07:11:26Z</time>
      </trkpt>
      <trkpt lat="44.32569" lon="5.19758">
        <ele>632.9</ele>
        <time>2022-07-18T07:11:27Z</time>
      </trkpt>
      <trkpt lat="44.32571" lon="5.19759">
        <ele>633.1</ele>
        <time>2022-07-18T07:11:28Z</time>
      </trkpt>
      <trkpt lat="44.32572" lon="5.1976">
        <ele>633.3</ele>
        <time>2022-07-18T07:11:29Z</time>
      </trkpt>
      <trkpt lat="44.32574" lon="5.19761">
        <ele>633.5</ele>
        <time>2022-07-18T07:11:30Z</time>
      </trkpt>
      <trkpt lat="44.32575" lon="5.19762">
        <ele>633.7</ele>
        <time>2022-07-18T07:11:31Z</time>
      </trkpt>
      <trkpt lat="44.32577" lon="5.19763">
        <ele>633.9</ele>
        <time>2022-07-18T07:11:32Z</time>
      </trkpt>
      <trkpt lat="44.32578" lon="5.19764">
        <ele>634</ele>
        <time>2022-07-18T07:11:33Z</time>
      </trkpt>
      <trkpt lat="44.3258" lon="5.19765">
        <ele>634.2</ele>
        <time>2022-07-18T07:11:34Z</time>
      </trkpt>
      <trkpt lat="44.32581" lon="5.19767">
        <ele>634.4</ele>
        <time>2022-07-18T07:11:35Z</time>
      </trkpt>
      <trkpt lat="44.32582" lon="5.19768">
        <ele>634.6</ele>
        <time>2022-07-18T07:11:36Z</time>
      </trkpt>
      <trkpt lat="44.32583" lon="5.19769">
        <ele>634.7</ele>
        <time>2022-07-18T07:11:37Z</time>
      </trkpt>
      <trkpt lat="44.32584" lon="5.1977">
        <ele>634.8</ele>
        <time>2022-07-18T07:11:38Z</time>
      </trkpt>
      <trkpt lat="44.32585" lon="5.1977">
        <ele>634.9</ele>
        <time>2022-07-18T07:11:39Z</time>
      </trkpt>
      <trkpt lat="44.32586" lon="5.19771">
        <ele>635.1</ele>
        <time>2022-07-18T07:11:40Z</time>
      </trkpt>
      <trkpt lat="44.32588" lon="5.19772">
        <ele>635.3</ele>
        <time>2022-07-18T07:11:41Z</time>
      </trkpt>
      <trkpt lat="44.32589" lon="5.19773">
        <ele>635.4</ele>
        <time>2022-07-18T07:11:42Z</time>
      </trkpt>
      <trkpt lat="44.32591" lon="5.19775">
        <ele>635.6</ele>
        <time>2022-07-18T07:11:43Z</time>
      </trkpt>
      <trkpt lat="44.32591" lon="5.19775">
        <ele>635.7</ele>
        <time>2022-07-18T07:11:44Z</time>
      </trkpt>
      <trkpt lat="44.32592" lon="5.19776">
        <ele>635.8</ele>
        <time>2022-07-18T07:11:45Z</time>
      </trkpt>
      <trkpt lat="44.32593" lon="5.19776">
        <ele>636</ele>
        <time>2022-07-18T07:11:46Z</time>
      </trkpt>
      <trkpt lat="44.32594" lon="5.19777">
        <ele>636</ele>
        <time>2022-07-18T07:11:47Z</time>
      </trkpt>
      <trkpt lat="44.32595" lon="5.19777">
        <ele>636.1</ele>
        <time>2022-07-18T07:11:48Z</time>
      </trkpt>
      <trkpt lat="44.32595" lon="5.19778">
        <ele>636.2</ele>
        <time>2022-07-18T07:11:49Z</time>
      </trkpt>
      <trkpt lat="44.32596" lon="5.19779">
        <ele>636.3</ele>
        <time>2022-07-18T07:11:50Z</time>
      </trkpt>
      <trkpt lat="44.32597" lon="5.19779">
        <ele>636.4</ele>
        <time>2022-07-18T07:11:51Z</time>
      </trkpt>
      <trkpt lat="44.32598" lon="5.1978">
        <ele>636.5</ele>
        <time>2022-07-18T07:11:52Z</time>
      </trkpt>
      <trkpt lat="44.32599" lon="5.19782">
        <ele>636.8</ele>
        <time>2022-07-18T07:11:53Z</time>
      </trkpt>
      <trkpt lat="44.326" lon="5.19783">
        <ele>636.9</ele>
        <time>2022-07-18T07:11:54Z</time>
      </trkpt>
      <trkpt lat="44.32601" lon="5.19784">
        <ele>637</ele>
        <time>2022-07-18T07:11:55Z</time>
      </trkpt>
      <trkpt lat="44.32601" lon="5.19786">
        <ele>637.1</ele>
        <time>2022-07-18T07:11:56Z</time>
      </trkpt>
      <trkpt lat="44.32602" lon="5.19787">
        <ele>637.3</ele>
        <time>2022-07-18T07:11:57Z</time>
      </trkpt>
      <trkpt lat="44.32603" lon="5.19789">
        <ele>637.4</ele>
        <time>2022-07-18T07:11:58Z</time>
      </trkpt>
      <trkpt lat="44.32604" lon="5.19791">
        <ele>637.6</ele>
        <time>2022-07-18T07:11:59Z</time>
      </trkpt>
      <trkpt lat="44.32605" lon="5.19792">
        <ele>637.7</ele>
        <time>2022-07-18T07:12:00Z</time>
      </trkpt>
      <trkpt lat="44.32606" lon="5.19794">
        <ele>637.9</ele>
        <time>2022-07-18T07:12:01Z</time>
      </trkpt>
      <trkpt lat="44.32607" lon="5.19795">
        <ele>638.1</ele>
        <time>2022-07-18T07:12:02Z</time>
      </trkpt>
      <trkpt lat="44.32608" lon="5.19796">
        <ele>638.2</ele>
        <time>2022-07-18T07:12:03Z</time>
      </trkpt>
      <trkpt lat="44.3261" lon="5.19797">
        <ele>638.4</ele>
        <time>2022-07-18T07:12:04Z</time>
      </trkpt>
      <trkpt lat="44.32611" lon="5.19799">
        <ele>638.6</ele>
        <time>2022-07-18T07:12:05Z</time>
      </trkpt>
      <trkpt lat="44.32612" lon="5.198">
        <ele>638.7</ele>
        <time>2022-07-18T07:12:06Z</time>
      </trkpt>
      <trkpt lat="44.32613" lon="5.19801">
        <ele>638.9</ele>
        <time>2022-07-18T07:12:07Z</time>
      </trkpt>
      <trkpt lat="44.32614" lon="5.19802">
        <ele>639</ele>
        <time>2022-07-18T07:12:08Z</time>
      </trkpt>
      <trkpt lat="44.32615" lon="5.19803">
        <ele>639.2</ele>
        <time>2022-07-18T07:12:09Z</time>
      </trkpt>
      <trkpt lat="44.32617" lon="5.19805">
        <ele>639.4</ele>
        <time>2022-07-18T07:12:10Z</time>
      </trkpt>
      <trkpt lat="44.32618" lon="5.19806">
        <ele>639.6</ele>
        <time>2022-07-18T07:12:11Z</time>
      </trkpt>
      <trkpt lat="44.32619" lon="5.19808">
        <ele>639.7</ele>
        <time>2022-07-18T07:12:12Z</time>
      </trkpt>
      <trkpt lat="44.32621" lon="5.19809">
        <ele>639.9</ele>
        <time>2022-07-18T07:12:13Z</time>
      </trkpt>
      <trkpt lat="44.32622" lon="5.1981">
        <ele>640.1</ele>
        <time>2022-07-18T07:12:14Z</time>
      </trkpt>
      <trkpt lat="44.32623" lon="5.19812">
        <ele>640.3</ele>
        <time>2022-07-18T07:12:15Z</time>
      </trkpt>
      <trkpt lat="44.32624" lon="5.19813">
        <ele>640.5</ele>
        <time>2022-07-18T07:12:16Z</time>
      </trkpt>
      <trkpt lat="44.32625" lon="5.19814">
        <ele>640.6</ele>
        <time>2022-07-18T07:12:17Z</time>
      </trkpt>
      <trkpt lat="44.32626" lon="5.19815">
        <ele>640.7</ele>
        <time>2022-07-18T07:12:18Z</time>
      </trkpt>
      <trkpt lat="44.32627" lon="5.19816">
        <ele>641</ele>
        <time>2022-07-18T07:12:19Z</time>
      </trkpt>
      <trkpt lat="44.32628" lon="5.19817">
        <ele>641.1</ele>
        <time>2022-07-18T07:12:20Z</time>
      </trkpt>
      <trkpt lat="44.32628" lon="5.19818">
        <ele>641.1</ele>
        <time>2022-07-18T07:12:21Z</time>
      </trkpt>
      <trkpt lat="44.32629" lon="5.19819">
        <ele>641.2</ele>
        <time>2022-07-18T07:12:22Z</time>
      </trkpt>
      <trkpt lat="44.3263" lon="5.1982">
        <ele>641.2</ele>
        <time>2022-07-18T07:12:23Z</time>
      </trkpt>
      <trkpt lat="44.3263" lon="5.19821">
        <ele>641.3</ele>
        <time>2022-07-18T07:12:24Z</time>
      </trkpt>
      <trkpt lat="44.3263" lon="5.19822">
        <ele>641.3</ele>
        <time>2022-07-18T07:12:25Z</time>
      </trkpt>
      <trkpt lat="44.32631" lon="5.19823">
        <ele>641.4</ele>
        <time>2022-07-18T07:12:26Z</time>
      </trkpt>
      <trkpt lat="44.32632" lon="5.19825">
        <ele>641.4</ele>
        <time>2022-07-18T07:12:27Z</time>
      </trkpt>
      <trkpt lat="44.32632" lon="5.19826">
        <ele>641.5</ele>
        <time>2022-07-18T07:12:28Z</time>
      </trkpt>
      <trkpt lat="44.32633" lon="5.19828">
        <ele>641.6</ele>
        <time>2022-07-18T07:12:29Z</time>
      </trkpt>
      <trkpt lat="44.32633" lon="5.1983">
        <ele>641.7</ele>
        <time>2022-07-18T07:12:30Z</time>
      </trkpt>
      <trkpt lat="44.32633" lon="5.19832">
        <ele>641.7</ele>
        <time>2022-07-18T07:12:31Z</time>
      </trkpt>
      <trkpt lat="44.32634" lon="5.19834">
        <ele>641.8</ele>
        <time>2022-07-18T07:12:32Z</time>
      </trkpt>
      <trkpt lat="44.32634" lon="5.19837">
        <ele>642</ele>
        <time>2022-07-18T07:12:33Z</time>
      </trkpt>
      <trkpt lat="44.32634" lon="5.19838">
        <ele>642</ele>
        <time>2022-07-18T07:12:34Z</time>
      </trkpt>
      <trkpt lat="44.32635" lon="5.1984">
        <ele>642.1</ele>
        <time>2022-07-18T07:12:35Z</time>
      </trkpt>
      <trkpt lat="44.32635" lon="5.19842">
        <ele>642.2</ele>
        <time>2022-07-18T07:12:36Z</time>
      </trkpt>
      <trkpt lat="44.32635" lon="5.19844">
        <ele>642.3</ele>
        <time>2022-07-18T07:12:37Z</time>
      </trkpt>
      <trkpt lat="44.32636" lon="5.19846">
        <ele>642.3</ele>
        <time>2022-07-18T07:12:38Z</time>
      </trkpt>
      <trkpt lat="44.32636" lon="5.19849">
        <ele>642.4</ele>
        <time>2022-07-18T07:12:39Z</time>
      </trkpt>
      <trkpt lat="44.32636" lon="5.19851">
        <ele>642.5</ele>
        <time>2022-07-18T07:12:40Z</time>
      </trkpt>
      <trkpt lat="44.32636" lon="5.19853">
        <ele>642.6</ele>
        <time>2022-07-18T07:12:41Z</time>
      </trkpt>
      <trkpt lat="44.32636" lon="5.19855">
        <ele>642.7</ele>
        <time>2022-07-18T07:12:42Z</time>
      </trkpt>
      <trkpt lat="44.32637" lon="5.19857">
        <ele>642.8</ele>
        <time>2022-07-18T07:12:43Z</time>
      </trkpt>
      <trkpt lat="44.32638" lon="5.19861">
        <ele>642.9</ele>
        <time>2022-07-18T07:12:44Z</time>
      </trkpt>
      <trkpt lat="44.32638" lon="5.19862">
        <ele>642.9</ele>
        <time>2022-07-18T07:12:45Z</time>
      </trkpt>
      <trkpt lat="44.3264" lon="5.19866">
        <ele>643.1</ele>
        <time>2022-07-18T07:12:46Z</time>
      </trkpt>
      <trkpt lat="44.3264" lon="5.19867">
        <ele>643.1</ele>
        <time>2022-07-18T07:12:47Z</time>
      </trkpt>
      <trkpt lat="44.32642" lon="5.19868">
        <ele>643.2</ele>
        <time>2022-07-18T07:12:48Z</time>
      </trkpt>
      <trkpt lat="44.32643" lon="5.19869">
        <ele>643.3</ele>
        <time>2022-07-18T07:12:49Z</time>
      </trkpt>
      <trkpt lat="44.32644" lon="5.1987">
        <ele>643.4</ele>
        <time>2022-07-18T07:12:50Z</time>
      </trkpt>
      <trkpt lat="44.32645" lon="5.19872">
        <ele>643.4</ele>
        <time>2022-07-18T07:12:51Z</time>
      </trkpt>
      <trkpt lat="44.32646" lon="5.19873">
        <ele>643.5</ele>
        <time>2022-07-18T07:12:52Z</time>
      </trkpt>
      <trkpt lat="44.32648" lon="5.19875">
        <ele>643.6</ele>
        <time>2022-07-18T07:12:53Z</time>
      </trkpt>
      <trkpt lat="44.32649" lon="5.19876">
        <ele>643.7</ele>
        <time>2022-07-18T07:12:54Z</time>
      </trkpt>
      <trkpt lat="44.3265" lon="5.19877">
        <ele>643.8</ele>
        <time>2022-07-18T07:12:55Z</time>
      </trkpt>
      <trkpt lat="44.32652" lon="5.19879">
        <ele>643.8</ele>
        <time>2022-07-18T07:12:56Z</time>
      </trkpt>
      <trkpt lat="44.32653" lon="5.1988">
        <ele>643.9</ele>
        <time>2022-07-18T07:12:57Z</time>
      </trkpt>
      <trkpt lat="44.32654" lon="5.19881">
        <ele>644</ele>
        <time>2022-07-18T07:12:58Z</time>
      </trkpt>
      <trkpt lat="44.32655" lon="5.19882">
        <ele>644</ele>
        <time>2022-07-18T07:12:59Z</time>
      </trkpt>
      <trkpt lat="44.32657" lon="5.19883">
        <ele>644.1</ele>
        <time>2022-07-18T07:13:00Z</time>
      </trkpt>
      <trkpt lat="44.32658" lon="5.19884">
        <ele>644.2</ele>
        <time>2022-07-18T07:13:01Z</time>
      </trkpt>
      <trkpt lat="44.32659" lon="5.19885">
        <ele>644.3</ele>
        <time>2022-07-18T07:13:02Z</time>
      </trkpt>
      <trkpt lat="44.32661" lon="5.19886">
        <ele>644.3</ele>
        <time>2022-07-18T07:13:03Z</time>
      </trkpt>
      <trkpt lat="44.32663" lon="5.19888">
        <ele>644.5</ele>
        <time>2022-07-18T07:13:04Z</time>
      </trkpt>
      <trkpt lat="44.32664" lon="5.19889">
        <ele>644.5</ele>
        <time>2022-07-18T07:13:05Z</time>
      </trkpt>
      <trkpt lat="44.32666" lon="5.19891">
        <ele>644.7</ele>
        <time>2022-07-18T07:13:06Z</time>
      </trkpt>
      <trkpt lat="44.32667" lon="5.19892">
        <ele>644.7</ele>
        <time>2022-07-18T07:13:07Z</time>
      </trkpt>
      <trkpt lat="44.32668" lon="5.19893">
        <ele>644.8</ele>
        <time>2022-07-18T07:13:08Z</time>
      </trkpt>
      <trkpt lat="44.3267" lon="5.19895">
        <ele>644.9</ele>
        <time>2022-07-18T07:13:09Z</time>
      </trkpt>
      <trkpt lat="44.32672" lon="5.19897">
        <ele>645</ele>
        <time>2022-07-18T07:13:10Z</time>
      </trkpt>
      <trkpt lat="44.32673" lon="5.19897">
        <ele>645.1</ele>
        <time>2022-07-18T07:13:11Z</time>
      </trkpt>
      <trkpt lat="44.32675" lon="5.19899">
        <ele>645.3</ele>
        <time>2022-07-18T07:13:12Z</time>
      </trkpt>
      <trkpt lat="44.32676" lon="5.199">
        <ele>645.3</ele>
        <time>2022-07-18T07:13:13Z</time>
      </trkpt>
      <trkpt lat="44.32679" lon="5.19902">
        <ele>645.5</ele>
        <time>2022-07-18T07:13:14Z</time>
      </trkpt>
      <trkpt lat="44.32679" lon="5.19903">
        <ele>645.5</ele>
        <time>2022-07-18T07:13:15Z</time>
      </trkpt>
      <trkpt lat="44.32682" lon="5.19905">
        <ele>645.7</ele>
        <time>2022-07-18T07:13:16Z</time>
      </trkpt>
      <trkpt lat="44.32682" lon="5.19906">
        <ele>645.7</ele>
        <time>2022-07-18T07:13:17Z</time>
      </trkpt>
      <trkpt lat="44.32684" lon="5.19907">
        <ele>645.8</ele>
        <time>2022-07-18T07:13:18Z</time>
      </trkpt>
      <trkpt lat="44.32685" lon="5.19909">
        <ele>645.9</ele>
        <time>2022-07-18T07:13:19Z</time>
      </trkpt>
      <trkpt lat="44.32686" lon="5.1991">
        <ele>646</ele>
        <time>2022-07-18T07:13:20Z</time>
      </trkpt>
      <trkpt lat="44.32687" lon="5.1991">
        <ele>646</ele>
        <time>2022-07-18T07:13:21Z</time>
      </trkpt>
      <trkpt lat="44.32688" lon="5.19911">
        <ele>646.1</ele>
        <time>2022-07-18T07:13:22Z</time>
      </trkpt>
      <trkpt lat="44.32689" lon="5.19912">
        <ele>646.2</ele>
        <time>2022-07-18T07:13:23Z</time>
      </trkpt>
      <trkpt lat="44.3269" lon="5.19913">
        <ele>646.2</ele>
        <time>2022-07-18T07:13:24Z</time>
      </trkpt>
      <trkpt lat="44.32691" lon="5.19914">
        <ele>646.3</ele>
        <time>2022-07-18T07:13:25Z</time>
      </trkpt>
      <trkpt lat="44.32691" lon="5.19915">
        <ele>646.3</ele>
        <time>2022-07-18T07:13:26Z</time>
      </trkpt>
      <trkpt lat="44.32691" lon="5.19916">
        <ele>646.4</ele>
        <time>2022-07-18T07:13:27Z</time>
      </trkpt>
      <trkpt lat="44.32692" lon="5.19917">
        <ele>646.4</ele>
        <time>2022-07-18T07:13:28Z</time>
      </trkpt>
      <trkpt lat="44.32692" lon="5.19918">
        <ele>646.5</ele>
        <time>2022-07-18T07:13:29Z</time>
      </trkpt>
      <trkpt lat="44.32692" lon="5.1992">
        <ele>646.5</ele>
        <time>2022-07-18T07:13:30Z</time>
      </trkpt>
      <trkpt lat="44.32693" lon="5.19922">
        <ele>646.6</ele>
        <time>2022-07-18T07:13:31Z</time>
      </trkpt>
      <trkpt lat="44.32693" lon="5.19923">
        <ele>646.6</ele>
        <time>2022-07-18T07:13:32Z</time>
      </trkpt>
      <trkpt lat="44.32693" lon="5.19924">
        <ele>646.7</ele>
        <time>2022-07-18T07:13:33Z</time>
      </trkpt>
      <trkpt lat="44.32693" lon="5.19925">
        <ele>646.7</ele>
        <time>2022-07-18T07:13:34Z</time>
      </trkpt>
      <trkpt lat="44.32692" lon="5.19927">
        <ele>646.8</ele>
        <time>2022-07-18T07:13:35Z</time>
      </trkpt>
      <trkpt lat="44.32692" lon="5.1993">
        <ele>646.9</ele>
        <time>2022-07-18T07:13:36Z</time>
      </trkpt>
      <trkpt lat="44.32692" lon="5.19932">
        <ele>646.9</ele>
        <time>2022-07-18T07:13:37Z</time>
      </trkpt>
      <trkpt lat="44.32692" lon="5.19934">
        <ele>647</ele>
        <time>2022-07-18T07:13:38Z</time>
      </trkpt>
      <trkpt lat="44.32692" lon="5.19936">
        <ele>647.1</ele>
        <time>2022-07-18T07:13:39Z</time>
      </trkpt>
      <trkpt lat="44.32693" lon="5.1994">
        <ele>647.2</ele>
        <time>2022-07-18T07:13:40Z</time>
      </trkpt>
      <trkpt lat="44.32694" lon="5.19941">
        <ele>647.2</ele>
        <time>2022-07-18T07:13:41Z</time>
      </trkpt>
      <trkpt lat="44.32695" lon="5.19945">
        <ele>647.4</ele>
        <time>2022-07-18T07:13:42Z</time>
      </trkpt>
      <trkpt lat="44.32696" lon="5.19946">
        <ele>647.4</ele>
        <time>2022-07-18T07:13:43Z</time>
      </trkpt>
      <trkpt lat="44.32698" lon="5.19949">
        <ele>647.5</ele>
        <time>2022-07-18T07:13:44Z</time>
      </trkpt>
      <trkpt lat="44.32698" lon="5.1995">
        <ele>647.5</ele>
        <time>2022-07-18T07:13:45Z</time>
      </trkpt>
      <trkpt lat="44.32701" lon="5.19953">
        <ele>647.7</ele>
        <time>2022-07-18T07:13:46Z</time>
      </trkpt>
      <trkpt lat="44.32701" lon="5.19953">
        <ele>647.7</ele>
        <time>2022-07-18T07:13:47Z</time>
      </trkpt>
      <trkpt lat="44.32702" lon="5.19955">
        <ele>647.7</ele>
        <time>2022-07-18T07:13:48Z</time>
      </trkpt>
      <trkpt lat="44.32703" lon="5.19957">
        <ele>647.8</ele>
        <time>2022-07-18T07:13:49Z</time>
      </trkpt>
      <trkpt lat="44.32704" lon="5.19961">
        <ele>647.9</ele>
        <time>2022-07-18T07:13:50Z</time>
      </trkpt>
      <trkpt lat="44.32705" lon="5.19962">
        <ele>648</ele>
        <time>2022-07-18T07:13:51Z</time>
      </trkpt>
      <trkpt lat="44.32706" lon="5.19966">
        <ele>648.1</ele>
        <time>2022-07-18T07:13:52Z</time>
      </trkpt>
      <trkpt lat="44.32707" lon="5.19967">
        <ele>648.1</ele>
        <time>2022-07-18T07:13:53Z</time>
      </trkpt>
      <trkpt lat="44.32707" lon="5.19971">
        <ele>648.3</ele>
        <time>2022-07-18T07:13:54Z</time>
      </trkpt>
      <trkpt lat="44.32708" lon="5.19972">
        <ele>648.3</ele>
        <time>2022-07-18T07:13:55Z</time>
      </trkpt>
      <trkpt lat="44.32709" lon="5.19976">
        <ele>648.5</ele>
        <time>2022-07-18T07:13:56Z</time>
      </trkpt>
      <trkpt lat="44.32709" lon="5.19978">
        <ele>648.5</ele>
        <time>2022-07-18T07:13:57Z</time>
      </trkpt>
      <trkpt lat="44.3271" lon="5.1998">
        <ele>648.6</ele>
        <time>2022-07-18T07:13:58Z</time>
      </trkpt>
      <trkpt lat="44.3271" lon="5.19982">
        <ele>648.6</ele>
        <time>2022-07-18T07:13:59Z</time>
      </trkpt>
      <trkpt lat="44.32711" lon="5.19984">
        <ele>648.7</ele>
        <time>2022-07-18T07:14:00Z</time>
      </trkpt>
      <trkpt lat="44.32711" lon="5.19986">
        <ele>648.8</ele>
        <time>2022-07-18T07:14:01Z</time>
      </trkpt>
      <trkpt lat="44.3271" lon="5.19989">
        <ele>648.9</ele>
        <time>2022-07-18T07:14:02Z</time>
      </trkpt>
      <trkpt lat="44.3271" lon="5.19991">
        <ele>649</ele>
        <time>2022-07-18T07:14:03Z</time>
      </trkpt>
      <trkpt lat="44.3271" lon="5.19995">
        <ele>649.1</ele>
        <time>2022-07-18T07:14:04Z</time>
      </trkpt>
      <trkpt lat="44.3271" lon="5.19997">
        <ele>649.2</ele>
        <time>2022-07-18T07:14:05Z</time>
      </trkpt>
      <trkpt lat="44.32709" lon="5.20001">
        <ele>649.3</ele>
        <time>2022-07-18T07:14:06Z</time>
      </trkpt>
      <trkpt lat="44.32709" lon="5.20002">
        <ele>649.4</ele>
        <time>2022-07-18T07:14:07Z</time>
      </trkpt>
      <trkpt lat="44.32709" lon="5.20004">
        <ele>649.5</ele>
        <time>2022-07-18T07:14:08Z</time>
      </trkpt>
      <trkpt lat="44.32709" lon="5.20006">
        <ele>649.5</ele>
        <time>2022-07-18T07:14:09Z</time>
      </trkpt>
      <trkpt lat="44.3271" lon="5.20011">
        <ele>649.7</ele>
        <time>2022-07-18T07:14:10Z</time>
      </trkpt>
      <trkpt lat="44.3271" lon="5.20012">
        <ele>649.8</ele>
        <time>2022-07-18T07:14:11Z</time>
      </trkpt>
      <trkpt lat="44.32712" lon="5.20016">
        <ele>649.9</ele>
        <time>2022-07-18T07:14:12Z</time>
      </trkpt>
      <trkpt lat="44.32713" lon="5.20018">
        <ele>650</ele>
        <time>2022-07-18T07:14:13Z</time>
      </trkpt>
      <trkpt lat="44.32714" lon="5.2002">
        <ele>650</ele>
        <time>2022-07-18T07:14:14Z</time>
      </trkpt>
      <trkpt lat="44.32714" lon="5.20024">
        <ele>650.2</ele>
        <time>2022-07-18T07:14:15Z</time>
      </trkpt>
      <trkpt lat="44.32714" lon="5.20025">
        <ele>650.2</ele>
        <time>2022-07-18T07:14:16Z</time>
      </trkpt>
      <trkpt lat="44.32714" lon="5.20029">
        <ele>650.3</ele>
        <time>2022-07-18T07:14:17Z</time>
      </trkpt>
      <trkpt lat="44.32714" lon="5.2003">
        <ele>650.4</ele>
        <time>2022-07-18T07:14:18Z</time>
      </trkpt>
      <trkpt lat="44.32715" lon="5.20035">
        <ele>650.5</ele>
        <time>2022-07-18T07:14:19Z</time>
      </trkpt>
      <trkpt lat="44.32716" lon="5.20037">
        <ele>650.5</ele>
        <time>2022-07-18T07:14:20Z</time>
      </trkpt>
      <trkpt lat="44.32718" lon="5.20041">
        <ele>650.6</ele>
        <time>2022-07-18T07:14:21Z</time>
      </trkpt>
      <trkpt lat="44.32718" lon="5.20042">
        <ele>650.7</ele>
        <time>2022-07-18T07:14:22Z</time>
      </trkpt>
      <trkpt lat="44.3272" lon="5.20046">
        <ele>650.8</ele>
        <time>2022-07-18T07:14:23Z</time>
      </trkpt>
      <trkpt lat="44.32721" lon="5.20048">
        <ele>650.8</ele>
        <time>2022-07-18T07:14:24Z</time>
      </trkpt>
      <trkpt lat="44.32722" lon="5.20052">
        <ele>650.9</ele>
        <time>2022-07-18T07:14:25Z</time>
      </trkpt>
      <trkpt lat="44.32722" lon="5.20054">
        <ele>651</ele>
        <time>2022-07-18T07:14:26Z</time>
      </trkpt>
      <trkpt lat="44.32724" lon="5.20058">
        <ele>651.1</ele>
        <time>2022-07-18T07:14:27Z</time>
      </trkpt>
      <trkpt lat="44.32724" lon="5.2006">
        <ele>651.2</ele>
        <time>2022-07-18T07:14:28Z</time>
      </trkpt>
      <trkpt lat="44.32726" lon="5.20065">
        <ele>651.3</ele>
        <time>2022-07-18T07:14:29Z</time>
      </trkpt>
      <trkpt lat="44.32727" lon="5.20066">
        <ele>651.4</ele>
        <time>2022-07-18T07:14:30Z</time>
      </trkpt>
      <trkpt lat="44.32728" lon="5.20071">
        <ele>651.5</ele>
        <time>2022-07-18T07:14:31Z</time>
      </trkpt>
      <trkpt lat="44.32728" lon="5.20073">
        <ele>651.6</ele>
        <time>2022-07-18T07:14:32Z</time>
      </trkpt>
      <trkpt lat="44.32731" lon="5.20077">
        <ele>651.8</ele>
        <time>2022-07-18T07:14:33Z</time>
      </trkpt>
      <trkpt lat="44.32732" lon="5.20079">
        <ele>651.8</ele>
        <time>2022-07-18T07:14:34Z</time>
      </trkpt>
      <trkpt lat="44.32735" lon="5.20082">
        <ele>652</ele>
        <time>2022-07-18T07:14:35Z</time>
      </trkpt>
      <trkpt lat="44.32738" lon="5.20084">
        <ele>652.1</ele>
        <time>2022-07-18T07:14:36Z</time>
      </trkpt>
      <trkpt lat="44.32741" lon="5.20085">
        <ele>652.3</ele>
        <time>2022-07-18T07:14:37Z</time>
      </trkpt>
      <trkpt lat="44.32744" lon="5.20087">
        <ele>652.5</ele>
        <time>2022-07-18T07:14:38Z</time>
      </trkpt>
      <trkpt lat="44.32746" lon="5.20087">
        <ele>652.5</ele>
        <time>2022-07-18T07:14:39Z</time>
      </trkpt>
      <trkpt lat="44.32749" lon="5.20089">
        <ele>652.7</ele>
        <time>2022-07-18T07:14:40Z</time>
      </trkpt>
      <trkpt lat="44.3275" lon="5.2009">
        <ele>652.8</ele>
        <time>2022-07-18T07:14:41Z</time>
      </trkpt>
      <trkpt lat="44.32753" lon="5.20092">
        <ele>652.9</ele>
        <time>2022-07-18T07:14:42Z</time>
      </trkpt>
      <trkpt lat="44.32754" lon="5.20092">
        <ele>653</ele>
        <time>2022-07-18T07:14:43Z</time>
      </trkpt>
      <trkpt lat="44.32756" lon="5.20095">
        <ele>653.1</ele>
        <time>2022-07-18T07:14:44Z</time>
      </trkpt>
      <trkpt lat="44.32757" lon="5.20096">
        <ele>653.2</ele>
        <time>2022-07-18T07:14:45Z</time>
      </trkpt>
      <trkpt lat="44.3276" lon="5.20099">
        <ele>653.3</ele>
        <time>2022-07-18T07:14:46Z</time>
      </trkpt>
      <trkpt lat="44.32761" lon="5.201">
        <ele>653.4</ele>
        <time>2022-07-18T07:14:47Z</time>
      </trkpt>
      <trkpt lat="44.32763" lon="5.20104">
        <ele>653.5</ele>
        <time>2022-07-18T07:14:48Z</time>
      </trkpt>
      <trkpt lat="44.32764" lon="5.20105">
        <ele>653.6</ele>
        <time>2022-07-18T07:14:49Z</time>
      </trkpt>
      <trkpt lat="44.32766" lon="5.20108">
        <ele>653.7</ele>
        <time>2022-07-18T07:14:50Z</time>
      </trkpt>
      <trkpt lat="44.32766" lon="5.20109">
        <ele>653.8</ele>
        <time>2022-07-18T07:14:51Z</time>
      </trkpt>
      <trkpt lat="44.32768" lon="5.20113">
        <ele>653.9</ele>
        <time>2022-07-18T07:14:52Z</time>
      </trkpt>
      <trkpt lat="44.32769" lon="5.20114">
        <ele>654</ele>
        <time>2022-07-18T07:14:53Z</time>
      </trkpt>
      <trkpt lat="44.3277" lon="5.20119">
        <ele>654.2</ele>
        <time>2022-07-18T07:14:54Z</time>
      </trkpt>
      <trkpt lat="44.32771" lon="5.2012">
        <ele>654.2</ele>
        <time>2022-07-18T07:14:55Z</time>
      </trkpt>
      <trkpt lat="44.32773" lon="5.20124">
        <ele>654.4</ele>
        <time>2022-07-18T07:14:56Z</time>
      </trkpt>
      <trkpt lat="44.32774" lon="5.20125">
        <ele>654.5</ele>
        <time>2022-07-18T07:14:57Z</time>
      </trkpt>
      <trkpt lat="44.32775" lon="5.20128">
        <ele>654.6</ele>
        <time>2022-07-18T07:14:58Z</time>
      </trkpt>
      <trkpt lat="44.32776" lon="5.20129">
        <ele>654.7</ele>
        <time>2022-07-18T07:14:59Z</time>
      </trkpt>
      <trkpt lat="44.32776" lon="5.20129">
        <ele>654.7</ele>
        <time>2022-07-18T07:15:00Z</time>
      </trkpt>
      <trkpt lat="44.32778" lon="5.20132">
        <ele>654.9</ele>
        <time>2022-07-18T07:15:01Z</time>
      </trkpt>
      <trkpt lat="44.32779" lon="5.20133">
        <ele>655</ele>
        <time>2022-07-18T07:15:02Z</time>
      </trkpt>
      <trkpt lat="44.32782" lon="5.20136">
        <ele>655.2</ele>
        <time>2022-07-18T07:15:03Z</time>
      </trkpt>
      <trkpt lat="44.32783" lon="5.20137">
        <ele>655.2</ele>
        <time>2022-07-18T07:15:04Z</time>
      </trkpt>
      <trkpt lat="44.32786" lon="5.20138">
        <ele>655.4</ele>
        <time>2022-07-18T07:15:05Z</time>
      </trkpt>
      <trkpt lat="44.32787" lon="5.20138">
        <ele>655.4</ele>
        <time>2022-07-18T07:15:06Z</time>
      </trkpt>
      <trkpt lat="44.3279" lon="5.20138">
        <ele>655.6</ele>
        <time>2022-07-18T07:15:07Z</time>
      </trkpt>
      <trkpt lat="44.32792" lon="5.20137">
        <ele>655.7</ele>
        <time>2022-07-18T07:15:08Z</time>
      </trkpt>
      <trkpt lat="44.32795" lon="5.20134">
        <ele>655.8</ele>
        <time>2022-07-18T07:15:09Z</time>
      </trkpt>
      <trkpt lat="44.32796" lon="5.20133">
        <ele>655.9</ele>
        <time>2022-07-18T07:15:10Z</time>
      </trkpt>
      <trkpt lat="44.32797" lon="5.2013">
        <ele>656</ele>
        <time>2022-07-18T07:15:11Z</time>
      </trkpt>
      <trkpt lat="44.32799" lon="5.20126">
        <ele>656.1</ele>
        <time>2022-07-18T07:15:12Z</time>
      </trkpt>
      <trkpt lat="44.328" lon="5.20122">
        <ele>656.3</ele>
        <time>2022-07-18T07:15:13Z</time>
      </trkpt>
      <trkpt lat="44.328" lon="5.2012">
        <ele>656.3</ele>
        <time>2022-07-18T07:15:14Z</time>
      </trkpt>
      <trkpt lat="44.32801" lon="5.20115">
        <ele>656.4</ele>
        <time>2022-07-18T07:15:15Z</time>
      </trkpt>
      <trkpt lat="44.32801" lon="5.20114">
        <ele>656.5</ele>
        <time>2022-07-18T07:15:16Z</time>
      </trkpt>
      <trkpt lat="44.32801" lon="5.20109">
        <ele>656.6</ele>
        <time>2022-07-18T07:15:17Z</time>
      </trkpt>
      <trkpt lat="44.32801" lon="5.20108">
        <ele>656.6</ele>
        <time>2022-07-18T07:15:18Z</time>
      </trkpt>
      <trkpt lat="44.32801" lon="5.20103">
        <ele>656.8</ele>
        <time>2022-07-18T07:15:19Z</time>
      </trkpt>
      <trkpt lat="44.32802" lon="5.20102">
        <ele>656.8</ele>
        <time>2022-07-18T07:15:20Z</time>
      </trkpt>
      <trkpt lat="44.32802" lon="5.20097">
        <ele>657</ele>
        <time>2022-07-18T07:15:21Z</time>
      </trkpt>
      <trkpt lat="44.32802" lon="5.20096">
        <ele>657</ele>
        <time>2022-07-18T07:15:22Z</time>
      </trkpt>
      <trkpt lat="44.32803" lon="5.20092">
        <ele>657.1</ele>
        <time>2022-07-18T07:15:23Z</time>
      </trkpt>
      <trkpt lat="44.32804" lon="5.20091">
        <ele>657.2</ele>
        <time>2022-07-18T07:15:24Z</time>
      </trkpt>
      <trkpt lat="44.32805" lon="5.20087">
        <ele>657.3</ele>
        <time>2022-07-18T07:15:25Z</time>
      </trkpt>
      <trkpt lat="44.32805" lon="5.20085">
        <ele>657.4</ele>
        <time>2022-07-18T07:15:26Z</time>
      </trkpt>
      <trkpt lat="44.32806" lon="5.20081">
        <ele>657.5</ele>
        <time>2022-07-18T07:15:27Z</time>
      </trkpt>
      <trkpt lat="44.32806" lon="5.20079">
        <ele>657.6</ele>
        <time>2022-07-18T07:15:28Z</time>
      </trkpt>
      <trkpt lat="44.32807" lon="5.20075">
        <ele>657.8</ele>
        <time>2022-07-18T07:15:29Z</time>
      </trkpt>
      <trkpt lat="44.32807" lon="5.20074">
        <ele>657.8</ele>
        <time>2022-07-18T07:15:30Z</time>
      </trkpt>
      <trkpt lat="44.32809" lon="5.2007">
        <ele>658</ele>
        <time>2022-07-18T07:15:31Z</time>
      </trkpt>
      <trkpt lat="44.32809" lon="5.20069">
        <ele>658.1</ele>
        <time>2022-07-18T07:15:32Z</time>
      </trkpt>
      <trkpt lat="44.32809" lon="5.20065">
        <ele>658.2</ele>
        <time>2022-07-18T07:15:33Z</time>
      </trkpt>
      <trkpt lat="44.3281" lon="5.20063">
        <ele>658.3</ele>
        <time>2022-07-18T07:15:34Z</time>
      </trkpt>
      <trkpt lat="44.3281" lon="5.20059">
        <ele>658.5</ele>
        <time>2022-07-18T07:15:35Z</time>
      </trkpt>
      <trkpt lat="44.3281" lon="5.20058">
        <ele>658.5</ele>
        <time>2022-07-18T07:15:36Z</time>
      </trkpt>
      <trkpt lat="44.3281" lon="5.20056">
        <ele>658.6</ele>
        <time>2022-07-18T07:15:37Z</time>
      </trkpt>
      <trkpt lat="44.3281" lon="5.20054">
        <ele>658.7</ele>
        <time>2022-07-18T07:15:38Z</time>
      </trkpt>
      <trkpt lat="44.3281" lon="5.2005">
        <ele>658.9</ele>
        <time>2022-07-18T07:15:39Z</time>
      </trkpt>
      <trkpt lat="44.3281" lon="5.20049">
        <ele>658.9</ele>
        <time>2022-07-18T07:15:40Z</time>
      </trkpt>
      <trkpt lat="44.32809" lon="5.20044">
        <ele>659.1</ele>
        <time>2022-07-18T07:15:41Z</time>
      </trkpt>
      <trkpt lat="44.32809" lon="5.20042">
        <ele>659.2</ele>
        <time>2022-07-18T07:15:42Z</time>
      </trkpt>
      <trkpt lat="44.32809" lon="5.20038">
        <ele>659.4</ele>
        <time>2022-07-18T07:15:43Z</time>
      </trkpt>
      <trkpt lat="44.32809" lon="5.20036">
        <ele>659.4</ele>
        <time>2022-07-18T07:15:44Z</time>
      </trkpt>
      <trkpt lat="44.32808" lon="5.20032">
        <ele>659.6</ele>
        <time>2022-07-18T07:15:45Z</time>
      </trkpt>
      <trkpt lat="44.32808" lon="5.2003">
        <ele>659.7</ele>
        <time>2022-07-18T07:15:46Z</time>
      </trkpt>
      <trkpt lat="44.32808" lon="5.20026">
        <ele>659.9</ele>
        <time>2022-07-18T07:15:47Z</time>
      </trkpt>
      <trkpt lat="44.32809" lon="5.20025">
        <ele>659.9</ele>
        <time>2022-07-18T07:15:48Z</time>
      </trkpt>
      <trkpt lat="44.3281" lon="5.20021">
        <ele>660.2</ele>
        <time>2022-07-18T07:15:49Z</time>
      </trkpt>
      <trkpt lat="44.32811" lon="5.20019">
        <ele>660.3</ele>
        <time>2022-07-18T07:15:50Z</time>
      </trkpt>
      <trkpt lat="44.32812" lon="5.20015">
        <ele>660.5</ele>
        <time>2022-07-18T07:15:51Z</time>
      </trkpt>
      <trkpt lat="44.32813" lon="5.20014">
        <ele>660.6</ele>
        <time>2022-07-18T07:15:52Z</time>
      </trkpt>
      <trkpt lat="44.32814" lon="5.20013">
        <ele>660.7</ele>
        <time>2022-07-18T07:15:53Z</time>
      </trkpt>
      <trkpt lat="44.32816" lon="5.20012">
        <ele>660.8</ele>
        <time>2022-07-18T07:15:54Z</time>
      </trkpt>
      <trkpt lat="44.32818" lon="5.20011">
        <ele>661</ele>
        <time>2022-07-18T07:15:55Z</time>
      </trkpt>
      <trkpt lat="44.32819" lon="5.20011">
        <ele>661.1</ele>
        <time>2022-07-18T07:15:56Z</time>
      </trkpt>
      <trkpt lat="44.3282" lon="5.20011">
        <ele>661.2</ele>
        <time>2022-07-18T07:15:57Z</time>
      </trkpt>
      <trkpt lat="44.32821" lon="5.2001">
        <ele>661.3</ele>
        <time>2022-07-18T07:15:58Z</time>
      </trkpt>
      <trkpt lat="44.32822" lon="5.2001">
        <ele>661.4</ele>
        <time>2022-07-18T07:15:59Z</time>
      </trkpt>
      <trkpt lat="44.32824" lon="5.20009">
        <ele>661.6</ele>
        <time>2022-07-18T07:16:00Z</time>
      </trkpt>
      <trkpt lat="44.32825" lon="5.20008">
        <ele>661.7</ele>
        <time>2022-07-18T07:16:01Z</time>
      </trkpt>
      <trkpt lat="44.32826" lon="5.20008">
        <ele>661.7</ele>
        <time>2022-07-18T07:16:02Z</time>
      </trkpt>
      <trkpt lat="44.32827" lon="5.20007">
        <ele>661.9</ele>
        <time>2022-07-18T07:16:03Z</time>
      </trkpt>
      <trkpt lat="44.32828" lon="5.20006">
        <ele>662</ele>
        <time>2022-07-18T07:16:04Z</time>
      </trkpt>
      <trkpt lat="44.32829" lon="5.20005">
        <ele>662.1</ele>
        <time>2022-07-18T07:16:05Z</time>
      </trkpt>
      <trkpt lat="44.32831" lon="5.20004">
        <ele>662.3</ele>
        <time>2022-07-18T07:16:06Z</time>
      </trkpt>
      <trkpt lat="44.32832" lon="5.20003">
        <ele>662.4</ele>
        <time>2022-07-18T07:16:07Z</time>
      </trkpt>
      <trkpt lat="44.32833" lon="5.20001">
        <ele>662.6</ele>
        <time>2022-07-18T07:16:08Z</time>
      </trkpt>
      <trkpt lat="44.32834" lon="5.19998">
        <ele>662.7</ele>
        <time>2022-07-18T07:16:09Z</time>
      </trkpt>
      <trkpt lat="44.32834" lon="5.19996">
        <ele>662.9</ele>
        <time>2022-07-18T07:16:10Z</time>
      </trkpt>
      <trkpt lat="44.32835" lon="5.19995">
        <ele>663</ele>
        <time>2022-07-18T07:16:11Z</time>
      </trkpt>
      <trkpt lat="44.32835" lon="5.19993">
        <ele>663.1</ele>
        <time>2022-07-18T07:16:12Z</time>
      </trkpt>
      <trkpt lat="44.32835" lon="5.19991">
        <ele>663.2</ele>
        <time>2022-07-18T07:16:13Z</time>
      </trkpt>
      <trkpt lat="44.32835" lon="5.19989">
        <ele>663.4</ele>
        <time>2022-07-18T07:16:14Z</time>
      </trkpt>
      <trkpt lat="44.32835" lon="5.19988">
        <ele>663.5</ele>
        <time>2022-07-18T07:16:15Z</time>
      </trkpt>
      <trkpt lat="44.32836" lon="5.19985">
        <ele>663.7</ele>
        <time>2022-07-18T07:16:16Z</time>
      </trkpt>
      <trkpt lat="44.32836" lon="5.19983">
        <ele>663.8</ele>
        <time>2022-07-18T07:16:17Z</time>
      </trkpt>
      <trkpt lat="44.32836" lon="5.19982">
        <ele>663.9</ele>
        <time>2022-07-18T07:16:18Z</time>
      </trkpt>
      <trkpt lat="44.32836" lon="5.1998">
        <ele>664</ele>
        <time>2022-07-18T07:16:19Z</time>
      </trkpt>
      <trkpt lat="44.32837" lon="5.19978">
        <ele>664.2</ele>
        <time>2022-07-18T07:16:20Z</time>
      </trkpt>
      <trkpt lat="44.32837" lon="5.19976">
        <ele>664.3</ele>
        <time>2022-07-18T07:16:21Z</time>
      </trkpt>
      <trkpt lat="44.32838" lon="5.19974">
        <ele>664.5</ele>
        <time>2022-07-18T07:16:22Z</time>
      </trkpt>
      <trkpt lat="44.32839" lon="5.19972">
        <ele>664.6</ele>
        <time>2022-07-18T07:16:23Z</time>
      </trkpt>
      <trkpt lat="44.3284" lon="5.19971">
        <ele>664.8</ele>
        <time>2022-07-18T07:16:24Z</time>
      </trkpt>
      <trkpt lat="44.32841" lon="5.19969">
        <ele>665</ele>
        <time>2022-07-18T07:16:25Z</time>
      </trkpt>
      <trkpt lat="44.32842" lon="5.19968">
        <ele>665.1</ele>
        <time>2022-07-18T07:16:26Z</time>
      </trkpt>
      <trkpt lat="44.32843" lon="5.19967">
        <ele>665.1</ele>
        <time>2022-07-18T07:16:27Z</time>
      </trkpt>
      <trkpt lat="44.32844" lon="5.19966">
        <ele>665.3</ele>
        <time>2022-07-18T07:16:28Z</time>
      </trkpt>
      <trkpt lat="44.32845" lon="5.19964">
        <ele>665.5</ele>
        <time>2022-07-18T07:16:29Z</time>
      </trkpt>
      <trkpt lat="44.32846" lon="5.19963">
        <ele>665.6</ele>
        <time>2022-07-18T07:16:30Z</time>
      </trkpt>
      <trkpt lat="44.32847" lon="5.19962">
        <ele>665.7</ele>
        <time>2022-07-18T07:16:31Z</time>
      </trkpt>
      <trkpt lat="44.32848" lon="5.1996">
        <ele>665.9</ele>
        <time>2022-07-18T07:16:32Z</time>
      </trkpt>
      <trkpt lat="44.3285" lon="5.19958">
        <ele>666.1</ele>
        <time>2022-07-18T07:16:33Z</time>
      </trkpt>
      <trkpt lat="44.32851" lon="5.19957">
        <ele>666.2</ele>
        <time>2022-07-18T07:16:34Z</time>
      </trkpt>
      <trkpt lat="44.32852" lon="5.19955">
        <ele>666.4</ele>
        <time>2022-07-18T07:16:35Z</time>
      </trkpt>
      <trkpt lat="44.32854" lon="5.19954">
        <ele>666.6</ele>
        <time>2022-07-18T07:16:36Z</time>
      </trkpt>
      <trkpt lat="44.32855" lon="5.19952">
        <ele>666.7</ele>
        <time>2022-07-18T07:16:37Z</time>
      </trkpt>
      <trkpt lat="44.32856" lon="5.19951">
        <ele>666.9</ele>
        <time>2022-07-18T07:16:38Z</time>
      </trkpt>
      <trkpt lat="44.32857" lon="5.19951">
        <ele>667</ele>
        <time>2022-07-18T07:16:39Z</time>
      </trkpt>
      <trkpt lat="44.32859" lon="5.19951">
        <ele>667.1</ele>
        <time>2022-07-18T07:16:40Z</time>
      </trkpt>
      <trkpt lat="44.3286" lon="5.19951">
        <ele>667.2</ele>
        <time>2022-07-18T07:16:41Z</time>
      </trkpt>
      <trkpt lat="44.32862" lon="5.19952">
        <ele>667.5</ele>
        <time>2022-07-18T07:16:42Z</time>
      </trkpt>
      <trkpt lat="44.32863" lon="5.19952">
        <ele>667.6</ele>
        <time>2022-07-18T07:16:43Z</time>
      </trkpt>
      <trkpt lat="44.32864" lon="5.19952">
        <ele>667.6</ele>
        <time>2022-07-18T07:16:44Z</time>
      </trkpt>
      <trkpt lat="44.32866" lon="5.19953">
        <ele>667.8</ele>
        <time>2022-07-18T07:16:45Z</time>
      </trkpt>
      <trkpt lat="44.32867" lon="5.19954">
        <ele>668</ele>
        <time>2022-07-18T07:16:46Z</time>
      </trkpt>
      <trkpt lat="44.32869" lon="5.19954">
        <ele>668.1</ele>
        <time>2022-07-18T07:16:47Z</time>
      </trkpt>
      <trkpt lat="44.3287" lon="5.19955">
        <ele>668.2</ele>
        <time>2022-07-18T07:16:48Z</time>
      </trkpt>
      <trkpt lat="44.32871" lon="5.19956">
        <ele>668.3</ele>
        <time>2022-07-18T07:16:49Z</time>
      </trkpt>
      <trkpt lat="44.32873" lon="5.19956">
        <ele>668.5</ele>
        <time>2022-07-18T07:16:50Z</time>
      </trkpt>
      <trkpt lat="44.32875" lon="5.19957">
        <ele>668.6</ele>
        <time>2022-07-18T07:16:51Z</time>
      </trkpt>
      <trkpt lat="44.32876" lon="5.19958">
        <ele>668.7</ele>
        <time>2022-07-18T07:16:52Z</time>
      </trkpt>
      <trkpt lat="44.32878" lon="5.19959">
        <ele>668.8</ele>
        <time>2022-07-18T07:16:53Z</time>
      </trkpt>
      <trkpt lat="44.32879" lon="5.19959">
        <ele>669</ele>
        <time>2022-07-18T07:16:54Z</time>
      </trkpt>
      <trkpt lat="44.32881" lon="5.1996">
        <ele>669.1</ele>
        <time>2022-07-18T07:16:55Z</time>
      </trkpt>
      <trkpt lat="44.32882" lon="5.19961">
        <ele>669.2</ele>
        <time>2022-07-18T07:16:56Z</time>
      </trkpt>
      <trkpt lat="44.32884" lon="5.19964">
        <ele>669.4</ele>
        <time>2022-07-18T07:16:57Z</time>
      </trkpt>
      <trkpt lat="44.32884" lon="5.19964">
        <ele>669.4</ele>
        <time>2022-07-18T07:16:58Z</time>
      </trkpt>
      <trkpt lat="44.32885" lon="5.19965">
        <ele>669.5</ele>
        <time>2022-07-18T07:16:59Z</time>
      </trkpt>
      <trkpt lat="44.32886" lon="5.19966">
        <ele>669.6</ele>
        <time>2022-07-18T07:17:00Z</time>
      </trkpt>
      <trkpt lat="44.32887" lon="5.19967">
        <ele>669.7</ele>
        <time>2022-07-18T07:17:01Z</time>
      </trkpt>
      <trkpt lat="44.32888" lon="5.19968">
        <ele>669.8</ele>
        <time>2022-07-18T07:17:02Z</time>
      </trkpt>
      <trkpt lat="44.32888" lon="5.19969">
        <ele>669.9</ele>
        <time>2022-07-18T07:17:03Z</time>
      </trkpt>
      <trkpt lat="44.32889" lon="5.19971">
        <ele>670</ele>
        <time>2022-07-18T07:17:04Z</time>
      </trkpt>
      <trkpt lat="44.3289" lon="5.19973">
        <ele>670.2</ele>
        <time>2022-07-18T07:17:05Z</time>
      </trkpt>
      <trkpt lat="44.32891" lon="5.19974">
        <ele>670.3</ele>
        <time>2022-07-18T07:17:06Z</time>
      </trkpt>
      <trkpt lat="44.32892" lon="5.19977">
        <ele>670.5</ele>
        <time>2022-07-18T07:17:07Z</time>
      </trkpt>
      <trkpt lat="44.32892" lon="5.19978">
        <ele>670.6</ele>
        <time>2022-07-18T07:17:08Z</time>
      </trkpt>
      <trkpt lat="44.32893" lon="5.19979">
        <ele>670.6</ele>
        <time>2022-07-18T07:17:09Z</time>
      </trkpt>
      <trkpt lat="44.32893" lon="5.19981">
        <ele>670.8</ele>
        <time>2022-07-18T07:17:10Z</time>
      </trkpt>
      <trkpt lat="44.32893" lon="5.19982">
        <ele>670.9</ele>
        <time>2022-07-18T07:17:11Z</time>
      </trkpt>
      <trkpt lat="44.32894" lon="5.19984">
        <ele>671</ele>
        <time>2022-07-18T07:17:12Z</time>
      </trkpt>
      <trkpt lat="44.32894" lon="5.19986">
        <ele>671.1</ele>
        <time>2022-07-18T07:17:13Z</time>
      </trkpt>
      <trkpt lat="44.32894" lon="5.19987">
        <ele>671.2</ele>
        <time>2022-07-18T07:17:14Z</time>
      </trkpt>
      <trkpt lat="44.32894" lon="5.19988">
        <ele>671.3</ele>
        <time>2022-07-18T07:17:15Z</time>
      </trkpt>
      <trkpt lat="44.32894" lon="5.19989">
        <ele>671.3</ele>
        <time>2022-07-18T07:17:16Z</time>
      </trkpt>
      <trkpt lat="44.32895" lon="5.1999">
        <ele>671.4</ele>
        <time>2022-07-18T07:17:17Z</time>
      </trkpt>
      <trkpt lat="44.32895" lon="5.19992">
        <ele>671.5</ele>
        <time>2022-07-18T07:17:18Z</time>
      </trkpt>
      <trkpt lat="44.32896" lon="5.19993">
        <ele>671.6</ele>
        <time>2022-07-18T07:17:19Z</time>
      </trkpt>
      <trkpt lat="44.32896" lon="5.19995">
        <ele>671.7</ele>
        <time>2022-07-18T07:17:20Z</time>
      </trkpt>
      <trkpt lat="44.32897" lon="5.19997">
        <ele>671.9</ele>
        <time>2022-07-18T07:17:21Z</time>
      </trkpt>
      <trkpt lat="44.32897" lon="5.19998">
        <ele>672</ele>
        <time>2022-07-18T07:17:22Z</time>
      </trkpt>
      <trkpt lat="44.32897" lon="5.2">
        <ele>672.1</ele>
        <time>2022-07-18T07:17:23Z</time>
      </trkpt>
      <trkpt lat="44.32897" lon="5.20001">
        <ele>672.2</ele>
        <time>2022-07-18T07:17:24Z</time>
      </trkpt>
      <trkpt lat="44.32898" lon="5.20003">
        <ele>672.3</ele>
        <time>2022-07-18T07:17:25Z</time>
      </trkpt>
      <trkpt lat="44.32899" lon="5.20004">
        <ele>672.4</ele>
        <time>2022-07-18T07:17:26Z</time>
      </trkpt>
      <trkpt lat="44.329" lon="5.20006">
        <ele>672.5</ele>
        <time>2022-07-18T07:17:27Z</time>
      </trkpt>
      <trkpt lat="44.32901" lon="5.20007">
        <ele>672.6</ele>
        <time>2022-07-18T07:17:28Z</time>
      </trkpt>
      <trkpt lat="44.32903" lon="5.20008">
        <ele>672.8</ele>
        <time>2022-07-18T07:17:29Z</time>
      </trkpt>
      <trkpt lat="44.32904" lon="5.20009">
        <ele>672.9</ele>
        <time>2022-07-18T07:17:30Z</time>
      </trkpt>
      <trkpt lat="44.32906" lon="5.2001">
        <ele>673.1</ele>
        <time>2022-07-18T07:17:31Z</time>
      </trkpt>
      <trkpt lat="44.32908" lon="5.20012">
        <ele>673.3</ele>
        <time>2022-07-18T07:17:32Z</time>
      </trkpt>
      <trkpt lat="44.32909" lon="5.20013">
        <ele>673.4</ele>
        <time>2022-07-18T07:17:33Z</time>
      </trkpt>
      <trkpt lat="44.32911" lon="5.20015">
        <ele>673.7</ele>
        <time>2022-07-18T07:17:34Z</time>
      </trkpt>
      <trkpt lat="44.32912" lon="5.20016">
        <ele>673.8</ele>
        <time>2022-07-18T07:17:35Z</time>
      </trkpt>
      <trkpt lat="44.32914" lon="5.20018">
        <ele>674</ele>
        <time>2022-07-18T07:17:36Z</time>
      </trkpt>
      <trkpt lat="44.32915" lon="5.20019">
        <ele>674.1</ele>
        <time>2022-07-18T07:17:37Z</time>
      </trkpt>
      <trkpt lat="44.32918" lon="5.20021">
        <ele>674.4</ele>
        <time>2022-07-18T07:17:38Z</time>
      </trkpt>
      <trkpt lat="44.32918" lon="5.20021">
        <ele>674.4</ele>
        <time>2022-07-18T07:17:39Z</time>
      </trkpt>
      <trkpt lat="44.3292" lon="5.20022">
        <ele>674.6</ele>
        <time>2022-07-18T07:17:40Z</time>
      </trkpt>
      <trkpt lat="44.32921" lon="5.20024">
        <ele>674.8</ele>
        <time>2022-07-18T07:17:41Z</time>
      </trkpt>
      <trkpt lat="44.32924" lon="5.20026">
        <ele>675</ele>
        <time>2022-07-18T07:17:42Z</time>
      </trkpt>
      <trkpt lat="44.32924" lon="5.20027">
        <ele>675.1</ele>
        <time>2022-07-18T07:17:43Z</time>
      </trkpt>
      <trkpt lat="44.32925" lon="5.20028">
        <ele>675.2</ele>
        <time>2022-07-18T07:17:44Z</time>
      </trkpt>
      <trkpt lat="44.32927" lon="5.20029">
        <ele>675.4</ele>
        <time>2022-07-18T07:17:45Z</time>
      </trkpt>
      <trkpt lat="44.32928" lon="5.2003">
        <ele>675.5</ele>
        <time>2022-07-18T07:17:46Z</time>
      </trkpt>
      <trkpt lat="44.3293" lon="5.20032">
        <ele>675.7</ele>
        <time>2022-07-18T07:17:47Z</time>
      </trkpt>
      <trkpt lat="44.32931" lon="5.20033">
        <ele>675.9</ele>
        <time>2022-07-18T07:17:48Z</time>
      </trkpt>
      <trkpt lat="44.32932" lon="5.20034">
        <ele>675.9</ele>
        <time>2022-07-18T07:17:49Z</time>
      </trkpt>
      <trkpt lat="44.32933" lon="5.20035">
        <ele>676</ele>
        <time>2022-07-18T07:17:50Z</time>
      </trkpt>
      <trkpt lat="44.32934" lon="5.20036">
        <ele>676.2</ele>
        <time>2022-07-18T07:17:51Z</time>
      </trkpt>
      <trkpt lat="44.32935" lon="5.20037">
        <ele>676.3</ele>
        <time>2022-07-18T07:17:52Z</time>
      </trkpt>
      <trkpt lat="44.32937" lon="5.2004">
        <ele>676.6</ele>
        <time>2022-07-18T07:17:53Z</time>
      </trkpt>
      <trkpt lat="44.32938" lon="5.20041">
        <ele>676.7</ele>
        <time>2022-07-18T07:17:54Z</time>
      </trkpt>
      <trkpt lat="44.3294" lon="5.20044">
        <ele>676.9</ele>
        <time>2022-07-18T07:17:55Z</time>
      </trkpt>
      <trkpt lat="44.3294" lon="5.20045">
        <ele>677</ele>
        <time>2022-07-18T07:17:56Z</time>
      </trkpt>
      <trkpt lat="44.32942" lon="5.20047">
        <ele>677.2</ele>
        <time>2022-07-18T07:17:57Z</time>
      </trkpt>
      <trkpt lat="44.32942" lon="5.20048">
        <ele>677.3</ele>
        <time>2022-07-18T07:17:58Z</time>
      </trkpt>
      <trkpt lat="44.32942" lon="5.20049">
        <ele>677.4</ele>
        <time>2022-07-18T07:17:59Z</time>
      </trkpt>
      <trkpt lat="44.32943" lon="5.20051">
        <ele>677.5</ele>
        <time>2022-07-18T07:18:00Z</time>
      </trkpt>
      <trkpt lat="44.32943" lon="5.20052">
        <ele>677.6</ele>
        <time>2022-07-18T07:18:01Z</time>
      </trkpt>
      <trkpt lat="44.32943" lon="5.20053">
        <ele>677.7</ele>
        <time>2022-07-18T07:18:02Z</time>
      </trkpt>
      <trkpt lat="44.32943" lon="5.20056">
        <ele>677.9</ele>
        <time>2022-07-18T07:18:03Z</time>
      </trkpt>
      <trkpt lat="44.32943" lon="5.20058">
        <ele>678</ele>
        <time>2022-07-18T07:18:04Z</time>
      </trkpt>
      <trkpt lat="44.32943" lon="5.20059">
        <ele>678</ele>
        <time>2022-07-18T07:18:05Z</time>
      </trkpt>
      <trkpt lat="44.32942" lon="5.2006">
        <ele>678.1</ele>
        <time>2022-07-18T07:18:06Z</time>
      </trkpt>
      <trkpt lat="44.32942" lon="5.20062">
        <ele>678.2</ele>
        <time>2022-07-18T07:18:07Z</time>
      </trkpt>
      <trkpt lat="44.32941" lon="5.20063">
        <ele>678.3</ele>
        <time>2022-07-18T07:18:08Z</time>
      </trkpt>
      <trkpt lat="44.32941" lon="5.20064">
        <ele>678.4</ele>
        <time>2022-07-18T07:18:09Z</time>
      </trkpt>
      <trkpt lat="44.32941" lon="5.20066">
        <ele>678.5</ele>
        <time>2022-07-18T07:18:10Z</time>
      </trkpt>
      <trkpt lat="44.32941" lon="5.20067">
        <ele>678.6</ele>
        <time>2022-07-18T07:18:11Z</time>
      </trkpt>
      <trkpt lat="44.32941" lon="5.2007">
        <ele>678.7</ele>
        <time>2022-07-18T07:18:12Z</time>
      </trkpt>
      <trkpt lat="44.3294" lon="5.2007">
        <ele>678.8</ele>
        <time>2022-07-18T07:18:13Z</time>
      </trkpt>
      <trkpt lat="44.3294" lon="5.20071">
        <ele>678.8</ele>
        <time>2022-07-18T07:18:14Z</time>
      </trkpt>
      <trkpt lat="44.3294" lon="5.20072">
        <ele>678.9</ele>
        <time>2022-07-18T07:18:15Z</time>
      </trkpt>
      <trkpt lat="44.3294" lon="5.20074">
        <ele>679</ele>
        <time>2022-07-18T07:18:16Z</time>
      </trkpt>
      <trkpt lat="44.3294" lon="5.20075">
        <ele>679.1</ele>
        <time>2022-07-18T07:18:17Z</time>
      </trkpt>
      <trkpt lat="44.3294" lon="5.20076">
        <ele>679.2</ele>
        <time>2022-07-18T07:18:18Z</time>
      </trkpt>
      <trkpt lat="44.32939" lon="5.20077">
        <ele>679.2</ele>
        <time>2022-07-18T07:18:19Z</time>
      </trkpt>
      <trkpt lat="44.32939" lon="5.20079">
        <ele>679.3</ele>
        <time>2022-07-18T07:18:20Z</time>
      </trkpt>
      <trkpt lat="44.32939" lon="5.2008">
        <ele>679.4</ele>
        <time>2022-07-18T07:18:21Z</time>
      </trkpt>
      <trkpt lat="44.32939" lon="5.20083">
        <ele>679.6</ele>
        <time>2022-07-18T07:18:22Z</time>
      </trkpt>
      <trkpt lat="44.32939" lon="5.20084">
        <ele>679.7</ele>
        <time>2022-07-18T07:18:23Z</time>
      </trkpt>
      <trkpt lat="44.32938" lon="5.20086">
        <ele>679.7</ele>
        <time>2022-07-18T07:18:24Z</time>
      </trkpt>
      <trkpt lat="44.32938" lon="5.20087">
        <ele>679.8</ele>
        <time>2022-07-18T07:18:25Z</time>
      </trkpt>
      <trkpt lat="44.32938" lon="5.20089">
        <ele>679.9</ele>
        <time>2022-07-18T07:18:26Z</time>
      </trkpt>
      <trkpt lat="44.32937" lon="5.20093">
        <ele>680.2</ele>
        <time>2022-07-18T07:18:27Z</time>
      </trkpt>
      <trkpt lat="44.32937" lon="5.20094">
        <ele>680.2</ele>
        <time>2022-07-18T07:18:28Z</time>
      </trkpt>
      <trkpt lat="44.32936" lon="5.20096">
        <ele>680.3</ele>
        <time>2022-07-18T07:18:29Z</time>
      </trkpt>
      <trkpt lat="44.32935" lon="5.20098">
        <ele>680.4</ele>
        <time>2022-07-18T07:18:30Z</time>
      </trkpt>
      <trkpt lat="44.32935" lon="5.201">
        <ele>680.6</ele>
        <time>2022-07-18T07:18:31Z</time>
      </trkpt>
      <trkpt lat="44.32934" lon="5.20102">
        <ele>680.7</ele>
        <time>2022-07-18T07:18:32Z</time>
      </trkpt>
      <trkpt lat="44.32933" lon="5.20103">
        <ele>680.8</ele>
        <time>2022-07-18T07:18:33Z</time>
      </trkpt>
      <trkpt lat="44.32932" lon="5.20105">
        <ele>680.9</ele>
        <time>2022-07-18T07:18:34Z</time>
      </trkpt>
      <trkpt lat="44.32932" lon="5.20108">
        <ele>681</ele>
        <time>2022-07-18T07:18:35Z</time>
      </trkpt>
      <trkpt lat="44.32931" lon="5.2011">
        <ele>681.1</ele>
        <time>2022-07-18T07:18:36Z</time>
      </trkpt>
      <trkpt lat="44.32931" lon="5.20111">
        <ele>681.2</ele>
        <time>2022-07-18T07:18:37Z</time>
      </trkpt>
      <trkpt lat="44.32931" lon="5.20114">
        <ele>681.3</ele>
        <time>2022-07-18T07:18:38Z</time>
      </trkpt>
      <trkpt lat="44.3293" lon="5.20117">
        <ele>681.5</ele>
        <time>2022-07-18T07:18:39Z</time>
      </trkpt>
      <trkpt lat="44.3293" lon="5.20119">
        <ele>681.6</ele>
        <time>2022-07-18T07:18:40Z</time>
      </trkpt>
      <trkpt lat="44.32929" lon="5.20121">
        <ele>681.7</ele>
        <time>2022-07-18T07:18:41Z</time>
      </trkpt>
      <trkpt lat="44.32929" lon="5.20123">
        <ele>681.8</ele>
        <time>2022-07-18T07:18:42Z</time>
      </trkpt>
      <trkpt lat="44.32929" lon="5.20125">
        <ele>681.9</ele>
        <time>2022-07-18T07:18:43Z</time>
      </trkpt>
      <trkpt lat="44.32929" lon="5.20128">
        <ele>682</ele>
        <time>2022-07-18T07:18:44Z</time>
      </trkpt>
      <trkpt lat="44.32928" lon="5.2013">
        <ele>682.1</ele>
        <time>2022-07-18T07:18:45Z</time>
      </trkpt>
      <trkpt lat="44.32929" lon="5.20132">
        <ele>682.2</ele>
        <time>2022-07-18T07:18:46Z</time>
      </trkpt>
      <trkpt lat="44.32929" lon="5.20134">
        <ele>682.3</ele>
        <time>2022-07-18T07:18:47Z</time>
      </trkpt>
      <trkpt lat="44.32928" lon="5.20137">
        <ele>682.4</ele>
        <time>2022-07-18T07:18:48Z</time>
      </trkpt>
      <trkpt lat="44.32928" lon="5.20141">
        <ele>682.6</ele>
        <time>2022-07-18T07:18:49Z</time>
      </trkpt>
      <trkpt lat="44.32928" lon="5.20143">
        <ele>682.7</ele>
        <time>2022-07-18T07:18:50Z</time>
      </trkpt>
      <trkpt lat="44.32929" lon="5.20147">
        <ele>682.9</ele>
        <time>2022-07-18T07:18:51Z</time>
      </trkpt>
      <trkpt lat="44.32929" lon="5.20148">
        <ele>682.9</ele>
        <time>2022-07-18T07:18:52Z</time>
      </trkpt>
      <trkpt lat="44.32929" lon="5.20149">
        <ele>683</ele>
        <time>2022-07-18T07:18:53Z</time>
      </trkpt>
      <trkpt lat="44.32929" lon="5.20151">
        <ele>683.1</ele>
        <time>2022-07-18T07:18:54Z</time>
      </trkpt>
      <trkpt lat="44.32929" lon="5.20152">
        <ele>683.2</ele>
        <time>2022-07-18T07:18:55Z</time>
      </trkpt>
      <trkpt lat="44.32928" lon="5.20153">
        <ele>683.3</ele>
        <time>2022-07-18T07:18:56Z</time>
      </trkpt>
      <trkpt lat="44.32928" lon="5.20155">
        <ele>683.3</ele>
        <time>2022-07-18T07:18:57Z</time>
      </trkpt>
      <trkpt lat="44.32928" lon="5.20156">
        <ele>683.4</ele>
        <time>2022-07-18T07:18:58Z</time>
      </trkpt>
      <trkpt lat="44.32927" lon="5.20159">
        <ele>683.6</ele>
        <time>2022-07-18T07:18:59Z</time>
      </trkpt>
      <trkpt lat="44.32927" lon="5.2016">
        <ele>683.7</ele>
        <time>2022-07-18T07:19:00Z</time>
      </trkpt>
      <trkpt lat="44.32927" lon="5.20161">
        <ele>683.7</ele>
        <time>2022-07-18T07:19:01Z</time>
      </trkpt>
      <trkpt lat="44.32925" lon="5.20164">
        <ele>683.9</ele>
        <time>2022-07-18T07:19:02Z</time>
      </trkpt>
      <trkpt lat="44.32925" lon="5.20165">
        <ele>684</ele>
        <time>2022-07-18T07:19:03Z</time>
      </trkpt>
      <trkpt lat="44.32924" lon="5.20166">
        <ele>684.1</ele>
        <time>2022-07-18T07:19:04Z</time>
      </trkpt>
      <trkpt lat="44.32924" lon="5.20168">
        <ele>684.2</ele>
        <time>2022-07-18T07:19:05Z</time>
      </trkpt>
      <trkpt lat="44.32925" lon="5.2017">
        <ele>684.3</ele>
        <time>2022-07-18T07:19:06Z</time>
      </trkpt>
      <trkpt lat="44.32925" lon="5.20172">
        <ele>684.4</ele>
        <time>2022-07-18T07:19:07Z</time>
      </trkpt>
      <trkpt lat="44.32926" lon="5.20174">
        <ele>684.6</ele>
        <time>2022-07-18T07:19:08Z</time>
      </trkpt>
      <trkpt lat="44.32926" lon="5.20177">
        <ele>684.7</ele>
        <time>2022-07-18T07:19:09Z</time>
      </trkpt>
      <trkpt lat="44.32926" lon="5.20179">
        <ele>684.8</ele>
        <time>2022-07-18T07:19:10Z</time>
      </trkpt>
      <trkpt lat="44.32926" lon="5.20181">
        <ele>685</ele>
        <time>2022-07-18T07:19:11Z</time>
      </trkpt>
      <trkpt lat="44.32927" lon="5.20183">
        <ele>685.1</ele>
        <time>2022-07-18T07:19:12Z</time>
      </trkpt>
      <trkpt lat="44.32927" lon="5.20185">
        <ele>685.2</ele>
        <time>2022-07-18T07:19:13Z</time>
      </trkpt>
      <trkpt lat="44.32928" lon="5.20188">
        <ele>685.4</ele>
        <time>2022-07-18T07:19:14Z</time>
      </trkpt>
      <trkpt lat="44.32928" lon="5.20191">
        <ele>685.6</ele>
        <time>2022-07-18T07:19:15Z</time>
      </trkpt>
      <trkpt lat="44.32929" lon="5.20192">
        <ele>685.7</ele>
        <time>2022-07-18T07:19:16Z</time>
      </trkpt>
      <trkpt lat="44.32929" lon="5.20193">
        <ele>685.7</ele>
        <time>2022-07-18T07:19:17Z</time>
      </trkpt>
      <trkpt lat="44.32929" lon="5.20195">
        <ele>685.9</ele>
        <time>2022-07-18T07:19:18Z</time>
      </trkpt>
      <trkpt lat="44.32929" lon="5.20197">
        <ele>686</ele>
        <time>2022-07-18T07:19:19Z</time>
      </trkpt>
      <trkpt lat="44.32929" lon="5.20199">
        <ele>686.1</ele>
        <time>2022-07-18T07:19:20Z</time>
      </trkpt>
      <trkpt lat="44.32929" lon="5.202">
        <ele>686.2</ele>
        <time>2022-07-18T07:19:21Z</time>
      </trkpt>
      <trkpt lat="44.32929" lon="5.202">
        <ele>686.2</ele>
        <time>2022-07-18T07:19:22Z</time>
      </trkpt>
      <trkpt lat="44.32929" lon="5.20202">
        <ele>686.4</ele>
        <time>2022-07-18T07:19:23Z</time>
      </trkpt>
      <trkpt lat="44.3293" lon="5.20206">
        <ele>686.6</ele>
        <time>2022-07-18T07:19:24Z</time>
      </trkpt>
      <trkpt lat="44.32931" lon="5.20207">
        <ele>686.7</ele>
        <time>2022-07-18T07:19:25Z</time>
      </trkpt>
      <trkpt lat="44.32931" lon="5.20209">
        <ele>686.9</ele>
        <time>2022-07-18T07:19:26Z</time>
      </trkpt>
      <trkpt lat="44.32931" lon="5.20211">
        <ele>687.1</ele>
        <time>2022-07-18T07:19:27Z</time>
      </trkpt>
      <trkpt lat="44.32932" lon="5.20214">
        <ele>687.2</ele>
        <time>2022-07-18T07:19:28Z</time>
      </trkpt>
      <trkpt lat="44.32932" lon="5.20216">
        <ele>687.4</ele>
        <time>2022-07-18T07:19:29Z</time>
      </trkpt>
      <trkpt lat="44.32933" lon="5.20218">
        <ele>687.6</ele>
        <time>2022-07-18T07:19:30Z</time>
      </trkpt>
      <trkpt lat="44.32934" lon="5.2022">
        <ele>687.8</ele>
        <time>2022-07-18T07:19:31Z</time>
      </trkpt>
      <trkpt lat="44.32935" lon="5.20224">
        <ele>688.1</ele>
        <time>2022-07-18T07:19:32Z</time>
      </trkpt>
      <trkpt lat="44.32935" lon="5.20226">
        <ele>688.2</ele>
        <time>2022-07-18T07:19:33Z</time>
      </trkpt>
      <trkpt lat="44.32935" lon="5.20228">
        <ele>688.4</ele>
        <time>2022-07-18T07:19:34Z</time>
      </trkpt>
      <trkpt lat="44.32936" lon="5.2023">
        <ele>688.6</ele>
        <time>2022-07-18T07:19:35Z</time>
      </trkpt>
      <trkpt lat="44.32936" lon="5.20232">
        <ele>688.7</ele>
        <time>2022-07-18T07:19:36Z</time>
      </trkpt>
      <trkpt lat="44.32936" lon="5.20234">
        <ele>688.8</ele>
        <time>2022-07-18T07:19:37Z</time>
      </trkpt>
      <trkpt lat="44.32936" lon="5.20235">
        <ele>688.9</ele>
        <time>2022-07-18T07:19:38Z</time>
      </trkpt>
      <trkpt lat="44.32936" lon="5.20237">
        <ele>689</ele>
        <time>2022-07-18T07:19:39Z</time>
      </trkpt>
      <trkpt lat="44.32937" lon="5.20239">
        <ele>689.2</ele>
        <time>2022-07-18T07:19:40Z</time>
      </trkpt>
      <trkpt lat="44.32937" lon="5.20241">
        <ele>689.3</ele>
        <time>2022-07-18T07:19:41Z</time>
      </trkpt>
      <trkpt lat="44.32938" lon="5.20243">
        <ele>689.5</ele>
        <time>2022-07-18T07:19:42Z</time>
      </trkpt>
      <trkpt lat="44.32939" lon="5.20245">
        <ele>689.6</ele>
        <time>2022-07-18T07:19:43Z</time>
      </trkpt>
      <trkpt lat="44.3294" lon="5.20246">
        <ele>689.7</ele>
        <time>2022-07-18T07:19:44Z</time>
      </trkpt>
      <trkpt lat="44.32941" lon="5.20247">
        <ele>689.9</ele>
        <time>2022-07-18T07:19:45Z</time>
      </trkpt>
      <trkpt lat="44.32942" lon="5.20249">
        <ele>690</ele>
        <time>2022-07-18T07:19:46Z</time>
      </trkpt>
      <trkpt lat="44.32943" lon="5.2025">
        <ele>690.2</ele>
        <time>2022-07-18T07:19:47Z</time>
      </trkpt>
      <trkpt lat="44.32944" lon="5.20252">
        <ele>690.3</ele>
        <time>2022-07-18T07:19:48Z</time>
      </trkpt>
      <trkpt lat="44.32946" lon="5.20253">
        <ele>690.5</ele>
        <time>2022-07-18T07:19:49Z</time>
      </trkpt>
      <trkpt lat="44.32947" lon="5.20255">
        <ele>690.6</ele>
        <time>2022-07-18T07:19:50Z</time>
      </trkpt>
      <trkpt lat="44.32949" lon="5.20256">
        <ele>690.8</ele>
        <time>2022-07-18T07:19:51Z</time>
      </trkpt>
      <trkpt lat="44.3295" lon="5.20257">
        <ele>690.9</ele>
        <time>2022-07-18T07:19:52Z</time>
      </trkpt>
      <trkpt lat="44.32951" lon="5.20258">
        <ele>691.1</ele>
        <time>2022-07-18T07:19:53Z</time>
      </trkpt>
      <trkpt lat="44.32953" lon="5.20259">
        <ele>691.2</ele>
        <time>2022-07-18T07:19:54Z</time>
      </trkpt>
      <trkpt lat="44.32954" lon="5.2026">
        <ele>691.4</ele>
        <time>2022-07-18T07:19:55Z</time>
      </trkpt>
      <trkpt lat="44.32956" lon="5.20261">
        <ele>691.5</ele>
        <time>2022-07-18T07:19:56Z</time>
      </trkpt>
      <trkpt lat="44.32957" lon="5.20263">
        <ele>691.7</ele>
        <time>2022-07-18T07:19:57Z</time>
      </trkpt>
      <trkpt lat="44.32958" lon="5.20264">
        <ele>691.8</ele>
        <time>2022-07-18T07:19:58Z</time>
      </trkpt>
      <trkpt lat="44.3296" lon="5.20265">
        <ele>692</ele>
        <time>2022-07-18T07:19:59Z</time>
      </trkpt>
      <trkpt lat="44.32962" lon="5.20266">
        <ele>692.1</ele>
        <time>2022-07-18T07:20:00Z</time>
      </trkpt>
      <trkpt lat="44.32963" lon="5.20267">
        <ele>692.3</ele>
        <time>2022-07-18T07:20:01Z</time>
      </trkpt>
      <trkpt lat="44.32965" lon="5.20268">
        <ele>692.4</ele>
        <time>2022-07-18T07:20:02Z</time>
      </trkpt>
      <trkpt lat="44.32966" lon="5.20269">
        <ele>692.6</ele>
        <time>2022-07-18T07:20:03Z</time>
      </trkpt>
      <trkpt lat="44.32968" lon="5.2027">
        <ele>692.7</ele>
        <time>2022-07-18T07:20:04Z</time>
      </trkpt>
      <trkpt lat="44.32969" lon="5.2027">
        <ele>692.8</ele>
        <time>2022-07-18T07:20:05Z</time>
      </trkpt>
      <trkpt lat="44.32971" lon="5.20271">
        <ele>693</ele>
        <time>2022-07-18T07:20:06Z</time>
      </trkpt>
      <trkpt lat="44.32972" lon="5.20272">
        <ele>693.1</ele>
        <time>2022-07-18T07:20:07Z</time>
      </trkpt>
      <trkpt lat="44.32974" lon="5.20272">
        <ele>693.3</ele>
        <time>2022-07-18T07:20:08Z</time>
      </trkpt>
      <trkpt lat="44.32975" lon="5.20272">
        <ele>693.4</ele>
        <time>2022-07-18T07:20:09Z</time>
      </trkpt>
      <trkpt lat="44.32977" lon="5.20273">
        <ele>693.5</ele>
        <time>2022-07-18T07:20:10Z</time>
      </trkpt>
      <trkpt lat="44.3298" lon="5.20273">
        <ele>693.8</ele>
        <time>2022-07-18T07:20:11Z</time>
      </trkpt>
      <trkpt lat="44.32981" lon="5.20273">
        <ele>693.9</ele>
        <time>2022-07-18T07:20:12Z</time>
      </trkpt>
      <trkpt lat="44.32983" lon="5.20274">
        <ele>694</ele>
        <time>2022-07-18T07:20:13Z</time>
      </trkpt>
      <trkpt lat="44.32984" lon="5.20275">
        <ele>694.1</ele>
        <time>2022-07-18T07:20:14Z</time>
      </trkpt>
      <trkpt lat="44.32987" lon="5.20276">
        <ele>694.4</ele>
        <time>2022-07-18T07:20:15Z</time>
      </trkpt>
      <trkpt lat="44.32988" lon="5.20277">
        <ele>694.5</ele>
        <time>2022-07-18T07:20:16Z</time>
      </trkpt>
      <trkpt lat="44.32991" lon="5.20278">
        <ele>694.7</ele>
        <time>2022-07-18T07:20:17Z</time>
      </trkpt>
      <trkpt lat="44.32992" lon="5.20279">
        <ele>694.8</ele>
        <time>2022-07-18T07:20:18Z</time>
      </trkpt>
      <trkpt lat="44.32995" lon="5.20279">
        <ele>695.1</ele>
        <time>2022-07-18T07:20:19Z</time>
      </trkpt>
      <trkpt lat="44.32996" lon="5.20279">
        <ele>695.2</ele>
        <time>2022-07-18T07:20:20Z</time>
      </trkpt>
      <trkpt lat="44.32998" lon="5.2028">
        <ele>695.3</ele>
        <time>2022-07-18T07:20:21Z</time>
      </trkpt>
      <trkpt lat="44.32999" lon="5.2028">
        <ele>695.5</ele>
        <time>2022-07-18T07:20:22Z</time>
      </trkpt>
      <trkpt lat="44.33001" lon="5.20281">
        <ele>695.6</ele>
        <time>2022-07-18T07:20:23Z</time>
      </trkpt>
      <trkpt lat="44.33002" lon="5.20281">
        <ele>695.7</ele>
        <time>2022-07-18T07:20:24Z</time>
      </trkpt>
      <trkpt lat="44.33003" lon="5.20282">
        <ele>695.9</ele>
        <time>2022-07-18T07:20:25Z</time>
      </trkpt>
      <trkpt lat="44.33005" lon="5.20283">
        <ele>696</ele>
        <time>2022-07-18T07:20:26Z</time>
      </trkpt>
      <trkpt lat="44.33007" lon="5.20284">
        <ele>696.2</ele>
        <time>2022-07-18T07:20:27Z</time>
      </trkpt>
      <trkpt lat="44.33008" lon="5.20284">
        <ele>696.3</ele>
        <time>2022-07-18T07:20:28Z</time>
      </trkpt>
      <trkpt lat="44.33009" lon="5.20285">
        <ele>696.4</ele>
        <time>2022-07-18T07:20:29Z</time>
      </trkpt>
      <trkpt lat="44.33011" lon="5.20286">
        <ele>696.6</ele>
        <time>2022-07-18T07:20:30Z</time>
      </trkpt>
      <trkpt lat="44.33012" lon="5.20287">
        <ele>696.7</ele>
        <time>2022-07-18T07:20:31Z</time>
      </trkpt>
      <trkpt lat="44.33014" lon="5.20287">
        <ele>696.9</ele>
        <time>2022-07-18T07:20:32Z</time>
      </trkpt>
      <trkpt lat="44.33015" lon="5.20288">
        <ele>697</ele>
        <time>2022-07-18T07:20:33Z</time>
      </trkpt>
      <trkpt lat="44.33017" lon="5.20289">
        <ele>697.2</ele>
        <time>2022-07-18T07:20:34Z</time>
      </trkpt>
      <trkpt lat="44.33018" lon="5.2029">
        <ele>697.3</ele>
        <time>2022-07-18T07:20:35Z</time>
      </trkpt>
      <trkpt lat="44.33019" lon="5.20291">
        <ele>697.5</ele>
        <time>2022-07-18T07:20:36Z</time>
      </trkpt>
      <trkpt lat="44.33021" lon="5.20293">
        <ele>697.6</ele>
        <time>2022-07-18T07:20:37Z</time>
      </trkpt>
      <trkpt lat="44.33022" lon="5.20294">
        <ele>697.8</ele>
        <time>2022-07-18T07:20:38Z</time>
      </trkpt>
      <trkpt lat="44.33023" lon="5.20295">
        <ele>697.9</ele>
        <time>2022-07-18T07:20:39Z</time>
      </trkpt>
      <trkpt lat="44.33025" lon="5.20296">
        <ele>698.1</ele>
        <time>2022-07-18T07:20:40Z</time>
      </trkpt>
      <trkpt lat="44.33026" lon="5.20297">
        <ele>698.2</ele>
        <time>2022-07-18T07:20:41Z</time>
      </trkpt>
      <trkpt lat="44.33028" lon="5.20298">
        <ele>698.4</ele>
        <time>2022-07-18T07:20:42Z</time>
      </trkpt>
      <trkpt lat="44.33029" lon="5.20299">
        <ele>698.5</ele>
        <time>2022-07-18T07:20:43Z</time>
      </trkpt>
      <trkpt lat="44.33031" lon="5.20299">
        <ele>698.7</ele>
        <time>2022-07-18T07:20:44Z</time>
      </trkpt>
      <trkpt lat="44.33032" lon="5.20299">
        <ele>698.9</ele>
        <time>2022-07-18T07:20:45Z</time>
      </trkpt>
      <trkpt lat="44.33033" lon="5.203">
        <ele>699</ele>
        <time>2022-07-18T07:20:46Z</time>
      </trkpt>
      <trkpt lat="44.33035" lon="5.20301">
        <ele>699.2</ele>
        <time>2022-07-18T07:20:47Z</time>
      </trkpt>
      <trkpt lat="44.33036" lon="5.20302">
        <ele>699.4</ele>
        <time>2022-07-18T07:20:48Z</time>
      </trkpt>
      <trkpt lat="44.33038" lon="5.20304">
        <ele>699.5</ele>
        <time>2022-07-18T07:20:49Z</time>
      </trkpt>
      <trkpt lat="44.33039" lon="5.20305">
        <ele>699.7</ele>
        <time>2022-07-18T07:20:50Z</time>
      </trkpt>
      <trkpt lat="44.3304" lon="5.20307">
        <ele>700</ele>
        <time>2022-07-18T07:20:51Z</time>
      </trkpt>
      <trkpt lat="44.33042" lon="5.20309">
        <ele>700.1</ele>
        <time>2022-07-18T07:20:52Z</time>
      </trkpt>
      <trkpt lat="44.33043" lon="5.2031">
        <ele>700.3</ele>
        <time>2022-07-18T07:20:53Z</time>
      </trkpt>
      <trkpt lat="44.33044" lon="5.20311">
        <ele>700.5</ele>
        <time>2022-07-18T07:20:54Z</time>
      </trkpt>
      <trkpt lat="44.33045" lon="5.20312">
        <ele>700.6</ele>
        <time>2022-07-18T07:20:55Z</time>
      </trkpt>
      <trkpt lat="44.33046" lon="5.20313">
        <ele>700.7</ele>
        <time>2022-07-18T07:20:56Z</time>
      </trkpt>
      <trkpt lat="44.33047" lon="5.20313">
        <ele>700.9</ele>
        <time>2022-07-18T07:20:57Z</time>
      </trkpt>
      <trkpt lat="44.33049" lon="5.20315">
        <ele>701.1</ele>
        <time>2022-07-18T07:20:58Z</time>
      </trkpt>
      <trkpt lat="44.33049" lon="5.20315">
        <ele>701.2</ele>
        <time>2022-07-18T07:20:59Z</time>
      </trkpt>
      <trkpt lat="44.3305" lon="5.20316">
        <ele>701.3</ele>
        <time>2022-07-18T07:21:00Z</time>
      </trkpt>
      <trkpt lat="44.33051" lon="5.20317">
        <ele>701.4</ele>
        <time>2022-07-18T07:21:01Z</time>
      </trkpt>
      <trkpt lat="44.33051" lon="5.20317">
        <ele>701.4</ele>
        <time>2022-07-18T07:21:02Z</time>
      </trkpt>
      <trkpt lat="44.33052" lon="5.20317">
        <ele>701.5</ele>
        <time>2022-07-18T07:21:03Z</time>
      </trkpt>
      <trkpt lat="44.33052" lon="5.20318">
        <ele>701.5</ele>
        <time>2022-07-18T07:21:04Z</time>
      </trkpt>
      <trkpt lat="44.33052" lon="5.20319">
        <ele>701.6</ele>
        <time>2022-07-18T07:21:05Z</time>
      </trkpt>
      <trkpt lat="44.33053" lon="5.20321">
        <ele>701.8</ele>
        <time>2022-07-18T07:21:06Z</time>
      </trkpt>
      <trkpt lat="44.33053" lon="5.20321">
        <ele>701.8</ele>
        <time>2022-07-18T07:21:07Z</time>
      </trkpt>
      <trkpt lat="44.33054" lon="5.20322">
        <ele>702</ele>
        <time>2022-07-18T07:21:08Z</time>
      </trkpt>
      <trkpt lat="44.33054" lon="5.20322">
        <ele>702.1</ele>
        <time>2022-07-18T07:21:09Z</time>
      </trkpt>
      <trkpt lat="44.33054" lon="5.20322">
        <ele>702.1</ele>
        <time>2022-07-18T07:21:10Z</time>
      </trkpt>
      <trkpt lat="44.33054" lon="5.20323">
        <ele>702.1</ele>
        <time>2022-07-18T07:21:11Z</time>
      </trkpt>
      <trkpt lat="44.33055" lon="5.20323">
        <ele>702.1</ele>
        <time>2022-07-18T07:21:12Z</time>
      </trkpt>
      <trkpt lat="44.33055" lon="5.20324">
        <ele>702.1</ele>
        <time>2022-07-18T07:21:13Z</time>
      </trkpt>
      <trkpt lat="44.33055" lon="5.20324">
        <ele>702.2</ele>
        <time>2022-07-18T07:21:14Z</time>
      </trkpt>
      <trkpt lat="44.33056" lon="5.20324">
        <ele>702.2</ele>
        <time>2022-07-18T07:21:15Z</time>
      </trkpt>
      <trkpt lat="44.33056" lon="5.20325">
        <ele>702.2</ele>
        <time>2022-07-18T07:21:16Z</time>
      </trkpt>
      <trkpt lat="44.33056" lon="5.20325">
        <ele>702.2</ele>
        <time>2022-07-18T07:21:17Z</time>
      </trkpt>
      <trkpt lat="44.33057" lon="5.20326">
        <ele>702.2</ele>
        <time>2022-07-18T07:21:29Z</time>
      </trkpt>
      <trkpt lat="44.33057" lon="5.20326">
        <ele>702.3</ele>
        <time>2022-07-18T07:21:30Z</time>
      </trkpt>
      <trkpt lat="44.33057" lon="5.20326">
        <ele>702.3</ele>
        <time>2022-07-18T07:21:31Z</time>
      </trkpt>
      <trkpt lat="44.33058" lon="5.20327">
        <ele>702.3</ele>
        <time>2022-07-18T07:21:32Z</time>
      </trkpt>
      <trkpt lat="44.33058" lon="5.20327">
        <ele>702.3</ele>
        <time>2022-07-18T07:21:33Z</time>
      </trkpt>
      <trkpt lat="44.33058" lon="5.20328">
        <ele>702.3</ele>
        <time>2022-07-18T07:21:34Z</time>
      </trkpt>
      <trkpt lat="44.33058" lon="5.20328">
        <ele>702.3</ele>
        <time>2022-07-18T07:21:35Z</time>
      </trkpt>
      <trkpt lat="44.33059" lon="5.20328">
        <ele>702.3</ele>
        <time>2022-07-18T07:21:36Z</time>
      </trkpt>
      <trkpt lat="44.33059" lon="5.20329">
        <ele>702.3</ele>
        <time>2022-07-18T07:21:37Z</time>
      </trkpt>
      <trkpt lat="44.33059" lon="5.20329">
        <ele>702.3</ele>
        <time>2022-07-18T07:21:38Z</time>
      </trkpt>
      <trkpt lat="44.3306" lon="5.2033">
        <ele>702.3</ele>
        <time>2022-07-18T07:21:39Z</time>
      </trkpt>
      <trkpt lat="44.3306" lon="5.2033">
        <ele>702.3</ele>
        <time>2022-07-18T07:30:53Z</time>
      </trkpt>
      <trkpt lat="44.3306" lon="5.2033">
        <ele>702.3</ele>
        <time>2022-07-18T07:30:54Z</time>
      </trkpt>
      <trkpt lat="44.33061" lon="5.20331">
        <ele>702.3</ele>
        <time>2022-07-18T07:30:55Z</time>
      </trkpt>
      <trkpt lat="44.33061" lon="5.20331">
        <ele>702.3</ele>
        <time>2022-07-18T07:30:56Z</time>
      </trkpt>
      <trkpt lat="44.33061" lon="5.20332">
        <ele>702.3</ele>
        <time>2022-07-18T07:30:57Z</time>
      </trkpt>
      <trkpt lat="44.33061" lon="5.20332">
        <ele>702.3</ele>
        <time>2022-07-18T07:30:58Z</time>
      </trkpt>
      <trkpt lat="44.33062" lon="5.20332">
        <ele>702.3</ele>
        <time>2022-07-18T07:30:59Z</time>
      </trkpt>
      <trkpt lat="44.33062" lon="5.20333">
        <ele>702.3</ele>
        <time>2022-07-18T07:31:00Z</time>
      </trkpt>
      <trkpt lat="44.33062" lon="5.20333">
        <ele>702.3</ele>
        <time>2022-07-18T07:31:01Z</time>
      </trkpt>
      <trkpt lat="44.33063" lon="5.20334">
        <ele>702.3</ele>
        <time>2022-07-18T07:31:02Z</time>
      </trkpt>
      <trkpt lat="44.33063" lon="5.20334">
        <ele>702.3</ele>
        <time>2022-07-18T07:31:18Z</time>
      </trkpt>
      <trkpt lat="44.33063" lon="5.20334">
        <ele>702.3</ele>
        <time>2022-07-18T07:31:19Z</time>
      </trkpt>
      <trkpt lat="44.33064" lon="5.20339">
        <ele>702.3</ele>
        <time>2022-07-18T07:31:20Z</time>
      </trkpt>
      <trkpt lat="44.33064" lon="5.2034">
        <ele>702.3</ele>
        <time>2022-07-18T07:31:21Z</time>
      </trkpt>
      <trkpt lat="44.33063" lon="5.20344">
        <ele>702.3</ele>
        <time>2022-07-18T07:31:22Z</time>
      </trkpt>
      <trkpt lat="44.33062" lon="5.20346">
        <ele>702.3</ele>
        <time>2022-07-18T07:31:23Z</time>
      </trkpt>
      <trkpt lat="44.33061" lon="5.20349">
        <ele>702.3</ele>
        <time>2022-07-18T07:31:24Z</time>
      </trkpt>
      <trkpt lat="44.3306" lon="5.2035">
        <ele>702.3</ele>
        <time>2022-07-18T07:31:25Z</time>
      </trkpt>
      <trkpt lat="44.33058" lon="5.20353">
        <ele>702.3</ele>
        <time>2022-07-18T07:31:26Z</time>
      </trkpt>
      <trkpt lat="44.33057" lon="5.20354">
        <ele>702.3</ele>
        <time>2022-07-18T07:31:27Z</time>
      </trkpt>
      <trkpt lat="44.33055" lon="5.20358">
        <ele>702.3</ele>
        <time>2022-07-18T07:31:28Z</time>
      </trkpt>
      <trkpt lat="44.33054" lon="5.20359">
        <ele>702.3</ele>
        <time>2022-07-18T07:31:29Z</time>
      </trkpt>
      <trkpt lat="44.33054" lon="5.2036">
        <ele>702.3</ele>
        <time>2022-07-18T07:31:30Z</time>
      </trkpt>
      <trkpt lat="44.33053" lon="5.20362">
        <ele>702.2</ele>
        <time>2022-07-18T07:31:31Z</time>
      </trkpt>
      <trkpt lat="44.33051" lon="5.20366">
        <ele>702.2</ele>
        <time>2022-07-18T07:31:32Z</time>
      </trkpt>
      <trkpt lat="44.33051" lon="5.20367">
        <ele>702.2</ele>
        <time>2022-07-18T07:31:33Z</time>
      </trkpt>
      <trkpt lat="44.33049" lon="5.20372">
        <ele>702.3</ele>
        <time>2022-07-18T07:31:34Z</time>
      </trkpt>
      <trkpt lat="44.33049" lon="5.20373">
        <ele>702.3</ele>
        <time>2022-07-18T07:31:35Z</time>
      </trkpt>
      <trkpt lat="44.33049" lon="5.20377">
        <ele>702.3</ele>
        <time>2022-07-18T07:31:36Z</time>
      </trkpt>
      <trkpt lat="44.33048" lon="5.20378">
        <ele>702.3</ele>
        <time>2022-07-18T07:31:37Z</time>
      </trkpt>
      <trkpt lat="44.33048" lon="5.20383">
        <ele>702.3</ele>
        <time>2022-07-18T07:31:38Z</time>
      </trkpt>
      <trkpt lat="44.33048" lon="5.20384">
        <ele>702.3</ele>
        <time>2022-07-18T07:31:39Z</time>
      </trkpt>
      <trkpt lat="44.33047" lon="5.20389">
        <ele>702.4</ele>
        <time>2022-07-18T07:31:40Z</time>
      </trkpt>
      <trkpt lat="44.33047" lon="5.2039">
        <ele>702.4</ele>
        <time>2022-07-18T07:31:41Z</time>
      </trkpt>
      <trkpt lat="44.33047" lon="5.20394">
        <ele>702.4</ele>
        <time>2022-07-18T07:31:42Z</time>
      </trkpt>
      <trkpt lat="44.33048" lon="5.20395">
        <ele>702.4</ele>
        <time>2022-07-18T07:31:43Z</time>
      </trkpt>
      <trkpt lat="44.33048" lon="5.20397">
        <ele>702.4</ele>
        <time>2022-07-18T07:31:44Z</time>
      </trkpt>
      <trkpt lat="44.3305" lon="5.204">
        <ele>702.4</ele>
        <time>2022-07-18T07:31:45Z</time>
      </trkpt>
      <trkpt lat="44.3305" lon="5.20402">
        <ele>702.4</ele>
        <time>2022-07-18T07:31:46Z</time>
      </trkpt>
      <trkpt lat="44.33052" lon="5.20406">
        <ele>702.5</ele>
        <time>2022-07-18T07:31:47Z</time>
      </trkpt>
      <trkpt lat="44.33053" lon="5.2041">
        <ele>702.5</ele>
        <time>2022-07-18T07:31:48Z</time>
      </trkpt>
      <trkpt lat="44.33054" lon="5.20415">
        <ele>702.6</ele>
        <time>2022-07-18T07:31:49Z</time>
      </trkpt>
      <trkpt lat="44.33054" lon="5.20419">
        <ele>702.6</ele>
        <time>2022-07-18T07:31:50Z</time>
      </trkpt>
      <trkpt lat="44.33054" lon="5.20424">
        <ele>702.7</ele>
        <time>2022-07-18T07:31:51Z</time>
      </trkpt>
      <trkpt lat="44.33054" lon="5.20429">
        <ele>702.7</ele>
        <time>2022-07-18T07:31:52Z</time>
      </trkpt>
      <trkpt lat="44.33055" lon="5.20435">
        <ele>702.8</ele>
        <time>2022-07-18T07:31:53Z</time>
      </trkpt>
      <trkpt lat="44.33055" lon="5.2044">
        <ele>702.9</ele>
        <time>2022-07-18T07:31:54Z</time>
      </trkpt>
      <trkpt lat="44.33056" lon="5.20445">
        <ele>703</ele>
        <time>2022-07-18T07:31:55Z</time>
      </trkpt>
      <trkpt lat="44.33056" lon="5.20449">
        <ele>703.1</ele>
        <time>2022-07-18T07:31:56Z</time>
      </trkpt>
      <trkpt lat="44.33057" lon="5.20453">
        <ele>703.2</ele>
        <time>2022-07-18T07:31:57Z</time>
      </trkpt>
      <trkpt lat="44.33058" lon="5.20458">
        <ele>703.3</ele>
        <time>2022-07-18T07:31:58Z</time>
      </trkpt>
      <trkpt lat="44.33059" lon="5.20463">
        <ele>703.4</ele>
        <time>2022-07-18T07:31:59Z</time>
      </trkpt>
      <trkpt lat="44.33059" lon="5.20469">
        <ele>703.5</ele>
        <time>2022-07-18T07:32:00Z</time>
      </trkpt>
      <trkpt lat="44.3306" lon="5.20474">
        <ele>703.6</ele>
        <time>2022-07-18T07:32:01Z</time>
      </trkpt>
      <trkpt lat="44.3306" lon="5.20478">
        <ele>703.7</ele>
        <time>2022-07-18T07:32:02Z</time>
      </trkpt>
      <trkpt lat="44.33061" lon="5.20482">
        <ele>703.8</ele>
        <time>2022-07-18T07:32:03Z</time>
      </trkpt>
      <trkpt lat="44.33062" lon="5.20487">
        <ele>703.8</ele>
        <time>2022-07-18T07:32:04Z</time>
      </trkpt>
      <trkpt lat="44.33063" lon="5.20491">
        <ele>703.9</ele>
        <time>2022-07-18T07:32:05Z</time>
      </trkpt>
      <trkpt lat="44.33064" lon="5.20496">
        <ele>703.9</ele>
        <time>2022-07-18T07:32:06Z</time>
      </trkpt>
      <trkpt lat="44.33065" lon="5.20503">
        <ele>703.9</ele>
        <time>2022-07-18T07:32:07Z</time>
      </trkpt>
      <trkpt lat="44.33066" lon="5.20509">
        <ele>703.9</ele>
        <time>2022-07-18T07:32:08Z</time>
      </trkpt>
      <trkpt lat="44.33066" lon="5.20514">
        <ele>703.9</ele>
        <time>2022-07-18T07:32:09Z</time>
      </trkpt>
      <trkpt lat="44.33067" lon="5.20519">
        <ele>703.9</ele>
        <time>2022-07-18T07:32:10Z</time>
      </trkpt>
      <trkpt lat="44.33067" lon="5.20524">
        <ele>703.9</ele>
        <time>2022-07-18T07:32:11Z</time>
      </trkpt>
      <trkpt lat="44.33067" lon="5.20529">
        <ele>703.9</ele>
        <time>2022-07-18T07:32:12Z</time>
      </trkpt>
      <trkpt lat="44.33068" lon="5.20534">
        <ele>703.9</ele>
        <time>2022-07-18T07:32:13Z</time>
      </trkpt>
      <trkpt lat="44.33068" lon="5.20541">
        <ele>703.9</ele>
        <time>2022-07-18T07:32:14Z</time>
      </trkpt>
      <trkpt lat="44.33069" lon="5.20547">
        <ele>703.8</ele>
        <time>2022-07-18T07:32:15Z</time>
      </trkpt>
      <trkpt lat="44.3307" lon="5.20554">
        <ele>703.8</ele>
        <time>2022-07-18T07:32:16Z</time>
      </trkpt>
      <trkpt lat="44.33071" lon="5.20562">
        <ele>703.8</ele>
        <time>2022-07-18T07:32:17Z</time>
      </trkpt>
      <trkpt lat="44.33072" lon="5.20569">
        <ele>703.7</ele>
        <time>2022-07-18T07:32:18Z</time>
      </trkpt>
      <trkpt lat="44.33074" lon="5.20576">
        <ele>703.7</ele>
        <time>2022-07-18T07:32:19Z</time>
      </trkpt>
      <trkpt lat="44.33075" lon="5.20583">
        <ele>703.7</ele>
        <time>2022-07-18T07:32:20Z</time>
      </trkpt>
      <trkpt lat="44.33075" lon="5.2059">
        <ele>703.7</ele>
        <time>2022-07-18T07:32:21Z</time>
      </trkpt>
      <trkpt lat="44.33075" lon="5.20597">
        <ele>703.6</ele>
        <time>2022-07-18T07:32:22Z</time>
      </trkpt>
      <trkpt lat="44.33075" lon="5.20604">
        <ele>703.6</ele>
        <time>2022-07-18T07:32:23Z</time>
      </trkpt>
      <trkpt lat="44.33075" lon="5.20615">
        <ele>703.5</ele>
        <time>2022-07-18T07:32:24Z</time>
      </trkpt>
      <trkpt lat="44.33076" lon="5.20621">
        <ele>703.5</ele>
        <time>2022-07-18T07:32:25Z</time>
      </trkpt>
      <trkpt lat="44.33077" lon="5.20628">
        <ele>703.5</ele>
        <time>2022-07-18T07:32:26Z</time>
      </trkpt>
      <trkpt lat="44.33077" lon="5.20633">
        <ele>703.5</ele>
        <time>2022-07-18T07:32:27Z</time>
      </trkpt>
      <trkpt lat="44.33078" lon="5.20639">
        <ele>703.5</ele>
        <time>2022-07-18T07:32:28Z</time>
      </trkpt>
      <trkpt lat="44.33079" lon="5.20645">
        <ele>703.5</ele>
        <time>2022-07-18T07:32:29Z</time>
      </trkpt>
      <trkpt lat="44.33079" lon="5.2065">
        <ele>703.4</ele>
        <time>2022-07-18T07:32:30Z</time>
      </trkpt>
      <trkpt lat="44.33079" lon="5.20655">
        <ele>703.4</ele>
        <time>2022-07-18T07:32:31Z</time>
      </trkpt>
      <trkpt lat="44.3308" lon="5.2066">
        <ele>703.4</ele>
        <time>2022-07-18T07:32:32Z</time>
      </trkpt>
      <trkpt lat="44.33079" lon="5.20665">
        <ele>703.4</ele>
        <time>2022-07-18T07:32:33Z</time>
      </trkpt>
      <trkpt lat="44.3308" lon="5.20671">
        <ele>703.3</ele>
        <time>2022-07-18T07:32:34Z</time>
      </trkpt>
      <trkpt lat="44.3308" lon="5.20677">
        <ele>703.2</ele>
        <time>2022-07-18T07:32:35Z</time>
      </trkpt>
      <trkpt lat="44.3308" lon="5.20682">
        <ele>703.1</ele>
        <time>2022-07-18T07:32:36Z</time>
      </trkpt>
      <trkpt lat="44.3308" lon="5.20687">
        <ele>703</ele>
        <time>2022-07-18T07:32:37Z</time>
      </trkpt>
      <trkpt lat="44.33079" lon="5.20692">
        <ele>702.9</ele>
        <time>2022-07-18T07:32:38Z</time>
      </trkpt>
      <trkpt lat="44.33079" lon="5.20696">
        <ele>702.8</ele>
        <time>2022-07-18T07:32:39Z</time>
      </trkpt>
      <trkpt lat="44.33079" lon="5.20701">
        <ele>702.6</ele>
        <time>2022-07-18T07:32:40Z</time>
      </trkpt>
      <trkpt lat="44.33079" lon="5.20706">
        <ele>702.4</ele>
        <time>2022-07-18T07:32:41Z</time>
      </trkpt>
      <trkpt lat="44.33079" lon="5.20711">
        <ele>702.2</ele>
        <time>2022-07-18T07:32:42Z</time>
      </trkpt>
      <trkpt lat="44.33077" lon="5.20722">
        <ele>701.6</ele>
        <time>2022-07-18T07:32:43Z</time>
      </trkpt>
      <trkpt lat="44.33074" lon="5.20729">
        <ele>701.2</ele>
        <time>2022-07-18T07:32:44Z</time>
      </trkpt>
      <trkpt lat="44.33072" lon="5.20736">
        <ele>700.8</ele>
        <time>2022-07-18T07:32:45Z</time>
      </trkpt>
      <trkpt lat="44.33066" lon="5.20742">
        <ele>700.4</ele>
        <time>2022-07-18T07:32:46Z</time>
      </trkpt>
      <trkpt lat="44.33063" lon="5.20747">
        <ele>700.2</ele>
        <time>2022-07-18T07:32:47Z</time>
      </trkpt>
      <trkpt lat="44.33058" lon="5.20753">
        <ele>699.9</ele>
        <time>2022-07-18T07:32:48Z</time>
      </trkpt>
      <trkpt lat="44.33054" lon="5.20757">
        <ele>699.7</ele>
        <time>2022-07-18T07:32:49Z</time>
      </trkpt>
      <trkpt lat="44.33049" lon="5.20765">
        <ele>699.3</ele>
        <time>2022-07-18T07:32:50Z</time>
      </trkpt>
      <trkpt lat="44.33045" lon="5.20773">
        <ele>698.9</ele>
        <time>2022-07-18T07:32:51Z</time>
      </trkpt>
      <trkpt lat="44.33039" lon="5.20778">
        <ele>698.5</ele>
        <time>2022-07-18T07:32:52Z</time>
      </trkpt>
      <trkpt lat="44.33035" lon="5.20787">
        <ele>697.9</ele>
        <time>2022-07-18T07:32:53Z</time>
      </trkpt>
      <trkpt lat="44.33032" lon="5.20794">
        <ele>697.4</ele>
        <time>2022-07-18T07:32:54Z</time>
      </trkpt>
      <trkpt lat="44.33025" lon="5.20801">
        <ele>696.6</ele>
        <time>2022-07-18T07:32:55Z</time>
      </trkpt>
      <trkpt lat="44.33018" lon="5.20808">
        <ele>696</ele>
        <time>2022-07-18T07:32:56Z</time>
      </trkpt>
      <trkpt lat="44.33012" lon="5.20814">
        <ele>695.4</ele>
        <time>2022-07-18T07:32:57Z</time>
      </trkpt>
      <trkpt lat="44.33009" lon="5.2082">
        <ele>695</ele>
        <time>2022-07-18T07:32:58Z</time>
      </trkpt>
      <trkpt lat="44.33002" lon="5.20825">
        <ele>694.5</ele>
        <time>2022-07-18T07:32:59Z</time>
      </trkpt>
      <trkpt lat="44.32996" lon="5.20827">
        <ele>694.1</ele>
        <time>2022-07-18T07:33:00Z</time>
      </trkpt>
      <trkpt lat="44.3299" lon="5.20832">
        <ele>693.7</ele>
        <time>2022-07-18T07:33:01Z</time>
      </trkpt>
      <trkpt lat="44.32985" lon="5.20835">
        <ele>693.4</ele>
        <time>2022-07-18T07:33:02Z</time>
      </trkpt>
      <trkpt lat="44.32979" lon="5.20836">
        <ele>693.2</ele>
        <time>2022-07-18T07:33:03Z</time>
      </trkpt>
      <trkpt lat="44.3297" lon="5.20837">
        <ele>693</ele>
        <time>2022-07-18T07:33:04Z</time>
      </trkpt>
      <trkpt lat="44.32964" lon="5.2084">
        <ele>693</ele>
        <time>2022-07-18T07:33:05Z</time>
      </trkpt>
      <trkpt lat="44.32957" lon="5.2084">
        <ele>693</ele>
        <time>2022-07-18T07:33:06Z</time>
      </trkpt>
      <trkpt lat="44.32952" lon="5.20841">
        <ele>693.1</ele>
        <time>2022-07-18T07:33:07Z</time>
      </trkpt>
      <trkpt lat="44.32946" lon="5.2084">
        <ele>693.3</ele>
        <time>2022-07-18T07:33:08Z</time>
      </trkpt>
      <trkpt lat="44.32942" lon="5.20837">
        <ele>693.4</ele>
        <time>2022-07-18T07:33:09Z</time>
      </trkpt>
      <trkpt lat="44.32939" lon="5.20836">
        <ele>693.5</ele>
        <time>2022-07-18T07:33:10Z</time>
      </trkpt>
      <trkpt lat="44.32936" lon="5.20838">
        <ele>693.5</ele>
        <time>2022-07-18T07:33:11Z</time>
      </trkpt>
      <trkpt lat="44.3293" lon="5.20838">
        <ele>693.7</ele>
        <time>2022-07-18T07:33:12Z</time>
      </trkpt>
      <trkpt lat="44.32926" lon="5.2084">
        <ele>693.8</ele>
        <time>2022-07-18T07:33:13Z</time>
      </trkpt>
      <trkpt lat="44.32922" lon="5.20841">
        <ele>693.9</ele>
        <time>2022-07-18T07:33:14Z</time>
      </trkpt>
      <trkpt lat="44.32918" lon="5.20841">
        <ele>694</ele>
        <time>2022-07-18T07:33:15Z</time>
      </trkpt>
      <trkpt lat="44.32917" lon="5.20846">
        <ele>694.1</ele>
        <time>2022-07-18T07:33:16Z</time>
      </trkpt>
      <trkpt lat="44.32912" lon="5.20845">
        <ele>694.2</ele>
        <time>2022-07-18T07:33:17Z</time>
      </trkpt>
      <trkpt lat="44.32908" lon="5.20847">
        <ele>694.4</ele>
        <time>2022-07-18T07:33:18Z</time>
      </trkpt>
      <trkpt lat="44.32904" lon="5.20849">
        <ele>694.5</ele>
        <time>2022-07-18T07:33:19Z</time>
      </trkpt>
      <trkpt lat="44.329" lon="5.2085">
        <ele>694.7</ele>
        <time>2022-07-18T07:33:20Z</time>
      </trkpt>
      <trkpt lat="44.32897" lon="5.20851">
        <ele>694.9</ele>
        <time>2022-07-18T07:33:21Z</time>
      </trkpt>
      <trkpt lat="44.32892" lon="5.20852">
        <ele>695.1</ele>
        <time>2022-07-18T07:33:22Z</time>
      </trkpt>
      <trkpt lat="44.32889" lon="5.20852">
        <ele>695.3</ele>
        <time>2022-07-18T07:33:23Z</time>
      </trkpt>
      <trkpt lat="44.32885" lon="5.20852">
        <ele>695.4</ele>
        <time>2022-07-18T07:33:24Z</time>
      </trkpt>
      <trkpt lat="44.32884" lon="5.20852">
        <ele>695.5</ele>
        <time>2022-07-18T07:33:25Z</time>
      </trkpt>
      <trkpt lat="44.32882" lon="5.20853">
        <ele>695.5</ele>
        <time>2022-07-18T07:33:26Z</time>
      </trkpt>
      <trkpt lat="44.32881" lon="5.20853">
        <ele>695.6</ele>
        <time>2022-07-18T07:33:27Z</time>
      </trkpt>
      <trkpt lat="44.32881" lon="5.20855">
        <ele>695.6</ele>
        <time>2022-07-18T07:33:28Z</time>
      </trkpt>
      <trkpt lat="44.32881" lon="5.20856">
        <ele>695.7</ele>
        <time>2022-07-18T07:33:29Z</time>
      </trkpt>
      <trkpt lat="44.3288" lon="5.20858">
        <ele>695.7</ele>
        <time>2022-07-18T07:33:30Z</time>
      </trkpt>
      <trkpt lat="44.32878" lon="5.2086">
        <ele>695.9</ele>
        <time>2022-07-18T07:33:31Z</time>
      </trkpt>
      <trkpt lat="44.32877" lon="5.2086">
        <ele>695.9</ele>
        <time>2022-07-18T07:33:32Z</time>
      </trkpt>
      <trkpt lat="44.32874" lon="5.20861">
        <ele>696.1</ele>
        <time>2022-07-18T07:33:33Z</time>
      </trkpt>
      <trkpt lat="44.32872" lon="5.20862">
        <ele>696.2</ele>
        <time>2022-07-18T07:33:34Z</time>
      </trkpt>
      <trkpt lat="44.32868" lon="5.20863">
        <ele>696.4</ele>
        <time>2022-07-18T07:33:35Z</time>
      </trkpt>
      <trkpt lat="44.32865" lon="5.20864">
        <ele>696.6</ele>
        <time>2022-07-18T07:33:36Z</time>
      </trkpt>
      <trkpt lat="44.32862" lon="5.20866">
        <ele>696.7</ele>
        <time>2022-07-18T07:33:37Z</time>
      </trkpt>
      <trkpt lat="44.32858" lon="5.20867">
        <ele>696.9</ele>
        <time>2022-07-18T07:33:38Z</time>
      </trkpt>
      <trkpt lat="44.32857" lon="5.20867">
        <ele>697</ele>
        <time>2022-07-18T07:33:39Z</time>
      </trkpt>
      <trkpt lat="44.32854" lon="5.20868">
        <ele>697.2</ele>
        <time>2022-07-18T07:33:40Z</time>
      </trkpt>
      <trkpt lat="44.32851" lon="5.20869">
        <ele>697.4</ele>
        <time>2022-07-18T07:33:41Z</time>
      </trkpt>
      <trkpt lat="44.32848" lon="5.20871">
        <ele>697.6</ele>
        <time>2022-07-18T07:33:42Z</time>
      </trkpt>
      <trkpt lat="44.32847" lon="5.20871">
        <ele>697.6</ele>
        <time>2022-07-18T07:33:43Z</time>
      </trkpt>
      <trkpt lat="44.32844" lon="5.20874">
        <ele>697.9</ele>
        <time>2022-07-18T07:33:44Z</time>
      </trkpt>
      <trkpt lat="44.32843" lon="5.20875">
        <ele>698</ele>
        <time>2022-07-18T07:33:45Z</time>
      </trkpt>
      <trkpt lat="44.32841" lon="5.20876">
        <ele>698.1</ele>
        <time>2022-07-18T07:33:46Z</time>
      </trkpt>
      <trkpt lat="44.3284" lon="5.20877">
        <ele>698.2</ele>
        <time>2022-07-18T07:33:47Z</time>
      </trkpt>
      <trkpt lat="44.32838" lon="5.20879">
        <ele>698.4</ele>
        <time>2022-07-18T07:33:48Z</time>
      </trkpt>
      <trkpt lat="44.32837" lon="5.2088">
        <ele>698.4</ele>
        <time>2022-07-18T07:33:49Z</time>
      </trkpt>
      <trkpt lat="44.32834" lon="5.20881">
        <ele>698.6</ele>
        <time>2022-07-18T07:33:50Z</time>
      </trkpt>
      <trkpt lat="44.32833" lon="5.20882">
        <ele>698.7</ele>
        <time>2022-07-18T07:33:51Z</time>
      </trkpt>
      <trkpt lat="44.3283" lon="5.20884">
        <ele>698.9</ele>
        <time>2022-07-18T07:33:52Z</time>
      </trkpt>
      <trkpt lat="44.32829" lon="5.20884">
        <ele>699</ele>
        <time>2022-07-18T07:33:53Z</time>
      </trkpt>
      <trkpt lat="44.32825" lon="5.20886">
        <ele>699.2</ele>
        <time>2022-07-18T07:33:54Z</time>
      </trkpt>
      <trkpt lat="44.32824" lon="5.20887">
        <ele>699.3</ele>
        <time>2022-07-18T07:33:55Z</time>
      </trkpt>
      <trkpt lat="44.32821" lon="5.20888">
        <ele>699.4</ele>
        <time>2022-07-18T07:33:56Z</time>
      </trkpt>
      <trkpt lat="44.32818" lon="5.2089">
        <ele>699.6</ele>
        <time>2022-07-18T07:33:57Z</time>
      </trkpt>
      <trkpt lat="44.32815" lon="5.20891">
        <ele>699.7</ele>
        <time>2022-07-18T07:33:58Z</time>
      </trkpt>
      <trkpt lat="44.32811" lon="5.20892">
        <ele>699.8</ele>
        <time>2022-07-18T07:33:59Z</time>
      </trkpt>
      <trkpt lat="44.32808" lon="5.20894">
        <ele>699.9</ele>
        <time>2022-07-18T07:34:00Z</time>
      </trkpt>
      <trkpt lat="44.32804" lon="5.20895">
        <ele>700</ele>
        <time>2022-07-18T07:34:01Z</time>
      </trkpt>
      <trkpt lat="44.32801" lon="5.20897">
        <ele>700</ele>
        <time>2022-07-18T07:34:02Z</time>
      </trkpt>
      <trkpt lat="44.32799" lon="5.20899">
        <ele>700.1</ele>
        <time>2022-07-18T07:34:03Z</time>
      </trkpt>
      <trkpt lat="44.32796" lon="5.20901">
        <ele>700.1</ele>
        <time>2022-07-18T07:34:04Z</time>
      </trkpt>
      <trkpt lat="44.32794" lon="5.20903">
        <ele>700.1</ele>
        <time>2022-07-18T07:34:05Z</time>
      </trkpt>
      <trkpt lat="44.32791" lon="5.20904">
        <ele>700.1</ele>
        <time>2022-07-18T07:34:06Z</time>
      </trkpt>
      <trkpt lat="44.32788" lon="5.20904">
        <ele>700.1</ele>
        <time>2022-07-18T07:34:07Z</time>
      </trkpt>
      <trkpt lat="44.32784" lon="5.20904">
        <ele>700.1</ele>
        <time>2022-07-18T07:34:08Z</time>
      </trkpt>
      <trkpt lat="44.32783" lon="5.20904">
        <ele>700.1</ele>
        <time>2022-07-18T07:34:09Z</time>
      </trkpt>
      <trkpt lat="44.3278" lon="5.20905">
        <ele>700</ele>
        <time>2022-07-18T07:34:10Z</time>
      </trkpt>
      <trkpt lat="44.32776" lon="5.20907">
        <ele>700</ele>
        <time>2022-07-18T07:34:11Z</time>
      </trkpt>
      <trkpt lat="44.32771" lon="5.20908">
        <ele>699.8</ele>
        <time>2022-07-18T07:34:12Z</time>
      </trkpt>
      <trkpt lat="44.32761" lon="5.2091">
        <ele>699.4</ele>
        <time>2022-07-18T07:34:13Z</time>
      </trkpt>
      <trkpt lat="44.32755" lon="5.20912">
        <ele>699.1</ele>
        <time>2022-07-18T07:34:14Z</time>
      </trkpt>
      <trkpt lat="44.32751" lon="5.20913">
        <ele>698.9</ele>
        <time>2022-07-18T07:34:15Z</time>
      </trkpt>
      <trkpt lat="44.32744" lon="5.20919">
        <ele>698.5</ele>
        <time>2022-07-18T07:34:16Z</time>
      </trkpt>
      <trkpt lat="44.32737" lon="5.20924">
        <ele>698.1</ele>
        <time>2022-07-18T07:34:17Z</time>
      </trkpt>
      <trkpt lat="44.32734" lon="5.20929">
        <ele>697.9</ele>
        <time>2022-07-18T07:34:18Z</time>
      </trkpt>
      <trkpt lat="44.32729" lon="5.20937">
        <ele>697.4</ele>
        <time>2022-07-18T07:34:19Z</time>
      </trkpt>
      <trkpt lat="44.32727" lon="5.20944">
        <ele>697.1</ele>
        <time>2022-07-18T07:34:20Z</time>
      </trkpt>
      <trkpt lat="44.32723" lon="5.2095">
        <ele>696.8</ele>
        <time>2022-07-18T07:34:21Z</time>
      </trkpt>
      <trkpt lat="44.32717" lon="5.20959">
        <ele>696.4</ele>
        <time>2022-07-18T07:34:22Z</time>
      </trkpt>
      <trkpt lat="44.32713" lon="5.20965">
        <ele>696.2</ele>
        <time>2022-07-18T07:34:23Z</time>
      </trkpt>
      <trkpt lat="44.32708" lon="5.20972">
        <ele>696</ele>
        <time>2022-07-18T07:34:24Z</time>
      </trkpt>
      <trkpt lat="44.32703" lon="5.20978">
        <ele>695.7</ele>
        <time>2022-07-18T07:34:25Z</time>
      </trkpt>
      <trkpt lat="44.327" lon="5.2098">
        <ele>695.6</ele>
        <time>2022-07-18T07:34:26Z</time>
      </trkpt>
      <trkpt lat="44.32694" lon="5.20985">
        <ele>695.3</ele>
        <time>2022-07-18T07:34:27Z</time>
      </trkpt>
      <trkpt lat="44.32688" lon="5.20993">
        <ele>695</ele>
        <time>2022-07-18T07:34:28Z</time>
      </trkpt>
      <trkpt lat="44.32684" lon="5.20997">
        <ele>694.7</ele>
        <time>2022-07-18T07:34:29Z</time>
      </trkpt>
      <trkpt lat="44.32677" lon="5.21">
        <ele>694.2</ele>
        <time>2022-07-18T07:34:30Z</time>
      </trkpt>
      <trkpt lat="44.3267" lon="5.21004">
        <ele>693.6</ele>
        <time>2022-07-18T07:34:31Z</time>
      </trkpt>
      <trkpt lat="44.32667" lon="5.21009">
        <ele>693.2</ele>
        <time>2022-07-18T07:34:32Z</time>
      </trkpt>
      <trkpt lat="44.32662" lon="5.21013">
        <ele>692.6</ele>
        <time>2022-07-18T07:34:33Z</time>
      </trkpt>
      <trkpt lat="44.32658" lon="5.21019">
        <ele>692</ele>
        <time>2022-07-18T07:34:34Z</time>
      </trkpt>
      <trkpt lat="44.32651" lon="5.21024">
        <ele>691.2</ele>
        <time>2022-07-18T07:34:35Z</time>
      </trkpt>
      <trkpt lat="44.32644" lon="5.21029">
        <ele>690.6</ele>
        <time>2022-07-18T07:34:36Z</time>
      </trkpt>
      <trkpt lat="44.32635" lon="5.21035">
        <ele>690</ele>
        <time>2022-07-18T07:34:37Z</time>
      </trkpt>
      <trkpt lat="44.32626" lon="5.2104">
        <ele>689.6</ele>
        <time>2022-07-18T07:34:38Z</time>
      </trkpt>
      <trkpt lat="44.3262" lon="5.21045">
        <ele>689.3</ele>
        <time>2022-07-18T07:34:39Z</time>
      </trkpt>
      <trkpt lat="44.32615" lon="5.21049">
        <ele>689.2</ele>
        <time>2022-07-18T07:34:40Z</time>
      </trkpt>
      <trkpt lat="44.32611" lon="5.21056">
        <ele>688.9</ele>
        <time>2022-07-18T07:34:41Z</time>
      </trkpt>
      <trkpt lat="44.32606" lon="5.21061">
        <ele>688.7</ele>
        <time>2022-07-18T07:34:42Z</time>
      </trkpt>
      <trkpt lat="44.326" lon="5.21067">
        <ele>688.5</ele>
        <time>2022-07-18T07:34:43Z</time>
      </trkpt>
      <trkpt lat="44.32596" lon="5.21076">
        <ele>688.1</ele>
        <time>2022-07-18T07:34:44Z</time>
      </trkpt>
      <trkpt lat="44.32591" lon="5.21083">
        <ele>687.8</ele>
        <time>2022-07-18T07:34:45Z</time>
      </trkpt>
      <trkpt lat="44.32586" lon="5.21091">
        <ele>687.4</ele>
        <time>2022-07-18T07:34:46Z</time>
      </trkpt>
      <trkpt lat="44.32582" lon="5.21099">
        <ele>687.1</ele>
        <time>2022-07-18T07:34:47Z</time>
      </trkpt>
      <trkpt lat="44.32575" lon="5.21109">
        <ele>686.7</ele>
        <time>2022-07-18T07:34:48Z</time>
      </trkpt>
      <trkpt lat="44.32569" lon="5.21115">
        <ele>686.5</ele>
        <time>2022-07-18T07:34:49Z</time>
      </trkpt>
      <trkpt lat="44.32564" lon="5.21122">
        <ele>686.4</ele>
        <time>2022-07-18T07:34:50Z</time>
      </trkpt>
      <trkpt lat="44.32558" lon="5.21128">
        <ele>686.3</ele>
        <time>2022-07-18T07:34:51Z</time>
      </trkpt>
      <trkpt lat="44.32554" lon="5.2113">
        <ele>686.3</ele>
        <time>2022-07-18T07:34:52Z</time>
      </trkpt>
      <trkpt lat="44.32548" lon="5.21133">
        <ele>686.4</ele>
        <time>2022-07-18T07:34:53Z</time>
      </trkpt>
      <trkpt lat="44.32542" lon="5.21136">
        <ele>686.4</ele>
        <time>2022-07-18T07:34:54Z</time>
      </trkpt>
      <trkpt lat="44.32538" lon="5.21141">
        <ele>686.4</ele>
        <time>2022-07-18T07:34:55Z</time>
      </trkpt>
      <trkpt lat="44.32535" lon="5.21148">
        <ele>686.5</ele>
        <time>2022-07-18T07:34:56Z</time>
      </trkpt>
      <trkpt lat="44.32531" lon="5.21152">
        <ele>686.5</ele>
        <time>2022-07-18T07:34:57Z</time>
      </trkpt>
      <trkpt lat="44.32526" lon="5.21155">
        <ele>686.5</ele>
        <time>2022-07-18T07:34:58Z</time>
      </trkpt>
      <trkpt lat="44.32521" lon="5.21157">
        <ele>686.5</ele>
        <time>2022-07-18T07:34:59Z</time>
      </trkpt>
      <trkpt lat="44.32515" lon="5.2116">
        <ele>686.6</ele>
        <time>2022-07-18T07:35:00Z</time>
      </trkpt>
      <trkpt lat="44.32512" lon="5.21163">
        <ele>686.6</ele>
        <time>2022-07-18T07:35:01Z</time>
      </trkpt>
      <trkpt lat="44.32507" lon="5.21167">
        <ele>686.6</ele>
        <time>2022-07-18T07:35:02Z</time>
      </trkpt>
      <trkpt lat="44.32502" lon="5.21171">
        <ele>686.6</ele>
        <time>2022-07-18T07:35:03Z</time>
      </trkpt>
      <trkpt lat="44.32499" lon="5.21175">
        <ele>686.7</ele>
        <time>2022-07-18T07:35:04Z</time>
      </trkpt>
      <trkpt lat="44.32494" lon="5.21177">
        <ele>686.7</ele>
        <time>2022-07-18T07:35:05Z</time>
      </trkpt>
      <trkpt lat="44.3249" lon="5.21181">
        <ele>686.7</ele>
        <time>2022-07-18T07:35:06Z</time>
      </trkpt>
      <trkpt lat="44.32486" lon="5.21185">
        <ele>686.6</ele>
        <time>2022-07-18T07:35:07Z</time>
      </trkpt>
      <trkpt lat="44.32481" lon="5.21189">
        <ele>686.6</ele>
        <time>2022-07-18T07:35:08Z</time>
      </trkpt>
      <trkpt lat="44.32477" lon="5.21197">
        <ele>686.5</ele>
        <time>2022-07-18T07:35:09Z</time>
      </trkpt>
      <trkpt lat="44.32473" lon="5.21201">
        <ele>686.4</ele>
        <time>2022-07-18T07:35:10Z</time>
      </trkpt>
      <trkpt lat="44.32469" lon="5.21207">
        <ele>686.4</ele>
        <time>2022-07-18T07:35:11Z</time>
      </trkpt>
      <trkpt lat="44.32464" lon="5.21212">
        <ele>686.3</ele>
        <time>2022-07-18T07:35:12Z</time>
      </trkpt>
      <trkpt lat="44.3246" lon="5.21217">
        <ele>686.3</ele>
        <time>2022-07-18T07:35:13Z</time>
      </trkpt>
      <trkpt lat="44.32456" lon="5.2122">
        <ele>686.3</ele>
        <time>2022-07-18T07:35:14Z</time>
      </trkpt>
      <trkpt lat="44.32454" lon="5.21227">
        <ele>686.2</ele>
        <time>2022-07-18T07:35:15Z</time>
      </trkpt>
      <trkpt lat="44.32452" lon="5.21234">
        <ele>686.2</ele>
        <time>2022-07-18T07:35:16Z</time>
      </trkpt>
      <trkpt lat="44.32448" lon="5.2124">
        <ele>686.1</ele>
        <time>2022-07-18T07:35:17Z</time>
      </trkpt>
      <trkpt lat="44.32445" lon="5.21247">
        <ele>686</ele>
        <time>2022-07-18T07:35:18Z</time>
      </trkpt>
      <trkpt lat="44.3244" lon="5.21252">
        <ele>685.9</ele>
        <time>2022-07-18T07:35:19Z</time>
      </trkpt>
      <trkpt lat="44.32436" lon="5.21259">
        <ele>685.8</ele>
        <time>2022-07-18T07:35:20Z</time>
      </trkpt>
      <trkpt lat="44.32434" lon="5.2127">
        <ele>685.7</ele>
        <time>2022-07-18T07:35:21Z</time>
      </trkpt>
      <trkpt lat="44.32432" lon="5.21275">
        <ele>685.7</ele>
        <time>2022-07-18T07:35:22Z</time>
      </trkpt>
      <trkpt lat="44.3243" lon="5.2128">
        <ele>685.7</ele>
        <time>2022-07-18T07:35:23Z</time>
      </trkpt>
      <trkpt lat="44.32428" lon="5.21282">
        <ele>685.7</ele>
        <time>2022-07-18T07:35:24Z</time>
      </trkpt>
      <trkpt lat="44.32428" lon="5.21283">
        <ele>685.7</ele>
        <time>2022-07-18T07:35:25Z</time>
      </trkpt>
      <trkpt lat="44.32427" lon="5.21282">
        <ele>685.7</ele>
        <time>2022-07-18T07:35:26Z</time>
      </trkpt>
      <trkpt lat="44.32427" lon="5.21282">
        <ele>685.7</ele>
        <time>2022-07-18T07:35:27Z</time>
      </trkpt>
      <trkpt lat="44.32427" lon="5.21282">
        <ele>685.7</ele>
        <time>2022-07-18T07:35:28Z</time>
      </trkpt>
      <trkpt lat="44.32427" lon="5.21282">
        <ele>685.7</ele>
        <time>2022-07-18T07:35:29Z</time>
      </trkpt>
      <trkpt lat="44.32427" lon="5.21282">
        <ele>685.7</ele>
        <time>2022-07-18T07:35:30Z</time>
      </trkpt>
      <trkpt lat="44.32427" lon="5.21282">
        <ele>685.7</ele>
        <time>2022-07-18T07:35:31Z</time>
      </trkpt>
      <trkpt lat="44.32427" lon="5.21282">
        <ele>685.7</ele>
        <time>2022-07-18T07:35:32Z</time>
      </trkpt>
      <trkpt lat="44.32427" lon="5.21282">
        <ele>685.7</ele>
        <time>2022-07-18T07:35:33Z</time>
      </trkpt>
      <trkpt lat="44.32427" lon="5.21282">
        <ele>685.7</ele>
        <time>2022-07-18T07:35:34Z</time>
      </trkpt>
      <trkpt lat="44.32427" lon="5.21282">
        <ele>685.7</ele>
        <time>2022-07-18T07:35:35Z</time>
      </trkpt>
      <trkpt lat="44.32427" lon="5.21282">
        <ele>685.7</ele>
        <time>2022-07-18T07:35:36Z</time>
      </trkpt>
      <trkpt lat="44.32427" lon="5.2129">
        <ele>685.8</ele>
        <time>2022-07-18T07:36:47Z</time>
      </trkpt>
      <trkpt lat="44.32426" lon="5.21292">
        <ele>685.8</ele>
        <time>2022-07-18T07:36:48Z</time>
      </trkpt>
      <trkpt lat="44.32426" lon="5.21294">
        <ele>685.8</ele>
        <time>2022-07-18T07:36:49Z</time>
      </trkpt>
      <trkpt lat="44.32426" lon="5.21297">
        <ele>685.9</ele>
        <time>2022-07-18T07:36:50Z</time>
      </trkpt>
      <trkpt lat="44.32426" lon="5.21301">
        <ele>686</ele>
        <time>2022-07-18T07:36:51Z</time>
      </trkpt>
      <trkpt lat="44.32426" lon="5.21303">
        <ele>686.1</ele>
        <time>2022-07-18T07:36:52Z</time>
      </trkpt>
      <trkpt lat="44.32427" lon="5.21308">
        <ele>686.2</ele>
        <time>2022-07-18T07:36:53Z</time>
      </trkpt>
      <trkpt lat="44.32428" lon="5.2131">
        <ele>686.3</ele>
        <time>2022-07-18T07:36:54Z</time>
      </trkpt>
      <trkpt lat="44.32429" lon="5.21314">
        <ele>686.5</ele>
        <time>2022-07-18T07:36:55Z</time>
      </trkpt>
      <trkpt lat="44.3243" lon="5.21316">
        <ele>686.6</ele>
        <time>2022-07-18T07:36:56Z</time>
      </trkpt>
      <trkpt lat="44.3243" lon="5.2132">
        <ele>686.8</ele>
        <time>2022-07-18T07:36:57Z</time>
      </trkpt>
      <trkpt lat="44.32431" lon="5.21322">
        <ele>686.9</ele>
        <time>2022-07-18T07:36:58Z</time>
      </trkpt>
      <trkpt lat="44.32431" lon="5.21324">
        <ele>687</ele>
        <time>2022-07-18T07:36:59Z</time>
      </trkpt>
      <trkpt lat="44.32431" lon="5.21326">
        <ele>687.2</ele>
        <time>2022-07-18T07:37:00Z</time>
      </trkpt>
      <trkpt lat="44.32431" lon="5.21329">
        <ele>687.3</ele>
        <time>2022-07-18T07:37:01Z</time>
      </trkpt>
      <trkpt lat="44.32431" lon="5.21331">
        <ele>687.4</ele>
        <time>2022-07-18T07:37:02Z</time>
      </trkpt>
      <trkpt lat="44.3243" lon="5.21333">
        <ele>687.6</ele>
        <time>2022-07-18T07:37:03Z</time>
      </trkpt>
      <trkpt lat="44.3243" lon="5.21336">
        <ele>687.8</ele>
        <time>2022-07-18T07:37:04Z</time>
      </trkpt>
      <trkpt lat="44.3243" lon="5.2134">
        <ele>688.1</ele>
        <time>2022-07-18T07:37:05Z</time>
      </trkpt>
      <trkpt lat="44.3243" lon="5.21341">
        <ele>688.2</ele>
        <time>2022-07-18T07:37:06Z</time>
      </trkpt>
      <trkpt lat="44.3243" lon="5.21344">
        <ele>688.4</ele>
        <time>2022-07-18T07:37:07Z</time>
      </trkpt>
      <trkpt lat="44.32431" lon="5.21346">
        <ele>688.6</ele>
        <time>2022-07-18T07:37:08Z</time>
      </trkpt>
      <trkpt lat="44.32431" lon="5.21348">
        <ele>688.7</ele>
        <time>2022-07-18T07:37:09Z</time>
      </trkpt>
      <trkpt lat="44.32432" lon="5.2135">
        <ele>688.9</ele>
        <time>2022-07-18T07:37:10Z</time>
      </trkpt>
      <trkpt lat="44.32433" lon="5.21351">
        <ele>689</ele>
        <time>2022-07-18T07:37:11Z</time>
      </trkpt>
      <trkpt lat="44.32434" lon="5.21353">
        <ele>689.2</ele>
        <time>2022-07-18T07:37:12Z</time>
      </trkpt>
      <trkpt lat="44.32435" lon="5.21356">
        <ele>689.5</ele>
        <time>2022-07-18T07:37:13Z</time>
      </trkpt>
      <trkpt lat="44.32436" lon="5.21357">
        <ele>689.6</ele>
        <time>2022-07-18T07:37:14Z</time>
      </trkpt>
      <trkpt lat="44.32438" lon="5.2136">
        <ele>689.9</ele>
        <time>2022-07-18T07:37:15Z</time>
      </trkpt>
      <trkpt lat="44.32438" lon="5.21361">
        <ele>689.9</ele>
        <time>2022-07-18T07:37:16Z</time>
      </trkpt>
      <trkpt lat="44.32439" lon="5.21363">
        <ele>690.1</ele>
        <time>2022-07-18T07:37:17Z</time>
      </trkpt>
      <trkpt lat="44.3244" lon="5.21365">
        <ele>690.2</ele>
        <time>2022-07-18T07:37:18Z</time>
      </trkpt>
      <trkpt lat="44.32442" lon="5.21367">
        <ele>690.5</ele>
        <time>2022-07-18T07:37:19Z</time>
      </trkpt>
      <trkpt lat="44.32443" lon="5.21368">
        <ele>690.6</ele>
        <time>2022-07-18T07:37:20Z</time>
      </trkpt>
      <trkpt lat="44.32444" lon="5.2137">
        <ele>690.7</ele>
        <time>2022-07-18T07:37:21Z</time>
      </trkpt>
      <trkpt lat="44.32445" lon="5.21371">
        <ele>690.8</ele>
        <time>2022-07-18T07:37:22Z</time>
      </trkpt>
      <trkpt lat="44.32446" lon="5.21373">
        <ele>690.9</ele>
        <time>2022-07-18T07:37:23Z</time>
      </trkpt>
      <trkpt lat="44.32447" lon="5.21374">
        <ele>691.1</ele>
        <time>2022-07-18T07:37:24Z</time>
      </trkpt>
      <trkpt lat="44.32449" lon="5.21375">
        <ele>691.2</ele>
        <time>2022-07-18T07:37:25Z</time>
      </trkpt>
      <trkpt lat="44.3245" lon="5.21376">
        <ele>691.3</ele>
        <time>2022-07-18T07:37:26Z</time>
      </trkpt>
      <trkpt lat="44.32452" lon="5.21377">
        <ele>691.5</ele>
        <time>2022-07-18T07:37:27Z</time>
      </trkpt>
      <trkpt lat="44.32453" lon="5.21378">
        <ele>691.6</ele>
        <time>2022-07-18T07:37:28Z</time>
      </trkpt>
      <trkpt lat="44.32456" lon="5.2138">
        <ele>691.9</ele>
        <time>2022-07-18T07:37:29Z</time>
      </trkpt>
      <trkpt lat="44.32457" lon="5.21381">
        <ele>692</ele>
        <time>2022-07-18T07:37:30Z</time>
      </trkpt>
      <trkpt lat="44.3246" lon="5.21383">
        <ele>692.2</ele>
        <time>2022-07-18T07:37:31Z</time>
      </trkpt>
      <trkpt lat="44.3246" lon="5.21384">
        <ele>692.3</ele>
        <time>2022-07-18T07:37:32Z</time>
      </trkpt>
      <trkpt lat="44.32462" lon="5.21385">
        <ele>692.4</ele>
        <time>2022-07-18T07:37:33Z</time>
      </trkpt>
      <trkpt lat="44.32463" lon="5.21387">
        <ele>692.6</ele>
        <time>2022-07-18T07:37:34Z</time>
      </trkpt>
      <trkpt lat="44.32465" lon="5.21388">
        <ele>692.7</ele>
        <time>2022-07-18T07:37:35Z</time>
      </trkpt>
      <trkpt lat="44.32466" lon="5.2139">
        <ele>692.9</ele>
        <time>2022-07-18T07:37:36Z</time>
      </trkpt>
      <trkpt lat="44.32467" lon="5.21391">
        <ele>693</ele>
        <time>2022-07-18T07:37:37Z</time>
      </trkpt>
      <trkpt lat="44.32469" lon="5.21392">
        <ele>693.1</ele>
        <time>2022-07-18T07:37:38Z</time>
      </trkpt>
      <trkpt lat="44.3247" lon="5.21394">
        <ele>693.2</ele>
        <time>2022-07-18T07:37:39Z</time>
      </trkpt>
      <trkpt lat="44.32471" lon="5.21395">
        <ele>693.4</ele>
        <time>2022-07-18T07:37:40Z</time>
      </trkpt>
      <trkpt lat="44.32473" lon="5.21397">
        <ele>693.6</ele>
        <time>2022-07-18T07:37:41Z</time>
      </trkpt>
      <trkpt lat="44.32473" lon="5.21397">
        <ele>693.6</ele>
        <time>2022-07-18T07:37:42Z</time>
      </trkpt>
      <trkpt lat="44.32474" lon="5.21398">
        <ele>693.7</ele>
        <time>2022-07-18T07:37:43Z</time>
      </trkpt>
      <trkpt lat="44.32476" lon="5.21399">
        <ele>693.8</ele>
        <time>2022-07-18T07:37:44Z</time>
      </trkpt>
      <trkpt lat="44.32477" lon="5.214">
        <ele>694</ele>
        <time>2022-07-18T07:37:45Z</time>
      </trkpt>
      <trkpt lat="44.32478" lon="5.21402">
        <ele>694.1</ele>
        <time>2022-07-18T07:37:46Z</time>
      </trkpt>
      <trkpt lat="44.3248" lon="5.21403">
        <ele>694.3</ele>
        <time>2022-07-18T07:37:47Z</time>
      </trkpt>
      <trkpt lat="44.32481" lon="5.21405">
        <ele>694.4</ele>
        <time>2022-07-18T07:37:48Z</time>
      </trkpt>
      <trkpt lat="44.32482" lon="5.21406">
        <ele>694.6</ele>
        <time>2022-07-18T07:37:49Z</time>
      </trkpt>
      <trkpt lat="44.32483" lon="5.21407">
        <ele>694.8</ele>
        <time>2022-07-18T07:37:50Z</time>
      </trkpt>
      <trkpt lat="44.32484" lon="5.21408">
        <ele>695</ele>
        <time>2022-07-18T07:37:51Z</time>
      </trkpt>
      <trkpt lat="44.32487" lon="5.2141">
        <ele>695.2</ele>
        <time>2022-07-18T07:37:52Z</time>
      </trkpt>
      <trkpt lat="44.32487" lon="5.2141">
        <ele>695.3</ele>
        <time>2022-07-18T07:37:53Z</time>
      </trkpt>
      <trkpt lat="44.32488" lon="5.21411">
        <ele>695.5</ele>
        <time>2022-07-18T07:37:54Z</time>
      </trkpt>
      <trkpt lat="44.3249" lon="5.21412">
        <ele>695.7</ele>
        <time>2022-07-18T07:37:55Z</time>
      </trkpt>
      <trkpt lat="44.32491" lon="5.21413">
        <ele>695.9</ele>
        <time>2022-07-18T07:37:56Z</time>
      </trkpt>
      <trkpt lat="44.32493" lon="5.21414">
        <ele>696</ele>
        <time>2022-07-18T07:37:57Z</time>
      </trkpt>
      <trkpt lat="44.32494" lon="5.21414">
        <ele>696.2</ele>
        <time>2022-07-18T07:37:58Z</time>
      </trkpt>
      <trkpt lat="44.32496" lon="5.21415">
        <ele>696.5</ele>
        <time>2022-07-18T07:37:59Z</time>
      </trkpt>
      <trkpt lat="44.32498" lon="5.21416">
        <ele>696.6</ele>
        <time>2022-07-18T07:38:00Z</time>
      </trkpt>
      <trkpt lat="44.32499" lon="5.21417">
        <ele>696.8</ele>
        <time>2022-07-18T07:38:01Z</time>
      </trkpt>
      <trkpt lat="44.325" lon="5.21419">
        <ele>697</ele>
        <time>2022-07-18T07:38:02Z</time>
      </trkpt>
      <trkpt lat="44.32501" lon="5.2142">
        <ele>697.2</ele>
        <time>2022-07-18T07:38:03Z</time>
      </trkpt>
      <trkpt lat="44.32503" lon="5.21421">
        <ele>697.4</ele>
        <time>2022-07-18T07:38:04Z</time>
      </trkpt>
      <trkpt lat="44.32505" lon="5.21424">
        <ele>697.7</ele>
        <time>2022-07-18T07:38:05Z</time>
      </trkpt>
      <trkpt lat="44.32506" lon="5.21425">
        <ele>697.8</ele>
        <time>2022-07-18T07:38:06Z</time>
      </trkpt>
      <trkpt lat="44.32507" lon="5.21426">
        <ele>698</ele>
        <time>2022-07-18T07:38:07Z</time>
      </trkpt>
      <trkpt lat="44.32508" lon="5.21428">
        <ele>698.2</ele>
        <time>2022-07-18T07:38:08Z</time>
      </trkpt>
      <trkpt lat="44.32509" lon="5.21429">
        <ele>698.3</ele>
        <time>2022-07-18T07:38:09Z</time>
      </trkpt>
      <trkpt lat="44.3251" lon="5.2143">
        <ele>698.4</ele>
        <time>2022-07-18T07:38:10Z</time>
      </trkpt>
      <trkpt lat="44.3251" lon="5.21431">
        <ele>698.5</ele>
        <time>2022-07-18T07:38:11Z</time>
      </trkpt>
      <trkpt lat="44.32511" lon="5.21432">
        <ele>698.7</ele>
        <time>2022-07-18T07:38:12Z</time>
      </trkpt>
      <trkpt lat="44.32512" lon="5.21433">
        <ele>698.8</ele>
        <time>2022-07-18T07:38:13Z</time>
      </trkpt>
      <trkpt lat="44.32512" lon="5.21434">
        <ele>698.9</ele>
        <time>2022-07-18T07:38:14Z</time>
      </trkpt>
      <trkpt lat="44.32514" lon="5.21436">
        <ele>699.1</ele>
        <time>2022-07-18T07:38:15Z</time>
      </trkpt>
      <trkpt lat="44.32515" lon="5.21437">
        <ele>699.2</ele>
        <time>2022-07-18T07:38:16Z</time>
      </trkpt>
      <trkpt lat="44.32515" lon="5.21438">
        <ele>699.3</ele>
        <time>2022-07-18T07:38:17Z</time>
      </trkpt>
      <trkpt lat="44.32516" lon="5.21439">
        <ele>699.4</ele>
        <time>2022-07-18T07:38:18Z</time>
      </trkpt>
      <trkpt lat="44.32518" lon="5.2144">
        <ele>699.6</ele>
        <time>2022-07-18T07:38:19Z</time>
      </trkpt>
      <trkpt lat="44.32518" lon="5.21441">
        <ele>699.7</ele>
        <time>2022-07-18T07:38:20Z</time>
      </trkpt>
      <trkpt lat="44.32519" lon="5.21442">
        <ele>699.8</ele>
        <time>2022-07-18T07:38:21Z</time>
      </trkpt>
      <trkpt lat="44.3252" lon="5.21443">
        <ele>699.9</ele>
        <time>2022-07-18T07:38:22Z</time>
      </trkpt>
      <trkpt lat="44.32521" lon="5.21444">
        <ele>700</ele>
        <time>2022-07-18T07:38:23Z</time>
      </trkpt>
      <trkpt lat="44.32522" lon="5.21445">
        <ele>700.1</ele>
        <time>2022-07-18T07:38:24Z</time>
      </trkpt>
      <trkpt lat="44.32522" lon="5.21446">
        <ele>700.2</ele>
        <time>2022-07-18T07:38:25Z</time>
      </trkpt>
      <trkpt lat="44.32523" lon="5.21447">
        <ele>700.3</ele>
        <time>2022-07-18T07:38:26Z</time>
      </trkpt>
      <trkpt lat="44.32524" lon="5.21448">
        <ele>700.4</ele>
        <time>2022-07-18T07:38:27Z</time>
      </trkpt>
      <trkpt lat="44.32525" lon="5.21449">
        <ele>700.5</ele>
        <time>2022-07-18T07:38:28Z</time>
      </trkpt>
      <trkpt lat="44.32526" lon="5.2145">
        <ele>700.7</ele>
        <time>2022-07-18T07:38:29Z</time>
      </trkpt>
      <trkpt lat="44.32527" lon="5.21451">
        <ele>700.8</ele>
        <time>2022-07-18T07:38:30Z</time>
      </trkpt>
      <trkpt lat="44.32528" lon="5.21452">
        <ele>700.9</ele>
        <time>2022-07-18T07:38:31Z</time>
      </trkpt>
      <trkpt lat="44.32529" lon="5.21453">
        <ele>701</ele>
        <time>2022-07-18T07:38:32Z</time>
      </trkpt>
      <trkpt lat="44.32529" lon="5.21454">
        <ele>701.1</ele>
        <time>2022-07-18T07:38:33Z</time>
      </trkpt>
      <trkpt lat="44.3253" lon="5.21455">
        <ele>701.2</ele>
        <time>2022-07-18T07:38:34Z</time>
      </trkpt>
      <trkpt lat="44.32531" lon="5.21455">
        <ele>701.3</ele>
        <time>2022-07-18T07:38:35Z</time>
      </trkpt>
      <trkpt lat="44.32532" lon="5.21456">
        <ele>701.4</ele>
        <time>2022-07-18T07:38:36Z</time>
      </trkpt>
      <trkpt lat="44.32533" lon="5.21456">
        <ele>701.5</ele>
        <time>2022-07-18T07:38:37Z</time>
      </trkpt>
      <trkpt lat="44.32533" lon="5.21456">
        <ele>701.6</ele>
        <time>2022-07-18T07:38:38Z</time>
      </trkpt>
      <trkpt lat="44.32535" lon="5.21457">
        <ele>701.7</ele>
        <time>2022-07-18T07:38:39Z</time>
      </trkpt>
      <trkpt lat="44.32536" lon="5.21458">
        <ele>701.9</ele>
        <time>2022-07-18T07:38:40Z</time>
      </trkpt>
      <trkpt lat="44.32537" lon="5.21459">
        <ele>702</ele>
        <time>2022-07-18T07:38:41Z</time>
      </trkpt>
      <trkpt lat="44.32539" lon="5.2146">
        <ele>702.2</ele>
        <time>2022-07-18T07:38:42Z</time>
      </trkpt>
      <trkpt lat="44.3254" lon="5.21462">
        <ele>702.3</ele>
        <time>2022-07-18T07:38:43Z</time>
      </trkpt>
      <trkpt lat="44.32542" lon="5.21462">
        <ele>702.5</ele>
        <time>2022-07-18T07:38:44Z</time>
      </trkpt>
      <trkpt lat="44.32543" lon="5.21463">
        <ele>702.6</ele>
        <time>2022-07-18T07:38:45Z</time>
      </trkpt>
      <trkpt lat="44.32544" lon="5.21464">
        <ele>702.8</ele>
        <time>2022-07-18T07:38:46Z</time>
      </trkpt>
      <trkpt lat="44.32546" lon="5.21465">
        <ele>703</ele>
        <time>2022-07-18T07:38:47Z</time>
      </trkpt>
      <trkpt lat="44.32547" lon="5.21466">
        <ele>703.1</ele>
        <time>2022-07-18T07:38:48Z</time>
      </trkpt>
      <trkpt lat="44.32548" lon="5.21466">
        <ele>703.2</ele>
        <time>2022-07-18T07:38:49Z</time>
      </trkpt>
      <trkpt lat="44.32549" lon="5.21466">
        <ele>703.3</ele>
        <time>2022-07-18T07:38:50Z</time>
      </trkpt>
      <trkpt lat="44.3255" lon="5.21466">
        <ele>703.4</ele>
        <time>2022-07-18T07:38:51Z</time>
      </trkpt>
      <trkpt lat="44.32551" lon="5.21466">
        <ele>703.5</ele>
        <time>2022-07-18T07:38:52Z</time>
      </trkpt>
      <trkpt lat="44.32552" lon="5.21467">
        <ele>703.6</ele>
        <time>2022-07-18T07:38:53Z</time>
      </trkpt>
      <trkpt lat="44.32553" lon="5.21467">
        <ele>703.7</ele>
        <time>2022-07-18T07:38:54Z</time>
      </trkpt>
      <trkpt lat="44.32554" lon="5.21467">
        <ele>703.9</ele>
        <time>2022-07-18T07:38:55Z</time>
      </trkpt>
      <trkpt lat="44.32555" lon="5.21468">
        <ele>704</ele>
        <time>2022-07-18T07:38:56Z</time>
      </trkpt>
      <trkpt lat="44.32556" lon="5.21468">
        <ele>704.1</ele>
        <time>2022-07-18T07:38:57Z</time>
      </trkpt>
      <trkpt lat="44.32557" lon="5.21469">
        <ele>704.2</ele>
        <time>2022-07-18T07:38:58Z</time>
      </trkpt>
      <trkpt lat="44.32559" lon="5.21469">
        <ele>704.4</ele>
        <time>2022-07-18T07:38:59Z</time>
      </trkpt>
      <trkpt lat="44.3256" lon="5.2147">
        <ele>704.5</ele>
        <time>2022-07-18T07:39:00Z</time>
      </trkpt>
      <trkpt lat="44.32561" lon="5.21471">
        <ele>704.7</ele>
        <time>2022-07-18T07:39:01Z</time>
      </trkpt>
      <trkpt lat="44.32563" lon="5.21473">
        <ele>704.9</ele>
        <time>2022-07-18T07:39:02Z</time>
      </trkpt>
      <trkpt lat="44.32565" lon="5.21476">
        <ele>705.2</ele>
        <time>2022-07-18T07:39:03Z</time>
      </trkpt>
      <trkpt lat="44.32565" lon="5.21477">
        <ele>705.4</ele>
        <time>2022-07-18T07:39:04Z</time>
      </trkpt>
      <trkpt lat="44.32567" lon="5.21478">
        <ele>705.6</ele>
        <time>2022-07-18T07:39:05Z</time>
      </trkpt>
      <trkpt lat="44.32568" lon="5.2148">
        <ele>705.8</ele>
        <time>2022-07-18T07:39:06Z</time>
      </trkpt>
      <trkpt lat="44.32569" lon="5.21482">
        <ele>706</ele>
        <time>2022-07-18T07:39:07Z</time>
      </trkpt>
      <trkpt lat="44.32569" lon="5.21484">
        <ele>706.2</ele>
        <time>2022-07-18T07:39:08Z</time>
      </trkpt>
      <trkpt lat="44.32571" lon="5.21486">
        <ele>706.4</ele>
        <time>2022-07-18T07:39:09Z</time>
      </trkpt>
      <trkpt lat="44.32572" lon="5.21487">
        <ele>706.6</ele>
        <time>2022-07-18T07:39:10Z</time>
      </trkpt>
      <trkpt lat="44.32573" lon="5.21488">
        <ele>706.7</ele>
        <time>2022-07-18T07:39:11Z</time>
      </trkpt>
      <trkpt lat="44.32574" lon="5.2149">
        <ele>706.9</ele>
        <time>2022-07-18T07:39:12Z</time>
      </trkpt>
      <trkpt lat="44.32575" lon="5.21491">
        <ele>707.1</ele>
        <time>2022-07-18T07:39:13Z</time>
      </trkpt>
      <trkpt lat="44.32575" lon="5.21492">
        <ele>707.3</ele>
        <time>2022-07-18T07:39:14Z</time>
      </trkpt>
      <trkpt lat="44.32576" lon="5.21493">
        <ele>707.4</ele>
        <time>2022-07-18T07:39:15Z</time>
      </trkpt>
      <trkpt lat="44.32578" lon="5.21495">
        <ele>707.6</ele>
        <time>2022-07-18T07:39:16Z</time>
      </trkpt>
      <trkpt lat="44.32578" lon="5.21496">
        <ele>707.7</ele>
        <time>2022-07-18T07:39:17Z</time>
      </trkpt>
      <trkpt lat="44.32579" lon="5.21497">
        <ele>707.8</ele>
        <time>2022-07-18T07:39:18Z</time>
      </trkpt>
      <trkpt lat="44.3258" lon="5.21498">
        <ele>708</ele>
        <time>2022-07-18T07:39:19Z</time>
      </trkpt>
      <trkpt lat="44.32581" lon="5.21499">
        <ele>708.2</ele>
        <time>2022-07-18T07:39:20Z</time>
      </trkpt>
      <trkpt lat="44.32581" lon="5.215">
        <ele>708.3</ele>
        <time>2022-07-18T07:39:21Z</time>
      </trkpt>
      <trkpt lat="44.32582" lon="5.215">
        <ele>708.4</ele>
        <time>2022-07-18T07:39:22Z</time>
      </trkpt>
      <trkpt lat="44.32583" lon="5.21501">
        <ele>708.5</ele>
        <time>2022-07-18T07:39:23Z</time>
      </trkpt>
      <trkpt lat="44.32584" lon="5.21503">
        <ele>708.7</ele>
        <time>2022-07-18T07:39:24Z</time>
      </trkpt>
      <trkpt lat="44.32585" lon="5.21504">
        <ele>708.9</ele>
        <time>2022-07-18T07:39:25Z</time>
      </trkpt>
      <trkpt lat="44.32586" lon="5.21505">
        <ele>709</ele>
        <time>2022-07-18T07:39:26Z</time>
      </trkpt>
      <trkpt lat="44.32587" lon="5.21506">
        <ele>709.2</ele>
        <time>2022-07-18T07:39:27Z</time>
      </trkpt>
      <trkpt lat="44.32589" lon="5.21509">
        <ele>709.5</ele>
        <time>2022-07-18T07:39:28Z</time>
      </trkpt>
      <trkpt lat="44.32589" lon="5.2151">
        <ele>709.7</ele>
        <time>2022-07-18T07:39:29Z</time>
      </trkpt>
      <trkpt lat="44.32591" lon="5.21512">
        <ele>709.9</ele>
        <time>2022-07-18T07:39:30Z</time>
      </trkpt>
      <trkpt lat="44.32592" lon="5.21513">
        <ele>710.1</ele>
        <time>2022-07-18T07:39:31Z</time>
      </trkpt>
      <trkpt lat="44.32593" lon="5.21515">
        <ele>710.4</ele>
        <time>2022-07-18T07:39:32Z</time>
      </trkpt>
      <trkpt lat="44.32594" lon="5.21516">
        <ele>710.5</ele>
        <time>2022-07-18T07:39:33Z</time>
      </trkpt>
      <trkpt lat="44.32594" lon="5.21517">
        <ele>710.6</ele>
        <time>2022-07-18T07:39:34Z</time>
      </trkpt>
      <trkpt lat="44.32596" lon="5.21519">
        <ele>710.9</ele>
        <time>2022-07-18T07:39:35Z</time>
      </trkpt>
      <trkpt lat="44.32597" lon="5.2152">
        <ele>711</ele>
        <time>2022-07-18T07:39:36Z</time>
      </trkpt>
      <trkpt lat="44.32598" lon="5.21521">
        <ele>711.2</ele>
        <time>2022-07-18T07:39:37Z</time>
      </trkpt>
      <trkpt lat="44.32599" lon="5.21522">
        <ele>711.3</ele>
        <time>2022-07-18T07:39:38Z</time>
      </trkpt>
      <trkpt lat="44.326" lon="5.21522">
        <ele>711.5</ele>
        <time>2022-07-18T07:39:39Z</time>
      </trkpt>
      <trkpt lat="44.32601" lon="5.21522">
        <ele>711.6</ele>
        <time>2022-07-18T07:39:40Z</time>
      </trkpt>
      <trkpt lat="44.32602" lon="5.21523">
        <ele>711.8</ele>
        <time>2022-07-18T07:39:41Z</time>
      </trkpt>
      <trkpt lat="44.32604" lon="5.21524">
        <ele>712</ele>
        <time>2022-07-18T07:39:42Z</time>
      </trkpt>
      <trkpt lat="44.32605" lon="5.21525">
        <ele>712.1</ele>
        <time>2022-07-18T07:39:43Z</time>
      </trkpt>
      <trkpt lat="44.32606" lon="5.21527">
        <ele>712.3</ele>
        <time>2022-07-18T07:39:44Z</time>
      </trkpt>
      <trkpt lat="44.32607" lon="5.21528">
        <ele>712.4</ele>
        <time>2022-07-18T07:39:45Z</time>
      </trkpt>
      <trkpt lat="44.32609" lon="5.21529">
        <ele>712.6</ele>
        <time>2022-07-18T07:39:46Z</time>
      </trkpt>
      <trkpt lat="44.3261" lon="5.2153">
        <ele>712.7</ele>
        <time>2022-07-18T07:39:47Z</time>
      </trkpt>
      <trkpt lat="44.32611" lon="5.2153">
        <ele>712.9</ele>
        <time>2022-07-18T07:39:48Z</time>
      </trkpt>
      <trkpt lat="44.32613" lon="5.21531">
        <ele>713.1</ele>
        <time>2022-07-18T07:39:49Z</time>
      </trkpt>
      <trkpt lat="44.32615" lon="5.21532">
        <ele>713.3</ele>
        <time>2022-07-18T07:39:50Z</time>
      </trkpt>
      <trkpt lat="44.32616" lon="5.21533">
        <ele>713.4</ele>
        <time>2022-07-18T07:39:51Z</time>
      </trkpt>
      <trkpt lat="44.32617" lon="5.21533">
        <ele>713.5</ele>
        <time>2022-07-18T07:39:52Z</time>
      </trkpt>
      <trkpt lat="44.32618" lon="5.21534">
        <ele>713.6</ele>
        <time>2022-07-18T07:39:53Z</time>
      </trkpt>
      <trkpt lat="44.3262" lon="5.21534">
        <ele>713.8</ele>
        <time>2022-07-18T07:39:54Z</time>
      </trkpt>
      <trkpt lat="44.32621" lon="5.21535">
        <ele>714</ele>
        <time>2022-07-18T07:39:55Z</time>
      </trkpt>
      <trkpt lat="44.32623" lon="5.21535">
        <ele>714.1</ele>
        <time>2022-07-18T07:39:56Z</time>
      </trkpt>
      <trkpt lat="44.32624" lon="5.21536">
        <ele>714.2</ele>
        <time>2022-07-18T07:39:57Z</time>
      </trkpt>
      <trkpt lat="44.32626" lon="5.21537">
        <ele>714.4</ele>
        <time>2022-07-18T07:39:58Z</time>
      </trkpt>
      <trkpt lat="44.32627" lon="5.21538">
        <ele>714.5</ele>
        <time>2022-07-18T07:39:59Z</time>
      </trkpt>
      <trkpt lat="44.32629" lon="5.21538">
        <ele>714.7</ele>
        <time>2022-07-18T07:40:00Z</time>
      </trkpt>
      <trkpt lat="44.3263" lon="5.21538">
        <ele>714.8</ele>
        <time>2022-07-18T07:40:01Z</time>
      </trkpt>
      <trkpt lat="44.32631" lon="5.21539">
        <ele>714.9</ele>
        <time>2022-07-18T07:40:02Z</time>
      </trkpt>
      <trkpt lat="44.32633" lon="5.2154">
        <ele>715</ele>
        <time>2022-07-18T07:40:03Z</time>
      </trkpt>
      <trkpt lat="44.32634" lon="5.21541">
        <ele>715.1</ele>
        <time>2022-07-18T07:40:04Z</time>
      </trkpt>
      <trkpt lat="44.32635" lon="5.21542">
        <ele>715.2</ele>
        <time>2022-07-18T07:40:05Z</time>
      </trkpt>
      <trkpt lat="44.32636" lon="5.21543">
        <ele>715.3</ele>
        <time>2022-07-18T07:40:06Z</time>
      </trkpt>
      <trkpt lat="44.32637" lon="5.21544">
        <ele>715.4</ele>
        <time>2022-07-18T07:40:07Z</time>
      </trkpt>
      <trkpt lat="44.32637" lon="5.21545">
        <ele>715.5</ele>
        <time>2022-07-18T07:40:08Z</time>
      </trkpt>
      <trkpt lat="44.32638" lon="5.21547">
        <ele>715.6</ele>
        <time>2022-07-18T07:40:09Z</time>
      </trkpt>
      <trkpt lat="44.32639" lon="5.21548">
        <ele>715.7</ele>
        <time>2022-07-18T07:40:10Z</time>
      </trkpt>
      <trkpt lat="44.32639" lon="5.2155">
        <ele>715.8</ele>
        <time>2022-07-18T07:40:11Z</time>
      </trkpt>
      <trkpt lat="44.32639" lon="5.21551">
        <ele>715.9</ele>
        <time>2022-07-18T07:40:12Z</time>
      </trkpt>
      <trkpt lat="44.3264" lon="5.21552">
        <ele>716</ele>
        <time>2022-07-18T07:40:13Z</time>
      </trkpt>
      <trkpt lat="44.3264" lon="5.21553">
        <ele>716</ele>
        <time>2022-07-18T07:40:14Z</time>
      </trkpt>
      <trkpt lat="44.32641" lon="5.21555">
        <ele>716.1</ele>
        <time>2022-07-18T07:40:15Z</time>
      </trkpt>
      <trkpt lat="44.32641" lon="5.21557">
        <ele>716.2</ele>
        <time>2022-07-18T07:40:16Z</time>
      </trkpt>
      <trkpt lat="44.32642" lon="5.21559">
        <ele>716.4</ele>
        <time>2022-07-18T07:40:17Z</time>
      </trkpt>
      <trkpt lat="44.32643" lon="5.2156">
        <ele>716.5</ele>
        <time>2022-07-18T07:40:18Z</time>
      </trkpt>
      <trkpt lat="44.32645" lon="5.21562">
        <ele>716.7</ele>
        <time>2022-07-18T07:40:19Z</time>
      </trkpt>
      <trkpt lat="44.32646" lon="5.21564">
        <ele>716.8</ele>
        <time>2022-07-18T07:40:20Z</time>
      </trkpt>
      <trkpt lat="44.32646" lon="5.21566">
        <ele>716.9</ele>
        <time>2022-07-18T07:40:21Z</time>
      </trkpt>
      <trkpt lat="44.32646" lon="5.21568">
        <ele>717</ele>
        <time>2022-07-18T07:40:22Z</time>
      </trkpt>
      <trkpt lat="44.32647" lon="5.2157">
        <ele>717.1</ele>
        <time>2022-07-18T07:40:23Z</time>
      </trkpt>
      <trkpt lat="44.32646" lon="5.21571">
        <ele>717.2</ele>
        <time>2022-07-18T07:40:24Z</time>
      </trkpt>
      <trkpt lat="44.32646" lon="5.21572">
        <ele>717.3</ele>
        <time>2022-07-18T07:40:25Z</time>
      </trkpt>
      <trkpt lat="44.32645" lon="5.21573">
        <ele>717.3</ele>
        <time>2022-07-18T07:40:26Z</time>
      </trkpt>
      <trkpt lat="44.32645" lon="5.21574">
        <ele>717.4</ele>
        <time>2022-07-18T07:40:27Z</time>
      </trkpt>
      <trkpt lat="44.32645" lon="5.21576">
        <ele>717.5</ele>
        <time>2022-07-18T07:40:28Z</time>
      </trkpt>
      <trkpt lat="44.32645" lon="5.21577">
        <ele>717.6</ele>
        <time>2022-07-18T07:40:29Z</time>
      </trkpt>
      <trkpt lat="44.32646" lon="5.21579">
        <ele>717.7</ele>
        <time>2022-07-18T07:40:30Z</time>
      </trkpt>
      <trkpt lat="44.32646" lon="5.21583">
        <ele>717.9</ele>
        <time>2022-07-18T07:40:31Z</time>
      </trkpt>
      <trkpt lat="44.32647" lon="5.21584">
        <ele>717.9</ele>
        <time>2022-07-18T07:40:32Z</time>
      </trkpt>
      <trkpt lat="44.32647" lon="5.21588">
        <ele>718.1</ele>
        <time>2022-07-18T07:40:33Z</time>
      </trkpt>
      <trkpt lat="44.32647" lon="5.21589">
        <ele>718.2</ele>
        <time>2022-07-18T07:40:34Z</time>
      </trkpt>
      <trkpt lat="44.32647" lon="5.21591">
        <ele>718.2</ele>
        <time>2022-07-18T07:40:35Z</time>
      </trkpt>
      <trkpt lat="44.32647" lon="5.21593">
        <ele>718.3</ele>
        <time>2022-07-18T07:40:36Z</time>
      </trkpt>
      <trkpt lat="44.32647" lon="5.21596">
        <ele>718.4</ele>
        <time>2022-07-18T07:40:37Z</time>
      </trkpt>
      <trkpt lat="44.32647" lon="5.21597">
        <ele>718.5</ele>
        <time>2022-07-18T07:40:38Z</time>
      </trkpt>
      <trkpt lat="44.32646" lon="5.21599">
        <ele>718.6</ele>
        <time>2022-07-18T07:40:39Z</time>
      </trkpt>
      <trkpt lat="44.32646" lon="5.21601">
        <ele>718.7</ele>
        <time>2022-07-18T07:40:40Z</time>
      </trkpt>
      <trkpt lat="44.32647" lon="5.21603">
        <ele>718.8</ele>
        <time>2022-07-18T07:40:41Z</time>
      </trkpt>
      <trkpt lat="44.32647" lon="5.21606">
        <ele>718.9</ele>
        <time>2022-07-18T07:40:42Z</time>
      </trkpt>
      <trkpt lat="44.32648" lon="5.21608">
        <ele>719</ele>
        <time>2022-07-18T07:40:43Z</time>
      </trkpt>
      <trkpt lat="44.32649" lon="5.21609">
        <ele>719.1</ele>
        <time>2022-07-18T07:40:44Z</time>
      </trkpt>
      <trkpt lat="44.3265" lon="5.21611">
        <ele>719.1</ele>
        <time>2022-07-18T07:40:45Z</time>
      </trkpt>
      <trkpt lat="44.32651" lon="5.21613">
        <ele>719.3</ele>
        <time>2022-07-18T07:40:46Z</time>
      </trkpt>
      <trkpt lat="44.32653" lon="5.21616">
        <ele>719.5</ele>
        <time>2022-07-18T07:40:47Z</time>
      </trkpt>
      <trkpt lat="44.32654" lon="5.21617">
        <ele>719.5</ele>
        <time>2022-07-18T07:40:48Z</time>
      </trkpt>
      <trkpt lat="44.32655" lon="5.21619">
        <ele>719.6</ele>
        <time>2022-07-18T07:40:49Z</time>
      </trkpt>
      <trkpt lat="44.32656" lon="5.21621">
        <ele>719.7</ele>
        <time>2022-07-18T07:40:50Z</time>
      </trkpt>
      <trkpt lat="44.32657" lon="5.21623">
        <ele>719.8</ele>
        <time>2022-07-18T07:40:51Z</time>
      </trkpt>
      <trkpt lat="44.32657" lon="5.21625">
        <ele>719.9</ele>
        <time>2022-07-18T07:40:52Z</time>
      </trkpt>
      <trkpt lat="44.32657" lon="5.21627">
        <ele>720</ele>
        <time>2022-07-18T07:40:53Z</time>
      </trkpt>
      <trkpt lat="44.32656" lon="5.21629">
        <ele>720.1</ele>
        <time>2022-07-18T07:40:54Z</time>
      </trkpt>
      <trkpt lat="44.32656" lon="5.2163">
        <ele>720.1</ele>
        <time>2022-07-18T07:40:55Z</time>
      </trkpt>
      <trkpt lat="44.32656" lon="5.21632">
        <ele>720.2</ele>
        <time>2022-07-18T07:40:56Z</time>
      </trkpt>
      <trkpt lat="44.32655" lon="5.21634">
        <ele>720.3</ele>
        <time>2022-07-18T07:40:57Z</time>
      </trkpt>
      <trkpt lat="44.32655" lon="5.21637">
        <ele>720.4</ele>
        <time>2022-07-18T07:40:58Z</time>
      </trkpt>
      <trkpt lat="44.32655" lon="5.21639">
        <ele>720.5</ele>
        <time>2022-07-18T07:40:59Z</time>
      </trkpt>
      <trkpt lat="44.32655" lon="5.21641">
        <ele>720.6</ele>
        <time>2022-07-18T07:41:00Z</time>
      </trkpt>
      <trkpt lat="44.32655" lon="5.21644">
        <ele>720.7</ele>
        <time>2022-07-18T07:41:01Z</time>
      </trkpt>
      <trkpt lat="44.32654" lon="5.21648">
        <ele>720.9</ele>
        <time>2022-07-18T07:41:02Z</time>
      </trkpt>
      <trkpt lat="44.32654" lon="5.21649">
        <ele>720.9</ele>
        <time>2022-07-18T07:41:03Z</time>
      </trkpt>
      <trkpt lat="44.32654" lon="5.21651">
        <ele>721</ele>
        <time>2022-07-18T07:41:04Z</time>
      </trkpt>
      <trkpt lat="44.32653" lon="5.21653">
        <ele>721.1</ele>
        <time>2022-07-18T07:41:05Z</time>
      </trkpt>
      <trkpt lat="44.32653" lon="5.21655">
        <ele>721.2</ele>
        <time>2022-07-18T07:41:06Z</time>
      </trkpt>
      <trkpt lat="44.32653" lon="5.21657">
        <ele>721.3</ele>
        <time>2022-07-18T07:41:07Z</time>
      </trkpt>
      <trkpt lat="44.32652" lon="5.2166">
        <ele>721.4</ele>
        <time>2022-07-18T07:41:08Z</time>
      </trkpt>
      <trkpt lat="44.32652" lon="5.21662">
        <ele>721.4</ele>
        <time>2022-07-18T07:41:09Z</time>
      </trkpt>
      <trkpt lat="44.32652" lon="5.21663">
        <ele>721.5</ele>
        <time>2022-07-18T07:41:10Z</time>
      </trkpt>
      <trkpt lat="44.32651" lon="5.21665">
        <ele>721.6</ele>
        <time>2022-07-18T07:41:11Z</time>
      </trkpt>
      <trkpt lat="44.32651" lon="5.21668">
        <ele>721.7</ele>
        <time>2022-07-18T07:41:12Z</time>
      </trkpt>
      <trkpt lat="44.3265" lon="5.2167">
        <ele>721.7</ele>
        <time>2022-07-18T07:41:13Z</time>
      </trkpt>
      <trkpt lat="44.3265" lon="5.21672">
        <ele>721.8</ele>
        <time>2022-07-18T07:41:14Z</time>
      </trkpt>
      <trkpt lat="44.32648" lon="5.21676">
        <ele>721.9</ele>
        <time>2022-07-18T07:41:15Z</time>
      </trkpt>
      <trkpt lat="44.32648" lon="5.21677">
        <ele>721.9</ele>
        <time>2022-07-18T07:41:16Z</time>
      </trkpt>
      <trkpt lat="44.32646" lon="5.2168">
        <ele>722</ele>
        <time>2022-07-18T07:41:17Z</time>
      </trkpt>
      <trkpt lat="44.32646" lon="5.21681">
        <ele>722.1</ele>
        <time>2022-07-18T07:41:18Z</time>
      </trkpt>
      <trkpt lat="44.32644" lon="5.21686">
        <ele>722.2</ele>
        <time>2022-07-18T07:41:19Z</time>
      </trkpt>
      <trkpt lat="44.32643" lon="5.21688">
        <ele>722.2</ele>
        <time>2022-07-18T07:41:20Z</time>
      </trkpt>
      <trkpt lat="44.32642" lon="5.21692">
        <ele>722.3</ele>
        <time>2022-07-18T07:41:21Z</time>
      </trkpt>
      <trkpt lat="44.32641" lon="5.21694">
        <ele>722.3</ele>
        <time>2022-07-18T07:41:22Z</time>
      </trkpt>
      <trkpt lat="44.3264" lon="5.21698">
        <ele>722.4</ele>
        <time>2022-07-18T07:41:23Z</time>
      </trkpt>
      <trkpt lat="44.32639" lon="5.21699">
        <ele>722.4</ele>
        <time>2022-07-18T07:41:24Z</time>
      </trkpt>
      <trkpt lat="44.32638" lon="5.21701">
        <ele>722.4</ele>
        <time>2022-07-18T07:41:25Z</time>
      </trkpt>
      <trkpt lat="44.32637" lon="5.21703">
        <ele>722.5</ele>
        <time>2022-07-18T07:41:26Z</time>
      </trkpt>
      <trkpt lat="44.32636" lon="5.21706">
        <ele>722.5</ele>
        <time>2022-07-18T07:41:27Z</time>
      </trkpt>
      <trkpt lat="44.32635" lon="5.21707">
        <ele>722.6</ele>
        <time>2022-07-18T07:41:28Z</time>
      </trkpt>
      <trkpt lat="44.32635" lon="5.21712">
        <ele>722.6</ele>
        <time>2022-07-18T07:41:29Z</time>
      </trkpt>
      <trkpt lat="44.32634" lon="5.21713">
        <ele>722.6</ele>
        <time>2022-07-18T07:41:30Z</time>
      </trkpt>
      <trkpt lat="44.32634" lon="5.21717">
        <ele>722.7</ele>
        <time>2022-07-18T07:41:31Z</time>
      </trkpt>
      <trkpt lat="44.32633" lon="5.21719">
        <ele>722.7</ele>
        <time>2022-07-18T07:41:32Z</time>
      </trkpt>
      <trkpt lat="44.32632" lon="5.21724">
        <ele>722.8</ele>
        <time>2022-07-18T07:41:33Z</time>
      </trkpt>
      <trkpt lat="44.32632" lon="5.21725">
        <ele>722.8</ele>
        <time>2022-07-18T07:41:34Z</time>
      </trkpt>
      <trkpt lat="44.3263" lon="5.2173">
        <ele>722.9</ele>
        <time>2022-07-18T07:41:35Z</time>
      </trkpt>
      <trkpt lat="44.32629" lon="5.21732">
        <ele>723</ele>
        <time>2022-07-18T07:41:36Z</time>
      </trkpt>
      <trkpt lat="44.32628" lon="5.21735">
        <ele>723</ele>
        <time>2022-07-18T07:41:37Z</time>
      </trkpt>
      <trkpt lat="44.32627" lon="5.21739">
        <ele>723.1</ele>
        <time>2022-07-18T07:41:38Z</time>
      </trkpt>
      <trkpt lat="44.32626" lon="5.21743">
        <ele>723.2</ele>
        <time>2022-07-18T07:41:39Z</time>
      </trkpt>
      <trkpt lat="44.32626" lon="5.21748">
        <ele>723.2</ele>
        <time>2022-07-18T07:41:40Z</time>
      </trkpt>
      <trkpt lat="44.32626" lon="5.2175">
        <ele>723.3</ele>
        <time>2022-07-18T07:41:41Z</time>
      </trkpt>
      <trkpt lat="44.32625" lon="5.21755">
        <ele>723.4</ele>
        <time>2022-07-18T07:41:42Z</time>
      </trkpt>
      <trkpt lat="44.32625" lon="5.21756">
        <ele>723.4</ele>
        <time>2022-07-18T07:41:43Z</time>
      </trkpt>
      <trkpt lat="44.32624" lon="5.21761">
        <ele>723.4</ele>
        <time>2022-07-18T07:41:44Z</time>
      </trkpt>
      <trkpt lat="44.32624" lon="5.21762">
        <ele>723.4</ele>
        <time>2022-07-18T07:41:45Z</time>
      </trkpt>
      <trkpt lat="44.32625" lon="5.21764">
        <ele>723.5</ele>
        <time>2022-07-18T07:41:46Z</time>
      </trkpt>
      <trkpt lat="44.32625" lon="5.21766">
        <ele>723.5</ele>
        <time>2022-07-18T07:41:47Z</time>
      </trkpt>
      <trkpt lat="44.32626" lon="5.21768">
        <ele>723.5</ele>
        <time>2022-07-18T07:41:48Z</time>
      </trkpt>
      <trkpt lat="44.32626" lon="5.21769">
        <ele>723.5</ele>
        <time>2022-07-18T07:41:49Z</time>
      </trkpt>
      <trkpt lat="44.32627" lon="5.2177">
        <ele>723.5</ele>
        <time>2022-07-18T07:41:50Z</time>
      </trkpt>
      <trkpt lat="44.32627" lon="5.21771">
        <ele>723.6</ele>
        <time>2022-07-18T07:41:51Z</time>
      </trkpt>
      <trkpt lat="44.32627" lon="5.21773">
        <ele>723.6</ele>
        <time>2022-07-18T07:41:52Z</time>
      </trkpt>
      <trkpt lat="44.32627" lon="5.21774">
        <ele>723.6</ele>
        <time>2022-07-18T07:41:53Z</time>
      </trkpt>
      <trkpt lat="44.32627" lon="5.21775">
        <ele>723.5</ele>
        <time>2022-07-18T07:41:54Z</time>
      </trkpt>
      <trkpt lat="44.32627" lon="5.21776">
        <ele>723.5</ele>
        <time>2022-07-18T07:41:55Z</time>
      </trkpt>
      <trkpt lat="44.32627" lon="5.21777">
        <ele>723.5</ele>
        <time>2022-07-18T07:41:56Z</time>
      </trkpt>
      <trkpt lat="44.32627" lon="5.21778">
        <ele>723.5</ele>
        <time>2022-07-18T07:41:57Z</time>
      </trkpt>
      <trkpt lat="44.32627" lon="5.21779">
        <ele>723.5</ele>
        <time>2022-07-18T07:41:58Z</time>
      </trkpt>
      <trkpt lat="44.32627" lon="5.2178">
        <ele>723.5</ele>
        <time>2022-07-18T07:44:48Z</time>
      </trkpt>
      <trkpt lat="44.32627" lon="5.21781">
        <ele>723.5</ele>
        <time>2022-07-18T07:44:49Z</time>
      </trkpt>
      <trkpt lat="44.32627" lon="5.21785">
        <ele>723.5</ele>
        <time>2022-07-18T07:44:50Z</time>
      </trkpt>
      <trkpt lat="44.32626" lon="5.21789">
        <ele>723.4</ele>
        <time>2022-07-18T07:44:51Z</time>
      </trkpt>
      <trkpt lat="44.32625" lon="5.21793">
        <ele>723.4</ele>
        <time>2022-07-18T07:44:52Z</time>
      </trkpt>
      <trkpt lat="44.32623" lon="5.21797">
        <ele>723.3</ele>
        <time>2022-07-18T07:44:53Z</time>
      </trkpt>
      <trkpt lat="44.32623" lon="5.21799">
        <ele>723.3</ele>
        <time>2022-07-18T07:44:54Z</time>
      </trkpt>
      <trkpt lat="44.32621" lon="5.21803">
        <ele>723.2</ele>
        <time>2022-07-18T07:44:55Z</time>
      </trkpt>
      <trkpt lat="44.3262" lon="5.21805">
        <ele>723.2</ele>
        <time>2022-07-18T07:44:56Z</time>
      </trkpt>
      <trkpt lat="44.32618" lon="5.21809">
        <ele>723.1</ele>
        <time>2022-07-18T07:44:57Z</time>
      </trkpt>
      <trkpt lat="44.32616" lon="5.21813">
        <ele>723</ele>
        <time>2022-07-18T07:44:58Z</time>
      </trkpt>
      <trkpt lat="44.32614" lon="5.21817">
        <ele>722.9</ele>
        <time>2022-07-18T07:44:59Z</time>
      </trkpt>
      <trkpt lat="44.32611" lon="5.21821">
        <ele>722.8</ele>
        <time>2022-07-18T07:45:00Z</time>
      </trkpt>
      <trkpt lat="44.32608" lon="5.21825">
        <ele>722.7</ele>
        <time>2022-07-18T07:45:01Z</time>
      </trkpt>
      <trkpt lat="44.32605" lon="5.21829">
        <ele>722.7</ele>
        <time>2022-07-18T07:45:02Z</time>
      </trkpt>
      <trkpt lat="44.32602" lon="5.21833">
        <ele>722.6</ele>
        <time>2022-07-18T07:45:03Z</time>
      </trkpt>
      <trkpt lat="44.326" lon="5.21837">
        <ele>722.6</ele>
        <time>2022-07-18T07:45:04Z</time>
      </trkpt>
      <trkpt lat="44.32597" lon="5.21842">
        <ele>722.7</ele>
        <time>2022-07-18T07:45:05Z</time>
      </trkpt>
      <trkpt lat="44.32595" lon="5.21846">
        <ele>722.8</ele>
        <time>2022-07-18T07:45:06Z</time>
      </trkpt>
      <trkpt lat="44.32594" lon="5.2185">
        <ele>722.8</ele>
        <time>2022-07-18T07:45:07Z</time>
      </trkpt>
      <trkpt lat="44.32592" lon="5.21853">
        <ele>723</ele>
        <time>2022-07-18T07:45:08Z</time>
      </trkpt>
      <trkpt lat="44.32591" lon="5.21856">
        <ele>723.1</ele>
        <time>2022-07-18T07:45:09Z</time>
      </trkpt>
      <trkpt lat="44.32589" lon="5.21861">
        <ele>723.3</ele>
        <time>2022-07-18T07:45:10Z</time>
      </trkpt>
      <trkpt lat="44.32589" lon="5.21862">
        <ele>723.3</ele>
        <time>2022-07-18T07:45:11Z</time>
      </trkpt>
      <trkpt lat="44.32587" lon="5.21866">
        <ele>723.5</ele>
        <time>2022-07-18T07:45:12Z</time>
      </trkpt>
      <trkpt lat="44.32587" lon="5.21867">
        <ele>723.6</ele>
        <time>2022-07-18T07:45:13Z</time>
      </trkpt>
      <trkpt lat="44.32586" lon="5.21869">
        <ele>723.7</ele>
        <time>2022-07-18T07:45:14Z</time>
      </trkpt>
      <trkpt lat="44.32585" lon="5.21871">
        <ele>723.9</ele>
        <time>2022-07-18T07:45:15Z</time>
      </trkpt>
      <trkpt lat="44.32584" lon="5.21873">
        <ele>724</ele>
        <time>2022-07-18T07:45:16Z</time>
      </trkpt>
      <trkpt lat="44.32583" lon="5.21875">
        <ele>724.2</ele>
        <time>2022-07-18T07:45:17Z</time>
      </trkpt>
      <trkpt lat="44.32581" lon="5.21877">
        <ele>724.4</ele>
        <time>2022-07-18T07:45:18Z</time>
      </trkpt>
      <trkpt lat="44.3258" lon="5.21878">
        <ele>724.5</ele>
        <time>2022-07-18T07:45:19Z</time>
      </trkpt>
      <trkpt lat="44.32579" lon="5.2188">
        <ele>724.7</ele>
        <time>2022-07-18T07:45:20Z</time>
      </trkpt>
      <trkpt lat="44.32578" lon="5.21881">
        <ele>724.8</ele>
        <time>2022-07-18T07:45:21Z</time>
      </trkpt>
      <trkpt lat="44.32576" lon="5.21883">
        <ele>725</ele>
        <time>2022-07-18T07:45:22Z</time>
      </trkpt>
      <trkpt lat="44.32575" lon="5.21884">
        <ele>725.1</ele>
        <time>2022-07-18T07:45:23Z</time>
      </trkpt>
      <trkpt lat="44.32573" lon="5.21885">
        <ele>725.4</ele>
        <time>2022-07-18T07:45:24Z</time>
      </trkpt>
      <trkpt lat="44.32572" lon="5.21885">
        <ele>725.5</ele>
        <time>2022-07-18T07:45:25Z</time>
      </trkpt>
      <trkpt lat="44.32571" lon="5.21885">
        <ele>725.5</ele>
        <time>2022-07-18T07:45:26Z</time>
      </trkpt>
      <trkpt lat="44.32569" lon="5.21885">
        <ele>725.7</ele>
        <time>2022-07-18T07:45:27Z</time>
      </trkpt>
      <trkpt lat="44.32568" lon="5.21886">
        <ele>725.9</ele>
        <time>2022-07-18T07:45:28Z</time>
      </trkpt>
      <trkpt lat="44.32565" lon="5.21888">
        <ele>726.2</ele>
        <time>2022-07-18T07:45:29Z</time>
      </trkpt>
      <trkpt lat="44.32564" lon="5.21888">
        <ele>726.3</ele>
        <time>2022-07-18T07:45:30Z</time>
      </trkpt>
      <trkpt lat="44.32562" lon="5.2189">
        <ele>726.5</ele>
        <time>2022-07-18T07:45:31Z</time>
      </trkpt>
      <trkpt lat="44.32561" lon="5.21891">
        <ele>726.6</ele>
        <time>2022-07-18T07:45:32Z</time>
      </trkpt>
      <trkpt lat="44.32559" lon="5.21891">
        <ele>726.8</ele>
        <time>2022-07-18T07:45:33Z</time>
      </trkpt>
      <trkpt lat="44.32557" lon="5.21892">
        <ele>727</ele>
        <time>2022-07-18T07:45:34Z</time>
      </trkpt>
      <trkpt lat="44.32556" lon="5.21893">
        <ele>727.1</ele>
        <time>2022-07-18T07:45:35Z</time>
      </trkpt>
      <trkpt lat="44.32555" lon="5.21894">
        <ele>727.3</ele>
        <time>2022-07-18T07:45:36Z</time>
      </trkpt>
      <trkpt lat="44.32553" lon="5.21894">
        <ele>727.5</ele>
        <time>2022-07-18T07:45:37Z</time>
      </trkpt>
      <trkpt lat="44.32552" lon="5.21895">
        <ele>727.6</ele>
        <time>2022-07-18T07:45:38Z</time>
      </trkpt>
      <trkpt lat="44.32551" lon="5.21895">
        <ele>727.7</ele>
        <time>2022-07-18T07:45:39Z</time>
      </trkpt>
      <trkpt lat="44.32549" lon="5.21896">
        <ele>727.8</ele>
        <time>2022-07-18T07:45:40Z</time>
      </trkpt>
      <trkpt lat="44.32548" lon="5.21898">
        <ele>728</ele>
        <time>2022-07-18T07:45:41Z</time>
      </trkpt>
      <trkpt lat="44.32546" lon="5.21899">
        <ele>728.1</ele>
        <time>2022-07-18T07:45:42Z</time>
      </trkpt>
      <trkpt lat="44.32545" lon="5.219">
        <ele>728.3</ele>
        <time>2022-07-18T07:45:43Z</time>
      </trkpt>
      <trkpt lat="44.32544" lon="5.21901">
        <ele>728.4</ele>
        <time>2022-07-18T07:45:44Z</time>
      </trkpt>
      <trkpt lat="44.32542" lon="5.21902">
        <ele>728.6</ele>
        <time>2022-07-18T07:45:45Z</time>
      </trkpt>
      <trkpt lat="44.3254" lon="5.21903">
        <ele>728.8</ele>
        <time>2022-07-18T07:45:46Z</time>
      </trkpt>
      <trkpt lat="44.32539" lon="5.21903">
        <ele>728.9</ele>
        <time>2022-07-18T07:45:47Z</time>
      </trkpt>
      <trkpt lat="44.32539" lon="5.21904">
        <ele>728.9</ele>
        <time>2022-07-18T07:45:48Z</time>
      </trkpt>
      <trkpt lat="44.32537" lon="5.21905">
        <ele>729.1</ele>
        <time>2022-07-18T07:45:49Z</time>
      </trkpt>
      <trkpt lat="44.32536" lon="5.21906">
        <ele>729.2</ele>
        <time>2022-07-18T07:45:50Z</time>
      </trkpt>
      <trkpt lat="44.32534" lon="5.21907">
        <ele>729.4</ele>
        <time>2022-07-18T07:45:51Z</time>
      </trkpt>
      <trkpt lat="44.32533" lon="5.21908">
        <ele>729.5</ele>
        <time>2022-07-18T07:45:52Z</time>
      </trkpt>
      <trkpt lat="44.3253" lon="5.21909">
        <ele>729.8</ele>
        <time>2022-07-18T07:45:53Z</time>
      </trkpt>
      <trkpt lat="44.3253" lon="5.2191">
        <ele>729.9</ele>
        <time>2022-07-18T07:45:54Z</time>
      </trkpt>
      <trkpt lat="44.32528" lon="5.21911">
        <ele>730</ele>
        <time>2022-07-18T07:45:55Z</time>
      </trkpt>
      <trkpt lat="44.32527" lon="5.21913">
        <ele>730.2</ele>
        <time>2022-07-18T07:45:56Z</time>
      </trkpt>
      <trkpt lat="44.32524" lon="5.21915">
        <ele>730.4</ele>
        <time>2022-07-18T07:45:57Z</time>
      </trkpt>
      <trkpt lat="44.32524" lon="5.21916">
        <ele>730.5</ele>
        <time>2022-07-18T07:45:58Z</time>
      </trkpt>
      <trkpt lat="44.32521" lon="5.21918">
        <ele>730.8</ele>
        <time>2022-07-18T07:45:59Z</time>
      </trkpt>
      <trkpt lat="44.3252" lon="5.21918">
        <ele>730.9</ele>
        <time>2022-07-18T07:46:00Z</time>
      </trkpt>
      <trkpt lat="44.32519" lon="5.2192">
        <ele>731</ele>
        <time>2022-07-18T07:46:01Z</time>
      </trkpt>
      <trkpt lat="44.32518" lon="5.21921">
        <ele>731.2</ele>
        <time>2022-07-18T07:46:02Z</time>
      </trkpt>
      <trkpt lat="44.32516" lon="5.21923">
        <ele>731.3</ele>
        <time>2022-07-18T07:46:03Z</time>
      </trkpt>
      <trkpt lat="44.32515" lon="5.21924">
        <ele>731.4</ele>
        <time>2022-07-18T07:46:04Z</time>
      </trkpt>
      <trkpt lat="44.32512" lon="5.21925">
        <ele>731.7</ele>
        <time>2022-07-18T07:46:05Z</time>
      </trkpt>
      <trkpt lat="44.32511" lon="5.21925">
        <ele>731.7</ele>
        <time>2022-07-18T07:46:06Z</time>
      </trkpt>
      <trkpt lat="44.32507" lon="5.21926">
        <ele>732</ele>
        <time>2022-07-18T07:46:07Z</time>
      </trkpt>
      <trkpt lat="44.32506" lon="5.21926">
        <ele>732.1</ele>
        <time>2022-07-18T07:46:08Z</time>
      </trkpt>
      <trkpt lat="44.32503" lon="5.21926">
        <ele>732.3</ele>
        <time>2022-07-18T07:46:09Z</time>
      </trkpt>
      <trkpt lat="44.32501" lon="5.21926">
        <ele>732.4</ele>
        <time>2022-07-18T07:46:10Z</time>
      </trkpt>
      <trkpt lat="44.32498" lon="5.21925">
        <ele>732.6</ele>
        <time>2022-07-18T07:46:11Z</time>
      </trkpt>
      <trkpt lat="44.32497" lon="5.21925">
        <ele>732.6</ele>
        <time>2022-07-18T07:46:12Z</time>
      </trkpt>
      <trkpt lat="44.32494" lon="5.21925">
        <ele>732.8</ele>
        <time>2022-07-18T07:46:13Z</time>
      </trkpt>
      <trkpt lat="44.32493" lon="5.21925">
        <ele>732.8</ele>
        <time>2022-07-18T07:46:14Z</time>
      </trkpt>
      <trkpt lat="44.3249" lon="5.21924">
        <ele>733</ele>
        <time>2022-07-18T07:46:15Z</time>
      </trkpt>
      <trkpt lat="44.32489" lon="5.21924">
        <ele>733</ele>
        <time>2022-07-18T07:46:16Z</time>
      </trkpt>
      <trkpt lat="44.32488" lon="5.21924">
        <ele>733.1</ele>
        <time>2022-07-18T07:46:17Z</time>
      </trkpt>
      <trkpt lat="44.32486" lon="5.21924">
        <ele>733.2</ele>
        <time>2022-07-18T07:46:18Z</time>
      </trkpt>
      <trkpt lat="44.32483" lon="5.21923">
        <ele>733.3</ele>
        <time>2022-07-18T07:46:19Z</time>
      </trkpt>
      <trkpt lat="44.32482" lon="5.21923">
        <ele>733.4</ele>
        <time>2022-07-18T07:46:20Z</time>
      </trkpt>
      <trkpt lat="44.32481" lon="5.21923">
        <ele>733.4</ele>
        <time>2022-07-18T07:46:21Z</time>
      </trkpt>
      <trkpt lat="44.32479" lon="5.21923">
        <ele>733.5</ele>
        <time>2022-07-18T07:46:22Z</time>
      </trkpt>
      <trkpt lat="44.32477" lon="5.21922">
        <ele>733.6</ele>
        <time>2022-07-18T07:46:23Z</time>
      </trkpt>
      <trkpt lat="44.32475" lon="5.21922">
        <ele>733.7</ele>
        <time>2022-07-18T07:46:24Z</time>
      </trkpt>
      <trkpt lat="44.32472" lon="5.21922">
        <ele>733.8</ele>
        <time>2022-07-18T07:46:25Z</time>
      </trkpt>
      <trkpt lat="44.32471" lon="5.21922">
        <ele>733.8</ele>
        <time>2022-07-18T07:46:26Z</time>
      </trkpt>
      <trkpt lat="44.32468" lon="5.21922">
        <ele>734</ele>
        <time>2022-07-18T07:46:27Z</time>
      </trkpt>
      <trkpt lat="44.32466" lon="5.21922">
        <ele>734</ele>
        <time>2022-07-18T07:46:28Z</time>
      </trkpt>
      <trkpt lat="44.32463" lon="5.21922">
        <ele>734.1</ele>
        <time>2022-07-18T07:46:29Z</time>
      </trkpt>
      <trkpt lat="44.32462" lon="5.21922">
        <ele>734.1</ele>
        <time>2022-07-18T07:46:30Z</time>
      </trkpt>
      <trkpt lat="44.32458" lon="5.21921">
        <ele>734.2</ele>
        <time>2022-07-18T07:46:31Z</time>
      </trkpt>
      <trkpt lat="44.32457" lon="5.21921">
        <ele>734.2</ele>
        <time>2022-07-18T07:46:32Z</time>
      </trkpt>
      <trkpt lat="44.32453" lon="5.21921">
        <ele>734.3</ele>
        <time>2022-07-18T07:46:33Z</time>
      </trkpt>
      <trkpt lat="44.32452" lon="5.21921">
        <ele>734.3</ele>
        <time>2022-07-18T07:46:34Z</time>
      </trkpt>
      <trkpt lat="44.32448" lon="5.2192">
        <ele>734.4</ele>
        <time>2022-07-18T07:46:35Z</time>
      </trkpt>
      <trkpt lat="44.32447" lon="5.2192">
        <ele>734.4</ele>
        <time>2022-07-18T07:46:36Z</time>
      </trkpt>
      <trkpt lat="44.32443" lon="5.2192">
        <ele>734.4</ele>
        <time>2022-07-18T07:46:37Z</time>
      </trkpt>
      <trkpt lat="44.32442" lon="5.21919">
        <ele>734.4</ele>
        <time>2022-07-18T07:46:38Z</time>
      </trkpt>
      <trkpt lat="44.32439" lon="5.21919">
        <ele>734.4</ele>
        <time>2022-07-18T07:46:39Z</time>
      </trkpt>
      <trkpt lat="44.32436" lon="5.21919">
        <ele>734.3</ele>
        <time>2022-07-18T07:46:40Z</time>
      </trkpt>
      <trkpt lat="44.32433" lon="5.21919">
        <ele>734.2</ele>
        <time>2022-07-18T07:46:41Z</time>
      </trkpt>
      <trkpt lat="44.32429" lon="5.2192">
        <ele>734.2</ele>
        <time>2022-07-18T07:46:42Z</time>
      </trkpt>
      <trkpt lat="44.32426" lon="5.21921">
        <ele>734.1</ele>
        <time>2022-07-18T07:46:43Z</time>
      </trkpt>
      <trkpt lat="44.32422" lon="5.21922">
        <ele>733.9</ele>
        <time>2022-07-18T07:46:44Z</time>
      </trkpt>
      <trkpt lat="44.32418" lon="5.21925">
        <ele>733.8</ele>
        <time>2022-07-18T07:46:45Z</time>
      </trkpt>
      <trkpt lat="44.32413" lon="5.21931">
        <ele>733.7</ele>
        <time>2022-07-18T07:46:46Z</time>
      </trkpt>
      <trkpt lat="44.32409" lon="5.21932">
        <ele>733.7</ele>
        <time>2022-07-18T07:46:47Z</time>
      </trkpt>
      <trkpt lat="44.32405" lon="5.21935">
        <ele>733.7</ele>
        <time>2022-07-18T07:46:48Z</time>
      </trkpt>
      <trkpt lat="44.32401" lon="5.21938">
        <ele>733.9</ele>
        <time>2022-07-18T07:46:49Z</time>
      </trkpt>
      <trkpt lat="44.32399" lon="5.2194">
        <ele>734</ele>
        <time>2022-07-18T07:46:50Z</time>
      </trkpt>
      <trkpt lat="44.32396" lon="5.21942">
        <ele>734.1</ele>
        <time>2022-07-18T07:46:51Z</time>
      </trkpt>
      <trkpt lat="44.32396" lon="5.21943">
        <ele>734.1</ele>
        <time>2022-07-18T07:46:52Z</time>
      </trkpt>
      <trkpt lat="44.32393" lon="5.21945">
        <ele>734.2</ele>
        <time>2022-07-18T07:46:53Z</time>
      </trkpt>
      <trkpt lat="44.32392" lon="5.21946">
        <ele>734.3</ele>
        <time>2022-07-18T07:46:54Z</time>
      </trkpt>
      <trkpt lat="44.32389" lon="5.21948">
        <ele>734.4</ele>
        <time>2022-07-18T07:46:55Z</time>
      </trkpt>
      <trkpt lat="44.32388" lon="5.21948">
        <ele>734.5</ele>
        <time>2022-07-18T07:46:56Z</time>
      </trkpt>
      <trkpt lat="44.32385" lon="5.21948">
        <ele>734.7</ele>
        <time>2022-07-18T07:46:57Z</time>
      </trkpt>
      <trkpt lat="44.32384" lon="5.21948">
        <ele>734.7</ele>
        <time>2022-07-18T07:46:58Z</time>
      </trkpt>
      <trkpt lat="44.3238" lon="5.21948">
        <ele>734.9</ele>
        <time>2022-07-18T07:46:59Z</time>
      </trkpt>
      <trkpt lat="44.32379" lon="5.21948">
        <ele>734.9</ele>
        <time>2022-07-18T07:47:00Z</time>
      </trkpt>
      <trkpt lat="44.32375" lon="5.21947">
        <ele>735.1</ele>
        <time>2022-07-18T07:47:01Z</time>
      </trkpt>
      <trkpt lat="44.32374" lon="5.21946">
        <ele>735.1</ele>
        <time>2022-07-18T07:47:02Z</time>
      </trkpt>
      <trkpt lat="44.32371" lon="5.21944">
        <ele>735.2</ele>
        <time>2022-07-18T07:47:03Z</time>
      </trkpt>
      <trkpt lat="44.3237" lon="5.21943">
        <ele>735.2</ele>
        <time>2022-07-18T07:47:04Z</time>
      </trkpt>
      <trkpt lat="44.32367" lon="5.2194">
        <ele>735.3</ele>
        <time>2022-07-18T07:47:05Z</time>
      </trkpt>
      <trkpt lat="44.32365" lon="5.21939">
        <ele>735.3</ele>
        <time>2022-07-18T07:47:06Z</time>
      </trkpt>
      <trkpt lat="44.32362" lon="5.21937">
        <ele>735.4</ele>
        <time>2022-07-18T07:47:07Z</time>
      </trkpt>
      <trkpt lat="44.32361" lon="5.21936">
        <ele>735.5</ele>
        <time>2022-07-18T07:47:08Z</time>
      </trkpt>
      <trkpt lat="44.32358" lon="5.21934">
        <ele>735.5</ele>
        <time>2022-07-18T07:47:09Z</time>
      </trkpt>
      <trkpt lat="44.32356" lon="5.21933">
        <ele>735.6</ele>
        <time>2022-07-18T07:47:10Z</time>
      </trkpt>
      <trkpt lat="44.32354" lon="5.21931">
        <ele>735.6</ele>
        <time>2022-07-18T07:47:11Z</time>
      </trkpt>
      <trkpt lat="44.32351" lon="5.21929">
        <ele>735.7</ele>
        <time>2022-07-18T07:47:12Z</time>
      </trkpt>
      <trkpt lat="44.32349" lon="5.21929">
        <ele>735.7</ele>
        <time>2022-07-18T07:47:13Z</time>
      </trkpt>
      <trkpt lat="44.32347" lon="5.21927">
        <ele>735.8</ele>
        <time>2022-07-18T07:47:14Z</time>
      </trkpt>
      <trkpt lat="44.32344" lon="5.21926">
        <ele>735.8</ele>
        <time>2022-07-18T07:47:15Z</time>
      </trkpt>
      <trkpt lat="44.32341" lon="5.21924">
        <ele>735.9</ele>
        <time>2022-07-18T07:47:16Z</time>
      </trkpt>
      <trkpt lat="44.32338" lon="5.21923">
        <ele>735.9</ele>
        <time>2022-07-18T07:47:17Z</time>
      </trkpt>
      <trkpt lat="44.32336" lon="5.21922">
        <ele>736</ele>
        <time>2022-07-18T07:47:18Z</time>
      </trkpt>
      <trkpt lat="44.32332" lon="5.2192">
        <ele>736</ele>
        <time>2022-07-18T07:47:19Z</time>
      </trkpt>
      <trkpt lat="44.32331" lon="5.2192">
        <ele>736.1</ele>
        <time>2022-07-18T07:47:20Z</time>
      </trkpt>
      <trkpt lat="44.32327" lon="5.21919">
        <ele>736.1</ele>
        <time>2022-07-18T07:47:21Z</time>
      </trkpt>
      <trkpt lat="44.32325" lon="5.21918">
        <ele>736.1</ele>
        <time>2022-07-18T07:47:22Z</time>
      </trkpt>
      <trkpt lat="44.32322" lon="5.21917">
        <ele>736.1</ele>
        <time>2022-07-18T07:47:23Z</time>
      </trkpt>
      <trkpt lat="44.32319" lon="5.21916">
        <ele>736.2</ele>
        <time>2022-07-18T07:47:24Z</time>
      </trkpt>
      <trkpt lat="44.32315" lon="5.21915">
        <ele>736.2</ele>
        <time>2022-07-18T07:47:25Z</time>
      </trkpt>
      <trkpt lat="44.32311" lon="5.21914">
        <ele>736.2</ele>
        <time>2022-07-18T07:47:26Z</time>
      </trkpt>
      <trkpt lat="44.32307" lon="5.21914">
        <ele>736.1</ele>
        <time>2022-07-18T07:47:27Z</time>
      </trkpt>
      <trkpt lat="44.32303" lon="5.21913">
        <ele>736.1</ele>
        <time>2022-07-18T07:47:28Z</time>
      </trkpt>
      <trkpt lat="44.32299" lon="5.21913">
        <ele>736.1</ele>
        <time>2022-07-18T07:47:29Z</time>
      </trkpt>
      <trkpt lat="44.32295" lon="5.21912">
        <ele>736</ele>
        <time>2022-07-18T07:47:30Z</time>
      </trkpt>
      <trkpt lat="44.32292" lon="5.21912">
        <ele>735.9</ele>
        <time>2022-07-18T07:47:31Z</time>
      </trkpt>
      <trkpt lat="44.32288" lon="5.21911">
        <ele>735.9</ele>
        <time>2022-07-18T07:47:32Z</time>
      </trkpt>
      <trkpt lat="44.32284" lon="5.21911">
        <ele>735.8</ele>
        <time>2022-07-18T07:47:33Z</time>
      </trkpt>
      <trkpt lat="44.3228" lon="5.21911">
        <ele>735.7</ele>
        <time>2022-07-18T07:47:34Z</time>
      </trkpt>
      <trkpt lat="44.32276" lon="5.21911">
        <ele>735.6</ele>
        <time>2022-07-18T07:47:35Z</time>
      </trkpt>
      <trkpt lat="44.32273" lon="5.21911">
        <ele>735.5</ele>
        <time>2022-07-18T07:47:36Z</time>
      </trkpt>
      <trkpt lat="44.3227" lon="5.21912">
        <ele>735.4</ele>
        <time>2022-07-18T07:47:37Z</time>
      </trkpt>
      <trkpt lat="44.32268" lon="5.21912">
        <ele>735.4</ele>
        <time>2022-07-18T07:47:38Z</time>
      </trkpt>
      <trkpt lat="44.32265" lon="5.21913">
        <ele>735.3</ele>
        <time>2022-07-18T07:47:39Z</time>
      </trkpt>
      <trkpt lat="44.32265" lon="5.21913">
        <ele>735.3</ele>
        <time>2022-07-18T07:47:40Z</time>
      </trkpt>
      <trkpt lat="44.32264" lon="5.21913">
        <ele>735.3</ele>
        <time>2022-07-18T07:47:41Z</time>
      </trkpt>
      <trkpt lat="44.32263" lon="5.21914">
        <ele>735.3</ele>
        <time>2022-07-18T07:47:42Z</time>
      </trkpt>
      <trkpt lat="44.32263" lon="5.21914">
        <ele>735.3</ele>
        <time>2022-07-18T07:47:43Z</time>
      </trkpt>
      <trkpt lat="44.32262" lon="5.21914">
        <ele>735.2</ele>
        <time>2022-07-18T07:47:44Z</time>
      </trkpt>
      <trkpt lat="44.32261" lon="5.21914">
        <ele>735.2</ele>
        <time>2022-07-18T07:47:45Z</time>
      </trkpt>
      <trkpt lat="44.32261" lon="5.21914">
        <ele>735.2</ele>
        <time>2022-07-18T07:47:46Z</time>
      </trkpt>
      <trkpt lat="44.3226" lon="5.21915">
        <ele>735.2</ele>
        <time>2022-07-18T07:47:47Z</time>
      </trkpt>
      <trkpt lat="44.3226" lon="5.21915">
        <ele>735.2</ele>
        <time>2022-07-18T07:47:48Z</time>
      </trkpt>
      <trkpt lat="44.32259" lon="5.21915">
        <ele>735.2</ele>
        <time>2022-07-18T07:47:49Z</time>
      </trkpt>
      <trkpt lat="44.32258" lon="5.21915">
        <ele>735.1</ele>
        <time>2022-07-18T07:47:50Z</time>
      </trkpt>
      <trkpt lat="44.32258" lon="5.21915">
        <ele>735.1</ele>
        <time>2022-07-18T07:48:33Z</time>
      </trkpt>
      <trkpt lat="44.32257" lon="5.21916">
        <ele>735.1</ele>
        <time>2022-07-18T07:48:34Z</time>
      </trkpt>
      <trkpt lat="44.32253" lon="5.21915">
        <ele>735</ele>
        <time>2022-07-18T07:48:35Z</time>
      </trkpt>
      <trkpt lat="44.32252" lon="5.21915">
        <ele>735</ele>
        <time>2022-07-18T07:48:36Z</time>
      </trkpt>
      <trkpt lat="44.32248" lon="5.21915">
        <ele>734.9</ele>
        <time>2022-07-18T07:48:37Z</time>
      </trkpt>
      <trkpt lat="44.32245" lon="5.21915">
        <ele>734.8</ele>
        <time>2022-07-18T07:48:38Z</time>
      </trkpt>
      <trkpt lat="44.32241" lon="5.21915">
        <ele>734.8</ele>
        <time>2022-07-18T07:48:39Z</time>
      </trkpt>
      <trkpt lat="44.32238" lon="5.21915">
        <ele>734.7</ele>
        <time>2022-07-18T07:48:40Z</time>
      </trkpt>
      <trkpt lat="44.32234" lon="5.21915">
        <ele>734.6</ele>
        <time>2022-07-18T07:48:41Z</time>
      </trkpt>
      <trkpt lat="44.32232" lon="5.21915">
        <ele>734.6</ele>
        <time>2022-07-18T07:48:42Z</time>
      </trkpt>
      <trkpt lat="44.32229" lon="5.21916">
        <ele>734.5</ele>
        <time>2022-07-18T07:48:43Z</time>
      </trkpt>
      <trkpt lat="44.32228" lon="5.21916">
        <ele>734.5</ele>
        <time>2022-07-18T07:48:44Z</time>
      </trkpt>
      <trkpt lat="44.32227" lon="5.21917">
        <ele>734.5</ele>
        <time>2022-07-18T07:48:45Z</time>
      </trkpt>
      <trkpt lat="44.32226" lon="5.21918">
        <ele>734.5</ele>
        <time>2022-07-18T07:48:46Z</time>
      </trkpt>
      <trkpt lat="44.32225" lon="5.21918">
        <ele>734.5</ele>
        <time>2022-07-18T07:48:47Z</time>
      </trkpt>
      <trkpt lat="44.32224" lon="5.21918">
        <ele>734.4</ele>
        <time>2022-07-18T07:48:48Z</time>
      </trkpt>
      <trkpt lat="44.32223" lon="5.21919">
        <ele>734.4</ele>
        <time>2022-07-18T07:48:49Z</time>
      </trkpt>
      <trkpt lat="44.32222" lon="5.21919">
        <ele>734.4</ele>
        <time>2022-07-18T07:48:50Z</time>
      </trkpt>
      <trkpt lat="44.32219" lon="5.2192">
        <ele>734.3</ele>
        <time>2022-07-18T07:48:51Z</time>
      </trkpt>
      <trkpt lat="44.32218" lon="5.2192">
        <ele>734.3</ele>
        <time>2022-07-18T07:48:52Z</time>
      </trkpt>
      <trkpt lat="44.32215" lon="5.2192">
        <ele>734.2</ele>
        <time>2022-07-18T07:48:53Z</time>
      </trkpt>
      <trkpt lat="44.32213" lon="5.21919">
        <ele>734.2</ele>
        <time>2022-07-18T07:48:54Z</time>
      </trkpt>
      <trkpt lat="44.3221" lon="5.2192">
        <ele>734.1</ele>
        <time>2022-07-18T07:48:55Z</time>
      </trkpt>
      <trkpt lat="44.32207" lon="5.2192">
        <ele>733.9</ele>
        <time>2022-07-18T07:48:56Z</time>
      </trkpt>
      <trkpt lat="44.32203" lon="5.21919">
        <ele>733.8</ele>
        <time>2022-07-18T07:48:57Z</time>
      </trkpt>
      <trkpt lat="44.322" lon="5.21919">
        <ele>733.7</ele>
        <time>2022-07-18T07:48:58Z</time>
      </trkpt>
      <trkpt lat="44.32195" lon="5.21919">
        <ele>733.5</ele>
        <time>2022-07-18T07:48:59Z</time>
      </trkpt>
      <trkpt lat="44.32191" lon="5.21919">
        <ele>733.3</ele>
        <time>2022-07-18T07:49:00Z</time>
      </trkpt>
      <trkpt lat="44.32186" lon="5.2192">
        <ele>733.1</ele>
        <time>2022-07-18T07:49:01Z</time>
      </trkpt>
      <trkpt lat="44.32181" lon="5.21921">
        <ele>732.9</ele>
        <time>2022-07-18T07:49:02Z</time>
      </trkpt>
      <trkpt lat="44.32176" lon="5.21923">
        <ele>732.7</ele>
        <time>2022-07-18T07:49:03Z</time>
      </trkpt>
      <trkpt lat="44.32168" lon="5.21926">
        <ele>732.3</ele>
        <time>2022-07-18T07:49:04Z</time>
      </trkpt>
      <trkpt lat="44.32167" lon="5.21933">
        <ele>732</ele>
        <time>2022-07-18T07:49:05Z</time>
      </trkpt>
      <trkpt lat="44.32163" lon="5.21936">
        <ele>731.8</ele>
        <time>2022-07-18T07:49:06Z</time>
      </trkpt>
      <trkpt lat="44.3216" lon="5.21941">
        <ele>731.7</ele>
        <time>2022-07-18T07:49:07Z</time>
      </trkpt>
      <trkpt lat="44.32154" lon="5.21943">
        <ele>731.4</ele>
        <time>2022-07-18T07:49:08Z</time>
      </trkpt>
      <trkpt lat="44.32149" lon="5.21946">
        <ele>731.2</ele>
        <time>2022-07-18T07:49:09Z</time>
      </trkpt>
      <trkpt lat="44.32146" lon="5.21952">
        <ele>731</ele>
        <time>2022-07-18T07:49:10Z</time>
      </trkpt>
      <trkpt lat="44.32142" lon="5.21956">
        <ele>730.8</ele>
        <time>2022-07-18T07:49:11Z</time>
      </trkpt>
      <trkpt lat="44.3214" lon="5.21961">
        <ele>730.7</ele>
        <time>2022-07-18T07:49:12Z</time>
      </trkpt>
      <trkpt lat="44.32136" lon="5.21965">
        <ele>730.5</ele>
        <time>2022-07-18T07:49:13Z</time>
      </trkpt>
      <trkpt lat="44.32131" lon="5.21968">
        <ele>730.4</ele>
        <time>2022-07-18T07:49:14Z</time>
      </trkpt>
      <trkpt lat="44.32125" lon="5.21969">
        <ele>730.2</ele>
        <time>2022-07-18T07:49:15Z</time>
      </trkpt>
      <trkpt lat="44.3212" lon="5.21971">
        <ele>730</ele>
        <time>2022-07-18T07:49:16Z</time>
      </trkpt>
      <trkpt lat="44.32115" lon="5.21971">
        <ele>729.9</ele>
        <time>2022-07-18T07:49:17Z</time>
      </trkpt>
      <trkpt lat="44.3211" lon="5.21972">
        <ele>729.6</ele>
        <time>2022-07-18T07:49:18Z</time>
      </trkpt>
      <trkpt lat="44.32105" lon="5.21975">
        <ele>729.4</ele>
        <time>2022-07-18T07:49:19Z</time>
      </trkpt>
      <trkpt lat="44.321" lon="5.21984">
        <ele>729</ele>
        <time>2022-07-18T07:49:20Z</time>
      </trkpt>
      <trkpt lat="44.32097" lon="5.21987">
        <ele>728.8</ele>
        <time>2022-07-18T07:49:21Z</time>
      </trkpt>
      <trkpt lat="44.32091" lon="5.2199">
        <ele>728.5</ele>
        <time>2022-07-18T07:49:22Z</time>
      </trkpt>
      <trkpt lat="44.32085" lon="5.21994">
        <ele>728.3</ele>
        <time>2022-07-18T07:49:23Z</time>
      </trkpt>
      <trkpt lat="44.32081" lon="5.21999">
        <ele>728.1</ele>
        <time>2022-07-18T07:49:24Z</time>
      </trkpt>
      <trkpt lat="44.32076" lon="5.22005">
        <ele>727.9</ele>
        <time>2022-07-18T07:49:25Z</time>
      </trkpt>
      <trkpt lat="44.32071" lon="5.22009">
        <ele>727.8</ele>
        <time>2022-07-18T07:49:26Z</time>
      </trkpt>
      <trkpt lat="44.32066" lon="5.22012">
        <ele>727.8</ele>
        <time>2022-07-18T07:49:27Z</time>
      </trkpt>
      <trkpt lat="44.32061" lon="5.22015">
        <ele>727.8</ele>
        <time>2022-07-18T07:49:28Z</time>
      </trkpt>
      <trkpt lat="44.32057" lon="5.22019">
        <ele>727.9</ele>
        <time>2022-07-18T07:49:29Z</time>
      </trkpt>
      <trkpt lat="44.32054" lon="5.22027">
        <ele>728</ele>
        <time>2022-07-18T07:49:30Z</time>
      </trkpt>
      <trkpt lat="44.32047" lon="5.22027">
        <ele>728.2</ele>
        <time>2022-07-18T07:49:31Z</time>
      </trkpt>
      <trkpt lat="44.32045" lon="5.22032">
        <ele>728.4</ele>
        <time>2022-07-18T07:49:32Z</time>
      </trkpt>
      <trkpt lat="44.32043" lon="5.22035">
        <ele>728.5</ele>
        <time>2022-07-18T07:49:33Z</time>
      </trkpt>
      <trkpt lat="44.32039" lon="5.22036">
        <ele>728.7</ele>
        <time>2022-07-18T07:49:34Z</time>
      </trkpt>
      <trkpt lat="44.32037" lon="5.2204">
        <ele>728.9</ele>
        <time>2022-07-18T07:49:35Z</time>
      </trkpt>
      <trkpt lat="44.32036" lon="5.22037">
        <ele>729.1</ele>
        <time>2022-07-18T07:49:36Z</time>
      </trkpt>
      <trkpt lat="44.32032" lon="5.22036">
        <ele>729.3</ele>
        <time>2022-07-18T07:49:37Z</time>
      </trkpt>
      <trkpt lat="44.32029" lon="5.22037">
        <ele>729.5</ele>
        <time>2022-07-18T07:49:38Z</time>
      </trkpt>
      <trkpt lat="44.32027" lon="5.22042">
        <ele>729.8</ele>
        <time>2022-07-18T07:49:39Z</time>
      </trkpt>
      <trkpt lat="44.32027" lon="5.22043">
        <ele>729.9</ele>
        <time>2022-07-18T07:49:40Z</time>
      </trkpt>
      <trkpt lat="44.32026" lon="5.22044">
        <ele>730</ele>
        <time>2022-07-18T07:49:41Z</time>
      </trkpt>
      <trkpt lat="44.32024" lon="5.22045">
        <ele>730.2</ele>
        <time>2022-07-18T07:49:42Z</time>
      </trkpt>
      <trkpt lat="44.32022" lon="5.22047">
        <ele>730.4</ele>
        <time>2022-07-18T07:49:43Z</time>
      </trkpt>
      <trkpt lat="44.32021" lon="5.22048">
        <ele>730.5</ele>
        <time>2022-07-18T07:49:44Z</time>
      </trkpt>
      <trkpt lat="44.32018" lon="5.2205">
        <ele>730.9</ele>
        <time>2022-07-18T07:49:45Z</time>
      </trkpt>
      <trkpt lat="44.32017" lon="5.22051">
        <ele>731</ele>
        <time>2022-07-18T07:49:46Z</time>
      </trkpt>
      <trkpt lat="44.32014" lon="5.22054">
        <ele>731.3</ele>
        <time>2022-07-18T07:49:47Z</time>
      </trkpt>
      <trkpt lat="44.32013" lon="5.22055">
        <ele>731.5</ele>
        <time>2022-07-18T07:49:48Z</time>
      </trkpt>
      <trkpt lat="44.32012" lon="5.22058">
        <ele>731.8</ele>
        <time>2022-07-18T07:49:49Z</time>
      </trkpt>
      <trkpt lat="44.32011" lon="5.2206">
        <ele>731.9</ele>
        <time>2022-07-18T07:49:50Z</time>
      </trkpt>
      <trkpt lat="44.32009" lon="5.22064">
        <ele>732.3</ele>
        <time>2022-07-18T07:49:51Z</time>
      </trkpt>
      <trkpt lat="44.32009" lon="5.22065">
        <ele>732.4</ele>
        <time>2022-07-18T07:49:52Z</time>
      </trkpt>
      <trkpt lat="44.32007" lon="5.22068">
        <ele>732.8</ele>
        <time>2022-07-18T07:49:53Z</time>
      </trkpt>
      <trkpt lat="44.32006" lon="5.22069">
        <ele>732.9</ele>
        <time>2022-07-18T07:49:54Z</time>
      </trkpt>
      <trkpt lat="44.32004" lon="5.22071">
        <ele>733.2</ele>
        <time>2022-07-18T07:49:55Z</time>
      </trkpt>
      <trkpt lat="44.32003" lon="5.22072">
        <ele>733.3</ele>
        <time>2022-07-18T07:49:56Z</time>
      </trkpt>
      <trkpt lat="44.32" lon="5.22074">
        <ele>733.6</ele>
        <time>2022-07-18T07:49:57Z</time>
      </trkpt>
      <trkpt lat="44.31999" lon="5.22075">
        <ele>733.7</ele>
        <time>2022-07-18T07:49:58Z</time>
      </trkpt>
      <trkpt lat="44.31997" lon="5.22078">
        <ele>734.1</ele>
        <time>2022-07-18T07:49:59Z</time>
      </trkpt>
      <trkpt lat="44.31996" lon="5.22079">
        <ele>734.2</ele>
        <time>2022-07-18T07:50:00Z</time>
      </trkpt>
      <trkpt lat="44.31994" lon="5.2208">
        <ele>734.4</ele>
        <time>2022-07-18T07:50:01Z</time>
      </trkpt>
      <trkpt lat="44.31993" lon="5.2208">
        <ele>734.6</ele>
        <time>2022-07-18T07:50:02Z</time>
      </trkpt>
      <trkpt lat="44.3199" lon="5.2208">
        <ele>734.8</ele>
        <time>2022-07-18T07:50:03Z</time>
      </trkpt>
      <trkpt lat="44.31989" lon="5.2208">
        <ele>734.9</ele>
        <time>2022-07-18T07:50:04Z</time>
      </trkpt>
      <trkpt lat="44.31987" lon="5.2208">
        <ele>735.1</ele>
        <time>2022-07-18T07:50:05Z</time>
      </trkpt>
      <trkpt lat="44.31986" lon="5.2208">
        <ele>735.2</ele>
        <time>2022-07-18T07:50:06Z</time>
      </trkpt>
      <trkpt lat="44.31985" lon="5.22081">
        <ele>735.3</ele>
        <time>2022-07-18T07:50:07Z</time>
      </trkpt>
      <trkpt lat="44.31984" lon="5.22082">
        <ele>735.4</ele>
        <time>2022-07-18T07:50:08Z</time>
      </trkpt>
      <trkpt lat="44.31983" lon="5.22083">
        <ele>735.6</ele>
        <time>2022-07-18T07:50:09Z</time>
      </trkpt>
      <trkpt lat="44.31981" lon="5.22084">
        <ele>735.8</ele>
        <time>2022-07-18T07:50:10Z</time>
      </trkpt>
      <trkpt lat="44.3198" lon="5.22085">
        <ele>735.8</ele>
        <time>2022-07-18T07:50:11Z</time>
      </trkpt>
      <trkpt lat="44.3198" lon="5.22085">
        <ele>735.9</ele>
        <time>2022-07-18T07:50:12Z</time>
      </trkpt>
      <trkpt lat="44.31978" lon="5.22086">
        <ele>736.1</ele>
        <time>2022-07-18T07:50:13Z</time>
      </trkpt>
      <trkpt lat="44.31977" lon="5.22087">
        <ele>736.2</ele>
        <time>2022-07-18T07:50:14Z</time>
      </trkpt>
      <trkpt lat="44.31976" lon="5.22087">
        <ele>736.3</ele>
        <time>2022-07-18T07:50:15Z</time>
      </trkpt>
      <trkpt lat="44.31974" lon="5.22088">
        <ele>736.5</ele>
        <time>2022-07-18T07:50:16Z</time>
      </trkpt>
      <trkpt lat="44.31973" lon="5.22088">
        <ele>736.6</ele>
        <time>2022-07-18T07:50:17Z</time>
      </trkpt>
      <trkpt lat="44.31972" lon="5.22088">
        <ele>736.6</ele>
        <time>2022-07-18T07:50:18Z</time>
      </trkpt>
      <trkpt lat="44.31971" lon="5.22089">
        <ele>736.8</ele>
        <time>2022-07-18T07:50:19Z</time>
      </trkpt>
      <trkpt lat="44.31969" lon="5.22089">
        <ele>736.9</ele>
        <time>2022-07-18T07:50:20Z</time>
      </trkpt>
      <trkpt lat="44.31968" lon="5.22091">
        <ele>737.1</ele>
        <time>2022-07-18T07:50:21Z</time>
      </trkpt>
      <trkpt lat="44.31967" lon="5.22092">
        <ele>737.2</ele>
        <time>2022-07-18T07:50:22Z</time>
      </trkpt>
      <trkpt lat="44.31965" lon="5.22094">
        <ele>737.5</ele>
        <time>2022-07-18T07:50:23Z</time>
      </trkpt>
      <trkpt lat="44.31964" lon="5.22095">
        <ele>737.5</ele>
        <time>2022-07-18T07:50:24Z</time>
      </trkpt>
      <trkpt lat="44.31963" lon="5.22097">
        <ele>737.7</ele>
        <time>2022-07-18T07:50:25Z</time>
      </trkpt>
      <trkpt lat="44.31962" lon="5.22098">
        <ele>737.9</ele>
        <time>2022-07-18T07:50:26Z</time>
      </trkpt>
      <trkpt lat="44.31962" lon="5.221">
        <ele>738</ele>
        <time>2022-07-18T07:50:27Z</time>
      </trkpt>
      <trkpt lat="44.31962" lon="5.22103">
        <ele>738.2</ele>
        <time>2022-07-18T07:50:28Z</time>
      </trkpt>
      <trkpt lat="44.31961" lon="5.22108">
        <ele>738.6</ele>
        <time>2022-07-18T07:50:29Z</time>
      </trkpt>
      <trkpt lat="44.31961" lon="5.22109">
        <ele>738.7</ele>
        <time>2022-07-18T07:50:30Z</time>
      </trkpt>
      <trkpt lat="44.3196" lon="5.22111">
        <ele>738.9</ele>
        <time>2022-07-18T07:50:31Z</time>
      </trkpt>
      <trkpt lat="44.31959" lon="5.22113">
        <ele>739</ele>
        <time>2022-07-18T07:50:32Z</time>
      </trkpt>
      <trkpt lat="44.31958" lon="5.22115">
        <ele>739.3</ele>
        <time>2022-07-18T07:50:33Z</time>
      </trkpt>
      <trkpt lat="44.31957" lon="5.22116">
        <ele>739.4</ele>
        <time>2022-07-18T07:50:34Z</time>
      </trkpt>
      <trkpt lat="44.31956" lon="5.22117">
        <ele>739.5</ele>
        <time>2022-07-18T07:50:35Z</time>
      </trkpt>
      <trkpt lat="44.31954" lon="5.22118">
        <ele>739.6</ele>
        <time>2022-07-18T07:50:36Z</time>
      </trkpt>
      <trkpt lat="44.31953" lon="5.22119">
        <ele>739.8</ele>
        <time>2022-07-18T07:50:37Z</time>
      </trkpt>
      <trkpt lat="44.31953" lon="5.22121">
        <ele>740</ele>
        <time>2022-07-18T07:50:38Z</time>
      </trkpt>
      <trkpt lat="44.31952" lon="5.22124">
        <ele>740.2</ele>
        <time>2022-07-18T07:50:40Z</time>
      </trkpt>
      <trkpt lat="44.31952" lon="5.22125">
        <ele>740.3</ele>
        <time>2022-07-18T07:50:41Z</time>
      </trkpt>
      <trkpt lat="44.31951" lon="5.22127">
        <ele>740.4</ele>
        <time>2022-07-18T07:50:42Z</time>
      </trkpt>
      <trkpt lat="44.31951" lon="5.22128">
        <ele>740.5</ele>
        <time>2022-07-18T07:50:43Z</time>
      </trkpt>
      <trkpt lat="44.31949" lon="5.2213">
        <ele>740.7</ele>
        <time>2022-07-18T07:50:44Z</time>
      </trkpt>
      <trkpt lat="44.31948" lon="5.2213">
        <ele>740.8</ele>
        <time>2022-07-18T07:50:45Z</time>
      </trkpt>
      <trkpt lat="44.31947" lon="5.22131">
        <ele>740.9</ele>
        <time>2022-07-18T07:50:46Z</time>
      </trkpt>
      <trkpt lat="44.31946" lon="5.22132">
        <ele>741.1</ele>
        <time>2022-07-18T07:50:47Z</time>
      </trkpt>
      <trkpt lat="44.31944" lon="5.22133">
        <ele>741.3</ele>
        <time>2022-07-18T07:50:48Z</time>
      </trkpt>
      <trkpt lat="44.31942" lon="5.22136">
        <ele>741.6</ele>
        <time>2022-07-18T07:50:49Z</time>
      </trkpt>
      <trkpt lat="44.31941" lon="5.22137">
        <ele>741.7</ele>
        <time>2022-07-18T07:50:50Z</time>
      </trkpt>
      <trkpt lat="44.3194" lon="5.22138">
        <ele>741.9</ele>
        <time>2022-07-18T07:50:51Z</time>
      </trkpt>
      <trkpt lat="44.31939" lon="5.22139">
        <ele>742</ele>
        <time>2022-07-18T07:50:52Z</time>
      </trkpt>
      <trkpt lat="44.31938" lon="5.22141">
        <ele>742.1</ele>
        <time>2022-07-18T07:50:53Z</time>
      </trkpt>
      <trkpt lat="44.31937" lon="5.22142">
        <ele>742.3</ele>
        <time>2022-07-18T07:50:54Z</time>
      </trkpt>
      <trkpt lat="44.31936" lon="5.22144">
        <ele>742.5</ele>
        <time>2022-07-18T07:50:55Z</time>
      </trkpt>
      <trkpt lat="44.31934" lon="5.22145">
        <ele>742.6</ele>
        <time>2022-07-18T07:50:56Z</time>
      </trkpt>
      <trkpt lat="44.31933" lon="5.22146">
        <ele>742.8</ele>
        <time>2022-07-18T07:50:57Z</time>
      </trkpt>
      <trkpt lat="44.31931" lon="5.22147">
        <ele>742.9</ele>
        <time>2022-07-18T07:50:58Z</time>
      </trkpt>
      <trkpt lat="44.3193" lon="5.22148">
        <ele>743.1</ele>
        <time>2022-07-18T07:50:59Z</time>
      </trkpt>
      <trkpt lat="44.31928" lon="5.22149">
        <ele>743.2</ele>
        <time>2022-07-18T07:51:00Z</time>
      </trkpt>
      <trkpt lat="44.31927" lon="5.22151">
        <ele>743.3</ele>
        <time>2022-07-18T07:51:01Z</time>
      </trkpt>
      <trkpt lat="44.31927" lon="5.22153">
        <ele>743.5</ele>
        <time>2022-07-18T07:51:02Z</time>
      </trkpt>
      <trkpt lat="44.31926" lon="5.22155">
        <ele>743.6</ele>
        <time>2022-07-18T07:51:03Z</time>
      </trkpt>
      <trkpt lat="44.31926" lon="5.22157">
        <ele>743.7</ele>
        <time>2022-07-18T07:51:04Z</time>
      </trkpt>
      <trkpt lat="44.31925" lon="5.22159">
        <ele>743.8</ele>
        <time>2022-07-18T07:51:05Z</time>
      </trkpt>
      <trkpt lat="44.31924" lon="5.22161">
        <ele>743.9</ele>
        <time>2022-07-18T07:51:06Z</time>
      </trkpt>
      <trkpt lat="44.31923" lon="5.22163">
        <ele>744</ele>
        <time>2022-07-18T07:51:07Z</time>
      </trkpt>
      <trkpt lat="44.31923" lon="5.22165">
        <ele>744.1</ele>
        <time>2022-07-18T07:51:08Z</time>
      </trkpt>
      <trkpt lat="44.31922" lon="5.22168">
        <ele>744.2</ele>
        <time>2022-07-18T07:51:09Z</time>
      </trkpt>
      <trkpt lat="44.31922" lon="5.2217">
        <ele>744.3</ele>
        <time>2022-07-18T07:51:10Z</time>
      </trkpt>
      <trkpt lat="44.31921" lon="5.22172">
        <ele>744.4</ele>
        <time>2022-07-18T07:51:11Z</time>
      </trkpt>
      <trkpt lat="44.3192" lon="5.22174">
        <ele>744.5</ele>
        <time>2022-07-18T07:51:12Z</time>
      </trkpt>
      <trkpt lat="44.31919" lon="5.22177">
        <ele>744.6</ele>
        <time>2022-07-18T07:51:13Z</time>
      </trkpt>
      <trkpt lat="44.31918" lon="5.22179">
        <ele>744.6</ele>
        <time>2022-07-18T07:51:14Z</time>
      </trkpt>
      <trkpt lat="44.31918" lon="5.22181">
        <ele>744.7</ele>
        <time>2022-07-18T07:51:15Z</time>
      </trkpt>
      <trkpt lat="44.31917" lon="5.22183">
        <ele>744.7</ele>
        <time>2022-07-18T07:51:16Z</time>
      </trkpt>
      <trkpt lat="44.31916" lon="5.22185">
        <ele>744.8</ele>
        <time>2022-07-18T07:51:17Z</time>
      </trkpt>
      <trkpt lat="44.31916" lon="5.22188">
        <ele>744.9</ele>
        <time>2022-07-18T07:51:18Z</time>
      </trkpt>
      <trkpt lat="44.31915" lon="5.22192">
        <ele>745</ele>
        <time>2022-07-18T07:51:19Z</time>
      </trkpt>
      <trkpt lat="44.31914" lon="5.22194">
        <ele>745</ele>
        <time>2022-07-18T07:51:20Z</time>
      </trkpt>
      <trkpt lat="44.31913" lon="5.22197">
        <ele>745.2</ele>
        <time>2022-07-18T07:51:21Z</time>
      </trkpt>
      <trkpt lat="44.31913" lon="5.22199">
        <ele>745.2</ele>
        <time>2022-07-18T07:51:22Z</time>
      </trkpt>
      <trkpt lat="44.31912" lon="5.22202">
        <ele>745.3</ele>
        <time>2022-07-18T07:51:23Z</time>
      </trkpt>
      <trkpt lat="44.31912" lon="5.22204">
        <ele>745.4</ele>
        <time>2022-07-18T07:51:24Z</time>
      </trkpt>
      <trkpt lat="44.31911" lon="5.22206">
        <ele>745.4</ele>
        <time>2022-07-18T07:51:25Z</time>
      </trkpt>
      <trkpt lat="44.3191" lon="5.22208">
        <ele>745.5</ele>
        <time>2022-07-18T07:51:26Z</time>
      </trkpt>
      <trkpt lat="44.3191" lon="5.2221">
        <ele>745.6</ele>
        <time>2022-07-18T07:51:27Z</time>
      </trkpt>
      <trkpt lat="44.31909" lon="5.22211">
        <ele>745.7</ele>
        <time>2022-07-18T07:51:28Z</time>
      </trkpt>
      <trkpt lat="44.31908" lon="5.22213">
        <ele>745.7</ele>
        <time>2022-07-18T07:51:29Z</time>
      </trkpt>
      <trkpt lat="44.31907" lon="5.22215">
        <ele>745.8</ele>
        <time>2022-07-18T07:51:30Z</time>
      </trkpt>
      <trkpt lat="44.31906" lon="5.22216">
        <ele>745.9</ele>
        <time>2022-07-18T07:51:31Z</time>
      </trkpt>
      <trkpt lat="44.31906" lon="5.22218">
        <ele>746</ele>
        <time>2022-07-18T07:51:32Z</time>
      </trkpt>
      <trkpt lat="44.31905" lon="5.2222">
        <ele>746.1</ele>
        <time>2022-07-18T07:51:33Z</time>
      </trkpt>
      <trkpt lat="44.31904" lon="5.22222">
        <ele>746.2</ele>
        <time>2022-07-18T07:51:34Z</time>
      </trkpt>
      <trkpt lat="44.31904" lon="5.22224">
        <ele>746.4</ele>
        <time>2022-07-18T07:51:35Z</time>
      </trkpt>
      <trkpt lat="44.31903" lon="5.22226">
        <ele>746.5</ele>
        <time>2022-07-18T07:51:36Z</time>
      </trkpt>
      <trkpt lat="44.31901" lon="5.22228">
        <ele>746.6</ele>
        <time>2022-07-18T07:51:37Z</time>
      </trkpt>
      <trkpt lat="44.319" lon="5.22228">
        <ele>746.7</ele>
        <time>2022-07-18T07:51:38Z</time>
      </trkpt>
      <trkpt lat="44.31899" lon="5.22229">
        <ele>746.8</ele>
        <time>2022-07-18T07:51:39Z</time>
      </trkpt>
      <trkpt lat="44.31898" lon="5.22229">
        <ele>746.9</ele>
        <time>2022-07-18T07:51:40Z</time>
      </trkpt>
      <trkpt lat="44.31897" lon="5.22231">
        <ele>747</ele>
        <time>2022-07-18T07:51:41Z</time>
      </trkpt>
      <trkpt lat="44.31895" lon="5.22234">
        <ele>747.2</ele>
        <time>2022-07-18T07:51:42Z</time>
      </trkpt>
      <trkpt lat="44.31894" lon="5.22236">
        <ele>747.3</ele>
        <time>2022-07-18T07:51:43Z</time>
      </trkpt>
      <trkpt lat="44.31893" lon="5.22238">
        <ele>747.5</ele>
        <time>2022-07-18T07:51:44Z</time>
      </trkpt>
      <trkpt lat="44.31892" lon="5.2224">
        <ele>747.6</ele>
        <time>2022-07-18T07:51:45Z</time>
      </trkpt>
      <trkpt lat="44.31891" lon="5.22241">
        <ele>747.7</ele>
        <time>2022-07-18T07:51:46Z</time>
      </trkpt>
      <trkpt lat="44.3189" lon="5.22243">
        <ele>747.8</ele>
        <time>2022-07-18T07:51:47Z</time>
      </trkpt>
      <trkpt lat="44.31889" lon="5.22245">
        <ele>747.9</ele>
        <time>2022-07-18T07:51:48Z</time>
      </trkpt>
      <trkpt lat="44.31888" lon="5.22247">
        <ele>748</ele>
        <time>2022-07-18T07:51:49Z</time>
      </trkpt>
      <trkpt lat="44.31887" lon="5.22248">
        <ele>748.2</ele>
        <time>2022-07-18T07:51:50Z</time>
      </trkpt>
      <trkpt lat="44.31885" lon="5.22251">
        <ele>748.4</ele>
        <time>2022-07-18T07:51:51Z</time>
      </trkpt>
      <trkpt lat="44.31884" lon="5.22252">
        <ele>748.4</ele>
        <time>2022-07-18T07:51:52Z</time>
      </trkpt>
      <trkpt lat="44.31883" lon="5.22256">
        <ele>748.6</ele>
        <time>2022-07-18T07:51:53Z</time>
      </trkpt>
      <trkpt lat="44.31882" lon="5.22258">
        <ele>748.7</ele>
        <time>2022-07-18T07:51:54Z</time>
      </trkpt>
      <trkpt lat="44.31881" lon="5.22262">
        <ele>748.9</ele>
        <time>2022-07-18T07:51:55Z</time>
      </trkpt>
      <trkpt lat="44.31881" lon="5.22263">
        <ele>748.9</ele>
        <time>2022-07-18T07:51:56Z</time>
      </trkpt>
      <trkpt lat="44.31879" lon="5.22267">
        <ele>749</ele>
        <time>2022-07-18T07:51:57Z</time>
      </trkpt>
      <trkpt lat="44.31878" lon="5.22268">
        <ele>749.1</ele>
        <time>2022-07-18T07:51:58Z</time>
      </trkpt>
      <trkpt lat="44.31876" lon="5.2227">
        <ele>749.1</ele>
        <time>2022-07-18T07:51:59Z</time>
      </trkpt>
      <trkpt lat="44.31875" lon="5.22271">
        <ele>749.1</ele>
        <time>2022-07-18T07:52:00Z</time>
      </trkpt>
      <trkpt lat="44.31872" lon="5.22273">
        <ele>749.2</ele>
        <time>2022-07-18T07:52:01Z</time>
      </trkpt>
      <trkpt lat="44.31872" lon="5.22273">
        <ele>749.2</ele>
        <time>2022-07-18T07:52:02Z</time>
      </trkpt>
      <trkpt lat="44.31868" lon="5.22273">
        <ele>749.2</ele>
        <time>2022-07-18T07:52:03Z</time>
      </trkpt>
      <trkpt lat="44.31867" lon="5.22273">
        <ele>749.2</ele>
        <time>2022-07-18T07:52:04Z</time>
      </trkpt>
      <trkpt lat="44.31864" lon="5.22274">
        <ele>749.2</ele>
        <time>2022-07-18T07:52:05Z</time>
      </trkpt>
      <trkpt lat="44.31862" lon="5.22275">
        <ele>749.1</ele>
        <time>2022-07-18T07:52:06Z</time>
      </trkpt>
      <trkpt lat="44.31858" lon="5.22277">
        <ele>749</ele>
        <time>2022-07-18T07:52:07Z</time>
      </trkpt>
      <trkpt lat="44.31855" lon="5.2228">
        <ele>748.8</ele>
        <time>2022-07-18T07:52:08Z</time>
      </trkpt>
      <trkpt lat="44.31851" lon="5.22283">
        <ele>748.6</ele>
        <time>2022-07-18T07:52:09Z</time>
      </trkpt>
      <trkpt lat="44.31846" lon="5.22291">
        <ele>748.2</ele>
        <time>2022-07-18T07:52:10Z</time>
      </trkpt>
      <trkpt lat="44.31841" lon="5.22295">
        <ele>747.9</ele>
        <time>2022-07-18T07:52:11Z</time>
      </trkpt>
      <trkpt lat="44.31837" lon="5.22299">
        <ele>747.7</ele>
        <time>2022-07-18T07:52:12Z</time>
      </trkpt>
      <trkpt lat="44.31832" lon="5.22302">
        <ele>747.5</ele>
        <time>2022-07-18T07:52:13Z</time>
      </trkpt>
      <trkpt lat="44.31826" lon="5.22305">
        <ele>747.4</ele>
        <time>2022-07-18T07:52:14Z</time>
      </trkpt>
      <trkpt lat="44.31822" lon="5.22308">
        <ele>747.5</ele>
        <time>2022-07-18T07:52:15Z</time>
      </trkpt>
      <trkpt lat="44.31818" lon="5.22311">
        <ele>747.5</ele>
        <time>2022-07-18T07:52:16Z</time>
      </trkpt>
      <trkpt lat="44.31814" lon="5.22314">
        <ele>747.6</ele>
        <time>2022-07-18T07:52:17Z</time>
      </trkpt>
      <trkpt lat="44.3181" lon="5.22316">
        <ele>747.8</ele>
        <time>2022-07-18T07:52:18Z</time>
      </trkpt>
      <trkpt lat="44.31806" lon="5.22319">
        <ele>747.9</ele>
        <time>2022-07-18T07:52:19Z</time>
      </trkpt>
      <trkpt lat="44.31802" lon="5.22323">
        <ele>748.2</ele>
        <time>2022-07-18T07:52:20Z</time>
      </trkpt>
      <trkpt lat="44.31798" lon="5.22324">
        <ele>748.4</ele>
        <time>2022-07-18T07:52:21Z</time>
      </trkpt>
      <trkpt lat="44.31795" lon="5.22324">
        <ele>748.5</ele>
        <time>2022-07-18T07:52:22Z</time>
      </trkpt>
      <trkpt lat="44.31792" lon="5.22326">
        <ele>748.7</ele>
        <time>2022-07-18T07:52:23Z</time>
      </trkpt>
      <trkpt lat="44.31788" lon="5.22327">
        <ele>748.9</ele>
        <time>2022-07-18T07:52:24Z</time>
      </trkpt>
      <trkpt lat="44.31785" lon="5.22328">
        <ele>749.1</ele>
        <time>2022-07-18T07:52:25Z</time>
      </trkpt>
      <trkpt lat="44.31784" lon="5.22328">
        <ele>749.2</ele>
        <time>2022-07-18T07:52:26Z</time>
      </trkpt>
      <trkpt lat="44.31781" lon="5.22331">
        <ele>749.3</ele>
        <time>2022-07-18T07:52:27Z</time>
      </trkpt>
      <trkpt lat="44.31778" lon="5.22332">
        <ele>749.5</ele>
        <time>2022-07-18T07:52:28Z</time>
      </trkpt>
      <trkpt lat="44.31775" lon="5.22334">
        <ele>749.6</ele>
        <time>2022-07-18T07:52:29Z</time>
      </trkpt>
      <trkpt lat="44.31773" lon="5.22336">
        <ele>749.6</ele>
        <time>2022-07-18T07:52:30Z</time>
      </trkpt>
      <trkpt lat="44.3177" lon="5.22338">
        <ele>749.7</ele>
        <time>2022-07-18T07:52:31Z</time>
      </trkpt>
      <trkpt lat="44.31768" lon="5.2234">
        <ele>749.8</ele>
        <time>2022-07-18T07:52:32Z</time>
      </trkpt>
      <trkpt lat="44.31765" lon="5.22341">
        <ele>749.8</ele>
        <time>2022-07-18T07:52:33Z</time>
      </trkpt>
      <trkpt lat="44.31762" lon="5.22343">
        <ele>749.8</ele>
        <time>2022-07-18T07:52:34Z</time>
      </trkpt>
      <trkpt lat="44.31759" lon="5.22344">
        <ele>749.9</ele>
        <time>2022-07-18T07:52:35Z</time>
      </trkpt>
      <trkpt lat="44.31755" lon="5.22345">
        <ele>749.9</ele>
        <time>2022-07-18T07:52:36Z</time>
      </trkpt>
      <trkpt lat="44.31752" lon="5.22345">
        <ele>750</ele>
        <time>2022-07-18T07:52:37Z</time>
      </trkpt>
      <trkpt lat="44.31748" lon="5.22345">
        <ele>750.1</ele>
        <time>2022-07-18T07:52:38Z</time>
      </trkpt>
      <trkpt lat="44.31745" lon="5.22343">
        <ele>750.2</ele>
        <time>2022-07-18T07:52:39Z</time>
      </trkpt>
      <trkpt lat="44.31741" lon="5.2234">
        <ele>750.4</ele>
        <time>2022-07-18T07:52:40Z</time>
      </trkpt>
      <trkpt lat="44.31739" lon="5.22338">
        <ele>750.6</ele>
        <time>2022-07-18T07:52:41Z</time>
      </trkpt>
      <trkpt lat="44.31737" lon="5.22335">
        <ele>750.8</ele>
        <time>2022-07-18T07:52:42Z</time>
      </trkpt>
      <trkpt lat="44.31735" lon="5.22331">
        <ele>751</ele>
        <time>2022-07-18T07:52:43Z</time>
      </trkpt>
      <trkpt lat="44.31734" lon="5.22329">
        <ele>751.1</ele>
        <time>2022-07-18T07:52:44Z</time>
      </trkpt>
      <trkpt lat="44.31734" lon="5.22324">
        <ele>751.4</ele>
        <time>2022-07-18T07:52:45Z</time>
      </trkpt>
      <trkpt lat="44.31733" lon="5.22322">
        <ele>751.5</ele>
        <time>2022-07-18T07:52:46Z</time>
      </trkpt>
      <trkpt lat="44.31734" lon="5.22318">
        <ele>751.8</ele>
        <time>2022-07-18T07:52:47Z</time>
      </trkpt>
      <trkpt lat="44.31734" lon="5.22317">
        <ele>751.9</ele>
        <time>2022-07-18T07:52:48Z</time>
      </trkpt>
      <trkpt lat="44.31734" lon="5.22313">
        <ele>752.1</ele>
        <time>2022-07-18T07:52:49Z</time>
      </trkpt>
      <trkpt lat="44.31734" lon="5.22312">
        <ele>752.2</ele>
        <time>2022-07-18T07:52:50Z</time>
      </trkpt>
      <trkpt lat="44.31735" lon="5.2231">
        <ele>752.3</ele>
        <time>2022-07-18T07:52:51Z</time>
      </trkpt>
      <trkpt lat="44.31735" lon="5.22309">
        <ele>752.3</ele>
        <time>2022-07-18T07:52:52Z</time>
      </trkpt>
      <trkpt lat="44.31735" lon="5.22308">
        <ele>752.4</ele>
        <time>2022-07-18T07:52:53Z</time>
      </trkpt>
      <trkpt lat="44.31736" lon="5.22307">
        <ele>752.5</ele>
        <time>2022-07-18T07:52:54Z</time>
      </trkpt>
      <trkpt lat="44.31736" lon="5.22305">
        <ele>752.6</ele>
        <time>2022-07-18T07:52:55Z</time>
      </trkpt>
      <trkpt lat="44.31736" lon="5.22303">
        <ele>752.7</ele>
        <time>2022-07-18T07:52:56Z</time>
      </trkpt>
      <trkpt lat="44.31736" lon="5.22299">
        <ele>752.8</ele>
        <time>2022-07-18T07:52:57Z</time>
      </trkpt>
      <trkpt lat="44.31736" lon="5.22297">
        <ele>752.9</ele>
        <time>2022-07-18T07:52:58Z</time>
      </trkpt>
      <trkpt lat="44.31736" lon="5.22292">
        <ele>753.1</ele>
        <time>2022-07-18T07:52:59Z</time>
      </trkpt>
      <trkpt lat="44.31736" lon="5.22291">
        <ele>753.2</ele>
        <time>2022-07-18T07:53:00Z</time>
      </trkpt>
      <trkpt lat="44.31736" lon="5.22285">
        <ele>753.3</ele>
        <time>2022-07-18T07:53:01Z</time>
      </trkpt>
      <trkpt lat="44.31736" lon="5.22284">
        <ele>753.4</ele>
        <time>2022-07-18T07:53:02Z</time>
      </trkpt>
      <trkpt lat="44.31737" lon="5.2228">
        <ele>753.5</ele>
        <time>2022-07-18T07:53:03Z</time>
      </trkpt>
      <trkpt lat="44.31737" lon="5.22275">
        <ele>753.6</ele>
        <time>2022-07-18T07:53:04Z</time>
      </trkpt>
      <trkpt lat="44.31736" lon="5.22273">
        <ele>753.6</ele>
        <time>2022-07-18T07:53:05Z</time>
      </trkpt>
      <trkpt lat="44.31736" lon="5.22268">
        <ele>753.7</ele>
        <time>2022-07-18T07:53:06Z</time>
      </trkpt>
      <trkpt lat="44.31736" lon="5.22266">
        <ele>753.7</ele>
        <time>2022-07-18T07:53:07Z</time>
      </trkpt>
      <trkpt lat="44.31735" lon="5.22261">
        <ele>753.8</ele>
        <time>2022-07-18T07:53:08Z</time>
      </trkpt>
      <trkpt lat="44.31735" lon="5.2226">
        <ele>753.8</ele>
        <time>2022-07-18T07:53:09Z</time>
      </trkpt>
      <trkpt lat="44.31734" lon="5.22255">
        <ele>753.9</ele>
        <time>2022-07-18T07:53:10Z</time>
      </trkpt>
      <trkpt lat="44.31734" lon="5.22254">
        <ele>753.9</ele>
        <time>2022-07-18T07:53:11Z</time>
      </trkpt>
      <trkpt lat="44.31733" lon="5.22249">
        <ele>753.9</ele>
        <time>2022-07-18T07:53:12Z</time>
      </trkpt>
      <trkpt lat="44.31732" lon="5.22248">
        <ele>753.9</ele>
        <time>2022-07-18T07:53:13Z</time>
      </trkpt>
      <trkpt lat="44.31731" lon="5.22243">
        <ele>753.9</ele>
        <time>2022-07-18T07:53:14Z</time>
      </trkpt>
      <trkpt lat="44.3173" lon="5.22241">
        <ele>753.9</ele>
        <time>2022-07-18T07:53:15Z</time>
      </trkpt>
      <trkpt lat="44.31728" lon="5.22238">
        <ele>753.9</ele>
        <time>2022-07-18T07:53:16Z</time>
      </trkpt>
      <trkpt lat="44.31727" lon="5.22234">
        <ele>753.9</ele>
        <time>2022-07-18T07:53:17Z</time>
      </trkpt>
      <trkpt lat="44.31726" lon="5.22232">
        <ele>753.9</ele>
        <time>2022-07-18T07:53:18Z</time>
      </trkpt>
      <trkpt lat="44.31725" lon="5.22228">
        <ele>753.9</ele>
        <time>2022-07-18T07:53:19Z</time>
      </trkpt>
      <trkpt lat="44.31724" lon="5.22225">
        <ele>753.9</ele>
        <time>2022-07-18T07:53:20Z</time>
      </trkpt>
      <trkpt lat="44.31723" lon="5.2222">
        <ele>753.9</ele>
        <time>2022-07-18T07:53:21Z</time>
      </trkpt>
      <trkpt lat="44.31723" lon="5.22219">
        <ele>754</ele>
        <time>2022-07-18T07:53:22Z</time>
      </trkpt>
      <trkpt lat="44.31722" lon="5.22215">
        <ele>754</ele>
        <time>2022-07-18T07:53:23Z</time>
      </trkpt>
      <trkpt lat="44.31721" lon="5.22214">
        <ele>754</ele>
        <time>2022-07-18T07:53:24Z</time>
      </trkpt>
      <trkpt lat="44.3172" lon="5.2221">
        <ele>754</ele>
        <time>2022-07-18T07:53:25Z</time>
      </trkpt>
      <trkpt lat="44.31718" lon="5.22206">
        <ele>754.1</ele>
        <time>2022-07-18T07:53:26Z</time>
      </trkpt>
      <trkpt lat="44.31717" lon="5.22203">
        <ele>754.1</ele>
        <time>2022-07-18T07:53:27Z</time>
      </trkpt>
      <trkpt lat="44.31715" lon="5.22199">
        <ele>754.2</ele>
        <time>2022-07-18T07:53:28Z</time>
      </trkpt>
      <trkpt lat="44.31714" lon="5.22196">
        <ele>754.3</ele>
        <time>2022-07-18T07:53:29Z</time>
      </trkpt>
      <trkpt lat="44.31711" lon="5.22191">
        <ele>754.4</ele>
        <time>2022-07-18T07:53:30Z</time>
      </trkpt>
      <trkpt lat="44.3171" lon="5.22189">
        <ele>754.5</ele>
        <time>2022-07-18T07:53:31Z</time>
      </trkpt>
      <trkpt lat="44.31709" lon="5.22185">
        <ele>754.6</ele>
        <time>2022-07-18T07:53:32Z</time>
      </trkpt>
      <trkpt lat="44.31708" lon="5.22181">
        <ele>754.8</ele>
        <time>2022-07-18T07:53:33Z</time>
      </trkpt>
      <trkpt lat="44.31707" lon="5.22177">
        <ele>755</ele>
        <time>2022-07-18T07:53:34Z</time>
      </trkpt>
      <trkpt lat="44.31706" lon="5.22173">
        <ele>755.4</ele>
        <time>2022-07-18T07:53:35Z</time>
      </trkpt>
      <trkpt lat="44.31705" lon="5.22169">
        <ele>755.5</ele>
        <time>2022-07-18T07:53:36Z</time>
      </trkpt>
      <trkpt lat="44.31705" lon="5.22167">
        <ele>755.5</ele>
        <time>2022-07-18T07:53:37Z</time>
      </trkpt>
      <trkpt lat="44.31705" lon="5.22165">
        <ele>755.6</ele>
        <time>2022-07-18T07:53:38Z</time>
      </trkpt>
      <trkpt lat="44.31705" lon="5.22163">
        <ele>755.6</ele>
        <time>2022-07-18T07:53:39Z</time>
      </trkpt>
      <trkpt lat="44.31705" lon="5.22159">
        <ele>755.7</ele>
        <time>2022-07-18T07:53:40Z</time>
      </trkpt>
      <trkpt lat="44.31705" lon="5.22157">
        <ele>755.7</ele>
        <time>2022-07-18T07:53:41Z</time>
      </trkpt>
      <trkpt lat="44.31704" lon="5.22153">
        <ele>755.8</ele>
        <time>2022-07-18T07:53:42Z</time>
      </trkpt>
      <trkpt lat="44.31704" lon="5.22152">
        <ele>755.8</ele>
        <time>2022-07-18T07:53:43Z</time>
      </trkpt>
      <trkpt lat="44.31704" lon="5.2215">
        <ele>755.9</ele>
        <time>2022-07-18T07:53:44Z</time>
      </trkpt>
      <trkpt lat="44.31705" lon="5.22148">
        <ele>755.9</ele>
        <time>2022-07-18T07:53:45Z</time>
      </trkpt>
      <trkpt lat="44.31705" lon="5.22144">
        <ele>756</ele>
        <time>2022-07-18T07:53:46Z</time>
      </trkpt>
      <trkpt lat="44.31705" lon="5.22143">
        <ele>756</ele>
        <time>2022-07-18T07:53:47Z</time>
      </trkpt>
      <trkpt lat="44.31705" lon="5.22138">
        <ele>756.1</ele>
        <time>2022-07-18T07:53:48Z</time>
      </trkpt>
      <trkpt lat="44.31705" lon="5.22137">
        <ele>756.1</ele>
        <time>2022-07-18T07:53:49Z</time>
      </trkpt>
      <trkpt lat="44.31705" lon="5.22132">
        <ele>756.2</ele>
        <time>2022-07-18T07:53:50Z</time>
      </trkpt>
      <trkpt lat="44.31705" lon="5.2213">
        <ele>756.3</ele>
        <time>2022-07-18T07:53:51Z</time>
      </trkpt>
      <trkpt lat="44.31705" lon="5.22125">
        <ele>756.4</ele>
        <time>2022-07-18T07:53:52Z</time>
      </trkpt>
      <trkpt lat="44.31704" lon="5.22124">
        <ele>756.4</ele>
        <time>2022-07-18T07:53:53Z</time>
      </trkpt>
      <trkpt lat="44.31703" lon="5.22118">
        <ele>756.6</ele>
        <time>2022-07-18T07:53:54Z</time>
      </trkpt>
      <trkpt lat="44.31703" lon="5.22117">
        <ele>756.6</ele>
        <time>2022-07-18T07:53:55Z</time>
      </trkpt>
      <trkpt lat="44.31703" lon="5.22111">
        <ele>756.7</ele>
        <time>2022-07-18T07:53:56Z</time>
      </trkpt>
      <trkpt lat="44.31703" lon="5.22109">
        <ele>756.7</ele>
        <time>2022-07-18T07:53:57Z</time>
      </trkpt>
      <trkpt lat="44.31703" lon="5.22106">
        <ele>756.8</ele>
        <time>2022-07-18T07:53:58Z</time>
      </trkpt>
      <trkpt lat="44.31704" lon="5.22102">
        <ele>756.8</ele>
        <time>2022-07-18T07:53:59Z</time>
      </trkpt>
      <trkpt lat="44.31706" lon="5.22098">
        <ele>756.9</ele>
        <time>2022-07-18T07:54:00Z</time>
      </trkpt>
      <trkpt lat="44.31709" lon="5.22095">
        <ele>756.9</ele>
        <time>2022-07-18T07:54:01Z</time>
      </trkpt>
      <trkpt lat="44.31713" lon="5.22092">
        <ele>757</ele>
        <time>2022-07-18T07:54:02Z</time>
      </trkpt>
      <trkpt lat="44.31716" lon="5.2209">
        <ele>757</ele>
        <time>2022-07-18T07:54:03Z</time>
      </trkpt>
      <trkpt lat="44.3172" lon="5.22087">
        <ele>757</ele>
        <time>2022-07-18T07:54:04Z</time>
      </trkpt>
      <trkpt lat="44.31723" lon="5.22083">
        <ele>757</ele>
        <time>2022-07-18T07:54:05Z</time>
      </trkpt>
      <trkpt lat="44.31726" lon="5.22079">
        <ele>757</ele>
        <time>2022-07-18T07:54:06Z</time>
      </trkpt>
      <trkpt lat="44.31729" lon="5.22075">
        <ele>757</ele>
        <time>2022-07-18T07:54:07Z</time>
      </trkpt>
      <trkpt lat="44.31731" lon="5.22071">
        <ele>757</ele>
        <time>2022-07-18T07:54:08Z</time>
      </trkpt>
      <trkpt lat="44.31733" lon="5.22066">
        <ele>757</ele>
        <time>2022-07-18T07:54:09Z</time>
      </trkpt>
      <trkpt lat="44.31734" lon="5.22061">
        <ele>757.1</ele>
        <time>2022-07-18T07:54:10Z</time>
      </trkpt>
      <trkpt lat="44.31735" lon="5.22055">
        <ele>757.1</ele>
        <time>2022-07-18T07:54:11Z</time>
      </trkpt>
      <trkpt lat="44.31736" lon="5.22049">
        <ele>757.1</ele>
        <time>2022-07-18T07:54:12Z</time>
      </trkpt>
      <trkpt lat="44.31736" lon="5.22044">
        <ele>757.2</ele>
        <time>2022-07-18T07:54:13Z</time>
      </trkpt>
      <trkpt lat="44.31735" lon="5.2204">
        <ele>757.2</ele>
        <time>2022-07-18T07:54:14Z</time>
      </trkpt>
      <trkpt lat="44.31734" lon="5.22036">
        <ele>757.3</ele>
        <time>2022-07-18T07:54:15Z</time>
      </trkpt>
      <trkpt lat="44.31733" lon="5.22032">
        <ele>757.3</ele>
        <time>2022-07-18T07:54:16Z</time>
      </trkpt>
      <trkpt lat="44.31731" lon="5.22029">
        <ele>757.3</ele>
        <time>2022-07-18T07:54:17Z</time>
      </trkpt>
      <trkpt lat="44.31731" lon="5.22027">
        <ele>757.3</ele>
        <time>2022-07-18T07:54:18Z</time>
      </trkpt>
      <trkpt lat="44.3173" lon="5.22026">
        <ele>757.3</ele>
        <time>2022-07-18T07:54:19Z</time>
      </trkpt>
      <trkpt lat="44.3173" lon="5.22025">
        <ele>757.2</ele>
        <time>2022-07-18T07:54:20Z</time>
      </trkpt>
      <trkpt lat="44.3173" lon="5.22026">
        <ele>757.2</ele>
        <time>2022-07-18T07:54:21Z</time>
      </trkpt>
      <trkpt lat="44.3173" lon="5.22027">
        <ele>757.2</ele>
        <time>2022-07-18T07:54:22Z</time>
      </trkpt>
      <trkpt lat="44.31731" lon="5.22028">
        <ele>757.2</ele>
        <time>2022-07-18T07:54:23Z</time>
      </trkpt>
      <trkpt lat="44.31731" lon="5.22029">
        <ele>757.2</ele>
        <time>2022-07-18T07:54:24Z</time>
      </trkpt>
      <trkpt lat="44.31731" lon="5.2203">
        <ele>757.2</ele>
        <time>2022-07-18T07:54:25Z</time>
      </trkpt>
      <trkpt lat="44.31732" lon="5.22031">
        <ele>757.2</ele>
        <time>2022-07-18T07:54:26Z</time>
      </trkpt>
      <trkpt lat="44.31732" lon="5.22032">
        <ele>757.2</ele>
        <time>2022-07-18T07:54:27Z</time>
      </trkpt>
      <trkpt lat="44.31732" lon="5.22033">
        <ele>757.2</ele>
        <time>2022-07-18T07:54:28Z</time>
      </trkpt>
      <trkpt lat="44.31733" lon="5.22034">
        <ele>757.2</ele>
        <time>2022-07-18T07:54:34Z</time>
      </trkpt>
      <trkpt lat="44.31733" lon="5.22035">
        <ele>757.2</ele>
        <time>2022-07-18T07:54:35Z</time>
      </trkpt>
      <trkpt lat="44.31733" lon="5.22041">
        <ele>757.1</ele>
        <time>2022-07-18T07:54:36Z</time>
      </trkpt>
      <trkpt lat="44.31732" lon="5.22043">
        <ele>757.1</ele>
        <time>2022-07-18T07:54:37Z</time>
      </trkpt>
      <trkpt lat="44.31731" lon="5.22047">
        <ele>757.1</ele>
        <time>2022-07-18T07:54:38Z</time>
      </trkpt>
      <trkpt lat="44.31729" lon="5.22051">
        <ele>757.1</ele>
        <time>2022-07-18T07:54:39Z</time>
      </trkpt>
      <trkpt lat="44.31727" lon="5.22055">
        <ele>757</ele>
        <time>2022-07-18T07:54:40Z</time>
      </trkpt>
      <trkpt lat="44.31725" lon="5.22059">
        <ele>757</ele>
        <time>2022-07-18T07:54:41Z</time>
      </trkpt>
      <trkpt lat="44.31723" lon="5.22063">
        <ele>757</ele>
        <time>2022-07-18T07:54:42Z</time>
      </trkpt>
      <trkpt lat="44.3172" lon="5.22066">
        <ele>757</ele>
        <time>2022-07-18T07:54:43Z</time>
      </trkpt>
      <trkpt lat="44.31718" lon="5.2207">
        <ele>757</ele>
        <time>2022-07-18T07:54:44Z</time>
      </trkpt>
      <trkpt lat="44.31715" lon="5.22073">
        <ele>757</ele>
        <time>2022-07-18T07:54:45Z</time>
      </trkpt>
      <trkpt lat="44.31711" lon="5.22075">
        <ele>757</ele>
        <time>2022-07-18T07:54:46Z</time>
      </trkpt>
      <trkpt lat="44.31708" lon="5.22076">
        <ele>757</ele>
        <time>2022-07-18T07:54:47Z</time>
      </trkpt>
      <trkpt lat="44.31705" lon="5.22077">
        <ele>757</ele>
        <time>2022-07-18T07:54:48Z</time>
      </trkpt>
      <trkpt lat="44.31702" lon="5.22078">
        <ele>757</ele>
        <time>2022-07-18T07:54:49Z</time>
      </trkpt>
      <trkpt lat="44.31699" lon="5.2208">
        <ele>757</ele>
        <time>2022-07-18T07:54:50Z</time>
      </trkpt>
      <trkpt lat="44.31696" lon="5.22083">
        <ele>756.9</ele>
        <time>2022-07-18T07:54:51Z</time>
      </trkpt>
      <trkpt lat="44.31694" lon="5.22085">
        <ele>756.9</ele>
        <time>2022-07-18T07:54:52Z</time>
      </trkpt>
      <trkpt lat="44.31692" lon="5.22088">
        <ele>756.9</ele>
        <time>2022-07-18T07:54:53Z</time>
      </trkpt>
      <trkpt lat="44.3169" lon="5.22093">
        <ele>756.8</ele>
        <time>2022-07-18T07:54:54Z</time>
      </trkpt>
      <trkpt lat="44.3169" lon="5.22094">
        <ele>756.8</ele>
        <time>2022-07-18T07:54:55Z</time>
      </trkpt>
      <trkpt lat="44.31688" lon="5.22099">
        <ele>756.8</ele>
        <time>2022-07-18T07:54:56Z</time>
      </trkpt>
      <trkpt lat="44.31688" lon="5.22101">
        <ele>756.7</ele>
        <time>2022-07-18T07:54:57Z</time>
      </trkpt>
      <trkpt lat="44.31688" lon="5.22105">
        <ele>756.7</ele>
        <time>2022-07-18T07:54:58Z</time>
      </trkpt>
      <trkpt lat="44.31688" lon="5.22111">
        <ele>756.6</ele>
        <time>2022-07-18T07:54:59Z</time>
      </trkpt>
      <trkpt lat="44.31688" lon="5.22113">
        <ele>756.5</ele>
        <time>2022-07-18T07:55:00Z</time>
      </trkpt>
      <trkpt lat="44.31689" lon="5.22118">
        <ele>756.4</ele>
        <time>2022-07-18T07:55:01Z</time>
      </trkpt>
      <trkpt lat="44.3169" lon="5.22123">
        <ele>756.4</ele>
        <time>2022-07-18T07:55:02Z</time>
      </trkpt>
      <trkpt lat="44.31691" lon="5.22128">
        <ele>756.3</ele>
        <time>2022-07-18T07:55:03Z</time>
      </trkpt>
      <trkpt lat="44.31691" lon="5.22132">
        <ele>756.2</ele>
        <time>2022-07-18T07:55:04Z</time>
      </trkpt>
      <trkpt lat="44.3169" lon="5.22138">
        <ele>756.1</ele>
        <time>2022-07-18T07:55:05Z</time>
      </trkpt>
      <trkpt lat="44.3169" lon="5.22139">
        <ele>756.1</ele>
        <time>2022-07-18T07:55:06Z</time>
      </trkpt>
      <trkpt lat="44.31689" lon="5.22144">
        <ele>756</ele>
        <time>2022-07-18T07:55:07Z</time>
      </trkpt>
      <trkpt lat="44.31689" lon="5.22146">
        <ele>755.9</ele>
        <time>2022-07-18T07:55:08Z</time>
      </trkpt>
      <trkpt lat="44.31689" lon="5.22148">
        <ele>755.9</ele>
        <time>2022-07-18T07:55:09Z</time>
      </trkpt>
      <trkpt lat="44.3169" lon="5.2215">
        <ele>763.6</ele>
        <time>2022-07-18T07:55:10Z</time>
      </trkpt>
      <trkpt lat="44.3169" lon="5.22152">
        <ele>764.5</ele>
        <time>2022-07-18T07:55:11Z</time>
      </trkpt>
      <trkpt lat="44.31689" lon="5.22154">
        <ele>764.6</ele>
        <time>2022-07-18T07:55:12Z</time>
      </trkpt>
      <trkpt lat="44.31689" lon="5.22156">
        <ele>764.7</ele>
        <time>2022-07-18T07:55:13Z</time>
      </trkpt>
      <trkpt lat="44.31688" lon="5.22158">
        <ele>764.8</ele>
        <time>2022-07-18T07:55:14Z</time>
      </trkpt>
      <trkpt lat="44.31688" lon="5.22159">
        <ele>764.9</ele>
        <time>2022-07-18T07:55:15Z</time>
      </trkpt>
      <trkpt lat="44.31686" lon="5.22157">
        <ele>765</ele>
        <time>2022-07-18T07:55:16Z</time>
      </trkpt>
      <trkpt lat="44.31686" lon="5.22156">
        <ele>765.1</ele>
        <time>2022-07-18T07:55:17Z</time>
      </trkpt>
      <trkpt lat="44.31685" lon="5.22155">
        <ele>765.2</ele>
        <time>2022-07-18T07:55:18Z</time>
      </trkpt>
      <trkpt lat="44.31685" lon="5.22153">
        <ele>765.4</ele>
        <time>2022-07-18T07:55:19Z</time>
      </trkpt>
      <trkpt lat="44.31684" lon="5.2215">
        <ele>765.5</ele>
        <time>2022-07-18T07:55:20Z</time>
      </trkpt>
      <trkpt lat="44.31684" lon="5.22146">
        <ele>765.9</ele>
        <time>2022-07-18T07:55:21Z</time>
      </trkpt>
      <trkpt lat="44.31684" lon="5.22145">
        <ele>766</ele>
        <time>2022-07-18T07:55:22Z</time>
      </trkpt>
      <trkpt lat="44.31684" lon="5.22141">
        <ele>766.3</ele>
        <time>2022-07-18T07:55:23Z</time>
      </trkpt>
      <trkpt lat="44.31684" lon="5.2214">
        <ele>766.4</ele>
        <time>2022-07-18T07:55:24Z</time>
      </trkpt>
      <trkpt lat="44.31684" lon="5.22137">
        <ele>766.6</ele>
        <time>2022-07-18T07:55:25Z</time>
      </trkpt>
      <trkpt lat="44.31685" lon="5.22136">
        <ele>766.8</ele>
        <time>2022-07-18T07:55:26Z</time>
      </trkpt>
      <trkpt lat="44.31685" lon="5.22133">
        <ele>767</ele>
        <time>2022-07-18T07:55:27Z</time>
      </trkpt>
      <trkpt lat="44.31685" lon="5.22132">
        <ele>767.1</ele>
        <time>2022-07-18T07:55:28Z</time>
      </trkpt>
      <trkpt lat="44.31685" lon="5.22131">
        <ele>767.3</ele>
        <time>2022-07-18T07:55:29Z</time>
      </trkpt>
      <trkpt lat="44.31686" lon="5.22129">
        <ele>767.4</ele>
        <time>2022-07-18T07:55:30Z</time>
      </trkpt>
      <trkpt lat="44.31686" lon="5.22127">
        <ele>767.6</ele>
        <time>2022-07-18T07:55:31Z</time>
      </trkpt>
      <trkpt lat="44.31686" lon="5.22126">
        <ele>767.7</ele>
        <time>2022-07-18T07:55:32Z</time>
      </trkpt>
      <trkpt lat="44.31686" lon="5.22125">
        <ele>767.8</ele>
        <time>2022-07-18T07:55:33Z</time>
      </trkpt>
      <trkpt lat="44.31686" lon="5.22123">
        <ele>768</ele>
        <time>2022-07-18T07:55:34Z</time>
      </trkpt>
      <trkpt lat="44.31685" lon="5.22122">
        <ele>768.1</ele>
        <time>2022-07-18T07:55:35Z</time>
      </trkpt>
      <trkpt lat="44.31684" lon="5.22121">
        <ele>768.3</ele>
        <time>2022-07-18T07:55:36Z</time>
      </trkpt>
      <trkpt lat="44.31683" lon="5.2212">
        <ele>768.5</ele>
        <time>2022-07-18T07:55:37Z</time>
      </trkpt>
      <trkpt lat="44.31682" lon="5.22119">
        <ele>768.7</ele>
        <time>2022-07-18T07:55:38Z</time>
      </trkpt>
      <trkpt lat="44.31681" lon="5.22119">
        <ele>768.8</ele>
        <time>2022-07-18T07:55:39Z</time>
      </trkpt>
      <trkpt lat="44.31679" lon="5.22119">
        <ele>769.1</ele>
        <time>2022-07-18T07:55:40Z</time>
      </trkpt>
      <trkpt lat="44.31676" lon="5.2212">
        <ele>769.6</ele>
        <time>2022-07-18T07:55:41Z</time>
      </trkpt>
      <trkpt lat="44.31675" lon="5.22121">
        <ele>769.7</ele>
        <time>2022-07-18T07:55:42Z</time>
      </trkpt>
      <trkpt lat="44.31674" lon="5.22122">
        <ele>769.9</ele>
        <time>2022-07-18T07:55:43Z</time>
      </trkpt>
      <trkpt lat="44.31673" lon="5.22123">
        <ele>770.1</ele>
        <time>2022-07-18T07:55:44Z</time>
      </trkpt>
      <trkpt lat="44.31672" lon="5.22124">
        <ele>770.2</ele>
        <time>2022-07-18T07:55:45Z</time>
      </trkpt>
      <trkpt lat="44.31672" lon="5.22126">
        <ele>770.4</ele>
        <time>2022-07-18T07:55:46Z</time>
      </trkpt>
      <trkpt lat="44.31672" lon="5.22127">
        <ele>770.6</ele>
        <time>2022-07-18T07:55:47Z</time>
      </trkpt>
      <trkpt lat="44.31672" lon="5.2213">
        <ele>770.9</ele>
        <time>2022-07-18T07:55:48Z</time>
      </trkpt>
      <trkpt lat="44.31671" lon="5.22132">
        <ele>771.1</ele>
        <time>2022-07-18T07:55:49Z</time>
      </trkpt>
      <trkpt lat="44.31672" lon="5.22135">
        <ele>771.3</ele>
        <time>2022-07-18T07:55:50Z</time>
      </trkpt>
      <trkpt lat="44.31671" lon="5.22136">
        <ele>771.6</ele>
        <time>2022-07-18T07:55:51Z</time>
      </trkpt>
      <trkpt lat="44.31671" lon="5.22137">
        <ele>771.7</ele>
        <time>2022-07-18T07:55:52Z</time>
      </trkpt>
      <trkpt lat="44.31671" lon="5.22138">
        <ele>771.8</ele>
        <time>2022-07-18T07:55:53Z</time>
      </trkpt>
      <trkpt lat="44.3167" lon="5.22139">
        <ele>772</ele>
        <time>2022-07-18T07:55:54Z</time>
      </trkpt>
      <trkpt lat="44.31669" lon="5.22139">
        <ele>772.1</ele>
        <time>2022-07-18T07:55:55Z</time>
      </trkpt>
      <trkpt lat="44.31668" lon="5.22139">
        <ele>772.2</ele>
        <time>2022-07-18T07:55:56Z</time>
      </trkpt>
      <trkpt lat="44.31667" lon="5.2214">
        <ele>772.4</ele>
        <time>2022-07-18T07:55:57Z</time>
      </trkpt>
      <trkpt lat="44.31665" lon="5.2214">
        <ele>772.6</ele>
        <time>2022-07-18T07:55:58Z</time>
      </trkpt>
      <trkpt lat="44.31663" lon="5.2214">
        <ele>772.9</ele>
        <time>2022-07-18T07:55:59Z</time>
      </trkpt>
      <trkpt lat="44.31663" lon="5.22141">
        <ele>773.1</ele>
        <time>2022-07-18T07:56:00Z</time>
      </trkpt>
      <trkpt lat="44.31662" lon="5.22141">
        <ele>773.2</ele>
        <time>2022-07-18T07:56:01Z</time>
      </trkpt>
      <trkpt lat="44.31661" lon="5.22141">
        <ele>773.4</ele>
        <time>2022-07-18T07:56:02Z</time>
      </trkpt>
      <trkpt lat="44.31659" lon="5.22141">
        <ele>773.6</ele>
        <time>2022-07-18T07:56:03Z</time>
      </trkpt>
      <trkpt lat="44.31658" lon="5.22141">
        <ele>773.7</ele>
        <time>2022-07-18T07:56:04Z</time>
      </trkpt>
      <trkpt lat="44.31658" lon="5.22141">
        <ele>773.8</ele>
        <time>2022-07-18T07:56:05Z</time>
      </trkpt>
      <trkpt lat="44.31658" lon="5.22141">
        <ele>773.8</ele>
        <time>2022-07-18T07:56:06Z</time>
      </trkpt>
      <trkpt lat="44.31657" lon="5.22141">
        <ele>774</ele>
        <time>2022-07-18T07:56:07Z</time>
      </trkpt>
      <trkpt lat="44.31656" lon="5.22142">
        <ele>774.1</ele>
        <time>2022-07-18T07:56:08Z</time>
      </trkpt>
      <trkpt lat="44.31655" lon="5.22142">
        <ele>774.2</ele>
        <time>2022-07-18T07:56:09Z</time>
      </trkpt>
      <trkpt lat="44.31654" lon="5.22143">
        <ele>774.3</ele>
        <time>2022-07-18T07:56:10Z</time>
      </trkpt>
      <trkpt lat="44.31654" lon="5.22143">
        <ele>774.4</ele>
        <time>2022-07-18T07:56:11Z</time>
      </trkpt>
      <trkpt lat="44.31653" lon="5.22143">
        <ele>774.6</ele>
        <time>2022-07-18T07:56:12Z</time>
      </trkpt>
      <trkpt lat="44.31652" lon="5.22142">
        <ele>774.7</ele>
        <time>2022-07-18T07:56:13Z</time>
      </trkpt>
      <trkpt lat="44.31652" lon="5.22142">
        <ele>774.7</ele>
        <time>2022-07-18T07:56:14Z</time>
      </trkpt>
      <trkpt lat="44.31652" lon="5.22142">
        <ele>774.7</ele>
        <time>2022-07-18T07:56:15Z</time>
      </trkpt>
      <trkpt lat="44.31652" lon="5.22142">
        <ele>774.7</ele>
        <time>2022-07-18T07:56:16Z</time>
      </trkpt>
      <trkpt lat="44.31652" lon="5.22145">
        <ele>774.9</ele>
        <time>2022-07-18T07:56:17Z</time>
      </trkpt>
      <trkpt lat="44.31651" lon="5.22145">
        <ele>775</ele>
        <time>2022-07-18T07:56:18Z</time>
      </trkpt>
      <trkpt lat="44.31651" lon="5.22145">
        <ele>775</ele>
        <time>2022-07-18T07:56:19Z</time>
      </trkpt>
      <trkpt lat="44.31651" lon="5.22144">
        <ele>775.1</ele>
        <time>2022-07-18T07:56:20Z</time>
      </trkpt>
      <trkpt lat="44.3165" lon="5.22143">
        <ele>775.2</ele>
        <time>2022-07-18T07:56:21Z</time>
      </trkpt>
      <trkpt lat="44.3165" lon="5.22142">
        <ele>775.4</ele>
        <time>2022-07-18T07:56:22Z</time>
      </trkpt>
      <trkpt lat="44.31649" lon="5.2214">
        <ele>775.6</ele>
        <time>2022-07-18T07:56:23Z</time>
      </trkpt>
      <trkpt lat="44.31648" lon="5.22139">
        <ele>775.7</ele>
        <time>2022-07-18T07:56:24Z</time>
      </trkpt>
      <trkpt lat="44.31648" lon="5.22138">
        <ele>775.8</ele>
        <time>2022-07-18T07:56:25Z</time>
      </trkpt>
      <trkpt lat="44.31647" lon="5.22137">
        <ele>776</ele>
        <time>2022-07-18T07:56:26Z</time>
      </trkpt>
      <trkpt lat="44.31647" lon="5.22136">
        <ele>776.1</ele>
        <time>2022-07-18T07:56:27Z</time>
      </trkpt>
      <trkpt lat="44.31647" lon="5.22135">
        <ele>776.2</ele>
        <time>2022-07-18T07:56:28Z</time>
      </trkpt>
      <trkpt lat="44.31647" lon="5.22134">
        <ele>776.2</ele>
        <time>2022-07-18T07:56:29Z</time>
      </trkpt>
      <trkpt lat="44.31647" lon="5.22134">
        <ele>776.3</ele>
        <time>2022-07-18T07:56:30Z</time>
      </trkpt>
      <trkpt lat="44.31647" lon="5.22134">
        <ele>776.3</ele>
        <time>2022-07-18T07:56:31Z</time>
      </trkpt>
      <trkpt lat="44.31647" lon="5.22133">
        <ele>776.4</ele>
        <time>2022-07-18T07:56:32Z</time>
      </trkpt>
      <trkpt lat="44.31647" lon="5.22133">
        <ele>776.4</ele>
        <time>2022-07-18T07:56:33Z</time>
      </trkpt>
      <trkpt lat="44.31648" lon="5.22132">
        <ele>776.5</ele>
        <time>2022-07-18T07:56:34Z</time>
      </trkpt>
      <trkpt lat="44.31648" lon="5.22131">
        <ele>776.6</ele>
        <time>2022-07-18T07:56:35Z</time>
      </trkpt>
      <trkpt lat="44.31647" lon="5.22131">
        <ele>776.6</ele>
        <time>2022-07-18T07:56:36Z</time>
      </trkpt>
      <trkpt lat="44.31647" lon="5.22131">
        <ele>776.6</ele>
        <time>2022-07-18T07:56:37Z</time>
      </trkpt>
      <trkpt lat="44.31647" lon="5.2213">
        <ele>776.8</ele>
        <time>2022-07-18T07:56:38Z</time>
      </trkpt>
      <trkpt lat="44.31646" lon="5.22129">
        <ele>777</ele>
        <time>2022-07-18T07:56:39Z</time>
      </trkpt>
      <trkpt lat="44.31645" lon="5.22128">
        <ele>777.1</ele>
        <time>2022-07-18T07:56:40Z</time>
      </trkpt>
      <trkpt lat="44.31645" lon="5.22127">
        <ele>777.3</ele>
        <time>2022-07-18T07:56:41Z</time>
      </trkpt>
      <trkpt lat="44.31645" lon="5.22126">
        <ele>777.4</ele>
        <time>2022-07-18T07:56:42Z</time>
      </trkpt>
      <trkpt lat="44.31645" lon="5.22125">
        <ele>777.5</ele>
        <time>2022-07-18T07:56:43Z</time>
      </trkpt>
      <trkpt lat="44.31645" lon="5.22124">
        <ele>777.6</ele>
        <time>2022-07-18T07:56:44Z</time>
      </trkpt>
      <trkpt lat="44.31645" lon="5.22123">
        <ele>777.7</ele>
        <time>2022-07-18T07:56:45Z</time>
      </trkpt>
      <trkpt lat="44.31645" lon="5.22122">
        <ele>777.9</ele>
        <time>2022-07-18T07:56:46Z</time>
      </trkpt>
      <trkpt lat="44.31645" lon="5.22121">
        <ele>778</ele>
        <time>2022-07-18T07:56:47Z</time>
      </trkpt>
      <trkpt lat="44.31645" lon="5.2212">
        <ele>778.2</ele>
        <time>2022-07-18T07:56:48Z</time>
      </trkpt>
      <trkpt lat="44.31645" lon="5.22119">
        <ele>778.4</ele>
        <time>2022-07-18T07:56:49Z</time>
      </trkpt>
      <trkpt lat="44.31644" lon="5.22117">
        <ele>778.5</ele>
        <time>2022-07-18T07:56:50Z</time>
      </trkpt>
      <trkpt lat="44.31644" lon="5.22116">
        <ele>778.7</ele>
        <time>2022-07-18T07:56:51Z</time>
      </trkpt>
      <trkpt lat="44.31644" lon="5.22115">
        <ele>778.9</ele>
        <time>2022-07-18T07:56:52Z</time>
      </trkpt>
      <trkpt lat="44.31644" lon="5.22114">
        <ele>779</ele>
        <time>2022-07-18T07:56:53Z</time>
      </trkpt>
      <trkpt lat="44.31644" lon="5.22114">
        <ele>779.1</ele>
        <time>2022-07-18T07:56:54Z</time>
      </trkpt>
      <trkpt lat="44.31644" lon="5.22113">
        <ele>779.2</ele>
        <time>2022-07-18T07:56:55Z</time>
      </trkpt>
      <trkpt lat="44.31644" lon="5.22112">
        <ele>779.2</ele>
        <time>2022-07-18T07:56:56Z</time>
      </trkpt>
      <trkpt lat="44.31644" lon="5.22112">
        <ele>779.3</ele>
        <time>2022-07-18T07:56:57Z</time>
      </trkpt>
      <trkpt lat="44.31643" lon="5.22111">
        <ele>779.4</ele>
        <time>2022-07-18T07:56:58Z</time>
      </trkpt>
      <trkpt lat="44.31642" lon="5.22111">
        <ele>779.6</ele>
        <time>2022-07-18T07:56:59Z</time>
      </trkpt>
      <trkpt lat="44.31641" lon="5.22111">
        <ele>779.8</ele>
        <time>2022-07-18T07:57:00Z</time>
      </trkpt>
      <trkpt lat="44.3164" lon="5.22111">
        <ele>780</ele>
        <time>2022-07-18T07:57:01Z</time>
      </trkpt>
      <trkpt lat="44.31639" lon="5.22112">
        <ele>780.1</ele>
        <time>2022-07-18T07:57:02Z</time>
      </trkpt>
      <trkpt lat="44.31638" lon="5.22113">
        <ele>780.3</ele>
        <time>2022-07-18T07:57:03Z</time>
      </trkpt>
      <trkpt lat="44.31637" lon="5.22113">
        <ele>780.5</ele>
        <time>2022-07-18T07:57:04Z</time>
      </trkpt>
      <trkpt lat="44.31636" lon="5.22113">
        <ele>780.6</ele>
        <time>2022-07-18T07:57:05Z</time>
      </trkpt>
      <trkpt lat="44.31636" lon="5.22114">
        <ele>780.7</ele>
        <time>2022-07-18T07:57:06Z</time>
      </trkpt>
      <trkpt lat="44.31636" lon="5.22114">
        <ele>780.8</ele>
        <time>2022-07-18T07:57:07Z</time>
      </trkpt>
      <trkpt lat="44.31635" lon="5.22115">
        <ele>780.8</ele>
        <time>2022-07-18T07:57:08Z</time>
      </trkpt>
      <trkpt lat="44.31635" lon="5.22115">
        <ele>781</ele>
        <time>2022-07-18T07:57:09Z</time>
      </trkpt>
      <trkpt lat="44.31634" lon="5.22115">
        <ele>781.1</ele>
        <time>2022-07-18T07:57:10Z</time>
      </trkpt>
      <trkpt lat="44.31633" lon="5.22116">
        <ele>781.2</ele>
        <time>2022-07-18T07:57:11Z</time>
      </trkpt>
      <trkpt lat="44.31632" lon="5.22116">
        <ele>781.4</ele>
        <time>2022-07-18T07:57:12Z</time>
      </trkpt>
      <trkpt lat="44.31632" lon="5.22117">
        <ele>781.5</ele>
        <time>2022-07-18T07:57:13Z</time>
      </trkpt>
      <trkpt lat="44.31632" lon="5.22118">
        <ele>781.6</ele>
        <time>2022-07-18T07:57:14Z</time>
      </trkpt>
      <trkpt lat="44.31632" lon="5.22118">
        <ele>781.6</ele>
        <time>2022-07-18T07:57:15Z</time>
      </trkpt>
      <trkpt lat="44.31633" lon="5.2212">
        <ele>781.8</ele>
        <time>2022-07-18T07:57:16Z</time>
      </trkpt>
      <trkpt lat="44.31632" lon="5.22121">
        <ele>781.9</ele>
        <time>2022-07-18T07:57:17Z</time>
      </trkpt>
      <trkpt lat="44.31632" lon="5.22121">
        <ele>782</ele>
        <time>2022-07-18T07:57:18Z</time>
      </trkpt>
      <trkpt lat="44.31631" lon="5.22122">
        <ele>782.1</ele>
        <time>2022-07-18T07:57:19Z</time>
      </trkpt>
      <trkpt lat="44.3163" lon="5.22123">
        <ele>782.3</ele>
        <time>2022-07-18T07:57:20Z</time>
      </trkpt>
      <trkpt lat="44.3163" lon="5.22123">
        <ele>782.3</ele>
        <time>2022-07-18T07:57:21Z</time>
      </trkpt>
      <trkpt lat="44.3163" lon="5.22124">
        <ele>782.4</ele>
        <time>2022-07-18T07:57:22Z</time>
      </trkpt>
      <trkpt lat="44.3163" lon="5.22124">
        <ele>782.4</ele>
        <time>2022-07-18T07:57:23Z</time>
      </trkpt>
      <trkpt lat="44.3163" lon="5.22124">
        <ele>782.5</ele>
        <time>2022-07-18T07:57:24Z</time>
      </trkpt>
      <trkpt lat="44.3163" lon="5.22124">
        <ele>782.6</ele>
        <time>2022-07-18T07:57:25Z</time>
      </trkpt>
      <trkpt lat="44.31629" lon="5.22123">
        <ele>782.7</ele>
        <time>2022-07-18T07:57:26Z</time>
      </trkpt>
      <trkpt lat="44.31628" lon="5.22122">
        <ele>782.8</ele>
        <time>2022-07-18T07:57:27Z</time>
      </trkpt>
      <trkpt lat="44.31627" lon="5.22121">
        <ele>783</ele>
        <time>2022-07-18T07:57:28Z</time>
      </trkpt>
      <trkpt lat="44.31626" lon="5.22121">
        <ele>783.2</ele>
        <time>2022-07-18T07:57:29Z</time>
      </trkpt>
      <trkpt lat="44.31625" lon="5.2212">
        <ele>783.3</ele>
        <time>2022-07-18T07:57:30Z</time>
      </trkpt>
      <trkpt lat="44.31625" lon="5.2212">
        <ele>783.4</ele>
        <time>2022-07-18T07:57:31Z</time>
      </trkpt>
      <trkpt lat="44.31624" lon="5.22119">
        <ele>783.5</ele>
        <time>2022-07-18T07:57:32Z</time>
      </trkpt>
      <trkpt lat="44.31624" lon="5.22118">
        <ele>783.6</ele>
        <time>2022-07-18T07:57:33Z</time>
      </trkpt>
      <trkpt lat="44.31624" lon="5.22118">
        <ele>783.6</ele>
        <time>2022-07-18T07:57:34Z</time>
      </trkpt>
      <trkpt lat="44.31624" lon="5.22117">
        <ele>783.7</ele>
        <time>2022-07-18T07:57:35Z</time>
      </trkpt>
      <trkpt lat="44.31624" lon="5.22116">
        <ele>783.8</ele>
        <time>2022-07-18T07:57:36Z</time>
      </trkpt>
      <trkpt lat="44.31623" lon="5.22115">
        <ele>783.9</ele>
        <time>2022-07-18T07:57:37Z</time>
      </trkpt>
      <trkpt lat="44.31623" lon="5.22115">
        <ele>783.9</ele>
        <time>2022-07-18T07:57:38Z</time>
      </trkpt>
      <trkpt lat="44.31623" lon="5.22115">
        <ele>783.9</ele>
        <time>2022-07-18T07:57:39Z</time>
      </trkpt>
      <trkpt lat="44.31623" lon="5.22115">
        <ele>783.9</ele>
        <time>2022-07-18T07:57:40Z</time>
      </trkpt>
      <trkpt lat="44.31623" lon="5.22115">
        <ele>783.9</ele>
        <time>2022-07-18T07:57:41Z</time>
      </trkpt>
      <trkpt lat="44.31623" lon="5.22115">
        <ele>784</ele>
        <time>2022-07-18T07:57:42Z</time>
      </trkpt>
      <trkpt lat="44.31624" lon="5.22114">
        <ele>784.1</ele>
        <time>2022-07-18T07:57:43Z</time>
      </trkpt>
      <trkpt lat="44.31624" lon="5.22113">
        <ele>784.2</ele>
        <time>2022-07-18T07:57:44Z</time>
      </trkpt>
      <trkpt lat="44.31624" lon="5.22111">
        <ele>784.3</ele>
        <time>2022-07-18T07:57:45Z</time>
      </trkpt>
      <trkpt lat="44.31624" lon="5.22108">
        <ele>784.6</ele>
        <time>2022-07-18T07:57:46Z</time>
      </trkpt>
      <trkpt lat="44.31624" lon="5.22107">
        <ele>784.6</ele>
        <time>2022-07-18T07:57:47Z</time>
      </trkpt>
      <trkpt lat="44.31624" lon="5.22106">
        <ele>784.7</ele>
        <time>2022-07-18T07:57:48Z</time>
      </trkpt>
      <trkpt lat="44.31624" lon="5.22104">
        <ele>784.8</ele>
        <time>2022-07-18T07:57:49Z</time>
      </trkpt>
      <trkpt lat="44.31623" lon="5.22103">
        <ele>784.9</ele>
        <time>2022-07-18T07:57:50Z</time>
      </trkpt>
      <trkpt lat="44.31623" lon="5.22102">
        <ele>785</ele>
        <time>2022-07-18T07:57:51Z</time>
      </trkpt>
      <trkpt lat="44.31621" lon="5.22101">
        <ele>785.3</ele>
        <time>2022-07-18T07:57:52Z</time>
      </trkpt>
      <trkpt lat="44.3162" lon="5.22101">
        <ele>785.4</ele>
        <time>2022-07-18T07:57:53Z</time>
      </trkpt>
      <trkpt lat="44.31619" lon="5.22101">
        <ele>785.5</ele>
        <time>2022-07-18T07:57:54Z</time>
      </trkpt>
      <trkpt lat="44.31618" lon="5.22102">
        <ele>785.6</ele>
        <time>2022-07-18T07:57:55Z</time>
      </trkpt>
      <trkpt lat="44.31617" lon="5.22102">
        <ele>785.7</ele>
        <time>2022-07-18T07:57:56Z</time>
      </trkpt>
      <trkpt lat="44.31616" lon="5.22102">
        <ele>785.9</ele>
        <time>2022-07-18T07:57:57Z</time>
      </trkpt>
      <trkpt lat="44.31615" lon="5.22102">
        <ele>786</ele>
        <time>2022-07-18T07:57:58Z</time>
      </trkpt>
      <trkpt lat="44.31614" lon="5.22102">
        <ele>786.1</ele>
        <time>2022-07-18T07:57:59Z</time>
      </trkpt>
      <trkpt lat="44.31613" lon="5.22102">
        <ele>786.3</ele>
        <time>2022-07-18T07:58:00Z</time>
      </trkpt>
      <trkpt lat="44.31612" lon="5.22102">
        <ele>786.4</ele>
        <time>2022-07-18T07:58:01Z</time>
      </trkpt>
      <trkpt lat="44.31611" lon="5.22102">
        <ele>786.5</ele>
        <time>2022-07-18T07:58:02Z</time>
      </trkpt>
      <trkpt lat="44.3161" lon="5.22102">
        <ele>786.7</ele>
        <time>2022-07-18T07:58:31Z</time>
      </trkpt>
      <trkpt lat="44.3161" lon="5.22103">
        <ele>786.8</ele>
        <time>2022-07-18T07:58:32Z</time>
      </trkpt>
      <trkpt lat="44.31609" lon="5.22103">
        <ele>787</ele>
        <time>2022-07-18T07:58:33Z</time>
      </trkpt>
      <trkpt lat="44.31608" lon="5.22103">
        <ele>787.1</ele>
        <time>2022-07-18T07:58:34Z</time>
      </trkpt>
      <trkpt lat="44.31607" lon="5.22103">
        <ele>787.2</ele>
        <time>2022-07-18T07:58:35Z</time>
      </trkpt>
      <trkpt lat="44.31606" lon="5.22103">
        <ele>787.4</ele>
        <time>2022-07-18T07:58:36Z</time>
      </trkpt>
      <trkpt lat="44.31605" lon="5.22103">
        <ele>787.5</ele>
        <time>2022-07-18T07:58:37Z</time>
      </trkpt>
      <trkpt lat="44.31604" lon="5.22103">
        <ele>787.7</ele>
        <time>2022-07-18T07:58:38Z</time>
      </trkpt>
      <trkpt lat="44.31603" lon="5.22103">
        <ele>787.9</ele>
        <time>2022-07-18T07:58:39Z</time>
      </trkpt>
      <trkpt lat="44.31602" lon="5.22103">
        <ele>788</ele>
        <time>2022-07-18T07:58:40Z</time>
      </trkpt>
      <trkpt lat="44.31601" lon="5.22103">
        <ele>788.2</ele>
        <time>2022-07-18T07:58:41Z</time>
      </trkpt>
      <trkpt lat="44.316" lon="5.22104">
        <ele>788.4</ele>
        <time>2022-07-18T07:58:50Z</time>
      </trkpt>
      <trkpt lat="44.31599" lon="5.22104">
        <ele>788.6</ele>
        <time>2022-07-18T07:58:51Z</time>
      </trkpt>
      <trkpt lat="44.31599" lon="5.22104">
        <ele>788.7</ele>
        <time>2022-07-18T07:58:52Z</time>
      </trkpt>
      <trkpt lat="44.31598" lon="5.22104">
        <ele>788.9</ele>
        <time>2022-07-18T07:58:53Z</time>
      </trkpt>
      <trkpt lat="44.31597" lon="5.22104">
        <ele>789.1</ele>
        <time>2022-07-18T07:58:54Z</time>
      </trkpt>
      <trkpt lat="44.31596" lon="5.22104">
        <ele>789.3</ele>
        <time>2022-07-18T07:58:55Z</time>
      </trkpt>
      <trkpt lat="44.31595" lon="5.22104">
        <ele>789.5</ele>
        <time>2022-07-18T07:58:56Z</time>
      </trkpt>
      <trkpt lat="44.31594" lon="5.22103">
        <ele>789.7</ele>
        <time>2022-07-18T07:58:57Z</time>
      </trkpt>
      <trkpt lat="44.31594" lon="5.22102">
        <ele>789.9</ele>
        <time>2022-07-18T07:58:58Z</time>
      </trkpt>
      <trkpt lat="44.31593" lon="5.22101">
        <ele>790.1</ele>
        <time>2022-07-18T07:58:59Z</time>
      </trkpt>
      <trkpt lat="44.31592" lon="5.22101">
        <ele>790.2</ele>
        <time>2022-07-18T07:59:00Z</time>
      </trkpt>
      <trkpt lat="44.31592" lon="5.221">
        <ele>790.4</ele>
        <time>2022-07-18T07:59:01Z</time>
      </trkpt>
      <trkpt lat="44.31588" lon="5.221">
        <ele>791.1</ele>
        <time>2022-07-18T07:59:04Z</time>
      </trkpt>
      <trkpt lat="44.31588" lon="5.221">
        <ele>791.2</ele>
        <time>2022-07-18T07:59:05Z</time>
      </trkpt>
      <trkpt lat="44.31586" lon="5.221">
        <ele>791.5</ele>
        <time>2022-07-18T07:59:06Z</time>
      </trkpt>
      <trkpt lat="44.31585" lon="5.221">
        <ele>791.9</ele>
        <time>2022-07-18T07:59:07Z</time>
      </trkpt>
      <trkpt lat="44.31583" lon="5.22099">
        <ele>792.3</ele>
        <time>2022-07-18T07:59:08Z</time>
      </trkpt>
      <trkpt lat="44.31581" lon="5.22099">
        <ele>792.7</ele>
        <time>2022-07-18T07:59:09Z</time>
      </trkpt>
      <trkpt lat="44.3158" lon="5.22099">
        <ele>793.1</ele>
        <time>2022-07-18T07:59:10Z</time>
      </trkpt>
      <trkpt lat="44.31578" lon="5.221">
        <ele>793.5</ele>
        <time>2022-07-18T07:59:11Z</time>
      </trkpt>
      <trkpt lat="44.31577" lon="5.221">
        <ele>793.7</ele>
        <time>2022-07-18T07:59:12Z</time>
      </trkpt>
      <trkpt lat="44.31576" lon="5.221">
        <ele>793.9</ele>
        <time>2022-07-18T07:59:13Z</time>
      </trkpt>
      <trkpt lat="44.31575" lon="5.22101">
        <ele>794.2</ele>
        <time>2022-07-18T07:59:14Z</time>
      </trkpt>
      <trkpt lat="44.31573" lon="5.22101">
        <ele>794.4</ele>
        <time>2022-07-18T07:59:15Z</time>
      </trkpt>
      <trkpt lat="44.31572" lon="5.22102">
        <ele>794.7</ele>
        <time>2022-07-18T07:59:16Z</time>
      </trkpt>
      <trkpt lat="44.31572" lon="5.22104">
        <ele>794.9</ele>
        <time>2022-07-18T07:59:17Z</time>
      </trkpt>
      <trkpt lat="44.31571" lon="5.22106">
        <ele>795.3</ele>
        <time>2022-07-18T07:59:18Z</time>
      </trkpt>
      <trkpt lat="44.31571" lon="5.22107">
        <ele>795.4</ele>
        <time>2022-07-18T07:59:19Z</time>
      </trkpt>
      <trkpt lat="44.3157" lon="5.22108">
        <ele>795.6</ele>
        <time>2022-07-18T07:59:20Z</time>
      </trkpt>
      <trkpt lat="44.3157" lon="5.2211">
        <ele>795.8</ele>
        <time>2022-07-18T07:59:21Z</time>
      </trkpt>
      <trkpt lat="44.31569" lon="5.22112">
        <ele>796.1</ele>
        <time>2022-07-18T07:59:22Z</time>
      </trkpt>
      <trkpt lat="44.31568" lon="5.22113">
        <ele>796.2</ele>
        <time>2022-07-18T07:59:23Z</time>
      </trkpt>
      <trkpt lat="44.31567" lon="5.22113">
        <ele>796.4</ele>
        <time>2022-07-18T07:59:24Z</time>
      </trkpt>
      <trkpt lat="44.31566" lon="5.22114">
        <ele>796.6</ele>
        <time>2022-07-18T07:59:25Z</time>
      </trkpt>
      <trkpt lat="44.31565" lon="5.22115">
        <ele>796.7</ele>
        <time>2022-07-18T07:59:26Z</time>
      </trkpt>
      <trkpt lat="44.31564" lon="5.22115">
        <ele>796.8</ele>
        <time>2022-07-18T07:59:27Z</time>
      </trkpt>
      <trkpt lat="44.31562" lon="5.22116">
        <ele>797.1</ele>
        <time>2022-07-18T07:59:28Z</time>
      </trkpt>
      <trkpt lat="44.31561" lon="5.22117">
        <ele>797.2</ele>
        <time>2022-07-18T07:59:29Z</time>
      </trkpt>
      <trkpt lat="44.31561" lon="5.22118">
        <ele>797.3</ele>
        <time>2022-07-18T07:59:30Z</time>
      </trkpt>
      <trkpt lat="44.3156" lon="5.22119">
        <ele>797.5</ele>
        <time>2022-07-18T07:59:31Z</time>
      </trkpt>
      <trkpt lat="44.31559" lon="5.2212">
        <ele>797.7</ele>
        <time>2022-07-18T07:59:32Z</time>
      </trkpt>
      <trkpt lat="44.31559" lon="5.22121">
        <ele>797.8</ele>
        <time>2022-07-18T07:59:33Z</time>
      </trkpt>
      <trkpt lat="44.31558" lon="5.22122">
        <ele>797.9</ele>
        <time>2022-07-18T07:59:34Z</time>
      </trkpt>
      <trkpt lat="44.31557" lon="5.22122">
        <ele>798</ele>
        <time>2022-07-18T07:59:35Z</time>
      </trkpt>
      <trkpt lat="44.31558" lon="5.22122">
        <ele>798</ele>
        <time>2022-07-18T07:59:36Z</time>
      </trkpt>
      <trkpt lat="44.31558" lon="5.22123">
        <ele>798.1</ele>
        <time>2022-07-18T07:59:37Z</time>
      </trkpt>
      <trkpt lat="44.31558" lon="5.22124">
        <ele>798.2</ele>
        <time>2022-07-18T07:59:38Z</time>
      </trkpt>
      <trkpt lat="44.31557" lon="5.22125">
        <ele>798.3</ele>
        <time>2022-07-18T07:59:39Z</time>
      </trkpt>
      <trkpt lat="44.31556" lon="5.22125">
        <ele>798.4</ele>
        <time>2022-07-18T07:59:40Z</time>
      </trkpt>
      <trkpt lat="44.31555" lon="5.22124">
        <ele>798.6</ele>
        <time>2022-07-18T07:59:41Z</time>
      </trkpt>
      <trkpt lat="44.31554" lon="5.22125">
        <ele>798.7</ele>
        <time>2022-07-18T07:59:42Z</time>
      </trkpt>
      <trkpt lat="44.31553" lon="5.22126">
        <ele>798.8</ele>
        <time>2022-07-18T07:59:43Z</time>
      </trkpt>
      <trkpt lat="44.31552" lon="5.22126">
        <ele>798.9</ele>
        <time>2022-07-18T07:59:44Z</time>
      </trkpt>
      <trkpt lat="44.31551" lon="5.22127">
        <ele>799.1</ele>
        <time>2022-07-18T07:59:45Z</time>
      </trkpt>
      <trkpt lat="44.3155" lon="5.22127">
        <ele>799.3</ele>
        <time>2022-07-18T07:59:46Z</time>
      </trkpt>
      <trkpt lat="44.31549" lon="5.22127">
        <ele>799.4</ele>
        <time>2022-07-18T07:59:47Z</time>
      </trkpt>
      <trkpt lat="44.31548" lon="5.22127">
        <ele>799.5</ele>
        <time>2022-07-18T07:59:48Z</time>
      </trkpt>
      <trkpt lat="44.31547" lon="5.22127">
        <ele>799.6</ele>
        <time>2022-07-18T07:59:49Z</time>
      </trkpt>
      <trkpt lat="44.31546" lon="5.22128">
        <ele>799.7</ele>
        <time>2022-07-18T07:59:50Z</time>
      </trkpt>
      <trkpt lat="44.31546" lon="5.22129">
        <ele>800.1</ele>
        <time>2022-07-18T07:59:51Z</time>
      </trkpt>
      <trkpt lat="44.31546" lon="5.22131">
        <ele>800.2</ele>
        <time>2022-07-18T07:59:52Z</time>
      </trkpt>
      <trkpt lat="44.31546" lon="5.22133">
        <ele>800.4</ele>
        <time>2022-07-18T07:59:53Z</time>
      </trkpt>
      <trkpt lat="44.31546" lon="5.22134">
        <ele>800.6</ele>
        <time>2022-07-18T07:59:54Z</time>
      </trkpt>
      <trkpt lat="44.31547" lon="5.22136">
        <ele>800.7</ele>
        <time>2022-07-18T07:59:55Z</time>
      </trkpt>
      <trkpt lat="44.31547" lon="5.22137">
        <ele>800.9</ele>
        <time>2022-07-18T07:59:56Z</time>
      </trkpt>
      <trkpt lat="44.31547" lon="5.22139">
        <ele>801</ele>
        <time>2022-07-18T07:59:57Z</time>
      </trkpt>
      <trkpt lat="44.31547" lon="5.22141">
        <ele>801.2</ele>
        <time>2022-07-18T07:59:58Z</time>
      </trkpt>
      <trkpt lat="44.31547" lon="5.22142">
        <ele>801.3</ele>
        <time>2022-07-18T07:59:59Z</time>
      </trkpt>
      <trkpt lat="44.31547" lon="5.22143">
        <ele>801.4</ele>
        <time>2022-07-18T08:00:00Z</time>
      </trkpt>
      <trkpt lat="44.31547" lon="5.22144">
        <ele>801.5</ele>
        <time>2022-07-18T08:00:01Z</time>
      </trkpt>
      <trkpt lat="44.31547" lon="5.22146">
        <ele>801.6</ele>
        <time>2022-07-18T08:00:02Z</time>
      </trkpt>
      <trkpt lat="44.31547" lon="5.22148">
        <ele>801.8</ele>
        <time>2022-07-18T08:00:03Z</time>
      </trkpt>
      <trkpt lat="44.31548" lon="5.22149">
        <ele>801.9</ele>
        <time>2022-07-18T08:00:04Z</time>
      </trkpt>
      <trkpt lat="44.31548" lon="5.2215">
        <ele>802</ele>
        <time>2022-07-18T08:00:05Z</time>
      </trkpt>
      <trkpt lat="44.31548" lon="5.22151">
        <ele>802.1</ele>
        <time>2022-07-18T08:00:06Z</time>
      </trkpt>
      <trkpt lat="44.31548" lon="5.22152">
        <ele>802.2</ele>
        <time>2022-07-18T08:00:07Z</time>
      </trkpt>
      <trkpt lat="44.31548" lon="5.22153">
        <ele>802.3</ele>
        <time>2022-07-18T08:00:08Z</time>
      </trkpt>
      <trkpt lat="44.31549" lon="5.22155">
        <ele>802.5</ele>
        <time>2022-07-18T08:00:09Z</time>
      </trkpt>
      <trkpt lat="44.31549" lon="5.22156">
        <ele>802.7</ele>
        <time>2022-07-18T08:00:10Z</time>
      </trkpt>
      <trkpt lat="44.3155" lon="5.22158">
        <ele>802.8</ele>
        <time>2022-07-18T08:00:11Z</time>
      </trkpt>
      <trkpt lat="44.3155" lon="5.22159">
        <ele>802.9</ele>
        <time>2022-07-18T08:00:12Z</time>
      </trkpt>
      <trkpt lat="44.3155" lon="5.2216">
        <ele>803</ele>
        <time>2022-07-18T08:00:13Z</time>
      </trkpt>
      <trkpt lat="44.3155" lon="5.22162">
        <ele>803.2</ele>
        <time>2022-07-18T08:00:14Z</time>
      </trkpt>
      <trkpt lat="44.3155" lon="5.22163">
        <ele>803.3</ele>
        <time>2022-07-18T08:00:15Z</time>
      </trkpt>
      <trkpt lat="44.3155" lon="5.22165">
        <ele>803.5</ele>
        <time>2022-07-18T08:00:16Z</time>
      </trkpt>
      <trkpt lat="44.3155" lon="5.22166">
        <ele>803.6</ele>
        <time>2022-07-18T08:00:17Z</time>
      </trkpt>
      <trkpt lat="44.31551" lon="5.22168">
        <ele>803.8</ele>
        <time>2022-07-18T08:00:18Z</time>
      </trkpt>
      <trkpt lat="44.31551" lon="5.22168">
        <ele>803.8</ele>
        <time>2022-07-18T08:00:19Z</time>
      </trkpt>
      <trkpt lat="44.31551" lon="5.22168">
        <ele>803.8</ele>
        <time>2022-07-18T08:00:20Z</time>
      </trkpt>
      <trkpt lat="44.31551" lon="5.22168">
        <ele>803.8</ele>
        <time>2022-07-18T08:00:21Z</time>
      </trkpt>
      <trkpt lat="44.31551" lon="5.22168">
        <ele>803.8</ele>
        <time>2022-07-18T08:00:22Z</time>
      </trkpt>
      <trkpt lat="44.31551" lon="5.22168">
        <ele>803.8</ele>
        <time>2022-07-18T08:00:23Z</time>
      </trkpt>
      <trkpt lat="44.31551" lon="5.22169">
        <ele>804</ele>
        <time>2022-07-18T08:00:24Z</time>
      </trkpt>
      <trkpt lat="44.3155" lon="5.22171">
        <ele>804.1</ele>
        <time>2022-07-18T08:00:25Z</time>
      </trkpt>
      <trkpt lat="44.3155" lon="5.22173">
        <ele>804.4</ele>
        <time>2022-07-18T08:00:26Z</time>
      </trkpt>
      <trkpt lat="44.3155" lon="5.22177">
        <ele>804.8</ele>
        <time>2022-07-18T08:00:27Z</time>
      </trkpt>
      <trkpt lat="44.3155" lon="5.22179">
        <ele>804.9</ele>
        <time>2022-07-18T08:00:28Z</time>
      </trkpt>
      <trkpt lat="44.3155" lon="5.22182">
        <ele>805.3</ele>
        <time>2022-07-18T08:00:29Z</time>
      </trkpt>
      <trkpt lat="44.3155" lon="5.22184">
        <ele>805.4</ele>
        <time>2022-07-18T08:00:30Z</time>
      </trkpt>
      <trkpt lat="44.31549" lon="5.22186">
        <ele>805.6</ele>
        <time>2022-07-18T08:00:31Z</time>
      </trkpt>
      <trkpt lat="44.31549" lon="5.22188">
        <ele>805.8</ele>
        <time>2022-07-18T08:00:32Z</time>
      </trkpt>
      <trkpt lat="44.31549" lon="5.22189">
        <ele>806</ele>
        <time>2022-07-18T08:00:33Z</time>
      </trkpt>
      <trkpt lat="44.31549" lon="5.2219">
        <ele>806.1</ele>
        <time>2022-07-18T08:00:34Z</time>
      </trkpt>
      <trkpt lat="44.31549" lon="5.22191">
        <ele>806.2</ele>
        <time>2022-07-18T08:00:35Z</time>
      </trkpt>
      <trkpt lat="44.31548" lon="5.22193">
        <ele>806.4</ele>
        <time>2022-07-18T08:00:36Z</time>
      </trkpt>
      <trkpt lat="44.31548" lon="5.22195">
        <ele>806.6</ele>
        <time>2022-07-18T08:00:37Z</time>
      </trkpt>
      <trkpt lat="44.31547" lon="5.22196">
        <ele>806.8</ele>
        <time>2022-07-18T08:00:38Z</time>
      </trkpt>
      <trkpt lat="44.31547" lon="5.22198">
        <ele>807</ele>
        <time>2022-07-18T08:00:39Z</time>
      </trkpt>
      <trkpt lat="44.31547" lon="5.222">
        <ele>807.2</ele>
        <time>2022-07-18T08:00:40Z</time>
      </trkpt>
      <trkpt lat="44.31547" lon="5.22203">
        <ele>807.5</ele>
        <time>2022-07-18T08:00:41Z</time>
      </trkpt>
      <trkpt lat="44.31547" lon="5.22203">
        <ele>807.6</ele>
        <time>2022-07-18T08:00:42Z</time>
      </trkpt>
      <trkpt lat="44.31548" lon="5.22204">
        <ele>807.7</ele>
        <time>2022-07-18T08:00:43Z</time>
      </trkpt>
      <trkpt lat="44.31548" lon="5.22205">
        <ele>807.8</ele>
        <time>2022-07-18T08:00:44Z</time>
      </trkpt>
      <trkpt lat="44.31548" lon="5.22205">
        <ele>807.8</ele>
        <time>2022-07-18T08:00:45Z</time>
      </trkpt>
      <trkpt lat="44.31548" lon="5.22206">
        <ele>807.9</ele>
        <time>2022-07-18T08:00:46Z</time>
      </trkpt>
      <trkpt lat="44.31548" lon="5.22207">
        <ele>808.1</ele>
        <time>2022-07-18T08:00:47Z</time>
      </trkpt>
      <trkpt lat="44.31548" lon="5.22208">
        <ele>808.2</ele>
        <time>2022-07-18T08:00:48Z</time>
      </trkpt>
      <trkpt lat="44.31548" lon="5.2221">
        <ele>808.3</ele>
        <time>2022-07-18T08:00:49Z</time>
      </trkpt>
      <trkpt lat="44.31548" lon="5.22211">
        <ele>808.5</ele>
        <time>2022-07-18T08:00:50Z</time>
      </trkpt>
      <trkpt lat="44.31547" lon="5.22212">
        <ele>808.7</ele>
        <time>2022-07-18T08:00:51Z</time>
      </trkpt>
      <trkpt lat="44.31547" lon="5.22214">
        <ele>808.9</ele>
        <time>2022-07-18T08:00:52Z</time>
      </trkpt>
      <trkpt lat="44.31546" lon="5.22216">
        <ele>809.1</ele>
        <time>2022-07-18T08:00:53Z</time>
      </trkpt>
      <trkpt lat="44.31546" lon="5.22217">
        <ele>809.3</ele>
        <time>2022-07-18T08:00:54Z</time>
      </trkpt>
      <trkpt lat="44.31546" lon="5.22219">
        <ele>809.4</ele>
        <time>2022-07-18T08:00:55Z</time>
      </trkpt>
      <trkpt lat="44.31545" lon="5.2222">
        <ele>809.6</ele>
        <time>2022-07-18T08:00:56Z</time>
      </trkpt>
      <trkpt lat="44.31545" lon="5.22221">
        <ele>809.7</ele>
        <time>2022-07-18T08:00:57Z</time>
      </trkpt>
      <trkpt lat="44.31545" lon="5.22222">
        <ele>809.9</ele>
        <time>2022-07-18T08:00:58Z</time>
      </trkpt>
      <trkpt lat="44.31545" lon="5.22222">
        <ele>809.9</ele>
        <time>2022-07-18T08:00:59Z</time>
      </trkpt>
      <trkpt lat="44.31545" lon="5.22222">
        <ele>809.9</ele>
        <time>2022-07-18T08:01:00Z</time>
      </trkpt>
      <trkpt lat="44.31545" lon="5.22222">
        <ele>809.9</ele>
        <time>2022-07-18T08:01:01Z</time>
      </trkpt>
      <trkpt lat="44.31545" lon="5.22222">
        <ele>809.9</ele>
        <time>2022-07-18T08:01:02Z</time>
      </trkpt>
      <trkpt lat="44.31545" lon="5.22222">
        <ele>809.9</ele>
        <time>2022-07-18T08:01:03Z</time>
      </trkpt>
      <trkpt lat="44.31545" lon="5.22222">
        <ele>809.9</ele>
        <time>2022-07-18T08:01:04Z</time>
      </trkpt>
      <trkpt lat="44.31545" lon="5.22222">
        <ele>809.9</ele>
        <time>2022-07-18T08:01:05Z</time>
      </trkpt>
      <trkpt lat="44.31547" lon="5.22242">
        <ele>812.2</ele>
        <time>2022-07-18T08:02:32Z</time>
      </trkpt>
      <trkpt lat="44.31546" lon="5.22244">
        <ele>812.5</ele>
        <time>2022-07-18T08:02:33Z</time>
      </trkpt>
      <trkpt lat="44.31546" lon="5.22246">
        <ele>812.7</ele>
        <time>2022-07-18T08:02:34Z</time>
      </trkpt>
      <trkpt lat="44.31546" lon="5.22248">
        <ele>813</ele>
        <time>2022-07-18T08:02:35Z</time>
      </trkpt>
      <trkpt lat="44.31546" lon="5.2225">
        <ele>813.1</ele>
        <time>2022-07-18T08:02:36Z</time>
      </trkpt>
      <trkpt lat="44.31546" lon="5.22251">
        <ele>813.3</ele>
        <time>2022-07-18T08:02:37Z</time>
      </trkpt>
      <trkpt lat="44.31546" lon="5.22252">
        <ele>813.4</ele>
        <time>2022-07-18T08:02:38Z</time>
      </trkpt>
      <trkpt lat="44.31545" lon="5.22253">
        <ele>813.5</ele>
        <time>2022-07-18T08:02:39Z</time>
      </trkpt>
      <trkpt lat="44.31545" lon="5.22253">
        <ele>813.6</ele>
        <time>2022-07-18T08:02:40Z</time>
      </trkpt>
      <trkpt lat="44.31545" lon="5.22254">
        <ele>813.7</ele>
        <time>2022-07-18T08:02:41Z</time>
      </trkpt>
      <trkpt lat="44.31545" lon="5.22254">
        <ele>813.7</ele>
        <time>2022-07-18T08:02:42Z</time>
      </trkpt>
      <trkpt lat="44.31545" lon="5.22255">
        <ele>813.8</ele>
        <time>2022-07-18T08:02:43Z</time>
      </trkpt>
      <trkpt lat="44.31545" lon="5.22255">
        <ele>813.8</ele>
        <time>2022-07-18T08:02:44Z</time>
      </trkpt>
      <trkpt lat="44.31545" lon="5.22255">
        <ele>813.8</ele>
        <time>2022-07-18T08:02:45Z</time>
      </trkpt>
      <trkpt lat="44.31545" lon="5.22255">
        <ele>813.8</ele>
        <time>2022-07-18T08:02:46Z</time>
      </trkpt>
      <trkpt lat="44.31546" lon="5.22255">
        <ele>814</ele>
        <time>2022-07-18T08:02:47Z</time>
      </trkpt>
      <trkpt lat="44.31546" lon="5.22255">
        <ele>814.1</ele>
        <time>2022-07-18T08:02:48Z</time>
      </trkpt>
      <trkpt lat="44.31546" lon="5.22254">
        <ele>814.2</ele>
        <time>2022-07-18T08:02:49Z</time>
      </trkpt>
      <trkpt lat="44.31546" lon="5.22253">
        <ele>814.2</ele>
        <time>2022-07-18T08:02:50Z</time>
      </trkpt>
      <trkpt lat="44.31545" lon="5.22252">
        <ele>814.4</ele>
        <time>2022-07-18T08:02:51Z</time>
      </trkpt>
      <trkpt lat="44.31545" lon="5.22252">
        <ele>814.5</ele>
        <time>2022-07-18T08:02:52Z</time>
      </trkpt>
      <trkpt lat="44.31545" lon="5.22251">
        <ele>814.5</ele>
        <time>2022-07-18T08:02:53Z</time>
      </trkpt>
      <trkpt lat="44.31545" lon="5.2225">
        <ele>814.6</ele>
        <time>2022-07-18T08:02:54Z</time>
      </trkpt>
      <trkpt lat="44.31545" lon="5.2225">
        <ele>814.7</ele>
        <time>2022-07-18T08:02:55Z</time>
      </trkpt>
      <trkpt lat="44.31545" lon="5.22249">
        <ele>814.7</ele>
        <time>2022-07-18T08:02:56Z</time>
      </trkpt>
      <trkpt lat="44.31545" lon="5.22248">
        <ele>814.8</ele>
        <time>2022-07-18T08:02:57Z</time>
      </trkpt>
      <trkpt lat="44.31545" lon="5.22246">
        <ele>815</ele>
        <time>2022-07-18T08:02:58Z</time>
      </trkpt>
      <trkpt lat="44.31546" lon="5.22245">
        <ele>815.2</ele>
        <time>2022-07-18T08:02:59Z</time>
      </trkpt>
      <trkpt lat="44.31546" lon="5.22244">
        <ele>815.3</ele>
        <time>2022-07-18T08:03:00Z</time>
      </trkpt>
      <trkpt lat="44.31547" lon="5.22243">
        <ele>815.4</ele>
        <time>2022-07-18T08:03:01Z</time>
      </trkpt>
      <trkpt lat="44.31547" lon="5.22242">
        <ele>815.5</ele>
        <time>2022-07-18T08:03:02Z</time>
      </trkpt>
      <trkpt lat="44.31548" lon="5.22241">
        <ele>816.1</ele>
        <time>2022-07-18T08:03:03Z</time>
      </trkpt>
      <trkpt lat="44.31549" lon="5.2224">
        <ele>816.2</ele>
        <time>2022-07-18T08:03:04Z</time>
      </trkpt>
      <trkpt lat="44.31548" lon="5.22239">
        <ele>816.3</ele>
        <time>2022-07-18T08:03:05Z</time>
      </trkpt>
      <trkpt lat="44.31549" lon="5.22238">
        <ele>816.3</ele>
        <time>2022-07-18T08:03:06Z</time>
      </trkpt>
      <trkpt lat="44.31549" lon="5.22236">
        <ele>816.4</ele>
        <time>2022-07-18T08:03:07Z</time>
      </trkpt>
      <trkpt lat="44.31549" lon="5.22235">
        <ele>816.5</ele>
        <time>2022-07-18T08:03:08Z</time>
      </trkpt>
      <trkpt lat="44.31549" lon="5.22234">
        <ele>816.6</ele>
        <time>2022-07-18T08:03:09Z</time>
      </trkpt>
      <trkpt lat="44.31548" lon="5.22233">
        <ele>816.7</ele>
        <time>2022-07-18T08:03:10Z</time>
      </trkpt>
      <trkpt lat="44.31547" lon="5.22232">
        <ele>816.8</ele>
        <time>2022-07-18T08:03:11Z</time>
      </trkpt>
      <trkpt lat="44.31546" lon="5.22231">
        <ele>816.8</ele>
        <time>2022-07-18T08:03:12Z</time>
      </trkpt>
      <trkpt lat="44.31545" lon="5.2223">
        <ele>816.9</ele>
        <time>2022-07-18T08:03:13Z</time>
      </trkpt>
      <trkpt lat="44.31544" lon="5.22229">
        <ele>817.1</ele>
        <time>2022-07-18T08:03:14Z</time>
      </trkpt>
      <trkpt lat="44.31542" lon="5.22228">
        <ele>817.2</ele>
        <time>2022-07-18T08:03:15Z</time>
      </trkpt>
      <trkpt lat="44.3154" lon="5.22228">
        <ele>817.4</ele>
        <time>2022-07-18T08:03:16Z</time>
      </trkpt>
      <trkpt lat="44.31539" lon="5.22227">
        <ele>817.5</ele>
        <time>2022-07-18T08:03:17Z</time>
      </trkpt>
      <trkpt lat="44.31536" lon="5.22226">
        <ele>817.8</ele>
        <time>2022-07-18T08:03:18Z</time>
      </trkpt>
      <trkpt lat="44.31535" lon="5.22226">
        <ele>817.8</ele>
        <time>2022-07-18T08:03:19Z</time>
      </trkpt>
      <trkpt lat="44.31533" lon="5.22225">
        <ele>818</ele>
        <time>2022-07-18T08:03:20Z</time>
      </trkpt>
      <trkpt lat="44.31532" lon="5.22225">
        <ele>818.1</ele>
        <time>2022-07-18T08:03:21Z</time>
      </trkpt>
      <trkpt lat="44.31531" lon="5.22224">
        <ele>818.1</ele>
        <time>2022-07-18T08:03:22Z</time>
      </trkpt>
      <trkpt lat="44.31531" lon="5.22224">
        <ele>818.2</ele>
        <time>2022-07-18T08:03:23Z</time>
      </trkpt>
      <trkpt lat="44.31529" lon="5.22224">
        <ele>818.3</ele>
        <time>2022-07-18T08:03:24Z</time>
      </trkpt>
      <trkpt lat="44.31526" lon="5.22225">
        <ele>818.6</ele>
        <time>2022-07-18T08:03:25Z</time>
      </trkpt>
      <trkpt lat="44.31525" lon="5.22225">
        <ele>818.7</ele>
        <time>2022-07-18T08:03:26Z</time>
      </trkpt>
      <trkpt lat="44.31522" lon="5.22225">
        <ele>818.9</ele>
        <time>2022-07-18T08:03:27Z</time>
      </trkpt>
      <trkpt lat="44.31521" lon="5.22225">
        <ele>819</ele>
        <time>2022-07-18T08:03:28Z</time>
      </trkpt>
      <trkpt lat="44.31518" lon="5.22226">
        <ele>819.2</ele>
        <time>2022-07-18T08:03:29Z</time>
      </trkpt>
      <trkpt lat="44.31518" lon="5.22226">
        <ele>819.3</ele>
        <time>2022-07-18T08:03:30Z</time>
      </trkpt>
      <trkpt lat="44.31516" lon="5.22227">
        <ele>819.4</ele>
        <time>2022-07-18T08:03:31Z</time>
      </trkpt>
      <trkpt lat="44.31515" lon="5.22228">
        <ele>819.5</ele>
        <time>2022-07-18T08:03:32Z</time>
      </trkpt>
      <trkpt lat="44.31513" lon="5.22229">
        <ele>819.7</ele>
        <time>2022-07-18T08:03:33Z</time>
      </trkpt>
      <trkpt lat="44.31512" lon="5.22229">
        <ele>819.8</ele>
        <time>2022-07-18T08:03:34Z</time>
      </trkpt>
      <trkpt lat="44.3151" lon="5.2223">
        <ele>819.9</ele>
        <time>2022-07-18T08:03:35Z</time>
      </trkpt>
      <trkpt lat="44.31509" lon="5.22231">
        <ele>820</ele>
        <time>2022-07-18T08:03:36Z</time>
      </trkpt>
      <trkpt lat="44.31508" lon="5.22232">
        <ele>820.1</ele>
        <time>2022-07-18T08:03:37Z</time>
      </trkpt>
      <trkpt lat="44.31507" lon="5.22232">
        <ele>820.2</ele>
        <time>2022-07-18T08:03:38Z</time>
      </trkpt>
      <trkpt lat="44.31506" lon="5.22233">
        <ele>820.3</ele>
        <time>2022-07-18T08:03:39Z</time>
      </trkpt>
      <trkpt lat="44.31504" lon="5.22234">
        <ele>820.5</ele>
        <time>2022-07-18T08:03:40Z</time>
      </trkpt>
      <trkpt lat="44.31503" lon="5.22235">
        <ele>820.6</ele>
        <time>2022-07-18T08:03:41Z</time>
      </trkpt>
      <trkpt lat="44.31501" lon="5.22235">
        <ele>820.8</ele>
        <time>2022-07-18T08:03:42Z</time>
      </trkpt>
      <trkpt lat="44.315" lon="5.22236">
        <ele>820.9</ele>
        <time>2022-07-18T08:03:43Z</time>
      </trkpt>
      <trkpt lat="44.31498" lon="5.22236">
        <ele>821</ele>
        <time>2022-07-18T08:03:44Z</time>
      </trkpt>
      <trkpt lat="44.31496" lon="5.22237">
        <ele>821.2</ele>
        <time>2022-07-18T08:03:45Z</time>
      </trkpt>
      <trkpt lat="44.31494" lon="5.22238">
        <ele>821.4</ele>
        <time>2022-07-18T08:03:46Z</time>
      </trkpt>
      <trkpt lat="44.31493" lon="5.22238">
        <ele>821.5</ele>
        <time>2022-07-18T08:03:47Z</time>
      </trkpt>
      <trkpt lat="44.31491" lon="5.22238">
        <ele>821.6</ele>
        <time>2022-07-18T08:03:48Z</time>
      </trkpt>
      <trkpt lat="44.3149" lon="5.22239">
        <ele>821.7</ele>
        <time>2022-07-18T08:03:49Z</time>
      </trkpt>
      <trkpt lat="44.31489" lon="5.22241">
        <ele>821.8</ele>
        <time>2022-07-18T08:03:50Z</time>
      </trkpt>
      <trkpt lat="44.31488" lon="5.22242">
        <ele>821.9</ele>
        <time>2022-07-18T08:03:51Z</time>
      </trkpt>
      <trkpt lat="44.31487" lon="5.22243">
        <ele>822</ele>
        <time>2022-07-18T08:03:52Z</time>
      </trkpt>
      <trkpt lat="44.31486" lon="5.22243">
        <ele>822.1</ele>
        <time>2022-07-18T08:03:53Z</time>
      </trkpt>
      <trkpt lat="44.31485" lon="5.22243">
        <ele>822.2</ele>
        <time>2022-07-18T08:03:54Z</time>
      </trkpt>
      <trkpt lat="44.31484" lon="5.22243">
        <ele>822.2</ele>
        <time>2022-07-18T08:03:55Z</time>
      </trkpt>
      <trkpt lat="44.31484" lon="5.22242">
        <ele>822.3</ele>
        <time>2022-07-18T08:03:56Z</time>
      </trkpt>
      <trkpt lat="44.31482" lon="5.22242">
        <ele>822.4</ele>
        <time>2022-07-18T08:03:57Z</time>
      </trkpt>
      <trkpt lat="44.31481" lon="5.22242">
        <ele>822.5</ele>
        <time>2022-07-18T08:03:58Z</time>
      </trkpt>
      <trkpt lat="44.3148" lon="5.22242">
        <ele>822.7</ele>
        <time>2022-07-18T08:03:59Z</time>
      </trkpt>
      <trkpt lat="44.31479" lon="5.22244">
        <ele>822.8</ele>
        <time>2022-07-18T08:04:00Z</time>
      </trkpt>
      <trkpt lat="44.31478" lon="5.22246">
        <ele>822.9</ele>
        <time>2022-07-18T08:04:01Z</time>
      </trkpt>
      <trkpt lat="44.31478" lon="5.22248">
        <ele>823</ele>
        <time>2022-07-18T08:04:02Z</time>
      </trkpt>
      <trkpt lat="44.31477" lon="5.22248">
        <ele>823.1</ele>
        <time>2022-07-18T08:04:03Z</time>
      </trkpt>
      <trkpt lat="44.31476" lon="5.22249">
        <ele>823.2</ele>
        <time>2022-07-18T08:04:04Z</time>
      </trkpt>
      <trkpt lat="44.31475" lon="5.22251">
        <ele>823.3</ele>
        <time>2022-07-18T08:04:05Z</time>
      </trkpt>
      <trkpt lat="44.31474" lon="5.22252">
        <ele>823.4</ele>
        <time>2022-07-18T08:04:06Z</time>
      </trkpt>
      <trkpt lat="44.31473" lon="5.22252">
        <ele>823.5</ele>
        <time>2022-07-18T08:04:07Z</time>
      </trkpt>
      <trkpt lat="44.31472" lon="5.22253">
        <ele>823.6</ele>
        <time>2022-07-18T08:04:08Z</time>
      </trkpt>
      <trkpt lat="44.31472" lon="5.22254">
        <ele>823.6</ele>
        <time>2022-07-18T08:04:09Z</time>
      </trkpt>
      <trkpt lat="44.31471" lon="5.22254">
        <ele>823.7</ele>
        <time>2022-07-18T08:04:10Z</time>
      </trkpt>
      <trkpt lat="44.31471" lon="5.22255">
        <ele>823.7</ele>
        <time>2022-07-18T08:04:11Z</time>
      </trkpt>
      <trkpt lat="44.3147" lon="5.22255">
        <ele>823.8</ele>
        <time>2022-07-18T08:04:12Z</time>
      </trkpt>
      <trkpt lat="44.31469" lon="5.22256">
        <ele>823.9</ele>
        <time>2022-07-18T08:04:13Z</time>
      </trkpt>
      <trkpt lat="44.31468" lon="5.22256">
        <ele>823.9</ele>
        <time>2022-07-18T08:04:14Z</time>
      </trkpt>
      <trkpt lat="44.31467" lon="5.22257">
        <ele>824</ele>
        <time>2022-07-18T08:04:15Z</time>
      </trkpt>
      <trkpt lat="44.31467" lon="5.22257">
        <ele>824.1</ele>
        <time>2022-07-18T08:04:16Z</time>
      </trkpt>
      <trkpt lat="44.31466" lon="5.22257">
        <ele>824.2</ele>
        <time>2022-07-18T08:04:17Z</time>
      </trkpt>
      <trkpt lat="44.31465" lon="5.22257">
        <ele>824.3</ele>
        <time>2022-07-18T08:04:18Z</time>
      </trkpt>
      <trkpt lat="44.31463" lon="5.22256">
        <ele>824.4</ele>
        <time>2022-07-18T08:04:19Z</time>
      </trkpt>
      <trkpt lat="44.31462" lon="5.22256">
        <ele>824.5</ele>
        <time>2022-07-18T08:04:20Z</time>
      </trkpt>
      <trkpt lat="44.31461" lon="5.22256">
        <ele>824.6</ele>
        <time>2022-07-18T08:04:21Z</time>
      </trkpt>
      <trkpt lat="44.31459" lon="5.22256">
        <ele>824.7</ele>
        <time>2022-07-18T08:04:22Z</time>
      </trkpt>
      <trkpt lat="44.31459" lon="5.22256">
        <ele>824.8</ele>
        <time>2022-07-18T08:04:23Z</time>
      </trkpt>
      <trkpt lat="44.31458" lon="5.22256">
        <ele>824.8</ele>
        <time>2022-07-18T08:04:24Z</time>
      </trkpt>
      <trkpt lat="44.31458" lon="5.22255">
        <ele>824.9</ele>
        <time>2022-07-18T08:04:25Z</time>
      </trkpt>
      <trkpt lat="44.31456" lon="5.22255">
        <ele>825</ele>
        <time>2022-07-18T08:04:26Z</time>
      </trkpt>
      <trkpt lat="44.31455" lon="5.22255">
        <ele>825.1</ele>
        <time>2022-07-18T08:04:27Z</time>
      </trkpt>
      <trkpt lat="44.31453" lon="5.22255">
        <ele>825.2</ele>
        <time>2022-07-18T08:04:28Z</time>
      </trkpt>
      <trkpt lat="44.31452" lon="5.22256">
        <ele>825.3</ele>
        <time>2022-07-18T08:04:29Z</time>
      </trkpt>
      <trkpt lat="44.31451" lon="5.22256">
        <ele>825.4</ele>
        <time>2022-07-18T08:04:30Z</time>
      </trkpt>
      <trkpt lat="44.3145" lon="5.22256">
        <ele>825.5</ele>
        <time>2022-07-18T08:04:31Z</time>
      </trkpt>
      <trkpt lat="44.31449" lon="5.22256">
        <ele>825.6</ele>
        <time>2022-07-18T08:04:32Z</time>
      </trkpt>
      <trkpt lat="44.31449" lon="5.22257">
        <ele>825.6</ele>
        <time>2022-07-18T08:04:33Z</time>
      </trkpt>
      <trkpt lat="44.31448" lon="5.22256">
        <ele>825.7</ele>
        <time>2022-07-18T08:04:34Z</time>
      </trkpt>
      <trkpt lat="44.31447" lon="5.22254">
        <ele>825.8</ele>
        <time>2022-07-18T08:04:35Z</time>
      </trkpt>
      <trkpt lat="44.31446" lon="5.22253">
        <ele>825.9</ele>
        <time>2022-07-18T08:04:36Z</time>
      </trkpt>
      <trkpt lat="44.31445" lon="5.22252">
        <ele>826</ele>
        <time>2022-07-18T08:04:37Z</time>
      </trkpt>
      <trkpt lat="44.31441" lon="5.22253">
        <ele>826.3</ele>
        <time>2022-07-18T08:04:38Z</time>
      </trkpt>
      <trkpt lat="44.3144" lon="5.22253">
        <ele>826.4</ele>
        <time>2022-07-18T08:04:39Z</time>
      </trkpt>
      <trkpt lat="44.31437" lon="5.22253">
        <ele>826.7</ele>
        <time>2022-07-18T08:04:40Z</time>
      </trkpt>
      <trkpt lat="44.31435" lon="5.22254">
        <ele>826.8</ele>
        <time>2022-07-18T08:04:41Z</time>
      </trkpt>
      <trkpt lat="44.31434" lon="5.22254">
        <ele>826.9</ele>
        <time>2022-07-18T08:04:42Z</time>
      </trkpt>
      <trkpt lat="44.31432" lon="5.22253">
        <ele>827.1</ele>
        <time>2022-07-18T08:04:43Z</time>
      </trkpt>
      <trkpt lat="44.31431" lon="5.22253">
        <ele>827.2</ele>
        <time>2022-07-18T08:04:44Z</time>
      </trkpt>
      <trkpt lat="44.3143" lon="5.22252">
        <ele>827.2</ele>
        <time>2022-07-18T08:04:45Z</time>
      </trkpt>
      <trkpt lat="44.31429" lon="5.22252">
        <ele>827.3</ele>
        <time>2022-07-18T08:04:46Z</time>
      </trkpt>
      <trkpt lat="44.31428" lon="5.22252">
        <ele>827.4</ele>
        <time>2022-07-18T08:04:47Z</time>
      </trkpt>
      <trkpt lat="44.31427" lon="5.22252">
        <ele>827.5</ele>
        <time>2022-07-18T08:04:48Z</time>
      </trkpt>
      <trkpt lat="44.31426" lon="5.22252">
        <ele>827.6</ele>
        <time>2022-07-18T08:04:49Z</time>
      </trkpt>
      <trkpt lat="44.31424" lon="5.22252">
        <ele>827.7</ele>
        <time>2022-07-18T08:04:50Z</time>
      </trkpt>
      <trkpt lat="44.31422" lon="5.22252">
        <ele>827.9</ele>
        <time>2022-07-18T08:04:51Z</time>
      </trkpt>
      <trkpt lat="44.31418" lon="5.22252">
        <ele>828.2</ele>
        <time>2022-07-18T08:04:52Z</time>
      </trkpt>
      <trkpt lat="44.31417" lon="5.22252">
        <ele>828.3</ele>
        <time>2022-07-18T08:04:53Z</time>
      </trkpt>
      <trkpt lat="44.31414" lon="5.22252">
        <ele>828.6</ele>
        <time>2022-07-18T08:04:54Z</time>
      </trkpt>
      <trkpt lat="44.31411" lon="5.22253">
        <ele>828.8</ele>
        <time>2022-07-18T08:04:55Z</time>
      </trkpt>
      <trkpt lat="44.3141" lon="5.22253">
        <ele>828.9</ele>
        <time>2022-07-18T08:04:56Z</time>
      </trkpt>
      <trkpt lat="44.31408" lon="5.22252">
        <ele>829</ele>
        <time>2022-07-18T08:04:57Z</time>
      </trkpt>
      <trkpt lat="44.31406" lon="5.22252">
        <ele>829.2</ele>
        <time>2022-07-18T08:04:58Z</time>
      </trkpt>
      <trkpt lat="44.31405" lon="5.22251">
        <ele>829.3</ele>
        <time>2022-07-18T08:04:59Z</time>
      </trkpt>
      <trkpt lat="44.31405" lon="5.22251">
        <ele>829.3</ele>
        <time>2022-07-18T08:05:00Z</time>
      </trkpt>
      <trkpt lat="44.31404" lon="5.22251">
        <ele>829.4</ele>
        <time>2022-07-18T08:05:01Z</time>
      </trkpt>
      <trkpt lat="44.31404" lon="5.22251">
        <ele>829.4</ele>
        <time>2022-07-18T08:05:02Z</time>
      </trkpt>
      <trkpt lat="44.31403" lon="5.22251">
        <ele>829.4</ele>
        <time>2022-07-18T08:05:03Z</time>
      </trkpt>
      <trkpt lat="44.31403" lon="5.22251">
        <ele>829.5</ele>
        <time>2022-07-18T08:05:04Z</time>
      </trkpt>
      <trkpt lat="44.31402" lon="5.22251">
        <ele>829.5</ele>
        <time>2022-07-18T08:05:05Z</time>
      </trkpt>
      <trkpt lat="44.31402" lon="5.22252">
        <ele>829.6</ele>
        <time>2022-07-18T08:05:06Z</time>
      </trkpt>
      <trkpt lat="44.31402" lon="5.22252">
        <ele>829.6</ele>
        <time>2022-07-18T08:05:07Z</time>
      </trkpt>
      <trkpt lat="44.31401" lon="5.22252">
        <ele>829.6</ele>
        <time>2022-07-18T08:05:08Z</time>
      </trkpt>
      <trkpt lat="44.31401" lon="5.22252">
        <ele>829.7</ele>
        <time>2022-07-18T08:05:09Z</time>
      </trkpt>
      <trkpt lat="44.31399" lon="5.22252">
        <ele>829.8</ele>
        <time>2022-07-18T08:05:10Z</time>
      </trkpt>
      <trkpt lat="44.31397" lon="5.22251">
        <ele>830</ele>
        <time>2022-07-18T08:05:11Z</time>
      </trkpt>
      <trkpt lat="44.31396" lon="5.22251">
        <ele>830.1</ele>
        <time>2022-07-18T08:05:12Z</time>
      </trkpt>
      <trkpt lat="44.31395" lon="5.2225">
        <ele>830.2</ele>
        <time>2022-07-18T08:05:13Z</time>
      </trkpt>
      <trkpt lat="44.31394" lon="5.22249">
        <ele>830.3</ele>
        <time>2022-07-18T08:05:14Z</time>
      </trkpt>
      <trkpt lat="44.31392" lon="5.22248">
        <ele>830.4</ele>
        <time>2022-07-18T08:05:15Z</time>
      </trkpt>
      <trkpt lat="44.31391" lon="5.22247">
        <ele>830.5</ele>
        <time>2022-07-18T08:05:16Z</time>
      </trkpt>
      <trkpt lat="44.31389" lon="5.22246">
        <ele>830.7</ele>
        <time>2022-07-18T08:05:17Z</time>
      </trkpt>
      <trkpt lat="44.31388" lon="5.22245">
        <ele>830.8</ele>
        <time>2022-07-18T08:05:18Z</time>
      </trkpt>
      <trkpt lat="44.31385" lon="5.22244">
        <ele>831.1</ele>
        <time>2022-07-18T08:05:19Z</time>
      </trkpt>
      <trkpt lat="44.31384" lon="5.22243">
        <ele>831.2</ele>
        <time>2022-07-18T08:05:20Z</time>
      </trkpt>
      <trkpt lat="44.31381" lon="5.22242">
        <ele>831.4</ele>
        <time>2022-07-18T08:05:21Z</time>
      </trkpt>
      <trkpt lat="44.3138" lon="5.22242">
        <ele>831.5</ele>
        <time>2022-07-18T08:05:22Z</time>
      </trkpt>
      <trkpt lat="44.31377" lon="5.22242">
        <ele>831.8</ele>
        <time>2022-07-18T08:05:23Z</time>
      </trkpt>
      <trkpt lat="44.31373" lon="5.22243">
        <ele>832</ele>
        <time>2022-07-18T08:05:24Z</time>
      </trkpt>
      <trkpt lat="44.3137" lon="5.22243">
        <ele>832.3</ele>
        <time>2022-07-18T08:05:25Z</time>
      </trkpt>
      <trkpt lat="44.31367" lon="5.22243">
        <ele>832.5</ele>
        <time>2022-07-18T08:05:26Z</time>
      </trkpt>
      <trkpt lat="44.31364" lon="5.22243">
        <ele>832.8</ele>
        <time>2022-07-18T08:05:27Z</time>
      </trkpt>
      <trkpt lat="44.31363" lon="5.22243">
        <ele>832.9</ele>
        <time>2022-07-18T08:05:28Z</time>
      </trkpt>
      <trkpt lat="44.31362" lon="5.22243">
        <ele>833</ele>
        <time>2022-07-18T08:05:29Z</time>
      </trkpt>
      <trkpt lat="44.3136" lon="5.22244">
        <ele>833.1</ele>
        <time>2022-07-18T08:05:30Z</time>
      </trkpt>
      <trkpt lat="44.31356" lon="5.22244">
        <ele>833.5</ele>
        <time>2022-07-18T08:05:31Z</time>
      </trkpt>
      <trkpt lat="44.31355" lon="5.22244">
        <ele>833.6</ele>
        <time>2022-07-18T08:05:32Z</time>
      </trkpt>
      <trkpt lat="44.31352" lon="5.22244">
        <ele>833.8</ele>
        <time>2022-07-18T08:05:33Z</time>
      </trkpt>
      <trkpt lat="44.31351" lon="5.22244">
        <ele>833.9</ele>
        <time>2022-07-18T08:05:34Z</time>
      </trkpt>
      <trkpt lat="44.31348" lon="5.22244">
        <ele>834.1</ele>
        <time>2022-07-18T08:05:35Z</time>
      </trkpt>
      <trkpt lat="44.31346" lon="5.22244">
        <ele>834.2</ele>
        <time>2022-07-18T08:05:36Z</time>
      </trkpt>
      <trkpt lat="44.31343" lon="5.22245">
        <ele>834.5</ele>
        <time>2022-07-18T08:05:37Z</time>
      </trkpt>
      <trkpt lat="44.31342" lon="5.22245">
        <ele>834.6</ele>
        <time>2022-07-18T08:05:38Z</time>
      </trkpt>
      <trkpt lat="44.31339" lon="5.22246">
        <ele>834.9</ele>
        <time>2022-07-18T08:05:39Z</time>
      </trkpt>
      <trkpt lat="44.31335" lon="5.22247">
        <ele>835.2</ele>
        <time>2022-07-18T08:05:40Z</time>
      </trkpt>
      <trkpt lat="44.31334" lon="5.22247">
        <ele>835.3</ele>
        <time>2022-07-18T08:05:41Z</time>
      </trkpt>
      <trkpt lat="44.3133" lon="5.22247">
        <ele>835.6</ele>
        <time>2022-07-18T08:05:42Z</time>
      </trkpt>
      <trkpt lat="44.31329" lon="5.22247">
        <ele>835.7</ele>
        <time>2022-07-18T08:05:43Z</time>
      </trkpt>
      <trkpt lat="44.31325" lon="5.22248">
        <ele>836</ele>
        <time>2022-07-18T08:05:44Z</time>
      </trkpt>
      <trkpt lat="44.31323" lon="5.22249">
        <ele>836.2</ele>
        <time>2022-07-18T08:05:45Z</time>
      </trkpt>
      <trkpt lat="44.31322" lon="5.22249">
        <ele>836.3</ele>
        <time>2022-07-18T08:05:46Z</time>
      </trkpt>
      <trkpt lat="44.31321" lon="5.2225">
        <ele>836.3</ele>
        <time>2022-07-18T08:05:47Z</time>
      </trkpt>
      <trkpt lat="44.31321" lon="5.2225">
        <ele>836.4</ele>
        <time>2022-07-18T08:05:48Z</time>
      </trkpt>
      <trkpt lat="44.3132" lon="5.2225">
        <ele>836.4</ele>
        <time>2022-07-18T08:05:49Z</time>
      </trkpt>
      <trkpt lat="44.3132" lon="5.2225">
        <ele>836.5</ele>
        <time>2022-07-18T08:05:50Z</time>
      </trkpt>
      <trkpt lat="44.31319" lon="5.2225">
        <ele>836.5</ele>
        <time>2022-07-18T08:05:51Z</time>
      </trkpt>
      <trkpt lat="44.31319" lon="5.22251">
        <ele>836.6</ele>
        <time>2022-07-18T08:05:52Z</time>
      </trkpt>
      <trkpt lat="44.31318" lon="5.22251">
        <ele>836.6</ele>
        <time>2022-07-18T08:05:53Z</time>
      </trkpt>
      <trkpt lat="44.31317" lon="5.22251">
        <ele>836.7</ele>
        <time>2022-07-18T08:05:54Z</time>
      </trkpt>
      <trkpt lat="44.31316" lon="5.22252">
        <ele>836.8</ele>
        <time>2022-07-18T08:05:55Z</time>
      </trkpt>
      <trkpt lat="44.31314" lon="5.22252">
        <ele>837</ele>
        <time>2022-07-18T08:05:56Z</time>
      </trkpt>
      <trkpt lat="44.31311" lon="5.22254">
        <ele>837.2</ele>
        <time>2022-07-18T08:05:57Z</time>
      </trkpt>
      <trkpt lat="44.3131" lon="5.22255">
        <ele>837.3</ele>
        <time>2022-07-18T08:05:58Z</time>
      </trkpt>
      <trkpt lat="44.31307" lon="5.22258">
        <ele>837.6</ele>
        <time>2022-07-18T08:05:59Z</time>
      </trkpt>
      <trkpt lat="44.31306" lon="5.22258">
        <ele>837.7</ele>
        <time>2022-07-18T08:06:00Z</time>
      </trkpt>
      <trkpt lat="44.31303" lon="5.22259">
        <ele>838</ele>
        <time>2022-07-18T08:06:01Z</time>
      </trkpt>
      <trkpt lat="44.31302" lon="5.2226">
        <ele>838.1</ele>
        <time>2022-07-18T08:06:02Z</time>
      </trkpt>
      <trkpt lat="44.31298" lon="5.22261">
        <ele>838.3</ele>
        <time>2022-07-18T08:06:03Z</time>
      </trkpt>
      <trkpt lat="44.31297" lon="5.22261">
        <ele>838.4</ele>
        <time>2022-07-18T08:06:04Z</time>
      </trkpt>
      <trkpt lat="44.31296" lon="5.22261">
        <ele>838.6</ele>
        <time>2022-07-18T08:06:05Z</time>
      </trkpt>
      <trkpt lat="44.31294" lon="5.22262">
        <ele>838.7</ele>
        <time>2022-07-18T08:06:06Z</time>
      </trkpt>
      <trkpt lat="44.31292" lon="5.22263">
        <ele>838.9</ele>
        <time>2022-07-18T08:06:07Z</time>
      </trkpt>
      <trkpt lat="44.31291" lon="5.22263">
        <ele>839</ele>
        <time>2022-07-18T08:06:08Z</time>
      </trkpt>
      <trkpt lat="44.31289" lon="5.22264">
        <ele>839.1</ele>
        <time>2022-07-18T08:06:09Z</time>
      </trkpt>
      <trkpt lat="44.31287" lon="5.22264">
        <ele>839.3</ele>
        <time>2022-07-18T08:06:10Z</time>
      </trkpt>
      <trkpt lat="44.31286" lon="5.22264">
        <ele>839.4</ele>
        <time>2022-07-18T08:06:11Z</time>
      </trkpt>
      <trkpt lat="44.31284" lon="5.22264">
        <ele>839.5</ele>
        <time>2022-07-18T08:06:12Z</time>
      </trkpt>
      <trkpt lat="44.31282" lon="5.22264">
        <ele>839.7</ele>
        <time>2022-07-18T08:06:13Z</time>
      </trkpt>
      <trkpt lat="44.31281" lon="5.22265">
        <ele>839.8</ele>
        <time>2022-07-18T08:06:14Z</time>
      </trkpt>
      <trkpt lat="44.3128" lon="5.22265">
        <ele>839.9</ele>
        <time>2022-07-18T08:06:15Z</time>
      </trkpt>
      <trkpt lat="44.31279" lon="5.22266">
        <ele>840</ele>
        <time>2022-07-18T08:06:16Z</time>
      </trkpt>
      <trkpt lat="44.31278" lon="5.22267">
        <ele>840.1</ele>
        <time>2022-07-18T08:06:17Z</time>
      </trkpt>
      <trkpt lat="44.31277" lon="5.22267">
        <ele>840.2</ele>
        <time>2022-07-18T08:06:18Z</time>
      </trkpt>
      <trkpt lat="44.31275" lon="5.22268">
        <ele>840.3</ele>
        <time>2022-07-18T08:06:19Z</time>
      </trkpt>
      <trkpt lat="44.31273" lon="5.22269">
        <ele>840.5</ele>
        <time>2022-07-18T08:06:20Z</time>
      </trkpt>
      <trkpt lat="44.31272" lon="5.2227">
        <ele>840.6</ele>
        <time>2022-07-18T08:06:21Z</time>
      </trkpt>
      <trkpt lat="44.31272" lon="5.22271">
        <ele>840.6</ele>
        <time>2022-07-18T08:06:22Z</time>
      </trkpt>
      <trkpt lat="44.3127" lon="5.22272">
        <ele>840.8</ele>
        <time>2022-07-18T08:06:23Z</time>
      </trkpt>
      <trkpt lat="44.31268" lon="5.22273">
        <ele>840.9</ele>
        <time>2022-07-18T08:06:24Z</time>
      </trkpt>
      <trkpt lat="44.31267" lon="5.22273">
        <ele>841</ele>
        <time>2022-07-18T08:06:25Z</time>
      </trkpt>
      <trkpt lat="44.31266" lon="5.22275">
        <ele>841.2</ele>
        <time>2022-07-18T08:06:26Z</time>
      </trkpt>
      <trkpt lat="44.31264" lon="5.22277">
        <ele>841.4</ele>
        <time>2022-07-18T08:06:27Z</time>
      </trkpt>
      <trkpt lat="44.31263" lon="5.22278">
        <ele>841.5</ele>
        <time>2022-07-18T08:06:28Z</time>
      </trkpt>
      <trkpt lat="44.31259" lon="5.22278">
        <ele>841.8</ele>
        <time>2022-07-18T08:06:29Z</time>
      </trkpt>
      <trkpt lat="44.31258" lon="5.22278">
        <ele>841.9</ele>
        <time>2022-07-18T08:06:30Z</time>
      </trkpt>
      <trkpt lat="44.31256" lon="5.22278">
        <ele>842.1</ele>
        <time>2022-07-18T08:06:31Z</time>
      </trkpt>
      <trkpt lat="44.31255" lon="5.22278">
        <ele>842.2</ele>
        <time>2022-07-18T08:06:32Z</time>
      </trkpt>
      <trkpt lat="44.31253" lon="5.22278">
        <ele>842.3</ele>
        <time>2022-07-18T08:06:33Z</time>
      </trkpt>
      <trkpt lat="44.31251" lon="5.22279">
        <ele>842.4</ele>
        <time>2022-07-18T08:06:34Z</time>
      </trkpt>
      <trkpt lat="44.31249" lon="5.2228">
        <ele>842.7</ele>
        <time>2022-07-18T08:06:35Z</time>
      </trkpt>
      <trkpt lat="44.31248" lon="5.22281">
        <ele>842.8</ele>
        <time>2022-07-18T08:06:36Z</time>
      </trkpt>
      <trkpt lat="44.31245" lon="5.22282">
        <ele>843</ele>
        <time>2022-07-18T08:06:37Z</time>
      </trkpt>
      <trkpt lat="44.31244" lon="5.22282">
        <ele>843.1</ele>
        <time>2022-07-18T08:06:38Z</time>
      </trkpt>
      <trkpt lat="44.31241" lon="5.22283">
        <ele>843.3</ele>
        <time>2022-07-18T08:06:39Z</time>
      </trkpt>
      <trkpt lat="44.31241" lon="5.22284">
        <ele>843.4</ele>
        <time>2022-07-18T08:06:40Z</time>
      </trkpt>
      <trkpt lat="44.31239" lon="5.22284">
        <ele>843.5</ele>
        <time>2022-07-18T08:06:41Z</time>
      </trkpt>
      <trkpt lat="44.31237" lon="5.22285">
        <ele>843.6</ele>
        <time>2022-07-18T08:06:42Z</time>
      </trkpt>
      <trkpt lat="44.31236" lon="5.22286">
        <ele>843.8</ele>
        <time>2022-07-18T08:06:43Z</time>
      </trkpt>
      <trkpt lat="44.31234" lon="5.22287">
        <ele>843.9</ele>
        <time>2022-07-18T08:06:44Z</time>
      </trkpt>
      <trkpt lat="44.31234" lon="5.22289">
        <ele>844</ele>
        <time>2022-07-18T08:06:45Z</time>
      </trkpt>
      <trkpt lat="44.31233" lon="5.22291">
        <ele>844.1</ele>
        <time>2022-07-18T08:06:46Z</time>
      </trkpt>
      <trkpt lat="44.31232" lon="5.22295">
        <ele>844.4</ele>
        <time>2022-07-18T08:06:47Z</time>
      </trkpt>
      <trkpt lat="44.31231" lon="5.22296">
        <ele>844.5</ele>
        <time>2022-07-18T08:06:48Z</time>
      </trkpt>
      <trkpt lat="44.3123" lon="5.22298">
        <ele>844.6</ele>
        <time>2022-07-18T08:06:49Z</time>
      </trkpt>
      <trkpt lat="44.3123" lon="5.223">
        <ele>844.7</ele>
        <time>2022-07-18T08:06:50Z</time>
      </trkpt>
      <trkpt lat="44.3123" lon="5.22302">
        <ele>844.9</ele>
        <time>2022-07-18T08:06:51Z</time>
      </trkpt>
      <trkpt lat="44.31229" lon="5.22304">
        <ele>845</ele>
        <time>2022-07-18T08:06:52Z</time>
      </trkpt>
      <trkpt lat="44.31228" lon="5.22305">
        <ele>845.1</ele>
        <time>2022-07-18T08:06:53Z</time>
      </trkpt>
      <trkpt lat="44.31227" lon="5.22307">
        <ele>845.2</ele>
        <time>2022-07-18T08:06:54Z</time>
      </trkpt>
      <trkpt lat="44.31226" lon="5.22308">
        <ele>845.3</ele>
        <time>2022-07-18T08:06:55Z</time>
      </trkpt>
      <trkpt lat="44.31226" lon="5.2231">
        <ele>845.4</ele>
        <time>2022-07-18T08:06:56Z</time>
      </trkpt>
      <trkpt lat="44.31225" lon="5.22311">
        <ele>845.6</ele>
        <time>2022-07-18T08:06:57Z</time>
      </trkpt>
      <trkpt lat="44.31224" lon="5.22313">
        <ele>845.7</ele>
        <time>2022-07-18T08:06:58Z</time>
      </trkpt>
      <trkpt lat="44.31224" lon="5.22315">
        <ele>845.8</ele>
        <time>2022-07-18T08:06:59Z</time>
      </trkpt>
      <trkpt lat="44.31224" lon="5.22317">
        <ele>845.9</ele>
        <time>2022-07-18T08:07:00Z</time>
      </trkpt>
      <trkpt lat="44.31223" lon="5.22317">
        <ele>845.9</ele>
        <time>2022-07-18T08:07:01Z</time>
      </trkpt>
      <trkpt lat="44.31221" lon="5.22319">
        <ele>846.1</ele>
        <time>2022-07-18T08:07:02Z</time>
      </trkpt>
      <trkpt lat="44.3122" lon="5.2232">
        <ele>846.2</ele>
        <time>2022-07-18T08:07:03Z</time>
      </trkpt>
      <trkpt lat="44.3122" lon="5.22321">
        <ele>846.3</ele>
        <time>2022-07-18T08:07:04Z</time>
      </trkpt>
      <trkpt lat="44.31219" lon="5.22322">
        <ele>846.4</ele>
        <time>2022-07-18T08:07:05Z</time>
      </trkpt>
      <trkpt lat="44.31218" lon="5.22323">
        <ele>846.5</ele>
        <time>2022-07-18T08:07:06Z</time>
      </trkpt>
      <trkpt lat="44.31215" lon="5.22326">
        <ele>846.8</ele>
        <time>2022-07-18T08:07:07Z</time>
      </trkpt>
      <trkpt lat="44.31214" lon="5.22326">
        <ele>846.9</ele>
        <time>2022-07-18T08:07:08Z</time>
      </trkpt>
      <trkpt lat="44.31213" lon="5.22328">
        <ele>847</ele>
        <time>2022-07-18T08:07:09Z</time>
      </trkpt>
      <trkpt lat="44.31211" lon="5.22329">
        <ele>847.1</ele>
        <time>2022-07-18T08:07:10Z</time>
      </trkpt>
      <trkpt lat="44.31209" lon="5.22332">
        <ele>847.4</ele>
        <time>2022-07-18T08:07:11Z</time>
      </trkpt>
      <trkpt lat="44.31208" lon="5.22333">
        <ele>847.5</ele>
        <time>2022-07-18T08:07:12Z</time>
      </trkpt>
      <trkpt lat="44.31206" lon="5.22335">
        <ele>847.7</ele>
        <time>2022-07-18T08:07:13Z</time>
      </trkpt>
      <trkpt lat="44.31205" lon="5.22336">
        <ele>847.8</ele>
        <time>2022-07-18T08:07:14Z</time>
      </trkpt>
      <trkpt lat="44.31202" lon="5.22339">
        <ele>848.1</ele>
        <time>2022-07-18T08:07:15Z</time>
      </trkpt>
      <trkpt lat="44.31201" lon="5.2234">
        <ele>848.2</ele>
        <time>2022-07-18T08:07:16Z</time>
      </trkpt>
      <trkpt lat="44.31199" lon="5.22344">
        <ele>848.5</ele>
        <time>2022-07-18T08:07:17Z</time>
      </trkpt>
      <trkpt lat="44.31198" lon="5.22346">
        <ele>848.6</ele>
        <time>2022-07-18T08:07:18Z</time>
      </trkpt>
      <trkpt lat="44.31196" lon="5.2235">
        <ele>848.9</ele>
        <time>2022-07-18T08:07:19Z</time>
      </trkpt>
      <trkpt lat="44.31196" lon="5.22351">
        <ele>849</ele>
        <time>2022-07-18T08:07:20Z</time>
      </trkpt>
      <trkpt lat="44.31194" lon="5.22353">
        <ele>849.1</ele>
        <time>2022-07-18T08:07:21Z</time>
      </trkpt>
      <trkpt lat="44.31194" lon="5.22354">
        <ele>849.2</ele>
        <time>2022-07-18T08:07:22Z</time>
      </trkpt>
      <trkpt lat="44.31193" lon="5.22355">
        <ele>849.3</ele>
        <time>2022-07-18T08:07:23Z</time>
      </trkpt>
      <trkpt lat="44.31192" lon="5.22356">
        <ele>849.4</ele>
        <time>2022-07-18T08:07:24Z</time>
      </trkpt>
      <trkpt lat="44.3119" lon="5.22357">
        <ele>849.5</ele>
        <time>2022-07-18T08:07:25Z</time>
      </trkpt>
      <trkpt lat="44.31189" lon="5.22357">
        <ele>849.6</ele>
        <time>2022-07-18T08:07:26Z</time>
      </trkpt>
      <trkpt lat="44.31188" lon="5.22358">
        <ele>849.8</ele>
        <time>2022-07-18T08:07:27Z</time>
      </trkpt>
      <trkpt lat="44.31187" lon="5.22359">
        <ele>849.9</ele>
        <time>2022-07-18T08:07:28Z</time>
      </trkpt>
      <trkpt lat="44.31186" lon="5.22361">
        <ele>850</ele>
        <time>2022-07-18T08:07:29Z</time>
      </trkpt>
      <trkpt lat="44.31185" lon="5.22362">
        <ele>850</ele>
        <time>2022-07-18T08:07:30Z</time>
      </trkpt>
      <trkpt lat="44.31185" lon="5.22362">
        <ele>850.1</ele>
        <time>2022-07-18T08:07:31Z</time>
      </trkpt>
      <trkpt lat="44.31183" lon="5.22363">
        <ele>850.2</ele>
        <time>2022-07-18T08:07:32Z</time>
      </trkpt>
      <trkpt lat="44.31182" lon="5.22363">
        <ele>850.3</ele>
        <time>2022-07-18T08:07:33Z</time>
      </trkpt>
      <trkpt lat="44.3118" lon="5.22363">
        <ele>850.5</ele>
        <time>2022-07-18T08:07:34Z</time>
      </trkpt>
      <trkpt lat="44.31179" lon="5.22363">
        <ele>850.6</ele>
        <time>2022-07-18T08:07:35Z</time>
      </trkpt>
      <trkpt lat="44.31178" lon="5.22364">
        <ele>850.6</ele>
        <time>2022-07-18T08:07:36Z</time>
      </trkpt>
      <trkpt lat="44.31177" lon="5.22364">
        <ele>850.8</ele>
        <time>2022-07-18T08:07:37Z</time>
      </trkpt>
      <trkpt lat="44.31176" lon="5.22364">
        <ele>850.9</ele>
        <time>2022-07-18T08:07:38Z</time>
      </trkpt>
      <trkpt lat="44.31174" lon="5.22365">
        <ele>851</ele>
        <time>2022-07-18T08:07:39Z</time>
      </trkpt>
      <trkpt lat="44.31173" lon="5.22365">
        <ele>851.1</ele>
        <time>2022-07-18T08:07:40Z</time>
      </trkpt>
      <trkpt lat="44.31171" lon="5.22365">
        <ele>851.2</ele>
        <time>2022-07-18T08:07:41Z</time>
      </trkpt>
      <trkpt lat="44.3117" lon="5.22366">
        <ele>851.3</ele>
        <time>2022-07-18T08:07:42Z</time>
      </trkpt>
      <trkpt lat="44.31168" lon="5.22367">
        <ele>851.5</ele>
        <time>2022-07-18T08:07:43Z</time>
      </trkpt>
      <trkpt lat="44.31167" lon="5.22367">
        <ele>851.6</ele>
        <time>2022-07-18T08:07:44Z</time>
      </trkpt>
      <trkpt lat="44.31165" lon="5.22367">
        <ele>851.8</ele>
        <time>2022-07-18T08:07:45Z</time>
      </trkpt>
      <trkpt lat="44.31164" lon="5.22368">
        <ele>851.9</ele>
        <time>2022-07-18T08:07:46Z</time>
      </trkpt>
      <trkpt lat="44.31162" lon="5.22368">
        <ele>852</ele>
        <time>2022-07-18T08:07:47Z</time>
      </trkpt>
      <trkpt lat="44.3116" lon="5.22369">
        <ele>852.2</ele>
        <time>2022-07-18T08:07:48Z</time>
      </trkpt>
      <trkpt lat="44.31158" lon="5.2237">
        <ele>852.3</ele>
        <time>2022-07-18T08:07:49Z</time>
      </trkpt>
      <trkpt lat="44.31157" lon="5.2237">
        <ele>852.4</ele>
        <time>2022-07-18T08:07:50Z</time>
      </trkpt>
      <trkpt lat="44.31156" lon="5.2237">
        <ele>852.5</ele>
        <time>2022-07-18T08:07:51Z</time>
      </trkpt>
      <trkpt lat="44.31155" lon="5.22371">
        <ele>852.6</ele>
        <time>2022-07-18T08:07:52Z</time>
      </trkpt>
      <trkpt lat="44.31153" lon="5.22371">
        <ele>852.7</ele>
        <time>2022-07-18T08:07:53Z</time>
      </trkpt>
      <trkpt lat="44.31152" lon="5.22372">
        <ele>852.9</ele>
        <time>2022-07-18T08:07:54Z</time>
      </trkpt>
      <trkpt lat="44.3115" lon="5.22373">
        <ele>853</ele>
        <time>2022-07-18T08:07:55Z</time>
      </trkpt>
      <trkpt lat="44.31149" lon="5.22374">
        <ele>853.1</ele>
        <time>2022-07-18T08:07:56Z</time>
      </trkpt>
      <trkpt lat="44.31147" lon="5.22375">
        <ele>853.3</ele>
        <time>2022-07-18T08:07:57Z</time>
      </trkpt>
      <trkpt lat="44.31146" lon="5.22376">
        <ele>853.4</ele>
        <time>2022-07-18T08:07:58Z</time>
      </trkpt>
      <trkpt lat="44.31145" lon="5.22377">
        <ele>853.5</ele>
        <time>2022-07-18T08:07:59Z</time>
      </trkpt>
      <trkpt lat="44.31144" lon="5.22377">
        <ele>853.6</ele>
        <time>2022-07-18T08:08:00Z</time>
      </trkpt>
      <trkpt lat="44.31143" lon="5.22378">
        <ele>853.7</ele>
        <time>2022-07-18T08:08:01Z</time>
      </trkpt>
      <trkpt lat="44.31141" lon="5.22379">
        <ele>853.8</ele>
        <time>2022-07-18T08:08:02Z</time>
      </trkpt>
      <trkpt lat="44.3114" lon="5.22379">
        <ele>854</ele>
        <time>2022-07-18T08:08:03Z</time>
      </trkpt>
      <trkpt lat="44.31138" lon="5.2238">
        <ele>854.1</ele>
        <time>2022-07-18T08:08:04Z</time>
      </trkpt>
      <trkpt lat="44.31137" lon="5.22381">
        <ele>854.2</ele>
        <time>2022-07-18T08:08:05Z</time>
      </trkpt>
      <trkpt lat="44.31135" lon="5.22382">
        <ele>854.4</ele>
        <time>2022-07-18T08:08:06Z</time>
      </trkpt>
      <trkpt lat="44.31133" lon="5.22384">
        <ele>854.6</ele>
        <time>2022-07-18T08:08:07Z</time>
      </trkpt>
      <trkpt lat="44.31132" lon="5.22385">
        <ele>854.7</ele>
        <time>2022-07-18T08:08:08Z</time>
      </trkpt>
      <trkpt lat="44.31131" lon="5.22385">
        <ele>854.8</ele>
        <time>2022-07-18T08:08:09Z</time>
      </trkpt>
      <trkpt lat="44.3113" lon="5.22386">
        <ele>854.9</ele>
        <time>2022-07-18T08:08:10Z</time>
      </trkpt>
      <trkpt lat="44.31127" lon="5.22387">
        <ele>855.1</ele>
        <time>2022-07-18T08:08:11Z</time>
      </trkpt>
      <trkpt lat="44.31126" lon="5.22388">
        <ele>855.2</ele>
        <time>2022-07-18T08:08:12Z</time>
      </trkpt>
      <trkpt lat="44.31125" lon="5.22388">
        <ele>855.3</ele>
        <time>2022-07-18T08:08:13Z</time>
      </trkpt>
      <trkpt lat="44.31123" lon="5.22389">
        <ele>855.5</ele>
        <time>2022-07-18T08:08:14Z</time>
      </trkpt>
      <trkpt lat="44.31122" lon="5.2239">
        <ele>855.6</ele>
        <time>2022-07-18T08:08:15Z</time>
      </trkpt>
      <trkpt lat="44.31121" lon="5.22391">
        <ele>855.7</ele>
        <time>2022-07-18T08:08:16Z</time>
      </trkpt>
      <trkpt lat="44.31119" lon="5.22393">
        <ele>855.9</ele>
        <time>2022-07-18T08:08:17Z</time>
      </trkpt>
      <trkpt lat="44.31118" lon="5.22394">
        <ele>855.9</ele>
        <time>2022-07-18T08:08:18Z</time>
      </trkpt>
      <trkpt lat="44.31118" lon="5.22395">
        <ele>856</ele>
        <time>2022-07-18T08:08:19Z</time>
      </trkpt>
      <trkpt lat="44.31117" lon="5.22396">
        <ele>856.1</ele>
        <time>2022-07-18T08:08:20Z</time>
      </trkpt>
      <trkpt lat="44.31115" lon="5.22398">
        <ele>856.3</ele>
        <time>2022-07-18T08:08:21Z</time>
      </trkpt>
      <trkpt lat="44.31114" lon="5.22399">
        <ele>856.4</ele>
        <time>2022-07-18T08:08:22Z</time>
      </trkpt>
      <trkpt lat="44.31113" lon="5.22401">
        <ele>856.5</ele>
        <time>2022-07-18T08:08:23Z</time>
      </trkpt>
      <trkpt lat="44.31112" lon="5.22403">
        <ele>856.7</ele>
        <time>2022-07-18T08:08:24Z</time>
      </trkpt>
      <trkpt lat="44.31111" lon="5.22405">
        <ele>856.8</ele>
        <time>2022-07-18T08:08:25Z</time>
      </trkpt>
      <trkpt lat="44.3111" lon="5.22407">
        <ele>857</ele>
        <time>2022-07-18T08:08:26Z</time>
      </trkpt>
      <trkpt lat="44.31109" lon="5.22408">
        <ele>857.1</ele>
        <time>2022-07-18T08:08:27Z</time>
      </trkpt>
      <trkpt lat="44.31108" lon="5.22408">
        <ele>857.1</ele>
        <time>2022-07-18T08:08:28Z</time>
      </trkpt>
      <trkpt lat="44.31106" lon="5.22409">
        <ele>857.3</ele>
        <time>2022-07-18T08:08:29Z</time>
      </trkpt>
      <trkpt lat="44.31105" lon="5.22409">
        <ele>857.4</ele>
        <time>2022-07-18T08:08:30Z</time>
      </trkpt>
      <trkpt lat="44.31105" lon="5.22409">
        <ele>857.4</ele>
        <time>2022-07-18T08:08:31Z</time>
      </trkpt>
      <trkpt lat="44.31103" lon="5.22408">
        <ele>857.5</ele>
        <time>2022-07-18T08:08:32Z</time>
      </trkpt>
      <trkpt lat="44.31103" lon="5.22408">
        <ele>857.6</ele>
        <time>2022-07-18T08:08:33Z</time>
      </trkpt>
      <trkpt lat="44.31101" lon="5.22408">
        <ele>857.7</ele>
        <time>2022-07-18T08:08:34Z</time>
      </trkpt>
      <trkpt lat="44.31099" lon="5.22409">
        <ele>857.9</ele>
        <time>2022-07-18T08:08:35Z</time>
      </trkpt>
      <trkpt lat="44.31098" lon="5.2241">
        <ele>858</ele>
        <time>2022-07-18T08:08:36Z</time>
      </trkpt>
      <trkpt lat="44.31098" lon="5.2241">
        <ele>858.1</ele>
        <time>2022-07-18T08:08:37Z</time>
      </trkpt>
      <trkpt lat="44.31096" lon="5.22411">
        <ele>858.2</ele>
        <time>2022-07-18T08:08:38Z</time>
      </trkpt>
      <trkpt lat="44.31095" lon="5.22412">
        <ele>858.3</ele>
        <time>2022-07-18T08:08:39Z</time>
      </trkpt>
      <trkpt lat="44.31094" lon="5.22414">
        <ele>858.4</ele>
        <time>2022-07-18T08:08:40Z</time>
      </trkpt>
      <trkpt lat="44.31094" lon="5.22415">
        <ele>858.5</ele>
        <time>2022-07-18T08:08:41Z</time>
      </trkpt>
      <trkpt lat="44.31093" lon="5.22416">
        <ele>858.6</ele>
        <time>2022-07-18T08:08:42Z</time>
      </trkpt>
      <trkpt lat="44.31092" lon="5.22417">
        <ele>858.6</ele>
        <time>2022-07-18T08:08:43Z</time>
      </trkpt>
      <trkpt lat="44.31092" lon="5.22417">
        <ele>858.7</ele>
        <time>2022-07-18T08:08:44Z</time>
      </trkpt>
      <trkpt lat="44.3109" lon="5.22417">
        <ele>858.8</ele>
        <time>2022-07-18T08:08:45Z</time>
      </trkpt>
      <trkpt lat="44.31088" lon="5.22419">
        <ele>859.1</ele>
        <time>2022-07-18T08:08:46Z</time>
      </trkpt>
      <trkpt lat="44.31087" lon="5.2242">
        <ele>859.1</ele>
        <time>2022-07-18T08:08:47Z</time>
      </trkpt>
      <trkpt lat="44.31086" lon="5.22422">
        <ele>859.3</ele>
        <time>2022-07-18T08:08:48Z</time>
      </trkpt>
      <trkpt lat="44.31084" lon="5.22423">
        <ele>859.4</ele>
        <time>2022-07-18T08:08:49Z</time>
      </trkpt>
      <trkpt lat="44.31083" lon="5.22425">
        <ele>859.6</ele>
        <time>2022-07-18T08:08:50Z</time>
      </trkpt>
      <trkpt lat="44.31082" lon="5.22426">
        <ele>859.7</ele>
        <time>2022-07-18T08:08:51Z</time>
      </trkpt>
      <trkpt lat="44.31081" lon="5.22427">
        <ele>859.8</ele>
        <time>2022-07-18T08:08:52Z</time>
      </trkpt>
      <trkpt lat="44.31079" lon="5.22428">
        <ele>860</ele>
        <time>2022-07-18T08:08:53Z</time>
      </trkpt>
      <trkpt lat="44.31078" lon="5.22429">
        <ele>860.1</ele>
        <time>2022-07-18T08:08:54Z</time>
      </trkpt>
      <trkpt lat="44.31076" lon="5.2243">
        <ele>860.2</ele>
        <time>2022-07-18T08:08:55Z</time>
      </trkpt>
      <trkpt lat="44.31075" lon="5.22431">
        <ele>860.3</ele>
        <time>2022-07-18T08:08:56Z</time>
      </trkpt>
      <trkpt lat="44.31073" lon="5.2243">
        <ele>860.5</ele>
        <time>2022-07-18T08:08:57Z</time>
      </trkpt>
      <trkpt lat="44.31072" lon="5.22431">
        <ele>860.6</ele>
        <time>2022-07-18T08:08:58Z</time>
      </trkpt>
      <trkpt lat="44.3107" lon="5.22431">
        <ele>860.7</ele>
        <time>2022-07-18T08:08:59Z</time>
      </trkpt>
      <trkpt lat="44.31069" lon="5.22432">
        <ele>860.8</ele>
        <time>2022-07-18T08:09:00Z</time>
      </trkpt>
      <trkpt lat="44.31068" lon="5.22433">
        <ele>860.9</ele>
        <time>2022-07-18T08:09:01Z</time>
      </trkpt>
      <trkpt lat="44.31066" lon="5.22434">
        <ele>861.1</ele>
        <time>2022-07-18T08:09:02Z</time>
      </trkpt>
      <trkpt lat="44.31065" lon="5.22434">
        <ele>861.2</ele>
        <time>2022-07-18T08:09:03Z</time>
      </trkpt>
      <trkpt lat="44.31064" lon="5.22435">
        <ele>861.3</ele>
        <time>2022-07-18T08:09:04Z</time>
      </trkpt>
      <trkpt lat="44.31063" lon="5.22435">
        <ele>861.4</ele>
        <time>2022-07-18T08:09:05Z</time>
      </trkpt>
      <trkpt lat="44.31062" lon="5.22435">
        <ele>861.5</ele>
        <time>2022-07-18T08:09:06Z</time>
      </trkpt>
      <trkpt lat="44.3106" lon="5.22435">
        <ele>861.6</ele>
        <time>2022-07-18T08:09:07Z</time>
      </trkpt>
      <trkpt lat="44.3106" lon="5.22435">
        <ele>861.6</ele>
        <time>2022-07-18T08:09:08Z</time>
      </trkpt>
      <trkpt lat="44.31059" lon="5.22436">
        <ele>861.7</ele>
        <time>2022-07-18T08:09:09Z</time>
      </trkpt>
      <trkpt lat="44.31058" lon="5.22437">
        <ele>861.8</ele>
        <time>2022-07-18T08:09:10Z</time>
      </trkpt>
      <trkpt lat="44.31058" lon="5.22437">
        <ele>861.8</ele>
        <time>2022-07-18T08:09:11Z</time>
      </trkpt>
      <trkpt lat="44.31057" lon="5.22438">
        <ele>861.9</ele>
        <time>2022-07-18T08:09:12Z</time>
      </trkpt>
      <trkpt lat="44.31056" lon="5.22438">
        <ele>862</ele>
        <time>2022-07-18T08:09:13Z</time>
      </trkpt>
      <trkpt lat="44.31055" lon="5.22439">
        <ele>862.1</ele>
        <time>2022-07-18T08:09:14Z</time>
      </trkpt>
      <trkpt lat="44.31054" lon="5.2244">
        <ele>862.2</ele>
        <time>2022-07-18T08:09:15Z</time>
      </trkpt>
      <trkpt lat="44.31053" lon="5.2244">
        <ele>862.3</ele>
        <time>2022-07-18T08:09:16Z</time>
      </trkpt>
      <trkpt lat="44.31052" lon="5.22441">
        <ele>862.4</ele>
        <time>2022-07-18T08:09:17Z</time>
      </trkpt>
      <trkpt lat="44.31051" lon="5.22442">
        <ele>862.5</ele>
        <time>2022-07-18T08:09:18Z</time>
      </trkpt>
      <trkpt lat="44.3105" lon="5.22443">
        <ele>862.6</ele>
        <time>2022-07-18T08:09:19Z</time>
      </trkpt>
      <trkpt lat="44.31049" lon="5.22444">
        <ele>862.7</ele>
        <time>2022-07-18T08:09:20Z</time>
      </trkpt>
      <trkpt lat="44.31048" lon="5.22445">
        <ele>862.8</ele>
        <time>2022-07-18T08:09:21Z</time>
      </trkpt>
      <trkpt lat="44.31047" lon="5.22446">
        <ele>862.8</ele>
        <time>2022-07-18T08:09:22Z</time>
      </trkpt>
      <trkpt lat="44.31047" lon="5.22447">
        <ele>862.9</ele>
        <time>2022-07-18T08:09:23Z</time>
      </trkpt>
      <trkpt lat="44.31046" lon="5.22448">
        <ele>863</ele>
        <time>2022-07-18T08:09:24Z</time>
      </trkpt>
      <trkpt lat="44.31045" lon="5.22449">
        <ele>863.1</ele>
        <time>2022-07-18T08:09:25Z</time>
      </trkpt>
      <trkpt lat="44.31043" lon="5.2245">
        <ele>863.2</ele>
        <time>2022-07-18T08:09:26Z</time>
      </trkpt>
      <trkpt lat="44.31042" lon="5.22451">
        <ele>863.4</ele>
        <time>2022-07-18T08:09:27Z</time>
      </trkpt>
      <trkpt lat="44.31041" lon="5.22453">
        <ele>863.5</ele>
        <time>2022-07-18T08:09:28Z</time>
      </trkpt>
      <trkpt lat="44.3104" lon="5.22454">
        <ele>863.6</ele>
        <time>2022-07-18T08:09:29Z</time>
      </trkpt>
      <trkpt lat="44.31038" lon="5.22455">
        <ele>863.8</ele>
        <time>2022-07-18T08:09:30Z</time>
      </trkpt>
      <trkpt lat="44.31037" lon="5.22455">
        <ele>863.9</ele>
        <time>2022-07-18T08:09:31Z</time>
      </trkpt>
      <trkpt lat="44.31036" lon="5.22455">
        <ele>863.9</ele>
        <time>2022-07-18T08:09:32Z</time>
      </trkpt>
      <trkpt lat="44.31035" lon="5.22456">
        <ele>864</ele>
        <time>2022-07-18T08:09:33Z</time>
      </trkpt>
      <trkpt lat="44.31034" lon="5.22457">
        <ele>864.1</ele>
        <time>2022-07-18T08:09:34Z</time>
      </trkpt>
      <trkpt lat="44.31033" lon="5.22457">
        <ele>864.2</ele>
        <time>2022-07-18T08:09:35Z</time>
      </trkpt>
      <trkpt lat="44.31032" lon="5.22458">
        <ele>864.3</ele>
        <time>2022-07-18T08:09:36Z</time>
      </trkpt>
      <trkpt lat="44.31031" lon="5.22459">
        <ele>864.4</ele>
        <time>2022-07-18T08:09:37Z</time>
      </trkpt>
      <trkpt lat="44.31031" lon="5.2246">
        <ele>864.5</ele>
        <time>2022-07-18T08:09:38Z</time>
      </trkpt>
      <trkpt lat="44.3103" lon="5.22461">
        <ele>864.6</ele>
        <time>2022-07-18T08:09:39Z</time>
      </trkpt>
      <trkpt lat="44.31028" lon="5.22463">
        <ele>864.7</ele>
        <time>2022-07-18T08:09:40Z</time>
      </trkpt>
      <trkpt lat="44.31025" lon="5.22465">
        <ele>865</ele>
        <time>2022-07-18T08:09:41Z</time>
      </trkpt>
      <trkpt lat="44.31025" lon="5.22466">
        <ele>865.1</ele>
        <time>2022-07-18T08:09:42Z</time>
      </trkpt>
      <trkpt lat="44.31023" lon="5.22467">
        <ele>865.2</ele>
        <time>2022-07-18T08:09:43Z</time>
      </trkpt>
      <trkpt lat="44.31022" lon="5.22468">
        <ele>865.3</ele>
        <time>2022-07-18T08:09:44Z</time>
      </trkpt>
      <trkpt lat="44.31021" lon="5.22469">
        <ele>865.4</ele>
        <time>2022-07-18T08:09:45Z</time>
      </trkpt>
      <trkpt lat="44.31021" lon="5.2247">
        <ele>865.5</ele>
        <time>2022-07-18T08:09:46Z</time>
      </trkpt>
      <trkpt lat="44.3102" lon="5.22471">
        <ele>865.5</ele>
        <time>2022-07-18T08:09:47Z</time>
      </trkpt>
      <trkpt lat="44.31019" lon="5.22471">
        <ele>865.6</ele>
        <time>2022-07-18T08:09:48Z</time>
      </trkpt>
      <trkpt lat="44.31018" lon="5.22472">
        <ele>865.8</ele>
        <time>2022-07-18T08:09:49Z</time>
      </trkpt>
      <trkpt lat="44.31017" lon="5.22473">
        <ele>865.8</ele>
        <time>2022-07-18T08:09:50Z</time>
      </trkpt>
      <trkpt lat="44.31016" lon="5.22474">
        <ele>865.9</ele>
        <time>2022-07-18T08:09:51Z</time>
      </trkpt>
      <trkpt lat="44.31015" lon="5.22475">
        <ele>866.1</ele>
        <time>2022-07-18T08:09:52Z</time>
      </trkpt>
      <trkpt lat="44.31013" lon="5.22477">
        <ele>866.2</ele>
        <time>2022-07-18T08:09:53Z</time>
      </trkpt>
      <trkpt lat="44.31012" lon="5.22479">
        <ele>866.4</ele>
        <time>2022-07-18T08:09:54Z</time>
      </trkpt>
      <trkpt lat="44.31011" lon="5.2248">
        <ele>866.5</ele>
        <time>2022-07-18T08:09:55Z</time>
      </trkpt>
      <trkpt lat="44.3101" lon="5.22482">
        <ele>866.6</ele>
        <time>2022-07-18T08:09:56Z</time>
      </trkpt>
      <trkpt lat="44.31009" lon="5.22484">
        <ele>866.8</ele>
        <time>2022-07-18T08:09:57Z</time>
      </trkpt>
      <trkpt lat="44.31008" lon="5.22486">
        <ele>866.9</ele>
        <time>2022-07-18T08:09:58Z</time>
      </trkpt>
      <trkpt lat="44.31007" lon="5.22488">
        <ele>867</ele>
        <time>2022-07-18T08:09:59Z</time>
      </trkpt>
      <trkpt lat="44.31006" lon="5.22489">
        <ele>867.2</ele>
        <time>2022-07-18T08:10:00Z</time>
      </trkpt>
      <trkpt lat="44.31005" lon="5.22491">
        <ele>867.3</ele>
        <time>2022-07-18T08:10:01Z</time>
      </trkpt>
      <trkpt lat="44.31005" lon="5.22493">
        <ele>867.4</ele>
        <time>2022-07-18T08:10:02Z</time>
      </trkpt>
      <trkpt lat="44.31004" lon="5.22495">
        <ele>867.5</ele>
        <time>2022-07-18T08:10:03Z</time>
      </trkpt>
      <trkpt lat="44.31004" lon="5.22497">
        <ele>867.7</ele>
        <time>2022-07-18T08:10:04Z</time>
      </trkpt>
      <trkpt lat="44.31003" lon="5.22499">
        <ele>867.8</ele>
        <time>2022-07-18T08:10:05Z</time>
      </trkpt>
      <trkpt lat="44.31003" lon="5.22501">
        <ele>867.9</ele>
        <time>2022-07-18T08:10:06Z</time>
      </trkpt>
      <trkpt lat="44.31003" lon="5.22503">
        <ele>868</ele>
        <time>2022-07-18T08:10:07Z</time>
      </trkpt>
      <trkpt lat="44.31002" lon="5.22506">
        <ele>868.2</ele>
        <time>2022-07-18T08:10:08Z</time>
      </trkpt>
      <trkpt lat="44.31002" lon="5.22507">
        <ele>868.3</ele>
        <time>2022-07-18T08:10:09Z</time>
      </trkpt>
      <trkpt lat="44.31002" lon="5.22508">
        <ele>868.3</ele>
        <time>2022-07-18T08:10:10Z</time>
      </trkpt>
      <trkpt lat="44.31001" lon="5.22509">
        <ele>868.4</ele>
        <time>2022-07-18T08:10:11Z</time>
      </trkpt>
      <trkpt lat="44.31001" lon="5.2251">
        <ele>868.5</ele>
        <time>2022-07-18T08:10:12Z</time>
      </trkpt>
      <trkpt lat="44.31" lon="5.22512">
        <ele>868.6</ele>
        <time>2022-07-18T08:10:13Z</time>
      </trkpt>
      <trkpt lat="44.30999" lon="5.22514">
        <ele>868.8</ele>
        <time>2022-07-18T08:10:14Z</time>
      </trkpt>
      <trkpt lat="44.30998" lon="5.22515">
        <ele>868.8</ele>
        <time>2022-07-18T08:10:15Z</time>
      </trkpt>
      <trkpt lat="44.30998" lon="5.22516">
        <ele>868.9</ele>
        <time>2022-07-18T08:10:16Z</time>
      </trkpt>
      <trkpt lat="44.30997" lon="5.22517">
        <ele>869</ele>
        <time>2022-07-18T08:10:17Z</time>
      </trkpt>
      <trkpt lat="44.30996" lon="5.22517">
        <ele>869</ele>
        <time>2022-07-18T08:10:18Z</time>
      </trkpt>
      <trkpt lat="44.30996" lon="5.22518">
        <ele>869.1</ele>
        <time>2022-07-18T08:10:19Z</time>
      </trkpt>
      <trkpt lat="44.30995" lon="5.22518">
        <ele>869.2</ele>
        <time>2022-07-18T08:10:20Z</time>
      </trkpt>
      <trkpt lat="44.30993" lon="5.22519">
        <ele>869.3</ele>
        <time>2022-07-18T08:10:21Z</time>
      </trkpt>
      <trkpt lat="44.30991" lon="5.22519">
        <ele>869.5</ele>
        <time>2022-07-18T08:10:22Z</time>
      </trkpt>
      <trkpt lat="44.30989" lon="5.22521">
        <ele>869.7</ele>
        <time>2022-07-18T08:10:23Z</time>
      </trkpt>
      <trkpt lat="44.30988" lon="5.22521">
        <ele>869.7</ele>
        <time>2022-07-18T08:10:24Z</time>
      </trkpt>
      <trkpt lat="44.30988" lon="5.22522">
        <ele>869.8</ele>
        <time>2022-07-18T08:10:25Z</time>
      </trkpt>
      <trkpt lat="44.30987" lon="5.22523">
        <ele>869.9</ele>
        <time>2022-07-18T08:10:26Z</time>
      </trkpt>
      <trkpt lat="44.30987" lon="5.22524">
        <ele>869.9</ele>
        <time>2022-07-18T08:10:27Z</time>
      </trkpt>
      <trkpt lat="44.30987" lon="5.22525">
        <ele>870</ele>
        <time>2022-07-18T08:10:28Z</time>
      </trkpt>
      <trkpt lat="44.30986" lon="5.22525">
        <ele>870.1</ele>
        <time>2022-07-18T08:10:29Z</time>
      </trkpt>
      <trkpt lat="44.30984" lon="5.22526">
        <ele>870.2</ele>
        <time>2022-07-18T08:10:30Z</time>
      </trkpt>
      <trkpt lat="44.30983" lon="5.22527">
        <ele>870.3</ele>
        <time>2022-07-18T08:10:31Z</time>
      </trkpt>
      <trkpt lat="44.30982" lon="5.22527">
        <ele>870.4</ele>
        <time>2022-07-18T08:10:32Z</time>
      </trkpt>
      <trkpt lat="44.30982" lon="5.22528">
        <ele>870.5</ele>
        <time>2022-07-18T08:10:33Z</time>
      </trkpt>
      <trkpt lat="44.30981" lon="5.2253">
        <ele>870.6</ele>
        <time>2022-07-18T08:10:34Z</time>
      </trkpt>
      <trkpt lat="44.30981" lon="5.22531">
        <ele>870.7</ele>
        <time>2022-07-18T08:10:35Z</time>
      </trkpt>
      <trkpt lat="44.3098" lon="5.22533">
        <ele>870.8</ele>
        <time>2022-07-18T08:10:36Z</time>
      </trkpt>
      <trkpt lat="44.3098" lon="5.22535">
        <ele>870.9</ele>
        <time>2022-07-18T08:10:37Z</time>
      </trkpt>
      <trkpt lat="44.3098" lon="5.22537">
        <ele>871</ele>
        <time>2022-07-18T08:10:38Z</time>
      </trkpt>
      <trkpt lat="44.30979" lon="5.22539">
        <ele>871.1</ele>
        <time>2022-07-18T08:10:39Z</time>
      </trkpt>
      <trkpt lat="44.30978" lon="5.22541">
        <ele>871.2</ele>
        <time>2022-07-18T08:10:40Z</time>
      </trkpt>
      <trkpt lat="44.30978" lon="5.22543">
        <ele>871.4</ele>
        <time>2022-07-18T08:10:41Z</time>
      </trkpt>
      <trkpt lat="44.30977" lon="5.22545">
        <ele>871.5</ele>
        <time>2022-07-18T08:10:42Z</time>
      </trkpt>
      <trkpt lat="44.30977" lon="5.22547">
        <ele>871.6</ele>
        <time>2022-07-18T08:10:43Z</time>
      </trkpt>
      <trkpt lat="44.30975" lon="5.22549">
        <ele>871.8</ele>
        <time>2022-07-18T08:10:44Z</time>
      </trkpt>
      <trkpt lat="44.30975" lon="5.2255">
        <ele>871.9</ele>
        <time>2022-07-18T08:10:45Z</time>
      </trkpt>
      <trkpt lat="44.30974" lon="5.22551">
        <ele>871.9</ele>
        <time>2022-07-18T08:10:46Z</time>
      </trkpt>
      <trkpt lat="44.30973" lon="5.22554">
        <ele>872.1</ele>
        <time>2022-07-18T08:10:47Z</time>
      </trkpt>
      <trkpt lat="44.30973" lon="5.22555">
        <ele>872.2</ele>
        <time>2022-07-18T08:10:48Z</time>
      </trkpt>
      <trkpt lat="44.30973" lon="5.22556">
        <ele>872.2</ele>
        <time>2022-07-18T08:10:49Z</time>
      </trkpt>
      <trkpt lat="44.30972" lon="5.22558">
        <ele>872.4</ele>
        <time>2022-07-18T08:10:50Z</time>
      </trkpt>
      <trkpt lat="44.30971" lon="5.22559">
        <ele>872.5</ele>
        <time>2022-07-18T08:10:51Z</time>
      </trkpt>
      <trkpt lat="44.3097" lon="5.22561">
        <ele>872.6</ele>
        <time>2022-07-18T08:10:52Z</time>
      </trkpt>
      <trkpt lat="44.30969" lon="5.22562">
        <ele>872.7</ele>
        <time>2022-07-18T08:10:53Z</time>
      </trkpt>
      <trkpt lat="44.30967" lon="5.22563">
        <ele>872.9</ele>
        <time>2022-07-18T08:10:54Z</time>
      </trkpt>
      <trkpt lat="44.30966" lon="5.22565">
        <ele>873</ele>
        <time>2022-07-18T08:10:55Z</time>
      </trkpt>
      <trkpt lat="44.30965" lon="5.22567">
        <ele>873.2</ele>
        <time>2022-07-18T08:10:56Z</time>
      </trkpt>
      <trkpt lat="44.30965" lon="5.22568">
        <ele>873.2</ele>
        <time>2022-07-18T08:10:57Z</time>
      </trkpt>
      <trkpt lat="44.30964" lon="5.2257">
        <ele>873.3</ele>
        <time>2022-07-18T08:10:58Z</time>
      </trkpt>
      <trkpt lat="44.30963" lon="5.22571">
        <ele>873.5</ele>
        <time>2022-07-18T08:10:59Z</time>
      </trkpt>
      <trkpt lat="44.30963" lon="5.22573">
        <ele>873.6</ele>
        <time>2022-07-18T08:11:00Z</time>
      </trkpt>
      <trkpt lat="44.30962" lon="5.22575">
        <ele>873.7</ele>
        <time>2022-07-18T08:11:01Z</time>
      </trkpt>
      <trkpt lat="44.30961" lon="5.22576">
        <ele>873.8</ele>
        <time>2022-07-18T08:11:02Z</time>
      </trkpt>
      <trkpt lat="44.3096" lon="5.22579">
        <ele>874</ele>
        <time>2022-07-18T08:11:03Z</time>
      </trkpt>
      <trkpt lat="44.30959" lon="5.22579">
        <ele>874</ele>
        <time>2022-07-18T08:11:04Z</time>
      </trkpt>
      <trkpt lat="44.30959" lon="5.2258">
        <ele>874.1</ele>
        <time>2022-07-18T08:11:05Z</time>
      </trkpt>
      <trkpt lat="44.30958" lon="5.22582">
        <ele>874.2</ele>
        <time>2022-07-18T08:11:06Z</time>
      </trkpt>
      <trkpt lat="44.30957" lon="5.22583">
        <ele>874.3</ele>
        <time>2022-07-18T08:11:07Z</time>
      </trkpt>
      <trkpt lat="44.30957" lon="5.22584">
        <ele>874.4</ele>
        <time>2022-07-18T08:11:08Z</time>
      </trkpt>
      <trkpt lat="44.30956" lon="5.22586">
        <ele>874.5</ele>
        <time>2022-07-18T08:11:09Z</time>
      </trkpt>
      <trkpt lat="44.30956" lon="5.22588">
        <ele>874.6</ele>
        <time>2022-07-18T08:11:10Z</time>
      </trkpt>
      <trkpt lat="44.30955" lon="5.2259">
        <ele>874.7</ele>
        <time>2022-07-18T08:11:11Z</time>
      </trkpt>
      <trkpt lat="44.30954" lon="5.22591">
        <ele>874.8</ele>
        <time>2022-07-18T08:11:12Z</time>
      </trkpt>
      <trkpt lat="44.30954" lon="5.22592">
        <ele>874.9</ele>
        <time>2022-07-18T08:11:13Z</time>
      </trkpt>
      <trkpt lat="44.30953" lon="5.22592">
        <ele>875</ele>
        <time>2022-07-18T08:11:14Z</time>
      </trkpt>
      <trkpt lat="44.30952" lon="5.22593">
        <ele>875.1</ele>
        <time>2022-07-18T08:11:15Z</time>
      </trkpt>
      <trkpt lat="44.30951" lon="5.22594">
        <ele>875.2</ele>
        <time>2022-07-18T08:11:16Z</time>
      </trkpt>
      <trkpt lat="44.3095" lon="5.22597">
        <ele>875.3</ele>
        <time>2022-07-18T08:11:17Z</time>
      </trkpt>
      <trkpt lat="44.3095" lon="5.22598">
        <ele>875.4</ele>
        <time>2022-07-18T08:11:18Z</time>
      </trkpt>
      <trkpt lat="44.3095" lon="5.22599">
        <ele>875.5</ele>
        <time>2022-07-18T08:11:19Z</time>
      </trkpt>
      <trkpt lat="44.30949" lon="5.22601">
        <ele>875.6</ele>
        <time>2022-07-18T08:11:20Z</time>
      </trkpt>
      <trkpt lat="44.30949" lon="5.22603">
        <ele>875.7</ele>
        <time>2022-07-18T08:11:21Z</time>
      </trkpt>
      <trkpt lat="44.30948" lon="5.22605">
        <ele>875.8</ele>
        <time>2022-07-18T08:11:22Z</time>
      </trkpt>
      <trkpt lat="44.30948" lon="5.22607">
        <ele>876</ele>
        <time>2022-07-18T08:11:23Z</time>
      </trkpt>
      <trkpt lat="44.30947" lon="5.22609">
        <ele>876.1</ele>
        <time>2022-07-18T08:11:24Z</time>
      </trkpt>
      <trkpt lat="44.30947" lon="5.22611">
        <ele>876.2</ele>
        <time>2022-07-18T08:11:25Z</time>
      </trkpt>
      <trkpt lat="44.30947" lon="5.22614">
        <ele>876.4</ele>
        <time>2022-07-18T08:11:26Z</time>
      </trkpt>
      <trkpt lat="44.30947" lon="5.22615">
        <ele>876.5</ele>
        <time>2022-07-18T08:11:27Z</time>
      </trkpt>
      <trkpt lat="44.30946" lon="5.22616">
        <ele>876.5</ele>
        <time>2022-07-18T08:11:28Z</time>
      </trkpt>
      <trkpt lat="44.30946" lon="5.22618">
        <ele>876.7</ele>
        <time>2022-07-18T08:11:29Z</time>
      </trkpt>
      <trkpt lat="44.30945" lon="5.2262">
        <ele>876.8</ele>
        <time>2022-07-18T08:11:30Z</time>
      </trkpt>
      <trkpt lat="44.30943" lon="5.22622">
        <ele>877</ele>
        <time>2022-07-18T08:11:31Z</time>
      </trkpt>
      <trkpt lat="44.30943" lon="5.22622">
        <ele>877</ele>
        <time>2022-07-18T08:11:32Z</time>
      </trkpt>
      <trkpt lat="44.30942" lon="5.22622">
        <ele>877.1</ele>
        <time>2022-07-18T08:11:33Z</time>
      </trkpt>
      <trkpt lat="44.3094" lon="5.22622">
        <ele>877.2</ele>
        <time>2022-07-18T08:11:34Z</time>
      </trkpt>
      <trkpt lat="44.30939" lon="5.22623">
        <ele>877.3</ele>
        <time>2022-07-18T08:11:35Z</time>
      </trkpt>
      <trkpt lat="44.30937" lon="5.22624">
        <ele>877.5</ele>
        <time>2022-07-18T08:11:36Z</time>
      </trkpt>
      <trkpt lat="44.30937" lon="5.22625">
        <ele>877.6</ele>
        <time>2022-07-18T08:11:37Z</time>
      </trkpt>
      <trkpt lat="44.30936" lon="5.22626">
        <ele>877.6</ele>
        <time>2022-07-18T08:11:38Z</time>
      </trkpt>
      <trkpt lat="44.30935" lon="5.22628">
        <ele>877.8</ele>
        <time>2022-07-18T08:11:39Z</time>
      </trkpt>
      <trkpt lat="44.30934" lon="5.22629">
        <ele>877.9</ele>
        <time>2022-07-18T08:11:40Z</time>
      </trkpt>
      <trkpt lat="44.30933" lon="5.22632">
        <ele>878</ele>
        <time>2022-07-18T08:11:41Z</time>
      </trkpt>
      <trkpt lat="44.30933" lon="5.22633">
        <ele>878.1</ele>
        <time>2022-07-18T08:11:42Z</time>
      </trkpt>
      <trkpt lat="44.30932" lon="5.22634">
        <ele>878.2</ele>
        <time>2022-07-18T08:11:43Z</time>
      </trkpt>
      <trkpt lat="44.30932" lon="5.22637">
        <ele>878.4</ele>
        <time>2022-07-18T08:11:44Z</time>
      </trkpt>
      <trkpt lat="44.30931" lon="5.22638">
        <ele>878.4</ele>
        <time>2022-07-18T08:11:45Z</time>
      </trkpt>
      <trkpt lat="44.30931" lon="5.22639">
        <ele>878.5</ele>
        <time>2022-07-18T08:11:46Z</time>
      </trkpt>
      <trkpt lat="44.30931" lon="5.22641">
        <ele>878.6</ele>
        <time>2022-07-18T08:11:47Z</time>
      </trkpt>
      <trkpt lat="44.3093" lon="5.22643">
        <ele>878.8</ele>
        <time>2022-07-18T08:11:48Z</time>
      </trkpt>
      <trkpt lat="44.30929" lon="5.22646">
        <ele>878.9</ele>
        <time>2022-07-18T08:11:49Z</time>
      </trkpt>
      <trkpt lat="44.30929" lon="5.22648">
        <ele>879.1</ele>
        <time>2022-07-18T08:11:50Z</time>
      </trkpt>
      <trkpt lat="44.30928" lon="5.2265">
        <ele>879.2</ele>
        <time>2022-07-18T08:11:51Z</time>
      </trkpt>
      <trkpt lat="44.30927" lon="5.22651">
        <ele>879.3</ele>
        <time>2022-07-18T08:11:52Z</time>
      </trkpt>
      <trkpt lat="44.30927" lon="5.22652">
        <ele>879.4</ele>
        <time>2022-07-18T08:11:53Z</time>
      </trkpt>
      <trkpt lat="44.30926" lon="5.22653">
        <ele>879.5</ele>
        <time>2022-07-18T08:11:54Z</time>
      </trkpt>
      <trkpt lat="44.30925" lon="5.22654">
        <ele>879.6</ele>
        <time>2022-07-18T08:11:55Z</time>
      </trkpt>
      <trkpt lat="44.30924" lon="5.22655">
        <ele>879.6</ele>
        <time>2022-07-18T08:11:56Z</time>
      </trkpt>
      <trkpt lat="44.30923" lon="5.22655">
        <ele>879.7</ele>
        <time>2022-07-18T08:11:57Z</time>
      </trkpt>
      <trkpt lat="44.30922" lon="5.22655">
        <ele>879.8</ele>
        <time>2022-07-18T08:11:58Z</time>
      </trkpt>
      <trkpt lat="44.30922" lon="5.22656">
        <ele>879.9</ele>
        <time>2022-07-18T08:11:59Z</time>
      </trkpt>
      <trkpt lat="44.30921" lon="5.22657">
        <ele>879.9</ele>
        <time>2022-07-18T08:12:00Z</time>
      </trkpt>
      <trkpt lat="44.3092" lon="5.22658">
        <ele>880</ele>
        <time>2022-07-18T08:12:01Z</time>
      </trkpt>
      <trkpt lat="44.3092" lon="5.2266">
        <ele>880.1</ele>
        <time>2022-07-18T08:12:02Z</time>
      </trkpt>
      <trkpt lat="44.30919" lon="5.22661">
        <ele>880.2</ele>
        <time>2022-07-18T08:12:03Z</time>
      </trkpt>
      <trkpt lat="44.30918" lon="5.22662">
        <ele>880.3</ele>
        <time>2022-07-18T08:12:04Z</time>
      </trkpt>
      <trkpt lat="44.30918" lon="5.22662">
        <ele>880.3</ele>
        <time>2022-07-18T08:12:05Z</time>
      </trkpt>
      <trkpt lat="44.30917" lon="5.22662">
        <ele>880.4</ele>
        <time>2022-07-18T08:12:06Z</time>
      </trkpt>
      <trkpt lat="44.30916" lon="5.22663">
        <ele>880.5</ele>
        <time>2022-07-18T08:12:07Z</time>
      </trkpt>
      <trkpt lat="44.30914" lon="5.22664">
        <ele>880.7</ele>
        <time>2022-07-18T08:12:08Z</time>
      </trkpt>
      <trkpt lat="44.30913" lon="5.22665">
        <ele>880.7</ele>
        <time>2022-07-18T08:12:09Z</time>
      </trkpt>
      <trkpt lat="44.30912" lon="5.22665">
        <ele>880.8</ele>
        <time>2022-07-18T08:12:10Z</time>
      </trkpt>
      <trkpt lat="44.30911" lon="5.22666">
        <ele>881</ele>
        <time>2022-07-18T08:12:11Z</time>
      </trkpt>
      <trkpt lat="44.3091" lon="5.22667">
        <ele>881</ele>
        <time>2022-07-18T08:12:12Z</time>
      </trkpt>
      <trkpt lat="44.30909" lon="5.22668">
        <ele>881.1</ele>
        <time>2022-07-18T08:12:13Z</time>
      </trkpt>
      <trkpt lat="44.30908" lon="5.2267">
        <ele>881.2</ele>
        <time>2022-07-18T08:12:14Z</time>
      </trkpt>
      <trkpt lat="44.30907" lon="5.22671">
        <ele>881.4</ele>
        <time>2022-07-18T08:12:15Z</time>
      </trkpt>
      <trkpt lat="44.30904" lon="5.22673">
        <ele>881.6</ele>
        <time>2022-07-18T08:12:16Z</time>
      </trkpt>
      <trkpt lat="44.30903" lon="5.22673">
        <ele>881.7</ele>
        <time>2022-07-18T08:12:17Z</time>
      </trkpt>
      <trkpt lat="44.309" lon="5.22674">
        <ele>882</ele>
        <time>2022-07-18T08:12:18Z</time>
      </trkpt>
      <trkpt lat="44.30899" lon="5.22674">
        <ele>882</ele>
        <time>2022-07-18T08:12:19Z</time>
      </trkpt>
      <trkpt lat="44.30898" lon="5.22674">
        <ele>882.5</ele>
        <time>2022-07-18T08:12:20Z</time>
      </trkpt>
      <trkpt lat="44.30897" lon="5.22673">
        <ele>882.4</ele>
        <time>2022-07-18T08:12:21Z</time>
      </trkpt>
      <trkpt lat="44.30897" lon="5.22672">
        <ele>882.4</ele>
        <time>2022-07-18T08:12:22Z</time>
      </trkpt>
      <trkpt lat="44.30897" lon="5.22672">
        <ele>882.4</ele>
        <time>2022-07-18T08:12:23Z</time>
      </trkpt>
      <trkpt lat="44.30897" lon="5.22671">
        <ele>882.4</ele>
        <time>2022-07-18T08:12:24Z</time>
      </trkpt>
      <trkpt lat="44.30898" lon="5.22669">
        <ele>882.4</ele>
        <time>2022-07-18T08:12:25Z</time>
      </trkpt>
      <trkpt lat="44.30898" lon="5.22668">
        <ele>882.3</ele>
        <time>2022-07-18T08:12:26Z</time>
      </trkpt>
      <trkpt lat="44.30897" lon="5.22666">
        <ele>882.3</ele>
        <time>2022-07-18T08:12:27Z</time>
      </trkpt>
      <trkpt lat="44.30897" lon="5.22665">
        <ele>882.3</ele>
        <time>2022-07-18T08:12:28Z</time>
      </trkpt>
      <trkpt lat="44.30896" lon="5.22664">
        <ele>882.3</ele>
        <time>2022-07-18T08:12:29Z</time>
      </trkpt>
      <trkpt lat="44.30896" lon="5.22664">
        <ele>882.3</ele>
        <time>2022-07-18T08:12:30Z</time>
      </trkpt>
      <trkpt lat="44.30896" lon="5.22664">
        <ele>882.3</ele>
        <time>2022-07-18T08:12:31Z</time>
      </trkpt>
      <trkpt lat="44.30896" lon="5.22664">
        <ele>882.3</ele>
        <time>2022-07-18T08:12:32Z</time>
      </trkpt>
      <trkpt lat="44.30895" lon="5.22666">
        <ele>882.2</ele>
        <time>2022-07-18T08:12:33Z</time>
      </trkpt>
      <trkpt lat="44.30895" lon="5.22666">
        <ele>882.2</ele>
        <time>2022-07-18T08:12:34Z</time>
      </trkpt>
      <trkpt lat="44.30895" lon="5.22666">
        <ele>882.2</ele>
        <time>2022-07-18T08:12:35Z</time>
      </trkpt>
      <trkpt lat="44.30894" lon="5.22667">
        <ele>882.2</ele>
        <time>2022-07-18T08:12:36Z</time>
      </trkpt>
      <trkpt lat="44.30893" lon="5.22666">
        <ele>882.2</ele>
        <time>2022-07-18T08:12:37Z</time>
      </trkpt>
      <trkpt lat="44.30893" lon="5.22666">
        <ele>882.2</ele>
        <time>2022-07-18T08:12:38Z</time>
      </trkpt>
      <trkpt lat="44.30893" lon="5.22665">
        <ele>882.2</ele>
        <time>2022-07-18T08:12:39Z</time>
      </trkpt>
      <trkpt lat="44.30892" lon="5.22664">
        <ele>882.2</ele>
        <time>2022-07-18T08:12:40Z</time>
      </trkpt>
      <trkpt lat="44.30892" lon="5.22663">
        <ele>882.1</ele>
        <time>2022-07-18T08:16:02Z</time>
      </trkpt>
      <trkpt lat="44.30892" lon="5.22662">
        <ele>882.1</ele>
        <time>2022-07-18T08:16:03Z</time>
      </trkpt>
      <trkpt lat="44.30891" lon="5.22662">
        <ele>882.1</ele>
        <time>2022-07-18T08:16:04Z</time>
      </trkpt>
      <trkpt lat="44.30891" lon="5.2266">
        <ele>882.1</ele>
        <time>2022-07-18T08:16:05Z</time>
      </trkpt>
      <trkpt lat="44.3089" lon="5.22658">
        <ele>882.1</ele>
        <time>2022-07-18T08:16:06Z</time>
      </trkpt>
      <trkpt lat="44.3089" lon="5.22653">
        <ele>882</ele>
        <time>2022-07-18T08:16:07Z</time>
      </trkpt>
      <trkpt lat="44.30889" lon="5.22652">
        <ele>882</ele>
        <time>2022-07-18T08:16:08Z</time>
      </trkpt>
      <trkpt lat="44.30889" lon="5.22648">
        <ele>881.9</ele>
        <time>2022-07-18T08:16:09Z</time>
      </trkpt>
      <trkpt lat="44.30888" lon="5.22647">
        <ele>881.9</ele>
        <time>2022-07-18T08:16:10Z</time>
      </trkpt>
      <trkpt lat="44.30888" lon="5.22642">
        <ele>881.8</ele>
        <time>2022-07-18T08:16:11Z</time>
      </trkpt>
      <trkpt lat="44.30887" lon="5.22641">
        <ele>881.8</ele>
        <time>2022-07-18T08:16:12Z</time>
      </trkpt>
      <trkpt lat="44.30886" lon="5.22637">
        <ele>881.7</ele>
        <time>2022-07-18T08:16:13Z</time>
      </trkpt>
      <trkpt lat="44.30885" lon="5.22633">
        <ele>881.6</ele>
        <time>2022-07-18T08:16:14Z</time>
      </trkpt>
      <trkpt lat="44.30883" lon="5.2263">
        <ele>881.6</ele>
        <time>2022-07-18T08:16:15Z</time>
      </trkpt>
      <trkpt lat="44.30882" lon="5.22626">
        <ele>881.5</ele>
        <time>2022-07-18T08:16:16Z</time>
      </trkpt>
      <trkpt lat="44.30881" lon="5.22621">
        <ele>881.5</ele>
        <time>2022-07-18T08:16:17Z</time>
      </trkpt>
      <trkpt lat="44.30881" lon="5.22619">
        <ele>881.5</ele>
        <time>2022-07-18T08:16:18Z</time>
      </trkpt>
      <trkpt lat="44.3088" lon="5.22615">
        <ele>881.6</ele>
        <time>2022-07-18T08:16:19Z</time>
      </trkpt>
      <trkpt lat="44.3088" lon="5.22613">
        <ele>881.6</ele>
        <time>2022-07-18T08:16:20Z</time>
      </trkpt>
      <trkpt lat="44.30879" lon="5.22611">
        <ele>881.6</ele>
        <time>2022-07-18T08:16:21Z</time>
      </trkpt>
      <trkpt lat="44.30879" lon="5.22608">
        <ele>881.7</ele>
        <time>2022-07-18T08:16:22Z</time>
      </trkpt>
      <trkpt lat="44.30879" lon="5.22604">
        <ele>881.7</ele>
        <time>2022-07-18T08:16:23Z</time>
      </trkpt>
      <trkpt lat="44.30879" lon="5.22603">
        <ele>881.8</ele>
        <time>2022-07-18T08:16:24Z</time>
      </trkpt>
      <trkpt lat="44.30878" lon="5.226">
        <ele>881.8</ele>
        <time>2022-07-18T08:16:25Z</time>
      </trkpt>
      <trkpt lat="44.30878" lon="5.22598">
        <ele>881.9</ele>
        <time>2022-07-18T08:16:26Z</time>
      </trkpt>
      <trkpt lat="44.30878" lon="5.22596">
        <ele>881.9</ele>
        <time>2022-07-18T08:16:27Z</time>
      </trkpt>
      <trkpt lat="44.30877" lon="5.22593">
        <ele>882</ele>
        <time>2022-07-18T08:16:28Z</time>
      </trkpt>
      <trkpt lat="44.30877" lon="5.2259">
        <ele>882.1</ele>
        <time>2022-07-18T08:16:29Z</time>
      </trkpt>
      <trkpt lat="44.30876" lon="5.22588">
        <ele>882.1</ele>
        <time>2022-07-18T08:16:30Z</time>
      </trkpt>
      <trkpt lat="44.30874" lon="5.22585">
        <ele>882.2</ele>
        <time>2022-07-18T08:16:31Z</time>
      </trkpt>
      <trkpt lat="44.30874" lon="5.22583">
        <ele>882.2</ele>
        <time>2022-07-18T08:16:32Z</time>
      </trkpt>
      <trkpt lat="44.30872" lon="5.2258">
        <ele>882.3</ele>
        <time>2022-07-18T08:16:33Z</time>
      </trkpt>
      <trkpt lat="44.30871" lon="5.22579">
        <ele>882.3</ele>
        <time>2022-07-18T08:16:34Z</time>
      </trkpt>
      <trkpt lat="44.3087" lon="5.22578">
        <ele>882.3</ele>
        <time>2022-07-18T08:16:35Z</time>
      </trkpt>
      <trkpt lat="44.30868" lon="5.22577">
        <ele>882.4</ele>
        <time>2022-07-18T08:16:36Z</time>
      </trkpt>
      <trkpt lat="44.30866" lon="5.22574">
        <ele>882.4</ele>
        <time>2022-07-18T08:16:37Z</time>
      </trkpt>
      <trkpt lat="44.30865" lon="5.22573">
        <ele>882.4</ele>
        <time>2022-07-18T08:16:38Z</time>
      </trkpt>
      <trkpt lat="44.30863" lon="5.2257">
        <ele>882.4</ele>
        <time>2022-07-18T08:16:39Z</time>
      </trkpt>
      <trkpt lat="44.30863" lon="5.22569">
        <ele>882.5</ele>
        <time>2022-07-18T08:16:40Z</time>
      </trkpt>
      <trkpt lat="44.30861" lon="5.22565">
        <ele>882.5</ele>
        <time>2022-07-18T08:16:41Z</time>
      </trkpt>
      <trkpt lat="44.3086" lon="5.22563">
        <ele>882.5</ele>
        <time>2022-07-18T08:16:42Z</time>
      </trkpt>
      <trkpt lat="44.30859" lon="5.2256">
        <ele>882.5</ele>
        <time>2022-07-18T08:16:43Z</time>
      </trkpt>
      <trkpt lat="44.30858" lon="5.22559">
        <ele>882.5</ele>
        <time>2022-07-18T08:16:44Z</time>
      </trkpt>
      <trkpt lat="44.30856" lon="5.22556">
        <ele>882.5</ele>
        <time>2022-07-18T08:16:45Z</time>
      </trkpt>
      <trkpt lat="44.30855" lon="5.22555">
        <ele>882.5</ele>
        <time>2022-07-18T08:16:46Z</time>
      </trkpt>
      <trkpt lat="44.30854" lon="5.22552">
        <ele>882.5</ele>
        <time>2022-07-18T08:16:47Z</time>
      </trkpt>
      <trkpt lat="44.30853" lon="5.22551">
        <ele>882.5</ele>
        <time>2022-07-18T08:16:48Z</time>
      </trkpt>
      <trkpt lat="44.30852" lon="5.22546">
        <ele>882.4</ele>
        <time>2022-07-18T08:16:49Z</time>
      </trkpt>
      <trkpt lat="44.30851" lon="5.22544">
        <ele>882.4</ele>
        <time>2022-07-18T08:16:50Z</time>
      </trkpt>
      <trkpt lat="44.3085" lon="5.22539">
        <ele>882.4</ele>
        <time>2022-07-18T08:16:51Z</time>
      </trkpt>
      <trkpt lat="44.3085" lon="5.22537">
        <ele>882.3</ele>
        <time>2022-07-18T08:16:52Z</time>
      </trkpt>
      <trkpt lat="44.30849" lon="5.22532">
        <ele>882.3</ele>
        <time>2022-07-18T08:16:53Z</time>
      </trkpt>
      <trkpt lat="44.30849" lon="5.22527">
        <ele>882.2</ele>
        <time>2022-07-18T08:16:54Z</time>
      </trkpt>
      <trkpt lat="44.30848" lon="5.22523">
        <ele>882.2</ele>
        <time>2022-07-18T08:16:55Z</time>
      </trkpt>
      <trkpt lat="44.30847" lon="5.22518">
        <ele>882.1</ele>
        <time>2022-07-18T08:16:56Z</time>
      </trkpt>
      <trkpt lat="44.30846" lon="5.22513">
        <ele>882</ele>
        <time>2022-07-18T08:16:57Z</time>
      </trkpt>
      <trkpt lat="44.30845" lon="5.22509">
        <ele>882</ele>
        <time>2022-07-18T08:16:58Z</time>
      </trkpt>
      <trkpt lat="44.30844" lon="5.22504">
        <ele>881.9</ele>
        <time>2022-07-18T08:16:59Z</time>
      </trkpt>
      <trkpt lat="44.30843" lon="5.225">
        <ele>881.8</ele>
        <time>2022-07-18T08:17:00Z</time>
      </trkpt>
      <trkpt lat="44.30842" lon="5.22495">
        <ele>881.8</ele>
        <time>2022-07-18T08:17:01Z</time>
      </trkpt>
      <trkpt lat="44.30842" lon="5.22494">
        <ele>881.7</ele>
        <time>2022-07-18T08:17:02Z</time>
      </trkpt>
      <trkpt lat="44.30842" lon="5.22489">
        <ele>881.6</ele>
        <time>2022-07-18T08:17:03Z</time>
      </trkpt>
      <trkpt lat="44.30842" lon="5.22484">
        <ele>881.6</ele>
        <time>2022-07-18T08:17:04Z</time>
      </trkpt>
      <trkpt lat="44.30841" lon="5.22479">
        <ele>881.5</ele>
        <time>2022-07-18T08:17:05Z</time>
      </trkpt>
      <trkpt lat="44.3084" lon="5.22474">
        <ele>881.4</ele>
        <time>2022-07-18T08:17:06Z</time>
      </trkpt>
      <trkpt lat="44.3084" lon="5.22468">
        <ele>881.3</ele>
        <time>2022-07-18T08:17:07Z</time>
      </trkpt>
      <trkpt lat="44.3084" lon="5.22464">
        <ele>881.2</ele>
        <time>2022-07-18T08:17:08Z</time>
      </trkpt>
      <trkpt lat="44.3084" lon="5.22458">
        <ele>881.2</ele>
        <time>2022-07-18T08:17:09Z</time>
      </trkpt>
      <trkpt lat="44.3084" lon="5.22454">
        <ele>881.1</ele>
        <time>2022-07-18T08:17:10Z</time>
      </trkpt>
      <trkpt lat="44.30841" lon="5.22448">
        <ele>881.1</ele>
        <time>2022-07-18T08:17:11Z</time>
      </trkpt>
      <trkpt lat="44.30841" lon="5.22446">
        <ele>881.1</ele>
        <time>2022-07-18T08:17:12Z</time>
      </trkpt>
      <trkpt lat="44.30841" lon="5.22442">
        <ele>881</ele>
        <time>2022-07-18T08:17:13Z</time>
      </trkpt>
      <trkpt lat="44.30842" lon="5.22438">
        <ele>881</ele>
        <time>2022-07-18T08:17:14Z</time>
      </trkpt>
      <trkpt lat="44.30841" lon="5.22434">
        <ele>881</ele>
        <time>2022-07-18T08:17:15Z</time>
      </trkpt>
      <trkpt lat="44.30841" lon="5.22429">
        <ele>880.9</ele>
        <time>2022-07-18T08:17:16Z</time>
      </trkpt>
      <trkpt lat="44.30841" lon="5.22425">
        <ele>880.9</ele>
        <time>2022-07-18T08:17:17Z</time>
      </trkpt>
      <trkpt lat="44.30841" lon="5.2242">
        <ele>880.8</ele>
        <time>2022-07-18T08:17:18Z</time>
      </trkpt>
      <trkpt lat="44.30841" lon="5.22418">
        <ele>880.8</ele>
        <time>2022-07-18T08:17:19Z</time>
      </trkpt>
      <trkpt lat="44.3084" lon="5.22414">
        <ele>880.7</ele>
        <time>2022-07-18T08:17:20Z</time>
      </trkpt>
      <trkpt lat="44.30839" lon="5.2241">
        <ele>880.7</ele>
        <time>2022-07-18T08:17:21Z</time>
      </trkpt>
      <trkpt lat="44.30839" lon="5.22406">
        <ele>880.7</ele>
        <time>2022-07-18T08:17:22Z</time>
      </trkpt>
      <trkpt lat="44.30839" lon="5.22402">
        <ele>880.6</ele>
        <time>2022-07-18T08:17:23Z</time>
      </trkpt>
      <trkpt lat="44.30838" lon="5.22398">
        <ele>880.6</ele>
        <time>2022-07-18T08:17:24Z</time>
      </trkpt>
      <trkpt lat="44.30837" lon="5.22395">
        <ele>880.6</ele>
        <time>2022-07-18T08:17:25Z</time>
      </trkpt>
      <trkpt lat="44.30835" lon="5.22391">
        <ele>880.6</ele>
        <time>2022-07-18T08:17:26Z</time>
      </trkpt>
      <trkpt lat="44.30834" lon="5.22389">
        <ele>880.6</ele>
        <time>2022-07-18T08:17:27Z</time>
      </trkpt>
      <trkpt lat="44.30832" lon="5.22385">
        <ele>880.6</ele>
        <time>2022-07-18T08:17:28Z</time>
      </trkpt>
      <trkpt lat="44.30831" lon="5.22381">
        <ele>880.6</ele>
        <time>2022-07-18T08:17:29Z</time>
      </trkpt>
      <trkpt lat="44.30829" lon="5.22377">
        <ele>880.6</ele>
        <time>2022-07-18T08:17:30Z</time>
      </trkpt>
      <trkpt lat="44.30829" lon="5.22373">
        <ele>880.7</ele>
        <time>2022-07-18T08:17:31Z</time>
      </trkpt>
      <trkpt lat="44.30829" lon="5.22369">
        <ele>880.7</ele>
        <time>2022-07-18T08:17:32Z</time>
      </trkpt>
      <trkpt lat="44.30829" lon="5.22364">
        <ele>880.7</ele>
        <time>2022-07-18T08:17:33Z</time>
      </trkpt>
      <trkpt lat="44.30828" lon="5.22363">
        <ele>880.7</ele>
        <time>2022-07-18T08:17:34Z</time>
      </trkpt>
      <trkpt lat="44.30827" lon="5.22359">
        <ele>880.8</ele>
        <time>2022-07-18T08:17:35Z</time>
      </trkpt>
      <trkpt lat="44.30827" lon="5.22358">
        <ele>880.8</ele>
        <time>2022-07-18T08:17:36Z</time>
      </trkpt>
      <trkpt lat="44.30826" lon="5.22352">
        <ele>880.9</ele>
        <time>2022-07-18T08:17:37Z</time>
      </trkpt>
      <trkpt lat="44.30826" lon="5.2235">
        <ele>880.9</ele>
        <time>2022-07-18T08:17:38Z</time>
      </trkpt>
      <trkpt lat="44.30827" lon="5.22346">
        <ele>881</ele>
        <time>2022-07-18T08:17:39Z</time>
      </trkpt>
      <trkpt lat="44.30828" lon="5.22342">
        <ele>881.1</ele>
        <time>2022-07-18T08:17:40Z</time>
      </trkpt>
      <trkpt lat="44.30828" lon="5.22336">
        <ele>881.2</ele>
        <time>2022-07-18T08:17:41Z</time>
      </trkpt>
      <trkpt lat="44.30828" lon="5.22335">
        <ele>881.3</ele>
        <time>2022-07-18T08:17:42Z</time>
      </trkpt>
      <trkpt lat="44.30827" lon="5.22331">
        <ele>881.4</ele>
        <time>2022-07-18T08:17:43Z</time>
      </trkpt>
      <trkpt lat="44.30826" lon="5.22325">
        <ele>881.5</ele>
        <time>2022-07-18T08:17:44Z</time>
      </trkpt>
      <trkpt lat="44.30826" lon="5.22324">
        <ele>881.5</ele>
        <time>2022-07-18T08:17:45Z</time>
      </trkpt>
      <trkpt lat="44.30825" lon="5.2232">
        <ele>881.6</ele>
        <time>2022-07-18T08:17:46Z</time>
      </trkpt>
      <trkpt lat="44.30823" lon="5.22316">
        <ele>881.7</ele>
        <time>2022-07-18T08:17:47Z</time>
      </trkpt>
      <trkpt lat="44.30821" lon="5.22313">
        <ele>881.8</ele>
        <time>2022-07-18T08:17:48Z</time>
      </trkpt>
      <trkpt lat="44.3082" lon="5.22309">
        <ele>881.9</ele>
        <time>2022-07-18T08:17:49Z</time>
      </trkpt>
      <trkpt lat="44.30819" lon="5.22307">
        <ele>881.9</ele>
        <time>2022-07-18T08:17:50Z</time>
      </trkpt>
      <trkpt lat="44.30818" lon="5.22303">
        <ele>882</ele>
        <time>2022-07-18T08:17:51Z</time>
      </trkpt>
      <trkpt lat="44.30816" lon="5.22299">
        <ele>882</ele>
        <time>2022-07-18T08:17:52Z</time>
      </trkpt>
      <trkpt lat="44.30816" lon="5.22297">
        <ele>882.1</ele>
        <time>2022-07-18T08:17:53Z</time>
      </trkpt>
      <trkpt lat="44.30815" lon="5.22293">
        <ele>882.1</ele>
        <time>2022-07-18T08:17:54Z</time>
      </trkpt>
      <trkpt lat="44.30814" lon="5.22289">
        <ele>882.1</ele>
        <time>2022-07-18T08:17:55Z</time>
      </trkpt>
      <trkpt lat="44.30813" lon="5.22285">
        <ele>882.1</ele>
        <time>2022-07-18T08:17:56Z</time>
      </trkpt>
      <trkpt lat="44.30813" lon="5.22281">
        <ele>882.2</ele>
        <time>2022-07-18T08:17:57Z</time>
      </trkpt>
      <trkpt lat="44.30813" lon="5.22276">
        <ele>882.2</ele>
        <time>2022-07-18T08:17:58Z</time>
      </trkpt>
      <trkpt lat="44.30813" lon="5.22274">
        <ele>882.2</ele>
        <time>2022-07-18T08:17:59Z</time>
      </trkpt>
      <trkpt lat="44.30813" lon="5.2227">
        <ele>882.1</ele>
        <time>2022-07-18T08:18:00Z</time>
      </trkpt>
      <trkpt lat="44.30813" lon="5.22264">
        <ele>882.1</ele>
        <time>2022-07-18T08:18:01Z</time>
      </trkpt>
      <trkpt lat="44.30814" lon="5.22259">
        <ele>882</ele>
        <time>2022-07-18T08:18:02Z</time>
      </trkpt>
      <trkpt lat="44.30813" lon="5.22254">
        <ele>881.9</ele>
        <time>2022-07-18T08:18:03Z</time>
      </trkpt>
      <trkpt lat="44.30814" lon="5.2225">
        <ele>881.9</ele>
        <time>2022-07-18T08:18:04Z</time>
      </trkpt>
      <trkpt lat="44.30814" lon="5.22246">
        <ele>881.8</ele>
        <time>2022-07-18T08:18:05Z</time>
      </trkpt>
      <trkpt lat="44.30814" lon="5.22241">
        <ele>881.7</ele>
        <time>2022-07-18T08:18:06Z</time>
      </trkpt>
      <trkpt lat="44.30814" lon="5.22236">
        <ele>881.7</ele>
        <time>2022-07-18T08:18:07Z</time>
      </trkpt>
      <trkpt lat="44.30814" lon="5.22231">
        <ele>881.6</ele>
        <time>2022-07-18T08:18:08Z</time>
      </trkpt>
      <trkpt lat="44.30813" lon="5.22226">
        <ele>881.6</ele>
        <time>2022-07-18T08:18:09Z</time>
      </trkpt>
      <trkpt lat="44.30811" lon="5.22222">
        <ele>881.5</ele>
        <time>2022-07-18T08:18:10Z</time>
      </trkpt>
      <trkpt lat="44.30809" lon="5.22217">
        <ele>881.5</ele>
        <time>2022-07-18T08:18:11Z</time>
      </trkpt>
      <trkpt lat="44.30808" lon="5.22213">
        <ele>881.5</ele>
        <time>2022-07-18T08:18:12Z</time>
      </trkpt>
      <trkpt lat="44.30807" lon="5.22208">
        <ele>881.5</ele>
        <time>2022-07-18T08:18:13Z</time>
      </trkpt>
      <trkpt lat="44.30806" lon="5.22201">
        <ele>881.5</ele>
        <time>2022-07-18T08:18:14Z</time>
      </trkpt>
      <trkpt lat="44.30805" lon="5.22195">
        <ele>881.6</ele>
        <time>2022-07-18T08:18:15Z</time>
      </trkpt>
      <trkpt lat="44.30803" lon="5.22189">
        <ele>881.7</ele>
        <time>2022-07-18T08:18:16Z</time>
      </trkpt>
      <trkpt lat="44.30802" lon="5.22183">
        <ele>881.7</ele>
        <time>2022-07-18T08:18:17Z</time>
      </trkpt>
      <trkpt lat="44.30801" lon="5.22177">
        <ele>881.7</ele>
        <time>2022-07-18T08:18:18Z</time>
      </trkpt>
      <trkpt lat="44.30799" lon="5.22172">
        <ele>881.7</ele>
        <time>2022-07-18T08:18:19Z</time>
      </trkpt>
      <trkpt lat="44.30797" lon="5.22168">
        <ele>881.7</ele>
        <time>2022-07-18T08:18:20Z</time>
      </trkpt>
      <trkpt lat="44.30795" lon="5.22163">
        <ele>881.6</ele>
        <time>2022-07-18T08:18:21Z</time>
      </trkpt>
      <trkpt lat="44.30793" lon="5.22158">
        <ele>881.6</ele>
        <time>2022-07-18T08:18:22Z</time>
      </trkpt>
      <trkpt lat="44.30791" lon="5.22154">
        <ele>881.5</ele>
        <time>2022-07-18T08:18:23Z</time>
      </trkpt>
      <trkpt lat="44.30789" lon="5.22149">
        <ele>881.5</ele>
        <time>2022-07-18T08:18:24Z</time>
      </trkpt>
      <trkpt lat="44.30788" lon="5.22145">
        <ele>881.5</ele>
        <time>2022-07-18T08:18:25Z</time>
      </trkpt>
      <trkpt lat="44.30786" lon="5.22142">
        <ele>881.5</ele>
        <time>2022-07-18T08:18:26Z</time>
      </trkpt>
      <trkpt lat="44.30785" lon="5.22137">
        <ele>881.5</ele>
        <time>2022-07-18T08:18:27Z</time>
      </trkpt>
      <trkpt lat="44.30785" lon="5.22136">
        <ele>881.5</ele>
        <time>2022-07-18T08:18:28Z</time>
      </trkpt>
      <trkpt lat="44.30784" lon="5.22132">
        <ele>881.6</ele>
        <time>2022-07-18T08:18:29Z</time>
      </trkpt>
      <trkpt lat="44.30783" lon="5.2213">
        <ele>881.6</ele>
        <time>2022-07-18T08:18:30Z</time>
      </trkpt>
      <trkpt lat="44.30782" lon="5.22126">
        <ele>881.7</ele>
        <time>2022-07-18T08:18:31Z</time>
      </trkpt>
      <trkpt lat="44.30782" lon="5.22124">
        <ele>881.7</ele>
        <time>2022-07-18T08:18:32Z</time>
      </trkpt>
      <trkpt lat="44.30782" lon="5.2212">
        <ele>881.8</ele>
        <time>2022-07-18T08:18:33Z</time>
      </trkpt>
      <trkpt lat="44.30782" lon="5.22119">
        <ele>881.8</ele>
        <time>2022-07-18T08:18:34Z</time>
      </trkpt>
      <trkpt lat="44.30781" lon="5.22115">
        <ele>882</ele>
        <time>2022-07-18T08:18:35Z</time>
      </trkpt>
      <trkpt lat="44.30781" lon="5.22113">
        <ele>882</ele>
        <time>2022-07-18T08:18:36Z</time>
      </trkpt>
      <trkpt lat="44.30781" lon="5.22109">
        <ele>882.2</ele>
        <time>2022-07-18T08:18:37Z</time>
      </trkpt>
      <trkpt lat="44.30781" lon="5.22108">
        <ele>882.2</ele>
        <time>2022-07-18T08:18:38Z</time>
      </trkpt>
      <trkpt lat="44.3078" lon="5.22103">
        <ele>882.4</ele>
        <time>2022-07-18T08:18:39Z</time>
      </trkpt>
      <trkpt lat="44.3078" lon="5.22102">
        <ele>882.5</ele>
        <time>2022-07-18T08:18:40Z</time>
      </trkpt>
      <trkpt lat="44.30779" lon="5.22097">
        <ele>882.7</ele>
        <time>2022-07-18T08:18:41Z</time>
      </trkpt>
      <trkpt lat="44.30779" lon="5.22095">
        <ele>882.8</ele>
        <time>2022-07-18T08:18:42Z</time>
      </trkpt>
      <trkpt lat="44.30778" lon="5.2209">
        <ele>883</ele>
        <time>2022-07-18T08:18:43Z</time>
      </trkpt>
      <trkpt lat="44.30778" lon="5.22089">
        <ele>883.1</ele>
        <time>2022-07-18T08:18:44Z</time>
      </trkpt>
      <trkpt lat="44.30778" lon="5.22085">
        <ele>883.3</ele>
        <time>2022-07-18T08:18:45Z</time>
      </trkpt>
      <trkpt lat="44.30777" lon="5.22081">
        <ele>883.4</ele>
        <time>2022-07-18T08:18:46Z</time>
      </trkpt>
      <trkpt lat="44.30776" lon="5.22077">
        <ele>883.6</ele>
        <time>2022-07-18T08:18:47Z</time>
      </trkpt>
      <trkpt lat="44.30775" lon="5.22073">
        <ele>883.7</ele>
        <time>2022-07-18T08:18:48Z</time>
      </trkpt>
      <trkpt lat="44.30774" lon="5.22068">
        <ele>883.9</ele>
        <time>2022-07-18T08:18:49Z</time>
      </trkpt>
      <trkpt lat="44.30774" lon="5.22066">
        <ele>884</ele>
        <time>2022-07-18T08:18:50Z</time>
      </trkpt>
      <trkpt lat="44.30773" lon="5.22064">
        <ele>884</ele>
        <time>2022-07-18T08:18:51Z</time>
      </trkpt>
      <trkpt lat="44.30772" lon="5.22062">
        <ele>884.1</ele>
        <time>2022-07-18T08:18:52Z</time>
      </trkpt>
      <trkpt lat="44.30771" lon="5.22061">
        <ele>884.1</ele>
        <time>2022-07-18T08:18:53Z</time>
      </trkpt>
      <trkpt lat="44.3077" lon="5.22061">
        <ele>884.2</ele>
        <time>2022-07-18T08:18:54Z</time>
      </trkpt>
      <trkpt lat="44.3077" lon="5.2206">
        <ele>884.2</ele>
        <time>2022-07-18T08:18:55Z</time>
      </trkpt>
      <trkpt lat="44.30769" lon="5.22058">
        <ele>884.3</ele>
        <time>2022-07-18T08:18:56Z</time>
      </trkpt>
      <trkpt lat="44.30769" lon="5.22057">
        <ele>884.3</ele>
        <time>2022-07-18T08:18:57Z</time>
      </trkpt>
      <trkpt lat="44.30768" lon="5.22056">
        <ele>884.3</ele>
        <time>2022-07-18T08:18:58Z</time>
      </trkpt>
      <trkpt lat="44.30768" lon="5.22055">
        <ele>884.3</ele>
        <time>2022-07-18T08:18:59Z</time>
      </trkpt>
      <trkpt lat="44.30768" lon="5.22053">
        <ele>884.4</ele>
        <time>2022-07-18T08:19:00Z</time>
      </trkpt>
      <trkpt lat="44.30767" lon="5.22052">
        <ele>884.4</ele>
        <time>2022-07-18T08:19:01Z</time>
      </trkpt>
      <trkpt lat="44.30766" lon="5.22051">
        <ele>884.4</ele>
        <time>2022-07-18T08:19:02Z</time>
      </trkpt>
      <trkpt lat="44.30766" lon="5.2205">
        <ele>884.4</ele>
        <time>2022-07-18T08:19:03Z</time>
      </trkpt>
      <trkpt lat="44.30765" lon="5.22049">
        <ele>884.5</ele>
        <time>2022-07-18T08:19:04Z</time>
      </trkpt>
      <trkpt lat="44.30764" lon="5.22048">
        <ele>884.5</ele>
        <time>2022-07-18T08:19:05Z</time>
      </trkpt>
      <trkpt lat="44.30764" lon="5.22049">
        <ele>884.5</ele>
        <time>2022-07-18T08:19:06Z</time>
      </trkpt>
      <trkpt lat="44.30765" lon="5.22049">
        <ele>884.5</ele>
        <time>2022-07-18T08:19:07Z</time>
      </trkpt>
      <trkpt lat="44.30765" lon="5.2205">
        <ele>884.5</ele>
        <time>2022-07-18T08:19:08Z</time>
      </trkpt>
      <trkpt lat="44.30765" lon="5.2205">
        <ele>884.5</ele>
        <time>2022-07-18T08:19:09Z</time>
      </trkpt>
      <trkpt lat="44.30766" lon="5.22051">
        <ele>884.6</ele>
        <time>2022-07-18T08:19:10Z</time>
      </trkpt>
      <trkpt lat="44.30766" lon="5.22051">
        <ele>884.6</ele>
        <time>2022-07-18T08:19:11Z</time>
      </trkpt>
      <trkpt lat="44.30766" lon="5.22051">
        <ele>884.6</ele>
        <time>2022-07-18T08:19:12Z</time>
      </trkpt>
      <trkpt lat="44.30766" lon="5.22052">
        <ele>884.6</ele>
        <time>2022-07-18T08:19:13Z</time>
      </trkpt>
      <trkpt lat="44.30767" lon="5.22052">
        <ele>884.6</ele>
        <time>2022-07-18T08:19:14Z</time>
      </trkpt>
      <trkpt lat="44.30767" lon="5.22053">
        <ele>884.6</ele>
        <time>2022-07-18T08:19:15Z</time>
      </trkpt>
      <trkpt lat="44.30767" lon="5.22053">
        <ele>884.6</ele>
        <time>2022-07-18T08:20:08Z</time>
      </trkpt>
      <trkpt lat="44.30767" lon="5.22054">
        <ele>884.6</ele>
        <time>2022-07-18T08:20:09Z</time>
      </trkpt>
      <trkpt lat="44.30768" lon="5.22054">
        <ele>884.6</ele>
        <time>2022-07-18T08:20:10Z</time>
      </trkpt>
      <trkpt lat="44.30768" lon="5.22054">
        <ele>884.7</ele>
        <time>2022-07-18T08:20:11Z</time>
      </trkpt>
      <trkpt lat="44.30768" lon="5.22055">
        <ele>884.7</ele>
        <time>2022-07-18T08:20:12Z</time>
      </trkpt>
      <trkpt lat="44.30769" lon="5.22055">
        <ele>884.7</ele>
        <time>2022-07-18T08:20:13Z</time>
      </trkpt>
      <trkpt lat="44.30769" lon="5.22056">
        <ele>884.7</ele>
        <time>2022-07-18T08:20:14Z</time>
      </trkpt>
      <trkpt lat="44.30769" lon="5.22056">
        <ele>884.7</ele>
        <time>2022-07-18T08:20:15Z</time>
      </trkpt>
      <trkpt lat="44.30769" lon="5.22056">
        <ele>884.7</ele>
        <time>2022-07-18T08:20:16Z</time>
      </trkpt>
      <trkpt lat="44.3077" lon="5.22057">
        <ele>884.7</ele>
        <time>2022-07-18T08:20:17Z</time>
      </trkpt>
      <trkpt lat="44.3077" lon="5.22057">
        <ele>884.7</ele>
        <time>2022-07-18T08:20:18Z</time>
      </trkpt>
      <trkpt lat="44.3077" lon="5.22058">
        <ele>884.8</ele>
        <time>2022-07-18T08:20:19Z</time>
      </trkpt>
      <trkpt lat="44.30771" lon="5.22058">
        <ele>884.8</ele>
        <time>2022-07-18T08:21:37Z</time>
      </trkpt>
      <trkpt lat="44.30771" lon="5.22059">
        <ele>884.8</ele>
        <time>2022-07-18T08:21:38Z</time>
      </trkpt>
      <trkpt lat="44.30772" lon="5.22063">
        <ele>884.9</ele>
        <time>2022-07-18T08:21:39Z</time>
      </trkpt>
      <trkpt lat="44.30772" lon="5.22064">
        <ele>884.9</ele>
        <time>2022-07-18T08:21:40Z</time>
      </trkpt>
      <trkpt lat="44.30773" lon="5.22068">
        <ele>885</ele>
        <time>2022-07-18T08:21:41Z</time>
      </trkpt>
      <trkpt lat="44.30773" lon="5.22072">
        <ele>884.9</ele>
        <time>2022-07-18T08:21:42Z</time>
      </trkpt>
      <trkpt lat="44.30773" lon="5.22077">
        <ele>884.8</ele>
        <time>2022-07-18T08:21:43Z</time>
      </trkpt>
      <trkpt lat="44.30774" lon="5.22081">
        <ele>884.7</ele>
        <time>2022-07-18T08:21:44Z</time>
      </trkpt>
      <trkpt lat="44.30774" lon="5.22085">
        <ele>884.6</ele>
        <time>2022-07-18T08:21:45Z</time>
      </trkpt>
      <trkpt lat="44.30774" lon="5.22088">
        <ele>884.5</ele>
        <time>2022-07-18T08:21:46Z</time>
      </trkpt>
      <trkpt lat="44.30774" lon="5.22093">
        <ele>884.5</ele>
        <time>2022-07-18T08:21:47Z</time>
      </trkpt>
      <trkpt lat="44.30774" lon="5.22097">
        <ele>884.4</ele>
        <time>2022-07-18T08:21:48Z</time>
      </trkpt>
      <trkpt lat="44.30775" lon="5.22101">
        <ele>884.3</ele>
        <time>2022-07-18T08:21:49Z</time>
      </trkpt>
      <trkpt lat="44.30775" lon="5.22105">
        <ele>884.2</ele>
        <time>2022-07-18T08:21:50Z</time>
      </trkpt>
      <trkpt lat="44.30776" lon="5.2211">
        <ele>884</ele>
        <time>2022-07-18T08:21:51Z</time>
      </trkpt>
      <trkpt lat="44.30776" lon="5.22115">
        <ele>883.9</ele>
        <time>2022-07-18T08:21:52Z</time>
      </trkpt>
      <trkpt lat="44.30777" lon="5.2212">
        <ele>883.7</ele>
        <time>2022-07-18T08:21:53Z</time>
      </trkpt>
      <trkpt lat="44.30778" lon="5.22126">
        <ele>883.4</ele>
        <time>2022-07-18T08:21:54Z</time>
      </trkpt>
      <trkpt lat="44.3078" lon="5.22133">
        <ele>883.1</ele>
        <time>2022-07-18T08:21:55Z</time>
      </trkpt>
      <trkpt lat="44.30781" lon="5.2214">
        <ele>882.7</ele>
        <time>2022-07-18T08:21:56Z</time>
      </trkpt>
      <trkpt lat="44.30783" lon="5.22148">
        <ele>882.4</ele>
        <time>2022-07-18T08:21:57Z</time>
      </trkpt>
      <trkpt lat="44.30785" lon="5.22156">
        <ele>882</ele>
        <time>2022-07-18T08:21:58Z</time>
      </trkpt>
      <trkpt lat="44.30787" lon="5.22164">
        <ele>881.7</ele>
        <time>2022-07-18T08:21:59Z</time>
      </trkpt>
      <trkpt lat="44.30789" lon="5.22173">
        <ele>881.6</ele>
        <time>2022-07-18T08:22:00Z</time>
      </trkpt>
      <trkpt lat="44.30792" lon="5.2218">
        <ele>881.5</ele>
        <time>2022-07-18T08:22:01Z</time>
      </trkpt>
      <trkpt lat="44.30795" lon="5.22187">
        <ele>881.5</ele>
        <time>2022-07-18T08:22:02Z</time>
      </trkpt>
      <trkpt lat="44.30797" lon="5.22193">
        <ele>881.5</ele>
        <time>2022-07-18T08:22:03Z</time>
      </trkpt>
      <trkpt lat="44.30796" lon="5.222">
        <ele>881.6</ele>
        <time>2022-07-18T08:22:04Z</time>
      </trkpt>
      <trkpt lat="44.30798" lon="5.22206">
        <ele>881.7</ele>
        <time>2022-07-18T08:22:05Z</time>
      </trkpt>
      <trkpt lat="44.308" lon="5.22207">
        <ele>881.7</ele>
        <time>2022-07-18T08:22:06Z</time>
      </trkpt>
      <trkpt lat="44.30801" lon="5.22211">
        <ele>881.7</ele>
        <time>2022-07-18T08:22:07Z</time>
      </trkpt>
      <trkpt lat="44.30802" lon="5.22216">
        <ele>881.7</ele>
        <time>2022-07-18T08:22:08Z</time>
      </trkpt>
      <trkpt lat="44.30803" lon="5.22221">
        <ele>881.7</ele>
        <time>2022-07-18T08:22:09Z</time>
      </trkpt>
      <trkpt lat="44.30803" lon="5.22226">
        <ele>881.7</ele>
        <time>2022-07-18T08:22:10Z</time>
      </trkpt>
      <trkpt lat="44.30804" lon="5.2223">
        <ele>881.6</ele>
        <time>2022-07-18T08:22:11Z</time>
      </trkpt>
      <trkpt lat="44.30802" lon="5.22236">
        <ele>881.6</ele>
        <time>2022-07-18T08:22:12Z</time>
      </trkpt>
      <trkpt lat="44.30801" lon="5.22238">
        <ele>881.5</ele>
        <time>2022-07-18T08:22:13Z</time>
      </trkpt>
      <trkpt lat="44.308" lon="5.22243">
        <ele>881.5</ele>
        <time>2022-07-18T08:22:14Z</time>
      </trkpt>
      <trkpt lat="44.308" lon="5.22244">
        <ele>881.5</ele>
        <time>2022-07-18T08:22:15Z</time>
      </trkpt>
      <trkpt lat="44.30799" lon="5.2225">
        <ele>881.5</ele>
        <time>2022-07-18T08:22:16Z</time>
      </trkpt>
      <trkpt lat="44.30799" lon="5.22252">
        <ele>881.5</ele>
        <time>2022-07-18T08:22:17Z</time>
      </trkpt>
      <trkpt lat="44.30799" lon="5.22256">
        <ele>881.5</ele>
        <time>2022-07-18T08:22:18Z</time>
      </trkpt>
      <trkpt lat="44.30797" lon="5.22261">
        <ele>881.5</ele>
        <time>2022-07-18T08:22:19Z</time>
      </trkpt>
      <trkpt lat="44.30797" lon="5.22262">
        <ele>881.6</ele>
        <time>2022-07-18T08:22:20Z</time>
      </trkpt>
      <trkpt lat="44.30796" lon="5.22267">
        <ele>881.6</ele>
        <time>2022-07-18T08:22:21Z</time>
      </trkpt>
      <trkpt lat="44.30796" lon="5.22268">
        <ele>881.6</ele>
        <time>2022-07-18T08:22:22Z</time>
      </trkpt>
      <trkpt lat="44.30796" lon="5.22274">
        <ele>881.7</ele>
        <time>2022-07-18T08:22:23Z</time>
      </trkpt>
      <trkpt lat="44.30796" lon="5.22276">
        <ele>881.8</ele>
        <time>2022-07-18T08:22:24Z</time>
      </trkpt>
      <trkpt lat="44.30796" lon="5.22282">
        <ele>881.9</ele>
        <time>2022-07-18T08:22:25Z</time>
      </trkpt>
      <trkpt lat="44.30797" lon="5.22284">
        <ele>881.9</ele>
        <time>2022-07-18T08:22:26Z</time>
      </trkpt>
      <trkpt lat="44.30798" lon="5.2229">
        <ele>882</ele>
        <time>2022-07-18T08:22:27Z</time>
      </trkpt>
      <trkpt lat="44.30799" lon="5.22295">
        <ele>882.1</ele>
        <time>2022-07-18T08:22:28Z</time>
      </trkpt>
      <trkpt lat="44.308" lon="5.223">
        <ele>882.1</ele>
        <time>2022-07-18T08:22:29Z</time>
      </trkpt>
      <trkpt lat="44.30801" lon="5.22304">
        <ele>882.1</ele>
        <time>2022-07-18T08:22:30Z</time>
      </trkpt>
      <trkpt lat="44.30801" lon="5.22308">
        <ele>882.2</ele>
        <time>2022-07-18T08:22:31Z</time>
      </trkpt>
      <trkpt lat="44.30801" lon="5.22312">
        <ele>882.2</ele>
        <time>2022-07-18T08:22:32Z</time>
      </trkpt>
      <trkpt lat="44.30802" lon="5.22316">
        <ele>882.1</ele>
        <time>2022-07-18T08:22:33Z</time>
      </trkpt>
      <trkpt lat="44.30804" lon="5.22321">
        <ele>882.1</ele>
        <time>2022-07-18T08:22:34Z</time>
      </trkpt>
      <trkpt lat="44.30807" lon="5.22328">
        <ele>882</ele>
        <time>2022-07-18T08:22:35Z</time>
      </trkpt>
      <trkpt lat="44.30809" lon="5.22334">
        <ele>881.9</ele>
        <time>2022-07-18T08:22:36Z</time>
      </trkpt>
      <trkpt lat="44.30811" lon="5.22339">
        <ele>881.8</ele>
        <time>2022-07-18T08:22:37Z</time>
      </trkpt>
      <trkpt lat="44.30812" lon="5.22345">
        <ele>881.7</ele>
        <time>2022-07-18T08:22:38Z</time>
      </trkpt>
      <trkpt lat="44.30812" lon="5.2235">
        <ele>881.6</ele>
        <time>2022-07-18T08:22:39Z</time>
      </trkpt>
      <trkpt lat="44.30812" lon="5.22357">
        <ele>881.4</ele>
        <time>2022-07-18T08:22:40Z</time>
      </trkpt>
      <trkpt lat="44.30812" lon="5.22364">
        <ele>881.2</ele>
        <time>2022-07-18T08:22:41Z</time>
      </trkpt>
      <trkpt lat="44.30812" lon="5.2237">
        <ele>881.1</ele>
        <time>2022-07-18T08:22:42Z</time>
      </trkpt>
      <trkpt lat="44.30812" lon="5.22375">
        <ele>881</ele>
        <time>2022-07-18T08:22:43Z</time>
      </trkpt>
      <trkpt lat="44.30812" lon="5.22381">
        <ele>880.9</ele>
        <time>2022-07-18T08:22:44Z</time>
      </trkpt>
      <trkpt lat="44.30812" lon="5.22387">
        <ele>880.8</ele>
        <time>2022-07-18T08:22:45Z</time>
      </trkpt>
      <trkpt lat="44.30811" lon="5.22391">
        <ele>880.7</ele>
        <time>2022-07-18T08:22:46Z</time>
      </trkpt>
      <trkpt lat="44.3081" lon="5.22396">
        <ele>880.7</ele>
        <time>2022-07-18T08:22:47Z</time>
      </trkpt>
      <trkpt lat="44.3081" lon="5.22402">
        <ele>880.6</ele>
        <time>2022-07-18T08:22:48Z</time>
      </trkpt>
      <trkpt lat="44.3081" lon="5.22408">
        <ele>880.6</ele>
        <time>2022-07-18T08:22:49Z</time>
      </trkpt>
      <trkpt lat="44.3081" lon="5.22414">
        <ele>880.6</ele>
        <time>2022-07-18T08:22:50Z</time>
      </trkpt>
      <trkpt lat="44.3081" lon="5.22418">
        <ele>880.6</ele>
        <time>2022-07-18T08:22:51Z</time>
      </trkpt>
      <trkpt lat="44.30811" lon="5.22424">
        <ele>880.6</ele>
        <time>2022-07-18T08:22:52Z</time>
      </trkpt>
      <trkpt lat="44.30812" lon="5.2243">
        <ele>880.6</ele>
        <time>2022-07-18T08:22:53Z</time>
      </trkpt>
      <trkpt lat="44.30813" lon="5.22437">
        <ele>880.7</ele>
        <time>2022-07-18T08:22:54Z</time>
      </trkpt>
      <trkpt lat="44.30816" lon="5.22445">
        <ele>880.8</ele>
        <time>2022-07-18T08:22:55Z</time>
      </trkpt>
      <trkpt lat="44.30819" lon="5.22451">
        <ele>880.9</ele>
        <time>2022-07-18T08:22:56Z</time>
      </trkpt>
      <trkpt lat="44.30821" lon="5.22457">
        <ele>881</ele>
        <time>2022-07-18T08:22:57Z</time>
      </trkpt>
      <trkpt lat="44.30824" lon="5.22463">
        <ele>881</ele>
        <time>2022-07-18T08:22:58Z</time>
      </trkpt>
      <trkpt lat="44.30825" lon="5.22467">
        <ele>881.1</ele>
        <time>2022-07-18T08:22:59Z</time>
      </trkpt>
      <trkpt lat="44.30825" lon="5.22472">
        <ele>881.1</ele>
        <time>2022-07-18T08:23:00Z</time>
      </trkpt>
      <trkpt lat="44.30824" lon="5.22478">
        <ele>881.2</ele>
        <time>2022-07-18T08:23:01Z</time>
      </trkpt>
      <trkpt lat="44.30824" lon="5.22484">
        <ele>881.2</ele>
        <time>2022-07-18T08:23:02Z</time>
      </trkpt>
      <trkpt lat="44.30824" lon="5.22489">
        <ele>881.3</ele>
        <time>2022-07-18T08:23:03Z</time>
      </trkpt>
      <trkpt lat="44.30824" lon="5.22494">
        <ele>881.4</ele>
        <time>2022-07-18T08:23:04Z</time>
      </trkpt>
      <trkpt lat="44.30824" lon="5.22498">
        <ele>881.5</ele>
        <time>2022-07-18T08:23:05Z</time>
      </trkpt>
      <trkpt lat="44.30825" lon="5.22504">
        <ele>881.6</ele>
        <time>2022-07-18T08:23:06Z</time>
      </trkpt>
      <trkpt lat="44.30826" lon="5.22508">
        <ele>881.7</ele>
        <time>2022-07-18T08:23:07Z</time>
      </trkpt>
      <trkpt lat="44.30828" lon="5.22512">
        <ele>881.8</ele>
        <time>2022-07-18T08:23:08Z</time>
      </trkpt>
      <trkpt lat="44.3083" lon="5.22516">
        <ele>881.9</ele>
        <time>2022-07-18T08:23:09Z</time>
      </trkpt>
      <trkpt lat="44.30833" lon="5.22521">
        <ele>882</ele>
        <time>2022-07-18T08:23:10Z</time>
      </trkpt>
      <trkpt lat="44.30835" lon="5.22527">
        <ele>882.1</ele>
        <time>2022-07-18T08:23:11Z</time>
      </trkpt>
      <trkpt lat="44.30836" lon="5.22531">
        <ele>882.1</ele>
        <time>2022-07-18T08:23:12Z</time>
      </trkpt>
      <trkpt lat="44.30838" lon="5.22536">
        <ele>882.2</ele>
        <time>2022-07-18T08:23:13Z</time>
      </trkpt>
      <trkpt lat="44.3084" lon="5.2254">
        <ele>882.3</ele>
        <time>2022-07-18T08:23:14Z</time>
      </trkpt>
      <trkpt lat="44.30841" lon="5.22544">
        <ele>882.3</ele>
        <time>2022-07-18T08:23:15Z</time>
      </trkpt>
      <trkpt lat="44.30843" lon="5.22549">
        <ele>882.4</ele>
        <time>2022-07-18T08:23:16Z</time>
      </trkpt>
      <trkpt lat="44.30844" lon="5.22553">
        <ele>882.4</ele>
        <time>2022-07-18T08:23:17Z</time>
      </trkpt>
      <trkpt lat="44.30845" lon="5.22558">
        <ele>882.5</ele>
        <time>2022-07-18T08:23:18Z</time>
      </trkpt>
      <trkpt lat="44.30848" lon="5.22564">
        <ele>882.5</ele>
        <time>2022-07-18T08:23:19Z</time>
      </trkpt>
      <trkpt lat="44.30851" lon="5.22571">
        <ele>882.5</ele>
        <time>2022-07-18T08:23:20Z</time>
      </trkpt>
      <trkpt lat="44.30854" lon="5.22578">
        <ele>882.4</ele>
        <time>2022-07-18T08:23:21Z</time>
      </trkpt>
      <trkpt lat="44.30857" lon="5.22584">
        <ele>882.4</ele>
        <time>2022-07-18T08:23:22Z</time>
      </trkpt>
      <trkpt lat="44.30859" lon="5.22592">
        <ele>882.3</ele>
        <time>2022-07-18T08:23:23Z</time>
      </trkpt>
      <trkpt lat="44.30864" lon="5.22609">
        <ele>881.9</ele>
        <time>2022-07-18T08:23:24Z</time>
      </trkpt>
      <trkpt lat="44.30865" lon="5.22616">
        <ele>881.7</ele>
        <time>2022-07-18T08:23:25Z</time>
      </trkpt>
      <trkpt lat="44.30869" lon="5.22622">
        <ele>881.6</ele>
        <time>2022-07-18T08:23:26Z</time>
      </trkpt>
      <trkpt lat="44.30872" lon="5.2263">
        <ele>881.5</ele>
        <time>2022-07-18T08:23:27Z</time>
      </trkpt>
      <trkpt lat="44.30874" lon="5.22637">
        <ele>881.6</ele>
        <time>2022-07-18T08:23:28Z</time>
      </trkpt>
      <trkpt lat="44.30876" lon="5.22641">
        <ele>881.7</ele>
        <time>2022-07-18T08:23:29Z</time>
      </trkpt>
      <trkpt lat="44.30879" lon="5.22644">
        <ele>881.8</ele>
        <time>2022-07-18T08:23:30Z</time>
      </trkpt>
      <trkpt lat="44.3088" lon="5.22649">
        <ele>881.9</ele>
        <time>2022-07-18T08:23:31Z</time>
      </trkpt>
      <trkpt lat="44.30882" lon="5.22653">
        <ele>882</ele>
        <time>2022-07-18T08:23:32Z</time>
      </trkpt>
      <trkpt lat="44.30883" lon="5.22657">
        <ele>882</ele>
        <time>2022-07-18T08:23:33Z</time>
      </trkpt>
      <trkpt lat="44.30886" lon="5.22664">
        <ele>882.2</ele>
        <time>2022-07-18T08:23:34Z</time>
      </trkpt>
      <trkpt lat="44.30888" lon="5.22669">
        <ele>882.3</ele>
        <time>2022-07-18T08:23:35Z</time>
      </trkpt>
      <trkpt lat="44.30888" lon="5.22675">
        <ele>882.3</ele>
        <time>2022-07-18T08:23:36Z</time>
      </trkpt>
      <trkpt lat="44.30887" lon="5.2268">
        <ele>882.4</ele>
        <time>2022-07-18T08:23:37Z</time>
      </trkpt>
      <trkpt lat="44.30887" lon="5.22684">
        <ele>883.1</ele>
        <time>2022-07-18T08:23:38Z</time>
      </trkpt>
      <trkpt lat="44.30886" lon="5.22689">
        <ele>883.5</ele>
        <time>2022-07-18T08:23:39Z</time>
      </trkpt>
      <trkpt lat="44.30885" lon="5.22694">
        <ele>883.9</ele>
        <time>2022-07-18T08:23:40Z</time>
      </trkpt>
      <trkpt lat="44.30885" lon="5.227">
        <ele>884.3</ele>
        <time>2022-07-18T08:23:41Z</time>
      </trkpt>
      <trkpt lat="44.30885" lon="5.22705">
        <ele>884.7</ele>
        <time>2022-07-18T08:23:42Z</time>
      </trkpt>
      <trkpt lat="44.30884" lon="5.2271">
        <ele>885</ele>
        <time>2022-07-18T08:23:43Z</time>
      </trkpt>
      <trkpt lat="44.30884" lon="5.22714">
        <ele>885.3</ele>
        <time>2022-07-18T08:23:44Z</time>
      </trkpt>
      <trkpt lat="44.30884" lon="5.22718">
        <ele>885.6</ele>
        <time>2022-07-18T08:23:45Z</time>
      </trkpt>
      <trkpt lat="44.30883" lon="5.22722">
        <ele>885.9</ele>
        <time>2022-07-18T08:23:46Z</time>
      </trkpt>
      <trkpt lat="44.30883" lon="5.22723">
        <ele>885.9</ele>
        <time>2022-07-18T08:23:47Z</time>
      </trkpt>
      <trkpt lat="44.30881" lon="5.22725">
        <ele>886.1</ele>
        <time>2022-07-18T08:23:48Z</time>
      </trkpt>
      <trkpt lat="44.3088" lon="5.22726">
        <ele>886.2</ele>
        <time>2022-07-18T08:23:49Z</time>
      </trkpt>
      <trkpt lat="44.30879" lon="5.22727">
        <ele>886.3</ele>
        <time>2022-07-18T08:23:50Z</time>
      </trkpt>
      <trkpt lat="44.30878" lon="5.22728">
        <ele>886.4</ele>
        <time>2022-07-18T08:23:51Z</time>
      </trkpt>
      <trkpt lat="44.30877" lon="5.2273">
        <ele>886.5</ele>
        <time>2022-07-18T08:23:52Z</time>
      </trkpt>
      <trkpt lat="44.30876" lon="5.22732">
        <ele>886.7</ele>
        <time>2022-07-18T08:23:53Z</time>
      </trkpt>
      <trkpt lat="44.30876" lon="5.22734">
        <ele>886.8</ele>
        <time>2022-07-18T08:23:54Z</time>
      </trkpt>
      <trkpt lat="44.30875" lon="5.22739">
        <ele>886.8</ele>
        <time>2022-07-18T08:23:55Z</time>
      </trkpt>
      <trkpt lat="44.30875" lon="5.22741">
        <ele>886.8</ele>
        <time>2022-07-18T08:23:56Z</time>
      </trkpt>
      <trkpt lat="44.30874" lon="5.22744">
        <ele>886.8</ele>
        <time>2022-07-18T08:23:57Z</time>
      </trkpt>
      <trkpt lat="44.30873" lon="5.22745">
        <ele>886.9</ele>
        <time>2022-07-18T08:23:58Z</time>
      </trkpt>
      <trkpt lat="44.30872" lon="5.22748">
        <ele>886.9</ele>
        <time>2022-07-18T08:23:59Z</time>
      </trkpt>
      <trkpt lat="44.30871" lon="5.22749">
        <ele>886.8</ele>
        <time>2022-07-18T08:24:00Z</time>
      </trkpt>
      <trkpt lat="44.3087" lon="5.2275">
        <ele>886.8</ele>
        <time>2022-07-18T08:24:01Z</time>
      </trkpt>
      <trkpt lat="44.30869" lon="5.22752">
        <ele>886.8</ele>
        <time>2022-07-18T08:24:02Z</time>
      </trkpt>
      <trkpt lat="44.30868" lon="5.22757">
        <ele>886.8</ele>
        <time>2022-07-18T08:24:03Z</time>
      </trkpt>
      <trkpt lat="44.30867" lon="5.22758">
        <ele>886.8</ele>
        <time>2022-07-18T08:24:04Z</time>
      </trkpt>
      <trkpt lat="44.30866" lon="5.22763">
        <ele>886.7</ele>
        <time>2022-07-18T08:24:05Z</time>
      </trkpt>
      <trkpt lat="44.30865" lon="5.22764">
        <ele>886.7</ele>
        <time>2022-07-18T08:24:06Z</time>
      </trkpt>
      <trkpt lat="44.30864" lon="5.22768">
        <ele>886.6</ele>
        <time>2022-07-18T08:24:07Z</time>
      </trkpt>
      <trkpt lat="44.30862" lon="5.22772">
        <ele>886.5</ele>
        <time>2022-07-18T08:24:08Z</time>
      </trkpt>
      <trkpt lat="44.3086" lon="5.22776">
        <ele>886.4</ele>
        <time>2022-07-18T08:24:09Z</time>
      </trkpt>
      <trkpt lat="44.30858" lon="5.22779">
        <ele>886.3</ele>
        <time>2022-07-18T08:24:10Z</time>
      </trkpt>
      <trkpt lat="44.30856" lon="5.22784">
        <ele>886.2</ele>
        <time>2022-07-18T08:24:11Z</time>
      </trkpt>
      <trkpt lat="44.30854" lon="5.22788">
        <ele>886.1</ele>
        <time>2022-07-18T08:24:12Z</time>
      </trkpt>
      <trkpt lat="44.30851" lon="5.22792">
        <ele>885.9</ele>
        <time>2022-07-18T08:24:13Z</time>
      </trkpt>
      <trkpt lat="44.30849" lon="5.22797">
        <ele>885.8</ele>
        <time>2022-07-18T08:24:14Z</time>
      </trkpt>
      <trkpt lat="44.30847" lon="5.22803">
        <ele>885.6</ele>
        <time>2022-07-18T08:24:15Z</time>
      </trkpt>
      <trkpt lat="44.30846" lon="5.22809">
        <ele>885.4</ele>
        <time>2022-07-18T08:24:16Z</time>
      </trkpt>
      <trkpt lat="44.30845" lon="5.22814">
        <ele>885.2</ele>
        <time>2022-07-18T08:24:17Z</time>
      </trkpt>
      <trkpt lat="44.30844" lon="5.22825">
        <ele>884.8</ele>
        <time>2022-07-18T08:24:18Z</time>
      </trkpt>
      <trkpt lat="44.3084" lon="5.22829">
        <ele>884.6</ele>
        <time>2022-07-18T08:24:19Z</time>
      </trkpt>
      <trkpt lat="44.30838" lon="5.22834">
        <ele>884.4</ele>
        <time>2022-07-18T08:24:20Z</time>
      </trkpt>
      <trkpt lat="44.30836" lon="5.22841">
        <ele>884.1</ele>
        <time>2022-07-18T08:24:21Z</time>
      </trkpt>
      <trkpt lat="44.30835" lon="5.22847">
        <ele>883.9</ele>
        <time>2022-07-18T08:24:22Z</time>
      </trkpt>
      <trkpt lat="44.30838" lon="5.2286">
        <ele>883.4</ele>
        <time>2022-07-18T08:24:23Z</time>
      </trkpt>
      <trkpt lat="44.30836" lon="5.22865">
        <ele>883.2</ele>
        <time>2022-07-18T08:24:24Z</time>
      </trkpt>
      <trkpt lat="44.30832" lon="5.22872">
        <ele>882.9</ele>
        <time>2022-07-18T08:24:25Z</time>
      </trkpt>
      <trkpt lat="44.30829" lon="5.22878">
        <ele>882.6</ele>
        <time>2022-07-18T08:24:26Z</time>
      </trkpt>
      <trkpt lat="44.30826" lon="5.22886">
        <ele>882.3</ele>
        <time>2022-07-18T08:24:27Z</time>
      </trkpt>
      <trkpt lat="44.3083" lon="5.22902">
        <ele>881.6</ele>
        <time>2022-07-18T08:24:28Z</time>
      </trkpt>
      <trkpt lat="44.30828" lon="5.22911">
        <ele>881.3</ele>
        <time>2022-07-18T08:24:29Z</time>
      </trkpt>
      <trkpt lat="44.30826" lon="5.22919">
        <ele>881</ele>
        <time>2022-07-18T08:24:30Z</time>
      </trkpt>
      <trkpt lat="44.30821" lon="5.22926">
        <ele>880.6</ele>
        <time>2022-07-18T08:24:31Z</time>
      </trkpt>
      <trkpt lat="44.3082" lon="5.22933">
        <ele>880.4</ele>
        <time>2022-07-18T08:24:32Z</time>
      </trkpt>
      <trkpt lat="44.30818" lon="5.22942">
        <ele>880.1</ele>
        <time>2022-07-18T08:24:33Z</time>
      </trkpt>
      <trkpt lat="44.30818" lon="5.22962">
        <ele>879.5</ele>
        <time>2022-07-18T08:24:34Z</time>
      </trkpt>
      <trkpt lat="44.30815" lon="5.2297">
        <ele>879.2</ele>
        <time>2022-07-18T08:24:35Z</time>
      </trkpt>
      <trkpt lat="44.30809" lon="5.22978">
        <ele>878.9</ele>
        <time>2022-07-18T08:24:36Z</time>
      </trkpt>
      <trkpt lat="44.30806" lon="5.22987">
        <ele>878.5</ele>
        <time>2022-07-18T08:24:37Z</time>
      </trkpt>
      <trkpt lat="44.30799" lon="5.22992">
        <ele>878.1</ele>
        <time>2022-07-18T08:24:38Z</time>
      </trkpt>
      <trkpt lat="44.30792" lon="5.22995">
        <ele>877.7</ele>
        <time>2022-07-18T08:24:39Z</time>
      </trkpt>
      <trkpt lat="44.30786" lon="5.23005">
        <ele>877.1</ele>
        <time>2022-07-18T08:24:40Z</time>
      </trkpt>
      <trkpt lat="44.3078" lon="5.23016">
        <ele>876.5</ele>
        <time>2022-07-18T08:24:41Z</time>
      </trkpt>
      <trkpt lat="44.30777" lon="5.23029">
        <ele>875.9</ele>
        <time>2022-07-18T08:24:42Z</time>
      </trkpt>
      <trkpt lat="44.30772" lon="5.23038">
        <ele>875.4</ele>
        <time>2022-07-18T08:24:43Z</time>
      </trkpt>
      <trkpt lat="44.30768" lon="5.23046">
        <ele>875</ele>
        <time>2022-07-18T08:24:44Z</time>
      </trkpt>
      <trkpt lat="44.30762" lon="5.23052">
        <ele>874.5</ele>
        <time>2022-07-18T08:24:45Z</time>
      </trkpt>
      <trkpt lat="44.30753" lon="5.23057">
        <ele>874</ele>
        <time>2022-07-18T08:24:46Z</time>
      </trkpt>
      <trkpt lat="44.3075" lon="5.23068">
        <ele>873.5</ele>
        <time>2022-07-18T08:24:47Z</time>
      </trkpt>
      <trkpt lat="44.30744" lon="5.23076">
        <ele>873</ele>
        <time>2022-07-18T08:24:48Z</time>
      </trkpt>
      <trkpt lat="44.3074" lon="5.23089">
        <ele>872.4</ele>
        <time>2022-07-18T08:24:49Z</time>
      </trkpt>
      <trkpt lat="44.30735" lon="5.231">
        <ele>871.9</ele>
        <time>2022-07-18T08:24:50Z</time>
      </trkpt>
      <trkpt lat="44.30729" lon="5.23112">
        <ele>871.3</ele>
        <time>2022-07-18T08:24:51Z</time>
      </trkpt>
      <trkpt lat="44.30724" lon="5.23121">
        <ele>870.8</ele>
        <time>2022-07-18T08:24:52Z</time>
      </trkpt>
      <trkpt lat="44.30716" lon="5.23128">
        <ele>870.3</ele>
        <time>2022-07-18T08:24:53Z</time>
      </trkpt>
      <trkpt lat="44.30712" lon="5.23137">
        <ele>869.7</ele>
        <time>2022-07-18T08:24:54Z</time>
      </trkpt>
      <trkpt lat="44.30707" lon="5.23147">
        <ele>869.2</ele>
        <time>2022-07-18T08:24:55Z</time>
      </trkpt>
      <trkpt lat="44.30701" lon="5.23156">
        <ele>868.6</ele>
        <time>2022-07-18T08:24:56Z</time>
      </trkpt>
      <trkpt lat="44.30698" lon="5.23167">
        <ele>868.1</ele>
        <time>2022-07-18T08:24:57Z</time>
      </trkpt>
      <trkpt lat="44.30693" lon="5.23173">
        <ele>867.8</ele>
        <time>2022-07-18T08:24:58Z</time>
      </trkpt>
      <trkpt lat="44.30691" lon="5.23187">
        <ele>867.3</ele>
        <time>2022-07-18T08:24:59Z</time>
      </trkpt>
      <trkpt lat="44.30686" lon="5.23195">
        <ele>866.9</ele>
        <time>2022-07-18T08:25:00Z</time>
      </trkpt>
      <trkpt lat="44.30681" lon="5.23202">
        <ele>866.5</ele>
        <time>2022-07-18T08:25:01Z</time>
      </trkpt>
      <trkpt lat="44.30676" lon="5.23209">
        <ele>866.2</ele>
        <time>2022-07-18T08:25:02Z</time>
      </trkpt>
      <trkpt lat="44.3067" lon="5.23215">
        <ele>865.8</ele>
        <time>2022-07-18T08:25:03Z</time>
      </trkpt>
      <trkpt lat="44.30665" lon="5.23222">
        <ele>865.5</ele>
        <time>2022-07-18T08:25:04Z</time>
      </trkpt>
      <trkpt lat="44.30659" lon="5.23229">
        <ele>865.1</ele>
        <time>2022-07-18T08:25:05Z</time>
      </trkpt>
      <trkpt lat="44.30654" lon="5.2324">
        <ele>864.6</ele>
        <time>2022-07-18T08:25:06Z</time>
      </trkpt>
      <trkpt lat="44.30653" lon="5.23255">
        <ele>864.1</ele>
        <time>2022-07-18T08:25:07Z</time>
      </trkpt>
      <trkpt lat="44.3065" lon="5.23263">
        <ele>863.8</ele>
        <time>2022-07-18T08:25:08Z</time>
      </trkpt>
      <trkpt lat="44.30645" lon="5.23274">
        <ele>863.3</ele>
        <time>2022-07-18T08:25:09Z</time>
      </trkpt>
      <trkpt lat="44.30639" lon="5.23284">
        <ele>862.9</ele>
        <time>2022-07-18T08:25:10Z</time>
      </trkpt>
      <trkpt lat="44.30635" lon="5.23292">
        <ele>862.6</ele>
        <time>2022-07-18T08:25:11Z</time>
      </trkpt>
      <trkpt lat="44.3063" lon="5.233">
        <ele>862.3</ele>
        <time>2022-07-18T08:25:12Z</time>
      </trkpt>
      <trkpt lat="44.30626" lon="5.23309">
        <ele>861.9</ele>
        <time>2022-07-18T08:25:13Z</time>
      </trkpt>
      <trkpt lat="44.3062" lon="5.23318">
        <ele>861.6</ele>
        <time>2022-07-18T08:25:14Z</time>
      </trkpt>
      <trkpt lat="44.30616" lon="5.23326">
        <ele>861.2</ele>
        <time>2022-07-18T08:25:15Z</time>
      </trkpt>
      <trkpt lat="44.30611" lon="5.23334">
        <ele>860.8</ele>
        <time>2022-07-18T08:25:16Z</time>
      </trkpt>
      <trkpt lat="44.30606" lon="5.23342">
        <ele>860.4</ele>
        <time>2022-07-18T08:25:17Z</time>
      </trkpt>
      <trkpt lat="44.30601" lon="5.2335">
        <ele>860</ele>
        <time>2022-07-18T08:25:18Z</time>
      </trkpt>
      <trkpt lat="44.30596" lon="5.23357">
        <ele>859.7</ele>
        <time>2022-07-18T08:25:19Z</time>
      </trkpt>
      <trkpt lat="44.30591" lon="5.23364">
        <ele>859.4</ele>
        <time>2022-07-18T08:25:20Z</time>
      </trkpt>
      <trkpt lat="44.30587" lon="5.2337">
        <ele>859.1</ele>
        <time>2022-07-18T08:25:21Z</time>
      </trkpt>
      <trkpt lat="44.30582" lon="5.23376">
        <ele>858.8</ele>
        <time>2022-07-18T08:25:22Z</time>
      </trkpt>
      <trkpt lat="44.30577" lon="5.23382">
        <ele>858.6</ele>
        <time>2022-07-18T08:25:23Z</time>
      </trkpt>
      <trkpt lat="44.30572" lon="5.23387">
        <ele>858.4</ele>
        <time>2022-07-18T08:25:24Z</time>
      </trkpt>
      <trkpt lat="44.30566" lon="5.23394">
        <ele>858.1</ele>
        <time>2022-07-18T08:25:25Z</time>
      </trkpt>
      <trkpt lat="44.30561" lon="5.234">
        <ele>857.9</ele>
        <time>2022-07-18T08:25:26Z</time>
      </trkpt>
      <trkpt lat="44.30556" lon="5.23406">
        <ele>857.6</ele>
        <time>2022-07-18T08:25:27Z</time>
      </trkpt>
      <trkpt lat="44.3055" lon="5.23411">
        <ele>857.3</ele>
        <time>2022-07-18T08:25:28Z</time>
      </trkpt>
      <trkpt lat="44.30545" lon="5.23416">
        <ele>857</ele>
        <time>2022-07-18T08:25:29Z</time>
      </trkpt>
      <trkpt lat="44.30539" lon="5.23422">
        <ele>856.7</ele>
        <time>2022-07-18T08:25:30Z</time>
      </trkpt>
      <trkpt lat="44.30534" lon="5.23424">
        <ele>856.5</ele>
        <time>2022-07-18T08:25:31Z</time>
      </trkpt>
      <trkpt lat="44.30529" lon="5.23428">
        <ele>856.3</ele>
        <time>2022-07-18T08:25:32Z</time>
      </trkpt>
      <trkpt lat="44.30524" lon="5.23434">
        <ele>856</ele>
        <time>2022-07-18T08:25:33Z</time>
      </trkpt>
      <trkpt lat="44.30519" lon="5.23434">
        <ele>855.8</ele>
        <time>2022-07-18T08:25:34Z</time>
      </trkpt>
      <trkpt lat="44.30513" lon="5.23435">
        <ele>855.5</ele>
        <time>2022-07-18T08:25:35Z</time>
      </trkpt>
      <trkpt lat="44.30507" lon="5.23437">
        <ele>855.2</ele>
        <time>2022-07-18T08:25:36Z</time>
      </trkpt>
      <trkpt lat="44.30499" lon="5.23442">
        <ele>854.8</ele>
        <time>2022-07-18T08:25:37Z</time>
      </trkpt>
      <trkpt lat="44.30491" lon="5.23448">
        <ele>854.4</ele>
        <time>2022-07-18T08:25:38Z</time>
      </trkpt>
      <trkpt lat="44.30484" lon="5.23452">
        <ele>854</ele>
        <time>2022-07-18T08:25:39Z</time>
      </trkpt>
      <trkpt lat="44.30481" lon="5.23459">
        <ele>853.7</ele>
        <time>2022-07-18T08:25:40Z</time>
      </trkpt>
      <trkpt lat="44.30479" lon="5.2347">
        <ele>853.2</ele>
        <time>2022-07-18T08:25:41Z</time>
      </trkpt>
      <trkpt lat="44.30476" lon="5.23477">
        <ele>852.8</ele>
        <time>2022-07-18T08:25:42Z</time>
      </trkpt>
      <trkpt lat="44.30473" lon="5.23482">
        <ele>852.5</ele>
        <time>2022-07-18T08:25:43Z</time>
      </trkpt>
      <trkpt lat="44.30468" lon="5.23487">
        <ele>852.1</ele>
        <time>2022-07-18T08:25:44Z</time>
      </trkpt>
      <trkpt lat="44.30461" lon="5.23491">
        <ele>851.7</ele>
        <time>2022-07-18T08:25:45Z</time>
      </trkpt>
      <trkpt lat="44.3045" lon="5.2349">
        <ele>851.2</ele>
        <time>2022-07-18T08:25:46Z</time>
      </trkpt>
      <trkpt lat="44.30442" lon="5.23494">
        <ele>850.9</ele>
        <time>2022-07-18T08:25:47Z</time>
      </trkpt>
      <trkpt lat="44.30439" lon="5.23509">
        <ele>850.5</ele>
        <time>2022-07-18T08:25:48Z</time>
      </trkpt>
      <trkpt lat="44.30433" lon="5.23518">
        <ele>850.2</ele>
        <time>2022-07-18T08:25:49Z</time>
      </trkpt>
      <trkpt lat="44.30428" lon="5.23523">
        <ele>850</ele>
        <time>2022-07-18T08:25:50Z</time>
      </trkpt>
      <trkpt lat="44.30423" lon="5.23529">
        <ele>849.7</ele>
        <time>2022-07-18T08:25:51Z</time>
      </trkpt>
      <trkpt lat="44.30414" lon="5.23532">
        <ele>849.4</ele>
        <time>2022-07-18T08:25:52Z</time>
      </trkpt>
      <trkpt lat="44.30409" lon="5.23537">
        <ele>849.1</ele>
        <time>2022-07-18T08:25:53Z</time>
      </trkpt>
      <trkpt lat="44.30403" lon="5.23545">
        <ele>848.8</ele>
        <time>2022-07-18T08:25:54Z</time>
      </trkpt>
      <trkpt lat="44.30396" lon="5.23552">
        <ele>848.4</ele>
        <time>2022-07-18T08:25:55Z</time>
      </trkpt>
      <trkpt lat="44.3039" lon="5.23557">
        <ele>848.2</ele>
        <time>2022-07-18T08:25:56Z</time>
      </trkpt>
      <trkpt lat="44.30383" lon="5.23561">
        <ele>848</ele>
        <time>2022-07-18T08:25:57Z</time>
      </trkpt>
      <trkpt lat="44.30378" lon="5.23563">
        <ele>847.8</ele>
        <time>2022-07-18T08:25:58Z</time>
      </trkpt>
      <trkpt lat="44.30373" lon="5.23565">
        <ele>847.6</ele>
        <time>2022-07-18T08:25:59Z</time>
      </trkpt>
      <trkpt lat="44.30369" lon="5.23566">
        <ele>847.5</ele>
        <time>2022-07-18T08:26:00Z</time>
      </trkpt>
      <trkpt lat="44.30364" lon="5.23569">
        <ele>847.2</ele>
        <time>2022-07-18T08:26:01Z</time>
      </trkpt>
      <trkpt lat="44.30361" lon="5.23571">
        <ele>847.1</ele>
        <time>2022-07-18T08:26:02Z</time>
      </trkpt>
      <trkpt lat="44.30357" lon="5.23566">
        <ele>846.8</ele>
        <time>2022-07-18T08:26:03Z</time>
      </trkpt>
      <trkpt lat="44.30356" lon="5.23567">
        <ele>846.8</ele>
        <time>2022-07-18T08:26:04Z</time>
      </trkpt>
      <trkpt lat="44.30356" lon="5.23571">
        <ele>846.6</ele>
        <time>2022-07-18T08:26:05Z</time>
      </trkpt>
      <trkpt lat="44.30354" lon="5.2357">
        <ele>846.5</ele>
        <time>2022-07-18T08:26:06Z</time>
      </trkpt>
      <trkpt lat="44.30354" lon="5.23571">
        <ele>846.5</ele>
        <time>2022-07-18T08:26:07Z</time>
      </trkpt>
      <trkpt lat="44.30355" lon="5.23574">
        <ele>846.4</ele>
        <time>2022-07-18T08:26:08Z</time>
      </trkpt>
      <trkpt lat="44.30357" lon="5.23573">
        <ele>846.3</ele>
        <time>2022-07-18T08:26:09Z</time>
      </trkpt>
      <trkpt lat="44.30357" lon="5.23573">
        <ele>846.3</ele>
        <time>2022-07-18T08:26:10Z</time>
      </trkpt>
      <trkpt lat="44.30357" lon="5.23573">
        <ele>846.3</ele>
        <time>2022-07-18T08:26:11Z</time>
      </trkpt>
      <trkpt lat="44.30357" lon="5.23573">
        <ele>846.3</ele>
        <time>2022-07-18T08:26:12Z</time>
      </trkpt>
      <trkpt lat="44.30357" lon="5.23573">
        <ele>846.3</ele>
        <time>2022-07-18T08:26:13Z</time>
      </trkpt>
      <trkpt lat="44.30357" lon="5.23573">
        <ele>846.3</ele>
        <time>2022-07-18T08:26:14Z</time>
      </trkpt>
      <trkpt lat="44.30357" lon="5.23573">
        <ele>846.3</ele>
        <time>2022-07-18T08:26:15Z</time>
      </trkpt>
      <trkpt lat="44.30357" lon="5.23573">
        <ele>846.3</ele>
        <time>2022-07-18T08:26:16Z</time>
      </trkpt>
      <trkpt lat="44.30357" lon="5.23573">
        <ele>846.3</ele>
        <time>2022-07-18T08:26:17Z</time>
      </trkpt>
      <trkpt lat="44.30357" lon="5.23573">
        <ele>846.3</ele>
        <time>2022-07-18T08:26:18Z</time>
      </trkpt>
      <trkpt lat="44.30362" lon="5.23573">
        <ele>846.1</ele>
        <time>2022-07-18T08:28:21Z</time>
      </trkpt>
      <trkpt lat="44.30364" lon="5.23573">
        <ele>846</ele>
        <time>2022-07-18T08:28:22Z</time>
      </trkpt>
      <trkpt lat="44.30368" lon="5.23573">
        <ele>845.9</ele>
        <time>2022-07-18T08:28:23Z</time>
      </trkpt>
      <trkpt lat="44.30369" lon="5.23572">
        <ele>845.8</ele>
        <time>2022-07-18T08:28:24Z</time>
      </trkpt>
      <trkpt lat="44.30373" lon="5.23571">
        <ele>845.7</ele>
        <time>2022-07-18T08:28:25Z</time>
      </trkpt>
      <trkpt lat="44.30374" lon="5.2357">
        <ele>845.7</ele>
        <time>2022-07-18T08:28:26Z</time>
      </trkpt>
      <trkpt lat="44.30376" lon="5.23567">
        <ele>845.3</ele>
        <time>2022-07-18T08:28:27Z</time>
      </trkpt>
      <trkpt lat="44.30377" lon="5.23563">
        <ele>845.1</ele>
        <time>2022-07-18T08:28:28Z</time>
      </trkpt>
      <trkpt lat="44.30378" lon="5.23558">
        <ele>844.8</ele>
        <time>2022-07-18T08:28:29Z</time>
      </trkpt>
      <trkpt lat="44.30378" lon="5.23553">
        <ele>844.5</ele>
        <time>2022-07-18T08:28:30Z</time>
      </trkpt>
      <trkpt lat="44.30376" lon="5.23546">
        <ele>844</ele>
        <time>2022-07-18T08:28:31Z</time>
      </trkpt>
      <trkpt lat="44.30375" lon="5.23539">
        <ele>843.7</ele>
        <time>2022-07-18T08:28:32Z</time>
      </trkpt>
      <trkpt lat="44.30375" lon="5.23532">
        <ele>843.3</ele>
        <time>2022-07-18T08:28:33Z</time>
      </trkpt>
      <trkpt lat="44.30375" lon="5.2352">
        <ele>842.6</ele>
        <time>2022-07-18T08:28:34Z</time>
      </trkpt>
      <trkpt lat="44.30372" lon="5.23509">
        <ele>841.9</ele>
        <time>2022-07-18T08:28:35Z</time>
      </trkpt>
      <trkpt lat="44.30369" lon="5.235">
        <ele>841.3</ele>
        <time>2022-07-18T08:28:36Z</time>
      </trkpt>
      <trkpt lat="44.30365" lon="5.23492">
        <ele>840.6</ele>
        <time>2022-07-18T08:28:37Z</time>
      </trkpt>
      <trkpt lat="44.30358" lon="5.23484">
        <ele>839.9</ele>
        <time>2022-07-18T08:28:38Z</time>
      </trkpt>
      <trkpt lat="44.30352" lon="5.23475">
        <ele>839.3</ele>
        <time>2022-07-18T08:28:39Z</time>
      </trkpt>
      <trkpt lat="44.30348" lon="5.23468">
        <ele>838.8</ele>
        <time>2022-07-18T08:28:40Z</time>
      </trkpt>
      <trkpt lat="44.30343" lon="5.23462">
        <ele>838.4</ele>
        <time>2022-07-18T08:28:41Z</time>
      </trkpt>
      <trkpt lat="44.3034" lon="5.23458">
        <ele>838.1</ele>
        <time>2022-07-18T08:28:42Z</time>
      </trkpt>
      <trkpt lat="44.30337" lon="5.23454">
        <ele>837.8</ele>
        <time>2022-07-18T08:28:43Z</time>
      </trkpt>
      <trkpt lat="44.30335" lon="5.23449">
        <ele>837.5</ele>
        <time>2022-07-18T08:28:44Z</time>
      </trkpt>
      <trkpt lat="44.30332" lon="5.23446">
        <ele>837.3</ele>
        <time>2022-07-18T08:28:45Z</time>
      </trkpt>
      <trkpt lat="44.3033" lon="5.23441">
        <ele>836.9</ele>
        <time>2022-07-18T08:28:46Z</time>
      </trkpt>
      <trkpt lat="44.30328" lon="5.23437">
        <ele>836.6</ele>
        <time>2022-07-18T08:28:47Z</time>
      </trkpt>
      <trkpt lat="44.30328" lon="5.23427">
        <ele>836</ele>
        <time>2022-07-18T08:28:48Z</time>
      </trkpt>
      <trkpt lat="44.30327" lon="5.23419">
        <ele>835.5</ele>
        <time>2022-07-18T08:28:49Z</time>
      </trkpt>
      <trkpt lat="44.30326" lon="5.2341">
        <ele>835</ele>
        <time>2022-07-18T08:28:50Z</time>
      </trkpt>
      <trkpt lat="44.30326" lon="5.234">
        <ele>834.4</ele>
        <time>2022-07-18T08:28:51Z</time>
      </trkpt>
      <trkpt lat="44.30324" lon="5.23389">
        <ele>833.8</ele>
        <time>2022-07-18T08:28:52Z</time>
      </trkpt>
      <trkpt lat="44.30324" lon="5.23376">
        <ele>833.1</ele>
        <time>2022-07-18T08:28:53Z</time>
      </trkpt>
      <trkpt lat="44.30322" lon="5.23366">
        <ele>832.5</ele>
        <time>2022-07-18T08:28:54Z</time>
      </trkpt>
      <trkpt lat="44.30321" lon="5.23353">
        <ele>831.8</ele>
        <time>2022-07-18T08:28:55Z</time>
      </trkpt>
      <trkpt lat="44.30319" lon="5.23342">
        <ele>831.1</ele>
        <time>2022-07-18T08:28:56Z</time>
      </trkpt>
      <trkpt lat="44.30318" lon="5.2333">
        <ele>830.4</ele>
        <time>2022-07-18T08:28:57Z</time>
      </trkpt>
      <trkpt lat="44.30317" lon="5.23317">
        <ele>829.7</ele>
        <time>2022-07-18T08:28:58Z</time>
      </trkpt>
      <trkpt lat="44.30316" lon="5.23307">
        <ele>829.2</ele>
        <time>2022-07-18T08:28:59Z</time>
      </trkpt>
      <trkpt lat="44.30315" lon="5.23297">
        <ele>828.6</ele>
        <time>2022-07-18T08:29:00Z</time>
      </trkpt>
      <trkpt lat="44.30313" lon="5.23283">
        <ele>827.9</ele>
        <time>2022-07-18T08:29:01Z</time>
      </trkpt>
      <trkpt lat="44.30312" lon="5.23273">
        <ele>827.3</ele>
        <time>2022-07-18T08:29:02Z</time>
      </trkpt>
      <trkpt lat="44.30311" lon="5.23261">
        <ele>826.7</ele>
        <time>2022-07-18T08:29:03Z</time>
      </trkpt>
      <trkpt lat="44.3031" lon="5.2325">
        <ele>826.1</ele>
        <time>2022-07-18T08:29:04Z</time>
      </trkpt>
      <trkpt lat="44.3031" lon="5.23242">
        <ele>825.7</ele>
        <time>2022-07-18T08:29:05Z</time>
      </trkpt>
      <trkpt lat="44.30308" lon="5.23231">
        <ele>825.1</ele>
        <time>2022-07-18T08:29:06Z</time>
      </trkpt>
      <trkpt lat="44.30307" lon="5.23221">
        <ele>824.6</ele>
        <time>2022-07-18T08:29:07Z</time>
      </trkpt>
      <trkpt lat="44.30307" lon="5.23215">
        <ele>824.3</ele>
        <time>2022-07-18T08:29:08Z</time>
      </trkpt>
      <trkpt lat="44.30306" lon="5.23202">
        <ele>823.6</ele>
        <time>2022-07-18T08:29:09Z</time>
      </trkpt>
      <trkpt lat="44.30306" lon="5.23194">
        <ele>823.2</ele>
        <time>2022-07-18T08:29:10Z</time>
      </trkpt>
      <trkpt lat="44.30305" lon="5.23189">
        <ele>822.9</ele>
        <time>2022-07-18T08:29:11Z</time>
      </trkpt>
      <trkpt lat="44.30305" lon="5.23182">
        <ele>822.5</ele>
        <time>2022-07-18T08:29:12Z</time>
      </trkpt>
      <trkpt lat="44.30305" lon="5.23177">
        <ele>822.2</ele>
        <time>2022-07-18T08:29:13Z</time>
      </trkpt>
      <trkpt lat="44.30306" lon="5.23171">
        <ele>821.9</ele>
        <time>2022-07-18T08:29:14Z</time>
      </trkpt>
      <trkpt lat="44.30308" lon="5.23164">
        <ele>821.6</ele>
        <time>2022-07-18T08:29:15Z</time>
      </trkpt>
      <trkpt lat="44.30309" lon="5.23158">
        <ele>821.3</ele>
        <time>2022-07-18T08:29:16Z</time>
      </trkpt>
      <trkpt lat="44.30306" lon="5.2315">
        <ele>820.9</ele>
        <time>2022-07-18T08:29:17Z</time>
      </trkpt>
      <trkpt lat="44.30306" lon="5.23145">
        <ele>820.4</ele>
        <time>2022-07-18T08:29:18Z</time>
      </trkpt>
      <trkpt lat="44.30304" lon="5.23143">
        <ele>820.2</ele>
        <time>2022-07-18T08:29:19Z</time>
      </trkpt>
      <trkpt lat="44.30304" lon="5.23142">
        <ele>820.2</ele>
        <time>2022-07-18T08:29:20Z</time>
      </trkpt>
      <trkpt lat="44.30304" lon="5.2314">
        <ele>820.1</ele>
        <time>2022-07-18T08:29:21Z</time>
      </trkpt>
      <trkpt lat="44.30303" lon="5.23139">
        <ele>820</ele>
        <time>2022-07-18T08:29:22Z</time>
      </trkpt>
      <trkpt lat="44.30303" lon="5.23138">
        <ele>819.9</ele>
        <time>2022-07-18T08:29:23Z</time>
      </trkpt>
      <trkpt lat="44.30303" lon="5.23137">
        <ele>819.8</ele>
        <time>2022-07-18T08:29:24Z</time>
      </trkpt>
      <trkpt lat="44.30303" lon="5.23136">
        <ele>819.8</ele>
        <time>2022-07-18T08:29:25Z</time>
      </trkpt>
      <trkpt lat="44.30303" lon="5.23135">
        <ele>819.7</ele>
        <time>2022-07-18T08:29:26Z</time>
      </trkpt>
      <trkpt lat="44.30303" lon="5.23134">
        <ele>819.7</ele>
        <time>2022-07-18T08:29:27Z</time>
      </trkpt>
      <trkpt lat="44.30303" lon="5.23133">
        <ele>819.6</ele>
        <time>2022-07-18T08:29:28Z</time>
      </trkpt>
      <trkpt lat="44.30303" lon="5.23132">
        <ele>819.6</ele>
        <time>2022-07-18T08:29:29Z</time>
      </trkpt>
      <trkpt lat="44.30303" lon="5.23131">
        <ele>819.5</ele>
        <time>2022-07-18T08:29:30Z</time>
      </trkpt>
      <trkpt lat="44.30303" lon="5.23131">
        <ele>819.5</ele>
        <time>2022-07-18T08:29:31Z</time>
      </trkpt>
      <trkpt lat="44.30303" lon="5.2313">
        <ele>819.4</ele>
        <time>2022-07-18T08:29:32Z</time>
      </trkpt>
      <trkpt lat="44.30303" lon="5.23129">
        <ele>819.4</ele>
        <time>2022-07-18T08:29:48Z</time>
      </trkpt>
      <trkpt lat="44.30303" lon="5.23128">
        <ele>819.3</ele>
        <time>2022-07-18T08:29:49Z</time>
      </trkpt>
      <trkpt lat="44.30304" lon="5.23123">
        <ele>819</ele>
        <time>2022-07-18T08:29:50Z</time>
      </trkpt>
      <trkpt lat="44.30304" lon="5.23118">
        <ele>818.7</ele>
        <time>2022-07-18T08:29:51Z</time>
      </trkpt>
      <trkpt lat="44.30304" lon="5.23111">
        <ele>818.2</ele>
        <time>2022-07-18T08:29:52Z</time>
      </trkpt>
      <trkpt lat="44.30305" lon="5.23099">
        <ele>817.4</ele>
        <time>2022-07-18T08:29:53Z</time>
      </trkpt>
      <trkpt lat="44.30305" lon="5.23091">
        <ele>816.8</ele>
        <time>2022-07-18T08:29:54Z</time>
      </trkpt>
      <trkpt lat="44.30302" lon="5.23083">
        <ele>816.1</ele>
        <time>2022-07-18T08:29:55Z</time>
      </trkpt>
      <trkpt lat="44.30303" lon="5.23077">
        <ele>815.7</ele>
        <time>2022-07-18T08:29:56Z</time>
      </trkpt>
      <trkpt lat="44.30305" lon="5.23071">
        <ele>815.4</ele>
        <time>2022-07-18T08:29:57Z</time>
      </trkpt>
      <trkpt lat="44.30305" lon="5.23062">
        <ele>815</ele>
        <time>2022-07-18T08:29:58Z</time>
      </trkpt>
      <trkpt lat="44.30303" lon="5.23052">
        <ele>814.8</ele>
        <time>2022-07-18T08:29:59Z</time>
      </trkpt>
      <trkpt lat="44.30303" lon="5.23045">
        <ele>814.6</ele>
        <time>2022-07-18T08:30:00Z</time>
      </trkpt>
      <trkpt lat="44.30302" lon="5.23039">
        <ele>814.4</ele>
        <time>2022-07-18T08:30:01Z</time>
      </trkpt>
      <trkpt lat="44.30303" lon="5.23033">
        <ele>814.2</ele>
        <time>2022-07-18T08:30:02Z</time>
      </trkpt>
      <trkpt lat="44.30302" lon="5.23027">
        <ele>814</ele>
        <time>2022-07-18T08:30:03Z</time>
      </trkpt>
      <trkpt lat="44.30301" lon="5.23025">
        <ele>813.9</ele>
        <time>2022-07-18T08:30:04Z</time>
      </trkpt>
      <trkpt lat="44.30301" lon="5.2302">
        <ele>813.7</ele>
        <time>2022-07-18T08:30:05Z</time>
      </trkpt>
      <trkpt lat="44.30302" lon="5.23015">
        <ele>813.4</ele>
        <time>2022-07-18T08:30:06Z</time>
      </trkpt>
      <trkpt lat="44.30305" lon="5.2301">
        <ele>813.1</ele>
        <time>2022-07-18T08:30:07Z</time>
      </trkpt>
      <trkpt lat="44.30307" lon="5.23006">
        <ele>812.9</ele>
        <time>2022-07-18T08:30:08Z</time>
      </trkpt>
      <trkpt lat="44.30308" lon="5.23">
        <ele>812.5</ele>
        <time>2022-07-18T08:30:09Z</time>
      </trkpt>
      <trkpt lat="44.30309" lon="5.2299">
        <ele>812.1</ele>
        <time>2022-07-18T08:30:10Z</time>
      </trkpt>
      <trkpt lat="44.3031" lon="5.22983">
        <ele>811.7</ele>
        <time>2022-07-18T08:30:11Z</time>
      </trkpt>
      <trkpt lat="44.30312" lon="5.22976">
        <ele>811.3</ele>
        <time>2022-07-18T08:30:12Z</time>
      </trkpt>
      <trkpt lat="44.30316" lon="5.22962">
        <ele>810.7</ele>
        <time>2022-07-18T08:30:13Z</time>
      </trkpt>
      <trkpt lat="44.30318" lon="5.22954">
        <ele>810.3</ele>
        <time>2022-07-18T08:30:14Z</time>
      </trkpt>
      <trkpt lat="44.30322" lon="5.22943">
        <ele>809.7</ele>
        <time>2022-07-18T08:30:15Z</time>
      </trkpt>
      <trkpt lat="44.30324" lon="5.22937">
        <ele>809.3</ele>
        <time>2022-07-18T08:30:16Z</time>
      </trkpt>
      <trkpt lat="44.30325" lon="5.2293">
        <ele>808.8</ele>
        <time>2022-07-18T08:30:17Z</time>
      </trkpt>
      <trkpt lat="44.30329" lon="5.22915">
        <ele>807.8</ele>
        <time>2022-07-18T08:30:18Z</time>
      </trkpt>
      <trkpt lat="44.30332" lon="5.22906">
        <ele>807.3</ele>
        <time>2022-07-18T08:30:19Z</time>
      </trkpt>
      <trkpt lat="44.30334" lon="5.22899">
        <ele>807</ele>
        <time>2022-07-18T08:30:20Z</time>
      </trkpt>
      <trkpt lat="44.30335" lon="5.22896">
        <ele>806.9</ele>
        <time>2022-07-18T08:30:21Z</time>
      </trkpt>
      <trkpt lat="44.30338" lon="5.22888">
        <ele>806.9</ele>
        <time>2022-07-18T08:30:22Z</time>
      </trkpt>
      <trkpt lat="44.3034" lon="5.22881">
        <ele>806.9</ele>
        <time>2022-07-18T08:30:23Z</time>
      </trkpt>
      <trkpt lat="44.30343" lon="5.22873">
        <ele>807.1</ele>
        <time>2022-07-18T08:30:24Z</time>
      </trkpt>
      <trkpt lat="44.30345" lon="5.22866">
        <ele>807.2</ele>
        <time>2022-07-18T08:30:25Z</time>
      </trkpt>
      <trkpt lat="44.30347" lon="5.22861">
        <ele>807.4</ele>
        <time>2022-07-18T08:30:26Z</time>
      </trkpt>
      <trkpt lat="44.30348" lon="5.22857">
        <ele>807.5</ele>
        <time>2022-07-18T08:30:27Z</time>
      </trkpt>
      <trkpt lat="44.3035" lon="5.22852">
        <ele>807.7</ele>
        <time>2022-07-18T08:30:28Z</time>
      </trkpt>
      <trkpt lat="44.30351" lon="5.22851">
        <ele>807.7</ele>
        <time>2022-07-18T08:30:29Z</time>
      </trkpt>
      <trkpt lat="44.30353" lon="5.22846">
        <ele>807.9</ele>
        <time>2022-07-18T08:30:30Z</time>
      </trkpt>
      <trkpt lat="44.30354" lon="5.22841">
        <ele>808</ele>
        <time>2022-07-18T08:30:31Z</time>
      </trkpt>
      <trkpt lat="44.30354" lon="5.22834">
        <ele>808.1</ele>
        <time>2022-07-18T08:30:32Z</time>
      </trkpt>
      <trkpt lat="44.30356" lon="5.22827">
        <ele>808.1</ele>
        <time>2022-07-18T08:30:33Z</time>
      </trkpt>
      <trkpt lat="44.30356" lon="5.22824">
        <ele>808</ele>
        <time>2022-07-18T08:30:34Z</time>
      </trkpt>
      <trkpt lat="44.30358" lon="5.22818">
        <ele>807.8</ele>
        <time>2022-07-18T08:30:35Z</time>
      </trkpt>
      <trkpt lat="44.30359" lon="5.22815">
        <ele>807.7</ele>
        <time>2022-07-18T08:30:36Z</time>
      </trkpt>
      <trkpt lat="44.3036" lon="5.22806">
        <ele>807.2</ele>
        <time>2022-07-18T08:30:37Z</time>
      </trkpt>
      <trkpt lat="44.30362" lon="5.228">
        <ele>806.9</ele>
        <time>2022-07-18T08:30:38Z</time>
      </trkpt>
      <trkpt lat="44.30364" lon="5.22791">
        <ele>806.3</ele>
        <time>2022-07-18T08:30:39Z</time>
      </trkpt>
      <trkpt lat="44.30366" lon="5.22785">
        <ele>805.8</ele>
        <time>2022-07-18T08:30:40Z</time>
      </trkpt>
      <trkpt lat="44.30368" lon="5.22776">
        <ele>805.3</ele>
        <time>2022-07-18T08:30:41Z</time>
      </trkpt>
      <trkpt lat="44.3037" lon="5.22767">
        <ele>805</ele>
        <time>2022-07-18T08:30:42Z</time>
      </trkpt>
      <trkpt lat="44.30372" lon="5.22758">
        <ele>804.8</ele>
        <time>2022-07-18T08:30:43Z</time>
      </trkpt>
      <trkpt lat="44.30374" lon="5.22751">
        <ele>804.5</ele>
        <time>2022-07-18T08:30:44Z</time>
      </trkpt>
      <trkpt lat="44.30372" lon="5.22744">
        <ele>804.3</ele>
        <time>2022-07-18T08:30:45Z</time>
      </trkpt>
      <trkpt lat="44.30372" lon="5.22737">
        <ele>804.2</ele>
        <time>2022-07-18T08:30:46Z</time>
      </trkpt>
      <trkpt lat="44.30371" lon="5.2273">
        <ele>804</ele>
        <time>2022-07-18T08:30:47Z</time>
      </trkpt>
      <trkpt lat="44.3037" lon="5.22722">
        <ele>803.7</ele>
        <time>2022-07-18T08:30:48Z</time>
      </trkpt>
      <trkpt lat="44.30368" lon="5.22714">
        <ele>803.3</ele>
        <time>2022-07-18T08:30:49Z</time>
      </trkpt>
      <trkpt lat="44.3037" lon="5.2271">
        <ele>803.1</ele>
        <time>2022-07-18T08:30:50Z</time>
      </trkpt>
      <trkpt lat="44.30371" lon="5.22703">
        <ele>802.9</ele>
        <time>2022-07-18T08:30:51Z</time>
      </trkpt>
      <trkpt lat="44.30371" lon="5.22697">
        <ele>802.7</ele>
        <time>2022-07-18T08:30:52Z</time>
      </trkpt>
      <trkpt lat="44.30371" lon="5.22688">
        <ele>802.5</ele>
        <time>2022-07-18T08:30:53Z</time>
      </trkpt>
      <trkpt lat="44.30374" lon="5.22679">
        <ele>802.3</ele>
        <time>2022-07-18T08:30:54Z</time>
      </trkpt>
      <trkpt lat="44.30374" lon="5.2267">
        <ele>802.1</ele>
        <time>2022-07-18T08:30:55Z</time>
      </trkpt>
      <trkpt lat="44.30374" lon="5.22662">
        <ele>802.1</ele>
        <time>2022-07-18T08:30:56Z</time>
      </trkpt>
      <trkpt lat="44.30375" lon="5.22653">
        <ele>802.1</ele>
        <time>2022-07-18T08:30:57Z</time>
      </trkpt>
      <trkpt lat="44.30375" lon="5.22643">
        <ele>802.2</ele>
        <time>2022-07-18T08:30:58Z</time>
      </trkpt>
      <trkpt lat="44.30376" lon="5.22639">
        <ele>802.2</ele>
        <time>2022-07-18T08:30:59Z</time>
      </trkpt>
      <trkpt lat="44.30377" lon="5.22632">
        <ele>802.2</ele>
        <time>2022-07-18T08:31:00Z</time>
      </trkpt>
      <trkpt lat="44.30377" lon="5.22627">
        <ele>802.2</ele>
        <time>2022-07-18T08:31:01Z</time>
      </trkpt>
      <trkpt lat="44.30377" lon="5.2262">
        <ele>802.2</ele>
        <time>2022-07-18T08:31:02Z</time>
      </trkpt>
      <trkpt lat="44.30378" lon="5.22615">
        <ele>802.1</ele>
        <time>2022-07-18T08:31:03Z</time>
      </trkpt>
      <trkpt lat="44.30378" lon="5.22611">
        <ele>802.1</ele>
        <time>2022-07-18T08:31:04Z</time>
      </trkpt>
      <trkpt lat="44.30378" lon="5.22606">
        <ele>802</ele>
        <time>2022-07-18T08:31:05Z</time>
      </trkpt>
      <trkpt lat="44.3038" lon="5.22601">
        <ele>801.9</ele>
        <time>2022-07-18T08:31:06Z</time>
      </trkpt>
      <trkpt lat="44.30381" lon="5.22597">
        <ele>801.8</ele>
        <time>2022-07-18T08:31:07Z</time>
      </trkpt>
      <trkpt lat="44.30382" lon="5.22591">
        <ele>801.8</ele>
        <time>2022-07-18T08:31:08Z</time>
      </trkpt>
      <trkpt lat="44.30384" lon="5.22584">
        <ele>801.7</ele>
        <time>2022-07-18T08:31:09Z</time>
      </trkpt>
      <trkpt lat="44.30386" lon="5.22579">
        <ele>801.7</ele>
        <time>2022-07-18T08:31:10Z</time>
      </trkpt>
      <trkpt lat="44.30388" lon="5.22573">
        <ele>801.6</ele>
        <time>2022-07-18T08:31:11Z</time>
      </trkpt>
      <trkpt lat="44.3039" lon="5.22567">
        <ele>801.5</ele>
        <time>2022-07-18T08:31:12Z</time>
      </trkpt>
      <trkpt lat="44.30392" lon="5.22562">
        <ele>801.4</ele>
        <time>2022-07-18T08:31:13Z</time>
      </trkpt>
      <trkpt lat="44.30394" lon="5.22558">
        <ele>801.2</ele>
        <time>2022-07-18T08:31:14Z</time>
      </trkpt>
      <trkpt lat="44.30396" lon="5.22553">
        <ele>801.1</ele>
        <time>2022-07-18T08:31:15Z</time>
      </trkpt>
      <trkpt lat="44.30398" lon="5.22548">
        <ele>800.9</ele>
        <time>2022-07-18T08:31:16Z</time>
      </trkpt>
      <trkpt lat="44.30399" lon="5.22539">
        <ele>800.6</ele>
        <time>2022-07-18T08:31:17Z</time>
      </trkpt>
      <trkpt lat="44.304" lon="5.22531">
        <ele>800.4</ele>
        <time>2022-07-18T08:31:18Z</time>
      </trkpt>
      <trkpt lat="44.30401" lon="5.22526">
        <ele>800.3</ele>
        <time>2022-07-18T08:31:19Z</time>
      </trkpt>
      <trkpt lat="44.30403" lon="5.22521">
        <ele>800.1</ele>
        <time>2022-07-18T08:31:20Z</time>
      </trkpt>
      <trkpt lat="44.30403" lon="5.22513">
        <ele>799.8</ele>
        <time>2022-07-18T08:31:21Z</time>
      </trkpt>
      <trkpt lat="44.30404" lon="5.22508">
        <ele>799.5</ele>
        <time>2022-07-18T08:31:22Z</time>
      </trkpt>
      <trkpt lat="44.30405" lon="5.22501">
        <ele>799.1</ele>
        <time>2022-07-18T08:31:23Z</time>
      </trkpt>
      <trkpt lat="44.30405" lon="5.22495">
        <ele>798.6</ele>
        <time>2022-07-18T08:31:24Z</time>
      </trkpt>
      <trkpt lat="44.30404" lon="5.22488">
        <ele>797.8</ele>
        <time>2022-07-18T08:31:25Z</time>
      </trkpt>
      <trkpt lat="44.30403" lon="5.22481">
        <ele>796.9</ele>
        <time>2022-07-18T08:31:26Z</time>
      </trkpt>
      <trkpt lat="44.30401" lon="5.22474">
        <ele>796.1</ele>
        <time>2022-07-18T08:31:27Z</time>
      </trkpt>
      <trkpt lat="44.30401" lon="5.22467">
        <ele>795.2</ele>
        <time>2022-07-18T08:31:28Z</time>
      </trkpt>
      <trkpt lat="44.304" lon="5.22459">
        <ele>794.2</ele>
        <time>2022-07-18T08:31:29Z</time>
      </trkpt>
      <trkpt lat="44.304" lon="5.22451">
        <ele>793.2</ele>
        <time>2022-07-18T08:31:30Z</time>
      </trkpt>
      <trkpt lat="44.304" lon="5.22444">
        <ele>792.3</ele>
        <time>2022-07-18T08:31:31Z</time>
      </trkpt>
      <trkpt lat="44.304" lon="5.22437">
        <ele>791.4</ele>
        <time>2022-07-18T08:31:32Z</time>
      </trkpt>
      <trkpt lat="44.30402" lon="5.2243">
        <ele>790.5</ele>
        <time>2022-07-18T08:31:33Z</time>
      </trkpt>
      <trkpt lat="44.30403" lon="5.22422">
        <ele>789.6</ele>
        <time>2022-07-18T08:31:34Z</time>
      </trkpt>
      <trkpt lat="44.30405" lon="5.22415">
        <ele>788.8</ele>
        <time>2022-07-18T08:31:35Z</time>
      </trkpt>
      <trkpt lat="44.30407" lon="5.22408">
        <ele>788</ele>
        <time>2022-07-18T08:31:36Z</time>
      </trkpt>
      <trkpt lat="44.30409" lon="5.22401">
        <ele>787.1</ele>
        <time>2022-07-18T08:31:37Z</time>
      </trkpt>
      <trkpt lat="44.30411" lon="5.22393">
        <ele>786.2</ele>
        <time>2022-07-18T08:31:38Z</time>
      </trkpt>
      <trkpt lat="44.30412" lon="5.22386">
        <ele>785.4</ele>
        <time>2022-07-18T08:31:39Z</time>
      </trkpt>
      <trkpt lat="44.30414" lon="5.22379">
        <ele>784.5</ele>
        <time>2022-07-18T08:31:40Z</time>
      </trkpt>
      <trkpt lat="44.30416" lon="5.22371">
        <ele>783.4</ele>
        <time>2022-07-18T08:31:41Z</time>
      </trkpt>
      <trkpt lat="44.30419" lon="5.22365">
        <ele>782.5</ele>
        <time>2022-07-18T08:31:42Z</time>
      </trkpt>
      <trkpt lat="44.30422" lon="5.22358">
        <ele>781.6</ele>
        <time>2022-07-18T08:31:43Z</time>
      </trkpt>
      <trkpt lat="44.30424" lon="5.22353">
        <ele>780.8</ele>
        <time>2022-07-18T08:31:44Z</time>
      </trkpt>
      <trkpt lat="44.30424" lon="5.22348">
        <ele>780.1</ele>
        <time>2022-07-18T08:31:45Z</time>
      </trkpt>
      <trkpt lat="44.30424" lon="5.22346">
        <ele>779.7</ele>
        <time>2022-07-18T08:31:46Z</time>
      </trkpt>
      <trkpt lat="44.30422" lon="5.2234">
        <ele>778.7</ele>
        <time>2022-07-18T08:31:47Z</time>
      </trkpt>
      <trkpt lat="44.30421" lon="5.22335">
        <ele>777.9</ele>
        <time>2022-07-18T08:31:48Z</time>
      </trkpt>
      <trkpt lat="44.3042" lon="5.22329">
        <ele>776.8</ele>
        <time>2022-07-18T08:31:49Z</time>
      </trkpt>
      <trkpt lat="44.3042" lon="5.22324">
        <ele>776</ele>
        <time>2022-07-18T08:31:50Z</time>
      </trkpt>
      <trkpt lat="44.3042" lon="5.22322">
        <ele>775.7</ele>
        <time>2022-07-18T08:31:51Z</time>
      </trkpt>
      <trkpt lat="44.30421" lon="5.22318">
        <ele>775</ele>
        <time>2022-07-18T08:31:52Z</time>
      </trkpt>
      <trkpt lat="44.30422" lon="5.22314">
        <ele>774.2</ele>
        <time>2022-07-18T08:31:53Z</time>
      </trkpt>
      <trkpt lat="44.30421" lon="5.22309">
        <ele>773.2</ele>
        <time>2022-07-18T08:31:54Z</time>
      </trkpt>
      <trkpt lat="44.3042" lon="5.22304">
        <ele>772.3</ele>
        <time>2022-07-18T08:31:55Z</time>
      </trkpt>
      <trkpt lat="44.30419" lon="5.223">
        <ele>771.5</ele>
        <time>2022-07-18T08:31:56Z</time>
      </trkpt>
      <trkpt lat="44.30417" lon="5.22296">
        <ele>770.4</ele>
        <time>2022-07-18T08:31:57Z</time>
      </trkpt>
      <trkpt lat="44.30417" lon="5.22295">
        <ele>770.1</ele>
        <time>2022-07-18T08:31:58Z</time>
      </trkpt>
      <trkpt lat="44.30414" lon="5.2229">
        <ele>769</ele>
        <time>2022-07-18T08:31:59Z</time>
      </trkpt>
      <trkpt lat="44.30414" lon="5.22289">
        <ele>768.6</ele>
        <time>2022-07-18T08:32:00Z</time>
      </trkpt>
      <trkpt lat="44.30412" lon="5.22285">
        <ele>767.8</ele>
        <time>2022-07-18T08:32:01Z</time>
      </trkpt>
      <trkpt lat="44.3041" lon="5.22282">
        <ele>767</ele>
        <time>2022-07-18T08:32:02Z</time>
      </trkpt>
      <trkpt lat="44.30408" lon="5.22279">
        <ele>766.3</ele>
        <time>2022-07-18T08:32:03Z</time>
      </trkpt>
      <trkpt lat="44.30406" lon="5.22276">
        <ele>765.5</ele>
        <time>2022-07-18T08:32:04Z</time>
      </trkpt>
      <trkpt lat="44.30405" lon="5.22271">
        <ele>764.7</ele>
        <time>2022-07-18T08:32:05Z</time>
      </trkpt>
      <trkpt lat="44.30404" lon="5.22266">
        <ele>763.8</ele>
        <time>2022-07-18T08:32:06Z</time>
      </trkpt>
      <trkpt lat="44.30404" lon="5.22261">
        <ele>763</ele>
        <time>2022-07-18T08:32:07Z</time>
      </trkpt>
      <trkpt lat="44.30404" lon="5.22256">
        <ele>762.3</ele>
        <time>2022-07-18T08:32:08Z</time>
      </trkpt>
      <trkpt lat="44.30404" lon="5.22251">
        <ele>761.6</ele>
        <time>2022-07-18T08:32:09Z</time>
      </trkpt>
      <trkpt lat="44.30404" lon="5.22247">
        <ele>760.8</ele>
        <time>2022-07-18T08:32:10Z</time>
      </trkpt>
      <trkpt lat="44.30405" lon="5.22242">
        <ele>760.2</ele>
        <time>2022-07-18T08:32:11Z</time>
      </trkpt>
      <trkpt lat="44.30406" lon="5.22239">
        <ele>759.5</ele>
        <time>2022-07-18T08:32:12Z</time>
      </trkpt>
      <trkpt lat="44.30406" lon="5.22234">
        <ele>758.8</ele>
        <time>2022-07-18T08:32:13Z</time>
      </trkpt>
      <trkpt lat="44.30406" lon="5.2223">
        <ele>758.1</ele>
        <time>2022-07-18T08:32:14Z</time>
      </trkpt>
      <trkpt lat="44.30406" lon="5.22226">
        <ele>757.4</ele>
        <time>2022-07-18T08:32:15Z</time>
      </trkpt>
      <trkpt lat="44.30406" lon="5.22222">
        <ele>756.7</ele>
        <time>2022-07-18T08:32:16Z</time>
      </trkpt>
      <trkpt lat="44.30406" lon="5.22217">
        <ele>755.8</ele>
        <time>2022-07-18T08:32:17Z</time>
      </trkpt>
      <trkpt lat="44.30407" lon="5.22211">
        <ele>754.7</ele>
        <time>2022-07-18T08:32:18Z</time>
      </trkpt>
      <trkpt lat="44.30407" lon="5.22206">
        <ele>753.6</ele>
        <time>2022-07-18T08:32:19Z</time>
      </trkpt>
      <trkpt lat="44.30408" lon="5.222">
        <ele>752.4</ele>
        <time>2022-07-18T08:32:20Z</time>
      </trkpt>
      <trkpt lat="44.30409" lon="5.22195">
        <ele>751.3</ele>
        <time>2022-07-18T08:32:21Z</time>
      </trkpt>
      <trkpt lat="44.30409" lon="5.2219">
        <ele>750.3</ele>
        <time>2022-07-18T08:32:22Z</time>
      </trkpt>
      <trkpt lat="44.30409" lon="5.22184">
        <ele>749.3</ele>
        <time>2022-07-18T08:32:23Z</time>
      </trkpt>
      <trkpt lat="44.3041" lon="5.22179">
        <ele>748.4</ele>
        <time>2022-07-18T08:32:24Z</time>
      </trkpt>
      <trkpt lat="44.3041" lon="5.22175">
        <ele>747.7</ele>
        <time>2022-07-18T08:32:25Z</time>
      </trkpt>
      <trkpt lat="44.30412" lon="5.22171">
        <ele>747</ele>
        <time>2022-07-18T08:32:26Z</time>
      </trkpt>
      <trkpt lat="44.30413" lon="5.22167">
        <ele>746.4</ele>
        <time>2022-07-18T08:32:27Z</time>
      </trkpt>
      <trkpt lat="44.30414" lon="5.22164">
        <ele>745.8</ele>
        <time>2022-07-18T08:32:28Z</time>
      </trkpt>
      <trkpt lat="44.30414" lon="5.22162">
        <ele>745.6</ele>
        <time>2022-07-18T08:32:29Z</time>
      </trkpt>
      <trkpt lat="44.30415" lon="5.22159">
        <ele>745</ele>
        <time>2022-07-18T08:32:30Z</time>
      </trkpt>
      <trkpt lat="44.30415" lon="5.22157">
        <ele>744.7</ele>
        <time>2022-07-18T08:32:31Z</time>
      </trkpt>
      <trkpt lat="44.30416" lon="5.22153">
        <ele>744.1</ele>
        <time>2022-07-18T08:32:32Z</time>
      </trkpt>
      <trkpt lat="44.30417" lon="5.22149">
        <ele>743.3</ele>
        <time>2022-07-18T08:32:33Z</time>
      </trkpt>
      <trkpt lat="44.30419" lon="5.22145">
        <ele>742.6</ele>
        <time>2022-07-18T08:32:34Z</time>
      </trkpt>
      <trkpt lat="44.30419" lon="5.22141">
        <ele>742</ele>
        <time>2022-07-18T08:32:35Z</time>
      </trkpt>
      <trkpt lat="44.3042" lon="5.2214">
        <ele>741.8</ele>
        <time>2022-07-18T08:32:36Z</time>
      </trkpt>
      <trkpt lat="44.3042" lon="5.2214">
        <ele>741.8</ele>
        <time>2022-07-18T08:32:37Z</time>
      </trkpt>
      <trkpt lat="44.3042" lon="5.2214">
        <ele>741.8</ele>
        <time>2022-07-18T08:32:38Z</time>
      </trkpt>
      <trkpt lat="44.3042" lon="5.2214">
        <ele>741.8</ele>
        <time>2022-07-18T08:32:39Z</time>
      </trkpt>
      <trkpt lat="44.3042" lon="5.2214">
        <ele>741.8</ele>
        <time>2022-07-18T08:32:40Z</time>
      </trkpt>
      <trkpt lat="44.3042" lon="5.2214">
        <ele>741.8</ele>
        <time>2022-07-18T08:32:41Z</time>
      </trkpt>
      <trkpt lat="44.3042" lon="5.2214">
        <ele>741.8</ele>
        <time>2022-07-18T08:32:42Z</time>
      </trkpt>
      <trkpt lat="44.3042" lon="5.2214">
        <ele>741.8</ele>
        <time>2022-07-18T08:32:43Z</time>
      </trkpt>
      <trkpt lat="44.30422" lon="5.22136">
        <ele>741.1</ele>
        <time>2022-07-18T08:32:44Z</time>
      </trkpt>
      <trkpt lat="44.3042" lon="5.22132">
        <ele>740.3</ele>
        <time>2022-07-18T08:32:45Z</time>
      </trkpt>
      <trkpt lat="44.3042" lon="5.22131">
        <ele>739.9</ele>
        <time>2022-07-18T08:32:46Z</time>
      </trkpt>
      <trkpt lat="44.30418" lon="5.22127">
        <ele>738.7</ele>
        <time>2022-07-18T08:32:47Z</time>
      </trkpt>
      <trkpt lat="44.30417" lon="5.22126">
        <ele>738.4</ele>
        <time>2022-07-18T08:32:48Z</time>
      </trkpt>
      <trkpt lat="44.30417" lon="5.22124">
        <ele>737.9</ele>
        <time>2022-07-18T08:32:49Z</time>
      </trkpt>
      <trkpt lat="44.30416" lon="5.22123">
        <ele>737.3</ele>
        <time>2022-07-18T08:32:50Z</time>
      </trkpt>
      <trkpt lat="44.30413" lon="5.22121">
        <ele>736.2</ele>
        <time>2022-07-18T08:32:51Z</time>
      </trkpt>
      <trkpt lat="44.30412" lon="5.2212">
        <ele>735.7</ele>
        <time>2022-07-18T08:32:52Z</time>
      </trkpt>
      <trkpt lat="44.30408" lon="5.2212">
        <ele>734.3</ele>
        <time>2022-07-18T08:32:53Z</time>
      </trkpt>
      <trkpt lat="44.30407" lon="5.22121">
        <ele>733.8</ele>
        <time>2022-07-18T08:32:54Z</time>
      </trkpt>
      <trkpt lat="44.30404" lon="5.2212">
        <ele>732.8</ele>
        <time>2022-07-18T08:32:55Z</time>
      </trkpt>
      <trkpt lat="44.30403" lon="5.2212">
        <ele>732.5</ele>
        <time>2022-07-18T08:32:56Z</time>
      </trkpt>
      <trkpt lat="44.30402" lon="5.22119">
        <ele>731.9</ele>
        <time>2022-07-18T08:32:57Z</time>
      </trkpt>
      <trkpt lat="44.304" lon="5.22117">
        <ele>731.1</ele>
        <time>2022-07-18T08:32:58Z</time>
      </trkpt>
      <trkpt lat="44.30398" lon="5.22113">
        <ele>729.7</ele>
        <time>2022-07-18T08:32:59Z</time>
      </trkpt>
      <trkpt lat="44.30397" lon="5.22112">
        <ele>729.2</ele>
        <time>2022-07-18T08:33:00Z</time>
      </trkpt>
      <trkpt lat="44.30394" lon="5.22108">
        <ele>727.9</ele>
        <time>2022-07-18T08:33:01Z</time>
      </trkpt>
      <trkpt lat="44.30394" lon="5.22107">
        <ele>727.6</ele>
        <time>2022-07-18T08:33:02Z</time>
      </trkpt>
      <trkpt lat="44.30391" lon="5.22104">
        <ele>726.4</ele>
        <time>2022-07-18T08:33:03Z</time>
      </trkpt>
      <trkpt lat="44.3039" lon="5.22103">
        <ele>725.9</ele>
        <time>2022-07-18T08:33:04Z</time>
      </trkpt>
      <trkpt lat="44.30387" lon="5.221">
        <ele>724.9</ele>
        <time>2022-07-18T08:33:05Z</time>
      </trkpt>
      <trkpt lat="44.30385" lon="5.22097">
        <ele>723.9</ele>
        <time>2022-07-18T08:33:06Z</time>
      </trkpt>
      <trkpt lat="44.30382" lon="5.22094">
        <ele>723</ele>
        <time>2022-07-18T08:33:07Z</time>
      </trkpt>
      <trkpt lat="44.30379" lon="5.22092">
        <ele>722.1</ele>
        <time>2022-07-18T08:33:08Z</time>
      </trkpt>
      <trkpt lat="44.30377" lon="5.22089">
        <ele>721.4</ele>
        <time>2022-07-18T08:33:09Z</time>
      </trkpt>
      <trkpt lat="44.30375" lon="5.22087">
        <ele>720.7</ele>
        <time>2022-07-18T08:33:10Z</time>
      </trkpt>
      <trkpt lat="44.30372" lon="5.22083">
        <ele>719.8</ele>
        <time>2022-07-18T08:33:11Z</time>
      </trkpt>
      <trkpt lat="44.30372" lon="5.22081">
        <ele>719.5</ele>
        <time>2022-07-18T08:33:12Z</time>
      </trkpt>
      <trkpt lat="44.3037" lon="5.2208">
        <ele>719.1</ele>
        <time>2022-07-18T08:33:13Z</time>
      </trkpt>
      <trkpt lat="44.30369" lon="5.22079">
        <ele>718.9</ele>
        <time>2022-07-18T08:33:14Z</time>
      </trkpt>
      <trkpt lat="44.30369" lon="5.22079">
        <ele>718.9</ele>
        <time>2022-07-18T08:33:15Z</time>
      </trkpt>
      <trkpt lat="44.30369" lon="5.22079">
        <ele>718.9</ele>
        <time>2022-07-18T08:33:16Z</time>
      </trkpt>
      <trkpt lat="44.30369" lon="5.22079">
        <ele>718.9</ele>
        <time>2022-07-18T08:33:17Z</time>
      </trkpt>
      <trkpt lat="44.30369" lon="5.22079">
        <ele>718.9</ele>
        <time>2022-07-18T08:33:18Z</time>
      </trkpt>
      <trkpt lat="44.30369" lon="5.22079">
        <ele>718.9</ele>
        <time>2022-07-18T08:33:19Z</time>
      </trkpt>
      <trkpt lat="44.30369" lon="5.22079">
        <ele>718.9</ele>
        <time>2022-07-18T08:33:20Z</time>
      </trkpt>
      <trkpt lat="44.30369" lon="5.22079">
        <ele>718.9</ele>
        <time>2022-07-18T08:33:21Z</time>
      </trkpt>
      <trkpt lat="44.30369" lon="5.22079">
        <ele>718.9</ele>
        <time>2022-07-18T08:33:22Z</time>
      </trkpt>
      <trkpt lat="44.30369" lon="5.22079">
        <ele>718.9</ele>
        <time>2022-07-18T08:33:23Z</time>
      </trkpt>
      <trkpt lat="44.30369" lon="5.22079">
        <ele>718.9</ele>
        <time>2022-07-18T08:33:24Z</time>
      </trkpt>
      <trkpt lat="44.30361" lon="5.22075">
        <ele>717</ele>
        <time>2022-07-18T08:35:40Z</time>
      </trkpt>
      <trkpt lat="44.30358" lon="5.22071">
        <ele>716.7</ele>
        <time>2022-07-18T08:35:41Z</time>
      </trkpt>
      <trkpt lat="44.30355" lon="5.22068">
        <ele>716.4</ele>
        <time>2022-07-18T08:35:42Z</time>
      </trkpt>
      <trkpt lat="44.30352" lon="5.22065">
        <ele>716.1</ele>
        <time>2022-07-18T08:35:43Z</time>
      </trkpt>
      <trkpt lat="44.30349" lon="5.22064">
        <ele>715.8</ele>
        <time>2022-07-18T08:35:44Z</time>
      </trkpt>
      <trkpt lat="44.30345" lon="5.22064">
        <ele>715.5</ele>
        <time>2022-07-18T08:35:45Z</time>
      </trkpt>
      <trkpt lat="44.30337" lon="5.22068">
        <ele>714.8</ele>
        <time>2022-07-18T08:35:46Z</time>
      </trkpt>
      <trkpt lat="44.30331" lon="5.22069">
        <ele>714.4</ele>
        <time>2022-07-18T08:35:47Z</time>
      </trkpt>
      <trkpt lat="44.30327" lon="5.22069">
        <ele>714.1</ele>
        <time>2022-07-18T08:35:48Z</time>
      </trkpt>
      <trkpt lat="44.30323" lon="5.22069">
        <ele>713.7</ele>
        <time>2022-07-18T08:35:49Z</time>
      </trkpt>
      <trkpt lat="44.30319" lon="5.22068">
        <ele>713.4</ele>
        <time>2022-07-18T08:35:50Z</time>
      </trkpt>
      <trkpt lat="44.30314" lon="5.22067">
        <ele>712.9</ele>
        <time>2022-07-18T08:35:51Z</time>
      </trkpt>
      <trkpt lat="44.30309" lon="5.22067">
        <ele>712.4</ele>
        <time>2022-07-18T08:35:52Z</time>
      </trkpt>
      <trkpt lat="44.30304" lon="5.22066">
        <ele>711.9</ele>
        <time>2022-07-18T08:35:53Z</time>
      </trkpt>
      <trkpt lat="44.30297" lon="5.22065">
        <ele>711.3</ele>
        <time>2022-07-18T08:35:54Z</time>
      </trkpt>
      <trkpt lat="44.30292" lon="5.22066">
        <ele>710.9</ele>
        <time>2022-07-18T08:35:55Z</time>
      </trkpt>
      <trkpt lat="44.30288" lon="5.22067">
        <ele>710.5</ele>
        <time>2022-07-18T08:35:56Z</time>
      </trkpt>
      <trkpt lat="44.3028" lon="5.22068">
        <ele>709.9</ele>
        <time>2022-07-18T08:35:57Z</time>
      </trkpt>
      <trkpt lat="44.30276" lon="5.22068">
        <ele>709.6</ele>
        <time>2022-07-18T08:35:58Z</time>
      </trkpt>
      <trkpt lat="44.30274" lon="5.22069">
        <ele>709.4</ele>
        <time>2022-07-18T08:35:59Z</time>
      </trkpt>
      <trkpt lat="44.30269" lon="5.22069">
        <ele>709.1</ele>
        <time>2022-07-18T08:36:00Z</time>
      </trkpt>
      <trkpt lat="44.30264" lon="5.22068">
        <ele>708.6</ele>
        <time>2022-07-18T08:36:01Z</time>
      </trkpt>
      <trkpt lat="44.30261" lon="5.22065">
        <ele>708.3</ele>
        <time>2022-07-18T08:36:02Z</time>
      </trkpt>
      <trkpt lat="44.30258" lon="5.22062">
        <ele>707.9</ele>
        <time>2022-07-18T08:36:03Z</time>
      </trkpt>
      <trkpt lat="44.30254" lon="5.22059">
        <ele>707.4</ele>
        <time>2022-07-18T08:36:04Z</time>
      </trkpt>
      <trkpt lat="44.30252" lon="5.22056">
        <ele>707.1</ele>
        <time>2022-07-18T08:36:05Z</time>
      </trkpt>
      <trkpt lat="44.30248" lon="5.22055">
        <ele>706.6</ele>
        <time>2022-07-18T08:36:06Z</time>
      </trkpt>
      <trkpt lat="44.30243" lon="5.22055">
        <ele>706</ele>
        <time>2022-07-18T08:36:07Z</time>
      </trkpt>
      <trkpt lat="44.3024" lon="5.22055">
        <ele>705.6</ele>
        <time>2022-07-18T08:36:08Z</time>
      </trkpt>
      <trkpt lat="44.30236" lon="5.22055">
        <ele>704.9</ele>
        <time>2022-07-18T08:36:09Z</time>
      </trkpt>
      <trkpt lat="44.30232" lon="5.22056">
        <ele>704.2</ele>
        <time>2022-07-18T08:36:10Z</time>
      </trkpt>
      <trkpt lat="44.30229" lon="5.22055">
        <ele>703.5</ele>
        <time>2022-07-18T08:36:11Z</time>
      </trkpt>
      <trkpt lat="44.30226" lon="5.22054">
        <ele>702.9</ele>
        <time>2022-07-18T08:36:12Z</time>
      </trkpt>
      <trkpt lat="44.30223" lon="5.22052">
        <ele>702.2</ele>
        <time>2022-07-18T08:36:13Z</time>
      </trkpt>
      <trkpt lat="44.3022" lon="5.2205">
        <ele>701.4</ele>
        <time>2022-07-18T08:36:14Z</time>
      </trkpt>
      <trkpt lat="44.30219" lon="5.22049">
        <ele>701.2</ele>
        <time>2022-07-18T08:36:15Z</time>
      </trkpt>
      <trkpt lat="44.30216" lon="5.22046">
        <ele>700.3</ele>
        <time>2022-07-18T08:36:16Z</time>
      </trkpt>
      <trkpt lat="44.30215" lon="5.22045">
        <ele>700.1</ele>
        <time>2022-07-18T08:36:17Z</time>
      </trkpt>
      <trkpt lat="44.30213" lon="5.22041">
        <ele>699.4</ele>
        <time>2022-07-18T08:36:18Z</time>
      </trkpt>
      <trkpt lat="44.30211" lon="5.22036">
        <ele>698.4</ele>
        <time>2022-07-18T08:36:19Z</time>
      </trkpt>
      <trkpt lat="44.30209" lon="5.22029">
        <ele>697.3</ele>
        <time>2022-07-18T08:36:20Z</time>
      </trkpt>
      <trkpt lat="44.30205" lon="5.22025">
        <ele>696.1</ele>
        <time>2022-07-18T08:36:21Z</time>
      </trkpt>
      <trkpt lat="44.302" lon="5.22021">
        <ele>694.9</ele>
        <time>2022-07-18T08:36:22Z</time>
      </trkpt>
      <trkpt lat="44.30196" lon="5.22017">
        <ele>693.7</ele>
        <time>2022-07-18T08:36:23Z</time>
      </trkpt>
      <trkpt lat="44.30192" lon="5.22013">
        <ele>692.5</ele>
        <time>2022-07-18T08:36:24Z</time>
      </trkpt>
      <trkpt lat="44.30188" lon="5.22008">
        <ele>691.3</ele>
        <time>2022-07-18T08:36:25Z</time>
      </trkpt>
      <trkpt lat="44.30184" lon="5.22004">
        <ele>690.2</ele>
        <time>2022-07-18T08:36:26Z</time>
      </trkpt>
      <trkpt lat="44.30181" lon="5.22">
        <ele>689</ele>
        <time>2022-07-18T08:36:27Z</time>
      </trkpt>
      <trkpt lat="44.30177" lon="5.21995">
        <ele>687.9</ele>
        <time>2022-07-18T08:36:28Z</time>
      </trkpt>
      <trkpt lat="44.30174" lon="5.21991">
        <ele>686.7</ele>
        <time>2022-07-18T08:36:29Z</time>
      </trkpt>
      <trkpt lat="44.3017" lon="5.21986">
        <ele>685.4</ele>
        <time>2022-07-18T08:36:30Z</time>
      </trkpt>
      <trkpt lat="44.30166" lon="5.21983">
        <ele>684.3</ele>
        <time>2022-07-18T08:36:31Z</time>
      </trkpt>
      <trkpt lat="44.30163" lon="5.21978">
        <ele>683.2</ele>
        <time>2022-07-18T08:36:32Z</time>
      </trkpt>
      <trkpt lat="44.30159" lon="5.21974">
        <ele>682.3</ele>
        <time>2022-07-18T08:36:33Z</time>
      </trkpt>
      <trkpt lat="44.30156" lon="5.21971">
        <ele>681.4</ele>
        <time>2022-07-18T08:36:34Z</time>
      </trkpt>
      <trkpt lat="44.30153" lon="5.21968">
        <ele>680.5</ele>
        <time>2022-07-18T08:36:35Z</time>
      </trkpt>
      <trkpt lat="44.30148" lon="5.21964">
        <ele>679.5</ele>
        <time>2022-07-18T08:36:36Z</time>
      </trkpt>
      <trkpt lat="44.30144" lon="5.21961">
        <ele>678.5</ele>
        <time>2022-07-18T08:36:37Z</time>
      </trkpt>
      <trkpt lat="44.30139" lon="5.21959">
        <ele>677.7</ele>
        <time>2022-07-18T08:36:38Z</time>
      </trkpt>
      <trkpt lat="44.30135" lon="5.21956">
        <ele>676.9</ele>
        <time>2022-07-18T08:36:39Z</time>
      </trkpt>
      <trkpt lat="44.30131" lon="5.21954">
        <ele>676.2</ele>
        <time>2022-07-18T08:36:40Z</time>
      </trkpt>
      <trkpt lat="44.30127" lon="5.21951">
        <ele>675.5</ele>
        <time>2022-07-18T08:36:41Z</time>
      </trkpt>
      <trkpt lat="44.30122" lon="5.21948">
        <ele>674.8</ele>
        <time>2022-07-18T08:36:42Z</time>
      </trkpt>
      <trkpt lat="44.30118" lon="5.21946">
        <ele>674.2</ele>
        <time>2022-07-18T08:36:43Z</time>
      </trkpt>
      <trkpt lat="44.30113" lon="5.21944">
        <ele>673.6</ele>
        <time>2022-07-18T08:36:44Z</time>
      </trkpt>
      <trkpt lat="44.30109" lon="5.21942">
        <ele>673</ele>
        <time>2022-07-18T08:36:45Z</time>
      </trkpt>
      <trkpt lat="44.30105" lon="5.21941">
        <ele>672.5</ele>
        <time>2022-07-18T08:36:46Z</time>
      </trkpt>
      <trkpt lat="44.30101" lon="5.21939">
        <ele>672</ele>
        <time>2022-07-18T08:36:47Z</time>
      </trkpt>
      <trkpt lat="44.30097" lon="5.21937">
        <ele>671.4</ele>
        <time>2022-07-18T08:36:48Z</time>
      </trkpt>
      <trkpt lat="44.30093" lon="5.21936">
        <ele>670.9</ele>
        <time>2022-07-18T08:36:49Z</time>
      </trkpt>
      <trkpt lat="44.3009" lon="5.21934">
        <ele>670.6</ele>
        <time>2022-07-18T08:36:50Z</time>
      </trkpt>
      <trkpt lat="44.30087" lon="5.21931">
        <ele>670.2</ele>
        <time>2022-07-18T08:36:51Z</time>
      </trkpt>
      <trkpt lat="44.30084" lon="5.21929">
        <ele>669.8</ele>
        <time>2022-07-18T08:36:52Z</time>
      </trkpt>
      <trkpt lat="44.30081" lon="5.21928">
        <ele>669.5</ele>
        <time>2022-07-18T08:36:53Z</time>
      </trkpt>
      <trkpt lat="44.30079" lon="5.21927">
        <ele>669.2</ele>
        <time>2022-07-18T08:36:54Z</time>
      </trkpt>
      <trkpt lat="44.30078" lon="5.21927">
        <ele>669.1</ele>
        <time>2022-07-18T08:36:55Z</time>
      </trkpt>
      <trkpt lat="44.30076" lon="5.21926">
        <ele>668.9</ele>
        <time>2022-07-18T08:36:56Z</time>
      </trkpt>
      <trkpt lat="44.30075" lon="5.21926">
        <ele>668.8</ele>
        <time>2022-07-18T08:36:57Z</time>
      </trkpt>
      <trkpt lat="44.30074" lon="5.21926">
        <ele>668.8</ele>
        <time>2022-07-18T08:36:58Z</time>
      </trkpt>
      <trkpt lat="44.30074" lon="5.21926">
        <ele>668.7</ele>
        <time>2022-07-18T08:36:59Z</time>
      </trkpt>
      <trkpt lat="44.30073" lon="5.21926">
        <ele>668.7</ele>
        <time>2022-07-18T08:37:00Z</time>
      </trkpt>
      <trkpt lat="44.30073" lon="5.21926">
        <ele>668.6</ele>
        <time>2022-07-18T08:37:01Z</time>
      </trkpt>
      <trkpt lat="44.30072" lon="5.21925">
        <ele>668.5</ele>
        <time>2022-07-18T08:37:02Z</time>
      </trkpt>
      <trkpt lat="44.30072" lon="5.21925">
        <ele>668.5</ele>
        <time>2022-07-18T08:37:03Z</time>
      </trkpt>
      <trkpt lat="44.30071" lon="5.21925">
        <ele>668.4</ele>
        <time>2022-07-18T08:37:04Z</time>
      </trkpt>
      <trkpt lat="44.30071" lon="5.21925">
        <ele>668.4</ele>
        <time>2022-07-18T08:37:05Z</time>
      </trkpt>
      <trkpt lat="44.3007" lon="5.21925">
        <ele>668.3</ele>
        <time>2022-07-18T08:37:06Z</time>
      </trkpt>
      <trkpt lat="44.3007" lon="5.21925">
        <ele>668.2</ele>
        <time>2022-07-18T08:37:07Z</time>
      </trkpt>
      <trkpt lat="44.30069" lon="5.21925">
        <ele>668.2</ele>
        <time>2022-07-18T08:38:28Z</time>
      </trkpt>
      <trkpt lat="44.30069" lon="5.21925">
        <ele>668.1</ele>
        <time>2022-07-18T08:38:29Z</time>
      </trkpt>
      <trkpt lat="44.30066" lon="5.21924">
        <ele>667.8</ele>
        <time>2022-07-18T08:38:30Z</time>
      </trkpt>
      <trkpt lat="44.30062" lon="5.21923">
        <ele>667.3</ele>
        <time>2022-07-18T08:38:31Z</time>
      </trkpt>
      <trkpt lat="44.30061" lon="5.21923">
        <ele>667.1</ele>
        <time>2022-07-18T08:38:32Z</time>
      </trkpt>
      <trkpt lat="44.30058" lon="5.21922">
        <ele>666.7</ele>
        <time>2022-07-18T08:38:33Z</time>
      </trkpt>
      <trkpt lat="44.30056" lon="5.21922">
        <ele>666.3</ele>
        <time>2022-07-18T08:38:34Z</time>
      </trkpt>
      <trkpt lat="44.30052" lon="5.2192">
        <ele>665.7</ele>
        <time>2022-07-18T08:38:35Z</time>
      </trkpt>
      <trkpt lat="44.30051" lon="5.21919">
        <ele>665.4</ele>
        <time>2022-07-18T08:38:36Z</time>
      </trkpt>
      <trkpt lat="44.30046" lon="5.21918">
        <ele>664.7</ele>
        <time>2022-07-18T08:38:37Z</time>
      </trkpt>
      <trkpt lat="44.30044" lon="5.21917">
        <ele>664.2</ele>
        <time>2022-07-18T08:38:38Z</time>
      </trkpt>
      <trkpt lat="44.3004" lon="5.21916">
        <ele>663.5</ele>
        <time>2022-07-18T08:38:39Z</time>
      </trkpt>
      <trkpt lat="44.30036" lon="5.21914">
        <ele>662.9</ele>
        <time>2022-07-18T08:38:40Z</time>
      </trkpt>
      <trkpt lat="44.30033" lon="5.21913">
        <ele>662.3</ele>
        <time>2022-07-18T08:38:41Z</time>
      </trkpt>
      <trkpt lat="44.3003" lon="5.21911">
        <ele>661.9</ele>
        <time>2022-07-18T08:38:42Z</time>
      </trkpt>
      <trkpt lat="44.30027" lon="5.2191">
        <ele>661.4</ele>
        <time>2022-07-18T08:38:43Z</time>
      </trkpt>
      <trkpt lat="44.30024" lon="5.21908">
        <ele>661</ele>
        <time>2022-07-18T08:38:44Z</time>
      </trkpt>
      <trkpt lat="44.30021" lon="5.21907">
        <ele>660.6</ele>
        <time>2022-07-18T08:38:45Z</time>
      </trkpt>
      <trkpt lat="44.30018" lon="5.21906">
        <ele>660.3</ele>
        <time>2022-07-18T08:38:46Z</time>
      </trkpt>
      <trkpt lat="44.30015" lon="5.21906">
        <ele>660.1</ele>
        <time>2022-07-18T08:38:47Z</time>
      </trkpt>
      <trkpt lat="44.30011" lon="5.21907">
        <ele>659.8</ele>
        <time>2022-07-18T08:38:48Z</time>
      </trkpt>
      <trkpt lat="44.30006" lon="5.21911">
        <ele>659.5</ele>
        <time>2022-07-18T08:38:49Z</time>
      </trkpt>
      <trkpt lat="44.30003" lon="5.21915">
        <ele>659.4</ele>
        <time>2022-07-18T08:38:50Z</time>
      </trkpt>
      <trkpt lat="44.3" lon="5.2192">
        <ele>659.3</ele>
        <time>2022-07-18T08:38:51Z</time>
      </trkpt>
      <trkpt lat="44.29999" lon="5.21925">
        <ele>659.3</ele>
        <time>2022-07-18T08:38:52Z</time>
      </trkpt>
      <trkpt lat="44.29997" lon="5.21931">
        <ele>659.2</ele>
        <time>2022-07-18T08:38:53Z</time>
      </trkpt>
      <trkpt lat="44.29997" lon="5.21936">
        <ele>659.1</ele>
        <time>2022-07-18T08:38:54Z</time>
      </trkpt>
      <trkpt lat="44.29996" lon="5.21941">
        <ele>659</ele>
        <time>2022-07-18T08:38:55Z</time>
      </trkpt>
      <trkpt lat="44.29995" lon="5.21945">
        <ele>658.9</ele>
        <time>2022-07-18T08:38:56Z</time>
      </trkpt>
      <trkpt lat="44.29993" lon="5.2195">
        <ele>658.7</ele>
        <time>2022-07-18T08:38:57Z</time>
      </trkpt>
      <trkpt lat="44.29992" lon="5.21955">
        <ele>658.6</ele>
        <time>2022-07-18T08:38:58Z</time>
      </trkpt>
      <trkpt lat="44.29991" lon="5.2196">
        <ele>658.4</ele>
        <time>2022-07-18T08:38:59Z</time>
      </trkpt>
      <trkpt lat="44.29989" lon="5.21966">
        <ele>658.2</ele>
        <time>2022-07-18T08:39:00Z</time>
      </trkpt>
      <trkpt lat="44.29988" lon="5.21973">
        <ele>657.9</ele>
        <time>2022-07-18T08:39:01Z</time>
      </trkpt>
      <trkpt lat="44.29987" lon="5.2198">
        <ele>657.5</ele>
        <time>2022-07-18T08:39:02Z</time>
      </trkpt>
      <trkpt lat="44.29985" lon="5.21988">
        <ele>657.1</ele>
        <time>2022-07-18T08:39:03Z</time>
      </trkpt>
      <trkpt lat="44.29983" lon="5.21994">
        <ele>656.7</ele>
        <time>2022-07-18T08:39:04Z</time>
      </trkpt>
      <trkpt lat="44.29985" lon="5.22004">
        <ele>656.1</ele>
        <time>2022-07-18T08:39:05Z</time>
      </trkpt>
      <trkpt lat="44.29983" lon="5.22008">
        <ele>655.7</ele>
        <time>2022-07-18T08:39:06Z</time>
      </trkpt>
      <trkpt lat="44.29982" lon="5.22012">
        <ele>655.3</ele>
        <time>2022-07-18T08:39:07Z</time>
      </trkpt>
      <trkpt lat="44.2998" lon="5.22016">
        <ele>654.8</ele>
        <time>2022-07-18T08:39:08Z</time>
      </trkpt>
      <trkpt lat="44.29979" lon="5.22018">
        <ele>654.6</ele>
        <time>2022-07-18T08:39:09Z</time>
      </trkpt>
      <trkpt lat="44.29976" lon="5.22021">
        <ele>654</ele>
        <time>2022-07-18T08:39:10Z</time>
      </trkpt>
      <trkpt lat="44.29975" lon="5.22023">
        <ele>653.7</ele>
        <time>2022-07-18T08:39:11Z</time>
      </trkpt>
      <trkpt lat="44.29969" lon="5.22024">
        <ele>652.6</ele>
        <time>2022-07-18T08:39:12Z</time>
      </trkpt>
      <trkpt lat="44.29965" lon="5.22025">
        <ele>652</ele>
        <time>2022-07-18T08:39:13Z</time>
      </trkpt>
      <trkpt lat="44.29958" lon="5.22026">
        <ele>650.8</ele>
        <time>2022-07-18T08:39:14Z</time>
      </trkpt>
      <trkpt lat="44.29954" lon="5.22026">
        <ele>650</ele>
        <time>2022-07-18T08:39:15Z</time>
      </trkpt>
      <trkpt lat="44.29949" lon="5.22026">
        <ele>649.1</ele>
        <time>2022-07-18T08:39:16Z</time>
      </trkpt>
      <trkpt lat="44.29945" lon="5.22027">
        <ele>648.4</ele>
        <time>2022-07-18T08:39:17Z</time>
      </trkpt>
      <trkpt lat="44.29941" lon="5.22028">
        <ele>647.5</ele>
        <time>2022-07-18T08:39:18Z</time>
      </trkpt>
      <trkpt lat="44.29936" lon="5.22029">
        <ele>646.6</ele>
        <time>2022-07-18T08:39:19Z</time>
      </trkpt>
      <trkpt lat="44.2993" lon="5.2203">
        <ele>645.4</ele>
        <time>2022-07-18T08:39:20Z</time>
      </trkpt>
      <trkpt lat="44.29926" lon="5.22031">
        <ele>644.5</ele>
        <time>2022-07-18T08:39:21Z</time>
      </trkpt>
      <trkpt lat="44.29921" lon="5.2203">
        <ele>643.7</ele>
        <time>2022-07-18T08:39:22Z</time>
      </trkpt>
      <trkpt lat="44.29914" lon="5.22032">
        <ele>642.2</ele>
        <time>2022-07-18T08:39:23Z</time>
      </trkpt>
      <trkpt lat="44.29908" lon="5.22035">
        <ele>641</ele>
        <time>2022-07-18T08:39:24Z</time>
      </trkpt>
      <trkpt lat="44.29901" lon="5.22036">
        <ele>639.5</ele>
        <time>2022-07-18T08:39:25Z</time>
      </trkpt>
      <trkpt lat="44.29893" lon="5.22038">
        <ele>638</ele>
        <time>2022-07-18T08:39:26Z</time>
      </trkpt>
      <trkpt lat="44.29886" lon="5.2204">
        <ele>636.6</ele>
        <time>2022-07-18T08:39:27Z</time>
      </trkpt>
      <trkpt lat="44.29878" lon="5.22045">
        <ele>635</ele>
        <time>2022-07-18T08:39:28Z</time>
      </trkpt>
      <trkpt lat="44.29871" lon="5.22048">
        <ele>633.4</ele>
        <time>2022-07-18T08:39:29Z</time>
      </trkpt>
      <trkpt lat="44.2987" lon="5.22058">
        <ele>632.2</ele>
        <time>2022-07-18T08:39:30Z</time>
      </trkpt>
      <trkpt lat="44.29864" lon="5.22062">
        <ele>631.2</ele>
        <time>2022-07-18T08:39:31Z</time>
      </trkpt>
      <trkpt lat="44.29856" lon="5.22065">
        <ele>630.2</ele>
        <time>2022-07-18T08:39:32Z</time>
      </trkpt>
      <trkpt lat="44.2985" lon="5.22066">
        <ele>629.5</ele>
        <time>2022-07-18T08:39:33Z</time>
      </trkpt>
      <trkpt lat="44.29845" lon="5.22067">
        <ele>629</ele>
        <time>2022-07-18T08:39:34Z</time>
      </trkpt>
      <trkpt lat="44.29835" lon="5.22062">
        <ele>627.9</ele>
        <time>2022-07-18T08:39:35Z</time>
      </trkpt>
      <trkpt lat="44.29828" lon="5.22062">
        <ele>627.3</ele>
        <time>2022-07-18T08:39:36Z</time>
      </trkpt>
      <trkpt lat="44.2982" lon="5.22061">
        <ele>626.5</ele>
        <time>2022-07-18T08:39:37Z</time>
      </trkpt>
      <trkpt lat="44.29815" lon="5.22059">
        <ele>626.1</ele>
        <time>2022-07-18T08:39:38Z</time>
      </trkpt>
      <trkpt lat="44.29809" lon="5.22064">
        <ele>625.4</ele>
        <time>2022-07-18T08:39:39Z</time>
      </trkpt>
      <trkpt lat="44.29802" lon="5.22062">
        <ele>624.2</ele>
        <time>2022-07-18T08:39:40Z</time>
      </trkpt>
      <trkpt lat="44.29794" lon="5.2206">
        <ele>622.9</ele>
        <time>2022-07-18T08:39:41Z</time>
      </trkpt>
      <trkpt lat="44.29791" lon="5.22058">
        <ele>622.3</ele>
        <time>2022-07-18T08:39:42Z</time>
      </trkpt>
      <trkpt lat="44.29786" lon="5.2206">
        <ele>621.4</ele>
        <time>2022-07-18T08:39:43Z</time>
      </trkpt>
      <trkpt lat="44.29784" lon="5.22057">
        <ele>620.9</ele>
        <time>2022-07-18T08:39:44Z</time>
      </trkpt>
      <trkpt lat="44.29784" lon="5.22056">
        <ele>621.2</ele>
        <time>2022-07-18T08:39:45Z</time>
      </trkpt>
      <trkpt lat="44.29783" lon="5.22054">
        <ele>621.3</ele>
        <time>2022-07-18T08:39:46Z</time>
      </trkpt>
      <trkpt lat="44.29783" lon="5.22052">
        <ele>621.3</ele>
        <time>2022-07-18T08:39:47Z</time>
      </trkpt>
      <trkpt lat="44.29782" lon="5.22048">
        <ele>621.5</ele>
        <time>2022-07-18T08:39:48Z</time>
      </trkpt>
      <trkpt lat="44.29785" lon="5.22044">
        <ele>621.7</ele>
        <time>2022-07-18T08:39:49Z</time>
      </trkpt>
      <trkpt lat="44.29786" lon="5.2204">
        <ele>621.9</ele>
        <time>2022-07-18T08:39:50Z</time>
      </trkpt>
      <trkpt lat="44.29788" lon="5.22038">
        <ele>622</ele>
        <time>2022-07-18T08:39:51Z</time>
      </trkpt>
      <trkpt lat="44.29789" lon="5.22036">
        <ele>622.1</ele>
        <time>2022-07-18T08:39:52Z</time>
      </trkpt>
      <trkpt lat="44.29791" lon="5.22033">
        <ele>622.3</ele>
        <time>2022-07-18T08:39:53Z</time>
      </trkpt>
      <trkpt lat="44.29791" lon="5.22031">
        <ele>622.4</ele>
        <time>2022-07-18T08:39:54Z</time>
      </trkpt>
      <trkpt lat="44.29792" lon="5.22028">
        <ele>622.5</ele>
        <time>2022-07-18T08:39:55Z</time>
      </trkpt>
      <trkpt lat="44.29792" lon="5.22026">
        <ele>622.6</ele>
        <time>2022-07-18T08:39:56Z</time>
      </trkpt>
      <trkpt lat="44.29793" lon="5.22022">
        <ele>622.8</ele>
        <time>2022-07-18T08:39:57Z</time>
      </trkpt>
      <trkpt lat="44.29793" lon="5.2202">
        <ele>622.8</ele>
        <time>2022-07-18T08:39:58Z</time>
      </trkpt>
      <trkpt lat="44.29794" lon="5.22016">
        <ele>623</ele>
        <time>2022-07-18T08:39:59Z</time>
      </trkpt>
      <trkpt lat="44.29795" lon="5.22014">
        <ele>623</ele>
        <time>2022-07-18T08:40:00Z</time>
      </trkpt>
      <trkpt lat="44.29796" lon="5.22011">
        <ele>623.2</ele>
        <time>2022-07-18T08:40:01Z</time>
      </trkpt>
      <trkpt lat="44.29797" lon="5.22009">
        <ele>623.2</ele>
        <time>2022-07-18T08:40:02Z</time>
      </trkpt>
      <trkpt lat="44.29799" lon="5.22006">
        <ele>623.4</ele>
        <time>2022-07-18T08:40:03Z</time>
      </trkpt>
      <trkpt lat="44.29799" lon="5.22005">
        <ele>623.4</ele>
        <time>2022-07-18T08:40:04Z</time>
      </trkpt>
      <trkpt lat="44.29801" lon="5.22">
        <ele>623.6</ele>
        <time>2022-07-18T08:40:05Z</time>
      </trkpt>
      <trkpt lat="44.29801" lon="5.21999">
        <ele>623.7</ele>
        <time>2022-07-18T08:40:06Z</time>
      </trkpt>
      <trkpt lat="44.29802" lon="5.21995">
        <ele>623.9</ele>
        <time>2022-07-18T08:40:07Z</time>
      </trkpt>
      <trkpt lat="44.29803" lon="5.21993">
        <ele>623.9</ele>
        <time>2022-07-18T08:40:08Z</time>
      </trkpt>
      <trkpt lat="44.29804" lon="5.21989">
        <ele>624.1</ele>
        <time>2022-07-18T08:40:09Z</time>
      </trkpt>
      <trkpt lat="44.29804" lon="5.21988">
        <ele>624.2</ele>
        <time>2022-07-18T08:40:10Z</time>
      </trkpt>
      <trkpt lat="44.29805" lon="5.21984">
        <ele>624.4</ele>
        <time>2022-07-18T08:40:11Z</time>
      </trkpt>
      <trkpt lat="44.29805" lon="5.21978">
        <ele>624.6</ele>
        <time>2022-07-18T08:40:12Z</time>
      </trkpt>
      <trkpt lat="44.29806" lon="5.21977">
        <ele>624.7</ele>
        <time>2022-07-18T08:40:13Z</time>
      </trkpt>
      <trkpt lat="44.29806" lon="5.21973">
        <ele>624.9</ele>
        <time>2022-07-18T08:40:14Z</time>
      </trkpt>
      <trkpt lat="44.29807" lon="5.21968">
        <ele>625.1</ele>
        <time>2022-07-18T08:40:15Z</time>
      </trkpt>
      <trkpt lat="44.29808" lon="5.21964">
        <ele>625.3</ele>
        <time>2022-07-18T08:40:16Z</time>
      </trkpt>
      <trkpt lat="44.29809" lon="5.21961">
        <ele>625.6</ele>
        <time>2022-07-18T08:40:17Z</time>
      </trkpt>
      <trkpt lat="44.29809" lon="5.21957">
        <ele>625.8</ele>
        <time>2022-07-18T08:40:18Z</time>
      </trkpt>
      <trkpt lat="44.2981" lon="5.21953">
        <ele>626</ele>
        <time>2022-07-18T08:40:19Z</time>
      </trkpt>
      <trkpt lat="44.2981" lon="5.21948">
        <ele>626.2</ele>
        <time>2022-07-18T08:40:20Z</time>
      </trkpt>
      <trkpt lat="44.29811" lon="5.21944">
        <ele>626.5</ele>
        <time>2022-07-18T08:40:21Z</time>
      </trkpt>
      <trkpt lat="44.29811" lon="5.2194">
        <ele>626.8</ele>
        <time>2022-07-18T08:40:22Z</time>
      </trkpt>
      <trkpt lat="44.29812" lon="5.21935">
        <ele>627.1</ele>
        <time>2022-07-18T08:40:23Z</time>
      </trkpt>
      <trkpt lat="44.29812" lon="5.21931">
        <ele>627.3</ele>
        <time>2022-07-18T08:40:24Z</time>
      </trkpt>
      <trkpt lat="44.29813" lon="5.21927">
        <ele>627.6</ele>
        <time>2022-07-18T08:40:25Z</time>
      </trkpt>
      <trkpt lat="44.29814" lon="5.21923">
        <ele>627.9</ele>
        <time>2022-07-18T08:40:26Z</time>
      </trkpt>
      <trkpt lat="44.29814" lon="5.2192">
        <ele>628.2</ele>
        <time>2022-07-18T08:40:27Z</time>
      </trkpt>
      <trkpt lat="44.29815" lon="5.21914">
        <ele>628.6</ele>
        <time>2022-07-18T08:40:28Z</time>
      </trkpt>
      <trkpt lat="44.29815" lon="5.21913">
        <ele>628.7</ele>
        <time>2022-07-18T08:40:29Z</time>
      </trkpt>
      <trkpt lat="44.29816" lon="5.21907">
        <ele>629.2</ele>
        <time>2022-07-18T08:40:30Z</time>
      </trkpt>
      <trkpt lat="44.29816" lon="5.21905">
        <ele>629.3</ele>
        <time>2022-07-18T08:40:31Z</time>
      </trkpt>
      <trkpt lat="44.29816" lon="5.219">
        <ele>629.8</ele>
        <time>2022-07-18T08:40:32Z</time>
      </trkpt>
      <trkpt lat="44.29816" lon="5.21898">
        <ele>629.9</ele>
        <time>2022-07-18T08:40:33Z</time>
      </trkpt>
      <trkpt lat="44.29817" lon="5.21893">
        <ele>630.3</ele>
        <time>2022-07-18T08:40:34Z</time>
      </trkpt>
      <trkpt lat="44.29817" lon="5.21891">
        <ele>630.5</ele>
        <time>2022-07-18T08:40:35Z</time>
      </trkpt>
      <trkpt lat="44.29819" lon="5.21886">
        <ele>630.8</ele>
        <time>2022-07-18T08:40:36Z</time>
      </trkpt>
      <trkpt lat="44.2982" lon="5.21885">
        <ele>630.9</ele>
        <time>2022-07-18T08:40:37Z</time>
      </trkpt>
      <trkpt lat="44.29821" lon="5.21881">
        <ele>631.1</ele>
        <time>2022-07-18T08:40:38Z</time>
      </trkpt>
      <trkpt lat="44.29822" lon="5.2188">
        <ele>631.2</ele>
        <time>2022-07-18T08:40:39Z</time>
      </trkpt>
      <trkpt lat="44.29825" lon="5.21877">
        <ele>631.4</ele>
        <time>2022-07-18T08:40:40Z</time>
      </trkpt>
      <trkpt lat="44.29826" lon="5.21876">
        <ele>631.5</ele>
        <time>2022-07-18T08:40:41Z</time>
      </trkpt>
      <trkpt lat="44.29829" lon="5.21874">
        <ele>631.6</ele>
        <time>2022-07-18T08:40:42Z</time>
      </trkpt>
      <trkpt lat="44.29832" lon="5.21873">
        <ele>631.6</ele>
        <time>2022-07-18T08:40:43Z</time>
      </trkpt>
      <trkpt lat="44.29835" lon="5.21872">
        <ele>631.7</ele>
        <time>2022-07-18T08:40:44Z</time>
      </trkpt>
      <trkpt lat="44.29839" lon="5.21872">
        <ele>631.7</ele>
        <time>2022-07-18T08:40:45Z</time>
      </trkpt>
      <trkpt lat="44.29842" lon="5.21871">
        <ele>631.7</ele>
        <time>2022-07-18T08:40:46Z</time>
      </trkpt>
      <trkpt lat="44.29845" lon="5.2187">
        <ele>631.7</ele>
        <time>2022-07-18T08:40:47Z</time>
      </trkpt>
      <trkpt lat="44.29848" lon="5.21867">
        <ele>631.7</ele>
        <time>2022-07-18T08:40:48Z</time>
      </trkpt>
      <trkpt lat="44.29851" lon="5.21864">
        <ele>631.6</ele>
        <time>2022-07-18T08:40:49Z</time>
      </trkpt>
      <trkpt lat="44.29854" lon="5.21859">
        <ele>631.6</ele>
        <time>2022-07-18T08:40:50Z</time>
      </trkpt>
      <trkpt lat="44.29856" lon="5.21854">
        <ele>631.6</ele>
        <time>2022-07-18T08:40:51Z</time>
      </trkpt>
      <trkpt lat="44.29858" lon="5.21848">
        <ele>631.1</ele>
        <time>2022-07-18T08:40:52Z</time>
      </trkpt>
      <trkpt lat="44.2986" lon="5.21843">
        <ele>630.5</ele>
        <time>2022-07-18T08:40:53Z</time>
      </trkpt>
      <trkpt lat="44.29863" lon="5.21835">
        <ele>629.7</ele>
        <time>2022-07-18T08:40:54Z</time>
      </trkpt>
      <trkpt lat="44.29866" lon="5.21828">
        <ele>628.9</ele>
        <time>2022-07-18T08:40:55Z</time>
      </trkpt>
      <trkpt lat="44.29868" lon="5.2182">
        <ele>628.1</ele>
        <time>2022-07-18T08:40:56Z</time>
      </trkpt>
      <trkpt lat="44.29871" lon="5.21809">
        <ele>627</ele>
        <time>2022-07-18T08:40:57Z</time>
      </trkpt>
      <trkpt lat="44.29876" lon="5.218">
        <ele>625.9</ele>
        <time>2022-07-18T08:40:58Z</time>
      </trkpt>
      <trkpt lat="44.29878" lon="5.21789">
        <ele>625</ele>
        <time>2022-07-18T08:40:59Z</time>
      </trkpt>
      <trkpt lat="44.2988" lon="5.21782">
        <ele>624.3</ele>
        <time>2022-07-18T08:41:00Z</time>
      </trkpt>
      <trkpt lat="44.29881" lon="5.21773">
        <ele>623.7</ele>
        <time>2022-07-18T08:41:01Z</time>
      </trkpt>
      <trkpt lat="44.29884" lon="5.2177">
        <ele>623.4</ele>
        <time>2022-07-18T08:41:02Z</time>
      </trkpt>
      <trkpt lat="44.29884" lon="5.21763">
        <ele>622.9</ele>
        <time>2022-07-18T08:41:03Z</time>
      </trkpt>
      <trkpt lat="44.29886" lon="5.21756">
        <ele>622.3</ele>
        <time>2022-07-18T08:41:04Z</time>
      </trkpt>
      <trkpt lat="44.29888" lon="5.21747">
        <ele>621.5</ele>
        <time>2022-07-18T08:41:05Z</time>
      </trkpt>
      <trkpt lat="44.29888" lon="5.21739">
        <ele>620.7</ele>
        <time>2022-07-18T08:41:06Z</time>
      </trkpt>
      <trkpt lat="44.29887" lon="5.21726">
        <ele>619.2</ele>
        <time>2022-07-18T08:41:07Z</time>
      </trkpt>
      <trkpt lat="44.29887" lon="5.21717">
        <ele>618.1</ele>
        <time>2022-07-18T08:41:08Z</time>
      </trkpt>
      <trkpt lat="44.29887" lon="5.21706">
        <ele>616.5</ele>
        <time>2022-07-18T08:41:09Z</time>
      </trkpt>
      <trkpt lat="44.29888" lon="5.21697">
        <ele>615.4</ele>
        <time>2022-07-18T08:41:10Z</time>
      </trkpt>
      <trkpt lat="44.29889" lon="5.21687">
        <ele>614</ele>
        <time>2022-07-18T08:41:11Z</time>
      </trkpt>
      <trkpt lat="44.29891" lon="5.21676">
        <ele>612.8</ele>
        <time>2022-07-18T08:41:12Z</time>
      </trkpt>
      <trkpt lat="44.29892" lon="5.21666">
        <ele>611.8</ele>
        <time>2022-07-18T08:41:13Z</time>
      </trkpt>
      <trkpt lat="44.29895" lon="5.21658">
        <ele>611</ele>
        <time>2022-07-18T08:41:14Z</time>
      </trkpt>
      <trkpt lat="44.29896" lon="5.21649">
        <ele>610.3</ele>
        <time>2022-07-18T08:41:15Z</time>
      </trkpt>
      <trkpt lat="44.29899" lon="5.21644">
        <ele>609.7</ele>
        <time>2022-07-18T08:41:16Z</time>
      </trkpt>
      <trkpt lat="44.29901" lon="5.21635">
        <ele>609</ele>
        <time>2022-07-18T08:41:17Z</time>
      </trkpt>
      <trkpt lat="44.29905" lon="5.2163">
        <ele>608.4</ele>
        <time>2022-07-18T08:41:18Z</time>
      </trkpt>
      <trkpt lat="44.29908" lon="5.21626">
        <ele>607.9</ele>
        <time>2022-07-18T08:41:19Z</time>
      </trkpt>
      <trkpt lat="44.29912" lon="5.21621">
        <ele>607.2</ele>
        <time>2022-07-18T08:41:20Z</time>
      </trkpt>
      <trkpt lat="44.29915" lon="5.21617">
        <ele>606.8</ele>
        <time>2022-07-18T08:41:21Z</time>
      </trkpt>
      <trkpt lat="44.29917" lon="5.21614">
        <ele>606.4</ele>
        <time>2022-07-18T08:41:22Z</time>
      </trkpt>
      <trkpt lat="44.29918" lon="5.21613">
        <ele>606.3</ele>
        <time>2022-07-18T08:41:23Z</time>
      </trkpt>
      <trkpt lat="44.29919" lon="5.2161">
        <ele>606</ele>
        <time>2022-07-18T08:41:24Z</time>
      </trkpt>
      <trkpt lat="44.2992" lon="5.21606">
        <ele>605.6</ele>
        <time>2022-07-18T08:41:25Z</time>
      </trkpt>
      <trkpt lat="44.2992" lon="5.21604">
        <ele>605.4</ele>
        <time>2022-07-18T08:41:26Z</time>
      </trkpt>
      <trkpt lat="44.29921" lon="5.21603">
        <ele>605.3</ele>
        <time>2022-07-18T08:41:27Z</time>
      </trkpt>
      <trkpt lat="44.29921" lon="5.21601">
        <ele>605.1</ele>
        <time>2022-07-18T08:41:28Z</time>
      </trkpt>
      <trkpt lat="44.29921" lon="5.216">
        <ele>605</ele>
        <time>2022-07-18T08:41:29Z</time>
      </trkpt>
      <trkpt lat="44.29922" lon="5.21598">
        <ele>604.8</ele>
        <time>2022-07-18T08:41:30Z</time>
      </trkpt>
      <trkpt lat="44.29922" lon="5.21597">
        <ele>604.7</ele>
        <time>2022-07-18T08:41:31Z</time>
      </trkpt>
      <trkpt lat="44.29922" lon="5.21596">
        <ele>604.5</ele>
        <time>2022-07-18T08:41:32Z</time>
      </trkpt>
      <trkpt lat="44.29922" lon="5.21594">
        <ele>604.4</ele>
        <time>2022-07-18T08:41:33Z</time>
      </trkpt>
      <trkpt lat="44.29923" lon="5.21593">
        <ele>604.2</ele>
        <time>2022-07-18T08:41:34Z</time>
      </trkpt>
      <trkpt lat="44.29923" lon="5.21591">
        <ele>604</ele>
        <time>2022-07-18T08:43:09Z</time>
      </trkpt>
      <trkpt lat="44.29923" lon="5.2159">
        <ele>603.9</ele>
        <time>2022-07-18T08:43:10Z</time>
      </trkpt>
      <trkpt lat="44.29925" lon="5.21585">
        <ele>603.3</ele>
        <time>2022-07-18T08:43:11Z</time>
      </trkpt>
      <trkpt lat="44.29928" lon="5.21575">
        <ele>602</ele>
        <time>2022-07-18T08:43:12Z</time>
      </trkpt>
      <trkpt lat="44.29928" lon="5.21563">
        <ele>600.4</ele>
        <time>2022-07-18T08:43:13Z</time>
      </trkpt>
      <trkpt lat="44.2993" lon="5.21551">
        <ele>598.8</ele>
        <time>2022-07-18T08:43:14Z</time>
      </trkpt>
      <trkpt lat="44.2993" lon="5.2154">
        <ele>597.3</ele>
        <time>2022-07-18T08:43:15Z</time>
      </trkpt>
      <trkpt lat="44.29928" lon="5.21529">
        <ele>595.7</ele>
        <time>2022-07-18T08:43:16Z</time>
      </trkpt>
      <trkpt lat="44.29927" lon="5.21517">
        <ele>594.3</ele>
        <time>2022-07-18T08:43:17Z</time>
      </trkpt>
      <trkpt lat="44.29926" lon="5.21506">
        <ele>593</ele>
        <time>2022-07-18T08:43:18Z</time>
      </trkpt>
      <trkpt lat="44.29925" lon="5.21496">
        <ele>591.9</ele>
        <time>2022-07-18T08:43:19Z</time>
      </trkpt>
      <trkpt lat="44.29925" lon="5.21488">
        <ele>590.9</ele>
        <time>2022-07-18T08:43:20Z</time>
      </trkpt>
      <trkpt lat="44.29921" lon="5.21482">
        <ele>589.9</ele>
        <time>2022-07-18T08:43:21Z</time>
      </trkpt>
      <trkpt lat="44.29919" lon="5.21475">
        <ele>588.9</ele>
        <time>2022-07-18T08:43:22Z</time>
      </trkpt>
      <trkpt lat="44.29917" lon="5.21473">
        <ele>588.4</ele>
        <time>2022-07-18T08:43:23Z</time>
      </trkpt>
      <trkpt lat="44.29913" lon="5.21468">
        <ele>587.2</ele>
        <time>2022-07-18T08:43:24Z</time>
      </trkpt>
      <trkpt lat="44.29914" lon="5.21464">
        <ele>586.5</ele>
        <time>2022-07-18T08:43:25Z</time>
      </trkpt>
      <trkpt lat="44.29915" lon="5.21459">
        <ele>585.6</ele>
        <time>2022-07-18T08:43:26Z</time>
      </trkpt>
      <trkpt lat="44.29918" lon="5.21455">
        <ele>584.9</ele>
        <time>2022-07-18T08:43:27Z</time>
      </trkpt>
      <trkpt lat="44.29921" lon="5.21454">
        <ele>584.8</ele>
        <time>2022-07-18T08:43:28Z</time>
      </trkpt>
      <trkpt lat="44.29926" lon="5.21453">
        <ele>584.7</ele>
        <time>2022-07-18T08:43:29Z</time>
      </trkpt>
      <trkpt lat="44.29931" lon="5.21451">
        <ele>584.5</ele>
        <time>2022-07-18T08:43:30Z</time>
      </trkpt>
      <trkpt lat="44.29936" lon="5.2145">
        <ele>584.4</ele>
        <time>2022-07-18T08:43:31Z</time>
      </trkpt>
      <trkpt lat="44.29941" lon="5.21448">
        <ele>584.3</ele>
        <time>2022-07-18T08:43:32Z</time>
      </trkpt>
      <trkpt lat="44.29946" lon="5.21446">
        <ele>584.1</ele>
        <time>2022-07-18T08:43:33Z</time>
      </trkpt>
      <trkpt lat="44.2995" lon="5.21443">
        <ele>584</ele>
        <time>2022-07-18T08:43:34Z</time>
      </trkpt>
      <trkpt lat="44.29956" lon="5.21439">
        <ele>583.8</ele>
        <time>2022-07-18T08:43:35Z</time>
      </trkpt>
      <trkpt lat="44.29961" lon="5.21434">
        <ele>583.6</ele>
        <time>2022-07-18T08:43:36Z</time>
      </trkpt>
      <trkpt lat="44.29966" lon="5.21431">
        <ele>583.5</ele>
        <time>2022-07-18T08:43:37Z</time>
      </trkpt>
      <trkpt lat="44.29971" lon="5.21428">
        <ele>583.3</ele>
        <time>2022-07-18T08:43:38Z</time>
      </trkpt>
      <trkpt lat="44.29977" lon="5.21424">
        <ele>583.1</ele>
        <time>2022-07-18T08:43:39Z</time>
      </trkpt>
      <trkpt lat="44.29982" lon="5.21419">
        <ele>582.9</ele>
        <time>2022-07-18T08:43:40Z</time>
      </trkpt>
      <trkpt lat="44.29987" lon="5.21416">
        <ele>582.7</ele>
        <time>2022-07-18T08:43:41Z</time>
      </trkpt>
      <trkpt lat="44.29993" lon="5.2141">
        <ele>582.5</ele>
        <time>2022-07-18T08:43:42Z</time>
      </trkpt>
      <trkpt lat="44.29998" lon="5.21405">
        <ele>582.2</ele>
        <time>2022-07-18T08:43:43Z</time>
      </trkpt>
      <trkpt lat="44.30003" lon="5.214">
        <ele>581.9</ele>
        <time>2022-07-18T08:43:44Z</time>
      </trkpt>
      <trkpt lat="44.30009" lon="5.21395">
        <ele>581.5</ele>
        <time>2022-07-18T08:43:45Z</time>
      </trkpt>
      <trkpt lat="44.30014" lon="5.2139">
        <ele>581.1</ele>
        <time>2022-07-18T08:43:46Z</time>
      </trkpt>
      <trkpt lat="44.30021" lon="5.21384">
        <ele>580.7</ele>
        <time>2022-07-18T08:43:47Z</time>
      </trkpt>
      <trkpt lat="44.30026" lon="5.21379">
        <ele>580.3</ele>
        <time>2022-07-18T08:43:48Z</time>
      </trkpt>
      <trkpt lat="44.30032" lon="5.21373">
        <ele>580</ele>
        <time>2022-07-18T08:43:49Z</time>
      </trkpt>
      <trkpt lat="44.30037" lon="5.21367">
        <ele>579.7</ele>
        <time>2022-07-18T08:43:50Z</time>
      </trkpt>
      <trkpt lat="44.30043" lon="5.2136">
        <ele>579.3</ele>
        <time>2022-07-18T08:43:51Z</time>
      </trkpt>
      <trkpt lat="44.30049" lon="5.21352">
        <ele>579</ele>
        <time>2022-07-18T08:43:52Z</time>
      </trkpt>
      <trkpt lat="44.30055" lon="5.21336">
        <ele>578.6</ele>
        <time>2022-07-18T08:43:53Z</time>
      </trkpt>
      <trkpt lat="44.30058" lon="5.21327">
        <ele>578.4</ele>
        <time>2022-07-18T08:43:54Z</time>
      </trkpt>
      <trkpt lat="44.30061" lon="5.21317">
        <ele>578.3</ele>
        <time>2022-07-18T08:43:55Z</time>
      </trkpt>
      <trkpt lat="44.30063" lon="5.21306">
        <ele>578.3</ele>
        <time>2022-07-18T08:43:56Z</time>
      </trkpt>
      <trkpt lat="44.30064" lon="5.21296">
        <ele>578.3</ele>
        <time>2022-07-18T08:43:57Z</time>
      </trkpt>
      <trkpt lat="44.30066" lon="5.21285">
        <ele>578.2</ele>
        <time>2022-07-18T08:43:58Z</time>
      </trkpt>
      <trkpt lat="44.30067" lon="5.21272">
        <ele>578</ele>
        <time>2022-07-18T08:43:59Z</time>
      </trkpt>
      <trkpt lat="44.30067" lon="5.21261">
        <ele>577.8</ele>
        <time>2022-07-18T08:44:00Z</time>
      </trkpt>
      <trkpt lat="44.30068" lon="5.21251">
        <ele>577.7</ele>
        <time>2022-07-18T08:44:01Z</time>
      </trkpt>
      <trkpt lat="44.30066" lon="5.2124">
        <ele>577.5</ele>
        <time>2022-07-18T08:44:02Z</time>
      </trkpt>
      <trkpt lat="44.30067" lon="5.21231">
        <ele>577.3</ele>
        <time>2022-07-18T08:44:03Z</time>
      </trkpt>
      <trkpt lat="44.30067" lon="5.2122">
        <ele>577.1</ele>
        <time>2022-07-18T08:44:04Z</time>
      </trkpt>
      <trkpt lat="44.30067" lon="5.21211">
        <ele>576.8</ele>
        <time>2022-07-18T08:44:05Z</time>
      </trkpt>
      <trkpt lat="44.30068" lon="5.21201">
        <ele>576.5</ele>
        <time>2022-07-18T08:44:06Z</time>
      </trkpt>
      <trkpt lat="44.3007" lon="5.21192">
        <ele>576.1</ele>
        <time>2022-07-18T08:44:07Z</time>
      </trkpt>
      <trkpt lat="44.30073" lon="5.21183">
        <ele>575.8</ele>
        <time>2022-07-18T08:44:08Z</time>
      </trkpt>
      <trkpt lat="44.30078" lon="5.21173">
        <ele>575.3</ele>
        <time>2022-07-18T08:44:09Z</time>
      </trkpt>
      <trkpt lat="44.30082" lon="5.21164">
        <ele>574.9</ele>
        <time>2022-07-18T08:44:10Z</time>
      </trkpt>
      <trkpt lat="44.30085" lon="5.21154">
        <ele>574.6</ele>
        <time>2022-07-18T08:44:11Z</time>
      </trkpt>
      <trkpt lat="44.30093" lon="5.21145">
        <ele>574</ele>
        <time>2022-07-18T08:44:12Z</time>
      </trkpt>
      <trkpt lat="44.30097" lon="5.21136">
        <ele>573.7</ele>
        <time>2022-07-18T08:44:13Z</time>
      </trkpt>
      <trkpt lat="44.30101" lon="5.21126">
        <ele>573.3</ele>
        <time>2022-07-18T08:44:14Z</time>
      </trkpt>
      <trkpt lat="44.30104" lon="5.21115">
        <ele>573.1</ele>
        <time>2022-07-18T08:44:15Z</time>
      </trkpt>
      <trkpt lat="44.30108" lon="5.21103">
        <ele>572.8</ele>
        <time>2022-07-18T08:44:16Z</time>
      </trkpt>
      <trkpt lat="44.30113" lon="5.21093">
        <ele>572.5</ele>
        <time>2022-07-18T08:44:17Z</time>
      </trkpt>
      <trkpt lat="44.30117" lon="5.21083">
        <ele>572.4</ele>
        <time>2022-07-18T08:44:18Z</time>
      </trkpt>
      <trkpt lat="44.30121" lon="5.21073">
        <ele>572.2</ele>
        <time>2022-07-18T08:44:19Z</time>
      </trkpt>
      <trkpt lat="44.30126" lon="5.21064">
        <ele>572.1</ele>
        <time>2022-07-18T08:44:20Z</time>
      </trkpt>
      <trkpt lat="44.30131" lon="5.21056">
        <ele>572</ele>
        <time>2022-07-18T08:44:21Z</time>
      </trkpt>
      <trkpt lat="44.30136" lon="5.21049">
        <ele>571.9</ele>
        <time>2022-07-18T08:44:22Z</time>
      </trkpt>
      <trkpt lat="44.30141" lon="5.21043">
        <ele>571.9</ele>
        <time>2022-07-18T08:44:23Z</time>
      </trkpt>
      <trkpt lat="44.30147" lon="5.21036">
        <ele>571.8</ele>
        <time>2022-07-18T08:44:24Z</time>
      </trkpt>
      <trkpt lat="44.30152" lon="5.21028">
        <ele>571.7</ele>
        <time>2022-07-18T08:44:25Z</time>
      </trkpt>
      <trkpt lat="44.30157" lon="5.21018">
        <ele>571.6</ele>
        <time>2022-07-18T08:44:26Z</time>
      </trkpt>
      <trkpt lat="44.30162" lon="5.21011">
        <ele>571.6</ele>
        <time>2022-07-18T08:44:27Z</time>
      </trkpt>
      <trkpt lat="44.30167" lon="5.21004">
        <ele>571.6</ele>
        <time>2022-07-18T08:44:28Z</time>
      </trkpt>
      <trkpt lat="44.30172" lon="5.20997">
        <ele>571.5</ele>
        <time>2022-07-18T08:44:29Z</time>
      </trkpt>
      <trkpt lat="44.30177" lon="5.20991">
        <ele>571.5</ele>
        <time>2022-07-18T08:44:30Z</time>
      </trkpt>
      <trkpt lat="44.30182" lon="5.20985">
        <ele>571.4</ele>
        <time>2022-07-18T08:44:31Z</time>
      </trkpt>
      <trkpt lat="44.30186" lon="5.20979">
        <ele>571.3</ele>
        <time>2022-07-18T08:44:32Z</time>
      </trkpt>
      <trkpt lat="44.30191" lon="5.20973">
        <ele>571.1</ele>
        <time>2022-07-18T08:44:33Z</time>
      </trkpt>
      <trkpt lat="44.30195" lon="5.20967">
        <ele>570.9</ele>
        <time>2022-07-18T08:44:34Z</time>
      </trkpt>
      <trkpt lat="44.302" lon="5.2096">
        <ele>570.7</ele>
        <time>2022-07-18T08:44:35Z</time>
      </trkpt>
      <trkpt lat="44.30204" lon="5.20952">
        <ele>570.5</ele>
        <time>2022-07-18T08:44:36Z</time>
      </trkpt>
      <trkpt lat="44.30208" lon="5.20943">
        <ele>570.3</ele>
        <time>2022-07-18T08:44:37Z</time>
      </trkpt>
      <trkpt lat="44.3021" lon="5.20933">
        <ele>570.2</ele>
        <time>2022-07-18T08:44:38Z</time>
      </trkpt>
      <trkpt lat="44.30212" lon="5.20925">
        <ele>570.1</ele>
        <time>2022-07-18T08:44:39Z</time>
      </trkpt>
      <trkpt lat="44.30214" lon="5.20915">
        <ele>570</ele>
        <time>2022-07-18T08:44:40Z</time>
      </trkpt>
      <trkpt lat="44.30214" lon="5.20906">
        <ele>569.8</ele>
        <time>2022-07-18T08:44:41Z</time>
      </trkpt>
      <trkpt lat="44.30215" lon="5.20897">
        <ele>569.7</ele>
        <time>2022-07-18T08:44:42Z</time>
      </trkpt>
      <trkpt lat="44.30215" lon="5.20886">
        <ele>569.6</ele>
        <time>2022-07-18T08:44:43Z</time>
      </trkpt>
      <trkpt lat="44.30218" lon="5.20876">
        <ele>569.5</ele>
        <time>2022-07-18T08:44:44Z</time>
      </trkpt>
      <trkpt lat="44.30221" lon="5.20866">
        <ele>569.4</ele>
        <time>2022-07-18T08:44:45Z</time>
      </trkpt>
      <trkpt lat="44.30226" lon="5.20856">
        <ele>569.3</ele>
        <time>2022-07-18T08:44:46Z</time>
      </trkpt>
      <trkpt lat="44.30231" lon="5.20847">
        <ele>569.3</ele>
        <time>2022-07-18T08:44:47Z</time>
      </trkpt>
      <trkpt lat="44.30237" lon="5.20846">
        <ele>569.3</ele>
        <time>2022-07-18T08:44:48Z</time>
      </trkpt>
      <trkpt lat="44.30242" lon="5.20842">
        <ele>569.3</ele>
        <time>2022-07-18T08:44:49Z</time>
      </trkpt>
      <trkpt lat="44.30247" lon="5.20837">
        <ele>569.3</ele>
        <time>2022-07-18T08:44:50Z</time>
      </trkpt>
      <trkpt lat="44.30254" lon="5.20834">
        <ele>569.4</ele>
        <time>2022-07-18T08:44:51Z</time>
      </trkpt>
      <trkpt lat="44.30259" lon="5.20832">
        <ele>569.4</ele>
        <time>2022-07-18T08:44:52Z</time>
      </trkpt>
      <trkpt lat="44.30264" lon="5.20829">
        <ele>569.5</ele>
        <time>2022-07-18T08:44:53Z</time>
      </trkpt>
      <trkpt lat="44.30269" lon="5.20827">
        <ele>569.6</ele>
        <time>2022-07-18T08:44:54Z</time>
      </trkpt>
      <trkpt lat="44.30275" lon="5.20824">
        <ele>569.7</ele>
        <time>2022-07-18T08:44:55Z</time>
      </trkpt>
      <trkpt lat="44.3028" lon="5.20822">
        <ele>569.8</ele>
        <time>2022-07-18T08:44:56Z</time>
      </trkpt>
      <trkpt lat="44.30284" lon="5.20815">
        <ele>570</ele>
        <time>2022-07-18T08:44:57Z</time>
      </trkpt>
      <trkpt lat="44.30288" lon="5.20808">
        <ele>570.1</ele>
        <time>2022-07-18T08:44:58Z</time>
      </trkpt>
      <trkpt lat="44.3029" lon="5.20801">
        <ele>570.3</ele>
        <time>2022-07-18T08:44:59Z</time>
      </trkpt>
      <trkpt lat="44.3029" lon="5.20794">
        <ele>570.5</ele>
        <time>2022-07-18T08:45:00Z</time>
      </trkpt>
      <trkpt lat="44.30289" lon="5.20787">
        <ele>570.6</ele>
        <time>2022-07-18T08:45:01Z</time>
      </trkpt>
      <trkpt lat="44.30287" lon="5.20779">
        <ele>570.8</ele>
        <time>2022-07-18T08:45:02Z</time>
      </trkpt>
      <trkpt lat="44.30285" lon="5.20772">
        <ele>571</ele>
        <time>2022-07-18T08:45:03Z</time>
      </trkpt>
      <trkpt lat="44.30281" lon="5.20769">
        <ele>571.2</ele>
        <time>2022-07-18T08:45:04Z</time>
      </trkpt>
      <trkpt lat="44.30277" lon="5.20764">
        <ele>571.4</ele>
        <time>2022-07-18T08:45:05Z</time>
      </trkpt>
      <trkpt lat="44.30273" lon="5.20761">
        <ele>571.6</ele>
        <time>2022-07-18T08:45:06Z</time>
      </trkpt>
      <trkpt lat="44.30271" lon="5.20759">
        <ele>571.7</ele>
        <time>2022-07-18T08:45:07Z</time>
      </trkpt>
      <trkpt lat="44.30267" lon="5.20755">
        <ele>572</ele>
        <time>2022-07-18T08:45:08Z</time>
      </trkpt>
      <trkpt lat="44.30265" lon="5.20753">
        <ele>572.2</ele>
        <time>2022-07-18T08:45:09Z</time>
      </trkpt>
      <trkpt lat="44.3026" lon="5.2075">
        <ele>572.5</ele>
        <time>2022-07-18T08:45:10Z</time>
      </trkpt>
      <trkpt lat="44.30257" lon="5.20748">
        <ele>572.8</ele>
        <time>2022-07-18T08:45:11Z</time>
      </trkpt>
      <trkpt lat="44.30251" lon="5.2075">
        <ele>573.2</ele>
        <time>2022-07-18T08:45:12Z</time>
      </trkpt>
      <trkpt lat="44.30248" lon="5.20749">
        <ele>573.5</ele>
        <time>2022-07-18T08:45:13Z</time>
      </trkpt>
      <trkpt lat="44.30245" lon="5.20751">
        <ele>573.8</ele>
        <time>2022-07-18T08:45:14Z</time>
      </trkpt>
      <trkpt lat="44.30243" lon="5.20751">
        <ele>574</ele>
        <time>2022-07-18T08:45:15Z</time>
      </trkpt>
      <trkpt lat="44.30239" lon="5.2075">
        <ele>574.3</ele>
        <time>2022-07-18T08:45:16Z</time>
      </trkpt>
      <trkpt lat="44.30238" lon="5.2075">
        <ele>574.4</ele>
        <time>2022-07-18T08:45:17Z</time>
      </trkpt>
      <trkpt lat="44.30235" lon="5.2075">
        <ele>574.7</ele>
        <time>2022-07-18T08:45:18Z</time>
      </trkpt>
      <trkpt lat="44.30234" lon="5.2075">
        <ele>574.8</ele>
        <time>2022-07-18T08:45:19Z</time>
      </trkpt>
      <trkpt lat="44.3023" lon="5.2075">
        <ele>575.2</ele>
        <time>2022-07-18T08:45:20Z</time>
      </trkpt>
      <trkpt lat="44.30228" lon="5.20751">
        <ele>575.4</ele>
        <time>2022-07-18T08:45:21Z</time>
      </trkpt>
      <trkpt lat="44.30225" lon="5.20753">
        <ele>575.7</ele>
        <time>2022-07-18T08:45:22Z</time>
      </trkpt>
      <trkpt lat="44.30223" lon="5.20754">
        <ele>576</ele>
        <time>2022-07-18T08:45:23Z</time>
      </trkpt>
      <trkpt lat="44.3022" lon="5.20755">
        <ele>576.3</ele>
        <time>2022-07-18T08:45:24Z</time>
      </trkpt>
      <trkpt lat="44.30217" lon="5.20756">
        <ele>576.6</ele>
        <time>2022-07-18T08:45:25Z</time>
      </trkpt>
      <trkpt lat="44.30214" lon="5.20756">
        <ele>576.9</ele>
        <time>2022-07-18T08:45:26Z</time>
      </trkpt>
      <trkpt lat="44.30213" lon="5.20756">
        <ele>577</ele>
        <time>2022-07-18T08:45:27Z</time>
      </trkpt>
      <trkpt lat="44.30211" lon="5.20755">
        <ele>577.2</ele>
        <time>2022-07-18T08:45:28Z</time>
      </trkpt>
      <trkpt lat="44.30211" lon="5.20755">
        <ele>577.2</ele>
        <time>2022-07-18T08:45:29Z</time>
      </trkpt>
      <trkpt lat="44.3021" lon="5.20754">
        <ele>577.3</ele>
        <time>2022-07-18T08:45:30Z</time>
      </trkpt>
      <trkpt lat="44.30208" lon="5.20753">
        <ele>577.5</ele>
        <time>2022-07-18T08:45:31Z</time>
      </trkpt>
      <trkpt lat="44.30207" lon="5.20753">
        <ele>577.6</ele>
        <time>2022-07-18T08:45:32Z</time>
      </trkpt>
      <trkpt lat="44.30206" lon="5.20753">
        <ele>577.7</ele>
        <time>2022-07-18T08:45:33Z</time>
      </trkpt>
      <trkpt lat="44.30206" lon="5.20754">
        <ele>577.8</ele>
        <time>2022-07-18T08:45:34Z</time>
      </trkpt>
      <trkpt lat="44.30205" lon="5.20754">
        <ele>577.8</ele>
        <time>2022-07-18T08:45:35Z</time>
      </trkpt>
      <trkpt lat="44.30205" lon="5.20755">
        <ele>577.8</ele>
        <time>2022-07-18T08:45:36Z</time>
      </trkpt>
      <trkpt lat="44.30205" lon="5.20755">
        <ele>577.8</ele>
        <time>2022-07-18T08:45:37Z</time>
      </trkpt>
      <trkpt lat="44.30204" lon="5.20755">
        <ele>577.8</ele>
        <time>2022-07-18T08:45:38Z</time>
      </trkpt>
      <trkpt lat="44.30204" lon="5.20756">
        <ele>577.7</ele>
        <time>2022-07-18T08:45:39Z</time>
      </trkpt>
      <trkpt lat="44.30204" lon="5.20756">
        <ele>577.7</ele>
        <time>2022-07-18T08:45:40Z</time>
      </trkpt>
      <trkpt lat="44.30203" lon="5.20757">
        <ele>577.7</ele>
        <time>2022-07-18T08:45:41Z</time>
      </trkpt>
      <trkpt lat="44.30203" lon="5.20757">
        <ele>577.6</ele>
        <time>2022-07-18T08:45:42Z</time>
      </trkpt>
      <trkpt lat="44.30203" lon="5.20758">
        <ele>577.6</ele>
        <time>2022-07-18T08:45:43Z</time>
      </trkpt>
      <trkpt lat="44.30199" lon="5.20757">
        <ele>577.3</ele>
        <time>2022-07-18T08:45:44Z</time>
      </trkpt>
      <trkpt lat="44.30196" lon="5.20757">
        <ele>577</ele>
        <time>2022-07-18T08:46:09Z</time>
      </trkpt>
      <trkpt lat="44.30192" lon="5.20757">
        <ele>576.8</ele>
        <time>2022-07-18T08:46:10Z</time>
      </trkpt>
      <trkpt lat="44.30189" lon="5.20757">
        <ele>576.6</ele>
        <time>2022-07-18T08:46:11Z</time>
      </trkpt>
      <trkpt lat="44.30185" lon="5.20758">
        <ele>576.5</ele>
        <time>2022-07-18T08:46:12Z</time>
      </trkpt>
      <trkpt lat="44.30177" lon="5.20762">
        <ele>576.3</ele>
        <time>2022-07-18T08:46:13Z</time>
      </trkpt>
      <trkpt lat="44.30173" lon="5.20765">
        <ele>576.2</ele>
        <time>2022-07-18T08:46:14Z</time>
      </trkpt>
      <trkpt lat="44.3017" lon="5.20767">
        <ele>576.2</ele>
        <time>2022-07-18T08:46:15Z</time>
      </trkpt>
      <trkpt lat="44.30159" lon="5.20767">
        <ele>576.2</ele>
        <time>2022-07-18T08:46:16Z</time>
      </trkpt>
      <trkpt lat="44.30154" lon="5.20764">
        <ele>576.2</ele>
        <time>2022-07-18T08:46:17Z</time>
      </trkpt>
      <trkpt lat="44.30148" lon="5.2076">
        <ele>576.3</ele>
        <time>2022-07-18T08:46:18Z</time>
      </trkpt>
      <trkpt lat="44.30144" lon="5.20756">
        <ele>576.4</ele>
        <time>2022-07-18T08:46:19Z</time>
      </trkpt>
      <trkpt lat="44.30138" lon="5.20752">
        <ele>576.6</ele>
        <time>2022-07-18T08:46:20Z</time>
      </trkpt>
      <trkpt lat="44.30133" lon="5.20749">
        <ele>576.9</ele>
        <time>2022-07-18T08:46:21Z</time>
      </trkpt>
      <trkpt lat="44.30127" lon="5.20747">
        <ele>576.8</ele>
        <time>2022-07-18T08:46:22Z</time>
      </trkpt>
      <trkpt lat="44.30122" lon="5.20746">
        <ele>576.6</ele>
        <time>2022-07-18T08:46:23Z</time>
      </trkpt>
      <trkpt lat="44.30116" lon="5.20746">
        <ele>576.3</ele>
        <time>2022-07-18T08:46:24Z</time>
      </trkpt>
      <trkpt lat="44.30111" lon="5.20747">
        <ele>576.1</ele>
        <time>2022-07-18T08:46:25Z</time>
      </trkpt>
      <trkpt lat="44.30105" lon="5.20747">
        <ele>575.9</ele>
        <time>2022-07-18T08:46:26Z</time>
      </trkpt>
      <trkpt lat="44.30098" lon="5.20746">
        <ele>575.6</ele>
        <time>2022-07-18T08:46:27Z</time>
      </trkpt>
      <trkpt lat="44.30091" lon="5.20746">
        <ele>575.1</ele>
        <time>2022-07-18T08:46:28Z</time>
      </trkpt>
      <trkpt lat="44.30087" lon="5.20746">
        <ele>574.9</ele>
        <time>2022-07-18T08:46:29Z</time>
      </trkpt>
      <trkpt lat="44.3008" lon="5.20746">
        <ele>574.4</ele>
        <time>2022-07-18T08:46:30Z</time>
      </trkpt>
      <trkpt lat="44.30074" lon="5.20743">
        <ele>574.1</ele>
        <time>2022-07-18T08:46:31Z</time>
      </trkpt>
      <trkpt lat="44.30067" lon="5.20745">
        <ele>573.8</ele>
        <time>2022-07-18T08:46:32Z</time>
      </trkpt>
      <trkpt lat="44.30062" lon="5.20746">
        <ele>573.6</ele>
        <time>2022-07-18T08:46:33Z</time>
      </trkpt>
      <trkpt lat="44.30057" lon="5.20746">
        <ele>573.4</ele>
        <time>2022-07-18T08:46:34Z</time>
      </trkpt>
      <trkpt lat="44.30051" lon="5.20743">
        <ele>573.2</ele>
        <time>2022-07-18T08:46:35Z</time>
      </trkpt>
      <trkpt lat="44.30044" lon="5.20736">
        <ele>572.8</ele>
        <time>2022-07-18T08:46:36Z</time>
      </trkpt>
      <trkpt lat="44.30038" lon="5.20732">
        <ele>572.5</ele>
        <time>2022-07-18T08:46:37Z</time>
      </trkpt>
      <trkpt lat="44.30031" lon="5.20734">
        <ele>572.2</ele>
        <time>2022-07-18T08:46:38Z</time>
      </trkpt>
      <trkpt lat="44.30024" lon="5.20733">
        <ele>571.9</ele>
        <time>2022-07-18T08:46:39Z</time>
      </trkpt>
      <trkpt lat="44.30015" lon="5.20737">
        <ele>571.5</ele>
        <time>2022-07-18T08:46:40Z</time>
      </trkpt>
      <trkpt lat="44.30006" lon="5.20739">
        <ele>571.2</ele>
        <time>2022-07-18T08:46:41Z</time>
      </trkpt>
      <trkpt lat="44.29999" lon="5.20741">
        <ele>570.9</ele>
        <time>2022-07-18T08:46:42Z</time>
      </trkpt>
      <trkpt lat="44.29992" lon="5.20744">
        <ele>570.6</ele>
        <time>2022-07-18T08:46:43Z</time>
      </trkpt>
      <trkpt lat="44.29985" lon="5.20749">
        <ele>570.2</ele>
        <time>2022-07-18T08:46:44Z</time>
      </trkpt>
      <trkpt lat="44.29977" lon="5.20753">
        <ele>569.9</ele>
        <time>2022-07-18T08:46:45Z</time>
      </trkpt>
      <trkpt lat="44.29971" lon="5.20758">
        <ele>569.6</ele>
        <time>2022-07-18T08:46:46Z</time>
      </trkpt>
      <trkpt lat="44.29965" lon="5.20762">
        <ele>569.3</ele>
        <time>2022-07-18T08:46:47Z</time>
      </trkpt>
      <trkpt lat="44.2996" lon="5.20761">
        <ele>569.2</ele>
        <time>2022-07-18T08:46:48Z</time>
      </trkpt>
      <trkpt lat="44.29952" lon="5.20758">
        <ele>568.8</ele>
        <time>2022-07-18T08:46:49Z</time>
      </trkpt>
      <trkpt lat="44.29946" lon="5.20756">
        <ele>568.5</ele>
        <time>2022-07-18T08:46:50Z</time>
      </trkpt>
      <trkpt lat="44.29937" lon="5.2076">
        <ele>568.1</ele>
        <time>2022-07-18T08:46:51Z</time>
      </trkpt>
      <trkpt lat="44.29929" lon="5.2076">
        <ele>567.8</ele>
        <time>2022-07-18T08:46:52Z</time>
      </trkpt>
      <trkpt lat="44.29924" lon="5.20762">
        <ele>567.6</ele>
        <time>2022-07-18T08:46:53Z</time>
      </trkpt>
      <trkpt lat="44.29915" lon="5.20763">
        <ele>567.2</ele>
        <time>2022-07-18T08:46:54Z</time>
      </trkpt>
      <trkpt lat="44.29908" lon="5.20766">
        <ele>566.9</ele>
        <time>2022-07-18T08:46:55Z</time>
      </trkpt>
      <trkpt lat="44.29903" lon="5.20766">
        <ele>566.7</ele>
        <time>2022-07-18T08:46:56Z</time>
      </trkpt>
      <trkpt lat="44.29893" lon="5.20768">
        <ele>566.3</ele>
        <time>2022-07-18T08:46:57Z</time>
      </trkpt>
      <trkpt lat="44.29888" lon="5.20768">
        <ele>566.1</ele>
        <time>2022-07-18T08:46:58Z</time>
      </trkpt>
      <trkpt lat="44.29884" lon="5.20769">
        <ele>566</ele>
        <time>2022-07-18T08:46:59Z</time>
      </trkpt>
      <trkpt lat="44.29878" lon="5.20773">
        <ele>565.7</ele>
        <time>2022-07-18T08:47:00Z</time>
      </trkpt>
      <trkpt lat="44.29871" lon="5.20773">
        <ele>565.4</ele>
        <time>2022-07-18T08:47:01Z</time>
      </trkpt>
      <trkpt lat="44.29856" lon="5.2077">
        <ele>564.8</ele>
        <time>2022-07-18T08:47:02Z</time>
      </trkpt>
      <trkpt lat="44.29849" lon="5.20767">
        <ele>564.5</ele>
        <time>2022-07-18T08:47:03Z</time>
      </trkpt>
      <trkpt lat="44.2984" lon="5.20764">
        <ele>564.1</ele>
        <time>2022-07-18T08:47:04Z</time>
      </trkpt>
      <trkpt lat="44.29835" lon="5.20766">
        <ele>563.9</ele>
        <time>2022-07-18T08:47:05Z</time>
      </trkpt>
      <trkpt lat="44.29826" lon="5.20766">
        <ele>563.5</ele>
        <time>2022-07-18T08:47:06Z</time>
      </trkpt>
      <trkpt lat="44.29819" lon="5.20765">
        <ele>563.2</ele>
        <time>2022-07-18T08:47:07Z</time>
      </trkpt>
      <trkpt lat="44.29812" lon="5.20763">
        <ele>562.9</ele>
        <time>2022-07-18T08:47:08Z</time>
      </trkpt>
      <trkpt lat="44.29804" lon="5.20763">
        <ele>562.6</ele>
        <time>2022-07-18T08:47:09Z</time>
      </trkpt>
      <trkpt lat="44.29798" lon="5.20762">
        <ele>562.3</ele>
        <time>2022-07-18T08:47:10Z</time>
      </trkpt>
      <trkpt lat="44.29789" lon="5.2076">
        <ele>562</ele>
        <time>2022-07-18T08:47:11Z</time>
      </trkpt>
      <trkpt lat="44.2978" lon="5.20761">
        <ele>561.6</ele>
        <time>2022-07-18T08:47:12Z</time>
      </trkpt>
      <trkpt lat="44.29774" lon="5.20759">
        <ele>561.3</ele>
        <time>2022-07-18T08:47:13Z</time>
      </trkpt>
      <trkpt lat="44.29768" lon="5.20757">
        <ele>561.1</ele>
        <time>2022-07-18T08:47:14Z</time>
      </trkpt>
      <trkpt lat="44.29761" lon="5.20755">
        <ele>560.8</ele>
        <time>2022-07-18T08:47:15Z</time>
      </trkpt>
      <trkpt lat="44.29754" lon="5.20751">
        <ele>560.5</ele>
        <time>2022-07-18T08:47:16Z</time>
      </trkpt>
      <trkpt lat="44.29748" lon="5.20746">
        <ele>560.2</ele>
        <time>2022-07-18T08:47:17Z</time>
      </trkpt>
      <trkpt lat="44.2974" lon="5.2074">
        <ele>559.8</ele>
        <time>2022-07-18T08:47:18Z</time>
      </trkpt>
      <trkpt lat="44.29734" lon="5.20734">
        <ele>559.5</ele>
        <time>2022-07-18T08:47:19Z</time>
      </trkpt>
      <trkpt lat="44.2973" lon="5.20728">
        <ele>559.3</ele>
        <time>2022-07-18T08:47:20Z</time>
      </trkpt>
      <trkpt lat="44.29724" lon="5.20722">
        <ele>559</ele>
        <time>2022-07-18T08:47:21Z</time>
      </trkpt>
      <trkpt lat="44.29718" lon="5.20717">
        <ele>558.7</ele>
        <time>2022-07-18T08:47:22Z</time>
      </trkpt>
      <trkpt lat="44.29709" lon="5.20709">
        <ele>558.3</ele>
        <time>2022-07-18T08:47:23Z</time>
      </trkpt>
      <trkpt lat="44.29705" lon="5.20702">
        <ele>558</ele>
        <time>2022-07-18T08:47:24Z</time>
      </trkpt>
      <trkpt lat="44.29697" lon="5.20696">
        <ele>557.6</ele>
        <time>2022-07-18T08:47:25Z</time>
      </trkpt>
      <trkpt lat="44.29692" lon="5.20691">
        <ele>557.4</ele>
        <time>2022-07-18T08:47:26Z</time>
      </trkpt>
      <trkpt lat="44.29687" lon="5.20688">
        <ele>557.1</ele>
        <time>2022-07-18T08:47:27Z</time>
      </trkpt>
      <trkpt lat="44.29679" lon="5.20686">
        <ele>556.8</ele>
        <time>2022-07-18T08:47:28Z</time>
      </trkpt>
      <trkpt lat="44.29674" lon="5.20685">
        <ele>556.6</ele>
        <time>2022-07-18T08:47:29Z</time>
      </trkpt>
      <trkpt lat="44.29667" lon="5.20681">
        <ele>556.3</ele>
        <time>2022-07-18T08:47:30Z</time>
      </trkpt>
      <trkpt lat="44.29663" lon="5.20677">
        <ele>556.1</ele>
        <time>2022-07-18T08:47:31Z</time>
      </trkpt>
      <trkpt lat="44.29657" lon="5.20671">
        <ele>555.8</ele>
        <time>2022-07-18T08:47:32Z</time>
      </trkpt>
      <trkpt lat="44.29652" lon="5.20666">
        <ele>555.5</ele>
        <time>2022-07-18T08:47:33Z</time>
      </trkpt>
      <trkpt lat="44.29647" lon="5.20661">
        <ele>555.3</ele>
        <time>2022-07-18T08:47:34Z</time>
      </trkpt>
      <trkpt lat="44.29643" lon="5.20656">
        <ele>555</ele>
        <time>2022-07-18T08:47:35Z</time>
      </trkpt>
      <trkpt lat="44.29638" lon="5.2065">
        <ele>554.8</ele>
        <time>2022-07-18T08:47:36Z</time>
      </trkpt>
      <trkpt lat="44.29633" lon="5.20644">
        <ele>554.5</ele>
        <time>2022-07-18T08:47:37Z</time>
      </trkpt>
      <trkpt lat="44.29627" lon="5.20639">
        <ele>554.2</ele>
        <time>2022-07-18T08:47:38Z</time>
      </trkpt>
      <trkpt lat="44.29624" lon="5.20632">
        <ele>554</ele>
        <time>2022-07-18T08:47:39Z</time>
      </trkpt>
      <trkpt lat="44.29621" lon="5.20624">
        <ele>553.7</ele>
        <time>2022-07-18T08:47:40Z</time>
      </trkpt>
      <trkpt lat="44.29618" lon="5.20617">
        <ele>553.5</ele>
        <time>2022-07-18T08:47:41Z</time>
      </trkpt>
      <trkpt lat="44.29617" lon="5.20611">
        <ele>553.3</ele>
        <time>2022-07-18T08:47:42Z</time>
      </trkpt>
      <trkpt lat="44.29615" lon="5.20604">
        <ele>553.1</ele>
        <time>2022-07-18T08:47:43Z</time>
      </trkpt>
      <trkpt lat="44.29614" lon="5.20597">
        <ele>552.9</ele>
        <time>2022-07-18T08:47:44Z</time>
      </trkpt>
      <trkpt lat="44.29614" lon="5.20591">
        <ele>552.7</ele>
        <time>2022-07-18T08:47:45Z</time>
      </trkpt>
      <trkpt lat="44.29615" lon="5.20584">
        <ele>552.5</ele>
        <time>2022-07-18T08:47:46Z</time>
      </trkpt>
      <trkpt lat="44.29614" lon="5.20576">
        <ele>552.2</ele>
        <time>2022-07-18T08:47:47Z</time>
      </trkpt>
      <trkpt lat="44.29615" lon="5.2057">
        <ele>552</ele>
        <time>2022-07-18T08:47:48Z</time>
      </trkpt>
      <trkpt lat="44.29614" lon="5.20562">
        <ele>551.8</ele>
        <time>2022-07-18T08:47:49Z</time>
      </trkpt>
      <trkpt lat="44.29613" lon="5.20554">
        <ele>551.6</ele>
        <time>2022-07-18T08:47:50Z</time>
      </trkpt>
      <trkpt lat="44.29613" lon="5.20547">
        <ele>551.4</ele>
        <time>2022-07-18T08:47:51Z</time>
      </trkpt>
      <trkpt lat="44.2961" lon="5.20538">
        <ele>551.1</ele>
        <time>2022-07-18T08:47:52Z</time>
      </trkpt>
      <trkpt lat="44.29608" lon="5.20531">
        <ele>550.9</ele>
        <time>2022-07-18T08:47:53Z</time>
      </trkpt>
      <trkpt lat="44.29605" lon="5.20524">
        <ele>550.6</ele>
        <time>2022-07-18T08:47:54Z</time>
      </trkpt>
      <trkpt lat="44.29602" lon="5.20517">
        <ele>550.4</ele>
        <time>2022-07-18T08:47:55Z</time>
      </trkpt>
      <trkpt lat="44.29599" lon="5.20509">
        <ele>550.1</ele>
        <time>2022-07-18T08:47:56Z</time>
      </trkpt>
      <trkpt lat="44.29594" lon="5.20504">
        <ele>549.9</ele>
        <time>2022-07-18T08:47:57Z</time>
      </trkpt>
      <trkpt lat="44.29588" lon="5.20499">
        <ele>549.6</ele>
        <time>2022-07-18T08:47:58Z</time>
      </trkpt>
      <trkpt lat="44.2958" lon="5.20494">
        <ele>549.2</ele>
        <time>2022-07-18T08:47:59Z</time>
      </trkpt>
      <trkpt lat="44.29575" lon="5.20491">
        <ele>549</ele>
        <time>2022-07-18T08:48:00Z</time>
      </trkpt>
      <trkpt lat="44.29572" lon="5.20485">
        <ele>548.8</ele>
        <time>2022-07-18T08:48:01Z</time>
      </trkpt>
      <trkpt lat="44.29569" lon="5.20478">
        <ele>548.6</ele>
        <time>2022-07-18T08:48:02Z</time>
      </trkpt>
      <trkpt lat="44.29565" lon="5.20469">
        <ele>548.2</ele>
        <time>2022-07-18T08:48:03Z</time>
      </trkpt>
      <trkpt lat="44.29562" lon="5.2046">
        <ele>547.9</ele>
        <time>2022-07-18T08:48:04Z</time>
      </trkpt>
      <trkpt lat="44.29558" lon="5.20453">
        <ele>547.7</ele>
        <time>2022-07-18T08:48:05Z</time>
      </trkpt>
      <trkpt lat="44.29551" lon="5.20447">
        <ele>547.4</ele>
        <time>2022-07-18T08:48:06Z</time>
      </trkpt>
      <trkpt lat="44.29544" lon="5.20441">
        <ele>547</ele>
        <time>2022-07-18T08:48:07Z</time>
      </trkpt>
      <trkpt lat="44.2954" lon="5.20433">
        <ele>546.7</ele>
        <time>2022-07-18T08:48:08Z</time>
      </trkpt>
      <trkpt lat="44.29537" lon="5.20425">
        <ele>546.5</ele>
        <time>2022-07-18T08:48:09Z</time>
      </trkpt>
      <trkpt lat="44.29534" lon="5.20417">
        <ele>546.2</ele>
        <time>2022-07-18T08:48:10Z</time>
      </trkpt>
      <trkpt lat="44.29531" lon="5.20414">
        <ele>546</ele>
        <time>2022-07-18T08:48:11Z</time>
      </trkpt>
      <trkpt lat="44.29528" lon="5.20411">
        <ele>545.9</ele>
        <time>2022-07-18T08:48:12Z</time>
      </trkpt>
      <trkpt lat="44.2952" lon="5.20411">
        <ele>545.6</ele>
        <time>2022-07-18T08:48:13Z</time>
      </trkpt>
      <trkpt lat="44.29514" lon="5.20421">
        <ele>545.2</ele>
        <time>2022-07-18T08:48:14Z</time>
      </trkpt>
      <trkpt lat="44.2951" lon="5.20425">
        <ele>545</ele>
        <time>2022-07-18T08:48:15Z</time>
      </trkpt>
      <trkpt lat="44.29507" lon="5.20433">
        <ele>544.7</ele>
        <time>2022-07-18T08:48:16Z</time>
      </trkpt>
      <trkpt lat="44.29503" lon="5.20439">
        <ele>544.5</ele>
        <time>2022-07-18T08:48:17Z</time>
      </trkpt>
      <trkpt lat="44.29496" lon="5.20442">
        <ele>544.2</ele>
        <time>2022-07-18T08:48:18Z</time>
      </trkpt>
      <trkpt lat="44.29492" lon="5.20446">
        <ele>544</ele>
        <time>2022-07-18T08:48:19Z</time>
      </trkpt>
      <trkpt lat="44.29485" lon="5.2045">
        <ele>543.7</ele>
        <time>2022-07-18T08:48:20Z</time>
      </trkpt>
      <trkpt lat="44.29479" lon="5.20451">
        <ele>543.4</ele>
        <time>2022-07-18T08:48:21Z</time>
      </trkpt>
      <trkpt lat="44.29475" lon="5.20452">
        <ele>543.2</ele>
        <time>2022-07-18T08:48:22Z</time>
      </trkpt>
      <trkpt lat="44.29473" lon="5.20452">
        <ele>543.2</ele>
        <time>2022-07-18T08:48:23Z</time>
      </trkpt>
      <trkpt lat="44.2946" lon="5.20451">
        <ele>542.6</ele>
        <time>2022-07-18T08:48:24Z</time>
      </trkpt>
      <trkpt lat="44.29453" lon="5.2045">
        <ele>542.3</ele>
        <time>2022-07-18T08:48:25Z</time>
      </trkpt>
      <trkpt lat="44.29446" lon="5.20447">
        <ele>542.1</ele>
        <time>2022-07-18T08:48:26Z</time>
      </trkpt>
      <trkpt lat="44.29438" lon="5.20448">
        <ele>541.7</ele>
        <time>2022-07-18T08:48:27Z</time>
      </trkpt>
      <trkpt lat="44.29432" lon="5.20447">
        <ele>541.5</ele>
        <time>2022-07-18T08:48:28Z</time>
      </trkpt>
      <trkpt lat="44.29423" lon="5.20447">
        <ele>539.1</ele>
        <time>2022-07-18T08:48:29Z</time>
      </trkpt>
      <trkpt lat="44.29414" lon="5.20448">
        <ele>539.1</ele>
        <time>2022-07-18T08:48:30Z</time>
      </trkpt>
      <trkpt lat="44.29406" lon="5.2045">
        <ele>536.7</ele>
        <time>2022-07-18T08:48:31Z</time>
      </trkpt>
      <trkpt lat="44.29399" lon="5.2045">
        <ele>534.6</ele>
        <time>2022-07-18T08:48:32Z</time>
      </trkpt>
      <trkpt lat="44.29392" lon="5.20448">
        <ele>534.6</ele>
        <time>2022-07-18T08:48:33Z</time>
      </trkpt>
      <trkpt lat="44.29386" lon="5.20448">
        <ele>532.4</ele>
        <time>2022-07-18T08:48:34Z</time>
      </trkpt>
      <trkpt lat="44.2938" lon="5.20451">
        <ele>532.4</ele>
        <time>2022-07-18T08:48:35Z</time>
      </trkpt>
      <trkpt lat="44.29374" lon="5.20454">
        <ele>531.2</ele>
        <time>2022-07-18T08:48:36Z</time>
      </trkpt>
      <trkpt lat="44.2937" lon="5.20459">
        <ele>531.2</ele>
        <time>2022-07-18T08:48:37Z</time>
      </trkpt>
      <trkpt lat="44.29366" lon="5.20463">
        <ele>529.8</ele>
        <time>2022-07-18T08:48:38Z</time>
      </trkpt>
      <trkpt lat="44.29361" lon="5.20466">
        <ele>528.7</ele>
        <time>2022-07-18T08:48:39Z</time>
      </trkpt>
      <trkpt lat="44.29358" lon="5.20471">
        <ele>528.7</ele>
        <time>2022-07-18T08:48:40Z</time>
      </trkpt>
      <trkpt lat="44.29353" lon="5.2047">
        <ele>528.7</ele>
        <time>2022-07-18T08:48:41Z</time>
      </trkpt>
      <trkpt lat="44.2935" lon="5.2047">
        <ele>527.7</ele>
        <time>2022-07-18T08:48:42Z</time>
      </trkpt>
      <trkpt lat="44.29345" lon="5.20468">
        <ele>527.7</ele>
        <time>2022-07-18T08:48:43Z</time>
      </trkpt>
      <trkpt lat="44.29341" lon="5.20465">
        <ele>527.7</ele>
        <time>2022-07-18T08:48:44Z</time>
      </trkpt>
      <trkpt lat="44.29338" lon="5.20463">
        <ele>526.3</ele>
        <time>2022-07-18T08:48:45Z</time>
      </trkpt>
      <trkpt lat="44.29336" lon="5.2046">
        <ele>526.3</ele>
        <time>2022-07-18T08:48:46Z</time>
      </trkpt>
      <trkpt lat="44.29332" lon="5.20457">
        <ele>527.4</ele>
        <time>2022-07-18T08:48:47Z</time>
      </trkpt>
      <trkpt lat="44.29329" lon="5.20454">
        <ele>527.4</ele>
        <time>2022-07-18T08:48:48Z</time>
      </trkpt>
      <trkpt lat="44.29328" lon="5.20454">
        <ele>527.4</ele>
        <time>2022-07-18T08:48:49Z</time>
      </trkpt>
      <trkpt lat="44.29327" lon="5.20452">
        <ele>527.4</ele>
        <time>2022-07-18T08:48:50Z</time>
      </trkpt>
      <trkpt lat="44.29327" lon="5.20452">
        <ele>527.4</ele>
        <time>2022-07-18T08:48:51Z</time>
      </trkpt>
      <trkpt lat="44.29327" lon="5.20452">
        <ele>527.4</ele>
        <time>2022-07-18T08:48:52Z</time>
      </trkpt>
      <trkpt lat="44.29327" lon="5.20452">
        <ele>527.4</ele>
        <time>2022-07-18T08:48:53Z</time>
      </trkpt>
      <trkpt lat="44.29327" lon="5.20452">
        <ele>527.4</ele>
        <time>2022-07-18T08:48:54Z</time>
      </trkpt>
      <trkpt lat="44.29327" lon="5.20452">
        <ele>527.4</ele>
        <time>2022-07-18T08:48:55Z</time>
      </trkpt>
      <trkpt lat="44.29327" lon="5.20452">
        <ele>527.4</ele>
        <time>2022-07-18T08:48:56Z</time>
      </trkpt>
      <trkpt lat="44.29327" lon="5.20452">
        <ele>527.4</ele>
        <time>2022-07-18T08:48:57Z</time>
      </trkpt>
      <trkpt lat="44.29327" lon="5.20452">
        <ele>527.4</ele>
        <time>2022-07-18T08:48:58Z</time>
      </trkpt>
      <trkpt lat="44.29327" lon="5.20452">
        <ele>527.4</ele>
        <time>2022-07-18T08:48:59Z</time>
      </trkpt>
      <trkpt lat="44.29327" lon="5.20452">
        <ele>527.4</ele>
        <time>2022-07-18T08:49:00Z</time>
      </trkpt>
      <trkpt lat="44.29322" lon="5.20454">
        <ele>525.9</ele>
        <time>2022-07-18T08:49:01Z</time>
      </trkpt>
      <trkpt lat="44.29316" lon="5.20457">
        <ele>525.9</ele>
        <time>2022-07-18T08:49:19Z</time>
      </trkpt>
      <trkpt lat="44.29312" lon="5.2046">
        <ele>523.9</ele>
        <time>2022-07-18T08:49:20Z</time>
      </trkpt>
      <trkpt lat="44.2931" lon="5.20465">
        <ele>523.9</ele>
        <time>2022-07-18T08:49:21Z</time>
      </trkpt>
      <trkpt lat="44.29309" lon="5.20471">
        <ele>523.9</ele>
        <time>2022-07-18T08:49:22Z</time>
      </trkpt>
      <trkpt lat="44.29312" lon="5.2048">
        <ele>522.8</ele>
        <time>2022-07-18T08:49:23Z</time>
      </trkpt>
      <trkpt lat="44.29315" lon="5.20487">
        <ele>523.6</ele>
        <time>2022-07-18T08:49:24Z</time>
      </trkpt>
      <trkpt lat="44.29317" lon="5.20493">
        <ele>523.6</ele>
        <time>2022-07-18T08:49:25Z</time>
      </trkpt>
      <trkpt lat="44.2932" lon="5.20498">
        <ele>522</ele>
        <time>2022-07-18T08:49:26Z</time>
      </trkpt>
      <trkpt lat="44.2932" lon="5.20503">
        <ele>522</ele>
        <time>2022-07-18T08:49:27Z</time>
      </trkpt>
      <trkpt lat="44.29321" lon="5.20505">
        <ele>522</ele>
        <time>2022-07-18T08:49:28Z</time>
      </trkpt>
      <trkpt lat="44.29323" lon="5.2051">
        <ele>522</ele>
        <time>2022-07-18T08:49:29Z</time>
      </trkpt>
      <trkpt lat="44.29324" lon="5.20511">
        <ele>522</ele>
        <time>2022-07-18T08:49:30Z</time>
      </trkpt>
      <trkpt lat="44.29327" lon="5.20516">
        <ele>520.5</ele>
        <time>2022-07-18T08:49:31Z</time>
      </trkpt>
      <trkpt lat="44.29329" lon="5.2052">
        <ele>520.5</ele>
        <time>2022-07-18T08:49:32Z</time>
      </trkpt>
      <trkpt lat="44.29331" lon="5.20523">
        <ele>520.5</ele>
        <time>2022-07-18T08:49:33Z</time>
      </trkpt>
      <trkpt lat="44.29333" lon="5.20526">
        <ele>520.5</ele>
        <time>2022-07-18T08:49:34Z</time>
      </trkpt>
      <trkpt lat="44.29336" lon="5.2053">
        <ele>518</ele>
        <time>2022-07-18T08:49:35Z</time>
      </trkpt>
      <trkpt lat="44.29339" lon="5.20533">
        <ele>518.7</ele>
        <time>2022-07-18T08:49:36Z</time>
      </trkpt>
      <trkpt lat="44.29342" lon="5.20537">
        <ele>518.7</ele>
        <time>2022-07-18T08:49:37Z</time>
      </trkpt>
      <trkpt lat="44.29347" lon="5.20539">
        <ele>518.7</ele>
        <time>2022-07-18T08:49:38Z</time>
      </trkpt>
      <trkpt lat="44.29352" lon="5.2054">
        <ele>519.4</ele>
        <time>2022-07-18T08:49:39Z</time>
      </trkpt>
      <trkpt lat="44.29359" lon="5.2054">
        <ele>519.4</ele>
        <time>2022-07-18T08:49:40Z</time>
      </trkpt>
      <trkpt lat="44.29366" lon="5.20541">
        <ele>520.3</ele>
        <time>2022-07-18T08:49:41Z</time>
      </trkpt>
      <trkpt lat="44.29373" lon="5.2054">
        <ele>520.3</ele>
        <time>2022-07-18T08:49:42Z</time>
      </trkpt>
      <trkpt lat="44.29379" lon="5.20539">
        <ele>521.2</ele>
        <time>2022-07-18T08:49:43Z</time>
      </trkpt>
      <trkpt lat="44.29385" lon="5.2054">
        <ele>521.2</ele>
        <time>2022-07-18T08:49:44Z</time>
      </trkpt>
      <trkpt lat="44.2939" lon="5.2054">
        <ele>522.6</ele>
        <time>2022-07-18T08:49:45Z</time>
      </trkpt>
      <trkpt lat="44.29397" lon="5.20542">
        <ele>522.6</ele>
        <time>2022-07-18T08:49:46Z</time>
      </trkpt>
      <trkpt lat="44.29404" lon="5.20544">
        <ele>523.8</ele>
        <time>2022-07-18T08:49:47Z</time>
      </trkpt>
      <trkpt lat="44.2941" lon="5.20547">
        <ele>521.1</ele>
        <time>2022-07-18T08:49:48Z</time>
      </trkpt>
      <trkpt lat="44.29416" lon="5.2055">
        <ele>522.5</ele>
        <time>2022-07-18T08:49:49Z</time>
      </trkpt>
      <trkpt lat="44.29421" lon="5.20554">
        <ele>522.5</ele>
        <time>2022-07-18T08:49:50Z</time>
      </trkpt>
      <trkpt lat="44.29425" lon="5.20558">
        <ele>524</ele>
        <time>2022-07-18T08:49:51Z</time>
      </trkpt>
      <trkpt lat="44.29429" lon="5.20562">
        <ele>524</ele>
        <time>2022-07-18T08:49:52Z</time>
      </trkpt>
      <trkpt lat="44.29433" lon="5.20566">
        <ele>521.5</ele>
        <time>2022-07-18T08:49:53Z</time>
      </trkpt>
      <trkpt lat="44.2943" lon="5.20565">
        <ele>521.5</ele>
        <time>2022-07-18T08:49:54Z</time>
      </trkpt>
      <trkpt lat="44.29428" lon="5.20571">
        <ele>521.5</ele>
        <time>2022-07-18T08:49:55Z</time>
      </trkpt>
      <trkpt lat="44.29428" lon="5.20574">
        <ele>521.5</ele>
        <time>2022-07-18T08:49:56Z</time>
      </trkpt>
      <trkpt lat="44.29424" lon="5.20577">
        <ele>520</ele>
        <time>2022-07-18T08:49:57Z</time>
      </trkpt>
      <trkpt lat="44.29419" lon="5.20577">
        <ele>520</ele>
        <time>2022-07-18T08:49:58Z</time>
      </trkpt>
      <trkpt lat="44.29416" lon="5.2058">
        <ele>520</ele>
        <time>2022-07-18T08:49:59Z</time>
      </trkpt>
      <trkpt lat="44.29413" lon="5.20593">
        <ele>517.5</ele>
        <time>2022-07-18T08:50:00Z</time>
      </trkpt>
      <trkpt lat="44.2941" lon="5.20598">
        <ele>514.2</ele>
        <time>2022-07-18T08:50:01Z</time>
      </trkpt>
      <trkpt lat="44.29409" lon="5.20605">
        <ele>514.2</ele>
        <time>2022-07-18T08:50:02Z</time>
      </trkpt>
      <trkpt lat="44.29409" lon="5.20616">
        <ele>512.3</ele>
        <time>2022-07-18T08:50:03Z</time>
      </trkpt>
      <trkpt lat="44.2941" lon="5.20626">
        <ele>512.3</ele>
        <time>2022-07-18T08:50:04Z</time>
      </trkpt>
      <trkpt lat="44.29411" lon="5.20635">
        <ele>510.1</ele>
        <time>2022-07-18T08:50:05Z</time>
      </trkpt>
      <trkpt lat="44.29414" lon="5.20645">
        <ele>511.5</ele>
        <time>2022-07-18T08:50:06Z</time>
      </trkpt>
      <trkpt lat="44.29418" lon="5.20657">
        <ele>509.6</ele>
        <time>2022-07-18T08:50:07Z</time>
      </trkpt>
      <trkpt lat="44.2942" lon="5.20666">
        <ele>509.6</ele>
        <time>2022-07-18T08:50:08Z</time>
      </trkpt>
      <trkpt lat="44.29422" lon="5.20674">
        <ele>507.5</ele>
        <time>2022-07-18T08:50:09Z</time>
      </trkpt>
      <trkpt lat="44.29425" lon="5.20682">
        <ele>509.1</ele>
        <time>2022-07-18T08:50:10Z</time>
      </trkpt>
      <trkpt lat="44.29428" lon="5.2069">
        <ele>507.1</ele>
        <time>2022-07-18T08:50:11Z</time>
      </trkpt>
      <trkpt lat="44.29432" lon="5.20695">
        <ele>507.1</ele>
        <time>2022-07-18T08:50:12Z</time>
      </trkpt>
      <trkpt lat="44.29437" lon="5.20698">
        <ele>508.6</ele>
        <time>2022-07-18T08:50:13Z</time>
      </trkpt>
      <trkpt lat="44.29443" lon="5.207">
        <ele>508.6</ele>
        <time>2022-07-18T08:50:14Z</time>
      </trkpt>
      <trkpt lat="44.29449" lon="5.20703">
        <ele>506.3</ele>
        <time>2022-07-18T08:50:15Z</time>
      </trkpt>
      <trkpt lat="44.29454" lon="5.20704">
        <ele>508.1</ele>
        <time>2022-07-18T08:50:16Z</time>
      </trkpt>
      <trkpt lat="44.29458" lon="5.20705">
        <ele>508.1</ele>
        <time>2022-07-18T08:50:17Z</time>
      </trkpt>
      <trkpt lat="44.29464" lon="5.20706">
        <ele>509.9</ele>
        <time>2022-07-18T08:50:18Z</time>
      </trkpt>
      <trkpt lat="44.29467" lon="5.20706">
        <ele>509.9</ele>
        <time>2022-07-18T08:50:19Z</time>
      </trkpt>
      <trkpt lat="44.2947" lon="5.20708">
        <ele>509.9</ele>
        <time>2022-07-18T08:50:20Z</time>
      </trkpt>
      <trkpt lat="44.29474" lon="5.20711">
        <ele>512.1</ele>
        <time>2022-07-18T08:50:21Z</time>
      </trkpt>
      <trkpt lat="44.29472" lon="5.20716">
        <ele>509.9</ele>
        <time>2022-07-18T08:50:22Z</time>
      </trkpt>
      <trkpt lat="44.29471" lon="5.20718">
        <ele>507.4</ele>
        <time>2022-07-18T08:50:23Z</time>
      </trkpt>
      <trkpt lat="44.29467" lon="5.20719">
        <ele>507.4</ele>
        <time>2022-07-18T08:50:24Z</time>
      </trkpt>
      <trkpt lat="44.29462" lon="5.2072">
        <ele>507.4</ele>
        <time>2022-07-18T08:50:25Z</time>
      </trkpt>
      <trkpt lat="44.29458" lon="5.20722">
        <ele>505.7</ele>
        <time>2022-07-18T08:50:26Z</time>
      </trkpt>
      <trkpt lat="44.29453" lon="5.20726">
        <ele>505.7</ele>
        <time>2022-07-18T08:50:27Z</time>
      </trkpt>
      <trkpt lat="44.29447" lon="5.20729">
        <ele>504</ele>
        <time>2022-07-18T08:50:28Z</time>
      </trkpt>
      <trkpt lat="44.2944" lon="5.20733">
        <ele>504</ele>
        <time>2022-07-18T08:50:29Z</time>
      </trkpt>
      <trkpt lat="44.29434" lon="5.20737">
        <ele>500.8</ele>
        <time>2022-07-18T08:50:30Z</time>
      </trkpt>
      <trkpt lat="44.29431" lon="5.2075">
        <ele>500.8</ele>
        <time>2022-07-18T08:50:31Z</time>
      </trkpt>
      <trkpt lat="44.29426" lon="5.20757">
        <ele>498.5</ele>
        <time>2022-07-18T08:50:32Z</time>
      </trkpt>
      <trkpt lat="44.29421" lon="5.20766">
        <ele>497.1</ele>
        <time>2022-07-18T08:50:33Z</time>
      </trkpt>
      <trkpt lat="44.29416" lon="5.20773">
        <ele>494.7</ele>
        <time>2022-07-18T08:50:34Z</time>
      </trkpt>
      <trkpt lat="44.29412" lon="5.20779">
        <ele>492.8</ele>
        <time>2022-07-18T08:50:35Z</time>
      </trkpt>
      <trkpt lat="44.29407" lon="5.20786">
        <ele>492.8</ele>
        <time>2022-07-18T08:50:36Z</time>
      </trkpt>
      <trkpt lat="44.29402" lon="5.20791">
        <ele>490.5</ele>
        <time>2022-07-18T08:50:37Z</time>
      </trkpt>
      <trkpt lat="44.29397" lon="5.20791">
        <ele>489.2</ele>
        <time>2022-07-18T08:50:38Z</time>
      </trkpt>
      <trkpt lat="44.29393" lon="5.20793">
        <ele>489.2</ele>
        <time>2022-07-18T08:50:39Z</time>
      </trkpt>
      <trkpt lat="44.2939" lon="5.20788">
        <ele>489.2</ele>
        <time>2022-07-18T08:50:40Z</time>
      </trkpt>
      <trkpt lat="44.29385" lon="5.2078">
        <ele>489.8</ele>
        <time>2022-07-18T08:50:41Z</time>
      </trkpt>
      <trkpt lat="44.29381" lon="5.20775">
        <ele>489.8</ele>
        <time>2022-07-18T08:50:42Z</time>
      </trkpt>
      <trkpt lat="44.29376" lon="5.20771">
        <ele>489.8</ele>
        <time>2022-07-18T08:50:43Z</time>
      </trkpt>
      <trkpt lat="44.2937" lon="5.20767">
        <ele>490.4</ele>
        <time>2022-07-18T08:50:44Z</time>
      </trkpt>
      <trkpt lat="44.29363" lon="5.20765">
        <ele>490.4</ele>
        <time>2022-07-18T08:50:45Z</time>
      </trkpt>
      <trkpt lat="44.29357" lon="5.20764">
        <ele>488.7</ele>
        <time>2022-07-18T08:50:46Z</time>
      </trkpt>
      <trkpt lat="44.2935" lon="5.20763">
        <ele>487.2</ele>
        <time>2022-07-18T08:50:47Z</time>
      </trkpt>
      <trkpt lat="44.29343" lon="5.20762">
        <ele>487.2</ele>
        <time>2022-07-18T08:50:48Z</time>
      </trkpt>
      <trkpt lat="44.29335" lon="5.2076">
        <ele>485.7</ele>
        <time>2022-07-18T08:50:49Z</time>
      </trkpt>
      <trkpt lat="44.29328" lon="5.20758">
        <ele>485.7</ele>
        <time>2022-07-18T08:50:50Z</time>
      </trkpt>
      <trkpt lat="44.29322" lon="5.20754">
        <ele>484.4</ele>
        <time>2022-07-18T08:50:51Z</time>
      </trkpt>
      <trkpt lat="44.29314" lon="5.20751">
        <ele>485.4</ele>
        <time>2022-07-18T08:50:52Z</time>
      </trkpt>
      <trkpt lat="44.2931" lon="5.20749">
        <ele>485.4</ele>
        <time>2022-07-18T08:50:53Z</time>
      </trkpt>
      <trkpt lat="44.29304" lon="5.20747">
        <ele>485.4</ele>
        <time>2022-07-18T08:50:54Z</time>
      </trkpt>
      <trkpt lat="44.29298" lon="5.20746">
        <ele>484.5</ele>
        <time>2022-07-18T08:50:55Z</time>
      </trkpt>
      <trkpt lat="44.2929" lon="5.20745">
        <ele>484.5</ele>
        <time>2022-07-18T08:50:56Z</time>
      </trkpt>
      <trkpt lat="44.29283" lon="5.20747">
        <ele>483.8</ele>
        <time>2022-07-18T08:50:57Z</time>
      </trkpt>
      <trkpt lat="44.29274" lon="5.20749">
        <ele>483</ele>
        <time>2022-07-18T08:50:58Z</time>
      </trkpt>
      <trkpt lat="44.29268" lon="5.20759">
        <ele>481.1</ele>
        <time>2022-07-18T08:50:59Z</time>
      </trkpt>
      <trkpt lat="44.29261" lon="5.20763">
        <ele>480.7</ele>
        <time>2022-07-18T08:51:00Z</time>
      </trkpt>
      <trkpt lat="44.29252" lon="5.20766">
        <ele>480.2</ele>
        <time>2022-07-18T08:51:01Z</time>
      </trkpt>
      <trkpt lat="44.29246" lon="5.20769">
        <ele>480.2</ele>
        <time>2022-07-18T08:51:02Z</time>
      </trkpt>
      <trkpt lat="44.29238" lon="5.20772">
        <ele>478.7</ele>
        <time>2022-07-18T08:51:03Z</time>
      </trkpt>
      <trkpt lat="44.2923" lon="5.20779">
        <ele>478.7</ele>
        <time>2022-07-18T08:51:04Z</time>
      </trkpt>
      <trkpt lat="44.29223" lon="5.20782">
        <ele>478.6</ele>
        <time>2022-07-18T08:51:05Z</time>
      </trkpt>
      <trkpt lat="44.29217" lon="5.20784">
        <ele>478.6</ele>
        <time>2022-07-18T08:51:06Z</time>
      </trkpt>
      <trkpt lat="44.2921" lon="5.20787">
        <ele>477.4</ele>
        <time>2022-07-18T08:51:07Z</time>
      </trkpt>
      <trkpt lat="44.29205" lon="5.20787">
        <ele>477.4</ele>
        <time>2022-07-18T08:51:08Z</time>
      </trkpt>
      <trkpt lat="44.292" lon="5.20787">
        <ele>477.5</ele>
        <time>2022-07-18T08:51:09Z</time>
      </trkpt>
      <trkpt lat="44.29196" lon="5.20784">
        <ele>478.4</ele>
        <time>2022-07-18T08:51:10Z</time>
      </trkpt>
      <trkpt lat="44.29194" lon="5.20785">
        <ele>478.4</ele>
        <time>2022-07-18T08:51:11Z</time>
      </trkpt>
      <trkpt lat="44.29193" lon="5.20784">
        <ele>478.4</ele>
        <time>2022-07-18T08:51:12Z</time>
      </trkpt>
      <trkpt lat="44.29192" lon="5.20783">
        <ele>478.4</ele>
        <time>2022-07-18T08:51:13Z</time>
      </trkpt>
      <trkpt lat="44.29191" lon="5.20782">
        <ele>478.4</ele>
        <time>2022-07-18T08:51:14Z</time>
      </trkpt>
      <trkpt lat="44.2919" lon="5.20781">
        <ele>478.7</ele>
        <time>2022-07-18T08:51:15Z</time>
      </trkpt>
      <trkpt lat="44.2919" lon="5.2078">
        <ele>478.7</ele>
        <time>2022-07-18T08:51:16Z</time>
      </trkpt>
      <trkpt lat="44.29189" lon="5.20779">
        <ele>478.7</ele>
        <time>2022-07-18T08:51:17Z</time>
      </trkpt>
      <trkpt lat="44.29188" lon="5.20778">
        <ele>478.7</ele>
        <time>2022-07-18T08:51:18Z</time>
      </trkpt>
      <trkpt lat="44.29187" lon="5.20777">
        <ele>478.7</ele>
        <time>2022-07-18T08:51:19Z</time>
      </trkpt>
      <trkpt lat="44.29187" lon="5.20776">
        <ele>478.7</ele>
        <time>2022-07-18T08:51:20Z</time>
      </trkpt>
      <trkpt lat="44.29186" lon="5.20775">
        <ele>478.7</ele>
        <time>2022-07-18T08:51:21Z</time>
      </trkpt>
      <trkpt lat="44.29185" lon="5.20774">
        <ele>478.7</ele>
        <time>2022-07-18T08:51:22Z</time>
      </trkpt>
      <trkpt lat="44.29184" lon="5.20773">
        <ele>478.7</ele>
        <time>2022-07-18T08:51:23Z</time>
      </trkpt>
      <trkpt lat="44.29184" lon="5.20773">
        <ele>478.7</ele>
        <time>2022-07-18T08:51:37Z</time>
      </trkpt>
      <trkpt lat="44.29183" lon="5.20772">
        <ele>478.7</ele>
        <time>2022-07-18T08:51:38Z</time>
      </trkpt>
      <trkpt lat="44.29182" lon="5.20771">
        <ele>478.7</ele>
        <time>2022-07-18T08:51:39Z</time>
      </trkpt>
      <trkpt lat="44.2918" lon="5.20767">
        <ele>479.3</ele>
        <time>2022-07-18T08:51:40Z</time>
      </trkpt>
      <trkpt lat="44.29178" lon="5.20763">
        <ele>479.7</ele>
        <time>2022-07-18T08:51:41Z</time>
      </trkpt>
      <trkpt lat="44.29177" lon="5.20759">
        <ele>479.7</ele>
        <time>2022-07-18T08:51:42Z</time>
      </trkpt>
      <trkpt lat="44.29174" lon="5.20753">
        <ele>479.7</ele>
        <time>2022-07-18T08:51:43Z</time>
      </trkpt>
      <trkpt lat="44.29172" lon="5.20747">
        <ele>480.1</ele>
        <time>2022-07-18T08:51:44Z</time>
      </trkpt>
      <trkpt lat="44.29172" lon="5.20739">
        <ele>480.2</ele>
        <time>2022-07-18T08:51:45Z</time>
      </trkpt>
      <trkpt lat="44.29172" lon="5.20731">
        <ele>480.5</ele>
        <time>2022-07-18T08:51:46Z</time>
      </trkpt>
      <trkpt lat="44.29174" lon="5.20721">
        <ele>480.5</ele>
        <time>2022-07-18T08:51:47Z</time>
      </trkpt>
      <trkpt lat="44.29173" lon="5.20712">
        <ele>481.6</ele>
        <time>2022-07-18T08:51:48Z</time>
      </trkpt>
      <trkpt lat="44.29173" lon="5.20703">
        <ele>481.7</ele>
        <time>2022-07-18T08:51:49Z</time>
      </trkpt>
      <trkpt lat="44.29173" lon="5.20695">
        <ele>484.4</ele>
        <time>2022-07-18T08:51:50Z</time>
      </trkpt>
      <trkpt lat="44.29175" lon="5.2069">
        <ele>484.4</ele>
        <time>2022-07-18T08:51:51Z</time>
      </trkpt>
      <trkpt lat="44.29175" lon="5.20682">
        <ele>487.3</ele>
        <time>2022-07-18T08:51:52Z</time>
      </trkpt>
      <trkpt lat="44.29173" lon="5.20674">
        <ele>487.4</ele>
        <time>2022-07-18T08:51:53Z</time>
      </trkpt>
      <trkpt lat="44.29172" lon="5.20666">
        <ele>487.5</ele>
        <time>2022-07-18T08:51:54Z</time>
      </trkpt>
      <trkpt lat="44.29164" lon="5.20661">
        <ele>488.6</ele>
        <time>2022-07-18T08:51:55Z</time>
      </trkpt>
      <trkpt lat="44.29162" lon="5.20655">
        <ele>488.7</ele>
        <time>2022-07-18T08:51:56Z</time>
      </trkpt>
      <trkpt lat="44.29158" lon="5.2065">
        <ele>488.7</ele>
        <time>2022-07-18T08:51:57Z</time>
      </trkpt>
      <trkpt lat="44.29154" lon="5.2064">
        <ele>490.7</ele>
        <time>2022-07-18T08:51:58Z</time>
      </trkpt>
      <trkpt lat="44.29147" lon="5.20633">
        <ele>489.6</ele>
        <time>2022-07-18T08:51:59Z</time>
      </trkpt>
      <trkpt lat="44.2914" lon="5.20623">
        <ele>489.1</ele>
        <time>2022-07-18T08:52:00Z</time>
      </trkpt>
      <trkpt lat="44.29129" lon="5.20617">
        <ele>487.8</ele>
        <time>2022-07-18T08:52:01Z</time>
      </trkpt>
      <trkpt lat="44.29123" lon="5.20611">
        <ele>488.2</ele>
        <time>2022-07-18T08:52:02Z</time>
      </trkpt>
      <trkpt lat="44.29121" lon="5.20603">
        <ele>488.3</ele>
        <time>2022-07-18T08:52:03Z</time>
      </trkpt>
      <trkpt lat="44.29116" lon="5.20596">
        <ele>485.6</ele>
        <time>2022-07-18T08:52:04Z</time>
      </trkpt>
      <trkpt lat="44.29112" lon="5.20589">
        <ele>485.7</ele>
        <time>2022-07-18T08:52:05Z</time>
      </trkpt>
      <trkpt lat="44.29106" lon="5.20582">
        <ele>485.7</ele>
        <time>2022-07-18T08:52:06Z</time>
      </trkpt>
      <trkpt lat="44.291" lon="5.20578">
        <ele>482.2</ele>
        <time>2022-07-18T08:52:07Z</time>
      </trkpt>
      <trkpt lat="44.29094" lon="5.20567">
        <ele>482.3</ele>
        <time>2022-07-18T08:52:08Z</time>
      </trkpt>
      <trkpt lat="44.29088" lon="5.20561">
        <ele>478.1</ele>
        <time>2022-07-18T08:52:09Z</time>
      </trkpt>
      <trkpt lat="44.29081" lon="5.20555">
        <ele>478.2</ele>
        <time>2022-07-18T08:52:10Z</time>
      </trkpt>
      <trkpt lat="44.29073" lon="5.20549">
        <ele>475</ele>
        <time>2022-07-18T08:52:11Z</time>
      </trkpt>
      <trkpt lat="44.29064" lon="5.20542">
        <ele>471</ele>
        <time>2022-07-18T08:52:12Z</time>
      </trkpt>
      <trkpt lat="44.29057" lon="5.20537">
        <ele>471.1</ele>
        <time>2022-07-18T08:52:13Z</time>
      </trkpt>
      <trkpt lat="44.29059" lon="5.20541">
        <ele>471.2</ele>
        <time>2022-07-18T08:52:14Z</time>
      </trkpt>
      <trkpt lat="44.29056" lon="5.20541">
        <ele>471.3</ele>
        <time>2022-07-18T08:52:15Z</time>
      </trkpt>
      <trkpt lat="44.29058" lon="5.20538">
        <ele>471.4</ele>
        <time>2022-07-18T08:52:16Z</time>
      </trkpt>
      <trkpt lat="44.2906" lon="5.20538">
        <ele>471.5</ele>
        <time>2022-07-18T08:52:17Z</time>
      </trkpt>
      <trkpt lat="44.29063" lon="5.20537">
        <ele>471.7</ele>
        <time>2022-07-18T08:52:18Z</time>
      </trkpt>
      <trkpt lat="44.29067" lon="5.20537">
        <ele>471.8</ele>
        <time>2022-07-18T08:52:19Z</time>
      </trkpt>
      <trkpt lat="44.2907" lon="5.20538">
        <ele>474.5</ele>
        <time>2022-07-18T08:52:20Z</time>
      </trkpt>
      <trkpt lat="44.29075" lon="5.20541">
        <ele>474.6</ele>
        <time>2022-07-18T08:52:21Z</time>
      </trkpt>
      <trkpt lat="44.29077" lon="5.20543">
        <ele>474.8</ele>
        <time>2022-07-18T08:52:22Z</time>
      </trkpt>
      <trkpt lat="44.29082" lon="5.20545">
        <ele>478.1</ele>
        <time>2022-07-18T08:52:23Z</time>
      </trkpt>
      <trkpt lat="44.29085" lon="5.20549">
        <ele>479.7</ele>
        <time>2022-07-18T08:52:24Z</time>
      </trkpt>
      <trkpt lat="44.29087" lon="5.20553">
        <ele>479.8</ele>
        <time>2022-07-18T08:52:25Z</time>
      </trkpt>
      <trkpt lat="44.2909" lon="5.20557">
        <ele>479.9</ele>
        <time>2022-07-18T08:52:26Z</time>
      </trkpt>
      <trkpt lat="44.29095" lon="5.2056">
        <ele>483.1</ele>
        <time>2022-07-18T08:52:27Z</time>
      </trkpt>
      <trkpt lat="44.29097" lon="5.2056">
        <ele>483.2</ele>
        <time>2022-07-18T08:52:28Z</time>
      </trkpt>
      <trkpt lat="44.291" lon="5.20557">
        <ele>483.3</ele>
        <time>2022-07-18T08:52:29Z</time>
      </trkpt>
      <trkpt lat="44.29101" lon="5.20554">
        <ele>483.4</ele>
        <time>2022-07-18T08:52:30Z</time>
      </trkpt>
      <trkpt lat="44.29101" lon="5.2055">
        <ele>483.6</ele>
        <time>2022-07-18T08:52:31Z</time>
      </trkpt>
      <trkpt lat="44.291" lon="5.20549">
        <ele>483.7</ele>
        <time>2022-07-18T08:52:32Z</time>
      </trkpt>
      <trkpt lat="44.291" lon="5.20544">
        <ele>482.5</ele>
        <time>2022-07-18T08:52:33Z</time>
      </trkpt>
      <trkpt lat="44.291" lon="5.20542">
        <ele>482.7</ele>
        <time>2022-07-18T08:52:34Z</time>
      </trkpt>
      <trkpt lat="44.29099" lon="5.20538">
        <ele>482.7</ele>
        <time>2022-07-18T08:52:35Z</time>
      </trkpt>
      <trkpt lat="44.29098" lon="5.20537">
        <ele>482.9</ele>
        <time>2022-07-18T08:52:36Z</time>
      </trkpt>
      <trkpt lat="44.29097" lon="5.20533">
        <ele>483</ele>
        <time>2022-07-18T08:52:37Z</time>
      </trkpt>
      <trkpt lat="44.29097" lon="5.20532">
        <ele>483.1</ele>
        <time>2022-07-18T08:52:38Z</time>
      </trkpt>
      <trkpt lat="44.29096" lon="5.20529">
        <ele>482.1</ele>
        <time>2022-07-18T08:52:39Z</time>
      </trkpt>
      <trkpt lat="44.29096" lon="5.20527">
        <ele>482.2</ele>
        <time>2022-07-18T08:52:40Z</time>
      </trkpt>
      <trkpt lat="44.29095" lon="5.20523">
        <ele>482.4</ele>
        <time>2022-07-18T08:52:41Z</time>
      </trkpt>
      <trkpt lat="44.29094" lon="5.20519">
        <ele>482.5</ele>
        <time>2022-07-18T08:52:42Z</time>
      </trkpt>
      <trkpt lat="44.29093" lon="5.20518">
        <ele>482.7</ele>
        <time>2022-07-18T08:52:43Z</time>
      </trkpt>
      <trkpt lat="44.29093" lon="5.20513">
        <ele>482.8</ele>
        <time>2022-07-18T08:52:44Z</time>
      </trkpt>
      <trkpt lat="44.29093" lon="5.20511">
        <ele>482.2</ele>
        <time>2022-07-18T08:52:45Z</time>
      </trkpt>
      <trkpt lat="44.29093" lon="5.20507">
        <ele>482.3</ele>
        <time>2022-07-18T08:52:46Z</time>
      </trkpt>
      <trkpt lat="44.29093" lon="5.20502">
        <ele>482.4</ele>
        <time>2022-07-18T08:52:47Z</time>
      </trkpt>
      <trkpt lat="44.29093" lon="5.205">
        <ele>482.6</ele>
        <time>2022-07-18T08:52:48Z</time>
      </trkpt>
      <trkpt lat="44.29093" lon="5.20495">
        <ele>482.7</ele>
        <time>2022-07-18T08:52:49Z</time>
      </trkpt>
      <trkpt lat="44.29093" lon="5.20493">
        <ele>482.2</ele>
        <time>2022-07-18T08:52:50Z</time>
      </trkpt>
      <trkpt lat="44.29093" lon="5.20489">
        <ele>482.3</ele>
        <time>2022-07-18T08:52:51Z</time>
      </trkpt>
      <trkpt lat="44.29094" lon="5.20484">
        <ele>482.4</ele>
        <time>2022-07-18T08:52:52Z</time>
      </trkpt>
      <trkpt lat="44.29094" lon="5.20482">
        <ele>482.5</ele>
        <time>2022-07-18T08:52:53Z</time>
      </trkpt>
      <trkpt lat="44.29094" lon="5.20478">
        <ele>482.7</ele>
        <time>2022-07-18T08:52:54Z</time>
      </trkpt>
      <trkpt lat="44.29094" lon="5.20474">
        <ele>481.9</ele>
        <time>2022-07-18T08:52:55Z</time>
      </trkpt>
      <trkpt lat="44.29094" lon="5.2047">
        <ele>482</ele>
        <time>2022-07-18T08:52:56Z</time>
      </trkpt>
      <trkpt lat="44.29094" lon="5.20465">
        <ele>482.2</ele>
        <time>2022-07-18T08:52:57Z</time>
      </trkpt>
      <trkpt lat="44.29094" lon="5.20463">
        <ele>482.3</ele>
        <time>2022-07-18T08:52:58Z</time>
      </trkpt>
      <trkpt lat="44.29093" lon="5.20458">
        <ele>481.4</ele>
        <time>2022-07-18T08:52:59Z</time>
      </trkpt>
      <trkpt lat="44.29093" lon="5.20457">
        <ele>481.5</ele>
        <time>2022-07-18T08:53:00Z</time>
      </trkpt>
      <trkpt lat="44.29091" lon="5.20453">
        <ele>478.1</ele>
        <time>2022-07-18T08:53:01Z</time>
      </trkpt>
      <trkpt lat="44.2909" lon="5.2045">
        <ele>478.3</ele>
        <time>2022-07-18T08:53:02Z</time>
      </trkpt>
      <trkpt lat="44.29089" lon="5.20446">
        <ele>478.4</ele>
        <time>2022-07-18T08:53:03Z</time>
      </trkpt>
      <trkpt lat="44.29088" lon="5.20442">
        <ele>477.6</ele>
        <time>2022-07-18T08:53:04Z</time>
      </trkpt>
      <trkpt lat="44.29087" lon="5.20437">
        <ele>477.7</ele>
        <time>2022-07-18T08:53:05Z</time>
      </trkpt>
      <trkpt lat="44.29086" lon="5.20432">
        <ele>477.9</ele>
        <time>2022-07-18T08:53:06Z</time>
      </trkpt>
      <trkpt lat="44.29085" lon="5.20426">
        <ele>478</ele>
        <time>2022-07-18T08:53:07Z</time>
      </trkpt>
      <trkpt lat="44.29083" lon="5.20418">
        <ele>477.4</ele>
        <time>2022-07-18T08:53:08Z</time>
      </trkpt>
      <trkpt lat="44.29081" lon="5.2041">
        <ele>477.5</ele>
        <time>2022-07-18T08:53:09Z</time>
      </trkpt>
      <trkpt lat="44.29078" lon="5.20404">
        <ele>473.5</ele>
        <time>2022-07-18T08:53:10Z</time>
      </trkpt>
      <trkpt lat="44.29076" lon="5.20399">
        <ele>473.7</ele>
        <time>2022-07-18T08:53:11Z</time>
      </trkpt>
      <trkpt lat="44.29075" lon="5.20393">
        <ele>473.8</ele>
        <time>2022-07-18T08:53:12Z</time>
      </trkpt>
      <trkpt lat="44.29073" lon="5.20388">
        <ele>473.8</ele>
        <time>2022-07-18T08:53:13Z</time>
      </trkpt>
      <trkpt lat="44.29071" lon="5.2038">
        <ele>474</ele>
        <time>2022-07-18T08:53:14Z</time>
      </trkpt>
      <trkpt lat="44.29071" lon="5.20373">
        <ele>474</ele>
        <time>2022-07-18T08:53:15Z</time>
      </trkpt>
      <trkpt lat="44.29071" lon="5.20366">
        <ele>474.2</ele>
        <time>2022-07-18T08:53:16Z</time>
      </trkpt>
      <trkpt lat="44.2907" lon="5.20359">
        <ele>474.3</ele>
        <time>2022-07-18T08:53:17Z</time>
      </trkpt>
      <trkpt lat="44.2907" lon="5.20354">
        <ele>474.3</ele>
        <time>2022-07-18T08:53:18Z</time>
      </trkpt>
      <trkpt lat="44.2907" lon="5.20345">
        <ele>474.4</ele>
        <time>2022-07-18T08:53:19Z</time>
      </trkpt>
      <trkpt lat="44.2907" lon="5.2034">
        <ele>474.6</ele>
        <time>2022-07-18T08:53:20Z</time>
      </trkpt>
      <trkpt lat="44.29069" lon="5.20335">
        <ele>474.7</ele>
        <time>2022-07-18T08:53:21Z</time>
      </trkpt>
      <trkpt lat="44.2907" lon="5.20331">
        <ele>475</ele>
        <time>2022-07-18T08:53:22Z</time>
      </trkpt>
      <trkpt lat="44.2907" lon="5.20327">
        <ele>475.1</ele>
        <time>2022-07-18T08:53:23Z</time>
      </trkpt>
      <trkpt lat="44.29071" lon="5.20326">
        <ele>475.3</ele>
        <time>2022-07-18T08:53:24Z</time>
      </trkpt>
      <trkpt lat="44.29074" lon="5.20321">
        <ele>475.5</ele>
        <time>2022-07-18T08:53:25Z</time>
      </trkpt>
      <trkpt lat="44.29075" lon="5.2032">
        <ele>475.5</ele>
        <time>2022-07-18T08:53:26Z</time>
      </trkpt>
      <trkpt lat="44.29078" lon="5.20317">
        <ele>475.6</ele>
        <time>2022-07-18T08:53:27Z</time>
      </trkpt>
      <trkpt lat="44.2908" lon="5.20314">
        <ele>475.6</ele>
        <time>2022-07-18T08:53:28Z</time>
      </trkpt>
      <trkpt lat="44.29082" lon="5.2031">
        <ele>479.2</ele>
        <time>2022-07-18T08:53:29Z</time>
      </trkpt>
      <trkpt lat="44.29083" lon="5.20305">
        <ele>479.4</ele>
        <time>2022-07-18T08:53:30Z</time>
      </trkpt>
      <trkpt lat="44.29083" lon="5.20301">
        <ele>479.5</ele>
        <time>2022-07-18T08:53:31Z</time>
      </trkpt>
      <trkpt lat="44.29082" lon="5.20297">
        <ele>479.5</ele>
        <time>2022-07-18T08:53:32Z</time>
      </trkpt>
      <trkpt lat="44.29079" lon="5.20293">
        <ele>476.3</ele>
        <time>2022-07-18T08:53:33Z</time>
      </trkpt>
      <trkpt lat="44.29078" lon="5.20291">
        <ele>476.3</ele>
        <time>2022-07-18T08:53:34Z</time>
      </trkpt>
      <trkpt lat="44.29075" lon="5.20288">
        <ele>476.9</ele>
        <time>2022-07-18T08:53:35Z</time>
      </trkpt>
      <trkpt lat="44.29072" lon="5.20286">
        <ele>476.9</ele>
        <time>2022-07-18T08:53:36Z</time>
      </trkpt>
      <trkpt lat="44.29068" lon="5.20284">
        <ele>474.1</ele>
        <time>2022-07-18T08:53:37Z</time>
      </trkpt>
      <trkpt lat="44.29064" lon="5.20282">
        <ele>474.1</ele>
        <time>2022-07-18T08:53:38Z</time>
      </trkpt>
      <trkpt lat="44.29061" lon="5.20281">
        <ele>474.2</ele>
        <time>2022-07-18T08:53:39Z</time>
      </trkpt>
      <trkpt lat="44.29056" lon="5.2028">
        <ele>474.2</ele>
        <time>2022-07-18T08:53:40Z</time>
      </trkpt>
      <trkpt lat="44.29052" lon="5.20278">
        <ele>470.6</ele>
        <time>2022-07-18T08:53:41Z</time>
      </trkpt>
      <trkpt lat="44.29045" lon="5.20274">
        <ele>470.6</ele>
        <time>2022-07-18T08:53:42Z</time>
      </trkpt>
      <trkpt lat="44.29042" lon="5.20269">
        <ele>467.5</ele>
        <time>2022-07-18T08:53:43Z</time>
      </trkpt>
      <trkpt lat="44.29038" lon="5.20264">
        <ele>467.5</ele>
        <time>2022-07-18T08:53:44Z</time>
      </trkpt>
      <trkpt lat="44.29034" lon="5.20258">
        <ele>467.6</ele>
        <time>2022-07-18T08:53:45Z</time>
      </trkpt>
      <trkpt lat="44.2903" lon="5.20251">
        <ele>463.9</ele>
        <time>2022-07-18T08:53:46Z</time>
      </trkpt>
      <trkpt lat="44.29027" lon="5.20243">
        <ele>463.9</ele>
        <time>2022-07-18T08:53:47Z</time>
      </trkpt>
      <trkpt lat="44.29027" lon="5.20233">
        <ele>463.9</ele>
        <time>2022-07-18T08:53:48Z</time>
      </trkpt>
      <trkpt lat="44.29028" lon="5.20223">
        <ele>463.9</ele>
        <time>2022-07-18T08:53:49Z</time>
      </trkpt>
      <trkpt lat="44.29029" lon="5.20212">
        <ele>463.5</ele>
        <time>2022-07-18T08:53:50Z</time>
      </trkpt>
      <trkpt lat="44.29029" lon="5.20201">
        <ele>463.1</ele>
        <time>2022-07-18T08:53:51Z</time>
      </trkpt>
      <trkpt lat="44.2903" lon="5.2019">
        <ele>463.1</ele>
        <time>2022-07-18T08:53:52Z</time>
      </trkpt>
      <trkpt lat="44.29032" lon="5.20178">
        <ele>466.9</ele>
        <time>2022-07-18T08:53:53Z</time>
      </trkpt>
      <trkpt lat="44.29034" lon="5.20168">
        <ele>466.7</ele>
        <time>2022-07-18T08:53:54Z</time>
      </trkpt>
      <trkpt lat="44.29036" lon="5.20158">
        <ele>466.7</ele>
        <time>2022-07-18T08:53:55Z</time>
      </trkpt>
      <trkpt lat="44.29038" lon="5.20149">
        <ele>466.4</ele>
        <time>2022-07-18T08:53:56Z</time>
      </trkpt>
      <trkpt lat="44.29039" lon="5.20144">
        <ele>466.4</ele>
        <time>2022-07-18T08:53:57Z</time>
      </trkpt>
      <trkpt lat="44.29039" lon="5.20138">
        <ele>466.5</ele>
        <time>2022-07-18T08:53:58Z</time>
      </trkpt>
      <trkpt lat="44.29039" lon="5.20133">
        <ele>466.2</ele>
        <time>2022-07-18T08:53:59Z</time>
      </trkpt>
      <trkpt lat="44.29039" lon="5.20127">
        <ele>466.3</ele>
        <time>2022-07-18T08:54:00Z</time>
      </trkpt>
      <trkpt lat="44.29033" lon="5.20121">
        <ele>466.3</ele>
        <time>2022-07-18T08:54:01Z</time>
      </trkpt>
      <trkpt lat="44.29028" lon="5.20114">
        <ele>462.8</ele>
        <time>2022-07-18T08:54:02Z</time>
      </trkpt>
      <trkpt lat="44.29024" lon="5.2011">
        <ele>462.9</ele>
        <time>2022-07-18T08:54:03Z</time>
      </trkpt>
      <trkpt lat="44.29019" lon="5.20101">
        <ele>459.5</ele>
        <time>2022-07-18T08:54:04Z</time>
      </trkpt>
      <trkpt lat="44.29011" lon="5.20098">
        <ele>459.9</ele>
        <time>2022-07-18T08:54:05Z</time>
      </trkpt>
      <trkpt lat="44.29006" lon="5.20095">
        <ele>456.2</ele>
        <time>2022-07-18T08:54:06Z</time>
      </trkpt>
      <trkpt lat="44.29" lon="5.20091">
        <ele>456.2</ele>
        <time>2022-07-18T08:54:07Z</time>
      </trkpt>
      <trkpt lat="44.28992" lon="5.20083">
        <ele>452.6</ele>
        <time>2022-07-18T08:54:08Z</time>
      </trkpt>
      <trkpt lat="44.28987" lon="5.20078">
        <ele>453.4</ele>
        <time>2022-07-18T08:54:09Z</time>
      </trkpt>
      <trkpt lat="44.28982" lon="5.20074">
        <ele>450.6</ele>
        <time>2022-07-18T08:54:10Z</time>
      </trkpt>
      <trkpt lat="44.28977" lon="5.20073">
        <ele>450.7</ele>
        <time>2022-07-18T08:54:11Z</time>
      </trkpt>
      <trkpt lat="44.28973" lon="5.20069">
        <ele>450.7</ele>
        <time>2022-07-18T08:54:12Z</time>
      </trkpt>
      <trkpt lat="44.28968" lon="5.20065">
        <ele>448.6</ele>
        <time>2022-07-18T08:54:13Z</time>
      </trkpt>
      <trkpt lat="44.28965" lon="5.20066">
        <ele>448.3</ele>
        <time>2022-07-18T08:54:14Z</time>
      </trkpt>
      <trkpt lat="44.28961" lon="5.20071">
        <ele>448.4</ele>
        <time>2022-07-18T08:54:15Z</time>
      </trkpt>
      <trkpt lat="44.28956" lon="5.20076">
        <ele>446.7</ele>
        <time>2022-07-18T08:54:16Z</time>
      </trkpt>
      <trkpt lat="44.28952" lon="5.20081">
        <ele>446.7</ele>
        <time>2022-07-18T08:54:17Z</time>
      </trkpt>
      <trkpt lat="44.28946" lon="5.20083">
        <ele>446.4</ele>
        <time>2022-07-18T08:54:18Z</time>
      </trkpt>
      <trkpt lat="44.28942" lon="5.20083">
        <ele>445.1</ele>
        <time>2022-07-18T08:54:19Z</time>
      </trkpt>
      <trkpt lat="44.28938" lon="5.20082">
        <ele>445.4</ele>
        <time>2022-07-18T08:54:20Z</time>
      </trkpt>
      <trkpt lat="44.28936" lon="5.20081">
        <ele>445.4</ele>
        <time>2022-07-18T08:54:21Z</time>
      </trkpt>
      <trkpt lat="44.28933" lon="5.20077">
        <ele>445.5</ele>
        <time>2022-07-18T08:54:22Z</time>
      </trkpt>
      <trkpt lat="44.28932" lon="5.20072">
        <ele>444.9</ele>
        <time>2022-07-18T08:54:23Z</time>
      </trkpt>
      <trkpt lat="44.28931" lon="5.20068">
        <ele>445</ele>
        <time>2022-07-18T08:54:24Z</time>
      </trkpt>
      <trkpt lat="44.28922" lon="5.20066">
        <ele>445</ele>
        <time>2022-07-18T08:54:25Z</time>
      </trkpt>
      <trkpt lat="44.28921" lon="5.20064">
        <ele>445.5</ele>
        <time>2022-07-18T08:54:26Z</time>
      </trkpt>
      <trkpt lat="44.2892" lon="5.20062">
        <ele>445.4</ele>
        <time>2022-07-18T08:54:27Z</time>
      </trkpt>
      <trkpt lat="44.28918" lon="5.20058">
        <ele>445.4</ele>
        <time>2022-07-18T08:54:28Z</time>
      </trkpt>
      <trkpt lat="44.28917" lon="5.20056">
        <ele>445.5</ele>
        <time>2022-07-18T08:54:29Z</time>
      </trkpt>
      <trkpt lat="44.28914" lon="5.20053">
        <ele>445.5</ele>
        <time>2022-07-18T08:54:30Z</time>
      </trkpt>
      <trkpt lat="44.28911" lon="5.20049">
        <ele>445.6</ele>
        <time>2022-07-18T08:54:31Z</time>
      </trkpt>
      <trkpt lat="44.28908" lon="5.20046">
        <ele>445.2</ele>
        <time>2022-07-18T08:54:32Z</time>
      </trkpt>
      <trkpt lat="44.28905" lon="5.20042">
        <ele>445.2</ele>
        <time>2022-07-18T08:54:33Z</time>
      </trkpt>
      <trkpt lat="44.28903" lon="5.20037">
        <ele>445.3</ele>
        <time>2022-07-18T08:54:34Z</time>
      </trkpt>
      <trkpt lat="44.289" lon="5.20031">
        <ele>445.3</ele>
        <time>2022-07-18T08:54:35Z</time>
      </trkpt>
      <trkpt lat="44.289" lon="5.20027">
        <ele>444.6</ele>
        <time>2022-07-18T08:54:36Z</time>
      </trkpt>
      <trkpt lat="44.28902" lon="5.20023">
        <ele>444.6</ele>
        <time>2022-07-18T08:54:37Z</time>
      </trkpt>
      <trkpt lat="44.28906" lon="5.20019">
        <ele>444.7</ele>
        <time>2022-07-18T08:54:38Z</time>
      </trkpt>
      <trkpt lat="44.2891" lon="5.20016">
        <ele>445.3</ele>
        <time>2022-07-18T08:54:39Z</time>
      </trkpt>
      <trkpt lat="44.28914" lon="5.20013">
        <ele>445.2</ele>
        <time>2022-07-18T08:54:40Z</time>
      </trkpt>
      <trkpt lat="44.28917" lon="5.2001">
        <ele>445.2</ele>
        <time>2022-07-18T08:54:41Z</time>
      </trkpt>
      <trkpt lat="44.28919" lon="5.20007">
        <ele>445.3</ele>
        <time>2022-07-18T08:54:42Z</time>
      </trkpt>
      <trkpt lat="44.28921" lon="5.20003">
        <ele>445.3</ele>
        <time>2022-07-18T08:54:43Z</time>
      </trkpt>
      <trkpt lat="44.28921" lon="5.20002">
        <ele>445.4</ele>
        <time>2022-07-18T08:54:44Z</time>
      </trkpt>
      <trkpt lat="44.2892" lon="5.2">
        <ele>445.4</ele>
        <time>2022-07-18T08:54:45Z</time>
      </trkpt>
      <trkpt lat="44.28919" lon="5.19999">
        <ele>445.4</ele>
        <time>2022-07-18T08:54:46Z</time>
      </trkpt>
      <trkpt lat="44.28918" lon="5.19998">
        <ele>445.5</ele>
        <time>2022-07-18T08:54:47Z</time>
      </trkpt>
      <trkpt lat="44.28916" lon="5.19998">
        <ele>445.5</ele>
        <time>2022-07-18T08:54:48Z</time>
      </trkpt>
      <trkpt lat="44.28915" lon="5.19997">
        <ele>445.6</ele>
        <time>2022-07-18T08:54:49Z</time>
      </trkpt>
      <trkpt lat="44.28914" lon="5.19997">
        <ele>446.1</ele>
        <time>2022-07-18T08:54:50Z</time>
      </trkpt>
      <trkpt lat="44.28911" lon="5.19995">
        <ele>446.1</ele>
        <time>2022-07-18T08:54:51Z</time>
      </trkpt>
      <trkpt lat="44.2891" lon="5.19994">
        <ele>446.2</ele>
        <time>2022-07-18T08:54:52Z</time>
      </trkpt>
      <trkpt lat="44.28909" lon="5.19993">
        <ele>446.2</ele>
        <time>2022-07-18T08:54:53Z</time>
      </trkpt>
      <trkpt lat="44.28908" lon="5.19992">
        <ele>445.7</ele>
        <time>2022-07-18T08:54:54Z</time>
      </trkpt>
      <trkpt lat="44.28907" lon="5.19992">
        <ele>445.7</ele>
        <time>2022-07-18T08:54:55Z</time>
      </trkpt>
      <trkpt lat="44.28905" lon="5.19992">
        <ele>445.7</ele>
        <time>2022-07-18T08:54:56Z</time>
      </trkpt>
      <trkpt lat="44.28904" lon="5.19991">
        <ele>445.8</ele>
        <time>2022-07-18T08:54:57Z</time>
      </trkpt>
      <trkpt lat="44.28901" lon="5.19988">
        <ele>445.8</ele>
        <time>2022-07-18T08:54:58Z</time>
      </trkpt>
      <trkpt lat="44.289" lon="5.19987">
        <ele>445.9</ele>
        <time>2022-07-18T08:54:59Z</time>
      </trkpt>
      <trkpt lat="44.28897" lon="5.19987">
        <ele>445.9</ele>
        <time>2022-07-18T08:55:00Z</time>
      </trkpt>
      <trkpt lat="44.28895" lon="5.19987">
        <ele>445.8</ele>
        <time>2022-07-18T08:55:01Z</time>
      </trkpt>
      <trkpt lat="44.28893" lon="5.19989">
        <ele>445.8</ele>
        <time>2022-07-18T08:55:02Z</time>
      </trkpt>
      <trkpt lat="44.2889" lon="5.19991">
        <ele>445.9</ele>
        <time>2022-07-18T08:55:03Z</time>
      </trkpt>
      <trkpt lat="44.28887" lon="5.19993">
        <ele>445.9</ele>
        <time>2022-07-18T08:55:04Z</time>
      </trkpt>
      <trkpt lat="44.28886" lon="5.19993">
        <ele>446</ele>
        <time>2022-07-18T08:55:05Z</time>
      </trkpt>
      <trkpt lat="44.28884" lon="5.19993">
        <ele>446</ele>
        <time>2022-07-18T08:55:06Z</time>
      </trkpt>
      <trkpt lat="44.28883" lon="5.19993">
        <ele>446.3</ele>
        <time>2022-07-18T08:55:07Z</time>
      </trkpt>
      <trkpt lat="44.28881" lon="5.19992">
        <ele>446.3</ele>
        <time>2022-07-18T08:55:08Z</time>
      </trkpt>
      <trkpt lat="44.2888" lon="5.19991">
        <ele>446.4</ele>
        <time>2022-07-18T08:55:09Z</time>
      </trkpt>
      <trkpt lat="44.2888" lon="5.19991">
        <ele>446.4</ele>
        <time>2022-07-18T08:55:10Z</time>
      </trkpt>
      <trkpt lat="44.2888" lon="5.19991">
        <ele>446.5</ele>
        <time>2022-07-18T08:55:11Z</time>
      </trkpt>
      <trkpt lat="44.2888" lon="5.19991">
        <ele>446.5</ele>
        <time>2022-07-18T08:55:12Z</time>
      </trkpt>
      <trkpt lat="44.2888" lon="5.19991">
        <ele>446.6</ele>
        <time>2022-07-18T08:55:13Z</time>
      </trkpt>
      <trkpt lat="44.2888" lon="5.19991">
        <ele>446.6</ele>
        <time>2022-07-18T08:55:14Z</time>
      </trkpt>
      <trkpt lat="44.2888" lon="5.19991">
        <ele>446.6</ele>
        <time>2022-07-18T08:55:15Z</time>
      </trkpt>
      <trkpt lat="44.2888" lon="5.19991">
        <ele>446.7</ele>
        <time>2022-07-18T08:55:16Z</time>
      </trkpt>
      <trkpt lat="44.2888" lon="5.19991">
        <ele>446.7</ele>
        <time>2022-07-18T08:55:17Z</time>
      </trkpt>
      <trkpt lat="44.2888" lon="5.19991">
        <ele>446.8</ele>
        <time>2022-07-18T08:55:18Z</time>
      </trkpt>
      <trkpt lat="44.2888" lon="5.19991">
        <ele>446.8</ele>
        <time>2022-07-18T08:55:19Z</time>
      </trkpt>
      <trkpt lat="44.28878" lon="5.19988">
        <ele>446.9</ele>
        <time>2022-07-18T08:56:09Z</time>
      </trkpt>
      <trkpt lat="44.28879" lon="5.19987">
        <ele>446.9</ele>
        <time>2022-07-18T08:56:10Z</time>
      </trkpt>
      <trkpt lat="44.2888" lon="5.19987">
        <ele>447</ele>
        <time>2022-07-18T08:56:11Z</time>
      </trkpt>
      <trkpt lat="44.28882" lon="5.19986">
        <ele>447</ele>
        <time>2022-07-18T08:56:12Z</time>
      </trkpt>
      <trkpt lat="44.28883" lon="5.19986">
        <ele>447</ele>
        <time>2022-07-18T08:56:13Z</time>
      </trkpt>
      <trkpt lat="44.28884" lon="5.19985">
        <ele>446.9</ele>
        <time>2022-07-18T08:56:14Z</time>
      </trkpt>
      <trkpt lat="44.28885" lon="5.19985">
        <ele>446.9</ele>
        <time>2022-07-18T08:56:15Z</time>
      </trkpt>
      <trkpt lat="44.28887" lon="5.19984">
        <ele>446.9</ele>
        <time>2022-07-18T08:56:16Z</time>
      </trkpt>
      <trkpt lat="44.28888" lon="5.19983">
        <ele>447</ele>
        <time>2022-07-18T08:56:17Z</time>
      </trkpt>
      <trkpt lat="44.28889" lon="5.19983">
        <ele>447</ele>
        <time>2022-07-18T08:56:18Z</time>
      </trkpt>
      <trkpt lat="44.28891" lon="5.19983">
        <ele>447.1</ele>
        <time>2022-07-18T08:56:19Z</time>
      </trkpt>
      <trkpt lat="44.28892" lon="5.19983">
        <ele>447.1</ele>
        <time>2022-07-18T08:56:20Z</time>
      </trkpt>
      <trkpt lat="44.28894" lon="5.19983">
        <ele>447.2</ele>
        <time>2022-07-18T08:56:21Z</time>
      </trkpt>
      <trkpt lat="44.28896" lon="5.19982">
        <ele>447.4</ele>
        <time>2022-07-18T08:56:22Z</time>
      </trkpt>
      <trkpt lat="44.28897" lon="5.19981">
        <ele>447.4</ele>
        <time>2022-07-18T08:56:23Z</time>
      </trkpt>
      <trkpt lat="44.289" lon="5.1998">
        <ele>447.5</ele>
        <time>2022-07-18T08:56:24Z</time>
      </trkpt>
      <trkpt lat="44.28901" lon="5.1998">
        <ele>447.5</ele>
        <time>2022-07-18T08:56:25Z</time>
      </trkpt>
      <trkpt lat="44.28903" lon="5.1998">
        <ele>447.6</ele>
        <time>2022-07-18T08:56:26Z</time>
      </trkpt>
      <trkpt lat="44.28904" lon="5.19981">
        <ele>447.6</ele>
        <time>2022-07-18T08:56:27Z</time>
      </trkpt>
      <trkpt lat="44.28907" lon="5.19981">
        <ele>447.7</ele>
        <time>2022-07-18T08:56:28Z</time>
      </trkpt>
      <trkpt lat="44.28908" lon="5.19981">
        <ele>447.7</ele>
        <time>2022-07-18T08:56:29Z</time>
      </trkpt>
      <trkpt lat="44.28911" lon="5.19981">
        <ele>448.3</ele>
        <time>2022-07-18T08:56:30Z</time>
      </trkpt>
      <trkpt lat="44.28912" lon="5.1998">
        <ele>448.4</ele>
        <time>2022-07-18T08:56:31Z</time>
      </trkpt>
      <trkpt lat="44.28913" lon="5.19977">
        <ele>448.8</ele>
        <time>2022-07-18T08:56:32Z</time>
      </trkpt>
      <trkpt lat="44.28914" lon="5.19975">
        <ele>448.9</ele>
        <time>2022-07-18T08:56:33Z</time>
      </trkpt>
      <trkpt lat="44.28914" lon="5.1997">
        <ele>448.9</ele>
        <time>2022-07-18T08:56:34Z</time>
      </trkpt>
      <trkpt lat="44.28914" lon="5.19969">
        <ele>449</ele>
        <time>2022-07-18T08:56:35Z</time>
      </trkpt>
      <trkpt lat="44.28913" lon="5.19965">
        <ele>449</ele>
        <time>2022-07-18T08:56:36Z</time>
      </trkpt>
      <trkpt lat="44.28913" lon="5.19963">
        <ele>449.1</ele>
        <time>2022-07-18T08:56:37Z</time>
      </trkpt>
      <trkpt lat="44.28912" lon="5.19959">
        <ele>449.3</ele>
        <time>2022-07-18T08:56:38Z</time>
      </trkpt>
      <trkpt lat="44.28912" lon="5.19958">
        <ele>449.4</ele>
        <time>2022-07-18T08:56:39Z</time>
      </trkpt>
      <trkpt lat="44.2891" lon="5.19954">
        <ele>449.4</ele>
        <time>2022-07-18T08:56:40Z</time>
      </trkpt>
      <trkpt lat="44.28908" lon="5.1995">
        <ele>449</ele>
        <time>2022-07-18T08:56:41Z</time>
      </trkpt>
      <trkpt lat="44.28908" lon="5.19948">
        <ele>449.1</ele>
        <time>2022-07-18T08:56:42Z</time>
      </trkpt>
      <trkpt lat="44.28906" lon="5.19943">
        <ele>449.5</ele>
        <time>2022-07-18T08:56:43Z</time>
      </trkpt>
      <trkpt lat="44.28906" lon="5.19941">
        <ele>449.5</ele>
        <time>2022-07-18T08:56:44Z</time>
      </trkpt>
      <trkpt lat="44.28905" lon="5.19937">
        <ele>449.6</ele>
        <time>2022-07-18T08:56:45Z</time>
      </trkpt>
      <trkpt lat="44.28905" lon="5.19935">
        <ele>449.6</ele>
        <time>2022-07-18T08:56:46Z</time>
      </trkpt>
      <trkpt lat="44.28905" lon="5.19931">
        <ele>449.7</ele>
        <time>2022-07-18T08:56:47Z</time>
      </trkpt>
      <trkpt lat="44.28905" lon="5.19926">
        <ele>450.3</ele>
        <time>2022-07-18T08:56:48Z</time>
      </trkpt>
      <trkpt lat="44.28906" lon="5.19922">
        <ele>450.3</ele>
        <time>2022-07-18T08:56:49Z</time>
      </trkpt>
      <trkpt lat="44.28908" lon="5.19918">
        <ele>450.4</ele>
        <time>2022-07-18T08:56:50Z</time>
      </trkpt>
      <trkpt lat="44.28911" lon="5.19916">
        <ele>450.9</ele>
        <time>2022-07-18T08:56:51Z</time>
      </trkpt>
      <trkpt lat="44.28914" lon="5.19914">
        <ele>451</ele>
        <time>2022-07-18T08:56:52Z</time>
      </trkpt>
      <trkpt lat="44.28917" lon="5.19912">
        <ele>451</ele>
        <time>2022-07-18T08:56:53Z</time>
      </trkpt>
      <trkpt lat="44.2892" lon="5.1991">
        <ele>452.1</ele>
        <time>2022-07-18T08:56:54Z</time>
      </trkpt>
      <trkpt lat="44.28921" lon="5.19907">
        <ele>453</ele>
        <time>2022-07-18T08:56:55Z</time>
      </trkpt>
      <trkpt lat="44.28921" lon="5.19902">
        <ele>452.1</ele>
        <time>2022-07-18T08:56:56Z</time>
      </trkpt>
      <trkpt lat="44.2892" lon="5.199">
        <ele>452.2</ele>
        <time>2022-07-18T08:56:57Z</time>
      </trkpt>
      <trkpt lat="44.28919" lon="5.19899">
        <ele>452.2</ele>
        <time>2022-07-18T08:56:58Z</time>
      </trkpt>
      <trkpt lat="44.28918" lon="5.19898">
        <ele>452.3</ele>
        <time>2022-07-18T08:56:59Z</time>
      </trkpt>
      <trkpt lat="44.28914" lon="5.19895">
        <ele>452.3</ele>
        <time>2022-07-18T08:57:00Z</time>
      </trkpt>
      <trkpt lat="44.28913" lon="5.19895">
        <ele>452.4</ele>
        <time>2022-07-18T08:57:01Z</time>
      </trkpt>
      <trkpt lat="44.2891" lon="5.19892">
        <ele>453.5</ele>
        <time>2022-07-18T08:57:02Z</time>
      </trkpt>
      <trkpt lat="44.28907" lon="5.19889">
        <ele>452.5</ele>
        <time>2022-07-18T08:57:03Z</time>
      </trkpt>
      <trkpt lat="44.28904" lon="5.19887">
        <ele>452.6</ele>
        <time>2022-07-18T08:57:04Z</time>
      </trkpt>
      <trkpt lat="44.28902" lon="5.19883">
        <ele>452.6</ele>
        <time>2022-07-18T08:57:05Z</time>
      </trkpt>
      <trkpt lat="44.28899" lon="5.19881">
        <ele>452.6</ele>
        <time>2022-07-18T08:57:06Z</time>
      </trkpt>
      <trkpt lat="44.28897" lon="5.19877">
        <ele>452.7</ele>
        <time>2022-07-18T08:57:07Z</time>
      </trkpt>
      <trkpt lat="44.28896" lon="5.19876">
        <ele>452.2</ele>
        <time>2022-07-18T08:57:08Z</time>
      </trkpt>
      <trkpt lat="44.28892" lon="5.19873">
        <ele>452.3</ele>
        <time>2022-07-18T08:57:09Z</time>
      </trkpt>
      <trkpt lat="44.28891" lon="5.19872">
        <ele>452.3</ele>
        <time>2022-07-18T08:57:10Z</time>
      </trkpt>
      <trkpt lat="44.28889" lon="5.19869">
        <ele>452.3</ele>
        <time>2022-07-18T08:57:11Z</time>
      </trkpt>
      <trkpt lat="44.28886" lon="5.19866">
        <ele>452.4</ele>
        <time>2022-07-18T08:57:12Z</time>
      </trkpt>
      <trkpt lat="44.28885" lon="5.19865">
        <ele>452.4</ele>
        <time>2022-07-18T08:57:13Z</time>
      </trkpt>
      <trkpt lat="44.28883" lon="5.19863">
        <ele>451.1</ele>
        <time>2022-07-18T08:57:14Z</time>
      </trkpt>
      <trkpt lat="44.28883" lon="5.19862">
        <ele>451</ele>
        <time>2022-07-18T08:57:15Z</time>
      </trkpt>
      <trkpt lat="44.28881" lon="5.19859">
        <ele>450.7</ele>
        <time>2022-07-18T08:57:16Z</time>
      </trkpt>
      <trkpt lat="44.2888" lon="5.19857">
        <ele>450.6</ele>
        <time>2022-07-18T08:57:17Z</time>
      </trkpt>
      <trkpt lat="44.28879" lon="5.19853">
        <ele>450.3</ele>
        <time>2022-07-18T08:57:18Z</time>
      </trkpt>
      <trkpt lat="44.28879" lon="5.19852">
        <ele>450.1</ele>
        <time>2022-07-18T08:57:19Z</time>
      </trkpt>
      <trkpt lat="44.28878" lon="5.19851">
        <ele>450.1</ele>
        <time>2022-07-18T08:57:20Z</time>
      </trkpt>
      <trkpt lat="44.28878" lon="5.1985">
        <ele>450</ele>
        <time>2022-07-18T08:57:21Z</time>
      </trkpt>
      <trkpt lat="44.28878" lon="5.1985">
        <ele>450</ele>
        <time>2022-07-18T08:57:22Z</time>
      </trkpt>
      <trkpt lat="44.28877" lon="5.19849">
        <ele>449.9</ele>
        <time>2022-07-18T08:57:23Z</time>
      </trkpt>
      <trkpt lat="44.28877" lon="5.19848">
        <ele>449.8</ele>
        <time>2022-07-18T08:57:24Z</time>
      </trkpt>
      <trkpt lat="44.28876" lon="5.19847">
        <ele>449.8</ele>
        <time>2022-07-18T08:57:25Z</time>
      </trkpt>
      <trkpt lat="44.28876" lon="5.19847">
        <ele>449.7</ele>
        <time>2022-07-18T08:57:26Z</time>
      </trkpt>
      <trkpt lat="44.28876" lon="5.19846">
        <ele>449.6</ele>
        <time>2022-07-18T08:57:27Z</time>
      </trkpt>
      <trkpt lat="44.28877" lon="5.19842">
        <ele>449.4</ele>
        <time>2022-07-18T08:57:28Z</time>
      </trkpt>
      <trkpt lat="44.28877" lon="5.19841">
        <ele>449.3</ele>
        <time>2022-07-18T08:57:29Z</time>
      </trkpt>
      <trkpt lat="44.28878" lon="5.1984">
        <ele>449.2</ele>
        <time>2022-07-18T08:57:30Z</time>
      </trkpt>
      <trkpt lat="44.28879" lon="5.19838">
        <ele>449</ele>
        <time>2022-07-18T08:57:31Z</time>
      </trkpt>
      <trkpt lat="44.28881" lon="5.19834">
        <ele>448.7</ele>
        <time>2022-07-18T08:57:32Z</time>
      </trkpt>
      <trkpt lat="44.28881" lon="5.19833">
        <ele>448.6</ele>
        <time>2022-07-18T08:57:33Z</time>
      </trkpt>
      <trkpt lat="44.28882" lon="5.19831">
        <ele>448.5</ele>
        <time>2022-07-18T08:57:34Z</time>
      </trkpt>
      <trkpt lat="44.28882" lon="5.19829">
        <ele>448.3</ele>
        <time>2022-07-18T08:57:35Z</time>
      </trkpt>
      <trkpt lat="44.28882" lon="5.19823">
        <ele>447.9</ele>
        <time>2022-07-18T08:57:36Z</time>
      </trkpt>
      <trkpt lat="44.28882" lon="5.19822">
        <ele>447.8</ele>
        <time>2022-07-18T08:57:37Z</time>
      </trkpt>
      <trkpt lat="44.28881" lon="5.19819">
        <ele>447.6</ele>
        <time>2022-07-18T08:57:38Z</time>
      </trkpt>
      <trkpt lat="44.28881" lon="5.19817">
        <ele>447.5</ele>
        <time>2022-07-18T08:57:39Z</time>
      </trkpt>
      <trkpt lat="44.28881" lon="5.19813">
        <ele>447.2</ele>
        <time>2022-07-18T08:57:40Z</time>
      </trkpt>
      <trkpt lat="44.28882" lon="5.19812">
        <ele>447.1</ele>
        <time>2022-07-18T08:57:41Z</time>
      </trkpt>
      <trkpt lat="44.28883" lon="5.19807">
        <ele>446.7</ele>
        <time>2022-07-18T08:57:42Z</time>
      </trkpt>
      <trkpt lat="44.28883" lon="5.19805">
        <ele>446.6</ele>
        <time>2022-07-18T08:57:43Z</time>
      </trkpt>
      <trkpt lat="44.28884" lon="5.19801">
        <ele>446.3</ele>
        <time>2022-07-18T08:57:44Z</time>
      </trkpt>
      <trkpt lat="44.28885" lon="5.19796">
        <ele>446</ele>
        <time>2022-07-18T08:57:45Z</time>
      </trkpt>
      <trkpt lat="44.28886" lon="5.19793">
        <ele>445.8</ele>
        <time>2022-07-18T08:57:46Z</time>
      </trkpt>
      <trkpt lat="44.28886" lon="5.19789">
        <ele>445.6</ele>
        <time>2022-07-18T08:57:47Z</time>
      </trkpt>
      <trkpt lat="44.28887" lon="5.19785">
        <ele>445.3</ele>
        <time>2022-07-18T08:57:48Z</time>
      </trkpt>
      <trkpt lat="44.28887" lon="5.1978">
        <ele>445.1</ele>
        <time>2022-07-18T08:57:49Z</time>
      </trkpt>
      <trkpt lat="44.28887" lon="5.19778">
        <ele>445</ele>
        <time>2022-07-18T08:57:50Z</time>
      </trkpt>
      <trkpt lat="44.28887" lon="5.19774">
        <ele>444.9</ele>
        <time>2022-07-18T08:57:51Z</time>
      </trkpt>
      <trkpt lat="44.28887" lon="5.19773">
        <ele>444.8</ele>
        <time>2022-07-18T08:57:52Z</time>
      </trkpt>
      <trkpt lat="44.28887" lon="5.19768">
        <ele>444.6</ele>
        <time>2022-07-18T08:57:53Z</time>
      </trkpt>
      <trkpt lat="44.28887" lon="5.19766">
        <ele>444.5</ele>
        <time>2022-07-18T08:57:54Z</time>
      </trkpt>
      <trkpt lat="44.28887" lon="5.19762">
        <ele>444.3</ele>
        <time>2022-07-18T08:57:55Z</time>
      </trkpt>
      <trkpt lat="44.28887" lon="5.19758">
        <ele>444.2</ele>
        <time>2022-07-18T08:57:56Z</time>
      </trkpt>
      <trkpt lat="44.28886" lon="5.19754">
        <ele>444</ele>
        <time>2022-07-18T08:57:57Z</time>
      </trkpt>
      <trkpt lat="44.28886" lon="5.19749">
        <ele>443.9</ele>
        <time>2022-07-18T08:57:58Z</time>
      </trkpt>
      <trkpt lat="44.28886" lon="5.19748">
        <ele>443.8</ele>
        <time>2022-07-18T08:57:59Z</time>
      </trkpt>
      <trkpt lat="44.28885" lon="5.19746">
        <ele>443.8</ele>
        <time>2022-07-18T08:58:00Z</time>
      </trkpt>
      <trkpt lat="44.28886" lon="5.19744">
        <ele>443.7</ele>
        <time>2022-07-18T08:58:01Z</time>
      </trkpt>
      <trkpt lat="44.28886" lon="5.19741">
        <ele>443.6</ele>
        <time>2022-07-18T08:58:02Z</time>
      </trkpt>
      <trkpt lat="44.28886" lon="5.19739">
        <ele>443.5</ele>
        <time>2022-07-18T08:58:03Z</time>
      </trkpt>
      <trkpt lat="44.28887" lon="5.19735">
        <ele>443.4</ele>
        <time>2022-07-18T08:58:04Z</time>
      </trkpt>
      <trkpt lat="44.28888" lon="5.19734">
        <ele>443.4</ele>
        <time>2022-07-18T08:58:05Z</time>
      </trkpt>
      <trkpt lat="44.2889" lon="5.1973">
        <ele>443.2</ele>
        <time>2022-07-18T08:58:06Z</time>
      </trkpt>
      <trkpt lat="44.28891" lon="5.19728">
        <ele>443.2</ele>
        <time>2022-07-18T08:58:07Z</time>
      </trkpt>
      <trkpt lat="44.28892" lon="5.19722">
        <ele>443.1</ele>
        <time>2022-07-18T08:58:08Z</time>
      </trkpt>
      <trkpt lat="44.28894" lon="5.19716">
        <ele>443</ele>
        <time>2022-07-18T08:58:09Z</time>
      </trkpt>
      <trkpt lat="44.28897" lon="5.19703">
        <ele>442.7</ele>
        <time>2022-07-18T08:58:10Z</time>
      </trkpt>
      <trkpt lat="44.289" lon="5.19693">
        <ele>442.5</ele>
        <time>2022-07-18T08:58:11Z</time>
      </trkpt>
      <trkpt lat="44.28902" lon="5.19685">
        <ele>442.2</ele>
        <time>2022-07-18T08:58:12Z</time>
      </trkpt>
      <trkpt lat="44.28908" lon="5.19675">
        <ele>441.9</ele>
        <time>2022-07-18T08:58:13Z</time>
      </trkpt>
      <trkpt lat="44.28908" lon="5.19664">
        <ele>441.6</ele>
        <time>2022-07-18T08:58:14Z</time>
      </trkpt>
      <trkpt lat="44.28909" lon="5.19653">
        <ele>441.3</ele>
        <time>2022-07-18T08:58:15Z</time>
      </trkpt>
      <trkpt lat="44.2891" lon="5.19645">
        <ele>441</ele>
        <time>2022-07-18T08:58:16Z</time>
      </trkpt>
      <trkpt lat="44.28919" lon="5.19649">
        <ele>440.3</ele>
        <time>2022-07-18T08:58:17Z</time>
      </trkpt>
      <trkpt lat="44.28926" lon="5.19645">
        <ele>439.8</ele>
        <time>2022-07-18T08:58:18Z</time>
      </trkpt>
      <trkpt lat="44.28931" lon="5.1964">
        <ele>439.3</ele>
        <time>2022-07-18T08:58:19Z</time>
      </trkpt>
      <trkpt lat="44.28937" lon="5.19636">
        <ele>438.8</ele>
        <time>2022-07-18T08:58:20Z</time>
      </trkpt>
      <trkpt lat="44.28943" lon="5.19634">
        <ele>438.2</ele>
        <time>2022-07-18T08:58:21Z</time>
      </trkpt>
      <trkpt lat="44.28949" lon="5.19631">
        <ele>437.6</ele>
        <time>2022-07-18T08:58:22Z</time>
      </trkpt>
      <trkpt lat="44.28955" lon="5.19628">
        <ele>437</ele>
        <time>2022-07-18T08:58:23Z</time>
      </trkpt>
      <trkpt lat="44.28961" lon="5.19627">
        <ele>436.5</ele>
        <time>2022-07-18T08:58:24Z</time>
      </trkpt>
      <trkpt lat="44.28964" lon="5.19628">
        <ele>436.2</ele>
        <time>2022-07-18T08:58:25Z</time>
      </trkpt>
      <trkpt lat="44.28969" lon="5.19629">
        <ele>435.9</ele>
        <time>2022-07-18T08:58:26Z</time>
      </trkpt>
      <trkpt lat="44.28975" lon="5.19625">
        <ele>435.4</ele>
        <time>2022-07-18T08:58:27Z</time>
      </trkpt>
      <trkpt lat="44.2898" lon="5.19624">
        <ele>435</ele>
        <time>2022-07-18T08:58:28Z</time>
      </trkpt>
      <trkpt lat="44.28984" lon="5.19622">
        <ele>434.7</ele>
        <time>2022-07-18T08:58:29Z</time>
      </trkpt>
      <trkpt lat="44.28987" lon="5.19619">
        <ele>434.4</ele>
        <time>2022-07-18T08:58:30Z</time>
      </trkpt>
      <trkpt lat="44.28988" lon="5.19618">
        <ele>434.3</ele>
        <time>2022-07-18T08:58:31Z</time>
      </trkpt>
      <trkpt lat="44.2899" lon="5.19611">
        <ele>433.9</ele>
        <time>2022-07-18T08:58:32Z</time>
      </trkpt>
      <trkpt lat="44.28993" lon="5.19607">
        <ele>433.6</ele>
        <time>2022-07-18T08:58:33Z</time>
      </trkpt>
      <trkpt lat="44.28995" lon="5.19602">
        <ele>433.2</ele>
        <time>2022-07-18T08:58:34Z</time>
      </trkpt>
      <trkpt lat="44.28996" lon="5.19598">
        <ele>432.9</ele>
        <time>2022-07-18T08:58:35Z</time>
      </trkpt>
      <trkpt lat="44.28996" lon="5.19593">
        <ele>432.6</ele>
        <time>2022-07-18T08:58:36Z</time>
      </trkpt>
      <trkpt lat="44.28995" lon="5.19591">
        <ele>432.4</ele>
        <time>2022-07-18T08:58:37Z</time>
      </trkpt>
      <trkpt lat="44.28995" lon="5.1959">
        <ele>432.3</ele>
        <time>2022-07-18T08:58:38Z</time>
      </trkpt>
      <trkpt lat="44.28995" lon="5.19588">
        <ele>432.2</ele>
        <time>2022-07-18T08:58:39Z</time>
      </trkpt>
      <trkpt lat="44.28995" lon="5.19588">
        <ele>432.2</ele>
        <time>2022-07-18T08:58:40Z</time>
      </trkpt>
      <trkpt lat="44.28995" lon="5.19588">
        <ele>432.2</ele>
        <time>2022-07-18T08:58:41Z</time>
      </trkpt>
      <trkpt lat="44.28995" lon="5.19588">
        <ele>432.2</ele>
        <time>2022-07-18T08:58:42Z</time>
      </trkpt>
      <trkpt lat="44.28995" lon="5.19588">
        <ele>432.2</ele>
        <time>2022-07-18T08:58:43Z</time>
      </trkpt>
      <trkpt lat="44.28995" lon="5.19588">
        <ele>432.2</ele>
        <time>2022-07-18T08:58:44Z</time>
      </trkpt>
      <trkpt lat="44.28995" lon="5.19588">
        <ele>432.2</ele>
        <time>2022-07-18T08:58:45Z</time>
      </trkpt>
      <trkpt lat="44.28995" lon="5.19588">
        <ele>432.2</ele>
        <time>2022-07-18T08:58:46Z</time>
      </trkpt>
      <trkpt lat="44.28995" lon="5.19588">
        <ele>432.2</ele>
        <time>2022-07-18T08:58:47Z</time>
      </trkpt>
      <trkpt lat="44.28995" lon="5.19588">
        <ele>432.2</ele>
        <time>2022-07-18T08:58:48Z</time>
      </trkpt>
      <trkpt lat="44.28995" lon="5.19588">
        <ele>432.2</ele>
        <time>2022-07-18T08:58:49Z</time>
      </trkpt>
      <trkpt lat="44.2899" lon="5.19576">
        <ele>431.1</ele>
        <time>2022-07-18T08:58:58Z</time>
      </trkpt>
      <trkpt lat="44.28986" lon="5.19573">
        <ele>430.6</ele>
        <time>2022-07-18T08:58:59Z</time>
      </trkpt>
      <trkpt lat="44.28982" lon="5.19571">
        <ele>430.2</ele>
        <time>2022-07-18T08:59:00Z</time>
      </trkpt>
      <trkpt lat="44.28971" lon="5.19568">
        <ele>429</ele>
        <time>2022-07-18T08:59:01Z</time>
      </trkpt>
      <trkpt lat="44.28964" lon="5.19566">
        <ele>428.3</ele>
        <time>2022-07-18T08:59:02Z</time>
      </trkpt>
      <trkpt lat="44.28962" lon="5.19561">
        <ele>427.9</ele>
        <time>2022-07-18T08:59:03Z</time>
      </trkpt>
      <trkpt lat="44.28955" lon="5.19556">
        <ele>427.1</ele>
        <time>2022-07-18T08:59:04Z</time>
      </trkpt>
      <trkpt lat="44.28949" lon="5.19551">
        <ele>426.5</ele>
        <time>2022-07-18T08:59:05Z</time>
      </trkpt>
      <trkpt lat="44.28945" lon="5.19544">
        <ele>425.9</ele>
        <time>2022-07-18T08:59:06Z</time>
      </trkpt>
      <trkpt lat="44.28942" lon="5.19536">
        <ele>425.4</ele>
        <time>2022-07-18T08:59:07Z</time>
      </trkpt>
      <trkpt lat="44.28944" lon="5.19527">
        <ele>424.8</ele>
        <time>2022-07-18T08:59:08Z</time>
      </trkpt>
      <trkpt lat="44.28945" lon="5.19519">
        <ele>424.3</ele>
        <time>2022-07-18T08:59:09Z</time>
      </trkpt>
      <trkpt lat="44.28945" lon="5.1951">
        <ele>423.7</ele>
        <time>2022-07-18T08:59:10Z</time>
      </trkpt>
      <trkpt lat="44.28939" lon="5.19502">
        <ele>423</ele>
        <time>2022-07-18T08:59:11Z</time>
      </trkpt>
      <trkpt lat="44.28936" lon="5.19496">
        <ele>422.4</ele>
        <time>2022-07-18T08:59:12Z</time>
      </trkpt>
      <trkpt lat="44.2893" lon="5.19492">
        <ele>421.7</ele>
        <time>2022-07-18T08:59:13Z</time>
      </trkpt>
      <trkpt lat="44.28927" lon="5.19488">
        <ele>421.3</ele>
        <time>2022-07-18T08:59:14Z</time>
      </trkpt>
      <trkpt lat="44.2892" lon="5.19482">
        <ele>420.4</ele>
        <time>2022-07-18T08:59:15Z</time>
      </trkpt>
      <trkpt lat="44.28914" lon="5.19483">
        <ele>419.8</ele>
        <time>2022-07-18T08:59:16Z</time>
      </trkpt>
      <trkpt lat="44.28906" lon="5.19473">
        <ele>418.5</ele>
        <time>2022-07-18T08:59:17Z</time>
      </trkpt>
      <trkpt lat="44.28899" lon="5.19467">
        <ele>417.6</ele>
        <time>2022-07-18T08:59:18Z</time>
      </trkpt>
      <trkpt lat="44.28897" lon="5.1946">
        <ele>417.1</ele>
        <time>2022-07-18T08:59:19Z</time>
      </trkpt>
      <trkpt lat="44.28891" lon="5.19454">
        <ele>416.3</ele>
        <time>2022-07-18T08:59:20Z</time>
      </trkpt>
      <trkpt lat="44.28889" lon="5.19448">
        <ele>415.8</ele>
        <time>2022-07-18T08:59:21Z</time>
      </trkpt>
      <trkpt lat="44.28888" lon="5.19439">
        <ele>415.2</ele>
        <time>2022-07-18T08:59:22Z</time>
      </trkpt>
      <trkpt lat="44.28888" lon="5.19431">
        <ele>414.6</ele>
        <time>2022-07-18T08:59:23Z</time>
      </trkpt>
      <trkpt lat="44.28888" lon="5.1942">
        <ele>413.7</ele>
        <time>2022-07-18T08:59:24Z</time>
      </trkpt>
      <trkpt lat="44.28885" lon="5.1941">
        <ele>413</ele>
        <time>2022-07-18T08:59:25Z</time>
      </trkpt>
      <trkpt lat="44.2888" lon="5.19398">
        <ele>412.1</ele>
        <time>2022-07-18T08:59:26Z</time>
      </trkpt>
      <trkpt lat="44.28879" lon="5.19388">
        <ele>411.4</ele>
        <time>2022-07-18T08:59:27Z</time>
      </trkpt>
      <trkpt lat="44.28881" lon="5.1938">
        <ele>410.9</ele>
        <time>2022-07-18T08:59:28Z</time>
      </trkpt>
      <trkpt lat="44.28885" lon="5.1937">
        <ele>410.2</ele>
        <time>2022-07-18T08:59:29Z</time>
      </trkpt>
      <trkpt lat="44.28887" lon="5.19362">
        <ele>409.8</ele>
        <time>2022-07-18T08:59:30Z</time>
      </trkpt>
      <trkpt lat="44.28894" lon="5.19351">
        <ele>409.2</ele>
        <time>2022-07-18T08:59:31Z</time>
      </trkpt>
      <trkpt lat="44.28898" lon="5.19342">
        <ele>408.7</ele>
        <time>2022-07-18T08:59:32Z</time>
      </trkpt>
      <trkpt lat="44.28903" lon="5.19333">
        <ele>408.2</ele>
        <time>2022-07-18T08:59:33Z</time>
      </trkpt>
      <trkpt lat="44.2891" lon="5.19324">
        <ele>407.5</ele>
        <time>2022-07-18T08:59:34Z</time>
      </trkpt>
      <trkpt lat="44.28915" lon="5.19315">
        <ele>406.9</ele>
        <time>2022-07-18T08:59:35Z</time>
      </trkpt>
      <trkpt lat="44.28917" lon="5.19306">
        <ele>406.3</ele>
        <time>2022-07-18T08:59:36Z</time>
      </trkpt>
      <trkpt lat="44.2892" lon="5.19299">
        <ele>405.7</ele>
        <time>2022-07-18T08:59:37Z</time>
      </trkpt>
      <trkpt lat="44.28927" lon="5.19287">
        <ele>404.8</ele>
        <time>2022-07-18T08:59:38Z</time>
      </trkpt>
      <trkpt lat="44.28933" lon="5.19279">
        <ele>404.1</ele>
        <time>2022-07-18T08:59:39Z</time>
      </trkpt>
      <trkpt lat="44.28936" lon="5.19269">
        <ele>403.4</ele>
        <time>2022-07-18T08:59:40Z</time>
      </trkpt>
      <trkpt lat="44.28942" lon="5.19262">
        <ele>402.6</ele>
        <time>2022-07-18T08:59:41Z</time>
      </trkpt>
      <trkpt lat="44.2895" lon="5.19259">
        <ele>401.9</ele>
        <time>2022-07-18T08:59:42Z</time>
      </trkpt>
      <trkpt lat="44.28954" lon="5.19255">
        <ele>401.3</ele>
        <time>2022-07-18T08:59:43Z</time>
      </trkpt>
      <trkpt lat="44.28957" lon="5.19253">
        <ele>401</ele>
        <time>2022-07-18T08:59:44Z</time>
      </trkpt>
      <trkpt lat="44.28959" lon="5.19249">
        <ele>400.7</ele>
        <time>2022-07-18T08:59:45Z</time>
      </trkpt>
      <trkpt lat="44.2896" lon="5.19245">
        <ele>400.3</ele>
        <time>2022-07-18T08:59:46Z</time>
      </trkpt>
      <trkpt lat="44.28963" lon="5.19246">
        <ele>400</ele>
        <time>2022-07-18T08:59:47Z</time>
      </trkpt>
      <trkpt lat="44.28964" lon="5.19246">
        <ele>399.9</ele>
        <time>2022-07-18T08:59:48Z</time>
      </trkpt>
      <trkpt lat="44.28968" lon="5.19245">
        <ele>399.5</ele>
        <time>2022-07-18T08:59:49Z</time>
      </trkpt>
      <trkpt lat="44.28972" lon="5.19241">
        <ele>399.1</ele>
        <time>2022-07-18T08:59:50Z</time>
      </trkpt>
      <trkpt lat="44.28976" lon="5.19239">
        <ele>398.7</ele>
        <time>2022-07-18T08:59:51Z</time>
      </trkpt>
      <trkpt lat="44.28979" lon="5.19224">
        <ele>397.6</ele>
        <time>2022-07-18T08:59:52Z</time>
      </trkpt>
      <trkpt lat="44.28986" lon="5.19221">
        <ele>396.9</ele>
        <time>2022-07-18T08:59:53Z</time>
      </trkpt>
      <trkpt lat="44.28992" lon="5.19217">
        <ele>396.5</ele>
        <time>2022-07-18T08:59:54Z</time>
      </trkpt>
      <trkpt lat="44.28997" lon="5.19211">
        <ele>396.5</ele>
        <time>2022-07-18T08:59:55Z</time>
      </trkpt>
      <trkpt lat="44.29002" lon="5.19206">
        <ele>396.5</ele>
        <time>2022-07-18T08:59:56Z</time>
      </trkpt>
      <trkpt lat="44.29006" lon="5.19202">
        <ele>396.6</ele>
        <time>2022-07-18T08:59:57Z</time>
      </trkpt>
      <trkpt lat="44.2901" lon="5.19198">
        <ele>396.7</ele>
        <time>2022-07-18T08:59:58Z</time>
      </trkpt>
      <trkpt lat="44.29015" lon="5.19194">
        <ele>396.7</ele>
        <time>2022-07-18T08:59:59Z</time>
      </trkpt>
      <trkpt lat="44.2902" lon="5.1919">
        <ele>396.8</ele>
        <time>2022-07-18T09:00:00Z</time>
      </trkpt>
      <trkpt lat="44.29025" lon="5.19186">
        <ele>396.9</ele>
        <time>2022-07-18T09:00:01Z</time>
      </trkpt>
      <trkpt lat="44.29029" lon="5.1918">
        <ele>397</ele>
        <time>2022-07-18T09:00:02Z</time>
      </trkpt>
      <trkpt lat="44.29032" lon="5.19176">
        <ele>397</ele>
        <time>2022-07-18T09:00:03Z</time>
      </trkpt>
      <trkpt lat="44.29037" lon="5.1917">
        <ele>397.2</ele>
        <time>2022-07-18T09:00:04Z</time>
      </trkpt>
      <trkpt lat="44.29041" lon="5.19165">
        <ele>397.3</ele>
        <time>2022-07-18T09:00:05Z</time>
      </trkpt>
      <trkpt lat="44.29046" lon="5.19161">
        <ele>397.4</ele>
        <time>2022-07-18T09:00:06Z</time>
      </trkpt>
      <trkpt lat="44.29051" lon="5.19157">
        <ele>397.5</ele>
        <time>2022-07-18T09:00:07Z</time>
      </trkpt>
      <trkpt lat="44.29055" lon="5.19153">
        <ele>397.6</ele>
        <time>2022-07-18T09:00:08Z</time>
      </trkpt>
      <trkpt lat="44.29059" lon="5.19149">
        <ele>397.7</ele>
        <time>2022-07-18T09:00:09Z</time>
      </trkpt>
      <trkpt lat="44.29063" lon="5.19145">
        <ele>397.9</ele>
        <time>2022-07-18T09:00:10Z</time>
      </trkpt>
      <trkpt lat="44.29067" lon="5.19142">
        <ele>398</ele>
        <time>2022-07-18T09:00:11Z</time>
      </trkpt>
      <trkpt lat="44.29071" lon="5.19138">
        <ele>398.1</ele>
        <time>2022-07-18T09:00:12Z</time>
      </trkpt>
      <trkpt lat="44.29076" lon="5.19134">
        <ele>398.3</ele>
        <time>2022-07-18T09:00:13Z</time>
      </trkpt>
      <trkpt lat="44.2908" lon="5.1913">
        <ele>398.5</ele>
        <time>2022-07-18T09:00:14Z</time>
      </trkpt>
      <trkpt lat="44.29083" lon="5.19127">
        <ele>398.6</ele>
        <time>2022-07-18T09:00:15Z</time>
      </trkpt>
      <trkpt lat="44.29086" lon="5.19124">
        <ele>398.8</ele>
        <time>2022-07-18T09:00:16Z</time>
      </trkpt>
      <trkpt lat="44.29089" lon="5.19121">
        <ele>398.9</ele>
        <time>2022-07-18T09:00:17Z</time>
      </trkpt>
      <trkpt lat="44.29092" lon="5.19119">
        <ele>399</ele>
        <time>2022-07-18T09:00:18Z</time>
      </trkpt>
      <trkpt lat="44.29096" lon="5.19115">
        <ele>399.3</ele>
        <time>2022-07-18T09:00:19Z</time>
      </trkpt>
      <trkpt lat="44.29099" lon="5.19112">
        <ele>399.4</ele>
        <time>2022-07-18T09:00:20Z</time>
      </trkpt>
      <trkpt lat="44.29102" lon="5.1911">
        <ele>399.6</ele>
        <time>2022-07-18T09:00:21Z</time>
      </trkpt>
      <trkpt lat="44.29107" lon="5.19109">
        <ele>399.8</ele>
        <time>2022-07-18T09:00:22Z</time>
      </trkpt>
      <trkpt lat="44.29108" lon="5.19109">
        <ele>399.8</ele>
        <time>2022-07-18T09:00:23Z</time>
      </trkpt>
      <trkpt lat="44.29111" lon="5.19107">
        <ele>400</ele>
        <time>2022-07-18T09:00:24Z</time>
      </trkpt>
      <trkpt lat="44.29115" lon="5.19105">
        <ele>400.2</ele>
        <time>2022-07-18T09:00:25Z</time>
      </trkpt>
      <trkpt lat="44.29119" lon="5.19103">
        <ele>400.3</ele>
        <time>2022-07-18T09:00:26Z</time>
      </trkpt>
      <trkpt lat="44.29122" lon="5.19102">
        <ele>400.5</ele>
        <time>2022-07-18T09:00:27Z</time>
      </trkpt>
      <trkpt lat="44.29126" lon="5.19101">
        <ele>400.7</ele>
        <time>2022-07-18T09:00:28Z</time>
      </trkpt>
      <trkpt lat="44.29129" lon="5.19099">
        <ele>400.9</ele>
        <time>2022-07-18T09:00:29Z</time>
      </trkpt>
      <trkpt lat="44.29133" lon="5.19099">
        <ele>401.1</ele>
        <time>2022-07-18T09:00:30Z</time>
      </trkpt>
      <trkpt lat="44.29136" lon="5.19098">
        <ele>401.3</ele>
        <time>2022-07-18T09:00:31Z</time>
      </trkpt>
      <trkpt lat="44.2914" lon="5.19098">
        <ele>401.5</ele>
        <time>2022-07-18T09:00:32Z</time>
      </trkpt>
      <trkpt lat="44.29143" lon="5.19098">
        <ele>401.7</ele>
        <time>2022-07-18T09:00:33Z</time>
      </trkpt>
      <trkpt lat="44.29147" lon="5.19097">
        <ele>401.8</ele>
        <time>2022-07-18T09:00:34Z</time>
      </trkpt>
      <trkpt lat="44.2915" lon="5.19097">
        <ele>402</ele>
        <time>2022-07-18T09:00:35Z</time>
      </trkpt>
      <trkpt lat="44.29153" lon="5.19097">
        <ele>402.2</ele>
        <time>2022-07-18T09:00:36Z</time>
      </trkpt>
      <trkpt lat="44.29157" lon="5.19097">
        <ele>402.4</ele>
        <time>2022-07-18T09:00:37Z</time>
      </trkpt>
      <trkpt lat="44.2916" lon="5.19097">
        <ele>402.5</ele>
        <time>2022-07-18T09:00:38Z</time>
      </trkpt>
      <trkpt lat="44.29163" lon="5.19097">
        <ele>402.7</ele>
        <time>2022-07-18T09:00:39Z</time>
      </trkpt>
      <trkpt lat="44.29166" lon="5.19098">
        <ele>402.9</ele>
        <time>2022-07-18T09:00:40Z</time>
      </trkpt>
      <trkpt lat="44.2917" lon="5.191">
        <ele>403</ele>
        <time>2022-07-18T09:00:41Z</time>
      </trkpt>
      <trkpt lat="44.29173" lon="5.19101">
        <ele>403.2</ele>
        <time>2022-07-18T09:00:42Z</time>
      </trkpt>
      <trkpt lat="44.29176" lon="5.19102">
        <ele>403.3</ele>
        <time>2022-07-18T09:00:43Z</time>
      </trkpt>
      <trkpt lat="44.2918" lon="5.19103">
        <ele>403.4</ele>
        <time>2022-07-18T09:00:44Z</time>
      </trkpt>
      <trkpt lat="44.29183" lon="5.19105">
        <ele>403.6</ele>
        <time>2022-07-18T09:00:45Z</time>
      </trkpt>
      <trkpt lat="44.29186" lon="5.19107">
        <ele>403.7</ele>
        <time>2022-07-18T09:00:46Z</time>
      </trkpt>
      <trkpt lat="44.29189" lon="5.19109">
        <ele>403.8</ele>
        <time>2022-07-18T09:00:47Z</time>
      </trkpt>
      <trkpt lat="44.29191" lon="5.19111">
        <ele>403.9</ele>
        <time>2022-07-18T09:00:48Z</time>
      </trkpt>
      <trkpt lat="44.29194" lon="5.19114">
        <ele>404</ele>
        <time>2022-07-18T09:00:49Z</time>
      </trkpt>
      <trkpt lat="44.29196" lon="5.19116">
        <ele>404.1</ele>
        <time>2022-07-18T09:00:50Z</time>
      </trkpt>
      <trkpt lat="44.29199" lon="5.19118">
        <ele>404.2</ele>
        <time>2022-07-18T09:00:51Z</time>
      </trkpt>
      <trkpt lat="44.29202" lon="5.1912">
        <ele>404.3</ele>
        <time>2022-07-18T09:00:52Z</time>
      </trkpt>
      <trkpt lat="44.29205" lon="5.19122">
        <ele>404.4</ele>
        <time>2022-07-18T09:00:53Z</time>
      </trkpt>
      <trkpt lat="44.29209" lon="5.19124">
        <ele>404.5</ele>
        <time>2022-07-18T09:00:54Z</time>
      </trkpt>
      <trkpt lat="44.29212" lon="5.19126">
        <ele>404.5</ele>
        <time>2022-07-18T09:00:55Z</time>
      </trkpt>
      <trkpt lat="44.29215" lon="5.19128">
        <ele>404.6</ele>
        <time>2022-07-18T09:00:56Z</time>
      </trkpt>
      <trkpt lat="44.29218" lon="5.1913">
        <ele>404.7</ele>
        <time>2022-07-18T09:00:57Z</time>
      </trkpt>
      <trkpt lat="44.29222" lon="5.19132">
        <ele>404.8</ele>
        <time>2022-07-18T09:00:58Z</time>
      </trkpt>
      <trkpt lat="44.29225" lon="5.19134">
        <ele>404.8</ele>
        <time>2022-07-18T09:00:59Z</time>
      </trkpt>
      <trkpt lat="44.29228" lon="5.19136">
        <ele>404.9</ele>
        <time>2022-07-18T09:01:00Z</time>
      </trkpt>
      <trkpt lat="44.29232" lon="5.19137">
        <ele>405</ele>
        <time>2022-07-18T09:01:01Z</time>
      </trkpt>
      <trkpt lat="44.29235" lon="5.19139">
        <ele>405.1</ele>
        <time>2022-07-18T09:01:02Z</time>
      </trkpt>
      <trkpt lat="44.29238" lon="5.1914">
        <ele>405.2</ele>
        <time>2022-07-18T09:01:03Z</time>
      </trkpt>
      <trkpt lat="44.29241" lon="5.1914">
        <ele>405.2</ele>
        <time>2022-07-18T09:01:04Z</time>
      </trkpt>
      <trkpt lat="44.29245" lon="5.19141">
        <ele>405.4</ele>
        <time>2022-07-18T09:01:05Z</time>
      </trkpt>
      <trkpt lat="44.29248" lon="5.19141">
        <ele>405.5</ele>
        <time>2022-07-18T09:01:06Z</time>
      </trkpt>
      <trkpt lat="44.29251" lon="5.19141">
        <ele>405.6</ele>
        <time>2022-07-18T09:01:07Z</time>
      </trkpt>
      <trkpt lat="44.29254" lon="5.19141">
        <ele>405.6</ele>
        <time>2022-07-18T09:01:08Z</time>
      </trkpt>
      <trkpt lat="44.29257" lon="5.19141">
        <ele>405.7</ele>
        <time>2022-07-18T09:01:09Z</time>
      </trkpt>
      <trkpt lat="44.29261" lon="5.19141">
        <ele>405.8</ele>
        <time>2022-07-18T09:01:10Z</time>
      </trkpt>
      <trkpt lat="44.29264" lon="5.19141">
        <ele>405.9</ele>
        <time>2022-07-18T09:01:11Z</time>
      </trkpt>
      <trkpt lat="44.29267" lon="5.1914">
        <ele>406</ele>
        <time>2022-07-18T09:01:12Z</time>
      </trkpt>
      <trkpt lat="44.2927" lon="5.19139">
        <ele>406.1</ele>
        <time>2022-07-18T09:01:13Z</time>
      </trkpt>
      <trkpt lat="44.29273" lon="5.19138">
        <ele>406.1</ele>
        <time>2022-07-18T09:01:14Z</time>
      </trkpt>
      <trkpt lat="44.29276" lon="5.19137">
        <ele>406.2</ele>
        <time>2022-07-18T09:01:15Z</time>
      </trkpt>
      <trkpt lat="44.29278" lon="5.19136">
        <ele>406.3</ele>
        <time>2022-07-18T09:01:16Z</time>
      </trkpt>
      <trkpt lat="44.29282" lon="5.19134">
        <ele>406.4</ele>
        <time>2022-07-18T09:01:17Z</time>
      </trkpt>
      <trkpt lat="44.29283" lon="5.19133">
        <ele>406.4</ele>
        <time>2022-07-18T09:01:18Z</time>
      </trkpt>
      <trkpt lat="44.29286" lon="5.19131">
        <ele>406.5</ele>
        <time>2022-07-18T09:01:19Z</time>
      </trkpt>
      <trkpt lat="44.29288" lon="5.1913">
        <ele>406.5</ele>
        <time>2022-07-18T09:01:20Z</time>
      </trkpt>
      <trkpt lat="44.29291" lon="5.19129">
        <ele>406.6</ele>
        <time>2022-07-18T09:01:21Z</time>
      </trkpt>
      <trkpt lat="44.29295" lon="5.19127">
        <ele>406.6</ele>
        <time>2022-07-18T09:01:22Z</time>
      </trkpt>
      <trkpt lat="44.29299" lon="5.19125">
        <ele>406.7</ele>
        <time>2022-07-18T09:01:23Z</time>
      </trkpt>
      <trkpt lat="44.29302" lon="5.19123">
        <ele>406.7</ele>
        <time>2022-07-18T09:01:24Z</time>
      </trkpt>
      <trkpt lat="44.29305" lon="5.1912">
        <ele>406.8</ele>
        <time>2022-07-18T09:01:25Z</time>
      </trkpt>
      <trkpt lat="44.29309" lon="5.19118">
        <ele>406.8</ele>
        <time>2022-07-18T09:01:26Z</time>
      </trkpt>
      <trkpt lat="44.29312" lon="5.19115">
        <ele>406.9</ele>
        <time>2022-07-18T09:01:27Z</time>
      </trkpt>
      <trkpt lat="44.29315" lon="5.19113">
        <ele>406.9</ele>
        <time>2022-07-18T09:01:28Z</time>
      </trkpt>
      <trkpt lat="44.29318" lon="5.19109">
        <ele>407</ele>
        <time>2022-07-18T09:01:29Z</time>
      </trkpt>
      <trkpt lat="44.29322" lon="5.19105">
        <ele>407</ele>
        <time>2022-07-18T09:01:30Z</time>
      </trkpt>
      <trkpt lat="44.29325" lon="5.19101">
        <ele>407</ele>
        <time>2022-07-18T09:01:31Z</time>
      </trkpt>
      <trkpt lat="44.29327" lon="5.19097">
        <ele>407.1</ele>
        <time>2022-07-18T09:01:32Z</time>
      </trkpt>
      <trkpt lat="44.29329" lon="5.19094">
        <ele>407.1</ele>
        <time>2022-07-18T09:01:33Z</time>
      </trkpt>
      <trkpt lat="44.29331" lon="5.1909">
        <ele>407.2</ele>
        <time>2022-07-18T09:01:34Z</time>
      </trkpt>
      <trkpt lat="44.29334" lon="5.19087">
        <ele>407.2</ele>
        <time>2022-07-18T09:01:35Z</time>
      </trkpt>
      <trkpt lat="44.29336" lon="5.19083">
        <ele>407.2</ele>
        <time>2022-07-18T09:01:36Z</time>
      </trkpt>
      <trkpt lat="44.29337" lon="5.19082">
        <ele>407.3</ele>
        <time>2022-07-18T09:01:37Z</time>
      </trkpt>
      <trkpt lat="44.2934" lon="5.1908">
        <ele>407.3</ele>
        <time>2022-07-18T09:01:38Z</time>
      </trkpt>
      <trkpt lat="44.29343" lon="5.19078">
        <ele>407.3</ele>
        <time>2022-07-18T09:01:39Z</time>
      </trkpt>
      <trkpt lat="44.29346" lon="5.19076">
        <ele>407.4</ele>
        <time>2022-07-18T09:01:40Z</time>
      </trkpt>
      <trkpt lat="44.29349" lon="5.19073">
        <ele>407.4</ele>
        <time>2022-07-18T09:01:41Z</time>
      </trkpt>
      <trkpt lat="44.29352" lon="5.19071">
        <ele>407.5</ele>
        <time>2022-07-18T09:01:42Z</time>
      </trkpt>
      <trkpt lat="44.29356" lon="5.19069">
        <ele>407.5</ele>
        <time>2022-07-18T09:01:43Z</time>
      </trkpt>
      <trkpt lat="44.29359" lon="5.19066">
        <ele>407.6</ele>
        <time>2022-07-18T09:01:44Z</time>
      </trkpt>
      <trkpt lat="44.29361" lon="5.19064">
        <ele>407.7</ele>
        <time>2022-07-18T09:01:45Z</time>
      </trkpt>
      <trkpt lat="44.29364" lon="5.19062">
        <ele>407.8</ele>
        <time>2022-07-18T09:01:46Z</time>
      </trkpt>
      <trkpt lat="44.29367" lon="5.19059">
        <ele>407.8</ele>
        <time>2022-07-18T09:01:47Z</time>
      </trkpt>
      <trkpt lat="44.2937" lon="5.19057">
        <ele>407.9</ele>
        <time>2022-07-18T09:01:48Z</time>
      </trkpt>
      <trkpt lat="44.29373" lon="5.19053">
        <ele>408</ele>
        <time>2022-07-18T09:01:49Z</time>
      </trkpt>
      <trkpt lat="44.29376" lon="5.1905">
        <ele>408.1</ele>
        <time>2022-07-18T09:01:50Z</time>
      </trkpt>
      <trkpt lat="44.29379" lon="5.19048">
        <ele>408.1</ele>
        <time>2022-07-18T09:01:51Z</time>
      </trkpt>
      <trkpt lat="44.29382" lon="5.19045">
        <ele>408.2</ele>
        <time>2022-07-18T09:01:52Z</time>
      </trkpt>
      <trkpt lat="44.29386" lon="5.19042">
        <ele>408.3</ele>
        <time>2022-07-18T09:01:53Z</time>
      </trkpt>
      <trkpt lat="44.2939" lon="5.19039">
        <ele>408.4</ele>
        <time>2022-07-18T09:01:54Z</time>
      </trkpt>
      <trkpt lat="44.29393" lon="5.19037">
        <ele>408.5</ele>
        <time>2022-07-18T09:01:55Z</time>
      </trkpt>
      <trkpt lat="44.29397" lon="5.19035">
        <ele>408.6</ele>
        <time>2022-07-18T09:01:56Z</time>
      </trkpt>
      <trkpt lat="44.294" lon="5.19033">
        <ele>408.6</ele>
        <time>2022-07-18T09:01:57Z</time>
      </trkpt>
      <trkpt lat="44.29404" lon="5.19031">
        <ele>408.7</ele>
        <time>2022-07-18T09:01:58Z</time>
      </trkpt>
      <trkpt lat="44.29408" lon="5.1903">
        <ele>408.8</ele>
        <time>2022-07-18T09:01:59Z</time>
      </trkpt>
      <trkpt lat="44.29412" lon="5.19028">
        <ele>408.9</ele>
        <time>2022-07-18T09:02:00Z</time>
      </trkpt>
      <trkpt lat="44.29416" lon="5.19027">
        <ele>409</ele>
        <time>2022-07-18T09:02:01Z</time>
      </trkpt>
      <trkpt lat="44.2942" lon="5.19026">
        <ele>409</ele>
        <time>2022-07-18T09:02:02Z</time>
      </trkpt>
      <trkpt lat="44.29423" lon="5.19025">
        <ele>409.1</ele>
        <time>2022-07-18T09:02:03Z</time>
      </trkpt>
      <trkpt lat="44.29426" lon="5.19024">
        <ele>409.1</ele>
        <time>2022-07-18T09:02:04Z</time>
      </trkpt>
      <trkpt lat="44.2943" lon="5.19024">
        <ele>409.2</ele>
        <time>2022-07-18T09:02:05Z</time>
      </trkpt>
      <trkpt lat="44.29433" lon="5.19023">
        <ele>409.3</ele>
        <time>2022-07-18T09:02:06Z</time>
      </trkpt>
      <trkpt lat="44.29436" lon="5.19022">
        <ele>409.4</ele>
        <time>2022-07-18T09:02:07Z</time>
      </trkpt>
      <trkpt lat="44.2944" lon="5.19021">
        <ele>409.5</ele>
        <time>2022-07-18T09:02:08Z</time>
      </trkpt>
      <trkpt lat="44.29443" lon="5.19019">
        <ele>409.6</ele>
        <time>2022-07-18T09:02:09Z</time>
      </trkpt>
      <trkpt lat="44.29447" lon="5.19018">
        <ele>409.7</ele>
        <time>2022-07-18T09:02:10Z</time>
      </trkpt>
      <trkpt lat="44.2945" lon="5.19017">
        <ele>409.8</ele>
        <time>2022-07-18T09:02:11Z</time>
      </trkpt>
      <trkpt lat="44.29454" lon="5.19016">
        <ele>409.9</ele>
        <time>2022-07-18T09:02:12Z</time>
      </trkpt>
      <trkpt lat="44.29457" lon="5.19015">
        <ele>410</ele>
        <time>2022-07-18T09:02:13Z</time>
      </trkpt>
      <trkpt lat="44.2946" lon="5.19014">
        <ele>410.2</ele>
        <time>2022-07-18T09:02:14Z</time>
      </trkpt>
      <trkpt lat="44.29464" lon="5.19014">
        <ele>410.3</ele>
        <time>2022-07-18T09:02:15Z</time>
      </trkpt>
      <trkpt lat="44.29467" lon="5.19013">
        <ele>410.4</ele>
        <time>2022-07-18T09:02:16Z</time>
      </trkpt>
      <trkpt lat="44.29471" lon="5.19012">
        <ele>410.6</ele>
        <time>2022-07-18T09:02:17Z</time>
      </trkpt>
      <trkpt lat="44.29473" lon="5.19011">
        <ele>410.7</ele>
        <time>2022-07-18T09:02:18Z</time>
      </trkpt>
      <trkpt lat="44.29477" lon="5.19011">
        <ele>410.9</ele>
        <time>2022-07-18T09:02:19Z</time>
      </trkpt>
      <trkpt lat="44.29479" lon="5.19011">
        <ele>410.9</ele>
        <time>2022-07-18T09:02:20Z</time>
      </trkpt>
      <trkpt lat="44.29482" lon="5.1901">
        <ele>411</ele>
        <time>2022-07-18T09:02:21Z</time>
      </trkpt>
      <trkpt lat="44.29485" lon="5.1901">
        <ele>411.2</ele>
        <time>2022-07-18T09:02:22Z</time>
      </trkpt>
      <trkpt lat="44.29488" lon="5.19009">
        <ele>411.3</ele>
        <time>2022-07-18T09:02:23Z</time>
      </trkpt>
      <trkpt lat="44.29492" lon="5.19008">
        <ele>411.4</ele>
        <time>2022-07-18T09:02:24Z</time>
      </trkpt>
      <trkpt lat="44.29495" lon="5.19008">
        <ele>411.6</ele>
        <time>2022-07-18T09:02:25Z</time>
      </trkpt>
      <trkpt lat="44.29499" lon="5.19008">
        <ele>411.7</ele>
        <time>2022-07-18T09:02:26Z</time>
      </trkpt>
      <trkpt lat="44.29502" lon="5.19008">
        <ele>411.9</ele>
        <time>2022-07-18T09:02:27Z</time>
      </trkpt>
      <trkpt lat="44.29506" lon="5.19008">
        <ele>412</ele>
        <time>2022-07-18T09:02:28Z</time>
      </trkpt>
      <trkpt lat="44.29507" lon="5.19008">
        <ele>412.1</ele>
        <time>2022-07-18T09:02:29Z</time>
      </trkpt>
      <trkpt lat="44.2951" lon="5.19008">
        <ele>412.2</ele>
        <time>2022-07-18T09:02:30Z</time>
      </trkpt>
      <trkpt lat="44.29513" lon="5.19007">
        <ele>412.3</ele>
        <time>2022-07-18T09:02:31Z</time>
      </trkpt>
      <trkpt lat="44.29517" lon="5.19007">
        <ele>412.5</ele>
        <time>2022-07-18T09:02:32Z</time>
      </trkpt>
      <trkpt lat="44.2952" lon="5.19007">
        <ele>412.6</ele>
        <time>2022-07-18T09:02:33Z</time>
      </trkpt>
      <trkpt lat="44.29524" lon="5.19008">
        <ele>412.7</ele>
        <time>2022-07-18T09:02:34Z</time>
      </trkpt>
      <trkpt lat="44.29527" lon="5.19008">
        <ele>412.8</ele>
        <time>2022-07-18T09:02:35Z</time>
      </trkpt>
      <trkpt lat="44.2953" lon="5.19008">
        <ele>412.9</ele>
        <time>2022-07-18T09:02:36Z</time>
      </trkpt>
      <trkpt lat="44.29532" lon="5.19008">
        <ele>413</ele>
        <time>2022-07-18T09:02:37Z</time>
      </trkpt>
      <trkpt lat="44.29534" lon="5.19006">
        <ele>413</ele>
        <time>2022-07-18T09:02:38Z</time>
      </trkpt>
      <trkpt lat="44.29535" lon="5.19006">
        <ele>413.1</ele>
        <time>2022-07-18T09:02:39Z</time>
      </trkpt>
      <trkpt lat="44.29538" lon="5.19003">
        <ele>413.2</ele>
        <time>2022-07-18T09:02:40Z</time>
      </trkpt>
      <trkpt lat="44.29539" lon="5.19003">
        <ele>413.2</ele>
        <time>2022-07-18T09:02:41Z</time>
      </trkpt>
      <trkpt lat="44.29542" lon="5.19001">
        <ele>413.3</ele>
        <time>2022-07-18T09:02:42Z</time>
      </trkpt>
      <trkpt lat="44.29545" lon="5.19001">
        <ele>413.4</ele>
        <time>2022-07-18T09:02:43Z</time>
      </trkpt>
      <trkpt lat="44.29548" lon="5.19002">
        <ele>413.5</ele>
        <time>2022-07-18T09:02:44Z</time>
      </trkpt>
      <trkpt lat="44.29552" lon="5.19002">
        <ele>413.7</ele>
        <time>2022-07-18T09:02:45Z</time>
      </trkpt>
      <trkpt lat="44.29556" lon="5.19002">
        <ele>413.8</ele>
        <time>2022-07-18T09:02:46Z</time>
      </trkpt>
      <trkpt lat="44.2956" lon="5.19001">
        <ele>414</ele>
        <time>2022-07-18T09:02:47Z</time>
      </trkpt>
      <trkpt lat="44.29564" lon="5.19">
        <ele>414.1</ele>
        <time>2022-07-18T09:02:48Z</time>
      </trkpt>
      <trkpt lat="44.29568" lon="5.18998">
        <ele>414.2</ele>
        <time>2022-07-18T09:02:49Z</time>
      </trkpt>
      <trkpt lat="44.29571" lon="5.18996">
        <ele>414.3</ele>
        <time>2022-07-18T09:02:50Z</time>
      </trkpt>
      <trkpt lat="44.29575" lon="5.18994">
        <ele>414.5</ele>
        <time>2022-07-18T09:02:51Z</time>
      </trkpt>
      <trkpt lat="44.29579" lon="5.18992">
        <ele>414.6</ele>
        <time>2022-07-18T09:02:52Z</time>
      </trkpt>
      <trkpt lat="44.29582" lon="5.1899">
        <ele>414.6</ele>
        <time>2022-07-18T09:02:53Z</time>
      </trkpt>
      <trkpt lat="44.29585" lon="5.18989">
        <ele>414.7</ele>
        <time>2022-07-18T09:02:54Z</time>
      </trkpt>
      <trkpt lat="44.29588" lon="5.18989">
        <ele>414.8</ele>
        <time>2022-07-18T09:02:55Z</time>
      </trkpt>
      <trkpt lat="44.2959" lon="5.18988">
        <ele>414.8</ele>
        <time>2022-07-18T09:02:56Z</time>
      </trkpt>
      <trkpt lat="44.29593" lon="5.18988">
        <ele>414.9</ele>
        <time>2022-07-18T09:02:57Z</time>
      </trkpt>
      <trkpt lat="44.29594" lon="5.18988">
        <ele>414.9</ele>
        <time>2022-07-18T09:02:58Z</time>
      </trkpt>
      <trkpt lat="44.29597" lon="5.18988">
        <ele>415</ele>
        <time>2022-07-18T09:02:59Z</time>
      </trkpt>
      <trkpt lat="44.296" lon="5.18987">
        <ele>415</ele>
        <time>2022-07-18T09:03:00Z</time>
      </trkpt>
      <trkpt lat="44.29603" lon="5.18986">
        <ele>415.1</ele>
        <time>2022-07-18T09:03:01Z</time>
      </trkpt>
      <trkpt lat="44.29606" lon="5.18984">
        <ele>415.2</ele>
        <time>2022-07-18T09:03:02Z</time>
      </trkpt>
      <trkpt lat="44.2961" lon="5.18982">
        <ele>415.3</ele>
        <time>2022-07-18T09:03:03Z</time>
      </trkpt>
      <trkpt lat="44.29613" lon="5.18981">
        <ele>415.4</ele>
        <time>2022-07-18T09:03:04Z</time>
      </trkpt>
      <trkpt lat="44.29616" lon="5.18979">
        <ele>415.5</ele>
        <time>2022-07-18T09:03:05Z</time>
      </trkpt>
      <trkpt lat="44.2962" lon="5.18976">
        <ele>415.6</ele>
        <time>2022-07-18T09:03:06Z</time>
      </trkpt>
      <trkpt lat="44.29623" lon="5.18973">
        <ele>415.7</ele>
        <time>2022-07-18T09:03:07Z</time>
      </trkpt>
      <trkpt lat="44.29627" lon="5.18971">
        <ele>415.8</ele>
        <time>2022-07-18T09:03:08Z</time>
      </trkpt>
      <trkpt lat="44.2963" lon="5.18968">
        <ele>416</ele>
        <time>2022-07-18T09:03:09Z</time>
      </trkpt>
      <trkpt lat="44.29633" lon="5.18966">
        <ele>416.1</ele>
        <time>2022-07-18T09:03:10Z</time>
      </trkpt>
      <trkpt lat="44.29636" lon="5.18963">
        <ele>416.2</ele>
        <time>2022-07-18T09:03:11Z</time>
      </trkpt>
      <trkpt lat="44.2964" lon="5.18961">
        <ele>416.4</ele>
        <time>2022-07-18T09:03:12Z</time>
      </trkpt>
      <trkpt lat="44.29643" lon="5.18958">
        <ele>416.5</ele>
        <time>2022-07-18T09:03:13Z</time>
      </trkpt>
      <trkpt lat="44.29646" lon="5.18956">
        <ele>416.6</ele>
        <time>2022-07-18T09:03:14Z</time>
      </trkpt>
      <trkpt lat="44.2965" lon="5.18953">
        <ele>416.8</ele>
        <time>2022-07-18T09:03:15Z</time>
      </trkpt>
      <trkpt lat="44.29653" lon="5.18951">
        <ele>416.9</ele>
        <time>2022-07-18T09:03:16Z</time>
      </trkpt>
      <trkpt lat="44.29657" lon="5.18949">
        <ele>417.1</ele>
        <time>2022-07-18T09:03:17Z</time>
      </trkpt>
      <trkpt lat="44.2966" lon="5.18947">
        <ele>417.2</ele>
        <time>2022-07-18T09:03:18Z</time>
      </trkpt>
      <trkpt lat="44.29664" lon="5.18945">
        <ele>417.3</ele>
        <time>2022-07-18T09:03:19Z</time>
      </trkpt>
      <trkpt lat="44.29667" lon="5.18943">
        <ele>417.4</ele>
        <time>2022-07-18T09:03:20Z</time>
      </trkpt>
      <trkpt lat="44.2967" lon="5.18941">
        <ele>417.6</ele>
        <time>2022-07-18T09:03:21Z</time>
      </trkpt>
      <trkpt lat="44.29673" lon="5.18938">
        <ele>417.7</ele>
        <time>2022-07-18T09:03:22Z</time>
      </trkpt>
      <trkpt lat="44.29676" lon="5.18936">
        <ele>417.8</ele>
        <time>2022-07-18T09:03:23Z</time>
      </trkpt>
      <trkpt lat="44.2968" lon="5.18934">
        <ele>417.9</ele>
        <time>2022-07-18T09:03:24Z</time>
      </trkpt>
      <trkpt lat="44.29683" lon="5.18931">
        <ele>418</ele>
        <time>2022-07-18T09:03:25Z</time>
      </trkpt>
      <trkpt lat="44.29687" lon="5.18928">
        <ele>418.1</ele>
        <time>2022-07-18T09:03:26Z</time>
      </trkpt>
      <trkpt lat="44.2969" lon="5.18925">
        <ele>418.3</ele>
        <time>2022-07-18T09:03:27Z</time>
      </trkpt>
      <trkpt lat="44.29693" lon="5.18923">
        <ele>418.4</ele>
        <time>2022-07-18T09:03:28Z</time>
      </trkpt>
      <trkpt lat="44.29696" lon="5.18921">
        <ele>418.5</ele>
        <time>2022-07-18T09:03:29Z</time>
      </trkpt>
      <trkpt lat="44.297" lon="5.18918">
        <ele>418.6</ele>
        <time>2022-07-18T09:03:30Z</time>
      </trkpt>
      <trkpt lat="44.29703" lon="5.18916">
        <ele>418.7</ele>
        <time>2022-07-18T09:03:31Z</time>
      </trkpt>
      <trkpt lat="44.29707" lon="5.18914">
        <ele>418.9</ele>
        <time>2022-07-18T09:03:32Z</time>
      </trkpt>
      <trkpt lat="44.29708" lon="5.18913">
        <ele>418.9</ele>
        <time>2022-07-18T09:03:33Z</time>
      </trkpt>
      <trkpt lat="44.29711" lon="5.18911">
        <ele>419</ele>
        <time>2022-07-18T09:03:34Z</time>
      </trkpt>
      <trkpt lat="44.29714" lon="5.1891">
        <ele>419.1</ele>
        <time>2022-07-18T09:03:35Z</time>
      </trkpt>
      <trkpt lat="44.29717" lon="5.18908">
        <ele>419.3</ele>
        <time>2022-07-18T09:03:36Z</time>
      </trkpt>
      <trkpt lat="44.29721" lon="5.18906">
        <ele>419.4</ele>
        <time>2022-07-18T09:03:37Z</time>
      </trkpt>
      <trkpt lat="44.29724" lon="5.18904">
        <ele>419.5</ele>
        <time>2022-07-18T09:03:38Z</time>
      </trkpt>
      <trkpt lat="44.29727" lon="5.18902">
        <ele>419.6</ele>
        <time>2022-07-18T09:03:39Z</time>
      </trkpt>
      <trkpt lat="44.2973" lon="5.189">
        <ele>419.7</ele>
        <time>2022-07-18T09:03:40Z</time>
      </trkpt>
      <trkpt lat="44.29734" lon="5.18899">
        <ele>419.9</ele>
        <time>2022-07-18T09:03:41Z</time>
      </trkpt>
      <trkpt lat="44.29735" lon="5.18899">
        <ele>419.9</ele>
        <time>2022-07-18T09:03:42Z</time>
      </trkpt>
      <trkpt lat="44.29738" lon="5.18898">
        <ele>420</ele>
        <time>2022-07-18T09:03:43Z</time>
      </trkpt>
      <trkpt lat="44.2974" lon="5.18899">
        <ele>420.1</ele>
        <time>2022-07-18T09:03:44Z</time>
      </trkpt>
      <trkpt lat="44.29744" lon="5.18902">
        <ele>420.2</ele>
        <time>2022-07-18T09:03:45Z</time>
      </trkpt>
      <trkpt lat="44.29745" lon="5.18903">
        <ele>420.3</ele>
        <time>2022-07-18T09:03:46Z</time>
      </trkpt>
      <trkpt lat="44.29748" lon="5.18905">
        <ele>420.4</ele>
        <time>2022-07-18T09:03:47Z</time>
      </trkpt>
      <trkpt lat="44.29751" lon="5.18907">
        <ele>420.5</ele>
        <time>2022-07-18T09:03:48Z</time>
      </trkpt>
      <trkpt lat="44.29754" lon="5.18908">
        <ele>420.6</ele>
        <time>2022-07-18T09:03:49Z</time>
      </trkpt>
      <trkpt lat="44.29758" lon="5.18909">
        <ele>420.7</ele>
        <time>2022-07-18T09:03:50Z</time>
      </trkpt>
      <trkpt lat="44.29759" lon="5.18909">
        <ele>420.8</ele>
        <time>2022-07-18T09:03:51Z</time>
      </trkpt>
      <trkpt lat="44.29762" lon="5.1891">
        <ele>420.9</ele>
        <time>2022-07-18T09:03:52Z</time>
      </trkpt>
      <trkpt lat="44.29765" lon="5.1891">
        <ele>421</ele>
        <time>2022-07-18T09:03:53Z</time>
      </trkpt>
      <trkpt lat="44.29765" lon="5.18911">
        <ele>421</ele>
        <time>2022-07-18T09:03:54Z</time>
      </trkpt>
      <trkpt lat="44.29769" lon="5.18911">
        <ele>421.1</ele>
        <time>2022-07-18T09:03:55Z</time>
      </trkpt>
      <trkpt lat="44.2977" lon="5.1891">
        <ele>421.2</ele>
        <time>2022-07-18T09:03:56Z</time>
      </trkpt>
      <trkpt lat="44.29774" lon="5.18909">
        <ele>421.3</ele>
        <time>2022-07-18T09:03:57Z</time>
      </trkpt>
      <trkpt lat="44.29777" lon="5.18908">
        <ele>421.5</ele>
        <time>2022-07-18T09:03:58Z</time>
      </trkpt>
      <trkpt lat="44.29779" lon="5.18907">
        <ele>421.6</ele>
        <time>2022-07-18T09:03:59Z</time>
      </trkpt>
      <trkpt lat="44.29782" lon="5.18906">
        <ele>421.8</ele>
        <time>2022-07-18T09:04:00Z</time>
      </trkpt>
      <trkpt lat="44.29785" lon="5.18904">
        <ele>421.8</ele>
        <time>2022-07-18T09:04:01Z</time>
      </trkpt>
      <trkpt lat="44.29789" lon="5.18902">
        <ele>421.9</ele>
        <time>2022-07-18T09:04:02Z</time>
      </trkpt>
      <trkpt lat="44.29792" lon="5.18899">
        <ele>422</ele>
        <time>2022-07-18T09:04:03Z</time>
      </trkpt>
      <trkpt lat="44.29795" lon="5.18898">
        <ele>422.1</ele>
        <time>2022-07-18T09:04:04Z</time>
      </trkpt>
      <trkpt lat="44.29799" lon="5.18896">
        <ele>422.3</ele>
        <time>2022-07-18T09:04:05Z</time>
      </trkpt>
      <trkpt lat="44.298" lon="5.18895">
        <ele>422.3</ele>
        <time>2022-07-18T09:04:06Z</time>
      </trkpt>
      <trkpt lat="44.29803" lon="5.18894">
        <ele>422.4</ele>
        <time>2022-07-18T09:04:07Z</time>
      </trkpt>
      <trkpt lat="44.29806" lon="5.18893">
        <ele>422.5</ele>
        <time>2022-07-18T09:04:08Z</time>
      </trkpt>
      <trkpt lat="44.29808" lon="5.18891">
        <ele>422.7</ele>
        <time>2022-07-18T09:04:09Z</time>
      </trkpt>
      <trkpt lat="44.29812" lon="5.18889">
        <ele>422.8</ele>
        <time>2022-07-18T09:04:10Z</time>
      </trkpt>
      <trkpt lat="44.29813" lon="5.18889">
        <ele>422.9</ele>
        <time>2022-07-18T09:04:11Z</time>
      </trkpt>
      <trkpt lat="44.29817" lon="5.18887">
        <ele>423.1</ele>
        <time>2022-07-18T09:04:12Z</time>
      </trkpt>
      <trkpt lat="44.29818" lon="5.18886">
        <ele>423.1</ele>
        <time>2022-07-18T09:04:13Z</time>
      </trkpt>
      <trkpt lat="44.29821" lon="5.18883">
        <ele>423.3</ele>
        <time>2022-07-18T09:04:14Z</time>
      </trkpt>
      <trkpt lat="44.29822" lon="5.18882">
        <ele>423.4</ele>
        <time>2022-07-18T09:04:15Z</time>
      </trkpt>
      <trkpt lat="44.29825" lon="5.18879">
        <ele>423.6</ele>
        <time>2022-07-18T09:04:16Z</time>
      </trkpt>
      <trkpt lat="44.29826" lon="5.18878">
        <ele>423.6</ele>
        <time>2022-07-18T09:04:17Z</time>
      </trkpt>
      <trkpt lat="44.29829" lon="5.18875">
        <ele>423.8</ele>
        <time>2022-07-18T09:04:18Z</time>
      </trkpt>
      <trkpt lat="44.29831" lon="5.18874">
        <ele>423.9</ele>
        <time>2022-07-18T09:04:19Z</time>
      </trkpt>
      <trkpt lat="44.29833" lon="5.18872">
        <ele>424</ele>
        <time>2022-07-18T09:04:20Z</time>
      </trkpt>
      <trkpt lat="44.29836" lon="5.18869">
        <ele>424.2</ele>
        <time>2022-07-18T09:04:21Z</time>
      </trkpt>
      <trkpt lat="44.29837" lon="5.18868">
        <ele>424.2</ele>
        <time>2022-07-18T09:04:22Z</time>
      </trkpt>
      <trkpt lat="44.29838" lon="5.18864">
        <ele>424.4</ele>
        <time>2022-07-18T09:04:23Z</time>
      </trkpt>
      <trkpt lat="44.29838" lon="5.18862">
        <ele>424.4</ele>
        <time>2022-07-18T09:04:24Z</time>
      </trkpt>
      <trkpt lat="44.29841" lon="5.18858">
        <ele>424.6</ele>
        <time>2022-07-18T09:04:25Z</time>
      </trkpt>
      <trkpt lat="44.29842" lon="5.18857">
        <ele>424.6</ele>
        <time>2022-07-18T09:04:26Z</time>
      </trkpt>
      <trkpt lat="44.29844" lon="5.18854">
        <ele>424.8</ele>
        <time>2022-07-18T09:04:27Z</time>
      </trkpt>
      <trkpt lat="44.29847" lon="5.18852">
        <ele>424.9</ele>
        <time>2022-07-18T09:04:28Z</time>
      </trkpt>
      <trkpt lat="44.2985" lon="5.18849">
        <ele>425</ele>
        <time>2022-07-18T09:04:29Z</time>
      </trkpt>
      <trkpt lat="44.29853" lon="5.18846">
        <ele>425.1</ele>
        <time>2022-07-18T09:04:30Z</time>
      </trkpt>
      <trkpt lat="44.29857" lon="5.18842">
        <ele>425.2</ele>
        <time>2022-07-18T09:04:31Z</time>
      </trkpt>
      <trkpt lat="44.2986" lon="5.18838">
        <ele>425.3</ele>
        <time>2022-07-18T09:04:32Z</time>
      </trkpt>
      <trkpt lat="44.29863" lon="5.18835">
        <ele>425.4</ele>
        <time>2022-07-18T09:04:33Z</time>
      </trkpt>
      <trkpt lat="44.29866" lon="5.18832">
        <ele>425.5</ele>
        <time>2022-07-18T09:04:34Z</time>
      </trkpt>
      <trkpt lat="44.29869" lon="5.1883">
        <ele>425.6</ele>
        <time>2022-07-18T09:04:35Z</time>
      </trkpt>
      <trkpt lat="44.29873" lon="5.18828">
        <ele>425.7</ele>
        <time>2022-07-18T09:04:36Z</time>
      </trkpt>
      <trkpt lat="44.29877" lon="5.18827">
        <ele>425.8</ele>
        <time>2022-07-18T09:04:37Z</time>
      </trkpt>
      <trkpt lat="44.2988" lon="5.18826">
        <ele>425.8</ele>
        <time>2022-07-18T09:04:38Z</time>
      </trkpt>
      <trkpt lat="44.29885" lon="5.18825">
        <ele>425.9</ele>
        <time>2022-07-18T09:04:39Z</time>
      </trkpt>
      <trkpt lat="44.29889" lon="5.18823">
        <ele>425.9</ele>
        <time>2022-07-18T09:04:40Z</time>
      </trkpt>
      <trkpt lat="44.29893" lon="5.18822">
        <ele>426</ele>
        <time>2022-07-18T09:04:41Z</time>
      </trkpt>
      <trkpt lat="44.29897" lon="5.18821">
        <ele>426</ele>
        <time>2022-07-18T09:04:42Z</time>
      </trkpt>
      <trkpt lat="44.29901" lon="5.18819">
        <ele>426</ele>
        <time>2022-07-18T09:04:43Z</time>
      </trkpt>
      <trkpt lat="44.29905" lon="5.18817">
        <ele>426.1</ele>
        <time>2022-07-18T09:04:44Z</time>
      </trkpt>
      <trkpt lat="44.29909" lon="5.18816">
        <ele>426.1</ele>
        <time>2022-07-18T09:04:45Z</time>
      </trkpt>
      <trkpt lat="44.29913" lon="5.18815">
        <ele>426.1</ele>
        <time>2022-07-18T09:04:46Z</time>
      </trkpt>
      <trkpt lat="44.29917" lon="5.18813">
        <ele>426.1</ele>
        <time>2022-07-18T09:04:47Z</time>
      </trkpt>
      <trkpt lat="44.29921" lon="5.18811">
        <ele>426.1</ele>
        <time>2022-07-18T09:04:48Z</time>
      </trkpt>
      <trkpt lat="44.29926" lon="5.1881">
        <ele>426.2</ele>
        <time>2022-07-18T09:04:49Z</time>
      </trkpt>
      <trkpt lat="44.2993" lon="5.18808">
        <ele>426.2</ele>
        <time>2022-07-18T09:04:50Z</time>
      </trkpt>
      <trkpt lat="44.29934" lon="5.18806">
        <ele>426.2</ele>
        <time>2022-07-18T09:04:51Z</time>
      </trkpt>
      <trkpt lat="44.29938" lon="5.18803">
        <ele>426.2</ele>
        <time>2022-07-18T09:04:52Z</time>
      </trkpt>
      <trkpt lat="44.29942" lon="5.18799">
        <ele>426.3</ele>
        <time>2022-07-18T09:04:53Z</time>
      </trkpt>
      <trkpt lat="44.29945" lon="5.18796">
        <ele>426.3</ele>
        <time>2022-07-18T09:04:54Z</time>
      </trkpt>
      <trkpt lat="44.29948" lon="5.18793">
        <ele>426.4</ele>
        <time>2022-07-18T09:04:55Z</time>
      </trkpt>
      <trkpt lat="44.29951" lon="5.1879">
        <ele>426.4</ele>
        <time>2022-07-18T09:04:56Z</time>
      </trkpt>
      <trkpt lat="44.29953" lon="5.18786">
        <ele>426.5</ele>
        <time>2022-07-18T09:04:57Z</time>
      </trkpt>
      <trkpt lat="44.29956" lon="5.18782">
        <ele>426.5</ele>
        <time>2022-07-18T09:04:58Z</time>
      </trkpt>
      <trkpt lat="44.29959" lon="5.18778">
        <ele>426.6</ele>
        <time>2022-07-18T09:04:59Z</time>
      </trkpt>
      <trkpt lat="44.29962" lon="5.18773">
        <ele>426.6</ele>
        <time>2022-07-18T09:05:00Z</time>
      </trkpt>
      <trkpt lat="44.29965" lon="5.18767">
        <ele>426.6</ele>
        <time>2022-07-18T09:05:01Z</time>
      </trkpt>
      <trkpt lat="44.29967" lon="5.18761">
        <ele>426.7</ele>
        <time>2022-07-18T09:05:02Z</time>
      </trkpt>
      <trkpt lat="44.29969" lon="5.18755">
        <ele>426.7</ele>
        <time>2022-07-18T09:05:03Z</time>
      </trkpt>
      <trkpt lat="44.2997" lon="5.18748">
        <ele>426.7</ele>
        <time>2022-07-18T09:05:04Z</time>
      </trkpt>
      <trkpt lat="44.2997" lon="5.18741">
        <ele>426.8</ele>
        <time>2022-07-18T09:05:05Z</time>
      </trkpt>
      <trkpt lat="44.29971" lon="5.18735">
        <ele>426.8</ele>
        <time>2022-07-18T09:05:06Z</time>
      </trkpt>
      <trkpt lat="44.29972" lon="5.18728">
        <ele>426.8</ele>
        <time>2022-07-18T09:05:07Z</time>
      </trkpt>
      <trkpt lat="44.29973" lon="5.18721">
        <ele>426.8</ele>
        <time>2022-07-18T09:05:08Z</time>
      </trkpt>
      <trkpt lat="44.29976" lon="5.18715">
        <ele>426.8</ele>
        <time>2022-07-18T09:05:09Z</time>
      </trkpt>
      <trkpt lat="44.29978" lon="5.18709">
        <ele>426.8</ele>
        <time>2022-07-18T09:05:10Z</time>
      </trkpt>
      <trkpt lat="44.29981" lon="5.18703">
        <ele>426.9</ele>
        <time>2022-07-18T09:05:11Z</time>
      </trkpt>
      <trkpt lat="44.29984" lon="5.18698">
        <ele>426.9</ele>
        <time>2022-07-18T09:05:12Z</time>
      </trkpt>
      <trkpt lat="44.29987" lon="5.18693">
        <ele>427</ele>
        <time>2022-07-18T09:05:13Z</time>
      </trkpt>
      <trkpt lat="44.2999" lon="5.18688">
        <ele>427.1</ele>
        <time>2022-07-18T09:05:14Z</time>
      </trkpt>
      <trkpt lat="44.29992" lon="5.18683">
        <ele>427.2</ele>
        <time>2022-07-18T09:05:15Z</time>
      </trkpt>
      <trkpt lat="44.29994" lon="5.18678">
        <ele>427.2</ele>
        <time>2022-07-18T09:05:16Z</time>
      </trkpt>
      <trkpt lat="44.29995" lon="5.18673">
        <ele>427.4</ele>
        <time>2022-07-18T09:05:17Z</time>
      </trkpt>
      <trkpt lat="44.29996" lon="5.18668">
        <ele>427.5</ele>
        <time>2022-07-18T09:05:18Z</time>
      </trkpt>
      <trkpt lat="44.29996" lon="5.18663">
        <ele>427.6</ele>
        <time>2022-07-18T09:05:19Z</time>
      </trkpt>
      <trkpt lat="44.29996" lon="5.18658">
        <ele>427.7</ele>
        <time>2022-07-18T09:05:20Z</time>
      </trkpt>
      <trkpt lat="44.29996" lon="5.18653">
        <ele>427.9</ele>
        <time>2022-07-18T09:05:21Z</time>
      </trkpt>
      <trkpt lat="44.29995" lon="5.18647">
        <ele>428</ele>
        <time>2022-07-18T09:05:22Z</time>
      </trkpt>
      <trkpt lat="44.29995" lon="5.18641">
        <ele>428.2</ele>
        <time>2022-07-18T09:05:23Z</time>
      </trkpt>
      <trkpt lat="44.29995" lon="5.18636">
        <ele>428.4</ele>
        <time>2022-07-18T09:05:24Z</time>
      </trkpt>
      <trkpt lat="44.29994" lon="5.1863">
        <ele>428.5</ele>
        <time>2022-07-18T09:05:25Z</time>
      </trkpt>
      <trkpt lat="44.29994" lon="5.18624">
        <ele>428.7</ele>
        <time>2022-07-18T09:05:26Z</time>
      </trkpt>
      <trkpt lat="44.29994" lon="5.1862">
        <ele>428.8</ele>
        <time>2022-07-18T09:05:27Z</time>
      </trkpt>
      <trkpt lat="44.29996" lon="5.18615">
        <ele>429</ele>
        <time>2022-07-18T09:05:28Z</time>
      </trkpt>
      <trkpt lat="44.29996" lon="5.18613">
        <ele>429</ele>
        <time>2022-07-18T09:05:29Z</time>
      </trkpt>
      <trkpt lat="44.29999" lon="5.1861">
        <ele>429.1</ele>
        <time>2022-07-18T09:05:30Z</time>
      </trkpt>
      <trkpt lat="44.3" lon="5.18609">
        <ele>429.2</ele>
        <time>2022-07-18T09:05:31Z</time>
      </trkpt>
      <trkpt lat="44.30002" lon="5.18608">
        <ele>429.3</ele>
        <time>2022-07-18T09:05:32Z</time>
      </trkpt>
      <trkpt lat="44.30005" lon="5.18606">
        <ele>429.4</ele>
        <time>2022-07-18T09:05:33Z</time>
      </trkpt>
      <trkpt lat="44.30006" lon="5.18606">
        <ele>429.4</ele>
        <time>2022-07-18T09:05:34Z</time>
      </trkpt>
      <trkpt lat="44.3001" lon="5.18605">
        <ele>429.5</ele>
        <time>2022-07-18T09:05:35Z</time>
      </trkpt>
      <trkpt lat="44.30011" lon="5.18604">
        <ele>429.6</ele>
        <time>2022-07-18T09:05:36Z</time>
      </trkpt>
      <trkpt lat="44.30014" lon="5.18603">
        <ele>429.7</ele>
        <time>2022-07-18T09:05:37Z</time>
      </trkpt>
      <trkpt lat="44.30017" lon="5.18602">
        <ele>429.7</ele>
        <time>2022-07-18T09:05:38Z</time>
      </trkpt>
      <trkpt lat="44.3002" lon="5.18602">
        <ele>429.8</ele>
        <time>2022-07-18T09:05:39Z</time>
      </trkpt>
      <trkpt lat="44.30024" lon="5.18601">
        <ele>429.8</ele>
        <time>2022-07-18T09:05:40Z</time>
      </trkpt>
      <trkpt lat="44.30028" lon="5.186">
        <ele>429.8</ele>
        <time>2022-07-18T09:05:42Z</time>
      </trkpt>
      <trkpt lat="44.30033" lon="5.18599">
        <ele>429.8</ele>
        <time>2022-07-18T09:05:43Z</time>
      </trkpt>
      <trkpt lat="44.30037" lon="5.18599">
        <ele>429.8</ele>
        <time>2022-07-18T09:05:44Z</time>
      </trkpt>
      <trkpt lat="44.30041" lon="5.18598">
        <ele>429.8</ele>
        <time>2022-07-18T09:05:45Z</time>
      </trkpt>
      <trkpt lat="44.30046" lon="5.18598">
        <ele>429.7</ele>
        <time>2022-07-18T09:05:46Z</time>
      </trkpt>
      <trkpt lat="44.3005" lon="5.18598">
        <ele>429.7</ele>
        <time>2022-07-18T09:05:47Z</time>
      </trkpt>
      <trkpt lat="44.30054" lon="5.18598">
        <ele>429.7</ele>
        <time>2022-07-18T09:05:48Z</time>
      </trkpt>
      <trkpt lat="44.30058" lon="5.18598">
        <ele>429.6</ele>
        <time>2022-07-18T09:05:49Z</time>
      </trkpt>
      <trkpt lat="44.30062" lon="5.18599">
        <ele>429.6</ele>
        <time>2022-07-18T09:05:50Z</time>
      </trkpt>
      <trkpt lat="44.30066" lon="5.186">
        <ele>429.6</ele>
        <time>2022-07-18T09:05:51Z</time>
      </trkpt>
      <trkpt lat="44.30069" lon="5.18602">
        <ele>429.6</ele>
        <time>2022-07-18T09:05:52Z</time>
      </trkpt>
      <trkpt lat="44.30072" lon="5.18604">
        <ele>429.6</ele>
        <time>2022-07-18T09:05:53Z</time>
      </trkpt>
      <trkpt lat="44.30076" lon="5.18605">
        <ele>429.7</ele>
        <time>2022-07-18T09:05:54Z</time>
      </trkpt>
      <trkpt lat="44.3008" lon="5.18606">
        <ele>429.7</ele>
        <time>2022-07-18T09:05:55Z</time>
      </trkpt>
      <trkpt lat="44.30084" lon="5.18607">
        <ele>429.7</ele>
        <time>2022-07-18T09:05:56Z</time>
      </trkpt>
      <trkpt lat="44.30088" lon="5.18607">
        <ele>429.8</ele>
        <time>2022-07-18T09:05:57Z</time>
      </trkpt>
      <trkpt lat="44.30092" lon="5.18607">
        <ele>429.8</ele>
        <time>2022-07-18T09:05:58Z</time>
      </trkpt>
      <trkpt lat="44.30096" lon="5.18607">
        <ele>429.9</ele>
        <time>2022-07-18T09:05:59Z</time>
      </trkpt>
      <trkpt lat="44.30099" lon="5.18606">
        <ele>430</ele>
        <time>2022-07-18T09:06:00Z</time>
      </trkpt>
      <trkpt lat="44.30103" lon="5.18605">
        <ele>430.1</ele>
        <time>2022-07-18T09:06:01Z</time>
      </trkpt>
      <trkpt lat="44.30106" lon="5.18604">
        <ele>430.2</ele>
        <time>2022-07-18T09:06:02Z</time>
      </trkpt>
      <trkpt lat="44.3011" lon="5.18603">
        <ele>430.3</ele>
        <time>2022-07-18T09:06:03Z</time>
      </trkpt>
      <trkpt lat="44.30113" lon="5.18601">
        <ele>430.4</ele>
        <time>2022-07-18T09:06:04Z</time>
      </trkpt>
      <trkpt lat="44.30117" lon="5.18599">
        <ele>430.5</ele>
        <time>2022-07-18T09:06:05Z</time>
      </trkpt>
      <trkpt lat="44.3012" lon="5.18597">
        <ele>430.6</ele>
        <time>2022-07-18T09:06:06Z</time>
      </trkpt>
      <trkpt lat="44.30123" lon="5.18596">
        <ele>430.7</ele>
        <time>2022-07-18T09:06:07Z</time>
      </trkpt>
      <trkpt lat="44.30126" lon="5.18595">
        <ele>430.8</ele>
        <time>2022-07-18T09:06:08Z</time>
      </trkpt>
      <trkpt lat="44.30127" lon="5.18595">
        <ele>430.9</ele>
        <time>2022-07-18T09:06:09Z</time>
      </trkpt>
      <trkpt lat="44.30131" lon="5.18592">
        <ele>431</ele>
        <time>2022-07-18T09:06:10Z</time>
      </trkpt>
      <trkpt lat="44.30133" lon="5.18591">
        <ele>431.1</ele>
        <time>2022-07-18T09:06:11Z</time>
      </trkpt>
      <trkpt lat="44.30136" lon="5.18588">
        <ele>431.2</ele>
        <time>2022-07-18T09:06:12Z</time>
      </trkpt>
      <trkpt lat="44.30139" lon="5.18585">
        <ele>431.3</ele>
        <time>2022-07-18T09:06:13Z</time>
      </trkpt>
      <trkpt lat="44.30142" lon="5.18583">
        <ele>431.5</ele>
        <time>2022-07-18T09:06:14Z</time>
      </trkpt>
      <trkpt lat="44.30145" lon="5.18579">
        <ele>431.6</ele>
        <time>2022-07-18T09:06:15Z</time>
      </trkpt>
      <trkpt lat="44.30148" lon="5.18576">
        <ele>431.7</ele>
        <time>2022-07-18T09:06:16Z</time>
      </trkpt>
      <trkpt lat="44.30151" lon="5.18573">
        <ele>431.9</ele>
        <time>2022-07-18T09:06:17Z</time>
      </trkpt>
      <trkpt lat="44.30154" lon="5.1857">
        <ele>432</ele>
        <time>2022-07-18T09:06:18Z</time>
      </trkpt>
      <trkpt lat="44.30156" lon="5.18566">
        <ele>432.2</ele>
        <time>2022-07-18T09:06:19Z</time>
      </trkpt>
      <trkpt lat="44.30159" lon="5.18563">
        <ele>432.3</ele>
        <time>2022-07-18T09:06:20Z</time>
      </trkpt>
      <trkpt lat="44.30162" lon="5.1856">
        <ele>432.4</ele>
        <time>2022-07-18T09:06:21Z</time>
      </trkpt>
      <trkpt lat="44.30165" lon="5.18557">
        <ele>432.5</ele>
        <time>2022-07-18T09:06:22Z</time>
      </trkpt>
      <trkpt lat="44.30168" lon="5.18554">
        <ele>432.7</ele>
        <time>2022-07-18T09:06:23Z</time>
      </trkpt>
      <trkpt lat="44.30172" lon="5.1855">
        <ele>432.8</ele>
        <time>2022-07-18T09:06:24Z</time>
      </trkpt>
      <trkpt lat="44.30175" lon="5.18547">
        <ele>432.9</ele>
        <time>2022-07-18T09:06:25Z</time>
      </trkpt>
      <trkpt lat="44.30178" lon="5.18544">
        <ele>433</ele>
        <time>2022-07-18T09:06:26Z</time>
      </trkpt>
      <trkpt lat="44.30181" lon="5.18541">
        <ele>433.1</ele>
        <time>2022-07-18T09:06:27Z</time>
      </trkpt>
      <trkpt lat="44.30184" lon="5.18538">
        <ele>433.3</ele>
        <time>2022-07-18T09:06:28Z</time>
      </trkpt>
      <trkpt lat="44.30187" lon="5.18535">
        <ele>433.4</ele>
        <time>2022-07-18T09:06:29Z</time>
      </trkpt>
      <trkpt lat="44.3019" lon="5.18532">
        <ele>433.5</ele>
        <time>2022-07-18T09:06:30Z</time>
      </trkpt>
      <trkpt lat="44.30193" lon="5.18529">
        <ele>433.7</ele>
        <time>2022-07-18T09:06:31Z</time>
      </trkpt>
      <trkpt lat="44.30196" lon="5.18525">
        <ele>433.8</ele>
        <time>2022-07-18T09:06:32Z</time>
      </trkpt>
      <trkpt lat="44.30199" lon="5.18522">
        <ele>434</ele>
        <time>2022-07-18T09:06:33Z</time>
      </trkpt>
      <trkpt lat="44.30202" lon="5.1852">
        <ele>434.2</ele>
        <time>2022-07-18T09:06:34Z</time>
      </trkpt>
      <trkpt lat="44.30206" lon="5.18517">
        <ele>434.3</ele>
        <time>2022-07-18T09:06:35Z</time>
      </trkpt>
      <trkpt lat="44.30209" lon="5.18516">
        <ele>434.5</ele>
        <time>2022-07-18T09:06:36Z</time>
      </trkpt>
      <trkpt lat="44.30213" lon="5.18515">
        <ele>434.7</ele>
        <time>2022-07-18T09:06:37Z</time>
      </trkpt>
      <trkpt lat="44.30216" lon="5.18515">
        <ele>434.7</ele>
        <time>2022-07-18T09:06:38Z</time>
      </trkpt>
      <trkpt lat="44.3022" lon="5.18516">
        <ele>434.7</ele>
        <time>2022-07-18T09:06:39Z</time>
      </trkpt>
      <trkpt lat="44.30223" lon="5.18518">
        <ele>434.8</ele>
        <time>2022-07-18T09:06:40Z</time>
      </trkpt>
      <trkpt lat="44.30226" lon="5.1852">
        <ele>434.8</ele>
        <time>2022-07-18T09:06:41Z</time>
      </trkpt>
      <trkpt lat="44.3023" lon="5.18522">
        <ele>434.8</ele>
        <time>2022-07-18T09:06:42Z</time>
      </trkpt>
      <trkpt lat="44.30233" lon="5.18525">
        <ele>434.9</ele>
        <time>2022-07-18T09:06:43Z</time>
      </trkpt>
      <trkpt lat="44.30236" lon="5.18529">
        <ele>434.9</ele>
        <time>2022-07-18T09:06:44Z</time>
      </trkpt>
      <trkpt lat="44.30239" lon="5.18532">
        <ele>435</ele>
        <time>2022-07-18T09:06:45Z</time>
      </trkpt>
      <trkpt lat="44.30242" lon="5.18536">
        <ele>435</ele>
        <time>2022-07-18T09:06:46Z</time>
      </trkpt>
      <trkpt lat="44.30245" lon="5.18539">
        <ele>435.1</ele>
        <time>2022-07-18T09:06:47Z</time>
      </trkpt>
      <trkpt lat="44.30248" lon="5.18542">
        <ele>435.2</ele>
        <time>2022-07-18T09:06:48Z</time>
      </trkpt>
      <trkpt lat="44.30251" lon="5.18545">
        <ele>435.2</ele>
        <time>2022-07-18T09:06:49Z</time>
      </trkpt>
      <trkpt lat="44.30255" lon="5.18548">
        <ele>435.3</ele>
        <time>2022-07-18T09:06:50Z</time>
      </trkpt>
      <trkpt lat="44.30258" lon="5.1855">
        <ele>435.4</ele>
        <time>2022-07-18T09:06:51Z</time>
      </trkpt>
      <trkpt lat="44.30261" lon="5.18552">
        <ele>435.4</ele>
        <time>2022-07-18T09:06:52Z</time>
      </trkpt>
      <trkpt lat="44.30265" lon="5.18554">
        <ele>435.5</ele>
        <time>2022-07-18T09:06:53Z</time>
      </trkpt>
      <trkpt lat="44.30268" lon="5.18555">
        <ele>435.6</ele>
        <time>2022-07-18T09:06:54Z</time>
      </trkpt>
      <trkpt lat="44.30271" lon="5.18557">
        <ele>435.7</ele>
        <time>2022-07-18T09:06:55Z</time>
      </trkpt>
      <trkpt lat="44.30274" lon="5.18558">
        <ele>435.8</ele>
        <time>2022-07-18T09:06:56Z</time>
      </trkpt>
      <trkpt lat="44.30278" lon="5.18558">
        <ele>435.8</ele>
        <time>2022-07-18T09:06:57Z</time>
      </trkpt>
      <trkpt lat="44.30281" lon="5.18557">
        <ele>435.9</ele>
        <time>2022-07-18T09:06:58Z</time>
      </trkpt>
      <trkpt lat="44.30284" lon="5.18556">
        <ele>436</ele>
        <time>2022-07-18T09:06:59Z</time>
      </trkpt>
      <trkpt lat="44.30287" lon="5.18554">
        <ele>436.1</ele>
        <time>2022-07-18T09:07:00Z</time>
      </trkpt>
      <trkpt lat="44.3029" lon="5.18551">
        <ele>436.2</ele>
        <time>2022-07-18T09:07:01Z</time>
      </trkpt>
      <trkpt lat="44.30293" lon="5.18548">
        <ele>436.3</ele>
        <time>2022-07-18T09:07:02Z</time>
      </trkpt>
      <trkpt lat="44.30295" lon="5.18545">
        <ele>436.4</ele>
        <time>2022-07-18T09:07:03Z</time>
      </trkpt>
      <trkpt lat="44.30297" lon="5.18541">
        <ele>436.5</ele>
        <time>2022-07-18T09:07:04Z</time>
      </trkpt>
      <trkpt lat="44.303" lon="5.18538">
        <ele>436.7</ele>
        <time>2022-07-18T09:07:05Z</time>
      </trkpt>
      <trkpt lat="44.30302" lon="5.18535">
        <ele>436.8</ele>
        <time>2022-07-18T09:07:06Z</time>
      </trkpt>
      <trkpt lat="44.30304" lon="5.18531">
        <ele>436.9</ele>
        <time>2022-07-18T09:07:07Z</time>
      </trkpt>
      <trkpt lat="44.30306" lon="5.18528">
        <ele>437.1</ele>
        <time>2022-07-18T09:07:08Z</time>
      </trkpt>
      <trkpt lat="44.30307" lon="5.18526">
        <ele>437.1</ele>
        <time>2022-07-18T09:07:09Z</time>
      </trkpt>
      <trkpt lat="44.3031" lon="5.18524">
        <ele>437.3</ele>
        <time>2022-07-18T09:07:10Z</time>
      </trkpt>
      <trkpt lat="44.30311" lon="5.18523">
        <ele>437.3</ele>
        <time>2022-07-18T09:07:11Z</time>
      </trkpt>
      <trkpt lat="44.30314" lon="5.1852">
        <ele>437.5</ele>
        <time>2022-07-18T09:07:12Z</time>
      </trkpt>
      <trkpt lat="44.30316" lon="5.18519">
        <ele>437.6</ele>
        <time>2022-07-18T09:07:13Z</time>
      </trkpt>
      <trkpt lat="44.30318" lon="5.18516">
        <ele>437.7</ele>
        <time>2022-07-18T09:07:14Z</time>
      </trkpt>
      <trkpt lat="44.30321" lon="5.18514">
        <ele>437.9</ele>
        <time>2022-07-18T09:07:15Z</time>
      </trkpt>
      <trkpt lat="44.30323" lon="5.18511">
        <ele>438</ele>
        <time>2022-07-18T09:07:16Z</time>
      </trkpt>
      <trkpt lat="44.30325" lon="5.18508">
        <ele>438.2</ele>
        <time>2022-07-18T09:07:17Z</time>
      </trkpt>
      <trkpt lat="44.30327" lon="5.18506">
        <ele>438.3</ele>
        <time>2022-07-18T09:07:18Z</time>
      </trkpt>
      <trkpt lat="44.30329" lon="5.18503">
        <ele>438.5</ele>
        <time>2022-07-18T09:07:19Z</time>
      </trkpt>
      <trkpt lat="44.3033" lon="5.18502">
        <ele>438.6</ele>
        <time>2022-07-18T09:07:20Z</time>
      </trkpt>
      <trkpt lat="44.30332" lon="5.18499">
        <ele>438.8</ele>
        <time>2022-07-18T09:07:21Z</time>
      </trkpt>
      <trkpt lat="44.30333" lon="5.18499">
        <ele>438.8</ele>
        <time>2022-07-18T09:07:22Z</time>
      </trkpt>
      <trkpt lat="44.30335" lon="5.18498">
        <ele>438.9</ele>
        <time>2022-07-18T09:07:23Z</time>
      </trkpt>
      <trkpt lat="44.30337" lon="5.18497">
        <ele>439.1</ele>
        <time>2022-07-18T09:07:24Z</time>
      </trkpt>
      <trkpt lat="44.3034" lon="5.18495">
        <ele>439.3</ele>
        <time>2022-07-18T09:07:25Z</time>
      </trkpt>
      <trkpt lat="44.30341" lon="5.18494">
        <ele>439.3</ele>
        <time>2022-07-18T09:07:26Z</time>
      </trkpt>
      <trkpt lat="44.30344" lon="5.18493">
        <ele>439.6</ele>
        <time>2022-07-18T09:07:27Z</time>
      </trkpt>
      <trkpt lat="44.30345" lon="5.18493">
        <ele>439.6</ele>
        <time>2022-07-18T09:07:28Z</time>
      </trkpt>
      <trkpt lat="44.30348" lon="5.18492">
        <ele>439.9</ele>
        <time>2022-07-18T09:07:29Z</time>
      </trkpt>
      <trkpt lat="44.30349" lon="5.18492">
        <ele>439.9</ele>
        <time>2022-07-18T09:07:30Z</time>
      </trkpt>
      <trkpt lat="44.30352" lon="5.1849">
        <ele>440.2</ele>
        <time>2022-07-18T09:07:31Z</time>
      </trkpt>
      <trkpt lat="44.30353" lon="5.1849">
        <ele>440.3</ele>
        <time>2022-07-18T09:07:32Z</time>
      </trkpt>
      <trkpt lat="44.30357" lon="5.18488">
        <ele>440.6</ele>
        <time>2022-07-18T09:07:33Z</time>
      </trkpt>
      <trkpt lat="44.30358" lon="5.18487">
        <ele>440.7</ele>
        <time>2022-07-18T09:07:34Z</time>
      </trkpt>
      <trkpt lat="44.30361" lon="5.18486">
        <ele>440.9</ele>
        <time>2022-07-18T09:07:35Z</time>
      </trkpt>
      <trkpt lat="44.30364" lon="5.18484">
        <ele>441.2</ele>
        <time>2022-07-18T09:07:36Z</time>
      </trkpt>
      <trkpt lat="44.30365" lon="5.18483">
        <ele>441.3</ele>
        <time>2022-07-18T09:07:37Z</time>
      </trkpt>
      <trkpt lat="44.30368" lon="5.18482">
        <ele>441.6</ele>
        <time>2022-07-18T09:07:38Z</time>
      </trkpt>
      <trkpt lat="44.30369" lon="5.18481">
        <ele>441.7</ele>
        <time>2022-07-18T09:07:39Z</time>
      </trkpt>
      <trkpt lat="44.30371" lon="5.18481">
        <ele>441.8</ele>
        <time>2022-07-18T09:07:40Z</time>
      </trkpt>
      <trkpt lat="44.30373" lon="5.18481">
        <ele>442</ele>
        <time>2022-07-18T09:07:41Z</time>
      </trkpt>
      <trkpt lat="44.30376" lon="5.1848">
        <ele>442.3</ele>
        <time>2022-07-18T09:07:42Z</time>
      </trkpt>
      <trkpt lat="44.30377" lon="5.1848">
        <ele>442.4</ele>
        <time>2022-07-18T09:07:43Z</time>
      </trkpt>
      <trkpt lat="44.3038" lon="5.18477">
        <ele>442.7</ele>
        <time>2022-07-18T09:07:44Z</time>
      </trkpt>
      <trkpt lat="44.30381" lon="5.18477">
        <ele>442.8</ele>
        <time>2022-07-18T09:07:45Z</time>
      </trkpt>
      <trkpt lat="44.30384" lon="5.18475">
        <ele>443.1</ele>
        <time>2022-07-18T09:07:46Z</time>
      </trkpt>
      <trkpt lat="44.30385" lon="5.18474">
        <ele>443.2</ele>
        <time>2022-07-18T09:07:47Z</time>
      </trkpt>
      <trkpt lat="44.30388" lon="5.18472">
        <ele>443.4</ele>
        <time>2022-07-18T09:07:48Z</time>
      </trkpt>
      <trkpt lat="44.30389" lon="5.18472">
        <ele>443.5</ele>
        <time>2022-07-18T09:07:49Z</time>
      </trkpt>
      <trkpt lat="44.30392" lon="5.1847">
        <ele>443.8</ele>
        <time>2022-07-18T09:07:50Z</time>
      </trkpt>
      <trkpt lat="44.30392" lon="5.1847">
        <ele>443.9</ele>
        <time>2022-07-18T09:07:51Z</time>
      </trkpt>
      <trkpt lat="44.30395" lon="5.18468">
        <ele>444.1</ele>
        <time>2022-07-18T09:07:52Z</time>
      </trkpt>
      <trkpt lat="44.30396" lon="5.18468">
        <ele>444.2</ele>
        <time>2022-07-18T09:07:53Z</time>
      </trkpt>
      <trkpt lat="44.30399" lon="5.18467">
        <ele>444.5</ele>
        <time>2022-07-18T09:07:54Z</time>
      </trkpt>
      <trkpt lat="44.304" lon="5.18467">
        <ele>444.6</ele>
        <time>2022-07-18T09:07:55Z</time>
      </trkpt>
      <trkpt lat="44.30403" lon="5.18466">
        <ele>444.8</ele>
        <time>2022-07-18T09:07:56Z</time>
      </trkpt>
      <trkpt lat="44.30404" lon="5.18466">
        <ele>444.9</ele>
        <time>2022-07-18T09:07:57Z</time>
      </trkpt>
      <trkpt lat="44.30406" lon="5.18465">
        <ele>445.1</ele>
        <time>2022-07-18T09:07:58Z</time>
      </trkpt>
      <trkpt lat="44.30407" lon="5.18464">
        <ele>445.1</ele>
        <time>2022-07-18T09:07:59Z</time>
      </trkpt>
      <trkpt lat="44.30408" lon="5.18464">
        <ele>445.2</ele>
        <time>2022-07-18T09:08:00Z</time>
      </trkpt>
      <trkpt lat="44.30409" lon="5.18464">
        <ele>445.3</ele>
        <time>2022-07-18T09:08:01Z</time>
      </trkpt>
      <trkpt lat="44.30411" lon="5.18464">
        <ele>445.5</ele>
        <time>2022-07-18T09:08:02Z</time>
      </trkpt>
      <trkpt lat="44.30413" lon="5.18464">
        <ele>445.6</ele>
        <time>2022-07-18T09:08:03Z</time>
      </trkpt>
      <trkpt lat="44.30414" lon="5.18465">
        <ele>445.7</ele>
        <time>2022-07-18T09:08:04Z</time>
      </trkpt>
      <trkpt lat="44.30417" lon="5.18465">
        <ele>446</ele>
        <time>2022-07-18T09:08:05Z</time>
      </trkpt>
      <trkpt lat="44.30418" lon="5.18465">
        <ele>446</ele>
        <time>2022-07-18T09:08:06Z</time>
      </trkpt>
      <trkpt lat="44.30421" lon="5.18465">
        <ele>446.3</ele>
        <time>2022-07-18T09:08:07Z</time>
      </trkpt>
      <trkpt lat="44.30422" lon="5.18465">
        <ele>446.4</ele>
        <time>2022-07-18T09:08:08Z</time>
      </trkpt>
      <trkpt lat="44.30425" lon="5.18464">
        <ele>446.7</ele>
        <time>2022-07-18T09:08:09Z</time>
      </trkpt>
      <trkpt lat="44.30426" lon="5.18464">
        <ele>446.8</ele>
        <time>2022-07-18T09:08:10Z</time>
      </trkpt>
      <trkpt lat="44.30429" lon="5.18464">
        <ele>447</ele>
        <time>2022-07-18T09:08:11Z</time>
      </trkpt>
      <trkpt lat="44.3043" lon="5.18463">
        <ele>447.1</ele>
        <time>2022-07-18T09:08:12Z</time>
      </trkpt>
      <trkpt lat="44.30432" lon="5.18463">
        <ele>447.3</ele>
        <time>2022-07-18T09:08:13Z</time>
      </trkpt>
      <trkpt lat="44.30433" lon="5.18463">
        <ele>447.4</ele>
        <time>2022-07-18T09:08:14Z</time>
      </trkpt>
      <trkpt lat="44.30435" lon="5.18463">
        <ele>447.5</ele>
        <time>2022-07-18T09:08:15Z</time>
      </trkpt>
      <trkpt lat="44.30436" lon="5.18461">
        <ele>447.7</ele>
        <time>2022-07-18T09:08:16Z</time>
      </trkpt>
      <trkpt lat="44.30439" lon="5.1846">
        <ele>448</ele>
        <time>2022-07-18T09:08:17Z</time>
      </trkpt>
      <trkpt lat="44.3044" lon="5.18459">
        <ele>448.1</ele>
        <time>2022-07-18T09:08:18Z</time>
      </trkpt>
      <trkpt lat="44.30443" lon="5.18457">
        <ele>448.4</ele>
        <time>2022-07-18T09:08:19Z</time>
      </trkpt>
      <trkpt lat="44.30444" lon="5.18457">
        <ele>448.5</ele>
        <time>2022-07-18T09:08:20Z</time>
      </trkpt>
      <trkpt lat="44.30446" lon="5.18456">
        <ele>448.6</ele>
        <time>2022-07-18T09:08:21Z</time>
      </trkpt>
      <trkpt lat="44.30447" lon="5.18456">
        <ele>448.7</ele>
        <time>2022-07-18T09:08:22Z</time>
      </trkpt>
      <trkpt lat="44.30448" lon="5.18456">
        <ele>448.9</ele>
        <time>2022-07-18T09:08:23Z</time>
      </trkpt>
      <trkpt lat="44.3045" lon="5.18456">
        <ele>449</ele>
        <time>2022-07-18T09:08:24Z</time>
      </trkpt>
      <trkpt lat="44.30451" lon="5.18455">
        <ele>449.1</ele>
        <time>2022-07-18T09:08:25Z</time>
      </trkpt>
      <trkpt lat="44.30452" lon="5.18456">
        <ele>449.2</ele>
        <time>2022-07-18T09:08:26Z</time>
      </trkpt>
      <trkpt lat="44.30453" lon="5.18455">
        <ele>449.3</ele>
        <time>2022-07-18T09:08:27Z</time>
      </trkpt>
      <trkpt lat="44.30455" lon="5.18455">
        <ele>449.4</ele>
        <time>2022-07-18T09:08:28Z</time>
      </trkpt>
      <trkpt lat="44.30457" lon="5.18455">
        <ele>449.6</ele>
        <time>2022-07-18T09:08:29Z</time>
      </trkpt>
      <trkpt lat="44.30458" lon="5.18454">
        <ele>449.7</ele>
        <time>2022-07-18T09:08:30Z</time>
      </trkpt>
      <trkpt lat="44.3046" lon="5.18454">
        <ele>449.8</ele>
        <time>2022-07-18T09:08:31Z</time>
      </trkpt>
      <trkpt lat="44.30461" lon="5.18455">
        <ele>450</ele>
        <time>2022-07-18T09:08:32Z</time>
      </trkpt>
      <trkpt lat="44.30463" lon="5.18455">
        <ele>450.1</ele>
        <time>2022-07-18T09:08:33Z</time>
      </trkpt>
      <trkpt lat="44.30464" lon="5.18455">
        <ele>450.2</ele>
        <time>2022-07-18T09:08:34Z</time>
      </trkpt>
      <trkpt lat="44.30466" lon="5.18455">
        <ele>450.3</ele>
        <time>2022-07-18T09:08:35Z</time>
      </trkpt>
      <trkpt lat="44.30469" lon="5.18455">
        <ele>450.6</ele>
        <time>2022-07-18T09:08:36Z</time>
      </trkpt>
      <trkpt lat="44.3047" lon="5.18455">
        <ele>450.7</ele>
        <time>2022-07-18T09:08:37Z</time>
      </trkpt>
      <trkpt lat="44.30472" lon="5.18455">
        <ele>450.8</ele>
        <time>2022-07-18T09:08:38Z</time>
      </trkpt>
      <trkpt lat="44.30473" lon="5.18454">
        <ele>450.9</ele>
        <time>2022-07-18T09:08:39Z</time>
      </trkpt>
      <trkpt lat="44.30474" lon="5.18454">
        <ele>451</ele>
        <time>2022-07-18T09:08:40Z</time>
      </trkpt>
      <trkpt lat="44.30477" lon="5.18453">
        <ele>451.3</ele>
        <time>2022-07-18T09:08:41Z</time>
      </trkpt>
      <trkpt lat="44.30479" lon="5.18453">
        <ele>451.4</ele>
        <time>2022-07-18T09:08:42Z</time>
      </trkpt>
      <trkpt lat="44.30482" lon="5.18452">
        <ele>451.7</ele>
        <time>2022-07-18T09:08:43Z</time>
      </trkpt>
      <trkpt lat="44.30483" lon="5.18452">
        <ele>451.8</ele>
        <time>2022-07-18T09:08:44Z</time>
      </trkpt>
      <trkpt lat="44.30486" lon="5.1845">
        <ele>452</ele>
        <time>2022-07-18T09:08:45Z</time>
      </trkpt>
      <trkpt lat="44.30488" lon="5.18449">
        <ele>452.1</ele>
        <time>2022-07-18T09:08:46Z</time>
      </trkpt>
      <trkpt lat="44.3049" lon="5.18448">
        <ele>452.4</ele>
        <time>2022-07-18T09:08:47Z</time>
      </trkpt>
      <trkpt lat="44.30491" lon="5.18447">
        <ele>452.5</ele>
        <time>2022-07-18T09:08:48Z</time>
      </trkpt>
      <trkpt lat="44.30494" lon="5.18445">
        <ele>452.7</ele>
        <time>2022-07-18T09:08:49Z</time>
      </trkpt>
      <trkpt lat="44.30494" lon="5.18444">
        <ele>452.8</ele>
        <time>2022-07-18T09:08:50Z</time>
      </trkpt>
      <trkpt lat="44.30496" lon="5.18443">
        <ele>453</ele>
        <time>2022-07-18T09:08:51Z</time>
      </trkpt>
      <trkpt lat="44.30498" lon="5.18442">
        <ele>453.1</ele>
        <time>2022-07-18T09:08:52Z</time>
      </trkpt>
      <trkpt lat="44.30499" lon="5.18441">
        <ele>453.2</ele>
        <time>2022-07-18T09:08:53Z</time>
      </trkpt>
      <trkpt lat="44.305" lon="5.1844">
        <ele>453.3</ele>
        <time>2022-07-18T09:08:54Z</time>
      </trkpt>
      <trkpt lat="44.30501" lon="5.18439">
        <ele>453.5</ele>
        <time>2022-07-18T09:08:55Z</time>
      </trkpt>
      <trkpt lat="44.30503" lon="5.18437">
        <ele>453.6</ele>
        <time>2022-07-18T09:08:56Z</time>
      </trkpt>
      <trkpt lat="44.30504" lon="5.18434">
        <ele>453.8</ele>
        <time>2022-07-18T09:08:57Z</time>
      </trkpt>
      <trkpt lat="44.30505" lon="5.18433">
        <ele>453.9</ele>
        <time>2022-07-18T09:08:58Z</time>
      </trkpt>
      <trkpt lat="44.30506" lon="5.18431">
        <ele>454</ele>
        <time>2022-07-18T09:08:59Z</time>
      </trkpt>
      <trkpt lat="44.30506" lon="5.18429">
        <ele>454.2</ele>
        <time>2022-07-18T09:09:00Z</time>
      </trkpt>
      <trkpt lat="44.30508" lon="5.18424">
        <ele>454.5</ele>
        <time>2022-07-18T09:09:01Z</time>
      </trkpt>
      <trkpt lat="44.30508" lon="5.18423">
        <ele>454.6</ele>
        <time>2022-07-18T09:09:02Z</time>
      </trkpt>
      <trkpt lat="44.3051" lon="5.18418">
        <ele>454.8</ele>
        <time>2022-07-18T09:09:03Z</time>
      </trkpt>
      <trkpt lat="44.3051" lon="5.18417">
        <ele>454.9</ele>
        <time>2022-07-18T09:09:04Z</time>
      </trkpt>
      <trkpt lat="44.30511" lon="5.18415">
        <ele>455.1</ele>
        <time>2022-07-18T09:09:05Z</time>
      </trkpt>
      <trkpt lat="44.30512" lon="5.18413">
        <ele>455.2</ele>
        <time>2022-07-18T09:09:06Z</time>
      </trkpt>
      <trkpt lat="44.30514" lon="5.1841">
        <ele>455.5</ele>
        <time>2022-07-18T09:09:07Z</time>
      </trkpt>
      <trkpt lat="44.30515" lon="5.18409">
        <ele>455.6</ele>
        <time>2022-07-18T09:09:08Z</time>
      </trkpt>
      <trkpt lat="44.30516" lon="5.18404">
        <ele>455.9</ele>
        <time>2022-07-18T09:09:09Z</time>
      </trkpt>
      <trkpt lat="44.30517" lon="5.18403">
        <ele>456</ele>
        <time>2022-07-18T09:09:10Z</time>
      </trkpt>
      <trkpt lat="44.30518" lon="5.18398">
        <ele>456.3</ele>
        <time>2022-07-18T09:09:11Z</time>
      </trkpt>
      <trkpt lat="44.30518" lon="5.18396">
        <ele>456.4</ele>
        <time>2022-07-18T09:09:12Z</time>
      </trkpt>
      <trkpt lat="44.30519" lon="5.18392">
        <ele>456.7</ele>
        <time>2022-07-18T09:09:13Z</time>
      </trkpt>
      <trkpt lat="44.3052" lon="5.1839">
        <ele>456.8</ele>
        <time>2022-07-18T09:09:14Z</time>
      </trkpt>
      <trkpt lat="44.30521" lon="5.18386">
        <ele>457.1</ele>
        <time>2022-07-18T09:09:15Z</time>
      </trkpt>
      <trkpt lat="44.30521" lon="5.18385">
        <ele>457.2</ele>
        <time>2022-07-18T09:09:16Z</time>
      </trkpt>
      <trkpt lat="44.30523" lon="5.18382">
        <ele>457.4</ele>
        <time>2022-07-18T09:09:17Z</time>
      </trkpt>
      <trkpt lat="44.30523" lon="5.1838">
        <ele>457.5</ele>
        <time>2022-07-18T09:09:18Z</time>
      </trkpt>
      <trkpt lat="44.30525" lon="5.18377">
        <ele>457.8</ele>
        <time>2022-07-18T09:09:19Z</time>
      </trkpt>
      <trkpt lat="44.30525" lon="5.18375">
        <ele>457.9</ele>
        <time>2022-07-18T09:09:20Z</time>
      </trkpt>
      <trkpt lat="44.30527" lon="5.18372">
        <ele>458.1</ele>
        <time>2022-07-18T09:09:21Z</time>
      </trkpt>
      <trkpt lat="44.30527" lon="5.18371">
        <ele>458.2</ele>
        <time>2022-07-18T09:09:22Z</time>
      </trkpt>
      <trkpt lat="44.30529" lon="5.1837">
        <ele>458.3</ele>
        <time>2022-07-18T09:09:23Z</time>
      </trkpt>
      <trkpt lat="44.30531" lon="5.1837">
        <ele>458.4</ele>
        <time>2022-07-18T09:09:24Z</time>
      </trkpt>
      <trkpt lat="44.30532" lon="5.18371">
        <ele>458.6</ele>
        <time>2022-07-18T09:09:25Z</time>
      </trkpt>
      <trkpt lat="44.30534" lon="5.18372">
        <ele>458.7</ele>
        <time>2022-07-18T09:09:26Z</time>
      </trkpt>
      <trkpt lat="44.30536" lon="5.18374">
        <ele>458.9</ele>
        <time>2022-07-18T09:09:27Z</time>
      </trkpt>
      <trkpt lat="44.30537" lon="5.18374">
        <ele>459</ele>
        <time>2022-07-18T09:09:28Z</time>
      </trkpt>
      <trkpt lat="44.30539" lon="5.18375">
        <ele>459.1</ele>
        <time>2022-07-18T09:09:29Z</time>
      </trkpt>
      <trkpt lat="44.3054" lon="5.18376">
        <ele>459.2</ele>
        <time>2022-07-18T09:09:30Z</time>
      </trkpt>
      <trkpt lat="44.30541" lon="5.18376">
        <ele>459.3</ele>
        <time>2022-07-18T09:09:31Z</time>
      </trkpt>
      <trkpt lat="44.30543" lon="5.18376">
        <ele>459.4</ele>
        <time>2022-07-18T09:09:32Z</time>
      </trkpt>
      <trkpt lat="44.30544" lon="5.18376">
        <ele>459.5</ele>
        <time>2022-07-18T09:09:33Z</time>
      </trkpt>
      <trkpt lat="44.30546" lon="5.18377">
        <ele>459.6</ele>
        <time>2022-07-18T09:09:34Z</time>
      </trkpt>
      <trkpt lat="44.30549" lon="5.18377">
        <ele>459.8</ele>
        <time>2022-07-18T09:09:35Z</time>
      </trkpt>
      <trkpt lat="44.3055" lon="5.18377">
        <ele>459.9</ele>
        <time>2022-07-18T09:09:36Z</time>
      </trkpt>
      <trkpt lat="44.30553" lon="5.18379">
        <ele>460.1</ele>
        <time>2022-07-18T09:09:37Z</time>
      </trkpt>
      <trkpt lat="44.30554" lon="5.18379">
        <ele>460.1</ele>
        <time>2022-07-18T09:09:38Z</time>
      </trkpt>
      <trkpt lat="44.30557" lon="5.18381">
        <ele>460.3</ele>
        <time>2022-07-18T09:09:39Z</time>
      </trkpt>
      <trkpt lat="44.30558" lon="5.18381">
        <ele>460.4</ele>
        <time>2022-07-18T09:09:40Z</time>
      </trkpt>
      <trkpt lat="44.30561" lon="5.18382">
        <ele>460.6</ele>
        <time>2022-07-18T09:09:41Z</time>
      </trkpt>
      <trkpt lat="44.30562" lon="5.18382">
        <ele>460.7</ele>
        <time>2022-07-18T09:09:42Z</time>
      </trkpt>
      <trkpt lat="44.30566" lon="5.18382">
        <ele>460.9</ele>
        <time>2022-07-18T09:09:43Z</time>
      </trkpt>
      <trkpt lat="44.30567" lon="5.18382">
        <ele>461</ele>
        <time>2022-07-18T09:09:44Z</time>
      </trkpt>
      <trkpt lat="44.30571" lon="5.18382">
        <ele>461.2</ele>
        <time>2022-07-18T09:09:45Z</time>
      </trkpt>
      <trkpt lat="44.30572" lon="5.18382">
        <ele>461.2</ele>
        <time>2022-07-18T09:09:46Z</time>
      </trkpt>
      <trkpt lat="44.30576" lon="5.18382">
        <ele>461.4</ele>
        <time>2022-07-18T09:09:47Z</time>
      </trkpt>
      <trkpt lat="44.30577" lon="5.18382">
        <ele>461.5</ele>
        <time>2022-07-18T09:09:48Z</time>
      </trkpt>
      <trkpt lat="44.3058" lon="5.18382">
        <ele>461.6</ele>
        <time>2022-07-18T09:09:49Z</time>
      </trkpt>
      <trkpt lat="44.30581" lon="5.18382">
        <ele>461.7</ele>
        <time>2022-07-18T09:09:50Z</time>
      </trkpt>
      <trkpt lat="44.30584" lon="5.18382">
        <ele>461.9</ele>
        <time>2022-07-18T09:09:51Z</time>
      </trkpt>
      <trkpt lat="44.30586" lon="5.18382">
        <ele>461.9</ele>
        <time>2022-07-18T09:09:52Z</time>
      </trkpt>
      <trkpt lat="44.30589" lon="5.18381">
        <ele>462.1</ele>
        <time>2022-07-18T09:09:53Z</time>
      </trkpt>
      <trkpt lat="44.3059" lon="5.18381">
        <ele>462.1</ele>
        <time>2022-07-18T09:09:54Z</time>
      </trkpt>
      <trkpt lat="44.30594" lon="5.1838">
        <ele>462.3</ele>
        <time>2022-07-18T09:09:55Z</time>
      </trkpt>
      <trkpt lat="44.30595" lon="5.1838">
        <ele>462.3</ele>
        <time>2022-07-18T09:09:56Z</time>
      </trkpt>
      <trkpt lat="44.30599" lon="5.18379">
        <ele>462.5</ele>
        <time>2022-07-18T09:09:57Z</time>
      </trkpt>
      <trkpt lat="44.306" lon="5.18379">
        <ele>462.5</ele>
        <time>2022-07-18T09:09:58Z</time>
      </trkpt>
      <trkpt lat="44.30603" lon="5.18379">
        <ele>462.7</ele>
        <time>2022-07-18T09:09:59Z</time>
      </trkpt>
      <trkpt lat="44.30604" lon="5.18379">
        <ele>462.7</ele>
        <time>2022-07-18T09:10:00Z</time>
      </trkpt>
      <trkpt lat="44.30607" lon="5.18379">
        <ele>462.8</ele>
        <time>2022-07-18T09:10:01Z</time>
      </trkpt>
      <trkpt lat="44.30608" lon="5.18379">
        <ele>462.9</ele>
        <time>2022-07-18T09:10:02Z</time>
      </trkpt>
      <trkpt lat="44.30612" lon="5.1838">
        <ele>463</ele>
        <time>2022-07-18T09:10:03Z</time>
      </trkpt>
      <trkpt lat="44.30613" lon="5.1838">
        <ele>463</ele>
        <time>2022-07-18T09:10:04Z</time>
      </trkpt>
      <trkpt lat="44.30616" lon="5.1838">
        <ele>463.2</ele>
        <time>2022-07-18T09:10:05Z</time>
      </trkpt>
      <trkpt lat="44.30617" lon="5.1838">
        <ele>463.2</ele>
        <time>2022-07-18T09:10:06Z</time>
      </trkpt>
      <trkpt lat="44.30621" lon="5.18381">
        <ele>463.4</ele>
        <time>2022-07-18T09:10:07Z</time>
      </trkpt>
      <trkpt lat="44.30622" lon="5.18381">
        <ele>463.4</ele>
        <time>2022-07-18T09:10:08Z</time>
      </trkpt>
      <trkpt lat="44.30626" lon="5.18381">
        <ele>463.6</ele>
        <time>2022-07-18T09:10:09Z</time>
      </trkpt>
      <trkpt lat="44.30627" lon="5.18382">
        <ele>463.6</ele>
        <time>2022-07-18T09:10:10Z</time>
      </trkpt>
      <trkpt lat="44.3063" lon="5.18383">
        <ele>463.8</ele>
        <time>2022-07-18T09:10:11Z</time>
      </trkpt>
      <trkpt lat="44.30631" lon="5.18383">
        <ele>463.9</ele>
        <time>2022-07-18T09:10:12Z</time>
      </trkpt>
      <trkpt lat="44.30635" lon="5.18384">
        <ele>464</ele>
        <time>2022-07-18T09:10:13Z</time>
      </trkpt>
      <trkpt lat="44.30636" lon="5.18384">
        <ele>464.1</ele>
        <time>2022-07-18T09:10:14Z</time>
      </trkpt>
      <trkpt lat="44.3064" lon="5.18384">
        <ele>464.3</ele>
        <time>2022-07-18T09:10:15Z</time>
      </trkpt>
      <trkpt lat="44.30641" lon="5.18385">
        <ele>464.3</ele>
        <time>2022-07-18T09:10:16Z</time>
      </trkpt>
      <trkpt lat="44.30645" lon="5.18385">
        <ele>464.5</ele>
        <time>2022-07-18T09:10:17Z</time>
      </trkpt>
      <trkpt lat="44.30646" lon="5.18386">
        <ele>464.6</ele>
        <time>2022-07-18T09:10:18Z</time>
      </trkpt>
      <trkpt lat="44.3065" lon="5.18387">
        <ele>464.7</ele>
        <time>2022-07-18T09:10:19Z</time>
      </trkpt>
      <trkpt lat="44.30651" lon="5.18387">
        <ele>464.8</ele>
        <time>2022-07-18T09:10:20Z</time>
      </trkpt>
      <trkpt lat="44.30655" lon="5.18388">
        <ele>465</ele>
        <time>2022-07-18T09:10:21Z</time>
      </trkpt>
      <trkpt lat="44.30656" lon="5.18388">
        <ele>465.1</ele>
        <time>2022-07-18T09:10:22Z</time>
      </trkpt>
      <trkpt lat="44.3066" lon="5.18389">
        <ele>465.2</ele>
        <time>2022-07-18T09:10:23Z</time>
      </trkpt>
      <trkpt lat="44.30661" lon="5.18389">
        <ele>465.3</ele>
        <time>2022-07-18T09:10:24Z</time>
      </trkpt>
      <trkpt lat="44.30665" lon="5.18391">
        <ele>465.5</ele>
        <time>2022-07-18T09:10:25Z</time>
      </trkpt>
      <trkpt lat="44.30666" lon="5.18391">
        <ele>465.6</ele>
        <time>2022-07-18T09:10:26Z</time>
      </trkpt>
      <trkpt lat="44.3067" lon="5.18392">
        <ele>465.8</ele>
        <time>2022-07-18T09:10:27Z</time>
      </trkpt>
      <trkpt lat="44.30671" lon="5.18392">
        <ele>465.9</ele>
        <time>2022-07-18T09:10:28Z</time>
      </trkpt>
      <trkpt lat="44.30675" lon="5.18393">
        <ele>466.1</ele>
        <time>2022-07-18T09:10:29Z</time>
      </trkpt>
      <trkpt lat="44.30676" lon="5.18394">
        <ele>466.1</ele>
        <time>2022-07-18T09:10:30Z</time>
      </trkpt>
      <trkpt lat="44.3068" lon="5.18395">
        <ele>466.4</ele>
        <time>2022-07-18T09:10:31Z</time>
      </trkpt>
      <trkpt lat="44.30681" lon="5.18395">
        <ele>466.4</ele>
        <time>2022-07-18T09:10:32Z</time>
      </trkpt>
      <trkpt lat="44.30685" lon="5.18396">
        <ele>466.7</ele>
        <time>2022-07-18T09:10:33Z</time>
      </trkpt>
      <trkpt lat="44.30687" lon="5.18396">
        <ele>466.7</ele>
        <time>2022-07-18T09:10:34Z</time>
      </trkpt>
      <trkpt lat="44.30689" lon="5.18397">
        <ele>466.9</ele>
        <time>2022-07-18T09:10:35Z</time>
      </trkpt>
      <trkpt lat="44.30693" lon="5.18398">
        <ele>467.1</ele>
        <time>2022-07-18T09:10:36Z</time>
      </trkpt>
      <trkpt lat="44.30694" lon="5.18398">
        <ele>467.2</ele>
        <time>2022-07-18T09:10:37Z</time>
      </trkpt>
      <trkpt lat="44.30698" lon="5.18399">
        <ele>467.4</ele>
        <time>2022-07-18T09:10:38Z</time>
      </trkpt>
      <trkpt lat="44.307" lon="5.18399">
        <ele>467.5</ele>
        <time>2022-07-18T09:10:39Z</time>
      </trkpt>
      <trkpt lat="44.30704" lon="5.18399">
        <ele>467.7</ele>
        <time>2022-07-18T09:10:40Z</time>
      </trkpt>
      <trkpt lat="44.30705" lon="5.184">
        <ele>467.8</ele>
        <time>2022-07-18T09:10:41Z</time>
      </trkpt>
      <trkpt lat="44.30708" lon="5.184">
        <ele>467.9</ele>
        <time>2022-07-18T09:10:42Z</time>
      </trkpt>
      <trkpt lat="44.30712" lon="5.184">
        <ele>468.1</ele>
        <time>2022-07-18T09:10:43Z</time>
      </trkpt>
      <trkpt lat="44.30713" lon="5.184">
        <ele>468.2</ele>
        <time>2022-07-18T09:10:44Z</time>
      </trkpt>
      <trkpt lat="44.30717" lon="5.18399">
        <ele>468.4</ele>
        <time>2022-07-18T09:10:45Z</time>
      </trkpt>
      <trkpt lat="44.30718" lon="5.18399">
        <ele>468.5</ele>
        <time>2022-07-18T09:10:46Z</time>
      </trkpt>
      <trkpt lat="44.30722" lon="5.18399">
        <ele>468.7</ele>
        <time>2022-07-18T09:10:47Z</time>
      </trkpt>
      <trkpt lat="44.30723" lon="5.18398">
        <ele>468.8</ele>
        <time>2022-07-18T09:10:48Z</time>
      </trkpt>
      <trkpt lat="44.30727" lon="5.18398">
        <ele>469</ele>
        <time>2022-07-18T09:10:49Z</time>
      </trkpt>
      <trkpt lat="44.30728" lon="5.18398">
        <ele>469</ele>
        <time>2022-07-18T09:10:50Z</time>
      </trkpt>
      <trkpt lat="44.30732" lon="5.18398">
        <ele>469.2</ele>
        <time>2022-07-18T09:10:51Z</time>
      </trkpt>
      <trkpt lat="44.30733" lon="5.18398">
        <ele>469.3</ele>
        <time>2022-07-18T09:10:52Z</time>
      </trkpt>
      <trkpt lat="44.30736" lon="5.18397">
        <ele>469.5</ele>
        <time>2022-07-18T09:10:53Z</time>
      </trkpt>
      <trkpt lat="44.30737" lon="5.18397">
        <ele>469.6</ele>
        <time>2022-07-18T09:10:54Z</time>
      </trkpt>
      <trkpt lat="44.30741" lon="5.18396">
        <ele>469.8</ele>
        <time>2022-07-18T09:10:55Z</time>
      </trkpt>
      <trkpt lat="44.30742" lon="5.18396">
        <ele>469.9</ele>
        <time>2022-07-18T09:10:56Z</time>
      </trkpt>
      <trkpt lat="44.30746" lon="5.18396">
        <ele>470.1</ele>
        <time>2022-07-18T09:10:57Z</time>
      </trkpt>
      <trkpt lat="44.30747" lon="5.18395">
        <ele>470.2</ele>
        <time>2022-07-18T09:10:58Z</time>
      </trkpt>
      <trkpt lat="44.3075" lon="5.18395">
        <ele>470.4</ele>
        <time>2022-07-18T09:10:59Z</time>
      </trkpt>
      <trkpt lat="44.30752" lon="5.18395">
        <ele>470.5</ele>
        <time>2022-07-18T09:11:00Z</time>
      </trkpt>
      <trkpt lat="44.30755" lon="5.18395">
        <ele>470.7</ele>
        <time>2022-07-18T09:11:01Z</time>
      </trkpt>
      <trkpt lat="44.30756" lon="5.18395">
        <ele>470.8</ele>
        <time>2022-07-18T09:11:02Z</time>
      </trkpt>
      <trkpt lat="44.3076" lon="5.18394">
        <ele>471</ele>
        <time>2022-07-18T09:11:03Z</time>
      </trkpt>
      <trkpt lat="44.30762" lon="5.18394">
        <ele>471.1</ele>
        <time>2022-07-18T09:11:04Z</time>
      </trkpt>
      <trkpt lat="44.30766" lon="5.18394">
        <ele>471.3</ele>
        <time>2022-07-18T09:11:05Z</time>
      </trkpt>
      <trkpt lat="44.30767" lon="5.18394">
        <ele>471.4</ele>
        <time>2022-07-18T09:11:06Z</time>
      </trkpt>
      <trkpt lat="44.3077" lon="5.18394">
        <ele>471.5</ele>
        <time>2022-07-18T09:11:07Z</time>
      </trkpt>
      <trkpt lat="44.30774" lon="5.18395">
        <ele>471.7</ele>
        <time>2022-07-18T09:11:08Z</time>
      </trkpt>
      <trkpt lat="44.30775" lon="5.18395">
        <ele>471.8</ele>
        <time>2022-07-18T09:11:09Z</time>
      </trkpt>
      <trkpt lat="44.30778" lon="5.18395">
        <ele>471.9</ele>
        <time>2022-07-18T09:11:10Z</time>
      </trkpt>
      <trkpt lat="44.30781" lon="5.18394">
        <ele>472.1</ele>
        <time>2022-07-18T09:11:11Z</time>
      </trkpt>
      <trkpt lat="44.30784" lon="5.18394">
        <ele>472.2</ele>
        <time>2022-07-18T09:11:12Z</time>
      </trkpt>
      <trkpt lat="44.30787" lon="5.18393">
        <ele>472.2</ele>
        <time>2022-07-18T09:11:13Z</time>
      </trkpt>
      <trkpt lat="44.3079" lon="5.18393">
        <ele>472.3</ele>
        <time>2022-07-18T09:11:14Z</time>
      </trkpt>
      <trkpt lat="44.30793" lon="5.18392">
        <ele>472.4</ele>
        <time>2022-07-18T09:11:15Z</time>
      </trkpt>
      <trkpt lat="44.30796" lon="5.18391">
        <ele>472.5</ele>
        <time>2022-07-18T09:11:16Z</time>
      </trkpt>
      <trkpt lat="44.30798" lon="5.18389">
        <ele>472.6</ele>
        <time>2022-07-18T09:11:17Z</time>
      </trkpt>
      <trkpt lat="44.30801" lon="5.18387">
        <ele>472.7</ele>
        <time>2022-07-18T09:11:18Z</time>
      </trkpt>
      <trkpt lat="44.30802" lon="5.18387">
        <ele>472.7</ele>
        <time>2022-07-18T09:11:19Z</time>
      </trkpt>
      <trkpt lat="44.30804" lon="5.18388">
        <ele>472.8</ele>
        <time>2022-07-18T09:11:20Z</time>
      </trkpt>
      <trkpt lat="44.30804" lon="5.18389">
        <ele>472.8</ele>
        <time>2022-07-18T09:11:21Z</time>
      </trkpt>
      <trkpt lat="44.30805" lon="5.18391">
        <ele>472.8</ele>
        <time>2022-07-18T09:11:22Z</time>
      </trkpt>
      <trkpt lat="44.30806" lon="5.18393">
        <ele>472.9</ele>
        <time>2022-07-18T09:11:23Z</time>
      </trkpt>
      <trkpt lat="44.30806" lon="5.18395">
        <ele>472.9</ele>
        <time>2022-07-18T09:11:24Z</time>
      </trkpt>
      <trkpt lat="44.30806" lon="5.18396">
        <ele>472.9</ele>
        <time>2022-07-18T09:11:25Z</time>
      </trkpt>
      <trkpt lat="44.30806" lon="5.18396">
        <ele>472.9</ele>
        <time>2022-07-18T09:11:26Z</time>
      </trkpt>
      <trkpt lat="44.30807" lon="5.18397">
        <ele>473</ele>
        <time>2022-07-18T09:11:27Z</time>
      </trkpt>
      <trkpt lat="44.30807" lon="5.18397">
        <ele>473</ele>
        <time>2022-07-18T09:11:28Z</time>
      </trkpt>
      <trkpt lat="44.30808" lon="5.18398">
        <ele>473</ele>
        <time>2022-07-18T09:11:29Z</time>
      </trkpt>
      <trkpt lat="44.30808" lon="5.18398">
        <ele>473</ele>
        <time>2022-07-18T09:11:30Z</time>
      </trkpt>
      <trkpt lat="44.30808" lon="5.18399">
        <ele>473</ele>
        <time>2022-07-18T09:11:31Z</time>
      </trkpt>
      <trkpt lat="44.30809" lon="5.18399">
        <ele>473</ele>
        <time>2022-07-18T09:11:32Z</time>
      </trkpt>
      <trkpt lat="44.30809" lon="5.184">
        <ele>473</ele>
        <time>2022-07-18T09:11:35Z</time>
      </trkpt>
      <trkpt lat="44.3081" lon="5.184">
        <ele>473.1</ele>
        <time>2022-07-18T09:11:36Z</time>
      </trkpt>
      <trkpt lat="44.3081" lon="5.18401">
        <ele>473.1</ele>
        <time>2022-07-18T09:11:37Z</time>
      </trkpt>
      <trkpt lat="44.3081" lon="5.18401">
        <ele>473.1</ele>
        <time>2022-07-18T09:11:38Z</time>
      </trkpt>
      <trkpt lat="44.30811" lon="5.18402">
        <ele>473.1</ele>
        <time>2022-07-18T09:11:39Z</time>
      </trkpt>
      <trkpt lat="44.30811" lon="5.18402">
        <ele>473.1</ele>
        <time>2022-07-18T09:11:40Z</time>
      </trkpt>
      <trkpt lat="44.30812" lon="5.18403">
        <ele>473.1</ele>
        <time>2022-07-18T09:11:41Z</time>
      </trkpt>
      <trkpt lat="44.30813" lon="5.18404">
        <ele>473.2</ele>
        <time>2022-07-18T09:11:42Z</time>
      </trkpt>
      <trkpt lat="44.30813" lon="5.18405">
        <ele>473.2</ele>
        <time>2022-07-18T09:11:43Z</time>
      </trkpt>
      <trkpt lat="44.30813" lon="5.18405">
        <ele>473.2</ele>
        <time>2022-07-18T09:11:44Z</time>
      </trkpt>
      <trkpt lat="44.30813" lon="5.18406">
        <ele>473.2</ele>
        <time>2022-07-18T09:11:45Z</time>
      </trkpt>
      <trkpt lat="44.30813" lon="5.18406">
        <ele>473.2</ele>
        <time>2022-07-18T09:11:46Z</time>
      </trkpt>
      <trkpt lat="44.30813" lon="5.18406">
        <ele>473.2</ele>
        <time>2022-07-18T09:11:47Z</time>
      </trkpt>
      <trkpt lat="44.30813" lon="5.18406">
        <ele>473.2</ele>
        <time>2022-07-18T09:11:48Z</time>
      </trkpt>
      <trkpt lat="44.30813" lon="5.18406">
        <ele>473.2</ele>
        <time>2022-07-18T09:11:49Z</time>
      </trkpt>
      <trkpt lat="44.30813" lon="5.18406">
        <ele>473.2</ele>
        <time>2022-07-18T09:11:50Z</time>
      </trkpt>
      <trkpt lat="44.30813" lon="5.18406">
        <ele>473.2</ele>
        <time>2022-07-18T09:11:51Z</time>
      </trkpt>
      <trkpt lat="44.30813" lon="5.18406">
        <ele>473.2</ele>
        <time>2022-07-18T09:11:52Z</time>
      </trkpt>
    </trkseg>
  </trk>
</gpx>